<?xml version='1.0' encoding='UTF-8'?><gpx version="1.1" creator="JPX - https://github.com/jenetics/jpx" xmlns="http://www.topografix.com/GPX/1/1"><trk><trkseg><trkpt lat="44.9346881966131" lon="9.67131717099457"><ele>142.99999999999997</ele><time>2026-04-05T07:42:06.852Z</time></trkpt><trkpt lat="44.934692351936725" lon="9.67141108995867"><ele>143.0</ele><time>2026-04-05T07:42:22Z</time></trkpt><trkpt lat="44.934750035137064" lon="9.671334531058992"><ele>143.0</ele><time>2026-04-05T07:42:38Z</time></trkpt><trkpt lat="44.93481298903051" lon="9.67132375857586"><ele>143.0</ele><time>2026-04-05T07:42:59Z</time></trkpt><trkpt lat="44.93488407975759" lon="9.671300267695507"><ele>143.0</ele><time>2026-04-05T07:49:59Z</time></trkpt><trkpt lat="44.934956694449625" lon="9.671215642676597"><ele>142.99999999999997</ele><time>2026-04-05T07:50:02Z</time></trkpt><trkpt lat="44.93495729056311" lon="9.67111910492054"><ele>143.0</ele><time>2026-04-05T07:50:05Z</time></trkpt><trkpt lat="44.93492113427749" lon="9.671045084634905"><ele>143.0</ele><time>2026-04-05T07:50:08Z</time></trkpt><trkpt lat="44.934854337410236" lon="9.67105961991603"><ele>143.0</ele><time>2026-04-05T07:50:12Z</time></trkpt><trkpt lat="44.934813367950014" lon="9.67112846821886"><ele>143.0</ele><time>2026-04-05T07:50:15Z</time></trkpt><trkpt lat="44.93479169461043" lon="9.671214130688913"><ele>143.0</ele><time>2026-04-05T07:50:19Z</time></trkpt><trkpt lat="44.9349201694371" lon="9.671203774543915"><ele>143.0</ele><time>2026-04-05T07:54:53Z</time></trkpt><trkpt lat="44.93491805077698" lon="9.67108507708649"><ele>143.0</ele><time>2026-04-05T07:54:55Z</time></trkpt><trkpt lat="44.934946922016245" lon="9.670973545747808"><ele>143.0</ele><time>2026-04-05T07:54:58Z</time></trkpt><trkpt lat="44.93501748811691" lon="9.671021516802165"><ele>143.0</ele><time>2026-04-05T07:55:03Z</time></trkpt><trkpt lat="44.93506840673909" lon="9.671123057940063"><ele>143.0</ele><time>2026-04-05T07:55:05Z</time></trkpt><trkpt lat="44.935099080121574" lon="9.671207069092866"><ele>143.0</ele><time>2026-04-05T07:55:06Z</time></trkpt><trkpt lat="44.935165515150324" lon="9.671342089892189"><ele>143.0</ele><time>2026-04-05T07:55:08Z</time></trkpt><trkpt lat="44.93520639679072" lon="9.671433091254265"><ele>143.0</ele><time>2026-04-05T07:55:09Z</time></trkpt><trkpt lat="44.93524818203346" lon="9.67151774920262"><ele>143.0</ele><time>2026-04-05T07:55:10Z</time></trkpt><trkpt lat="44.935297461785936" lon="9.671622865281748"><ele>143.0</ele><time>2026-04-05T07:55:11Z</time></trkpt><trkpt lat="44.93535127483765" lon="9.671740453748361"><ele>143.0</ele><time>2026-04-05T07:55:12Z</time></trkpt><trkpt lat="44.93540445051345" lon="9.671858372068796"><ele>143.0</ele><time>2026-04-05T07:55:13Z</time></trkpt><trkpt lat="44.93545030810045" lon="9.67196328711571"><ele>143.0</ele><time>2026-04-05T07:55:14Z</time></trkpt><trkpt lat="44.935501534036845" lon="9.672068339306382"><ele>142.8</ele><time>2026-04-05T07:55:15Z</time></trkpt><trkpt lat="44.935557703708135" lon="9.672193500165976"><ele>142.60000000000002</ele><time>2026-04-05T07:55:16Z</time></trkpt><trkpt lat="44.935623409738014" lon="9.672340358167217"><ele>142.39999999999998</ele><time>2026-04-05T07:55:17Z</time></trkpt><trkpt lat="44.935679589275864" lon="9.67246058063856"><ele>142.2</ele><time>2026-04-05T07:55:18Z</time></trkpt><trkpt lat="44.93572179519237" lon="9.67256036785475"><ele>142.0</ele><time>2026-04-05T07:55:19Z</time></trkpt><trkpt lat="44.93574476653461" lon="9.672680640958989"><ele>141.6</ele><time>2026-04-05T07:55:21Z</time></trkpt><trkpt lat="44.935621062125215" lon="9.672821282763364"><ele>141.2</ele><time>2026-04-05T07:55:23Z</time></trkpt><trkpt lat="44.9355687122776" lon="9.672939112326722"><ele>140.8</ele><time>2026-04-05T07:55:24Z</time></trkpt><trkpt lat="44.935540242259925" lon="9.673050718492986"><ele>140.4</ele><time>2026-04-05T07:55:25Z</time></trkpt><trkpt lat="44.935525170742366" lon="9.673183284543402"><ele>140.0</ele><time>2026-04-05T07:55:26Z</time></trkpt><trkpt lat="44.93548505813437" lon="9.673351900383906"><ele>140.0</ele><time>2026-04-05T07:55:27Z</time></trkpt><trkpt lat="44.93543893113349" lon="9.673502411938847"><ele>140.0</ele><time>2026-04-05T07:55:28Z</time></trkpt><trkpt lat="44.93540445182507" lon="9.673659106140521"><ele>140.0</ele><time>2026-04-05T07:55:29Z</time></trkpt><trkpt lat="44.93539142839484" lon="9.673810435018584"><ele>140.0</ele><time>2026-04-05T07:55:30Z</time></trkpt><trkpt lat="44.93535908284347" lon="9.673962046686851"><ele>139.6</ele><time>2026-04-05T07:55:31Z</time></trkpt><trkpt lat="44.935333460319924" lon="9.674101322479089"><ele>139.2</ele><time>2026-04-05T07:55:32Z</time></trkpt><trkpt lat="44.93531402853745" lon="9.67422374354803"><ele>138.8</ele><time>2026-04-05T07:55:33Z</time></trkpt><trkpt lat="44.93529286773148" lon="9.674335409286119"><ele>138.4</ele><time>2026-04-05T07:55:34Z</time></trkpt><trkpt lat="44.93527317672105" lon="9.674458040116571"><ele>138.0</ele><time>2026-04-05T07:55:35Z</time></trkpt><trkpt lat="44.935253482465576" lon="9.674597528919866"><ele>138.0</ele><time>2026-04-05T07:55:36Z</time></trkpt><trkpt lat="44.93523538778622" lon="9.674756521633151"><ele>138.0</ele><time>2026-04-05T07:55:37Z</time></trkpt><trkpt lat="44.93521790089922" lon="9.674900652133632"><ele>138.0</ele><time>2026-04-05T07:55:38Z</time></trkpt><trkpt lat="44.93521099975804" lon="9.675036672085227"><ele>138.0</ele><time>2026-04-05T07:55:39Z</time></trkpt><trkpt lat="44.935200282900425" lon="9.675173655314136"><ele>138.0</ele><time>2026-04-05T07:55:40Z</time></trkpt><trkpt lat="44.9351854720084" lon="9.675306341319748"><ele>137.8</ele><time>2026-04-05T07:55:41Z</time></trkpt><trkpt lat="44.93517304862879" lon="9.67544907515061"><ele>137.60000000000002</ele><time>2026-04-05T07:55:42Z</time></trkpt><trkpt lat="44.93515025698545" lon="9.67559834508527"><ele>137.39999999999998</ele><time>2026-04-05T07:55:43Z</time></trkpt><trkpt lat="44.935138959480305" lon="9.675741904646593"><ele>137.2</ele><time>2026-04-05T07:55:44Z</time></trkpt><trkpt lat="44.93512129969445" lon="9.675881733944916"><ele>137.0</ele><time>2026-04-05T07:55:45Z</time></trkpt><trkpt lat="44.93510655136644" lon="9.676019705432873"><ele>137.0</ele><time>2026-04-05T07:55:46Z</time></trkpt><trkpt lat="44.9350907363915" lon="9.676156032004544"><ele>137.0</ele><time>2026-04-05T07:55:47Z</time></trkpt><trkpt lat="44.935076790262556" lon="9.676305020991258"><ele>137.0</ele><time>2026-04-05T07:55:48Z</time></trkpt><trkpt lat="44.935067690759766" lon="9.67645430066206"><ele>137.0</ele><time>2026-04-05T07:55:49Z</time></trkpt><trkpt lat="44.9350730912699" lon="9.676639268605195"><ele>137.0</ele><time>2026-04-05T07:55:50Z</time></trkpt><trkpt lat="44.935064332113335" lon="9.676806091819467"><ele>137.0</ele><time>2026-04-05T07:55:51Z</time></trkpt><trkpt lat="44.93506596305494" lon="9.676958411215153"><ele>137.0</ele><time>2026-04-05T07:55:52Z</time></trkpt><trkpt lat="44.93505155439922" lon="9.677095239233264"><ele>137.0</ele><time>2026-04-05T07:55:53Z</time></trkpt><trkpt lat="44.93502575019547" lon="9.6772356500882"><ele>137.0</ele><time>2026-04-05T07:55:54Z</time></trkpt><trkpt lat="44.93500503543093" lon="9.677372454038245"><ele>137.0</ele><time>2026-04-05T07:55:55Z</time></trkpt><trkpt lat="44.93498043607934" lon="9.67751883431282"><ele>137.2</ele><time>2026-04-05T07:55:56Z</time></trkpt><trkpt lat="44.934962804174155" lon="9.677669672637618"><ele>137.39999999999998</ele><time>2026-04-05T07:55:57Z</time></trkpt><trkpt lat="44.9349386792794" lon="9.677813680576026"><ele>137.60000000000002</ele><time>2026-04-05T07:55:58Z</time></trkpt><trkpt lat="44.93492240076415" lon="9.677943792091634"><ele>137.8</ele><time>2026-04-05T07:55:59Z</time></trkpt><trkpt lat="44.93491141922858" lon="9.678075980146906"><ele>138.0</ele><time>2026-04-05T07:56:00Z</time></trkpt><trkpt lat="44.93491230631175" lon="9.678215204917445"><ele>138.0</ele><time>2026-04-05T07:56:01Z</time></trkpt><trkpt lat="44.934910818431675" lon="9.678353496567304"><ele>138.0</ele><time>2026-04-05T07:56:02Z</time></trkpt><trkpt lat="44.93489977368226" lon="9.678478805682412"><ele>138.0</ele><time>2026-04-05T07:56:03Z</time></trkpt><trkpt lat="44.934880086563474" lon="9.678588230851737"><ele>138.0</ele><time>2026-04-05T07:56:04Z</time></trkpt><trkpt lat="44.93484692626723" lon="9.678701146984906"><ele>138.0</ele><time>2026-04-05T07:56:05Z</time></trkpt><trkpt lat="44.93483906160703" lon="9.67881259123321"><ele>138.0</ele><time>2026-04-05T07:56:06Z</time></trkpt><trkpt lat="44.934818643542414" lon="9.678933304582351"><ele>138.0</ele><time>2026-04-05T07:56:07Z</time></trkpt><trkpt lat="44.93479704089102" lon="9.679061021319106"><ele>138.0</ele><time>2026-04-05T07:56:08Z</time></trkpt><trkpt lat="44.934741804476985" lon="9.679184709100312"><ele>138.0</ele><time>2026-04-05T07:56:09Z</time></trkpt><trkpt lat="44.93471860757164" lon="9.679333189196145"><ele>138.0</ele><time>2026-04-05T07:56:10Z</time></trkpt><trkpt lat="44.93469110836967" lon="9.679486102212724"><ele>138.0</ele><time>2026-04-05T07:56:11Z</time></trkpt><trkpt lat="44.93467307982934" lon="9.679621275404324"><ele>137.66666666666666</ele><time>2026-04-05T07:56:12Z</time></trkpt><trkpt lat="44.93465671668328" lon="9.67973880115697"><ele>137.33333333333334</ele><time>2026-04-05T07:56:13Z</time></trkpt><trkpt lat="44.93464603254568" lon="9.679850908600192"><ele>137.0</ele><time>2026-04-05T07:56:14Z</time></trkpt><trkpt lat="44.93463750787855" lon="9.679966437886039"><ele>136.66666666666669</ele><time>2026-04-05T07:56:15Z</time></trkpt><trkpt lat="44.93462277047424" lon="9.680087841932355"><ele>136.33333333333334</ele><time>2026-04-05T07:56:16Z</time></trkpt><trkpt lat="44.93460480085918" lon="9.680206761464667"><ele>136.0</ele><time>2026-04-05T07:56:17Z</time></trkpt><trkpt lat="44.93458957241233" lon="9.680314164820475"><ele>136.0</ele><time>2026-04-05T07:56:18Z</time></trkpt><trkpt lat="44.93457390272144" lon="9.680417921987143"><ele>136.0</ele><time>2026-04-05T07:56:19Z</time></trkpt><trkpt lat="44.93455924518776" lon="9.680514192655659"><ele>136.0</ele><time>2026-04-05T07:56:20Z</time></trkpt><trkpt lat="44.93453145516717" lon="9.680683958904002"><ele>136.0</ele><time>2026-04-05T07:56:22Z</time></trkpt><trkpt lat="44.93451345100424" lon="9.680794834924292"><ele>136.0</ele><time>2026-04-05T07:56:23Z</time></trkpt><trkpt lat="44.93449047683178" lon="9.680943498146032"><ele>136.0</ele><time>2026-04-05T07:56:24Z</time></trkpt><trkpt lat="44.93446235405215" lon="9.68109785603423"><ele>136.0</ele><time>2026-04-05T07:56:25Z</time></trkpt><trkpt lat="44.93443361457865" lon="9.681237878661468"><ele>136.0</ele><time>2026-04-05T07:56:26Z</time></trkpt><trkpt lat="44.934406428046344" lon="9.681396805034671"><ele>136.0</ele><time>2026-04-05T07:56:27Z</time></trkpt><trkpt lat="44.93438542360555" lon="9.681555137629301"><ele>136.0</ele><time>2026-04-05T07:56:28Z</time></trkpt><trkpt lat="44.934362780693625" lon="9.681712974338078"><ele>136.0</ele><time>2026-04-05T07:56:29Z</time></trkpt><trkpt lat="44.934335208360174" lon="9.681903346190108"><ele>136.0</ele><time>2026-04-05T07:56:29.999Z</time></trkpt><trkpt lat="44.934307648405856" lon="9.682097521881786"><ele>136.0</ele><time>2026-04-05T07:56:30.999Z</time></trkpt><trkpt lat="44.93428127709769" lon="9.682274329748248"><ele>136.0</ele><time>2026-04-05T07:56:31.999Z</time></trkpt><trkpt lat="44.93426081037776" lon="9.682414192312658"><ele>135.8</ele><time>2026-04-05T07:56:32.999Z</time></trkpt><trkpt lat="44.93424302358845" lon="9.682521925962641"><ele>135.6</ele><time>2026-04-05T07:56:33.999Z</time></trkpt><trkpt lat="44.934195109608076" lon="9.682638291307798"><ele>135.4</ele><time>2026-04-05T07:56:35.999Z</time></trkpt><trkpt lat="44.934058360314864" lon="9.682595584613079"><ele>135.2</ele><time>2026-04-05T07:56:37.999Z</time></trkpt><trkpt lat="44.93394125476422" lon="9.682534941832719"><ele>135.0</ele><time>2026-04-05T07:56:38.999Z</time></trkpt><trkpt lat="44.93379372793675" lon="9.682490690467466"><ele>135.66666666666666</ele><time>2026-04-05T07:56:39.999Z</time></trkpt><trkpt lat="44.93364264829441" lon="9.682443642841212"><ele>136.33333333333331</ele><time>2026-04-05T07:56:40.999Z</time></trkpt><trkpt lat="44.93349747632785" lon="9.68239661935593"><ele>137.0</ele><time>2026-04-05T07:56:41.999Z</time></trkpt><trkpt lat="44.93333607841387" lon="9.682344862644591"><ele>137.33333333333331</ele><time>2026-04-05T07:56:42.999Z</time></trkpt><trkpt lat="44.93316011561343" lon="9.682292195022454"><ele>137.66666666666666</ele><time>2026-04-05T07:56:43.999Z</time></trkpt><trkpt lat="44.93299283611035" lon="9.682238376536224"><ele>138.0</ele><time>2026-04-05T07:56:44.999Z</time></trkpt><trkpt lat="44.93280730757101" lon="9.682185165688137"><ele>138.0</ele><time>2026-04-05T07:56:45.999Z</time></trkpt><trkpt lat="44.93261005092503" lon="9.682130332178565"><ele>138.0</ele><time>2026-04-05T07:56:47Z</time></trkpt><trkpt lat="44.93242894161279" lon="9.682084427194795"><ele>138.0</ele><time>2026-04-05T07:56:48Z</time></trkpt><trkpt lat="44.93226340395688" lon="9.682036071847609"><ele>137.66666666666666</ele><time>2026-04-05T07:56:49Z</time></trkpt><trkpt lat="44.932104483344006" lon="9.681990033943173"><ele>137.33333333333331</ele><time>2026-04-05T07:56:50Z</time></trkpt><trkpt lat="44.93192493273113" lon="9.681936976201637"><ele>137.0</ele><time>2026-04-05T07:56:51Z</time></trkpt><trkpt lat="44.93173816952924" lon="9.68188467474559"><ele>137.33333333333331</ele><time>2026-04-05T07:56:52Z</time></trkpt><trkpt lat="44.93157004586582" lon="9.681834927258146"><ele>137.66666666666666</ele><time>2026-04-05T07:56:53Z</time></trkpt><trkpt lat="44.93141202411881" lon="9.681784421531106"><ele>138.0</ele><time>2026-04-05T07:56:54Z</time></trkpt><trkpt lat="44.931266545944354" lon="9.68174305662274"><ele>138.0</ele><time>2026-04-05T07:56:55Z</time></trkpt><trkpt lat="44.9311233481596" lon="9.68170363660233"><ele>138.0</ele><time>2026-04-05T07:56:56Z</time></trkpt><trkpt lat="44.930985989822" lon="9.681664131333356"><ele>138.0</ele><time>2026-04-05T07:56:57Z</time></trkpt><trkpt lat="44.93087164518394" lon="9.681617730953047"><ele>138.0</ele><time>2026-04-05T07:56:58Z</time></trkpt><trkpt lat="44.93077687524839" lon="9.681561620418586"><ele>138.16666666666666</ele><time>2026-04-05T07:56:59Z</time></trkpt><trkpt lat="44.93072371442355" lon="9.681503991134502"><ele>138.33333333333334</ele><time>2026-04-05T07:57:00Z</time></trkpt><trkpt lat="44.9306523034967" lon="9.681501244888029"><ele>138.5</ele><time>2026-04-05T07:57:03Z</time></trkpt><trkpt lat="44.93063196846172" lon="9.681586076505397"><ele>138.66666666666669</ele><time>2026-04-05T07:57:04Z</time></trkpt><trkpt lat="44.93062498866932" lon="9.681720164964934"><ele>138.83333333333334</ele><time>2026-04-05T07:57:05Z</time></trkpt><trkpt lat="44.93061261596408" lon="9.68188220901564"><ele>139.0</ele><time>2026-04-05T07:57:06Z</time></trkpt><trkpt lat="44.93059456626631" lon="9.68207438065579"><ele>139.0</ele><time>2026-04-05T07:57:07Z</time></trkpt><trkpt lat="44.93058173323451" lon="9.682259132020247"><ele>139.0</ele><time>2026-04-05T07:57:08Z</time></trkpt><trkpt lat="44.93057457002983" lon="9.682435008982196"><ele>139.0</ele><time>2026-04-05T07:57:09Z</time></trkpt><trkpt lat="44.93056972576056" lon="9.682572663444889"><ele>139.0</ele><time>2026-04-05T07:57:10Z</time></trkpt><trkpt lat="44.93055062481783" lon="9.682669083593241"><ele>139.0</ele><time>2026-04-05T07:57:11Z</time></trkpt><trkpt lat="44.93050692927931" lon="9.68274330523836"><ele>139.0</ele><time>2026-04-05T07:57:12Z</time></trkpt><trkpt lat="44.9304215500894" lon="9.682788547127645"><ele>139.0</ele><time>2026-04-05T07:57:13Z</time></trkpt><trkpt lat="44.930302146468094" lon="9.68278268647886"><ele>139.0</ele><time>2026-04-05T07:57:14Z</time></trkpt><trkpt lat="44.930166492716694" lon="9.682756704747424"><ele>139.0</ele><time>2026-04-05T07:57:15Z</time></trkpt><trkpt lat="44.929999825937735" lon="9.682717385390019"><ele>139.33333333333334</ele><time>2026-04-05T07:57:16Z</time></trkpt><trkpt lat="44.92980908534536" lon="9.682670135031863"><ele>139.66666666666666</ele><time>2026-04-05T07:57:17Z</time></trkpt><trkpt lat="44.9296116044649" lon="9.68265291573066"><ele>140.0</ele><time>2026-04-05T07:57:18Z</time></trkpt><trkpt lat="44.929397695519725" lon="9.682595947994542"><ele>140.0</ele><time>2026-04-05T07:57:19Z</time></trkpt><trkpt lat="44.92916744371042" lon="9.682528734026153"><ele>140.0</ele><time>2026-04-05T07:57:20Z</time></trkpt><trkpt lat="44.928959798310714" lon="9.682467287256031"><ele>140.0</ele><time>2026-04-05T07:57:21Z</time></trkpt><trkpt lat="44.92877993312794" lon="9.682420316610886"><ele>140.0</ele><time>2026-04-05T07:57:22Z</time></trkpt><trkpt lat="44.92861442209112" lon="9.682382924057183"><ele>140.0</ele><time>2026-04-05T07:57:23Z</time></trkpt><trkpt lat="44.92844811351555" lon="9.682349223168387"><ele>140.0</ele><time>2026-04-05T07:57:24Z</time></trkpt><trkpt lat="44.92827309559114" lon="9.682312147654457"><ele>139.66666666666666</ele><time>2026-04-05T07:57:25Z</time></trkpt><trkpt lat="44.928074669563934" lon="9.682271184128878"><ele>139.33333333333334</ele><time>2026-04-05T07:57:26Z</time></trkpt><trkpt lat="44.92784978211393" lon="9.682226485965694"><ele>139.0</ele><time>2026-04-05T07:57:27Z</time></trkpt><trkpt lat="44.92763581253401" lon="9.682182229230106"><ele>139.66666666666669</ele><time>2026-04-05T07:57:28Z</time></trkpt><trkpt lat="44.92744868439747" lon="9.682145616951772"><ele>140.33333333333334</ele><time>2026-04-05T07:57:29Z</time></trkpt><trkpt lat="44.92727593208099" lon="9.682112875088785"><ele>141.0</ele><time>2026-04-05T07:57:30Z</time></trkpt><trkpt lat="44.927110260811176" lon="9.682074144282579"><ele>141.0</ele><time>2026-04-05T07:57:31Z</time></trkpt><trkpt lat="44.92696027967165" lon="9.682036339544092"><ele>141.0</ele><time>2026-04-05T07:57:32Z</time></trkpt><trkpt lat="44.92682338546337" lon="9.681998605669552"><ele>141.0</ele><time>2026-04-05T07:57:33Z</time></trkpt><trkpt lat="44.926698667091415" lon="9.681957920173694"><ele>141.0</ele><time>2026-04-05T07:57:34Z</time></trkpt><trkpt lat="44.926587110531365" lon="9.681921744453327"><ele>141.2</ele><time>2026-04-05T07:57:35Z</time></trkpt><trkpt lat="44.92648390746292" lon="9.681887535288917"><ele>141.39999999999998</ele><time>2026-04-05T07:57:36Z</time></trkpt><trkpt lat="44.926395228155826" lon="9.68181853538767"><ele>141.6</ele><time>2026-04-05T07:57:37Z</time></trkpt><trkpt lat="44.92631548950823" lon="9.68178252215976"><ele>141.79999999999998</ele><time>2026-04-05T07:57:38Z</time></trkpt><trkpt lat="44.926228704259785" lon="9.681742373519311"><ele>142.0</ele><time>2026-04-05T07:57:40Z</time></trkpt><trkpt lat="44.926148405919314" lon="9.681973029302563"><ele>142.0</ele><time>2026-04-05T07:57:41Z</time></trkpt><trkpt lat="44.9261105988748" lon="9.682100666565265"><ele>142.0</ele><time>2026-04-05T07:57:42Z</time></trkpt><trkpt lat="44.9260739111905" lon="9.682263174511222"><ele>142.0</ele><time>2026-04-05T07:57:43Z</time></trkpt><trkpt lat="44.92603819072882" lon="9.68247468928308"><ele>142.0</ele><time>2026-04-05T07:57:44Z</time></trkpt><trkpt lat="44.92600365542993" lon="9.682690783168088"><ele>141.66666666666669</ele><time>2026-04-05T07:57:45Z</time></trkpt><trkpt lat="44.92596592631679" lon="9.682913751406684"><ele>141.33333333333334</ele><time>2026-04-05T07:57:46Z</time></trkpt><trkpt lat="44.92592798006666" lon="9.683137985916742"><ele>141.0</ele><time>2026-04-05T07:57:47Z</time></trkpt><trkpt lat="44.92588772732901" lon="9.683364725282743"><ele>141.0</ele><time>2026-04-05T07:57:48Z</time></trkpt><trkpt lat="44.92584767370272" lon="9.683591029601784"><ele>141.0</ele><time>2026-04-05T07:57:49Z</time></trkpt><trkpt lat="44.92580990089004" lon="9.683811469580254"><ele>141.0</ele><time>2026-04-05T07:57:50Z</time></trkpt><trkpt lat="44.92577602763438" lon="9.684016651663942"><ele>140.75</ele><time>2026-04-05T07:57:51Z</time></trkpt><trkpt lat="44.925744802686296" lon="9.684214319948675"><ele>140.5</ele><time>2026-04-05T07:57:52Z</time></trkpt><trkpt lat="44.925711353164715" lon="9.684412697981756"><ele>140.25</ele><time>2026-04-05T07:57:53Z</time></trkpt><trkpt lat="44.925677958109524" lon="9.684614638512027"><ele>140.0</ele><time>2026-04-05T07:57:54Z</time></trkpt><trkpt lat="44.92564359117696" lon="9.684814635325893"><ele>140.0</ele><time>2026-04-05T07:57:55Z</time></trkpt><trkpt lat="44.92561064889717" lon="9.685020504309136"><ele>140.0</ele><time>2026-04-05T07:57:56Z</time></trkpt><trkpt lat="44.9255740963215" lon="9.685236973157252"><ele>140.0</ele><time>2026-04-05T07:57:57Z</time></trkpt><trkpt lat="44.92553689053846" lon="9.6854558770485"><ele>139.75</ele><time>2026-04-05T07:57:58Z</time></trkpt><trkpt lat="44.925501825842886" lon="9.685667378853578"><ele>139.5</ele><time>2026-04-05T07:57:59Z</time></trkpt><trkpt lat="44.925470751127285" lon="9.685856468434517"><ele>139.25</ele><time>2026-04-05T07:58:00Z</time></trkpt><trkpt lat="44.925440453647504" lon="9.686025282490887"><ele>139.0</ele><time>2026-04-05T07:58:01Z</time></trkpt><trkpt lat="44.92540916693592" lon="9.686191879857093"><ele>138.75</ele><time>2026-04-05T07:58:02Z</time></trkpt><trkpt lat="44.92537700748194" lon="9.686376459791331"><ele>138.5</ele><time>2026-04-05T07:58:03Z</time></trkpt><trkpt lat="44.92534542049074" lon="9.686567352489593"><ele>138.25</ele><time>2026-04-05T07:58:04Z</time></trkpt><trkpt lat="44.92531064135876" lon="9.686783705832248"><ele>138.0</ele><time>2026-04-05T07:58:05Z</time></trkpt><trkpt lat="44.925276989498634" lon="9.687006091048984"><ele>139.0</ele><time>2026-04-05T07:58:06Z</time></trkpt><trkpt lat="44.92524171996006" lon="9.687227386848539"><ele>140.0</ele><time>2026-04-05T07:58:07Z</time></trkpt><trkpt lat="44.92520838156923" lon="9.687436271170089"><ele>141.0</ele><time>2026-04-05T07:58:08Z</time></trkpt><trkpt lat="44.92517406929279" lon="9.687637265450666"><ele>140.5</ele><time>2026-04-05T07:58:09Z</time></trkpt><trkpt lat="44.92514098749058" lon="9.687829924680303"><ele>140.0</ele><time>2026-04-05T07:58:10Z</time></trkpt><trkpt lat="44.92510496524452" lon="9.68803340819077"><ele>139.5</ele><time>2026-04-05T07:58:11Z</time></trkpt><trkpt lat="44.92506797676309" lon="9.688238940155504"><ele>139.0</ele><time>2026-04-05T07:58:12Z</time></trkpt><trkpt lat="44.925030925871326" lon="9.688441460016449"><ele>138.75</ele><time>2026-04-05T07:58:13Z</time></trkpt><trkpt lat="44.92499723292739" lon="9.68863790273179"><ele>138.5</ele><time>2026-04-05T07:58:13.999Z</time></trkpt><trkpt lat="44.92496536192276" lon="9.688841921497492"><ele>138.25</ele><time>2026-04-05T07:58:14.999Z</time></trkpt><trkpt lat="44.924916603118305" lon="9.689039883528116"><ele>138.0</ele><time>2026-04-05T07:58:15.999Z</time></trkpt><trkpt lat="44.924899627274755" lon="9.689247308880331"><ele>137.66666666666666</ele><time>2026-04-05T07:58:16.999Z</time></trkpt><trkpt lat="44.924864286715675" lon="9.689446642401997"><ele>137.33333333333331</ele><time>2026-04-05T07:58:17.999Z</time></trkpt><trkpt lat="44.92482311860823" lon="9.689649994050129"><ele>137.0</ele><time>2026-04-05T07:58:18.999Z</time></trkpt><trkpt lat="44.92477503788031" lon="9.689858385307716"><ele>137.0</ele><time>2026-04-05T07:58:19.999Z</time></trkpt><trkpt lat="44.92472582764553" lon="9.690063828271217"><ele>137.0</ele><time>2026-04-05T07:58:20.999Z</time></trkpt><trkpt lat="44.92467658362265" lon="9.690265374549499"><ele>137.0</ele><time>2026-04-05T07:58:21.999Z</time></trkpt><trkpt lat="44.924630103696494" lon="9.69045392799463"><ele>137.0</ele><time>2026-04-05T07:58:22.999Z</time></trkpt><trkpt lat="44.92458846289155" lon="9.690628558159988"><ele>136.75</ele><time>2026-04-05T07:58:23.999Z</time></trkpt><trkpt lat="44.924551819483966" lon="9.690789337717678"><ele>136.5</ele><time>2026-04-05T07:58:24.999Z</time></trkpt><trkpt lat="44.92450974217527" lon="9.69095813176688"><ele>136.25</ele><time>2026-04-05T07:58:25.999Z</time></trkpt><trkpt lat="44.9244678500327" lon="9.691136869746117"><ele>136.0</ele><time>2026-04-05T07:58:26.999Z</time></trkpt><trkpt lat="44.92442345530112" lon="9.691311199436877"><ele>136.0</ele><time>2026-04-05T07:58:27.999Z</time></trkpt><trkpt lat="44.924383179793075" lon="9.69147913789642"><ele>136.0</ele><time>2026-04-05T07:58:28.999Z</time></trkpt><trkpt lat="44.92434158519469" lon="9.691656063652266"><ele>136.0</ele><time>2026-04-05T07:58:29.999Z</time></trkpt><trkpt lat="44.924293626839905" lon="9.691855956409224"><ele>136.0</ele><time>2026-04-05T07:58:30.999Z</time></trkpt><trkpt lat="44.924247939613146" lon="9.692046861389118"><ele>136.0</ele><time>2026-04-05T07:58:31.999Z</time></trkpt><trkpt lat="44.92420151095858" lon="9.692234699452776"><ele>136.0</ele><time>2026-04-05T07:58:32.999Z</time></trkpt><trkpt lat="44.924154825200795" lon="9.692427587093693"><ele>136.0</ele><time>2026-04-05T07:58:33.999Z</time></trkpt><trkpt lat="44.92409144550003" lon="9.692614266413"><ele>136.0</ele><time>2026-04-05T07:58:34.999Z</time></trkpt><trkpt lat="44.924044801962104" lon="9.69280396324529"><ele>136.5</ele><time>2026-04-05T07:58:35.999Z</time></trkpt><trkpt lat="44.92399996471234" lon="9.692986314047374"><ele>137.0</ele><time>2026-04-05T07:58:36.999Z</time></trkpt><trkpt lat="44.92397348353916" lon="9.693162017410506"><ele>137.5</ele><time>2026-04-05T07:58:37.999Z</time></trkpt><trkpt lat="44.92391534099809" lon="9.693325453994857"><ele>138.0</ele><time>2026-04-05T07:58:38.999Z</time></trkpt><trkpt lat="44.9238780920837" lon="9.693535634529365"><ele>138.0</ele><time>2026-04-05T07:58:39.999Z</time></trkpt><trkpt lat="44.923812211910835" lon="9.69373704710439"><ele>138.0</ele><time>2026-04-05T07:58:40.999Z</time></trkpt><trkpt lat="44.92378259338293" lon="9.693928050524375"><ele>138.0</ele><time>2026-04-05T07:58:41.999Z</time></trkpt><trkpt lat="44.923742658927104" lon="9.694096810929942"><ele>138.0</ele><time>2026-04-05T07:58:42.999Z</time></trkpt><trkpt lat="44.923697541435565" lon="9.694247091347322"><ele>138.0</ele><time>2026-04-05T07:58:43.999Z</time></trkpt><trkpt lat="44.923645880010234" lon="9.694378300901354"><ele>138.0</ele><time>2026-04-05T07:58:44.999Z</time></trkpt><trkpt lat="44.923575421894995" lon="9.694495238852467"><ele>138.0</ele><time>2026-04-05T07:58:45.999Z</time></trkpt><trkpt lat="44.92348082149331" lon="9.694548931829225"><ele>138.0</ele><time>2026-04-05T07:58:46.999Z</time></trkpt><trkpt lat="44.923379357636456" lon="9.694620832940483"><ele>138.0</ele><time>2026-04-05T07:58:47.999Z</time></trkpt><trkpt lat="44.923260880112295" lon="9.694687031450112"><ele>138.25</ele><time>2026-04-05T07:58:48.999Z</time></trkpt><trkpt lat="44.92314354641073" lon="9.694734056862961"><ele>138.5</ele><time>2026-04-05T07:58:49.999Z</time></trkpt><trkpt lat="44.923053106382426" lon="9.694915416328977"><ele>138.75</ele><time>2026-04-05T07:58:50.999Z</time></trkpt><trkpt lat="44.92297263990188" lon="9.695021359826088"><ele>139.0</ele><time>2026-04-05T07:58:51.999Z</time></trkpt><trkpt lat="44.92291927187325" lon="9.69511202997586"><ele>139.0</ele><time>2026-04-05T07:58:53Z</time></trkpt><trkpt lat="44.922882597616166" lon="9.69520042919502"><ele>139.0</ele><time>2026-04-05T07:58:54Z</time></trkpt><trkpt lat="44.92285710229243" lon="9.695304308826408"><ele>139.0</ele><time>2026-04-05T07:58:56Z</time></trkpt><trkpt lat="44.922809706696995" lon="9.695439202031897"><ele>139.0</ele><time>2026-04-05T07:58:58Z</time></trkpt><trkpt lat="44.922515102964645" lon="9.695436699246555"><ele>138.75</ele><time>2026-04-05T07:59:00Z</time></trkpt><trkpt lat="44.92242148886196" lon="9.695417360651414"><ele>138.5</ele><time>2026-04-05T07:59:01Z</time></trkpt><trkpt lat="44.92231355978104" lon="9.695362431082344"><ele>138.25</ele><time>2026-04-05T07:59:02Z</time></trkpt><trkpt lat="44.92217570148869" lon="9.695290066749715"><ele>138.0</ele><time>2026-04-05T07:59:03Z</time></trkpt><trkpt lat="44.922050599863866" lon="9.695222569735346"><ele>138.0</ele><time>2026-04-05T07:59:04Z</time></trkpt><trkpt lat="44.92194255761025" lon="9.695150349347992"><ele>138.0</ele><time>2026-04-05T07:59:05Z</time></trkpt><trkpt lat="44.92182681283567" lon="9.695068546118186"><ele>138.0</ele><time>2026-04-05T07:59:06Z</time></trkpt><trkpt lat="44.92169158265546" lon="9.69497523381042"><ele>138.0</ele><time>2026-04-05T07:59:07Z</time></trkpt><trkpt lat="44.921549916351836" lon="9.694891095277272"><ele>137.75</ele><time>2026-04-05T07:59:08Z</time></trkpt><trkpt lat="44.921419120225835" lon="9.694822080196415"><ele>137.5</ele><time>2026-04-05T07:59:09Z</time></trkpt><trkpt lat="44.92131166926838" lon="9.694761586404129"><ele>137.25</ele><time>2026-04-05T07:59:10Z</time></trkpt><trkpt lat="44.921220624172065" lon="9.694670458280601"><ele>137.0</ele><time>2026-04-05T07:59:11Z</time></trkpt><trkpt lat="44.92112442054099" lon="9.694565820468211"><ele>137.0</ele><time>2026-04-05T07:59:12Z</time></trkpt><trkpt lat="44.921006712549044" lon="9.69447258188523"><ele>137.0</ele><time>2026-04-05T07:59:13Z</time></trkpt><trkpt lat="44.92089594384994" lon="9.694392556945804"><ele>137.0</ele><time>2026-04-05T07:59:14Z</time></trkpt><trkpt lat="44.92081320005103" lon="9.694319688554648"><ele>137.0</ele><time>2026-04-05T07:59:15Z</time></trkpt><trkpt lat="44.92073908117661" lon="9.694253077013325"><ele>137.0</ele><time>2026-04-05T07:59:16Z</time></trkpt><trkpt lat="44.9206449932458" lon="9.694182250894482"><ele>138.0</ele><time>2026-04-05T07:59:17Z</time></trkpt><trkpt lat="44.92051445504984" lon="9.694083800297646"><ele>139.0</ele><time>2026-04-05T07:59:18Z</time></trkpt><trkpt lat="44.9203730049252" lon="9.693968678992924"><ele>140.0</ele><time>2026-04-05T07:59:19Z</time></trkpt><trkpt lat="44.920236621885635" lon="9.69386791669558"><ele>140.0</ele><time>2026-04-05T07:59:20Z</time></trkpt><trkpt lat="44.92013319489233" lon="9.693779044739669"><ele>140.0</ele><time>2026-04-05T07:59:21Z</time></trkpt><trkpt lat="44.92005635734036" lon="9.69369852406024"><ele>140.0</ele><time>2026-04-05T07:59:22Z</time></trkpt><trkpt lat="44.92000390697303" lon="9.693609622781883"><ele>140.0</ele><time>2026-04-05T07:59:23Z</time></trkpt><trkpt lat="44.91995571681976" lon="9.693492101006417"><ele>140.0</ele><time>2026-04-05T07:59:24Z</time></trkpt><trkpt lat="44.919942120276524" lon="9.693387609281723"><ele>140.0</ele><time>2026-04-05T07:59:25Z</time></trkpt><trkpt lat="44.91993949063037" lon="9.693265695268833"><ele>140.0</ele><time>2026-04-05T07:59:26Z</time></trkpt><trkpt lat="44.91991208304476" lon="9.693132563604408"><ele>140.0</ele><time>2026-04-05T07:59:27Z</time></trkpt><trkpt lat="44.91985441995005" lon="9.693059838152157"><ele>140.0</ele><time>2026-04-05T07:59:28Z</time></trkpt><trkpt lat="44.91976196704802" lon="9.69300550587942"><ele>140.0</ele><time>2026-04-05T07:59:29Z</time></trkpt><trkpt lat="44.91965228318598" lon="9.692919287994872"><ele>140.0</ele><time>2026-04-05T07:59:30Z</time></trkpt><trkpt lat="44.91955212487521" lon="9.692807636390638"><ele>140.0</ele><time>2026-04-05T07:59:31Z</time></trkpt><trkpt lat="44.919456367374224" lon="9.692720211102904"><ele>140.0</ele><time>2026-04-05T07:59:32Z</time></trkpt><trkpt lat="44.919363400693065" lon="9.692668285620737"><ele>140.0</ele><time>2026-04-05T07:59:33Z</time></trkpt><trkpt lat="44.91926441182896" lon="9.692574515762876"><ele>140.5</ele><time>2026-04-05T07:59:34Z</time></trkpt><trkpt lat="44.91916566787277" lon="9.692503710047985"><ele>141.0</ele><time>2026-04-05T07:59:35Z</time></trkpt><trkpt lat="44.91906095629216" lon="9.692479976011576"><ele>141.5</ele><time>2026-04-05T07:59:36Z</time></trkpt><trkpt lat="44.918940376685164" lon="9.692488007108269"><ele>142.0</ele><time>2026-04-05T07:59:37Z</time></trkpt><trkpt lat="44.91880691316522" lon="9.69248446364975"><ele>142.0</ele><time>2026-04-05T07:59:38Z</time></trkpt><trkpt lat="44.918669980808865" lon="9.692445865641869"><ele>142.0</ele><time>2026-04-05T07:59:39Z</time></trkpt><trkpt lat="44.91851355224758" lon="9.692380764404842"><ele>142.0</ele><time>2026-04-05T07:59:40Z</time></trkpt><trkpt lat="44.91836936586346" lon="9.692302276977665"><ele>141.75</ele><time>2026-04-05T07:59:41Z</time></trkpt><trkpt lat="44.91823841131299" lon="9.692233150410974"><ele>141.5</ele><time>2026-04-05T07:59:42Z</time></trkpt><trkpt lat="44.91811347401139" lon="9.692176583106683"><ele>141.25</ele><time>2026-04-05T07:59:43Z</time></trkpt><trkpt lat="44.91798178929652" lon="9.69214272097483"><ele>141.0</ele><time>2026-04-05T07:59:44Z</time></trkpt><trkpt lat="44.917835638319595" lon="9.692113711604355"><ele>141.0</ele><time>2026-04-05T07:59:45Z</time></trkpt><trkpt lat="44.917715212918374" lon="9.692067636708988"><ele>141.0</ele><time>2026-04-05T07:59:46Z</time></trkpt><trkpt lat="44.917612330496" lon="9.692009489884425"><ele>141.0</ele><time>2026-04-05T07:59:47Z</time></trkpt><trkpt lat="44.91751767583872" lon="9.691945973908124"><ele>141.0</ele><time>2026-04-05T07:59:48Z</time></trkpt><trkpt lat="44.917458252287794" lon="9.691883261862804"><ele>141.0</ele><time>2026-04-05T07:59:49Z</time></trkpt><trkpt lat="44.917386577851175" lon="9.691708262986515"><ele>141.5</ele><time>2026-04-05T07:59:51Z</time></trkpt><trkpt lat="44.91732688552661" lon="9.691667908557223"><ele>142.0</ele><time>2026-04-05T07:59:52Z</time></trkpt><trkpt lat="44.9172316363617" lon="9.691647525634618"><ele>142.5</ele><time>2026-04-05T07:59:53Z</time></trkpt><trkpt lat="44.91712686896098" lon="9.691620226444128"><ele>143.0</ele><time>2026-04-05T07:59:54Z</time></trkpt><trkpt lat="44.91705918925246" lon="9.69157057588917"><ele>143.5</ele><time>2026-04-05T07:59:55Z</time></trkpt><trkpt lat="44.91697547942951" lon="9.691519952632706"><ele>144.0</ele><time>2026-04-05T07:59:57Z</time></trkpt><trkpt lat="44.91683898867274" lon="9.691595343335614"><ele>143.75</ele><time>2026-04-05T07:59:59Z</time></trkpt><trkpt lat="44.91672918057437" lon="9.691561495970113"><ele>143.5</ele><time>2026-04-05T08:00:00Z</time></trkpt><trkpt lat="44.91661386116194" lon="9.691493363448469"><ele>143.25</ele><time>2026-04-05T08:00:00.999Z</time></trkpt><trkpt lat="44.91650221822953" lon="9.691419074711877"><ele>143.0</ele><time>2026-04-05T08:00:01.999Z</time></trkpt><trkpt lat="44.916379505913774" lon="9.691341126515631"><ele>143.0</ele><time>2026-04-05T08:00:02.999Z</time></trkpt><trkpt lat="44.91627385166384" lon="9.691284803178878"><ele>143.0</ele><time>2026-04-05T08:00:03.999Z</time></trkpt><trkpt lat="44.91620191373615" lon="9.69126081475503"><ele>143.0</ele><time>2026-04-05T08:00:04.999Z</time></trkpt><trkpt lat="44.91610630955801" lon="9.691271968654108"><ele>143.0</ele><time>2026-04-05T08:00:06.999Z</time></trkpt><trkpt lat="44.9160236890972" lon="9.691319156372062"><ele>143.0</ele><time>2026-04-05T08:00:07.999Z</time></trkpt><trkpt lat="44.91593574551781" lon="9.691380491537807"><ele>143.0</ele><time>2026-04-05T08:00:08.999Z</time></trkpt><trkpt lat="44.9158624167464" lon="9.69142140193023"><ele>143.0</ele><time>2026-04-05T08:00:09.999Z</time></trkpt><trkpt lat="44.91576114005592" lon="9.691439588526759"><ele>143.0</ele><time>2026-04-05T08:00:10.999Z</time></trkpt><trkpt lat="44.91564588813784" lon="9.691455873613346"><ele>143.0</ele><time>2026-04-05T08:00:11.999Z</time></trkpt><trkpt lat="44.915558372425615" lon="9.691462744217851"><ele>143.0</ele><time>2026-04-05T08:00:12.999Z</time></trkpt><trkpt lat="44.91548284333473" lon="9.691402390274895"><ele>143.0</ele><time>2026-04-05T08:00:14.999Z</time></trkpt><trkpt lat="44.91539256408518" lon="9.691387527046757"><ele>143.0</ele><time>2026-04-05T08:00:15.999Z</time></trkpt><trkpt lat="44.915282961970696" lon="9.691385871740673"><ele>143.0</ele><time>2026-04-05T08:00:16.999Z</time></trkpt><trkpt lat="44.91516065818274" lon="9.691392091278137"><ele>143.0</ele><time>2026-04-05T08:00:17.999Z</time></trkpt><trkpt lat="44.915051629556444" lon="9.691382573392088"><ele>143.0</ele><time>2026-04-05T08:00:18.999Z</time></trkpt><trkpt lat="44.91498735610833" lon="9.691334281440714"><ele>142.8</ele><time>2026-04-05T08:00:19.999Z</time></trkpt><trkpt lat="44.91492481610772" lon="9.691241248786923"><ele>142.60000000000002</ele><time>2026-04-05T08:00:20.999Z</time></trkpt><trkpt lat="44.91484194343606" lon="9.691143057335578"><ele>142.39999999999998</ele><time>2026-04-05T08:00:21.999Z</time></trkpt><trkpt lat="44.914771230711295" lon="9.69107051350893"><ele>142.2</ele><time>2026-04-05T08:00:22.999Z</time></trkpt><trkpt lat="44.91464194310046" lon="9.691078179809162"><ele>142.0</ele><time>2026-04-05T08:00:24.999Z</time></trkpt><trkpt lat="44.91456107648977" lon="9.691114395985986"><ele>142.0</ele><time>2026-04-05T08:00:25.999Z</time></trkpt><trkpt lat="44.91449588011715" lon="9.691125809945682"><ele>142.0</ele><time>2026-04-05T08:00:26.999Z</time></trkpt><trkpt lat="44.91443211073332" lon="9.691116857994963"><ele>142.0</ele><time>2026-04-05T08:00:27.999Z</time></trkpt><trkpt lat="44.91436653965514" lon="9.691028881221792"><ele>142.0</ele><time>2026-04-05T08:00:29.999Z</time></trkpt><trkpt lat="44.914298256602734" lon="9.690906779251288"><ele>142.0</ele><time>2026-04-05T08:00:31.999Z</time></trkpt><trkpt lat="44.914210584034514" lon="9.690891364024651"><ele>142.0</ele><time>2026-04-05T08:00:32.999Z</time></trkpt><trkpt lat="44.91411831232098" lon="9.690851228015706"><ele>142.5</ele><time>2026-04-05T08:00:33.999Z</time></trkpt><trkpt lat="44.91404105271514" lon="9.690866466381046"><ele>143.0</ele><time>2026-04-05T08:00:35.999Z</time></trkpt><trkpt lat="44.91400594615239" lon="9.690993926491657"><ele>143.5</ele><time>2026-04-05T08:00:37.999Z</time></trkpt><trkpt lat="44.91393653065188" lon="9.69092842617508"><ele>144.0</ele><time>2026-04-05T08:00:39.999Z</time></trkpt><trkpt lat="44.913884010258066" lon="9.690847889209255"><ele>144.5</ele><time>2026-04-05T08:00:40.999Z</time></trkpt><trkpt lat="44.91380234487319" lon="9.690805606081545"><ele>145.0</ele><time>2026-04-05T08:00:41.999Z</time></trkpt><trkpt lat="44.91369846411946" lon="9.690754670137789"><ele>145.0</ele><time>2026-04-05T08:00:42.999Z</time></trkpt><trkpt lat="44.91358295607397" lon="9.690661172851476"><ele>145.0</ele><time>2026-04-05T08:00:43.999Z</time></trkpt><trkpt lat="44.913473258740446" lon="9.6905236306178"><ele>145.0</ele><time>2026-04-05T08:00:44.999Z</time></trkpt><trkpt lat="44.91337417176924" lon="9.69038100098504"><ele>145.0</ele><time>2026-04-05T08:00:45.999Z</time></trkpt><trkpt lat="44.91329961525961" lon="9.690296578813184"><ele>145.0</ele><time>2026-04-05T08:00:46.999Z</time></trkpt><trkpt lat="44.91316568388211" lon="9.690255418148498"><ele>145.0</ele><time>2026-04-05T08:00:48.999Z</time></trkpt><trkpt lat="44.91305787439145" lon="9.690226594683855"><ele>145.0</ele><time>2026-04-05T08:00:49.999Z</time></trkpt><trkpt lat="44.91292297656961" lon="9.690168233841005"><ele>145.0</ele><time>2026-04-05T08:00:50.999Z</time></trkpt><trkpt lat="44.912794507797145" lon="9.690097088964848"><ele>145.0</ele><time>2026-04-05T08:00:51.999Z</time></trkpt><trkpt lat="44.912682904731014" lon="9.690060510944633"><ele>145.0</ele><time>2026-04-05T08:00:52.999Z</time></trkpt><trkpt lat="44.91259638242196" lon="9.690074928122035"><ele>145.0</ele><time>2026-04-05T08:00:53.999Z</time></trkpt><trkpt lat="44.91251044824666" lon="9.690120256853408"><ele>145.0</ele><time>2026-04-05T08:00:54.999Z</time></trkpt><trkpt lat="44.91242597475745" lon="9.690135140851353"><ele>145.0</ele><time>2026-04-05T08:00:55.999Z</time></trkpt><trkpt lat="44.91234754993345" lon="9.690097488720333"><ele>145.5</ele><time>2026-04-05T08:00:56.999Z</time></trkpt><trkpt lat="44.912286600660074" lon="9.690030655120559"><ele>146.0</ele><time>2026-04-05T08:00:57.999Z</time></trkpt><trkpt lat="44.912207267711736" lon="9.68994168854304"><ele>146.5</ele><time>2026-04-05T08:00:59Z</time></trkpt><trkpt lat="44.91212135282182" lon="9.689874745921497"><ele>147.0</ele><time>2026-04-05T08:01:00Z</time></trkpt><trkpt lat="44.91205029715878" lon="9.68988156405119"><ele>147.5</ele><time>2026-04-05T08:01:01Z</time></trkpt><trkpt lat="44.91198542615174" lon="9.689910351353241"><ele>148.0</ele><time>2026-04-05T08:01:02Z</time></trkpt><trkpt lat="44.91182750825462" lon="9.689845136180937"><ele>147.8</ele><time>2026-04-05T08:01:04Z</time></trkpt><trkpt lat="44.91171259077661" lon="9.689788531807318"><ele>147.60000000000002</ele><time>2026-04-05T08:01:05Z</time></trkpt><trkpt lat="44.911636698047346" lon="9.689768135963291"><ele>147.39999999999998</ele><time>2026-04-05T08:01:06Z</time></trkpt><trkpt lat="44.91155178356974" lon="9.689848454654248"><ele>147.2</ele><time>2026-04-05T08:01:08Z</time></trkpt><trkpt lat="44.91147675850943" lon="9.689879860783073"><ele>147.0</ele><time>2026-04-05T08:01:09Z</time></trkpt><trkpt lat="44.911402404033524" lon="9.689850243421631"><ele>147.0</ele><time>2026-04-05T08:01:10Z</time></trkpt><trkpt lat="44.911300142485004" lon="9.689808680248616"><ele>147.0</ele><time>2026-04-05T08:01:12Z</time></trkpt><trkpt lat="44.911198177804785" lon="9.689924634898128"><ele>147.0</ele><time>2026-04-05T08:01:14Z</time></trkpt><trkpt lat="44.91112085651849" lon="9.689995907199382"><ele>147.0</ele><time>2026-04-05T08:01:15Z</time></trkpt><trkpt lat="44.91106045005281" lon="9.690032666805779"><ele>147.0</ele><time>2026-04-05T08:01:16Z</time></trkpt><trkpt lat="44.911025882562" lon="9.690143282968826"><ele>147.0</ele><time>2026-04-05T08:01:18Z</time></trkpt><trkpt lat="44.91093846537791" lon="9.690202565165649"><ele>147.0</ele><time>2026-04-05T08:01:20Z</time></trkpt><trkpt lat="44.91087586022595" lon="9.690127395613207"><ele>147.0</ele><time>2026-04-05T08:01:22Z</time></trkpt><trkpt lat="44.910844617415876" lon="9.690038796667013"><ele>147.0</ele><time>2026-04-05T08:01:34Z</time></trkpt><trkpt lat="44.91076837924098" lon="9.689909426795383"><ele>147.0</ele><time>2026-04-05T08:01:36Z</time></trkpt><trkpt lat="44.910742015592476" lon="9.689818446373597"><ele>147.0</ele><time>2026-04-05T08:01:37Z</time></trkpt><trkpt lat="44.91073905703576" lon="9.68971587866633"><ele>147.33333333333334</ele><time>2026-04-05T08:01:38Z</time></trkpt><trkpt lat="44.91075331837396" lon="9.689623629420142"><ele>147.66666666666666</ele><time>2026-04-05T08:01:39Z</time></trkpt><trkpt lat="44.910795697453494" lon="9.689484725852994"><ele>148.0</ele><time>2026-04-05T08:01:40Z</time></trkpt><trkpt lat="44.910819200202624" lon="9.68939766928833"><ele>148.33333333333331</ele><time>2026-04-05T08:01:41Z</time></trkpt><trkpt lat="44.91084684305563" lon="9.689275508408624"><ele>148.66666666666666</ele><time>2026-04-05T08:01:42Z</time></trkpt><trkpt lat="44.91085866889116" lon="9.68917134024385"><ele>149.0</ele><time>2026-04-05T08:01:43Z</time></trkpt><trkpt lat="44.9108632888196" lon="9.689073769178634"><ele>149.5</ele><time>2026-04-05T08:01:44Z</time></trkpt><trkpt lat="44.91081990078665" lon="9.688947389872302"><ele>150.0</ele><time>2026-04-05T08:01:46Z</time></trkpt><trkpt lat="44.910695538394705" lon="9.688849555633068"><ele>150.5</ele><time>2026-04-05T08:01:48Z</time></trkpt><trkpt lat="44.910597977511785" lon="9.688787357128204"><ele>151.0</ele><time>2026-04-05T08:01:48.999Z</time></trkpt><trkpt lat="44.91050364975555" lon="9.688718831633944"><ele>151.0</ele><time>2026-04-05T08:01:49.999Z</time></trkpt><trkpt lat="44.91044284247373" lon="9.688648643614162"><ele>151.0</ele><time>2026-04-05T08:01:50.999Z</time></trkpt><trkpt lat="44.91038451659055" lon="9.688527585776521"><ele>151.0</ele><time>2026-04-05T08:01:52.999Z</time></trkpt><trkpt lat="44.910390186689845" lon="9.688379954150685"><ele>151.0</ele><time>2026-04-05T08:01:54.999Z</time></trkpt><trkpt lat="44.91041863995135" lon="9.688274357893933"><ele>151.0</ele><time>2026-04-05T08:01:55.999Z</time></trkpt><trkpt lat="44.91044864682323" lon="9.688137963688598"><ele>150.8</ele><time>2026-04-05T08:01:56.999Z</time></trkpt><trkpt lat="44.91047241030546" lon="9.687989434407402"><ele>150.6</ele><time>2026-04-05T08:01:57.999Z</time></trkpt><trkpt lat="44.91049611690901" lon="9.687845302469949"><ele>150.4</ele><time>2026-04-05T08:01:58.999Z</time></trkpt><trkpt lat="44.910512144367516" lon="9.687709920788672"><ele>150.2</ele><time>2026-04-05T08:01:59.999Z</time></trkpt><trkpt lat="44.91052633043631" lon="9.687586880832093"><ele>150.0</ele><time>2026-04-05T08:02:00.999Z</time></trkpt><trkpt lat="44.91053643162366" lon="9.687471485880094"><ele>150.0</ele><time>2026-04-05T08:02:01.999Z</time></trkpt><trkpt lat="44.910548659521275" lon="9.687374842952039"><ele>150.0</ele><time>2026-04-05T08:02:02.999Z</time></trkpt><trkpt lat="44.910532842132255" lon="9.687233753582651"><ele>150.0</ele><time>2026-04-05T08:02:04.999Z</time></trkpt><trkpt lat="44.91040787395607" lon="9.687201354784696"><ele>150.0</ele><time>2026-04-05T08:02:06.999Z</time></trkpt><trkpt lat="44.91030445809928" lon="9.687201225195395"><ele>150.0</ele><time>2026-04-05T08:02:07.999Z</time></trkpt><trkpt lat="44.91018571614671" lon="9.68717610908133"><ele>150.6</ele><time>2026-04-05T08:02:08.999Z</time></trkpt><trkpt lat="44.91007201504726" lon="9.687153663517277"><ele>151.2</ele><time>2026-04-05T08:02:09.999Z</time></trkpt><trkpt lat="44.90996385422442" lon="9.68715415100418"><ele>151.8</ele><time>2026-04-05T08:02:10.999Z</time></trkpt><trkpt lat="44.90986389454014" lon="9.6871671613842"><ele>152.4</ele><time>2026-04-05T08:02:11.999Z</time></trkpt><trkpt lat="44.90976994808665" lon="9.687189137883163"><ele>153.0</ele><time>2026-04-05T08:02:12.999Z</time></trkpt><trkpt lat="44.90966651568322" lon="9.687208935534471"><ele>153.0</ele><time>2026-04-05T08:02:13.999Z</time></trkpt><trkpt lat="44.909562141645836" lon="9.687213952438812"><ele>153.0</ele><time>2026-04-05T08:02:14.999Z</time></trkpt><trkpt lat="44.90945939650697" lon="9.687234299805976"><ele>153.0</ele><time>2026-04-05T08:02:15.999Z</time></trkpt><trkpt lat="44.909343688672294" lon="9.687291823524545"><ele>153.0</ele><time>2026-04-05T08:02:16.999Z</time></trkpt><trkpt lat="44.90920875699527" lon="9.687373023796974"><ele>152.5</ele><time>2026-04-05T08:02:17.999Z</time></trkpt><trkpt lat="44.9090900027332" lon="9.687446962278662"><ele>152.0</ele><time>2026-04-05T08:02:18.999Z</time></trkpt><trkpt lat="44.908982502035606" lon="9.687500187894244"><ele>151.5</ele><time>2026-04-05T08:02:19.999Z</time></trkpt><trkpt lat="44.90887461276639" lon="9.687516276586408"><ele>151.0</ele><time>2026-04-05T08:02:20.999Z</time></trkpt><trkpt lat="44.90876153703796" lon="9.687505674156613"><ele>151.0</ele><time>2026-04-05T08:02:21.999Z</time></trkpt><trkpt lat="44.90865839626858" lon="9.687479384250592"><ele>151.0</ele><time>2026-04-05T08:02:22.999Z</time></trkpt><trkpt lat="44.908559189636264" lon="9.68744006594613"><ele>151.0</ele><time>2026-04-05T08:02:23.999Z</time></trkpt><trkpt lat="44.90846412913648" lon="9.687392649155111"><ele>151.0</ele><time>2026-04-05T08:02:24.999Z</time></trkpt><trkpt lat="44.90835078080505" lon="9.687377009963992"><ele>151.0</ele><time>2026-04-05T08:02:25.999Z</time></trkpt><trkpt lat="44.9082406670764" lon="9.687342732278115"><ele>151.16666666666669</ele><time>2026-04-05T08:02:26.999Z</time></trkpt><trkpt lat="44.908154024354985" lon="9.68731625602448"><ele>151.33333333333334</ele><time>2026-04-05T08:02:27.999Z</time></trkpt><trkpt lat="44.90807366664171" lon="9.687308319687949"><ele>151.5</ele><time>2026-04-05T08:02:28.999Z</time></trkpt><trkpt lat="44.90800635205645" lon="9.687276514614481"><ele>151.66666666666666</ele><time>2026-04-05T08:02:29.999Z</time></trkpt><trkpt lat="44.90796728745875" lon="9.68719806455965"><ele>151.83333333333331</ele><time>2026-04-05T08:02:30.999Z</time></trkpt><trkpt lat="44.90792776827301" lon="9.687105721223592"><ele>152.0</ele><time>2026-04-05T08:02:31.999Z</time></trkpt><trkpt lat="44.90786670946258" lon="9.687052746418109"><ele>152.0</ele><time>2026-04-05T08:02:32.999Z</time></trkpt><trkpt lat="44.90778629010018" lon="9.687011732974074"><ele>152.0</ele><time>2026-04-05T08:02:33.999Z</time></trkpt><trkpt lat="44.90769650288034" lon="9.686978767695814"><ele>152.0</ele><time>2026-04-05T08:02:34.999Z</time></trkpt><trkpt lat="44.907614634094145" lon="9.686946109889268"><ele>152.0</ele><time>2026-04-05T08:02:35.999Z</time></trkpt><trkpt lat="44.90755360451231" lon="9.686868876250134"><ele>152.0</ele><time>2026-04-05T08:02:36.999Z</time></trkpt><trkpt lat="44.90749382455302" lon="9.686808922449892"><ele>152.0</ele><time>2026-04-05T08:02:37.999Z</time></trkpt><trkpt lat="44.90741606725651" lon="9.686804296036822"><ele>151.83333333333331</ele><time>2026-04-05T08:02:38.999Z</time></trkpt><trkpt lat="44.90734279389657" lon="9.686784398139608"><ele>151.66666666666666</ele><time>2026-04-05T08:02:39.999Z</time></trkpt><trkpt lat="44.9072809669148" lon="9.686731603252584"><ele>151.5</ele><time>2026-04-05T08:02:40.999Z</time></trkpt><trkpt lat="44.90721559087361" lon="9.686634549159724"><ele>151.33333333333334</ele><time>2026-04-05T08:02:41.999Z</time></trkpt><trkpt lat="44.907143461303974" lon="9.686547222377731"><ele>151.16666666666669</ele><time>2026-04-05T08:02:42.999Z</time></trkpt><trkpt lat="44.90709134803755" lon="9.686495748987712"><ele>151.0</ele><time>2026-04-05T08:02:43.999Z</time></trkpt><trkpt lat="44.90706398629054" lon="9.686414155286755"><ele>151.0</ele><time>2026-04-05T08:02:44.999Z</time></trkpt><trkpt lat="44.90704919101905" lon="9.686304968833085"><ele>151.0</ele><time>2026-04-05T08:02:45.999Z</time></trkpt><trkpt lat="44.90701151350392" lon="9.686161530261964"><ele>151.0</ele><time>2026-04-05T08:02:46.999Z</time></trkpt><trkpt lat="44.90695804661547" lon="9.68601494782142"><ele>151.0</ele><time>2026-04-05T08:02:47.999Z</time></trkpt><trkpt lat="44.906902366594615" lon="9.68589293007717"><ele>151.0</ele><time>2026-04-05T08:02:48.999Z</time></trkpt><trkpt lat="44.90685586298001" lon="9.68578182524129"><ele>151.2</ele><time>2026-04-05T08:02:49.999Z</time></trkpt><trkpt lat="44.90681357318114" lon="9.685669430408232"><ele>151.39999999999998</ele><time>2026-04-05T08:02:50.999Z</time></trkpt><trkpt lat="44.906770741461514" lon="9.68556831021144"><ele>151.6</ele><time>2026-04-05T08:02:51.999Z</time></trkpt><trkpt lat="44.90672900634549" lon="9.68544382059392"><ele>151.79999999999998</ele><time>2026-04-05T08:02:52.999Z</time></trkpt><trkpt lat="44.906691816006564" lon="9.685307022529479"><ele>152.0</ele><time>2026-04-05T08:02:53.999Z</time></trkpt><trkpt lat="44.90666152128033" lon="9.68519846982714"><ele>152.33333333333331</ele><time>2026-04-05T08:02:54.999Z</time></trkpt><trkpt lat="44.906620413622946" lon="9.685102440314195"><ele>152.66666666666666</ele><time>2026-04-05T08:02:55.999Z</time></trkpt><trkpt lat="44.90657292639269" lon="9.685021139187008"><ele>153.0</ele><time>2026-04-05T08:02:56.999Z</time></trkpt><trkpt lat="44.90652131265277" lon="9.684947612007848"><ele>153.33333333333334</ele><time>2026-04-05T08:02:57.999Z</time></trkpt><trkpt lat="44.90644644985906" lon="9.684855973746629"><ele>153.66666666666669</ele><time>2026-04-05T08:02:58.999Z</time></trkpt><trkpt lat="44.906366678431446" lon="9.684775105200709"><ele>154.0</ele><time>2026-04-05T08:02:59.999Z</time></trkpt><trkpt lat="44.90628263912393" lon="9.684694630689794"><ele>154.0</ele><time>2026-04-05T08:03:00.999Z</time></trkpt><trkpt lat="44.906207734991014" lon="9.684621222697745"><ele>154.0</ele><time>2026-04-05T08:03:01.999Z</time></trkpt><trkpt lat="44.90613725789776" lon="9.68454916017789"><ele>154.0</ele><time>2026-04-05T08:03:02.999Z</time></trkpt><trkpt lat="44.90606890554695" lon="9.684479174678113"><ele>154.0</ele><time>2026-04-05T08:03:03.999Z</time></trkpt><trkpt lat="44.90600680769032" lon="9.684401710151507"><ele>154.0</ele><time>2026-04-05T08:03:05Z</time></trkpt><trkpt lat="44.90596227170493" lon="9.684324233155646"><ele>154.0</ele><time>2026-04-05T08:03:06Z</time></trkpt><trkpt lat="44.90592958389153" lon="9.684239411959824"><ele>154.2</ele><time>2026-04-05T08:03:07Z</time></trkpt><trkpt lat="44.90589106476266" lon="9.684062538649373"><ele>154.4</ele><time>2026-04-05T08:03:09Z</time></trkpt><trkpt lat="44.90584216192711" lon="9.683983100267344"><ele>154.6</ele><time>2026-04-05T08:03:10Z</time></trkpt><trkpt lat="44.905758745421316" lon="9.68392249375618"><ele>154.8</ele><time>2026-04-05T08:03:11Z</time></trkpt><trkpt lat="44.90566572762243" lon="9.683863639000984"><ele>155.0</ele><time>2026-04-05T08:03:12Z</time></trkpt><trkpt lat="44.90557395605077" lon="9.683796177470747"><ele>155.0</ele><time>2026-04-05T08:03:13Z</time></trkpt><trkpt lat="44.90548869151701" lon="9.683728555216925"><ele>155.0</ele><time>2026-04-05T08:03:14Z</time></trkpt><trkpt lat="44.90540786375163" lon="9.683661772751258"><ele>155.0</ele><time>2026-04-05T08:03:15Z</time></trkpt><trkpt lat="44.90532581138871" lon="9.683587409872695"><ele>155.0</ele><time>2026-04-05T08:03:16Z</time></trkpt><trkpt lat="44.90524828487484" lon="9.683499355255046"><ele>155.0</ele><time>2026-04-05T08:03:17Z</time></trkpt><trkpt lat="44.90517393683239" lon="9.683393186142109"><ele>155.0</ele><time>2026-04-05T08:03:18Z</time></trkpt><trkpt lat="44.90510402402228" lon="9.68328149406733"><ele>155.0</ele><time>2026-04-05T08:03:19Z</time></trkpt><trkpt lat="44.90503872966956" lon="9.683156599243206"><ele>155.0</ele><time>2026-04-05T08:03:20Z</time></trkpt><trkpt lat="44.904976344985656" lon="9.68302647361012"><ele>155.0</ele><time>2026-04-05T08:03:21Z</time></trkpt><trkpt lat="44.90491427227635" lon="9.68289719660113"><ele>155.0</ele><time>2026-04-05T08:03:22Z</time></trkpt><trkpt lat="44.904862950852156" lon="9.68276493831805"><ele>155.25</ele><time>2026-04-05T08:03:23Z</time></trkpt><trkpt lat="44.90482317078931" lon="9.682632185181586"><ele>155.5</ele><time>2026-04-05T08:03:24Z</time></trkpt><trkpt lat="44.90478275391491" lon="9.682472807660265"><ele>155.75</ele><time>2026-04-05T08:03:25Z</time></trkpt><trkpt lat="44.90474274049319" lon="9.682316472376693"><ele>156.0</ele><time>2026-04-05T08:03:26Z</time></trkpt><trkpt lat="44.90469151707458" lon="9.682159113136988"><ele>156.0</ele><time>2026-04-05T08:03:27Z</time></trkpt><trkpt lat="44.90463828279238" lon="9.682005364817854"><ele>156.0</ele><time>2026-04-05T08:03:28Z</time></trkpt><trkpt lat="44.90459077756107" lon="9.681872119500335"><ele>156.0</ele><time>2026-04-05T08:03:29Z</time></trkpt><trkpt lat="44.90455160612239" lon="9.681755380844661"><ele>156.0</ele><time>2026-04-05T08:03:30Z</time></trkpt><trkpt lat="44.904526806468596" lon="9.681661710480045"><ele>156.0</ele><time>2026-04-05T08:03:31Z</time></trkpt><trkpt lat="44.90447323963239" lon="9.681582338752248"><ele>156.0</ele><time>2026-04-05T08:03:33Z</time></trkpt><trkpt lat="44.90447455836519" lon="9.681475608671043"><ele>156.0</ele><time>2026-04-05T08:03:35Z</time></trkpt><trkpt lat="44.904416112781206" lon="9.68131241429324"><ele>156.0</ele><time>2026-04-05T08:03:37Z</time></trkpt><trkpt lat="44.904357224488734" lon="9.681193962154245"><ele>156.0</ele><time>2026-04-05T08:03:38Z</time></trkpt><trkpt lat="44.90431153635267" lon="9.681084474934035"><ele>156.0</ele><time>2026-04-05T08:03:39Z</time></trkpt><trkpt lat="44.90428728354833" lon="9.680987804235048"><ele>156.16666666666666</ele><time>2026-04-05T08:03:40Z</time></trkpt><trkpt lat="44.90430178735299" lon="9.680894088731748"><ele>156.33333333333334</ele><time>2026-04-05T08:03:41Z</time></trkpt><trkpt lat="44.90433499607329" lon="9.680794043199116"><ele>156.5</ele><time>2026-04-05T08:03:42Z</time></trkpt><trkpt lat="44.90435966514587" lon="9.68067734913684"><ele>156.66666666666669</ele><time>2026-04-05T08:03:43Z</time></trkpt><trkpt lat="44.904370373257" lon="9.680549841398081"><ele>156.83333333333334</ele><time>2026-04-05T08:03:43.999Z</time></trkpt><trkpt lat="44.90435571179176" lon="9.680431674140397"><ele>157.0</ele><time>2026-04-05T08:03:44.999Z</time></trkpt><trkpt lat="44.90432437353321" lon="9.680311004382059"><ele>157.2</ele><time>2026-04-05T08:03:45.999Z</time></trkpt><trkpt lat="44.90428394334031" lon="9.68017835402904"><ele>157.39999999999998</ele><time>2026-04-05T08:03:46.999Z</time></trkpt><trkpt lat="44.90423099559081" lon="9.680049488879119"><ele>157.60000000000002</ele><time>2026-04-05T08:03:47.999Z</time></trkpt><trkpt lat="44.90416389380666" lon="9.67992299259986"><ele>157.8</ele><time>2026-04-05T08:03:48.999Z</time></trkpt><trkpt lat="44.904087526996534" lon="9.67980938967007"><ele>158.0</ele><time>2026-04-05T08:03:49.999Z</time></trkpt><trkpt lat="44.9040016133222" lon="9.679714377094875"><ele>158.0</ele><time>2026-04-05T08:03:50.999Z</time></trkpt><trkpt lat="44.90390547052418" lon="9.679605529360689"><ele>158.0</ele><time>2026-04-05T08:03:51.999Z</time></trkpt><trkpt lat="44.90380619111281" lon="9.679508125202737"><ele>158.0</ele><time>2026-04-05T08:03:52.999Z</time></trkpt><trkpt lat="44.90371160707887" lon="9.679428973361684"><ele>158.0</ele><time>2026-04-05T08:03:53.999Z</time></trkpt><trkpt lat="44.90363147552097" lon="9.679350359584054"><ele>158.16666666666666</ele><time>2026-04-05T08:03:54.999Z</time></trkpt><trkpt lat="44.90357018807228" lon="9.679286926802009"><ele>158.33333333333331</ele><time>2026-04-05T08:03:55.999Z</time></trkpt><trkpt lat="44.903511663747196" lon="9.679226007030431"><ele>158.5</ele><time>2026-04-05T08:03:56.999Z</time></trkpt><trkpt lat="44.903438613449495" lon="9.679164688295305"><ele>158.66666666666666</ele><time>2026-04-05T08:03:57.999Z</time></trkpt><trkpt lat="44.90335929775329" lon="9.679110508129522"><ele>158.83333333333334</ele><time>2026-04-05T08:03:58.999Z</time></trkpt><trkpt lat="44.9032677856828" lon="9.67905204666393"><ele>159.0</ele><time>2026-04-05T08:03:59.999Z</time></trkpt><trkpt lat="44.90318476250908" lon="9.67899995830899"><ele>159.0</ele><time>2026-04-05T08:04:00.999Z</time></trkpt><trkpt lat="44.90311500548636" lon="9.678948938606277"><ele>159.0</ele><time>2026-04-05T08:04:01.999Z</time></trkpt><trkpt lat="44.90306504809602" lon="9.678811319101136"><ele>159.0</ele><time>2026-04-05T08:04:03.999Z</time></trkpt><trkpt lat="44.90306220251486" lon="9.678696797343413"><ele>159.0</ele><time>2026-04-05T08:04:04.999Z</time></trkpt><trkpt lat="44.903068096216636" lon="9.678574650077257"><ele>159.0</ele><time>2026-04-05T08:04:05.999Z</time></trkpt><trkpt lat="44.90308080756573" lon="9.678467243399899"><ele>159.0</ele><time>2026-04-05T08:04:06.999Z</time></trkpt><trkpt lat="44.90309492537252" lon="9.67836605220287"><ele>159.4</ele><time>2026-04-05T08:04:08.999Z</time></trkpt><trkpt lat="44.90309643315113" lon="9.678269760937305"><ele>159.8</ele><time>2026-04-05T08:04:11.999Z</time></trkpt><trkpt lat="44.903098295311885" lon="9.678143460512711"><ele>160.20000000000002</ele><time>2026-04-05T08:04:14.999Z</time></trkpt><trkpt lat="44.90308186131882" lon="9.677955362860985"><ele>160.60000000000002</ele><time>2026-04-05T08:04:16.999Z</time></trkpt><trkpt lat="44.90307487751065" lon="9.677836829091346"><ele>161.0</ele><time>2026-04-05T08:04:17.999Z</time></trkpt><trkpt lat="44.90306428136003" lon="9.677709956554162"><ele>161.0</ele><time>2026-04-05T08:04:18.999Z</time></trkpt><trkpt lat="44.903057201851" lon="9.677565225445527"><ele>161.0</ele><time>2026-04-05T08:04:19.999Z</time></trkpt><trkpt lat="44.903059744134055" lon="9.677417315858227"><ele>161.0</ele><time>2026-04-05T08:04:20.999Z</time></trkpt><trkpt lat="44.903064565383865" lon="9.677282201908938"><ele>161.0</ele><time>2026-04-05T08:04:21.999Z</time></trkpt><trkpt lat="44.90306892755233" lon="9.677161752669702"><ele>161.0</ele><time>2026-04-05T08:04:22.999Z</time></trkpt><trkpt lat="44.90307308528318" lon="9.677051526453974"><ele>161.0</ele><time>2026-04-05T08:04:23.999Z</time></trkpt><trkpt lat="44.90307546149754" lon="9.67694477551296"><ele>161.0</ele><time>2026-04-05T08:04:24.999Z</time></trkpt><trkpt lat="44.903075101769964" lon="9.676839727979006"><ele>161.0</ele><time>2026-04-05T08:04:25.999Z</time></trkpt><trkpt lat="44.90306890005788" lon="9.676725635659126"><ele>161.0</ele><time>2026-04-05T08:04:26.999Z</time></trkpt><trkpt lat="44.90306474560764" lon="9.676598742680751"><ele>161.0</ele><time>2026-04-05T08:04:27.999Z</time></trkpt><trkpt lat="44.903065195905576" lon="9.676471942818297"><ele>161.0</ele><time>2026-04-05T08:04:28.999Z</time></trkpt><trkpt lat="44.90306108857567" lon="9.67634403200687"><ele>161.20000000000002</ele><time>2026-04-05T08:04:29.999Z</time></trkpt><trkpt lat="44.903050305691984" lon="9.676208615338355"><ele>161.4</ele><time>2026-04-05T08:04:30.999Z</time></trkpt><trkpt lat="44.90303935913145" lon="9.676083027350929"><ele>161.6</ele><time>2026-04-05T08:04:31.999Z</time></trkpt><trkpt lat="44.903025287199824" lon="9.6759548016363"><ele>161.8</ele><time>2026-04-05T08:04:32.999Z</time></trkpt><trkpt lat="44.90300063871747" lon="9.675826661276563"><ele>162.0</ele><time>2026-04-05T08:04:33.999Z</time></trkpt><trkpt lat="44.90296820056262" lon="9.675701389422567"><ele>162.0</ele><time>2026-04-05T08:04:34.999Z</time></trkpt><trkpt lat="44.9029299682655" lon="9.675590529911043"><ele>162.0</ele><time>2026-04-05T08:04:35.999Z</time></trkpt><trkpt lat="44.90288299043407" lon="9.675491260090299"><ele>162.0</ele><time>2026-04-05T08:04:36.999Z</time></trkpt><trkpt lat="44.90281797370566" lon="9.675395158415597"><ele>162.0</ele><time>2026-04-05T08:04:37.999Z</time></trkpt><trkpt lat="44.90275553439055" lon="9.6753130028526"><ele>162.0</ele><time>2026-04-05T08:04:38.999Z</time></trkpt><trkpt lat="44.90268973630274" lon="9.6752443902484"><ele>162.0</ele><time>2026-04-05T08:04:39.999Z</time></trkpt><trkpt lat="44.90264326348537" lon="9.675180797635605"><ele>162.0</ele><time>2026-04-05T08:04:40.999Z</time></trkpt><trkpt lat="44.90258772812547" lon="9.675089564089692"><ele>162.0</ele><time>2026-04-05T08:04:42.999Z</time></trkpt><trkpt lat="44.902548591539656" lon="9.67501526128476"><ele>162.0</ele><time>2026-04-05T08:04:44.999Z</time></trkpt><trkpt lat="44.90252210297611" lon="9.674913837237414"><ele>162.0</ele><time>2026-04-05T08:05:08.999Z</time></trkpt><trkpt lat="44.90246632859389" lon="9.674732700207684"><ele>162.0</ele><time>2026-04-05T08:05:11Z</time></trkpt><trkpt lat="44.90242091398859" lon="9.674635401694209"><ele>162.2</ele><time>2026-04-05T08:05:12Z</time></trkpt><trkpt lat="44.90235821841695" lon="9.674536399689678"><ele>162.39999999999998</ele><time>2026-04-05T08:05:13Z</time></trkpt><trkpt lat="44.90229823457612" lon="9.674449450366891"><ele>162.60000000000002</ele><time>2026-04-05T08:05:14Z</time></trkpt><trkpt lat="44.90222566236035" lon="9.674325086731193"><ele>162.8</ele><time>2026-04-05T08:05:15Z</time></trkpt><trkpt lat="44.902147053834526" lon="9.674206605350172"><ele>163.0</ele><time>2026-04-05T08:05:16Z</time></trkpt><trkpt lat="44.90206811391592" lon="9.674094549248547"><ele>163.0</ele><time>2026-04-05T08:05:17Z</time></trkpt><trkpt lat="44.901986633318515" lon="9.67397120616528"><ele>163.0</ele><time>2026-04-05T08:05:18Z</time></trkpt><trkpt lat="44.90190815079054" lon="9.673853343176125"><ele>163.0</ele><time>2026-04-05T08:05:19Z</time></trkpt><trkpt lat="44.90182174121432" lon="9.673719568226005"><ele>163.0</ele><time>2026-04-05T08:05:20Z</time></trkpt><trkpt lat="44.90172713924455" lon="9.673583774682951"><ele>163.0</ele><time>2026-04-05T08:05:21Z</time></trkpt><trkpt lat="44.90162238025428" lon="9.673437630722592"><ele>163.0</ele><time>2026-04-05T08:05:22Z</time></trkpt><trkpt lat="44.90149962623297" lon="9.673277344868753"><ele>163.0</ele><time>2026-04-05T08:05:23Z</time></trkpt><trkpt lat="44.90137171992643" lon="9.673107887859118"><ele>163.0</ele><time>2026-04-05T08:05:24Z</time></trkpt><trkpt lat="44.90125764617758" lon="9.672942771709065"><ele>163.0</ele><time>2026-04-05T08:05:25Z</time></trkpt><trkpt lat="44.90114223982875" lon="9.672767639103965"><ele>163.0</ele><time>2026-04-05T08:05:26Z</time></trkpt><trkpt lat="44.90102817156785" lon="9.672594510190526"><ele>163.33333333333334</ele><time>2026-04-05T08:05:27Z</time></trkpt><trkpt lat="44.90091386238458" lon="9.672421423759229"><ele>163.66666666666666</ele><time>2026-04-05T08:05:28Z</time></trkpt><trkpt lat="44.90080804825259" lon="9.672259736276498"><ele>164.0</ele><time>2026-04-05T08:05:29Z</time></trkpt><trkpt lat="44.900702914768296" lon="9.672102860910297"><ele>164.0</ele><time>2026-04-05T08:05:30Z</time></trkpt><trkpt lat="44.90059896680374" lon="9.67194197522289"><ele>164.0</ele><time>2026-04-05T08:05:31Z</time></trkpt><trkpt lat="44.90048793135173" lon="9.671773104279804"><ele>164.0</ele><time>2026-04-05T08:05:32Z</time></trkpt><trkpt lat="44.90039367550472" lon="9.671612733802474"><ele>164.0</ele><time>2026-04-05T08:05:33Z</time></trkpt><trkpt lat="44.9003156350284" lon="9.671477977986806"><ele>164.0</ele><time>2026-04-05T08:05:34Z</time></trkpt><trkpt lat="44.90024857444885" lon="9.671344432548933"><ele>164.0</ele><time>2026-04-05T08:05:35Z</time></trkpt><trkpt lat="44.900181349164896" lon="9.671210006231393"><ele>164.0</ele><time>2026-04-05T08:05:36Z</time></trkpt><trkpt lat="44.90010503182594" lon="9.67109030967923"><ele>164.25</ele><time>2026-04-05T08:05:37Z</time></trkpt><trkpt lat="44.90000473403599" lon="9.671009117738057"><ele>164.5</ele><time>2026-04-05T08:05:38Z</time></trkpt><trkpt lat="44.899877100811274" lon="9.670942217210305"><ele>164.75</ele><time>2026-04-05T08:05:38.999Z</time></trkpt><trkpt lat="44.89973897248706" lon="9.670873741928308"><ele>165.0</ele><time>2026-04-05T08:05:39.999Z</time></trkpt><trkpt lat="44.89961626108066" lon="9.670798132216884"><ele>165.0</ele><time>2026-04-05T08:05:40.999Z</time></trkpt><trkpt lat="44.899499628627886" lon="9.670689606440671"><ele>165.0</ele><time>2026-04-05T08:05:41.999Z</time></trkpt><trkpt lat="44.89939587811314" lon="9.670565717144118"><ele>165.0</ele><time>2026-04-05T08:05:42.999Z</time></trkpt><trkpt lat="44.89930944363682" lon="9.670412154832254"><ele>165.0</ele><time>2026-04-05T08:05:43.999Z</time></trkpt><trkpt lat="44.8992263796532" lon="9.670231733256868"><ele>163.0</ele><time>2026-04-05T08:05:44.999Z</time></trkpt><trkpt lat="44.90222566236035" lon="9.674325086731193"><ele>163.0</ele><time>2026-04-05T08:05:15Z</time></trkpt><trkpt lat="44.902147053834526" lon="9.674206605350172"><ele>163.0</ele><time>2026-04-05T08:05:16Z</time></trkpt><trkpt lat="44.90206811391592" lon="9.674094549248547"><ele>163.0</ele><time>2026-04-05T08:05:17Z</time></trkpt><trkpt lat="44.901986633318515" lon="9.67397120616528"><ele>163.0</ele><time>2026-04-05T08:05:18Z</time></trkpt><trkpt lat="44.90190815079054" lon="9.673853343176125"><ele>163.0</ele><time>2026-04-05T08:05:19Z</time></trkpt><trkpt lat="44.90182174121432" lon="9.673719568226005"><ele>163.0</ele><time>2026-04-05T08:05:20Z</time></trkpt><trkpt lat="44.90172713924455" lon="9.673583774682951"><ele>163.0</ele><time>2026-04-05T08:05:21Z</time></trkpt><trkpt lat="44.90162238025428" lon="9.673437630722592"><ele>163.0</ele><time>2026-04-05T08:05:22Z</time></trkpt><trkpt lat="44.90149962623297" lon="9.673277344868753"><ele>163.0</ele><time>2026-04-05T08:05:23Z</time></trkpt><trkpt lat="44.90137171992643" lon="9.673107887859118"><ele>163.0</ele><time>2026-04-05T08:05:24Z</time></trkpt><trkpt lat="44.90125764617758" lon="9.672942771709065"><ele>163.0</ele><time>2026-04-05T08:05:25Z</time></trkpt><trkpt lat="44.90114223982875" lon="9.672767639103965"><ele>163.0</ele><time>2026-04-05T08:05:26Z</time></trkpt><trkpt lat="44.90102817156785" lon="9.672594510190526"><ele>163.0</ele><time>2026-04-05T08:05:27Z</time></trkpt><trkpt lat="44.90091386238458" lon="9.672421423759229"><ele>163.0</ele><time>2026-04-05T08:05:28Z</time></trkpt><trkpt lat="44.90080804825259" lon="9.672259736276498"><ele>163.33333333333334</ele><time>2026-04-05T08:05:29Z</time></trkpt><trkpt lat="44.900702914768296" lon="9.672102860910297"><ele>163.66666666666666</ele><time>2026-04-05T08:05:30Z</time></trkpt><trkpt lat="44.90059896680374" lon="9.67194197522289"><ele>164.0</ele><time>2026-04-05T08:05:31Z</time></trkpt><trkpt lat="44.90048793135173" lon="9.671773104279804"><ele>164.0</ele><time>2026-04-05T08:05:32Z</time></trkpt><trkpt lat="44.90039367550472" lon="9.671612733802474"><ele>164.0</ele><time>2026-04-05T08:05:33Z</time></trkpt><trkpt lat="44.9003156350284" lon="9.671477977986806"><ele>164.0</ele><time>2026-04-05T08:05:34Z</time></trkpt><trkpt lat="44.90024857444885" lon="9.671344432548933"><ele>164.0</ele><time>2026-04-05T08:05:35Z</time></trkpt><trkpt lat="44.900181349164896" lon="9.671210006231393"><ele>164.25</ele><time>2026-04-05T08:05:36Z</time></trkpt><trkpt lat="44.90010503182594" lon="9.67109030967923"><ele>164.5</ele><time>2026-04-05T08:05:37Z</time></trkpt><trkpt lat="44.90000473403599" lon="9.671009117738057"><ele>164.75</ele><time>2026-04-05T08:05:38Z</time></trkpt><trkpt lat="44.899877100811274" lon="9.670942217210305"><ele>165.0</ele><time>2026-04-05T08:05:38.999Z</time></trkpt><trkpt lat="44.89973897248706" lon="9.670873741928308"><ele>165.0</ele><time>2026-04-05T08:05:39.999Z</time></trkpt><trkpt lat="44.89961626108066" lon="9.670798132216884"><ele>165.0</ele><time>2026-04-05T08:05:40.999Z</time></trkpt><trkpt lat="44.899499628627886" lon="9.670689606440671"><ele>165.0</ele><time>2026-04-05T08:05:41.999Z</time></trkpt><trkpt lat="44.89939587811314" lon="9.670565717144118"><ele>165.0</ele><time>2026-04-05T08:05:42.999Z</time></trkpt><trkpt lat="44.89930944363682" lon="9.670412154832254"><ele>165.0</ele><time>2026-04-05T08:05:43.999Z</time></trkpt><trkpt lat="44.8992263796532" lon="9.670231733256868"><ele>165.0</ele><time>2026-04-05T08:05:44.999Z</time></trkpt><trkpt lat="44.8991343539736" lon="9.670032342992338"><ele>165.0</ele><time>2026-04-05T08:05:45.999Z</time></trkpt><trkpt lat="44.899028044788615" lon="9.669822196719837"><ele>165.0</ele><time>2026-04-05T08:05:46.999Z</time></trkpt><trkpt lat="44.89892448412805" lon="9.669635377893261"><ele>165.0</ele><time>2026-04-05T08:05:47.999Z</time></trkpt><trkpt lat="44.89883005992533" lon="9.669449688078588"><ele>165.0</ele><time>2026-04-05T08:05:48.999Z</time></trkpt><trkpt lat="44.89875879391524" lon="9.66926075984322"><ele>165.25</ele><time>2026-04-05T08:05:49.999Z</time></trkpt><trkpt lat="44.89869769235179" lon="9.669076391283552"><ele>165.5</ele><time>2026-04-05T08:05:50.999Z</time></trkpt><trkpt lat="44.898651049826995" lon="9.668898168014675"><ele>165.75</ele><time>2026-04-05T08:05:51.999Z</time></trkpt><trkpt lat="44.8986218390983" lon="9.668710914467953"><ele>166.0</ele><time>2026-04-05T08:05:52.999Z</time></trkpt><trkpt lat="44.89860513100587" lon="9.668509224171876"><ele>166.5</ele><time>2026-04-05T08:05:53.999Z</time></trkpt><trkpt lat="44.89859450293795" lon="9.668314493607674"><ele>167.0</ele><time>2026-04-05T08:05:54.999Z</time></trkpt><trkpt lat="44.89858580577168" lon="9.66812856475974"><ele>167.5</ele><time>2026-04-05T08:05:55.999Z</time></trkpt><trkpt lat="44.898575358269966" lon="9.667944359546016"><ele>168.0</ele><time>2026-04-05T08:05:56.999Z</time></trkpt><trkpt lat="44.89855304387256" lon="9.667765785768049"><ele>168.0</ele><time>2026-04-05T08:05:57.999Z</time></trkpt><trkpt lat="44.89852097409189" lon="9.66760408191175"><ele>168.0</ele><time>2026-04-05T08:05:58.999Z</time></trkpt><trkpt lat="44.898492928003215" lon="9.66745772797565"><ele>168.0</ele><time>2026-04-05T08:05:59.999Z</time></trkpt><trkpt lat="44.89846371736886" lon="9.667344954004983"><ele>168.0</ele><time>2026-04-05T08:06:00.999Z</time></trkpt><trkpt lat="44.89840925287596" lon="9.667240341813594"><ele>168.0</ele><time>2026-04-05T08:06:01.999Z</time></trkpt><trkpt lat="44.8983458788496" lon="9.667119370388537"><ele>168.0</ele><time>2026-04-05T08:06:02.999Z</time></trkpt><trkpt lat="44.89828171926873" lon="9.666995114761937"><ele>168.0</ele><time>2026-04-05T08:06:03.999Z</time></trkpt><trkpt lat="44.89820286390029" lon="9.666880269594294"><ele>168.0</ele><time>2026-04-05T08:06:04.999Z</time></trkpt><trkpt lat="44.898101736344906" lon="9.666759797555665"><ele>168.0</ele><time>2026-04-05T08:06:05.999Z</time></trkpt><trkpt lat="44.8980006284627" lon="9.666649281204393"><ele>168.5</ele><time>2026-04-05T08:06:06.999Z</time></trkpt><trkpt lat="44.89790286379336" lon="9.666548311904748"><ele>169.0</ele><time>2026-04-05T08:06:07.999Z</time></trkpt><trkpt lat="44.89780951836234" lon="9.666452218829145"><ele>169.5</ele><time>2026-04-05T08:06:08.999Z</time></trkpt><trkpt lat="44.89772433865345" lon="9.66635729596201"><ele>170.0</ele><time>2026-04-05T08:06:09.999Z</time></trkpt><trkpt lat="44.89763691017479" lon="9.666258905644664"><ele>170.0</ele><time>2026-04-05T08:06:10.999Z</time></trkpt><trkpt lat="44.89755789857708" lon="9.66615199605872"><ele>170.0</ele><time>2026-04-05T08:06:11.999Z</time></trkpt><trkpt lat="44.897492356659306" lon="9.666017745171708"><ele>170.0</ele><time>2026-04-05T08:06:12.999Z</time></trkpt><trkpt lat="44.8974306239419" lon="9.665865759815295"><ele>170.0</ele><time>2026-04-05T08:06:13.999Z</time></trkpt><trkpt lat="44.89737852854181" lon="9.665739645252671"><ele>170.0</ele><time>2026-04-05T08:06:14.999Z</time></trkpt><trkpt lat="44.89733940772472" lon="9.66564170653376"><ele>170.0</ele><time>2026-04-05T08:06:15.999Z</time></trkpt><trkpt lat="44.89734692310121" lon="9.665532525980092"><ele>170.0</ele><time>2026-04-05T08:06:17.999Z</time></trkpt><trkpt lat="44.89739464665019" lon="9.66540698865219"><ele>170.0</ele><time>2026-04-05T08:06:19.999Z</time></trkpt><trkpt lat="44.89730625520204" lon="9.665279586445443"><ele>170.0</ele><time>2026-04-05T08:06:21.999Z</time></trkpt><trkpt lat="44.897219244416576" lon="9.665169243359893"><ele>170.2</ele><time>2026-04-05T08:06:22.999Z</time></trkpt><trkpt lat="44.89712440023639" lon="9.665047396696231"><ele>170.4</ele><time>2026-04-05T08:06:23.999Z</time></trkpt><trkpt lat="44.897055717652144" lon="9.664941754032048"><ele>170.60000000000002</ele><time>2026-04-05T08:06:24.999Z</time></trkpt><trkpt lat="44.896992276206014" lon="9.664855694857179"><ele>170.8</ele><time>2026-04-05T08:06:25.999Z</time></trkpt><trkpt lat="44.896935219531855" lon="9.664788786253913"><ele>171.0</ele><time>2026-04-05T08:06:26.999Z</time></trkpt><trkpt lat="44.89688990198658" lon="9.664664457996905"><ele>171.0</ele><time>2026-04-05T08:06:28.999Z</time></trkpt><trkpt lat="44.89681379419059" lon="9.664634128076651"><ele>171.0</ele><time>2026-04-05T08:06:30.999Z</time></trkpt><trkpt lat="44.89680313056142" lon="9.664523554596146"><ele>171.0</ele><time>2026-04-05T08:06:32.999Z</time></trkpt><trkpt lat="44.89676186165695" lon="9.664445004990394"><ele>171.0</ele><time>2026-04-05T08:06:33.999Z</time></trkpt><trkpt lat="44.896686148696915" lon="9.664387763603042"><ele>171.0</ele><time>2026-04-05T08:06:34.999Z</time></trkpt><trkpt lat="44.8966183264404" lon="9.664340106100946"><ele>171.0</ele><time>2026-04-05T08:06:35.999Z</time></trkpt><trkpt lat="44.896554341738636" lon="9.664203472011575"><ele>171.33333333333334</ele><time>2026-04-05T08:06:37.999Z</time></trkpt><trkpt lat="44.89648120367073" lon="9.664233487040253"><ele>171.66666666666666</ele><time>2026-04-05T08:06:39.999Z</time></trkpt><trkpt lat="44.8964093232278" lon="9.664113262106492"><ele>172.0</ele><time>2026-04-05T08:06:41.999Z</time></trkpt><trkpt lat="44.89636627427763" lon="9.664019238095364"><ele>172.33333333333331</ele><time>2026-04-05T08:06:42.999Z</time></trkpt><trkpt lat="44.89631591219174" lon="9.66394614116582"><ele>172.66666666666666</ele><time>2026-04-05T08:06:43.999Z</time></trkpt><trkpt lat="44.89625011468421" lon="9.663906732760092"><ele>173.0</ele><time>2026-04-05T08:06:44.999Z</time></trkpt><trkpt lat="44.89618469373855" lon="9.663882064927785"><ele>173.0</ele><time>2026-04-05T08:06:45.999Z</time></trkpt><trkpt lat="44.89612444946677" lon="9.663844238038179"><ele>173.0</ele><time>2026-04-05T08:06:47.999Z</time></trkpt><trkpt lat="44.896073695519405" lon="9.66375457301369"><ele>173.0</ele><time>2026-04-05T08:06:49.999Z</time></trkpt><trkpt lat="44.89599954042445" lon="9.663730208420498"><ele>173.0</ele><time>2026-04-05T08:06:51.999Z</time></trkpt><trkpt lat="44.89588256790768" lon="9.66370254715455"><ele>173.0</ele><time>2026-04-05T08:06:53.999Z</time></trkpt><trkpt lat="44.89578933650532" lon="9.663719936957914"><ele>173.0</ele><time>2026-04-05T08:06:54.999Z</time></trkpt><trkpt lat="44.895706522765224" lon="9.663761251185996"><ele>172.60000000000002</ele><time>2026-04-05T08:06:55.999Z</time></trkpt><trkpt lat="44.89564240011428" lon="9.663819563720502"><ele>172.20000000000002</ele><time>2026-04-05T08:06:56.999Z</time></trkpt><trkpt lat="44.89554860019605" lon="9.66394383831728"><ele>171.8</ele><time>2026-04-05T08:06:58.999Z</time></trkpt><trkpt lat="44.89548516851422" lon="9.664025368881964"><ele>171.4</ele><time>2026-04-05T08:07:00.999Z</time></trkpt><trkpt lat="44.895341828495745" lon="9.66395636949039"><ele>171.0</ele><time>2026-04-05T08:07:02.999Z</time></trkpt><trkpt lat="44.89527648736983" lon="9.663916341848804"><ele>171.0</ele><time>2026-04-05T08:07:03.999Z</time></trkpt><trkpt lat="44.895212078474756" lon="9.663762427772058"><ele>171.0</ele><time>2026-04-05T08:07:05.999Z</time></trkpt><trkpt lat="44.895161509256894" lon="9.663646529694363"><ele>171.0</ele><time>2026-04-05T08:07:06.999Z</time></trkpt><trkpt lat="44.8951156566741" lon="9.663552036658333"><ele>171.0</ele><time>2026-04-05T08:07:07.999Z</time></trkpt><trkpt lat="44.895047244828675" lon="9.663469182821814"><ele>171.0</ele><time>2026-04-05T08:07:08.999Z</time></trkpt><trkpt lat="44.894939769113414" lon="9.66339925409647"><ele>171.5</ele><time>2026-04-05T08:07:09.999Z</time></trkpt><trkpt lat="44.89483169812211" lon="9.663324862919588"><ele>172.0</ele><time>2026-04-05T08:07:10.999Z</time></trkpt><trkpt lat="44.89471134611797" lon="9.663269581300604"><ele>172.5</ele><time>2026-04-05T08:07:11.999Z</time></trkpt><trkpt lat="44.89457906914999" lon="9.663203726499978"><ele>173.0</ele><time>2026-04-05T08:07:12.999Z</time></trkpt><trkpt lat="44.894469058708545" lon="9.66313602757528"><ele>173.0</ele><time>2026-04-05T08:07:13.999Z</time></trkpt><trkpt lat="44.89438515567647" lon="9.663079972614657"><ele>173.0</ele><time>2026-04-05T08:07:14.999Z</time></trkpt><trkpt lat="44.894316587973634" lon="9.663063654668314"><ele>173.0</ele><time>2026-04-05T08:07:15.999Z</time></trkpt><trkpt lat="44.89425764478268" lon="9.66302926937555"><ele>173.0</ele><time>2026-04-05T08:07:17Z</time></trkpt><trkpt lat="44.894169921201026" lon="9.662938111477605"><ele>173.0</ele><time>2026-04-05T08:07:19Z</time></trkpt><trkpt lat="44.89406593908497" lon="9.66284930587291"><ele>173.0</ele><time>2026-04-05T08:07:21Z</time></trkpt><trkpt lat="44.89400247732083" lon="9.662813306851751"><ele>173.0</ele><time>2026-04-05T08:07:22Z</time></trkpt><trkpt lat="44.8939247248641" lon="9.662779825176594"><ele>173.0</ele><time>2026-04-05T08:07:24Z</time></trkpt><trkpt lat="44.89384200014958" lon="9.662841515169005"><ele>173.0</ele><time>2026-04-05T08:07:37.999Z</time></trkpt><trkpt lat="44.8937373856103" lon="9.662905088791389"><ele>173.0</ele><time>2026-04-05T08:07:39.999Z</time></trkpt><trkpt lat="44.89367317347611" lon="9.662906365317982"><ele>173.0</ele><time>2026-04-05T08:07:40.999Z</time></trkpt><trkpt lat="44.893586936111085" lon="9.662882663621152"><ele>173.0</ele><time>2026-04-05T08:07:41.999Z</time></trkpt><trkpt lat="44.893492872381515" lon="9.662845618335934"><ele>173.0</ele><time>2026-04-05T08:07:42.999Z</time></trkpt><trkpt lat="44.89341407990934" lon="9.66282136329263"><ele>173.0</ele><time>2026-04-05T08:07:43.999Z</time></trkpt><trkpt lat="44.893347823633135" lon="9.662802369874335"><ele>173.0</ele><time>2026-04-05T08:07:44.999Z</time></trkpt><trkpt lat="44.893267455725265" lon="9.662800591219929"><ele>173.0</ele><time>2026-04-05T08:07:46.999Z</time></trkpt><trkpt lat="44.89315891807644" lon="9.662798621837934"><ele>173.0</ele><time>2026-04-05T08:07:48.999Z</time></trkpt><trkpt lat="44.89309379323948" lon="9.662742533864654"><ele>173.16666666666666</ele><time>2026-04-05T08:07:49.999Z</time></trkpt><trkpt lat="44.89301758355725" lon="9.662664701630915"><ele>173.33333333333331</ele><time>2026-04-05T08:07:51Z</time></trkpt><trkpt lat="44.892951319722364" lon="9.662620653668698"><ele>173.5</ele><time>2026-04-05T08:07:52Z</time></trkpt><trkpt lat="44.892886304899505" lon="9.662606342041826"><ele>173.66666666666666</ele><time>2026-04-05T08:07:53Z</time></trkpt><trkpt lat="44.89280617232898" lon="9.662592216471163"><ele>173.83333333333334</ele><time>2026-04-05T08:07:54Z</time></trkpt><trkpt lat="44.892719424623934" lon="9.662564094561125"><ele>174.0</ele><time>2026-04-05T08:07:55Z</time></trkpt><trkpt lat="44.89264595447286" lon="9.662534721825784"><ele>174.0</ele><time>2026-04-05T08:07:56Z</time></trkpt><trkpt lat="44.89258133985376" lon="9.6625065604935"><ele>174.0</ele><time>2026-04-05T08:07:57Z</time></trkpt><trkpt lat="44.89245702576661" lon="9.662431769788506"><ele>174.0</ele><time>2026-04-05T08:07:59Z</time></trkpt><trkpt lat="44.89239171240386" lon="9.662403759953039"><ele>174.0</ele><time>2026-04-05T08:08:00Z</time></trkpt><trkpt lat="44.892327735233096" lon="9.662397329012826"><ele>174.0</ele><time>2026-04-05T08:08:01Z</time></trkpt><trkpt lat="44.89225149953518" lon="9.662406351446911"><ele>174.0</ele><time>2026-04-05T08:08:02Z</time></trkpt><trkpt lat="44.8921583394333" lon="9.662428326370637"><ele>174.0</ele><time>2026-04-05T08:08:03Z</time></trkpt><trkpt lat="44.89208137592616" lon="9.662442639019913"><ele>174.0</ele><time>2026-04-05T08:08:04Z</time></trkpt><trkpt lat="44.89200312916457" lon="9.662457609816625"><ele>174.0</ele><time>2026-04-05T08:08:05Z</time></trkpt><trkpt lat="44.89193004152894" lon="9.662471220890144"><ele>174.0</ele><time>2026-04-05T08:08:06Z</time></trkpt><trkpt lat="44.89185313423467" lon="9.66247841408381"><ele>174.0</ele><time>2026-04-05T08:08:07Z</time></trkpt><trkpt lat="44.89176746176605" lon="9.662473087056144"><ele>174.0</ele><time>2026-04-05T08:08:08Z</time></trkpt><trkpt lat="44.89169082865399" lon="9.662460479263997"><ele>174.0</ele><time>2026-04-05T08:08:09Z</time></trkpt><trkpt lat="44.89161110713093" lon="9.662440604228186"><ele>174.0</ele><time>2026-04-05T08:08:10Z</time></trkpt><trkpt lat="44.89153150489189" lon="9.662416355631857"><ele>174.0</ele><time>2026-04-05T08:08:11Z</time></trkpt><trkpt lat="44.891455048996534" lon="9.662394842191095"><ele>174.0</ele><time>2026-04-05T08:08:12Z</time></trkpt><trkpt lat="44.89134236065182" lon="9.662324566789989"><ele>174.0</ele><time>2026-04-05T08:08:14Z</time></trkpt><trkpt lat="44.89128488337867" lon="9.662263202057835"><ele>174.0</ele><time>2026-04-05T08:08:15Z</time></trkpt><trkpt lat="44.89122696195586" lon="9.662211454314017"><ele>174.0</ele><time>2026-04-05T08:08:16Z</time></trkpt><trkpt lat="44.89116714489901" lon="9.662174212659252"><ele>174.0</ele><time>2026-04-05T08:08:17Z</time></trkpt><trkpt lat="44.89110939142969" lon="9.66212446841353"><ele>174.0</ele><time>2026-04-05T08:08:18Z</time></trkpt><trkpt lat="44.89104463133697" lon="9.662063198843969"><ele>174.0</ele><time>2026-04-05T08:08:19Z</time></trkpt><trkpt lat="44.89098039534272" lon="9.661997405560113"><ele>174.0</ele><time>2026-04-05T08:08:20Z</time></trkpt><trkpt lat="44.89091611270604" lon="9.66192622378638"><ele>174.0</ele><time>2026-04-05T08:08:21Z</time></trkpt><trkpt lat="44.8908484318124" lon="9.661852600537209"><ele>174.5</ele><time>2026-04-05T08:08:22Z</time></trkpt><trkpt lat="44.89077886322721" lon="9.661770278529675"><ele>175.0</ele><time>2026-04-05T08:08:23Z</time></trkpt><trkpt lat="44.89071433078433" lon="9.661690281937279"><ele>175.5</ele><time>2026-04-05T08:08:24Z</time></trkpt><trkpt lat="44.890664019777134" lon="9.661617688668777"><ele>176.0</ele><time>2026-04-05T08:08:25Z</time></trkpt><trkpt lat="44.89062352028972" lon="9.661547186127653"><ele>176.5</ele><time>2026-04-05T08:08:26Z</time></trkpt><trkpt lat="44.890573855949846" lon="9.661483548094854"><ele>177.0</ele><time>2026-04-05T08:08:27Z</time></trkpt><trkpt lat="44.890516214473784" lon="9.661409839699578"><ele>177.0</ele><time>2026-04-05T08:08:28Z</time></trkpt><trkpt lat="44.89046251577517" lon="9.66133872239309"><ele>177.0</ele><time>2026-04-05T08:08:29Z</time></trkpt><trkpt lat="44.89040859266687" lon="9.66126032943959"><ele>177.0</ele><time>2026-04-05T08:08:30Z</time></trkpt><trkpt lat="44.890362214309896" lon="9.661187268491824"><ele>177.0</ele><time>2026-04-05T08:08:31Z</time></trkpt><trkpt lat="44.89032078705774" lon="9.661119107779548"><ele>177.0</ele><time>2026-04-05T08:08:32Z</time></trkpt><trkpt lat="44.890267869269984" lon="9.66105077615384"><ele>177.0</ele><time>2026-04-05T08:08:33Z</time></trkpt><trkpt lat="44.89021361000516" lon="9.660970383027294"><ele>177.0</ele><time>2026-04-05T08:08:34Z</time></trkpt><trkpt lat="44.89015739400166" lon="9.660880582487538"><ele>177.16666666666666</ele><time>2026-04-05T08:08:35Z</time></trkpt><trkpt lat="44.890108528242145" lon="9.660799675464668"><ele>177.33333333333334</ele><time>2026-04-05T08:08:36Z</time></trkpt><trkpt lat="44.890066281980104" lon="9.660722675803877"><ele>177.5</ele><time>2026-04-05T08:08:37Z</time></trkpt><trkpt lat="44.890028297760246" lon="9.660645798897596"><ele>177.66666666666669</ele><time>2026-04-05T08:08:38Z</time></trkpt><trkpt lat="44.88998130663959" lon="9.660549816207324"><ele>177.83333333333334</ele><time>2026-04-05T08:08:39Z</time></trkpt><trkpt lat="44.88992170279791" lon="9.66043479099172"><ele>178.0</ele><time>2026-04-05T08:08:40Z</time></trkpt><trkpt lat="44.889857410317894" lon="9.660334494991238"><ele>177.83333333333334</ele><time>2026-04-05T08:08:41Z</time></trkpt><trkpt lat="44.88980151538106" lon="9.660247194516613"><ele>177.66666666666669</ele><time>2026-04-05T08:08:42Z</time></trkpt><trkpt lat="44.88974531302128" lon="9.660174637458224"><ele>177.5</ele><time>2026-04-05T08:08:43Z</time></trkpt><trkpt lat="44.88967358919024" lon="9.660039409286718"><ele>177.33333333333334</ele><time>2026-04-05T08:08:45Z</time></trkpt><trkpt lat="44.88964593875115" lon="9.659948303323933"><ele>177.16666666666666</ele><time>2026-04-05T08:08:46Z</time></trkpt><trkpt lat="44.88962306110912" lon="9.659836308901452"><ele>177.0</ele><time>2026-04-05T08:08:47Z</time></trkpt><trkpt lat="44.889599106831895" lon="9.659719413076772"><ele>177.0</ele><time>2026-04-05T08:08:48Z</time></trkpt><trkpt lat="44.88954466190377" lon="9.659609357620198"><ele>177.0</ele><time>2026-04-05T08:08:49Z</time></trkpt><trkpt lat="44.88945885489426" lon="9.659488428234974"><ele>177.0</ele><time>2026-04-05T08:08:50Z</time></trkpt><trkpt lat="44.88938949422234" lon="9.65940373311484"><ele>177.0</ele><time>2026-04-05T08:08:51Z</time></trkpt><trkpt lat="44.88933940812729" lon="9.659332518314496"><ele>177.0</ele><time>2026-04-05T08:08:52Z</time></trkpt><trkpt lat="44.88929805856219" lon="9.65925832658073"><ele>177.0</ele><time>2026-04-05T08:08:53Z</time></trkpt><trkpt lat="44.88922486153359" lon="9.659137740934089"><ele>177.39999999999998</ele><time>2026-04-05T08:08:55Z</time></trkpt><trkpt lat="44.88915285219061" lon="9.65903569777982"><ele>177.79999999999998</ele><time>2026-04-05T08:08:57Z</time></trkpt><trkpt lat="44.88907974165371" lon="9.658923024768821"><ele>178.2</ele><time>2026-04-05T08:08:59Z</time></trkpt><trkpt lat="44.889017326032985" lon="9.658816764764726"><ele>178.6</ele><time>2026-04-05T08:09:02Z</time></trkpt><trkpt lat="44.88897409694939" lon="9.658704270779856"><ele>179.0</ele><time>2026-04-05T08:09:04Z</time></trkpt><trkpt lat="44.888917446654425" lon="9.658592706114353"><ele>179.0</ele><time>2026-04-05T08:09:06Z</time></trkpt><trkpt lat="44.888914013672085" lon="9.658500172086832"><ele>179.0</ele><time>2026-04-05T08:09:08Z</time></trkpt><trkpt lat="44.88898272888477" lon="9.658519609970861"><ele>179.0</ele><time>2026-04-05T08:09:13Z</time></trkpt><trkpt lat="44.88900830155021" lon="9.658614711588458"><ele>179.0</ele><time>2026-04-05T08:09:16Z</time></trkpt><trkpt lat="44.88894275176846" lon="9.658653373085855"><ele>179.0</ele><time>2026-04-05T08:09:42Z</time></trkpt><trkpt lat="44.88891670795125" lon="9.658537764245779"><ele>179.0</ele><time>2026-04-05T08:09:44Z</time></trkpt><trkpt lat="44.88892921849245" lon="9.658359842845384"><ele>179.0</ele><time>2026-04-05T08:09:46Z</time></trkpt><trkpt lat="44.88893329658674" lon="9.658232668584407"><ele>179.0</ele><time>2026-04-05T08:09:47Z</time></trkpt><trkpt lat="44.88895216048237" lon="9.65812220967634"><ele>179.0</ele><time>2026-04-05T08:09:48Z</time></trkpt><trkpt lat="44.88895240050798" lon="9.657979597821955"><ele>179.0</ele><time>2026-04-05T08:09:49Z</time></trkpt><trkpt lat="44.88898593026001" lon="9.657851586482675"><ele>179.0</ele><time>2026-04-05T08:09:50Z</time></trkpt><trkpt lat="44.8890742409167" lon="9.657748613541907"><ele>179.25</ele><time>2026-04-05T08:09:51Z</time></trkpt><trkpt lat="44.88913106056872" lon="9.657619853157435"><ele>179.5</ele><time>2026-04-05T08:09:52Z</time></trkpt><trkpt lat="44.889157859251775" lon="9.657437086802865"><ele>179.75</ele><time>2026-04-05T08:09:53Z</time></trkpt><trkpt lat="44.88919600715658" lon="9.657236332507608"><ele>180.0</ele><time>2026-04-05T08:09:54Z</time></trkpt><trkpt lat="44.889227568557686" lon="9.657038211459627"><ele>180.33333333333334</ele><time>2026-04-05T08:09:55Z</time></trkpt><trkpt lat="44.889258260012795" lon="9.65685063608462"><ele>180.66666666666669</ele><time>2026-04-05T08:09:56Z</time></trkpt><trkpt lat="44.88929329813204" lon="9.656639286079729"><ele>181.0</ele><time>2026-04-05T08:09:57Z</time></trkpt><trkpt lat="44.88932691360499" lon="9.656415070352821"><ele>181.0</ele><time>2026-04-05T08:09:58Z</time></trkpt><trkpt lat="44.889356263761" lon="9.656205845580782"><ele>181.0</ele><time>2026-04-05T08:09:59Z</time></trkpt><trkpt lat="44.88937964712493" lon="9.656012223007023"><ele>181.0</ele><time>2026-04-05T08:10:00Z</time></trkpt><trkpt lat="44.88938995213627" lon="9.655817540832793"><ele>181.0</ele><time>2026-04-05T08:10:01Z</time></trkpt><trkpt lat="44.889373743790316" lon="9.655615297975356"><ele>181.0</ele><time>2026-04-05T08:10:02Z</time></trkpt><trkpt lat="44.8893450430582" lon="9.655403328374712"><ele>181.0</ele><time>2026-04-05T08:10:03Z</time></trkpt><trkpt lat="44.88935334780167" lon="9.655216179968738"><ele>181.0</ele><time>2026-04-05T08:10:04Z</time></trkpt><trkpt lat="44.889374659519135" lon="9.655051474279238"><ele>181.0</ele><time>2026-04-05T08:10:05Z</time></trkpt><trkpt lat="44.88940485302621" lon="9.654885660130374"><ele>181.25</ele><time>2026-04-05T08:10:06Z</time></trkpt><trkpt lat="44.88944640843219" lon="9.65471433337212"><ele>181.5</ele><time>2026-04-05T08:10:07Z</time></trkpt><trkpt lat="44.88949869744723" lon="9.654545435760735"><ele>181.75</ele><time>2026-04-05T08:10:08Z</time></trkpt><trkpt lat="44.88955811759935" lon="9.654347784153401"><ele>182.0</ele><time>2026-04-05T08:10:09Z</time></trkpt><trkpt lat="44.88960948831223" lon="9.654170504819191"><ele>183.25</ele><time>2026-04-05T08:10:10Z</time></trkpt><trkpt lat="44.889656667441656" lon="9.654007690566917"><ele>184.5</ele><time>2026-04-05T08:10:11Z</time></trkpt><trkpt lat="44.88970315099472" lon="9.653847276749396"><ele>185.75</ele><time>2026-04-05T08:10:12Z</time></trkpt><trkpt lat="44.88974689774205" lon="9.653696394698104"><ele>187.0</ele><time>2026-04-05T08:10:13Z</time></trkpt><trkpt lat="44.889772273060096" lon="9.653553538029572"><ele>188.0</ele><time>2026-04-05T08:10:14Z</time></trkpt><trkpt lat="44.889811181063706" lon="9.653432047705142"><ele>189.0</ele><time>2026-04-05T08:10:15Z</time></trkpt><trkpt lat="44.889844295881566" lon="9.653326640210402"><ele>190.0</ele><time>2026-04-05T08:10:16Z</time></trkpt><trkpt lat="44.88987272794053" lon="9.653239682411108"><ele>191.0</ele><time>2026-04-05T08:10:17Z</time></trkpt><trkpt lat="44.88991492111598" lon="9.6531643626981"><ele>192.0</ele><time>2026-04-05T08:10:19Z</time></trkpt><trkpt lat="44.88979931749099" lon="9.652970489990018"><ele>192.0</ele><time>2026-04-05T08:10:22Z</time></trkpt><trkpt lat="44.88970914251898" lon="9.652869023200266"><ele>192.0</ele><time>2026-04-05T08:10:23Z</time></trkpt><trkpt lat="44.8896157866342" lon="9.652736172269513"><ele>192.0</ele><time>2026-04-05T08:10:24Z</time></trkpt><trkpt lat="44.88951704279601" lon="9.652622365794327"><ele>192.0</ele><time>2026-04-05T08:10:25Z</time></trkpt><trkpt lat="44.88941060528583" lon="9.652496777686286"><ele>191.25</ele><time>2026-04-05T08:10:26Z</time></trkpt><trkpt lat="44.889303306727584" lon="9.652369901854398"><ele>190.5</ele><time>2026-04-05T08:10:27Z</time></trkpt><trkpt lat="44.88919999121756" lon="9.652254405140152"><ele>189.75</ele><time>2026-04-05T08:10:28Z</time></trkpt><trkpt lat="44.88909202186123" lon="9.652145252630461"><ele>189.0</ele><time>2026-04-05T08:10:29Z</time></trkpt><trkpt lat="44.88897098930386" lon="9.652035628158892"><ele>190.75</ele><time>2026-04-05T08:10:30Z</time></trkpt><trkpt lat="44.888833674813796" lon="9.651943643258306"><ele>192.5</ele><time>2026-04-05T08:10:31Z</time></trkpt><trkpt lat="44.88870660909661" lon="9.651877233910632"><ele>194.25</ele><time>2026-04-05T08:10:32Z</time></trkpt><trkpt lat="44.88857734042466" lon="9.6518227185756"><ele>196.0</ele><time>2026-04-05T08:10:33Z</time></trkpt><trkpt lat="44.88844042386487" lon="9.65176959194073"><ele>194.75</ele><time>2026-04-05T08:10:34Z</time></trkpt><trkpt lat="44.88829616160661" lon="9.651713462608809"><ele>193.5</ele><time>2026-04-05T08:10:35Z</time></trkpt><trkpt lat="44.888155146348396" lon="9.65166661690532"><ele>192.25</ele><time>2026-04-05T08:10:36Z</time></trkpt><trkpt lat="44.88801552696129" lon="9.651611856719567"><ele>191.0</ele><time>2026-04-05T08:10:37Z</time></trkpt><trkpt lat="44.88788106074481" lon="9.651530010164636"><ele>191.0</ele><time>2026-04-05T08:10:38Z</time></trkpt><trkpt lat="44.887748447422375" lon="9.651402647404378"><ele>191.0</ele><time>2026-04-05T08:10:39Z</time></trkpt><trkpt lat="44.88761194293694" lon="9.6512941458913"><ele>191.0</ele><time>2026-04-05T08:10:40Z</time></trkpt><trkpt lat="44.88748306665519" lon="9.65120512930075"><ele>189.66666666666666</ele><time>2026-04-05T08:10:41Z</time></trkpt><trkpt lat="44.88735123836804" lon="9.651160480811841"><ele>188.33333333333334</ele><time>2026-04-05T08:10:42Z</time></trkpt><trkpt lat="44.88720749870332" lon="9.651123340622958"><ele>187.0</ele><time>2026-04-05T08:10:43Z</time></trkpt><trkpt lat="44.88703766847915" lon="9.651117361160257"><ele>187.0</ele><time>2026-04-05T08:10:44Z</time></trkpt><trkpt lat="44.88687418737422" lon="9.65113627853814"><ele>187.0</ele><time>2026-04-05T08:10:45Z</time></trkpt><trkpt lat="44.88672917689685" lon="9.651178121871796"><ele>187.0</ele><time>2026-04-05T08:10:46Z</time></trkpt><trkpt lat="44.88659606072909" lon="9.651241126688454"><ele>187.0</ele><time>2026-04-05T08:10:47Z</time></trkpt><trkpt lat="44.88646199219479" lon="9.651285264066848"><ele>187.0</ele><time>2026-04-05T08:10:48Z</time></trkpt><trkpt lat="44.886334294328265" lon="9.65133223869497"><ele>187.0</ele><time>2026-04-05T08:10:49Z</time></trkpt><trkpt lat="44.886201299865085" lon="9.651378902473528"><ele>187.0</ele><time>2026-04-05T08:10:50Z</time></trkpt><trkpt lat="44.886073842208646" lon="9.651406845823782"><ele>187.0</ele><time>2026-04-05T08:10:51Z</time></trkpt><trkpt lat="44.885953921315206" lon="9.651373828323258"><ele>187.0</ele><time>2026-04-05T08:10:52Z</time></trkpt><trkpt lat="44.88582257813829" lon="9.651308786298866"><ele>187.0</ele><time>2026-04-05T08:10:53Z</time></trkpt><trkpt lat="44.88569472588597" lon="9.651230750488208"><ele>187.0</ele><time>2026-04-05T08:10:54Z</time></trkpt><trkpt lat="44.88558755719221" lon="9.651165333994438"><ele>187.6</ele><time>2026-04-05T08:10:55Z</time></trkpt><trkpt lat="44.88550175760651" lon="9.651102754609406"><ele>188.2</ele><time>2026-04-05T08:10:56Z</time></trkpt><trkpt lat="44.88544319160477" lon="9.651026721879663"><ele>188.8</ele><time>2026-04-05T08:10:57Z</time></trkpt><trkpt lat="44.88540544527561" lon="9.650905961842067"><ele>189.4</ele><time>2026-04-05T08:10:58Z</time></trkpt><trkpt lat="44.8854041921215" lon="9.650756157834202"><ele>190.0</ele><time>2026-04-05T08:10:59Z</time></trkpt><trkpt lat="44.88539066363174" lon="9.650579392606781"><ele>190.0</ele><time>2026-04-05T08:11:00Z</time></trkpt><trkpt lat="44.885377966661856" lon="9.650391199232942"><ele>190.0</ele><time>2026-04-05T08:11:01Z</time></trkpt><trkpt lat="44.88536545300689" lon="9.650231407580788"><ele>190.0</ele><time>2026-04-05T08:11:02Z</time></trkpt><trkpt lat="44.885354668757174" lon="9.65010199659895"><ele>190.0</ele><time>2026-04-05T08:11:03Z</time></trkpt><trkpt lat="44.88534440540744" lon="9.649995223969729"><ele>190.0</ele><time>2026-04-05T08:11:04Z</time></trkpt><trkpt lat="44.88532576583119" lon="9.649873318907018"><ele>191.0</ele><time>2026-04-05T08:11:06Z</time></trkpt><trkpt lat="44.88531843593484" lon="9.64973545335434"><ele>192.0</ele><time>2026-04-05T08:11:10Z</time></trkpt><trkpt lat="44.88521309614802" lon="9.64970070621574"><ele>193.0</ele><time>2026-04-05T08:11:11Z</time></trkpt><trkpt lat="44.88511933706912" lon="9.649670994389009"><ele>194.0</ele><time>2026-04-05T08:11:12Z</time></trkpt><trkpt lat="44.8850157776485" lon="9.649656441196505"><ele>195.0</ele><time>2026-04-05T08:11:13Z</time></trkpt><trkpt lat="44.88489890767747" lon="9.64964158913403"><ele>195.0</ele><time>2026-04-05T08:11:14Z</time></trkpt><trkpt lat="44.88479016219373" lon="9.649628706480314"><ele>195.0</ele><time>2026-04-05T08:11:15Z</time></trkpt><trkpt lat="44.884689878616996" lon="9.649618116034905"><ele>195.0</ele><time>2026-04-05T08:11:16Z</time></trkpt><trkpt lat="44.88458780569792" lon="9.64961183154887"><ele>195.0</ele><time>2026-04-05T08:11:17Z</time></trkpt><trkpt lat="44.88447024175021" lon="9.649610116422544"><ele>195.0</ele><time>2026-04-05T08:11:18Z</time></trkpt><trkpt lat="44.88433260430839" lon="9.649612259856571"><ele>194.75</ele><time>2026-04-05T08:11:19Z</time></trkpt><trkpt lat="44.88419134085203" lon="9.649613619920647"><ele>194.5</ele><time>2026-04-05T08:11:20Z</time></trkpt><trkpt lat="44.88405838794888" lon="9.649611887728373"><ele>194.25</ele><time>2026-04-05T08:11:21Z</time></trkpt><trkpt lat="44.88393565541419" lon="9.64960945328031"><ele>194.0</ele><time>2026-04-05T08:11:22Z</time></trkpt><trkpt lat="44.883813875256415" lon="9.64960870427893"><ele>194.0</ele><time>2026-04-05T08:11:23Z</time></trkpt><trkpt lat="44.88369200070601" lon="9.649606840206678"><ele>194.0</ele><time>2026-04-05T08:11:24Z</time></trkpt><trkpt lat="44.8835693099312" lon="9.649604857333504"><ele>194.0</ele><time>2026-04-05T08:11:25Z</time></trkpt><trkpt lat="44.88344422114062" lon="9.649606585537548"><ele>194.0</ele><time>2026-04-05T08:11:26Z</time></trkpt><trkpt lat="44.88331529852185" lon="9.649602233077045"><ele>193.25</ele><time>2026-04-05T08:11:27Z</time></trkpt><trkpt lat="44.88318602685889" lon="9.649586259162989"><ele>192.5</ele><time>2026-04-05T08:11:28Z</time></trkpt><trkpt lat="44.883055745851536" lon="9.649556398505219"><ele>191.75</ele><time>2026-04-05T08:11:29Z</time></trkpt><trkpt lat="44.882923575094345" lon="9.649515594111847"><ele>191.0</ele><time>2026-04-05T08:11:30Z</time></trkpt><trkpt lat="44.8827880396018" lon="9.649462155985303"><ele>191.5</ele><time>2026-04-05T08:11:31Z</time></trkpt><trkpt lat="44.88264724762745" lon="9.64939644933831"><ele>192.0</ele><time>2026-04-05T08:11:32Z</time></trkpt><trkpt lat="44.882513263449574" lon="9.64932121139965"><ele>192.5</ele><time>2026-04-05T08:11:33Z</time></trkpt><trkpt lat="44.882371947065074" lon="9.649239054304573"><ele>193.0</ele><time>2026-04-05T08:11:34Z</time></trkpt><trkpt lat="44.882240312757965" lon="9.64915490166912"><ele>193.0</ele><time>2026-04-05T08:11:35Z</time></trkpt><trkpt lat="44.88211117613379" lon="9.649074235825488"><ele>193.0</ele><time>2026-04-05T08:11:36Z</time></trkpt><trkpt lat="44.88196884277037" lon="9.648980809606215"><ele>193.0</ele><time>2026-04-05T08:11:37Z</time></trkpt><trkpt lat="44.88184192299449" lon="9.648896048547865"><ele>193.0</ele><time>2026-04-05T08:11:38Z</time></trkpt><trkpt lat="44.8817159701684" lon="9.648817769864143"><ele>193.0</ele><time>2026-04-05T08:11:39Z</time></trkpt><trkpt lat="44.8815950661819" lon="9.648748252143465"><ele>193.0</ele><time>2026-04-05T08:11:40Z</time></trkpt><trkpt lat="44.88147856724764" lon="9.648682000112002"><ele>193.0</ele><time>2026-04-05T08:11:41Z</time></trkpt><trkpt lat="44.88135411580326" lon="9.648625813184637"><ele>193.0</ele><time>2026-04-05T08:11:42Z</time></trkpt><trkpt lat="44.881218096222455" lon="9.648576367679558"><ele>193.66666666666666</ele><time>2026-04-05T08:11:43Z</time></trkpt><trkpt lat="44.88107408700808" lon="9.64853004335982"><ele>194.33333333333331</ele><time>2026-04-05T08:11:44Z</time></trkpt><trkpt lat="44.880923190487586" lon="9.648493476896649"><ele>195.0</ele><time>2026-04-05T08:11:45Z</time></trkpt><trkpt lat="44.88076758644447" lon="9.648468450669597"><ele>195.66666666666669</ele><time>2026-04-05T08:11:46Z</time></trkpt><trkpt lat="44.8806092056627" lon="9.648456326140073"><ele>196.33333333333334</ele><time>2026-04-05T08:11:47Z</time></trkpt><trkpt lat="44.88045441851825" lon="9.64844982388108"><ele>197.0</ele><time>2026-04-05T08:11:48Z</time></trkpt><trkpt lat="44.880305263646385" lon="9.64844251869601"><ele>197.0</ele><time>2026-04-05T08:11:49Z</time></trkpt><trkpt lat="44.88016448780025" lon="9.64843420396759"><ele>197.0</ele><time>2026-04-05T08:11:50Z</time></trkpt><trkpt lat="44.880030561640176" lon="9.64842617167713"><ele>197.0</ele><time>2026-04-05T08:11:51Z</time></trkpt><trkpt lat="44.87990303557728" lon="9.6484191098961"><ele>197.0</ele><time>2026-04-05T08:11:52Z</time></trkpt><trkpt lat="44.87977800136025" lon="9.648411254841049"><ele>196.25</ele><time>2026-04-05T08:11:53Z</time></trkpt><trkpt lat="44.87965526193195" lon="9.648402761986217"><ele>195.5</ele><time>2026-04-05T08:11:54Z</time></trkpt><trkpt lat="44.87953081919211" lon="9.64839515863463"><ele>194.75</ele><time>2026-04-05T08:11:55Z</time></trkpt><trkpt lat="44.879405063531514" lon="9.648390811395513"><ele>194.0</ele><time>2026-04-05T08:11:56Z</time></trkpt><trkpt lat="44.879279086390405" lon="9.648386475588916"><ele>195.25</ele><time>2026-04-05T08:11:57Z</time></trkpt><trkpt lat="44.87915319602423" lon="9.648379854585498"><ele>196.5</ele><time>2026-04-05T08:11:58Z</time></trkpt><trkpt lat="44.87902598038488" lon="9.648372260393488"><ele>197.75</ele><time>2026-04-05T08:11:59Z</time></trkpt><trkpt lat="44.878897322805216" lon="9.648370887781361"><ele>199.0</ele><time>2026-04-05T08:12:00Z</time></trkpt><trkpt lat="44.878757557363905" lon="9.648376733172801"><ele>199.0</ele><time>2026-04-05T08:12:01Z</time></trkpt><trkpt lat="44.878618004412616" lon="9.64838016992159"><ele>199.0</ele><time>2026-04-05T08:12:02Z</time></trkpt><trkpt lat="44.87848336046173" lon="9.648376463902395"><ele>199.0</ele><time>2026-04-05T08:12:03Z</time></trkpt><trkpt lat="44.87834692861252" lon="9.648363669154914"><ele>199.0</ele><time>2026-04-05T08:12:04Z</time></trkpt><trkpt lat="44.878204912225065" lon="9.648335446653288"><ele>200.0</ele><time>2026-04-05T08:12:05Z</time></trkpt><trkpt lat="44.87805868591515" lon="9.648286752713904"><ele>201.0</ele><time>2026-04-05T08:12:06Z</time></trkpt><trkpt lat="44.87791173912346" lon="9.64821724200975"><ele>202.0</ele><time>2026-04-05T08:12:07Z</time></trkpt><trkpt lat="44.8777662265611" lon="9.64813031683913"><ele>202.0</ele><time>2026-04-05T08:12:08Z</time></trkpt><trkpt lat="44.87762561555582" lon="9.648032409896445"><ele>202.0</ele><time>2026-04-05T08:12:09Z</time></trkpt><trkpt lat="44.87749307686383" lon="9.647924335027568"><ele>202.0</ele><time>2026-04-05T08:12:10Z</time></trkpt><trkpt lat="44.87737131764277" lon="9.647826215348081"><ele>205.0</ele><time>2026-04-05T08:12:11Z</time></trkpt><trkpt lat="44.87725324612735" lon="9.647736929332824"><ele>208.0</ele><time>2026-04-05T08:12:12Z</time></trkpt><trkpt lat="44.87713759019222" lon="9.647645683543553"><ele>211.0</ele><time>2026-04-05T08:12:13Z</time></trkpt><trkpt lat="44.877024015262656" lon="9.647548511962551"><ele>214.0</ele><time>2026-04-05T08:12:14Z</time></trkpt><trkpt lat="44.87691445558343" lon="9.647446853417755"><ele>214.0</ele><time>2026-04-05T08:12:15Z</time></trkpt><trkpt lat="44.876800961373256" lon="9.647338663216038"><ele>214.0</ele><time>2026-04-05T08:12:16Z</time></trkpt><trkpt lat="44.87668568749135" lon="9.647219115058396"><ele>214.0</ele><time>2026-04-05T08:12:17Z</time></trkpt><trkpt lat="44.87656835464062" lon="9.64709291797259"><ele>214.0</ele><time>2026-04-05T08:12:18Z</time></trkpt><trkpt lat="44.87645599039572" lon="9.646969855636835"><ele>213.6</ele><time>2026-04-05T08:12:19Z</time></trkpt><trkpt lat="44.876356528392996" lon="9.646860598141346"><ele>213.2</ele><time>2026-04-05T08:12:20Z</time></trkpt><trkpt lat="44.876268015636605" lon="9.646756675433174"><ele>212.79999999999998</ele><time>2026-04-05T08:12:21Z</time></trkpt><trkpt lat="44.87619049180527" lon="9.646663183533976"><ele>212.39999999999998</ele><time>2026-04-05T08:12:22Z</time></trkpt><trkpt lat="44.87611952561181" lon="9.646579751205426"><ele>212.0</ele><time>2026-04-05T08:12:23Z</time></trkpt><trkpt lat="44.876053473576675" lon="9.646504925279448"><ele>212.00000000000003</ele><time>2026-04-05T08:12:24Z</time></trkpt><trkpt lat="44.87600548532121" lon="9.6464202060935"><ele>212.0</ele><time>2026-04-05T08:12:25Z</time></trkpt><trkpt lat="44.87595865405222" lon="9.646359884881178"><ele>212.0</ele><time>2026-04-05T08:12:26Z</time></trkpt><trkpt lat="44.875865233499695" lon="9.646228889126622"><ele>212.0</ele><time>2026-04-05T08:12:28Z</time></trkpt><trkpt lat="44.87581574299979" lon="9.646158846611135"><ele>212.00000000000003</ele><time>2026-04-05T08:12:29Z</time></trkpt><trkpt lat="44.87575981058024" lon="9.646078468629346"><ele>212.0</ele><time>2026-04-05T08:12:30Z</time></trkpt><trkpt lat="44.875670426482905" lon="9.645950018374842"><ele>212.16666666666669</ele><time>2026-04-05T08:12:32Z</time></trkpt><trkpt lat="44.8756067873969" lon="9.645854444204886"><ele>212.33333333333334</ele><time>2026-04-05T08:12:33Z</time></trkpt><trkpt lat="44.87554007197789" lon="9.64575531273186"><ele>212.5</ele><time>2026-04-05T08:12:34Z</time></trkpt><trkpt lat="44.875483742109516" lon="9.645671612974047"><ele>212.66666666666669</ele><time>2026-04-05T08:12:35Z</time></trkpt><trkpt lat="44.87543102537902" lon="9.645592620779905"><ele>212.83333333333334</ele><time>2026-04-05T08:12:36Z</time></trkpt><trkpt lat="44.8753809073858" lon="9.64551690124041"><ele>213.0</ele><time>2026-04-05T08:12:37Z</time></trkpt><trkpt lat="44.87531971727549" lon="9.645454642735464"><ele>213.0</ele><time>2026-04-05T08:12:38Z</time></trkpt><trkpt lat="44.875262608300005" lon="9.64540329052417"><ele>213.0</ele><time>2026-04-05T08:12:39Z</time></trkpt><trkpt lat="44.87475617723316" lon="9.645956671041183"><ele>210.2</ele><time>2026-04-05T08:12:40Z</time></trkpt><trkpt lat="44.874660105953815" lon="9.645946921696485"><ele>207.4</ele><time>2026-04-05T08:12:42Z</time></trkpt><trkpt lat="44.87457019444688" lon="9.645943897525289"><ele>204.6</ele><time>2026-04-05T08:12:44Z</time></trkpt><trkpt lat="44.87446393522311" lon="9.64595189281428"><ele>201.79999999999998</ele><time>2026-04-05T08:12:46Z</time></trkpt><trkpt lat="44.87434012280783" lon="9.645965165543682"><ele>199.0</ele><time>2026-04-05T08:12:48Z</time></trkpt><trkpt lat="44.874263807229354" lon="9.645973779082201"><ele>198.39999999999998</ele><time>2026-04-05T08:12:49Z</time></trkpt><trkpt lat="44.87418419244482" lon="9.645980135028909"><ele>197.8</ele><time>2026-04-05T08:12:50Z</time></trkpt><trkpt lat="44.874114403141625" lon="9.645994526478878"><ele>197.2</ele><time>2026-04-05T08:12:51Z</time></trkpt><trkpt lat="44.87405209771615" lon="9.646010184136717"><ele>196.60000000000002</ele><time>2026-04-05T08:12:52Z</time></trkpt><trkpt lat="44.873940976820705" lon="9.646034145063739"><ele>196.0</ele><time>2026-04-05T08:12:54Z</time></trkpt><trkpt lat="44.87381506597986" lon="9.646059101865651"><ele>195.99999999999997</ele><time>2026-04-05T08:12:56Z</time></trkpt><trkpt lat="44.87374529182965" lon="9.646075676532789"><ele>196.0</ele><time>2026-04-05T08:12:57Z</time></trkpt><trkpt lat="44.87366279648271" lon="9.646101367773369"><ele>196.0</ele><time>2026-04-05T08:12:58Z</time></trkpt><trkpt lat="44.873570241492565" lon="9.646127959703803"><ele>196.0</ele><time>2026-04-05T08:12:59Z</time></trkpt><trkpt lat="44.873480160371265" lon="9.646143728670962"><ele>195.99999999999997</ele><time>2026-04-05T08:13:00Z</time></trkpt><trkpt lat="44.87338836766695" lon="9.646145705430039"><ele>196.0</ele><time>2026-04-05T08:13:01Z</time></trkpt><trkpt lat="44.87328414110179" lon="9.64615022310372"><ele>197.0</ele><time>2026-04-05T08:13:02Z</time></trkpt><trkpt lat="44.873166154007386" lon="9.646169037840169"><ele>198.0</ele><time>2026-04-05T08:13:03Z</time></trkpt><trkpt lat="44.87305956686838" lon="9.646195155805849"><ele>199.0</ele><time>2026-04-05T08:13:04Z</time></trkpt><trkpt lat="44.87296288913143" lon="9.64622879466698"><ele>200.0</ele><time>2026-04-05T08:13:05Z</time></trkpt><trkpt lat="44.87286152681344" lon="9.646265851894851"><ele>201.0</ele><time>2026-04-05T08:13:06Z</time></trkpt><trkpt lat="44.87274908528254" lon="9.64630288513201"><ele>201.0</ele><time>2026-04-05T08:13:07Z</time></trkpt><trkpt lat="44.87265629057064" lon="9.646335589874436"><ele>201.0</ele><time>2026-04-05T08:13:08Z</time></trkpt><trkpt lat="44.872567976939834" lon="9.646357986919421"><ele>201.0</ele><time>2026-04-05T08:13:09Z</time></trkpt><trkpt lat="44.872484092149755" lon="9.646375288150079"><ele>201.0</ele><time>2026-04-05T08:13:10Z</time></trkpt><trkpt lat="44.872412859237" lon="9.64639276255035"><ele>201.0</ele><time>2026-04-05T08:13:11Z</time></trkpt><trkpt lat="44.87235067086455" lon="9.64640797805466"><ele>201.0</ele><time>2026-04-05T08:13:12Z</time></trkpt><trkpt lat="44.87225043075866" lon="9.64644697189943"><ele>201.4</ele><time>2026-04-05T08:13:14Z</time></trkpt><trkpt lat="44.872183782658254" lon="9.64644797214296"><ele>201.8</ele><time>2026-04-05T08:13:16Z</time></trkpt><trkpt lat="44.87211880169754" lon="9.646468205163025"><ele>202.20000000000002</ele><time>2026-04-05T08:13:18Z</time></trkpt><trkpt lat="44.87204414421162" lon="9.646600314882116"><ele>202.60000000000002</ele><time>2026-04-05T08:13:20Z</time></trkpt><trkpt lat="44.87199841230844" lon="9.646732013401097"><ele>203.0</ele><time>2026-04-05T08:13:21Z</time></trkpt><trkpt lat="44.871948334241516" lon="9.646878430103436"><ele>203.0</ele><time>2026-04-05T08:13:22Z</time></trkpt><trkpt lat="44.871902989674744" lon="9.647014208834168"><ele>203.0</ele><time>2026-04-05T08:13:23Z</time></trkpt><trkpt lat="44.8718651510899" lon="9.647148488040846"><ele>203.0</ele><time>2026-04-05T08:13:24Z</time></trkpt><trkpt lat="44.871840378403036" lon="9.64728549690308"><ele>203.0</ele><time>2026-04-05T08:13:25Z</time></trkpt><trkpt lat="44.871821759986645" lon="9.647427234835751"><ele>203.0</ele><time>2026-04-05T08:13:26Z</time></trkpt><trkpt lat="44.87180503543462" lon="9.647568003970509"><ele>203.0</ele><time>2026-04-05T08:13:27Z</time></trkpt><trkpt lat="44.8717889664414" lon="9.647702364962107"><ele>203.0</ele><time>2026-04-05T08:13:28Z</time></trkpt><trkpt lat="44.87177498621883" lon="9.647831565145461"><ele>203.0</ele><time>2026-04-05T08:13:29Z</time></trkpt><trkpt lat="44.87176076521498" lon="9.647963166994343"><ele>203.0</ele><time>2026-04-05T08:13:30Z</time></trkpt><trkpt lat="44.87174358077266" lon="9.648093821228233"><ele>203.0</ele><time>2026-04-05T08:13:31Z</time></trkpt><trkpt lat="44.87172429770205" lon="9.648237738707353"><ele>203.75</ele><time>2026-04-05T08:13:32Z</time></trkpt><trkpt lat="44.87170748033436" lon="9.648394549817311"><ele>204.5</ele><time>2026-04-05T08:13:33Z</time></trkpt><trkpt lat="44.871691297326564" lon="9.648566359035597"><ele>205.25</ele><time>2026-04-05T08:13:34Z</time></trkpt><trkpt lat="44.871676436203174" lon="9.648752298626034"><ele>206.0</ele><time>2026-04-05T08:13:35Z</time></trkpt><trkpt lat="44.87167073228188" lon="9.648924364050796"><ele>206.16666666666669</ele><time>2026-04-05T08:13:36Z</time></trkpt><trkpt lat="44.87167617952923" lon="9.64907446771742"><ele>206.33333333333334</ele><time>2026-04-05T08:13:37Z</time></trkpt><trkpt lat="44.871696701215185" lon="9.649199269070795"><ele>206.5</ele><time>2026-04-05T08:13:38Z</time></trkpt><trkpt lat="44.87171132442554" lon="9.649311431600882"><ele>206.66666666666669</ele><time>2026-04-05T08:13:39Z</time></trkpt><trkpt lat="44.87171612056409" lon="9.649403322425803"><ele>206.83333333333334</ele><time>2026-04-05T08:13:40Z</time></trkpt><trkpt lat="44.87170524397049" lon="9.6495418108386"><ele>207.0</ele><time>2026-04-05T08:13:42Z</time></trkpt><trkpt lat="44.871589647447436" lon="9.649596363037423"><ele>207.0</ele><time>2026-04-05T08:13:43Z</time></trkpt><trkpt lat="44.87150365826065" lon="9.649612460742555"><ele>207.0</ele><time>2026-04-05T08:13:44Z</time></trkpt><trkpt lat="44.871418572855276" lon="9.64962901762922"><ele>207.0</ele><time>2026-04-05T08:13:45Z</time></trkpt><trkpt lat="44.87133575745372" lon="9.649489587838593"><ele>207.0</ele><time>2026-04-05T08:13:46Z</time></trkpt><trkpt lat="44.87127503075433" lon="9.649442090365232"><ele>207.0</ele><time>2026-04-05T08:13:47Z</time></trkpt><trkpt lat="44.87118982863452" lon="9.649639190707806"><ele>207.6</ele><time>2026-04-05T08:13:49Z</time></trkpt><trkpt lat="44.871202797337304" lon="9.649758975164726"><ele>208.2</ele><time>2026-04-05T08:13:50Z</time></trkpt><trkpt lat="44.871231365854136" lon="9.649900144893762"><ele>208.8</ele><time>2026-04-05T08:13:51Z</time></trkpt><trkpt lat="44.871255653686184" lon="9.650060760747156"><ele>209.4</ele><time>2026-04-05T08:13:52Z</time></trkpt><trkpt lat="44.87125683147389" lon="9.650201864434582"><ele>210.0</ele><time>2026-04-05T08:13:53Z</time></trkpt><trkpt lat="44.871205067004844" lon="9.650322820542343"><ele>211.25</ele><time>2026-04-05T08:13:54Z</time></trkpt><trkpt lat="44.87113322712947" lon="9.650466320057973"><ele>212.5</ele><time>2026-04-05T08:13:55Z</time></trkpt><trkpt lat="44.87106882770457" lon="9.650636805869665"><ele>213.75</ele><time>2026-04-05T08:13:56Z</time></trkpt><trkpt lat="44.870984901371685" lon="9.650793959393706"><ele>215.0</ele><time>2026-04-05T08:13:57Z</time></trkpt><trkpt lat="44.870893326527316" lon="9.650948768045316"><ele>216.66666666666669</ele><time>2026-04-05T08:13:58Z</time></trkpt><trkpt lat="44.87081894052354" lon="9.651060698116426"><ele>218.33333333333334</ele><time>2026-04-05T08:13:59Z</time></trkpt><trkpt lat="44.87078025494644" lon="9.6511678476715"><ele>220.0</ele><time>2026-04-05T08:14:00Z</time></trkpt><trkpt lat="44.870789322894524" lon="9.651296834772902"><ele>221.66666666666669</ele><time>2026-04-05T08:14:01Z</time></trkpt><trkpt lat="44.8708192724049" lon="9.651397092715216"><ele>223.33333333333334</ele><time>2026-04-05T08:14:02Z</time></trkpt><trkpt lat="44.870885177333314" lon="9.651472368906644"><ele>225.0</ele><time>2026-04-05T08:14:03Z</time></trkpt><trkpt lat="44.87097410962102" lon="9.65154720947774"><ele>225.2</ele><time>2026-04-05T08:14:04Z</time></trkpt><trkpt lat="44.87106757644376" lon="9.651624648931113"><ele>225.4</ele><time>2026-04-05T08:14:05Z</time></trkpt><trkpt lat="44.87115844266964" lon="9.651728299279977"><ele>225.60000000000002</ele><time>2026-04-05T08:14:06Z</time></trkpt><trkpt lat="44.8712541965852" lon="9.651805271336366"><ele>225.8</ele><time>2026-04-05T08:14:07Z</time></trkpt><trkpt lat="44.87132964012392" lon="9.651868102259266"><ele>226.0</ele><time>2026-04-05T08:14:08Z</time></trkpt><trkpt lat="44.87139812602993" lon="9.6519234829065"><ele>229.0</ele><time>2026-04-05T08:14:09Z</time></trkpt><trkpt lat="44.87141417448368" lon="9.65207066394837"><ele>232.00000000000003</ele><time>2026-04-05T08:14:10Z</time></trkpt><trkpt lat="44.87145689204358" lon="9.652222972051185"><ele>235.00000000000003</ele><time>2026-04-05T08:14:11Z</time></trkpt><trkpt lat="44.8715070996948" lon="9.6523667556665"><ele>238.0</ele><time>2026-04-05T08:14:12Z</time></trkpt><trkpt lat="44.87151555201292" lon="9.65250861172868"><ele>241.0</ele><time>2026-04-05T08:14:13Z</time></trkpt><trkpt lat="44.87153178838082" lon="9.652640518587516"><ele>241.0</ele><time>2026-04-05T08:14:14Z</time></trkpt><trkpt lat="44.871541617607114" lon="9.652765495074862"><ele>241.00000000000003</ele><time>2026-04-05T08:14:15Z</time></trkpt><trkpt lat="44.87153505571499" lon="9.652869420542162"><ele>241.00000000000003</ele><time>2026-04-05T08:14:16Z</time></trkpt><trkpt lat="44.8714550612417" lon="9.65297352262417"><ele>241.0</ele><time>2026-04-05T08:14:18Z</time></trkpt><trkpt lat="44.87137410385262" lon="9.652960765648409"><ele>241.0</ele><time>2026-04-05T08:14:19Z</time></trkpt><trkpt lat="44.87125353441369" lon="9.652978210061702"><ele>242.0</ele><time>2026-04-05T08:14:20Z</time></trkpt><trkpt lat="44.87112913144132" lon="9.652986511609228"><ele>243.0</ele><time>2026-04-05T08:14:21Z</time></trkpt><trkpt lat="44.87099932239966" lon="9.652984005567138"><ele>244.0</ele><time>2026-04-05T08:14:22Z</time></trkpt><trkpt lat="44.87088173344733" lon="9.652964384614876"><ele>245.0</ele><time>2026-04-05T08:14:23Z</time></trkpt><trkpt lat="44.870775085031475" lon="9.65292406966127"><ele>250.5</ele><time>2026-04-05T08:14:24Z</time></trkpt><trkpt lat="44.87066826611886" lon="9.65291238885087"><ele>256.0</ele><time>2026-04-05T08:14:25Z</time></trkpt><trkpt lat="44.870559985685894" lon="9.652937888857497"><ele>261.5</ele><time>2026-04-05T08:14:26Z</time></trkpt><trkpt lat="44.87045538525501" lon="9.652897757413868"><ele>267.0</ele><time>2026-04-05T08:14:27Z</time></trkpt><trkpt lat="44.87033299039565" lon="9.652835179854012"><ele>267.0</ele><time>2026-04-05T08:14:28Z</time></trkpt><trkpt lat="44.87022895000136" lon="9.652800921860665"><ele>267.0</ele><time>2026-04-05T08:14:29Z</time></trkpt><trkpt lat="44.87014298266069" lon="9.652763751219732"><ele>267.0</ele><time>2026-04-05T08:14:30Z</time></trkpt><trkpt lat="44.870062452463834" lon="9.652754154736053"><ele>267.0</ele><time>2026-04-05T08:14:31Z</time></trkpt><trkpt lat="44.86998485563302" lon="9.65278764933856"><ele>267.0</ele><time>2026-04-05T08:14:32Z</time></trkpt><trkpt lat="44.86991734852371" lon="9.65286504901619"><ele>267.0</ele><time>2026-04-05T08:14:33Z</time></trkpt><trkpt lat="44.8698650940269" lon="9.652978296593897"><ele>269.0</ele><time>2026-04-05T08:14:34Z</time></trkpt><trkpt lat="44.8698127562607" lon="9.653111037474726"><ele>271.0</ele><time>2026-04-05T08:14:35Z</time></trkpt><trkpt lat="44.869754228640495" lon="9.653253682123731"><ele>273.0</ele><time>2026-04-05T08:14:36Z</time></trkpt><trkpt lat="44.86968118740433" lon="9.653420130054053"><ele>275.0</ele><time>2026-04-05T08:14:37Z</time></trkpt><trkpt lat="44.86960856202073" lon="9.653594445706954"><ele>275.25</ele><time>2026-04-05T08:14:38Z</time></trkpt><trkpt lat="44.86954058301908" lon="9.653759119821144"><ele>275.5</ele><time>2026-04-05T08:14:39Z</time></trkpt><trkpt lat="44.86947317258261" lon="9.653911524086134"><ele>275.75</ele><time>2026-04-05T08:14:40Z</time></trkpt><trkpt lat="44.86941259367865" lon="9.654056430221782"><ele>276.0</ele><time>2026-04-05T08:14:41Z</time></trkpt><trkpt lat="44.86935196401394" lon="9.654198660475833"><ele>276.0</ele><time>2026-04-05T08:14:42Z</time></trkpt><trkpt lat="44.86930632680453" lon="9.654350482559314"><ele>276.0</ele><time>2026-04-05T08:14:43Z</time></trkpt><trkpt lat="44.86927161326766" lon="9.654491612913388"><ele>276.0</ele><time>2026-04-05T08:14:44Z</time></trkpt><trkpt lat="44.869224679512435" lon="9.654582923742762"><ele>276.0</ele><time>2026-04-05T08:14:45Z</time></trkpt><trkpt lat="44.869160191575126" lon="9.654607053200294"><ele>276.0</ele><time>2026-04-05T08:14:46Z</time></trkpt><trkpt lat="44.86909038180313" lon="9.654578113404535"><ele>276.0</ele><time>2026-04-05T08:14:47Z</time></trkpt><trkpt lat="44.869016148013095" lon="9.654524279548404"><ele>278.75</ele><time>2026-04-05T08:14:48Z</time></trkpt><trkpt lat="44.8689206281556" lon="9.654484734011952"><ele>281.5</ele><time>2026-04-05T08:14:49Z</time></trkpt><trkpt lat="44.86880304772689" lon="9.65444773684625"><ele>284.25</ele><time>2026-04-05T08:14:50Z</time></trkpt><trkpt lat="44.8686712062409" lon="9.654399394881095"><ele>287.0</ele><time>2026-04-05T08:14:51Z</time></trkpt><trkpt lat="44.86855468005619" lon="9.654325049497114"><ele>287.2</ele><time>2026-04-05T08:14:52Z</time></trkpt><trkpt lat="44.86845002871008" lon="9.654274114007569"><ele>287.4</ele><time>2026-04-05T08:14:53Z</time></trkpt><trkpt lat="44.86835645770862" lon="9.654226196591836"><ele>287.6</ele><time>2026-04-05T08:14:54Z</time></trkpt><trkpt lat="44.86826417639445" lon="9.654159253131192"><ele>287.8</ele><time>2026-04-05T08:14:55Z</time></trkpt><trkpt lat="44.8681739456591" lon="9.654069945049734"><ele>288.0</ele><time>2026-04-05T08:14:56Z</time></trkpt><trkpt lat="44.868081135252055" lon="9.653975083550272"><ele>290.75</ele><time>2026-04-05T08:14:57Z</time></trkpt><trkpt lat="44.867972939677244" lon="9.653882794030533"><ele>293.5</ele><time>2026-04-05T08:14:58Z</time></trkpt><trkpt lat="44.86788194324734" lon="9.653779141441722"><ele>296.25</ele><time>2026-04-05T08:14:59Z</time></trkpt><trkpt lat="44.867813817394136" lon="9.65365447331519"><ele>299.0</ele><time>2026-04-05T08:15:00Z</time></trkpt><trkpt lat="44.86773241901529" lon="9.653536980528786"><ele>299.0</ele><time>2026-04-05T08:15:01Z</time></trkpt><trkpt lat="44.86764019491108" lon="9.65342472849715"><ele>299.0</ele><time>2026-04-05T08:15:02Z</time></trkpt><trkpt lat="44.86753558432804" lon="9.653343911958846"><ele>299.0</ele><time>2026-04-05T08:15:03Z</time></trkpt><trkpt lat="44.86743500961374" lon="9.653244995135774"><ele>299.0</ele><time>2026-04-05T08:15:04Z</time></trkpt><trkpt lat="44.867338113577475" lon="9.653173437997012"><ele>300.8</ele><time>2026-04-05T08:15:05Z</time></trkpt><trkpt lat="44.867240882996036" lon="9.653129767702351"><ele>302.59999999999997</ele><time>2026-04-05T08:15:06Z</time></trkpt><trkpt lat="44.86713757310454" lon="9.653115479096487"><ele>304.4</ele><time>2026-04-05T08:15:07Z</time></trkpt><trkpt lat="44.867029367381086" lon="9.653113758138105"><ele>306.2</ele><time>2026-04-05T08:15:08Z</time></trkpt><trkpt lat="44.86691652953162" lon="9.653119320185894"><ele>308.0</ele><time>2026-04-05T08:15:09Z</time></trkpt><trkpt lat="44.8667990474861" lon="9.653143053193615"><ele>308.6</ele><time>2026-04-05T08:15:10Z</time></trkpt><trkpt lat="44.86669052186111" lon="9.653184873577333"><ele>309.20000000000005</ele><time>2026-04-05T08:15:11Z</time></trkpt><trkpt lat="44.86659816028744" lon="9.653246896635844"><ele>309.8</ele><time>2026-04-05T08:15:12Z</time></trkpt><trkpt lat="44.8665270574088" lon="9.65332634609242"><ele>310.40000000000003</ele><time>2026-04-05T08:15:13Z</time></trkpt><trkpt lat="44.866441986465" lon="9.653419541669283"><ele>311.0</ele><time>2026-04-05T08:15:14Z</time></trkpt><trkpt lat="44.86635807163248" lon="9.653534147551486"><ele>312.6</ele><time>2026-04-05T08:15:15Z</time></trkpt><trkpt lat="44.86627911329886" lon="9.65364853226332"><ele>314.20000000000005</ele><time>2026-04-05T08:15:16Z</time></trkpt><trkpt lat="44.866202595457644" lon="9.653751574958791"><ele>315.79999999999995</ele><time>2026-04-05T08:15:17Z</time></trkpt><trkpt lat="44.86613312772115" lon="9.653857622195764"><ele>317.4</ele><time>2026-04-05T08:15:18Z</time></trkpt><trkpt lat="44.866062567757695" lon="9.65396594839611"><ele>319.0</ele><time>2026-04-05T08:15:19Z</time></trkpt><trkpt lat="44.86599630296762" lon="9.654064232122074"><ele>320.6</ele><time>2026-04-05T08:15:20Z</time></trkpt><trkpt lat="44.86593333847234" lon="9.654162651645047"><ele>322.2</ele><time>2026-04-05T08:15:21Z</time></trkpt><trkpt lat="44.86586972647081" lon="9.654264166037926"><ele>323.8</ele><time>2026-04-05T08:15:22Z</time></trkpt><trkpt lat="44.865801915958365" lon="9.654368250768401"><ele>325.40000000000003</ele><time>2026-04-05T08:15:23Z</time></trkpt><trkpt lat="44.86573013844322" lon="9.654474967353075"><ele>327.0</ele><time>2026-04-05T08:15:24Z</time></trkpt><trkpt lat="44.86565653701436" lon="9.654585268827226"><ele>329.0</ele><time>2026-04-05T08:15:25Z</time></trkpt><trkpt lat="44.865585401966015" lon="9.65468958024623"><ele>331.0</ele><time>2026-04-05T08:15:26Z</time></trkpt><trkpt lat="44.86551065588863" lon="9.654796128472189"><ele>333.0</ele><time>2026-04-05T08:15:27Z</time></trkpt><trkpt lat="44.865434267801625" lon="9.654906514385392"><ele>335.0</ele><time>2026-04-05T08:15:28Z</time></trkpt><trkpt lat="44.86534347206418" lon="9.655016276005618"><ele>337.0</ele><time>2026-04-05T08:15:29Z</time></trkpt><trkpt lat="44.865290105813564" lon="9.655200290519485"><ele>337.8</ele><time>2026-04-05T08:15:30Z</time></trkpt><trkpt lat="44.865231059267174" lon="9.65536273382511"><ele>338.6</ele><time>2026-04-05T08:15:31Z</time></trkpt><trkpt lat="44.86518836806144" lon="9.655522140124997"><ele>339.40000000000003</ele><time>2026-04-05T08:15:32Z</time></trkpt><trkpt lat="44.865162883260204" lon="9.655661756804673"><ele>340.20000000000005</ele><time>2026-04-05T08:15:33Z</time></trkpt><trkpt lat="44.86514149110477" lon="9.655778912472549"><ele>341.0</ele><time>2026-04-05T08:15:34Z</time></trkpt><trkpt lat="44.86510271582234" lon="9.655868665457469"><ele>342.20000000000005</ele><time>2026-04-05T08:15:35Z</time></trkpt><trkpt lat="44.86504921832476" lon="9.655944629413503"><ele>343.40000000000003</ele><time>2026-04-05T08:15:36Z</time></trkpt><trkpt lat="44.86496690177002" lon="9.65600731283949"><ele>344.6</ele><time>2026-04-05T08:15:37Z</time></trkpt><trkpt lat="44.86486585113674" lon="9.656037879208775"><ele>345.8</ele><time>2026-04-05T08:15:38Z</time></trkpt><trkpt lat="44.864766804652795" lon="9.656074558511893"><ele>347.0</ele><time>2026-04-05T08:15:39Z</time></trkpt><trkpt lat="44.8646691362203" lon="9.656107223860085"><ele>347.6</ele><time>2026-04-05T08:15:40Z</time></trkpt><trkpt lat="44.86457220131824" lon="9.656139348453747"><ele>348.20000000000005</ele><time>2026-04-05T08:15:41Z</time></trkpt><trkpt lat="44.86448011090767" lon="9.656198447726466"><ele>348.8</ele><time>2026-04-05T08:15:42Z</time></trkpt><trkpt lat="44.864388138458324" lon="9.656252805614299"><ele>349.4</ele><time>2026-04-05T08:15:43Z</time></trkpt><trkpt lat="44.8643055843733" lon="9.65631241002726"><ele>350.0</ele><time>2026-04-05T08:15:44Z</time></trkpt><trkpt lat="44.864221462835125" lon="9.656371461163435"><ele>350.0</ele><time>2026-04-05T08:15:45Z</time></trkpt><trkpt lat="44.864135859483255" lon="9.656436155543268"><ele>350.0</ele><time>2026-04-05T08:15:46Z</time></trkpt><trkpt lat="44.864062525529036" lon="9.656494472015671"><ele>350.0</ele><time>2026-04-05T08:15:47Z</time></trkpt><trkpt lat="44.86399020449007" lon="9.656537280570056"><ele>350.0</ele><time>2026-04-05T08:15:48Z</time></trkpt><trkpt lat="44.86392003729129" lon="9.656556898031662"><ele>350.0</ele><time>2026-04-05T08:15:49Z</time></trkpt><trkpt lat="44.863860330722765" lon="9.656585515430237"><ele>350.0</ele><time>2026-04-05T08:15:50Z</time></trkpt><trkpt lat="44.86378220310341" lon="9.656617997758792"><ele>350.0</ele><time>2026-04-05T08:15:51Z</time></trkpt><trkpt lat="44.86367142307443" lon="9.656661303728653"><ele>350.0</ele><time>2026-04-05T08:15:52Z</time></trkpt><trkpt lat="44.86356075142161" lon="9.656704229272911"><ele>350.0</ele><time>2026-04-05T08:15:53Z</time></trkpt><trkpt lat="44.8634604510127" lon="9.656743053429675"><ele>350.0</ele><time>2026-04-05T08:15:54Z</time></trkpt><trkpt lat="44.86336291404279" lon="9.656779147326134"><ele>350.0</ele><time>2026-04-05T08:15:55Z</time></trkpt><trkpt lat="44.863269466868196" lon="9.656819332104181"><ele>350.8</ele><time>2026-04-05T08:15:56Z</time></trkpt><trkpt lat="44.86318897269421" lon="9.656855114866483"><ele>351.6</ele><time>2026-04-05T08:15:57Z</time></trkpt><trkpt lat="44.86310247596914" lon="9.656891846580617"><ele>352.4</ele><time>2026-04-05T08:15:58Z</time></trkpt><trkpt lat="44.86302713160112" lon="9.656919943406828"><ele>353.2</ele><time>2026-04-05T08:15:59Z</time></trkpt><trkpt lat="44.86295911364718" lon="9.656939861298266"><ele>354.0</ele><time>2026-04-05T08:16:01Z</time></trkpt><trkpt lat="44.86303992452695" lon="9.657532048563636"><ele>354.2</ele><time>2026-04-05T08:16:02Z</time></trkpt><trkpt lat="44.86309040650428" lon="9.6576210529194"><ele>354.4</ele><time>2026-04-05T08:16:03Z</time></trkpt><trkpt lat="44.86315613898717" lon="9.657733973359226"><ele>354.6</ele><time>2026-04-05T08:16:04Z</time></trkpt><trkpt lat="44.86322339736903" lon="9.657815086037276"><ele>354.8</ele><time>2026-04-05T08:16:05Z</time></trkpt><trkpt lat="44.86331347684926" lon="9.657861682274332"><ele>355.0</ele><time>2026-04-05T08:16:06Z</time></trkpt><trkpt lat="44.863393051437626" lon="9.657897952613093"><ele>355.3333333333333</ele><time>2026-04-05T08:16:07Z</time></trkpt><trkpt lat="44.863461138528116" lon="9.657970802992889"><ele>355.66666666666663</ele><time>2026-04-05T08:16:08Z</time></trkpt><trkpt lat="44.863524225620914" lon="9.658059768588048"><ele>356.0</ele><time>2026-04-05T08:16:09Z</time></trkpt><trkpt lat="44.86361224791211" lon="9.658064376536602"><ele>356.3333333333333</ele><time>2026-04-05T08:16:10Z</time></trkpt><trkpt lat="44.863706296709694" lon="9.658057145668606"><ele>356.6666666666667</ele><time>2026-04-05T08:16:11Z</time></trkpt><trkpt lat="44.86378969868075" lon="9.658069390192955"><ele>357.0</ele><time>2026-04-05T08:16:12Z</time></trkpt><trkpt lat="44.863870474328515" lon="9.658065014408056"><ele>357.0</ele><time>2026-04-05T08:16:13Z</time></trkpt><trkpt lat="44.86396238407804" lon="9.658054267247925"><ele>357.0</ele><time>2026-04-05T08:16:14Z</time></trkpt><trkpt lat="44.8640675963015" lon="9.658093909352841"><ele>357.0</ele><time>2026-04-05T08:16:15Z</time></trkpt><trkpt lat="44.86415948134856" lon="9.658112496587771"><ele>357.0</ele><time>2026-04-05T08:16:16Z</time></trkpt><trkpt lat="44.864247573575376" lon="9.658083532732801"><ele>357.0</ele><time>2026-04-05T08:16:17Z</time></trkpt><trkpt lat="44.86433953273918" lon="9.658042288587168"><ele>355.75</ele><time>2026-04-05T08:16:18Z</time></trkpt><trkpt lat="44.86444682478604" lon="9.65800505461234"><ele>354.5</ele><time>2026-04-05T08:16:19Z</time></trkpt><trkpt lat="44.86455578171903" lon="9.65797721856109"><ele>353.25</ele><time>2026-04-05T08:16:20Z</time></trkpt><trkpt lat="44.864670615843835" lon="9.657941783281386"><ele>352.0</ele><time>2026-04-05T08:16:21Z</time></trkpt><trkpt lat="44.864793765223105" lon="9.65791610246264"><ele>352.0</ele><time>2026-04-05T08:16:22Z</time></trkpt><trkpt lat="44.86490822017821" lon="9.657930508338184"><ele>352.0</ele><time>2026-04-05T08:16:23Z</time></trkpt><trkpt lat="44.865027060561985" lon="9.657967986631855"><ele>352.0</ele><time>2026-04-05T08:16:24Z</time></trkpt><trkpt lat="44.8651727949979" lon="9.658023834894689"><ele>352.0</ele><time>2026-04-05T08:16:25Z</time></trkpt><trkpt lat="44.86528717060263" lon="9.658073029938622"><ele>347.40000000000003</ele><time>2026-04-05T08:16:26Z</time></trkpt><trkpt lat="44.86537772705483" lon="9.658119318535473"><ele>342.8</ele><time>2026-04-05T08:16:27Z</time></trkpt><trkpt lat="44.86544533819566" lon="9.658175661198843"><ele>338.2</ele><time>2026-04-05T08:16:28Z</time></trkpt><trkpt lat="44.865505698149214" lon="9.6582537948109"><ele>333.6</ele><time>2026-04-05T08:16:29Z</time></trkpt><trkpt lat="44.865570073993034" lon="9.658357986573465"><ele>329.0</ele><time>2026-04-05T08:16:30Z</time></trkpt><trkpt lat="44.8656376196393" lon="9.658491842773971"><ele>330.75</ele><time>2026-04-05T08:16:31Z</time></trkpt><trkpt lat="44.86572672458519" lon="9.658664349941686"><ele>332.5</ele><time>2026-04-05T08:16:32Z</time></trkpt><trkpt lat="44.86580421603524" lon="9.65883463751667"><ele>334.25</ele><time>2026-04-05T08:16:33Z</time></trkpt><trkpt lat="44.865843592207426" lon="9.658985225758233"><ele>336.0</ele><time>2026-04-05T08:16:34Z</time></trkpt><trkpt lat="44.86586343786283" lon="9.659154766621077"><ele>336.0</ele><time>2026-04-05T08:16:35Z</time></trkpt><trkpt lat="44.865878907895215" lon="9.659355126709666"><ele>336.0</ele><time>2026-04-05T08:16:36Z</time></trkpt><trkpt lat="44.86587090146981" lon="9.65946808070259"><ele>336.0</ele><time>2026-04-05T08:16:37Z</time></trkpt><trkpt lat="44.86579116242897" lon="9.659621396285575"><ele>336.0</ele><time>2026-04-05T08:16:39Z</time></trkpt><trkpt lat="44.86571837023252" lon="9.659686423208464"><ele>336.0</ele><time>2026-04-05T08:16:40Z</time></trkpt><trkpt lat="44.86571254827755" lon="9.659848602672753"><ele>336.20000000000005</ele><time>2026-04-05T08:16:42Z</time></trkpt><trkpt lat="44.8657371026508" lon="9.659945802085737"><ele>336.40000000000003</ele><time>2026-04-05T08:16:43Z</time></trkpt><trkpt lat="44.865766857915574" lon="9.660030044093208"><ele>336.6</ele><time>2026-04-05T08:16:44Z</time></trkpt><trkpt lat="44.86580355594183" lon="9.660224761514549"><ele>336.8</ele><time>2026-04-05T08:16:46Z</time></trkpt><trkpt lat="44.86587032957495" lon="9.660262899416814"><ele>337.0</ele><time>2026-04-05T08:16:47Z</time></trkpt><trkpt lat="44.86601406921565" lon="9.66038864543539"><ele>335.20000000000005</ele><time>2026-04-05T08:16:48Z</time></trkpt><trkpt lat="44.86611248197338" lon="9.66051218665946"><ele>333.4</ele><time>2026-04-05T08:16:49Z</time></trkpt><trkpt lat="44.86621532232286" lon="9.660637748932519"><ele>331.6</ele><time>2026-04-05T08:16:50Z</time></trkpt><trkpt lat="44.866300380706896" lon="9.660714800506437"><ele>329.79999999999995</ele><time>2026-04-05T08:16:51Z</time></trkpt><trkpt lat="44.866363063667954" lon="9.660784813809835"><ele>328.0</ele><time>2026-04-05T08:16:52Z</time></trkpt><trkpt lat="44.866430609480915" lon="9.660866914568722"><ele>328.0</ele><time>2026-04-05T08:16:53Z</time></trkpt><trkpt lat="44.86649491500177" lon="9.660907219713392"><ele>328.0</ele><time>2026-04-05T08:16:54Z</time></trkpt><trkpt lat="44.866552419135964" lon="9.660859276996858"><ele>328.0</ele><time>2026-04-05T08:16:55Z</time></trkpt><trkpt lat="44.866627222675646" lon="9.660942027882705"><ele>328.0</ele><time>2026-04-05T08:16:56Z</time></trkpt><trkpt lat="44.866683154527955" lon="9.661081416360423"><ele>328.0</ele><time>2026-04-05T08:16:57Z</time></trkpt><trkpt lat="44.86668581674282" lon="9.661186205289894"><ele>328.0</ele><time>2026-04-05T08:16:59Z</time></trkpt><trkpt lat="44.86660656830392" lon="9.661246227697797"><ele>327.79999999999995</ele><time>2026-04-05T08:17:01Z</time></trkpt><trkpt lat="44.86661138656468" lon="9.661339870166183"><ele>327.6</ele><time>2026-04-05T08:17:03Z</time></trkpt><trkpt lat="44.86663814514022" lon="9.6614229217349"><ele>327.4</ele><time>2026-04-05T08:17:05Z</time></trkpt><trkpt lat="44.86674933494234" lon="9.661696442642397"><ele>327.20000000000005</ele><time>2026-04-05T08:17:07Z</time></trkpt><trkpt lat="44.86673391077082" lon="9.661819249900343"><ele>327.0</ele><time>2026-04-05T08:17:31Z</time></trkpt><trkpt lat="44.8667930281999" lon="9.66188961451756"><ele>329.40000000000003</ele><time>2026-04-05T08:17:32Z</time></trkpt><trkpt lat="44.86688725485548" lon="9.661954113987079"><ele>331.8</ele><time>2026-04-05T08:17:33Z</time></trkpt><trkpt lat="44.866971839721735" lon="9.662042986436969"><ele>334.2</ele><time>2026-04-05T08:17:34Z</time></trkpt><trkpt lat="44.86707516177355" lon="9.662123770069057"><ele>336.6</ele><time>2026-04-05T08:17:35Z</time></trkpt><trkpt lat="44.86716995116109" lon="9.662207599553682"><ele>339.0</ele><time>2026-04-05T08:17:36Z</time></trkpt><trkpt lat="44.86724334557911" lon="9.662270954813176"><ele>339.0</ele><time>2026-04-05T08:17:37Z</time></trkpt><trkpt lat="44.867317262090786" lon="9.662245651932594"><ele>339.0</ele><time>2026-04-05T08:17:38Z</time></trkpt><trkpt lat="44.86740598545219" lon="9.662181731180786"><ele>339.0</ele><time>2026-04-05T08:17:39Z</time></trkpt><trkpt lat="44.86749327947717" lon="9.662156484576352"><ele>339.0</ele><time>2026-04-05T08:17:40Z</time></trkpt><trkpt lat="44.867606738331304" lon="9.662115114927529"><ele>339.0</ele><time>2026-04-05T08:17:42Z</time></trkpt><trkpt lat="44.86767769166714" lon="9.662058479143179"><ele>336.0</ele><time>2026-04-05T08:17:43Z</time></trkpt><trkpt lat="44.8677864954536" lon="9.66209125517784"><ele>333.0</ele><time>2026-04-05T08:17:44Z</time></trkpt><trkpt lat="44.86792977473885" lon="9.662149203638558"><ele>330.0</ele><time>2026-04-05T08:17:45Z</time></trkpt><trkpt lat="44.86805931856775" lon="9.662196065688745"><ele>327.0</ele><time>2026-04-05T08:17:46Z</time></trkpt><trkpt lat="44.86815778968398" lon="9.662290773545308"><ele>327.0</ele><time>2026-04-05T08:17:47Z</time></trkpt><trkpt lat="44.86825985330374" lon="9.662414278261593"><ele>327.0</ele><time>2026-04-05T08:17:48Z</time></trkpt><trkpt lat="44.86832488985569" lon="9.662514378354896"><ele>327.0</ele><time>2026-04-05T08:17:49Z</time></trkpt><trkpt lat="44.86825444968523" lon="9.662592183404977"><ele>327.0</ele><time>2026-04-05T08:17:54Z</time></trkpt><trkpt lat="44.86817907779706" lon="9.662593066213937"><ele>327.0</ele><time>2026-04-05T08:17:55Z</time></trkpt><trkpt lat="44.86810113327601" lon="9.662620271638193"><ele>327.0</ele><time>2026-04-05T08:17:56Z</time></trkpt><trkpt lat="44.86800545343848" lon="9.662667668768023"><ele>327.0</ele><time>2026-04-05T08:17:57Z</time></trkpt><trkpt lat="44.86791196324819" lon="9.662724397913744"><ele>327.0</ele><time>2026-04-05T08:17:58Z</time></trkpt><trkpt lat="44.867809727782124" lon="9.66276862282377"><ele>327.0</ele><time>2026-04-05T08:17:59Z</time></trkpt><trkpt lat="44.86773549807733" lon="9.662815906722772"><ele>327.0</ele><time>2026-04-05T08:18:00Z</time></trkpt><trkpt lat="44.8676603330709" lon="9.662867231915927"><ele>329.8333333333333</ele><time>2026-04-05T08:18:01Z</time></trkpt><trkpt lat="44.86758524195778" lon="9.662906809750169"><ele>332.6666666666667</ele><time>2026-04-05T08:18:02Z</time></trkpt><trkpt lat="44.8675086648438" lon="9.66295819447238"><ele>335.5</ele><time>2026-04-05T08:18:03Z</time></trkpt><trkpt lat="44.86742658887316" lon="9.663014247204853"><ele>338.33333333333337</ele><time>2026-04-05T08:18:04Z</time></trkpt><trkpt lat="44.86735067038551" lon="9.663081025122466"><ele>341.1666666666667</ele><time>2026-04-05T08:18:05Z</time></trkpt><trkpt lat="44.86725654016497" lon="9.663115027927354"><ele>344.0</ele><time>2026-04-05T08:18:06Z</time></trkpt><trkpt lat="44.86719329883049" lon="9.663122043789139"><ele>344.0</ele><time>2026-04-05T08:18:07Z</time></trkpt><trkpt lat="44.867120407732926" lon="9.663109971171728"><ele>344.0</ele><time>2026-04-05T08:18:08Z</time></trkpt><trkpt lat="44.86704458661932" lon="9.663067385056237"><ele>344.0</ele><time>2026-04-05T08:18:09Z</time></trkpt><trkpt lat="44.86697020433286" lon="9.66302454632574"><ele>344.0</ele><time>2026-04-05T08:18:10Z</time></trkpt><trkpt lat="44.86685928723789" lon="9.662958346613973"><ele>344.0</ele><time>2026-04-05T08:18:11Z</time></trkpt><trkpt lat="44.86674158743542" lon="9.662909385390652"><ele>345.0</ele><time>2026-04-05T08:18:12Z</time></trkpt><trkpt lat="44.86663094880239" lon="9.662860307120681"><ele>346.0</ele><time>2026-04-05T08:18:13Z</time></trkpt><trkpt lat="44.866542414047906" lon="9.662806677628861"><ele>347.0</ele><time>2026-04-05T08:18:14Z</time></trkpt><trkpt lat="44.86647161190745" lon="9.662753975516559"><ele>348.0</ele><time>2026-04-05T08:18:15Z</time></trkpt><trkpt lat="44.86638372298225" lon="9.662712527607395"><ele>349.0</ele><time>2026-04-05T08:18:16Z</time></trkpt><trkpt lat="44.86628293493012" lon="9.66267706755231"><ele>349.0</ele><time>2026-04-05T08:18:17Z</time></trkpt><trkpt lat="44.86617834468047" lon="9.662638289589216"><ele>349.0</ele><time>2026-04-05T08:18:18Z</time></trkpt><trkpt lat="44.8660790563921" lon="9.662596227016458"><ele>349.0</ele><time>2026-04-05T08:18:19Z</time></trkpt><trkpt lat="44.86598638899382" lon="9.662556638245444"><ele>349.0</ele><time>2026-04-05T08:18:20Z</time></trkpt><trkpt lat="44.865898838669736" lon="9.662531600201932"><ele>349.0</ele><time>2026-04-05T08:18:21Z</time></trkpt><trkpt lat="44.86580994938235" lon="9.662504381267786"><ele>351.0</ele><time>2026-04-05T08:18:22Z</time></trkpt><trkpt lat="44.86572630614402" lon="9.662469185596667"><ele>353.0</ele><time>2026-04-05T08:18:23Z</time></trkpt><trkpt lat="44.86563087992246" lon="9.662399821560387"><ele>355.0</ele><time>2026-04-05T08:18:24Z</time></trkpt><trkpt lat="44.86554274671332" lon="9.662304780963773"><ele>357.0</ele><time>2026-04-05T08:18:25Z</time></trkpt><trkpt lat="44.86545508093591" lon="9.662215642401298"><ele>359.0</ele><time>2026-04-05T08:18:26Z</time></trkpt><trkpt lat="44.86536833107676" lon="9.662126183883927"><ele>359.0</ele><time>2026-04-05T08:18:27Z</time></trkpt><trkpt lat="44.86528748314444" lon="9.662029028778097"><ele>359.0</ele><time>2026-04-05T08:18:28Z</time></trkpt><trkpt lat="44.865211205969864" lon="9.661931953084189"><ele>359.0</ele><time>2026-04-05T08:18:29Z</time></trkpt><trkpt lat="44.86512386616535" lon="9.66184125847599"><ele>359.0</ele><time>2026-04-05T08:18:30Z</time></trkpt><trkpt lat="44.865034179658785" lon="9.661757314521436"><ele>359.0</ele><time>2026-04-05T08:18:31Z</time></trkpt><trkpt lat="44.86493939276964" lon="9.661673856063155"><ele>359.2</ele><time>2026-04-05T08:18:32Z</time></trkpt><trkpt lat="44.864847166805255" lon="9.66158634606613"><ele>359.4</ele><time>2026-04-05T08:18:33Z</time></trkpt><trkpt lat="44.864762835292304" lon="9.661498920206949"><ele>359.6</ele><time>2026-04-05T08:18:34Z</time></trkpt><trkpt lat="44.86468178371602" lon="9.661416302458022"><ele>359.8</ele><time>2026-04-05T08:18:35Z</time></trkpt><trkpt lat="44.86459972851842" lon="9.661331751303345"><ele>360.0</ele><time>2026-04-05T08:18:36Z</time></trkpt><trkpt lat="44.86451216442419" lon="9.661245806324638"><ele>360.0</ele><time>2026-04-05T08:18:37Z</time></trkpt><trkpt lat="44.864423645775254" lon="9.661160660186743"><ele>360.0</ele><time>2026-04-05T08:18:38Z</time></trkpt><trkpt lat="44.864336211971306" lon="9.661067560005005"><ele>360.0</ele><time>2026-04-05T08:18:39Z</time></trkpt><trkpt lat="44.86424681076113" lon="9.660979665926861"><ele>360.0</ele><time>2026-04-05T08:18:40Z</time></trkpt><trkpt lat="44.86415915335478" lon="9.660893645849354"><ele>360.0</ele><time>2026-04-05T08:18:41Z</time></trkpt><trkpt lat="44.86406432060126" lon="9.660806253931444"><ele>362.25</ele><time>2026-04-05T08:18:42Z</time></trkpt><trkpt lat="44.863973581907544" lon="9.660732265253976"><ele>364.5</ele><time>2026-04-05T08:18:43Z</time></trkpt><trkpt lat="44.86388006322354" lon="9.66066047064565"><ele>366.75</ele><time>2026-04-05T08:18:44Z</time></trkpt><trkpt lat="44.863772591606704" lon="9.660590078383764"><ele>369.0</ele><time>2026-04-05T08:18:45Z</time></trkpt><trkpt lat="44.86366036870245" lon="9.660505163972953"><ele>369.0</ele><time>2026-04-05T08:18:46Z</time></trkpt><trkpt lat="44.86357155819163" lon="9.660417406532872"><ele>369.0</ele><time>2026-04-05T08:18:47Z</time></trkpt><trkpt lat="44.863479896866195" lon="9.660338791524339"><ele>369.0</ele><time>2026-04-05T08:18:48Z</time></trkpt><trkpt lat="44.863384617404705" lon="9.660268462708574"><ele>369.0</ele><time>2026-04-05T08:18:49Z</time></trkpt><trkpt lat="44.863289510158644" lon="9.66021200013708"><ele>369.0</ele><time>2026-04-05T08:18:50Z</time></trkpt><trkpt lat="44.86318604170318" lon="9.660160359071881"><ele>370.75</ele><time>2026-04-05T08:18:51Z</time></trkpt><trkpt lat="44.863081011302555" lon="9.660098805578343"><ele>372.5</ele><time>2026-04-05T08:18:52Z</time></trkpt><trkpt lat="44.86296601863077" lon="9.66004172862515"><ele>374.25</ele><time>2026-04-05T08:18:53Z</time></trkpt><trkpt lat="44.86284850115264" lon="9.659986540426209"><ele>376.0</ele><time>2026-04-05T08:18:54Z</time></trkpt><trkpt lat="44.862744628668096" lon="9.659939597158706"><ele>376.0</ele><time>2026-04-05T08:18:55Z</time></trkpt><trkpt lat="44.862643014095674" lon="9.659853045581455"><ele>376.0</ele><time>2026-04-05T08:18:56Z</time></trkpt><trkpt lat="44.86253269642449" lon="9.659801486185033"><ele>376.0</ele><time>2026-04-05T08:18:57Z</time></trkpt><trkpt lat="44.862426629635614" lon="9.65975014768197"><ele>376.0</ele><time>2026-04-05T08:18:58Z</time></trkpt><trkpt lat="44.862321339992846" lon="9.659698421691003"><ele>375.75</ele><time>2026-04-05T08:18:59Z</time></trkpt><trkpt lat="44.862211621527976" lon="9.659645531071469"><ele>375.5</ele><time>2026-04-05T08:19:00Z</time></trkpt><trkpt lat="44.8620968184637" lon="9.659593989758672"><ele>375.25</ele><time>2026-04-05T08:19:01Z</time></trkpt><trkpt lat="44.861965151226016" lon="9.659540349588298"><ele>375.0</ele><time>2026-04-05T08:19:02Z</time></trkpt><trkpt lat="44.86182665848141" lon="9.6594883202218"><ele>376.25</ele><time>2026-04-05T08:19:03Z</time></trkpt><trkpt lat="44.861697256714606" lon="9.659439706083512"><ele>377.5</ele><time>2026-04-05T08:19:04Z</time></trkpt><trkpt lat="44.861584757516475" lon="9.659388320722151"><ele>378.75</ele><time>2026-04-05T08:19:05Z</time></trkpt><trkpt lat="44.86147309108701" lon="9.659337561485447"><ele>380.0</ele><time>2026-04-05T08:19:06Z</time></trkpt><trkpt lat="44.861361390842106" lon="9.65930588952864"><ele>380.0</ele><time>2026-04-05T08:19:07Z</time></trkpt><trkpt lat="44.86125340329373" lon="9.659295473816467"><ele>380.0</ele><time>2026-04-05T08:19:08Z</time></trkpt><trkpt lat="44.86114119156271" lon="9.659340412494059"><ele>380.0</ele><time>2026-04-05T08:19:09Z</time></trkpt><trkpt lat="44.861027818802576" lon="9.659377082877198"><ele>380.0</ele><time>2026-04-05T08:19:10Z</time></trkpt><trkpt lat="44.860919978893435" lon="9.659426431475108"><ele>380.4</ele><time>2026-04-05T08:19:11Z</time></trkpt><trkpt lat="44.860826643417575" lon="9.65947645544614"><ele>380.8</ele><time>2026-04-05T08:19:12Z</time></trkpt><trkpt lat="44.860744387725255" lon="9.659518370645035"><ele>381.20000000000005</ele><time>2026-04-05T08:19:13Z</time></trkpt><trkpt lat="44.86067340476268" lon="9.659499294625363"><ele>381.6</ele><time>2026-04-05T08:19:14Z</time></trkpt><trkpt lat="44.86060750994884" lon="9.659598864091823"><ele>382.0</ele><time>2026-04-05T08:19:15Z</time></trkpt><trkpt lat="44.86051128972976" lon="9.659662496980296"><ele>382.0</ele><time>2026-04-05T08:19:16Z</time></trkpt><trkpt lat="44.86039937881266" lon="9.659740638984614"><ele>382.0</ele><time>2026-04-05T08:19:17Z</time></trkpt><trkpt lat="44.860287884514065" lon="9.659798917820323"><ele>382.0</ele><time>2026-04-05T08:19:18Z</time></trkpt><trkpt lat="44.8601821566283" lon="9.659867210087276"><ele>382.0</ele><time>2026-04-05T08:19:19Z</time></trkpt><trkpt lat="44.86008108335642" lon="9.659961174467288"><ele>381.75</ele><time>2026-04-05T08:19:20Z</time></trkpt><trkpt lat="44.85998135816194" lon="9.660089147209513"><ele>381.5</ele><time>2026-04-05T08:19:21Z</time></trkpt><trkpt lat="44.85987959730826" lon="9.660242539249277"><ele>381.25</ele><time>2026-04-05T08:19:22Z</time></trkpt><trkpt lat="44.85978597129655" lon="9.660377056016884"><ele>381.0</ele><time>2026-04-05T08:19:23Z</time></trkpt><trkpt lat="44.85968122020528" lon="9.660474804206222"><ele>382.5</ele><time>2026-04-05T08:19:24Z</time></trkpt><trkpt lat="44.85957698863323" lon="9.660559202714962"><ele>384.0</ele><time>2026-04-05T08:19:25Z</time></trkpt><trkpt lat="44.85946613389049" lon="9.660665076586188"><ele>385.5</ele><time>2026-04-05T08:19:26Z</time></trkpt><trkpt lat="44.85934762344998" lon="9.660791619964279"><ele>387.0</ele><time>2026-04-05T08:19:27Z</time></trkpt><trkpt lat="44.859239390117516" lon="9.660903434631972"><ele>387.0</ele><time>2026-04-05T08:19:28Z</time></trkpt><trkpt lat="44.85914822452972" lon="9.661001356001913"><ele>387.0</ele><time>2026-04-05T08:19:29Z</time></trkpt><trkpt lat="44.859049314388415" lon="9.661089440635212"><ele>387.0</ele><time>2026-04-05T08:19:30Z</time></trkpt><trkpt lat="44.85894411668078" lon="9.66116996110117"><ele>387.0</ele><time>2026-04-05T08:19:31Z</time></trkpt><trkpt lat="44.85883341921675" lon="9.661201776716451"><ele>387.40000000000003</ele><time>2026-04-05T08:19:32Z</time></trkpt><trkpt lat="44.85873395477069" lon="9.66125220400874"><ele>387.8</ele><time>2026-04-05T08:19:33Z</time></trkpt><trkpt lat="44.858636984618194" lon="9.661323431767146"><ele>388.2</ele><time>2026-04-05T08:19:34Z</time></trkpt><trkpt lat="44.85853603240477" lon="9.661380052509084"><ele>388.6</ele><time>2026-04-05T08:19:35Z</time></trkpt><trkpt lat="44.85844770972038" lon="9.66143017726731"><ele>389.0</ele><time>2026-04-05T08:19:36Z</time></trkpt><trkpt lat="44.85837540682144" lon="9.661468299659779"><ele>389.0</ele><time>2026-04-05T08:19:37Z</time></trkpt><trkpt lat="44.85831292935072" lon="9.661354472809657"><ele>389.0</ele><time>2026-04-05T08:19:38Z</time></trkpt><trkpt lat="44.858231221337256" lon="9.661293241404316"><ele>389.0</ele><time>2026-04-05T08:19:39Z</time></trkpt><trkpt lat="44.85813861016033" lon="9.661237558594435"><ele>389.0</ele><time>2026-04-05T08:19:40Z</time></trkpt><trkpt lat="44.85804968497063" lon="9.661184224407215"><ele>389.0</ele><time>2026-04-05T08:19:41Z</time></trkpt><trkpt lat="44.85795963239205" lon="9.66119357626265"><ele>389.0</ele><time>2026-04-05T08:19:42Z</time></trkpt><trkpt lat="44.857855600863374" lon="9.661276691099452"><ele>389.0</ele><time>2026-04-05T08:19:43Z</time></trkpt><trkpt lat="44.85772585079745" lon="9.661399125607938"><ele>389.0</ele><time>2026-04-05T08:19:44Z</time></trkpt><trkpt lat="44.857585909045014" lon="9.66148549625511"><ele>389.0</ele><time>2026-04-05T08:19:45Z</time></trkpt><trkpt lat="44.85745810314083" lon="9.661582565366675"><ele>385.25</ele><time>2026-04-05T08:19:46Z</time></trkpt><trkpt lat="44.857332124612455" lon="9.661668336528704"><ele>381.5</ele><time>2026-04-05T08:19:47Z</time></trkpt><trkpt lat="44.85721504409566" lon="9.661735133478178"><ele>377.75</ele><time>2026-04-05T08:19:48Z</time></trkpt><trkpt lat="44.857116848410264" lon="9.661777306348204"><ele>374.0</ele><time>2026-04-05T08:19:49Z</time></trkpt><trkpt lat="44.857024127412615" lon="9.661798962077151"><ele>374.0</ele><time>2026-04-05T08:19:50Z</time></trkpt><trkpt lat="44.85693308103394" lon="9.66180589919689"><ele>374.0</ele><time>2026-04-05T08:19:51Z</time></trkpt><trkpt lat="44.856849562506525" lon="9.6618076951776"><ele>374.0</ele><time>2026-04-05T08:19:52Z</time></trkpt><trkpt lat="44.85677655657693" lon="9.661806467525528"><ele>374.0</ele><time>2026-04-05T08:19:53Z</time></trkpt><trkpt lat="44.8567030314913" lon="9.66180024901541"><ele>374.0</ele><time>2026-04-05T08:19:54Z</time></trkpt><trkpt lat="44.85662980832547" lon="9.661791916585287"><ele>374.0</ele><time>2026-04-05T08:19:55Z</time></trkpt><trkpt lat="44.85655752321024" lon="9.661783917976082"><ele>373.6</ele><time>2026-04-05T08:19:56Z</time></trkpt><trkpt lat="44.85648998633206" lon="9.66177644451482"><ele>373.2</ele><time>2026-04-05T08:19:57Z</time></trkpt><trkpt lat="44.85641218067305" lon="9.66176783472611"><ele>372.8</ele><time>2026-04-05T08:19:58Z</time></trkpt><trkpt lat="44.85631059110741" lon="9.661866884697757"><ele>372.40000000000003</ele><time>2026-04-05T08:19:59Z</time></trkpt><trkpt lat="44.856183221279295" lon="9.661895146225442"><ele>372.0</ele><time>2026-04-05T08:20:00Z</time></trkpt><trkpt lat="44.85605930278303" lon="9.661914389128798"><ele>373.25</ele><time>2026-04-05T08:20:01Z</time></trkpt><trkpt lat="44.855933363649896" lon="9.661897892372712"><ele>374.5</ele><time>2026-04-05T08:20:02Z</time></trkpt><trkpt lat="44.855808336706566" lon="9.661919394575987"><ele>375.75</ele><time>2026-04-05T08:20:03Z</time></trkpt><trkpt lat="44.85569466967134" lon="9.661960859635615"><ele>377.0</ele><time>2026-04-05T08:20:04Z</time></trkpt><trkpt lat="44.85557874759333" lon="9.661955406072998"><ele>377.0</ele><time>2026-04-05T08:20:05Z</time></trkpt><trkpt lat="44.85545921552349" lon="9.661973105633926"><ele>377.0</ele><time>2026-04-05T08:20:06Z</time></trkpt><trkpt lat="44.85533815867462" lon="9.662009133305782"><ele>377.0</ele><time>2026-04-05T08:20:07Z</time></trkpt><trkpt lat="44.85522641041111" lon="9.662031472238118"><ele>377.0</ele><time>2026-04-05T08:20:08Z</time></trkpt><trkpt lat="44.855118109925456" lon="9.662054847292962"><ele>378.40000000000003</ele><time>2026-04-05T08:20:09Z</time></trkpt><trkpt lat="44.85501275742215" lon="9.662064061119821"><ele>379.8</ele><time>2026-04-05T08:20:10Z</time></trkpt><trkpt lat="44.85492087499448" lon="9.662121898919624"><ele>381.2</ele><time>2026-04-05T08:20:11Z</time></trkpt><trkpt lat="44.85483835592722" lon="9.662184066161382"><ele>382.6</ele><time>2026-04-05T08:20:12Z</time></trkpt><trkpt lat="44.85478287259371" lon="9.662285471635103"><ele>384.0</ele><time>2026-04-05T08:20:13Z</time></trkpt><trkpt lat="44.854759129831855" lon="9.662426188173175"><ele>384.0</ele><time>2026-04-05T08:20:14Z</time></trkpt><trkpt lat="44.85473255437698" lon="9.66256223002149"><ele>384.0</ele><time>2026-04-05T08:20:15Z</time></trkpt><trkpt lat="44.85467148739578" lon="9.662644151123983"><ele>384.0</ele><time>2026-04-05T08:20:16Z</time></trkpt><trkpt lat="44.854585333916305" lon="9.662664351891701"><ele>384.0</ele><time>2026-04-05T08:20:17Z</time></trkpt><trkpt lat="44.85449461321416" lon="9.6626220298869"><ele>384.0</ele><time>2026-04-05T08:20:18Z</time></trkpt><trkpt lat="44.854433740534574" lon="9.662490838084874"><ele>384.0</ele><time>2026-04-05T08:20:19Z</time></trkpt><trkpt lat="44.854340400939684" lon="9.662384053142416"><ele>384.0</ele><time>2026-04-05T08:20:20Z</time></trkpt><trkpt lat="44.854243346712536" lon="9.66229763972895"><ele>384.0</ele><time>2026-04-05T08:20:21Z</time></trkpt><trkpt lat="44.85412582526737" lon="9.662270929320549"><ele>384.0</ele><time>2026-04-05T08:20:22Z</time></trkpt><trkpt lat="44.853987493392445" lon="9.66228688948682"><ele>387.0</ele><time>2026-04-05T08:20:23Z</time></trkpt><trkpt lat="44.8538611301554" lon="9.662307316138417"><ele>390.0</ele><time>2026-04-05T08:20:24Z</time></trkpt><trkpt lat="44.853746831926614" lon="9.662310667788429"><ele>393.0</ele><time>2026-04-05T08:20:25Z</time></trkpt><trkpt lat="44.85363557875731" lon="9.66228938799958"><ele>396.0</ele><time>2026-04-05T08:20:26Z</time></trkpt><trkpt lat="44.853517272848094" lon="9.662245433529726"><ele>397.20000000000005</ele><time>2026-04-05T08:20:27Z</time></trkpt><trkpt lat="44.853407944670614" lon="9.66220108077849"><ele>398.40000000000003</ele><time>2026-04-05T08:20:28Z</time></trkpt><trkpt lat="44.85329843771058" lon="9.662163514853981"><ele>399.6</ele><time>2026-04-05T08:20:29Z</time></trkpt><trkpt lat="44.853191763110345" lon="9.6621488451511"><ele>400.8</ele><time>2026-04-05T08:20:30Z</time></trkpt><trkpt lat="44.85307752060267" lon="9.6621731590887"><ele>402.0</ele><time>2026-04-05T08:20:31Z</time></trkpt><trkpt lat="44.85294574033438" lon="9.662234024658998"><ele>402.0</ele><time>2026-04-05T08:20:32Z</time></trkpt><trkpt lat="44.852802462595385" lon="9.662266217493285"><ele>402.0</ele><time>2026-04-05T08:20:33Z</time></trkpt><trkpt lat="44.85267638740843" lon="9.662305476320453"><ele>402.0</ele><time>2026-04-05T08:20:34Z</time></trkpt><trkpt lat="44.85256224163916" lon="9.66232713578676"><ele>402.0</ele><time>2026-04-05T08:20:35Z</time></trkpt><trkpt lat="44.85245452835007" lon="9.662331277897236"><ele>404.0</ele><time>2026-04-05T08:20:36Z</time></trkpt><trkpt lat="44.85234329894102" lon="9.662328393172578"><ele>406.0</ele><time>2026-04-05T08:20:37Z</time></trkpt><trkpt lat="44.852229809502965" lon="9.6623175183519"><ele>408.0</ele><time>2026-04-05T08:20:38Z</time></trkpt><trkpt lat="44.85210412747975" lon="9.662313897582138"><ele>410.0</ele><time>2026-04-05T08:20:39Z</time></trkpt><trkpt lat="44.85198297707619" lon="9.662275806807466"><ele>410.0</ele><time>2026-04-05T08:20:40Z</time></trkpt><trkpt lat="44.85187455128323" lon="9.662238552349072"><ele>410.0</ele><time>2026-04-05T08:20:41Z</time></trkpt><trkpt lat="44.851769165018474" lon="9.662196597886217"><ele>410.0</ele><time>2026-04-05T08:20:42Z</time></trkpt><trkpt lat="44.85166224191136" lon="9.662148045512849"><ele>410.0</ele><time>2026-04-05T08:20:43Z</time></trkpt><trkpt lat="44.85155448339248" lon="9.66210817906295"><ele>410.0</ele><time>2026-04-05T08:20:44Z</time></trkpt><trkpt lat="44.85145306763481" lon="9.662084707008589"><ele>411.4</ele><time>2026-04-05T08:20:45Z</time></trkpt><trkpt lat="44.85135599259818" lon="9.662090740114607"><ele>412.8</ele><time>2026-04-05T08:20:46Z</time></trkpt><trkpt lat="44.85127330808535" lon="9.662146998595535"><ele>414.20000000000005</ele><time>2026-04-05T08:20:47Z</time></trkpt><trkpt lat="44.85121688913967" lon="9.66227469927602"><ele>415.6</ele><time>2026-04-05T08:20:48Z</time></trkpt><trkpt lat="44.85118495997578" lon="9.662461112784031"><ele>417.0</ele><time>2026-04-05T08:20:49Z</time></trkpt><trkpt lat="44.85112284154811" lon="9.662621139264973"><ele>417.0</ele><time>2026-04-05T08:20:50Z</time></trkpt><trkpt lat="44.85105800031801" lon="9.662759460349019"><ele>417.0</ele><time>2026-04-05T08:20:51Z</time></trkpt><trkpt lat="44.850990460977556" lon="9.66287671958123"><ele>417.0</ele><time>2026-04-05T08:20:52Z</time></trkpt><trkpt lat="44.850908238037775" lon="9.66296679605369"><ele>417.0</ele><time>2026-04-05T08:20:53Z</time></trkpt><trkpt lat="44.85080370987922" lon="9.663030553015604"><ele>417.0</ele><time>2026-04-05T08:20:54Z</time></trkpt><trkpt lat="44.8506856991881" lon="9.663071400558549"><ele>418.0</ele><time>2026-04-05T08:20:55Z</time></trkpt><trkpt lat="44.85056202933934" lon="9.663093066770955"><ele>419.0</ele><time>2026-04-05T08:20:56Z</time></trkpt><trkpt lat="44.850428034670145" lon="9.663097562435262"><ele>420.0</ele><time>2026-04-05T08:20:57Z</time></trkpt><trkpt lat="44.85029476997786" lon="9.66311364546817"><ele>421.0</ele><time>2026-04-05T08:20:58Z</time></trkpt><trkpt lat="44.850183364537855" lon="9.663090985076975"><ele>422.0</ele><time>2026-04-05T08:20:59Z</time></trkpt><trkpt lat="44.85010911841493" lon="9.663081136836954"><ele>423.0</ele><time>2026-04-05T08:21:00Z</time></trkpt><trkpt lat="44.850024946193095" lon="9.663061429741198"><ele>424.0</ele><time>2026-04-05T08:21:02Z</time></trkpt><trkpt lat="44.85004948126223" lon="9.662782445792105"><ele>425.0</ele><time>2026-04-05T08:21:05Z</time></trkpt><trkpt lat="44.85007393606445" lon="9.662620394240362"><ele>425.49999999999994</ele><time>2026-04-05T08:21:07Z</time></trkpt><trkpt lat="44.85008534564237" lon="9.662515905118601"><ele>426.0</ele><time>2026-04-05T08:21:08Z</time></trkpt><trkpt lat="44.8501046561611" lon="9.662408596836821"><ele>426.5</ele><time>2026-04-05T08:21:09Z</time></trkpt><trkpt lat="44.850116178664244" lon="9.662307723833377"><ele>427.0</ele><time>2026-04-05T08:21:10Z</time></trkpt><trkpt lat="44.850109895152364" lon="9.662218335227278"><ele>427.49999999999994</ele><time>2026-04-05T08:21:11Z</time></trkpt><trkpt lat="44.85000549348053" lon="9.662086757674981"><ele>428.0</ele><time>2026-04-05T08:21:13Z</time></trkpt><trkpt lat="44.84992414902971" lon="9.661974558365285"><ele>426.2</ele><time>2026-04-05T08:21:14Z</time></trkpt><trkpt lat="44.849864222979406" lon="9.661860585608375"><ele>424.4</ele><time>2026-04-05T08:21:15Z</time></trkpt><trkpt lat="44.84984364189048" lon="9.66177082461613"><ele>422.59999999999997</ele><time>2026-04-05T08:21:16Z</time></trkpt><trkpt lat="44.84981426150121" lon="9.661664538544017"><ele>420.79999999999995</ele><time>2026-04-05T08:21:17Z</time></trkpt><trkpt lat="44.84974504606631" lon="9.661555878248732"><ele>419.0</ele><time>2026-04-05T08:21:18Z</time></trkpt><trkpt lat="44.84966361845982" lon="9.66144885549851"><ele>418.99999999999994</ele><time>2026-04-05T08:21:19Z</time></trkpt><trkpt lat="44.849649889531484" lon="9.661334889579955"><ele>419.0</ele><time>2026-04-05T08:21:20Z</time></trkpt><trkpt lat="44.8496545139533" lon="9.661212821843659"><ele>419.0</ele><time>2026-04-05T08:21:21Z</time></trkpt><trkpt lat="44.84968639528413" lon="9.66106578303021"><ele>419.0</ele><time>2026-04-05T08:21:22Z</time></trkpt><trkpt lat="44.84969176713197" lon="9.660954250036141"><ele>418.99999999999994</ele><time>2026-04-05T08:21:23Z</time></trkpt><trkpt lat="44.84966137941404" lon="9.66085645498706"><ele>419.0</ele><time>2026-04-05T08:21:24Z</time></trkpt><trkpt lat="44.8496063302478" lon="9.660772666272601"><ele>417.4</ele><time>2026-04-05T08:21:25Z</time></trkpt><trkpt lat="44.84955045128861" lon="9.660721121732303"><ele>415.79999999999995</ele><time>2026-04-05T08:21:26Z</time></trkpt><trkpt lat="44.84945639276598" lon="9.660707778988883"><ele>414.20000000000005</ele><time>2026-04-05T08:21:28Z</time></trkpt><trkpt lat="44.84933499344742" lon="9.660771198020996"><ele>412.6</ele><time>2026-04-05T08:21:30Z</time></trkpt><trkpt lat="44.849269813957164" lon="9.660675698104365"><ele>411.0</ele><time>2026-04-05T08:21:32Z</time></trkpt><trkpt lat="44.849266893422126" lon="9.660576221196779"><ele>411.0</ele><time>2026-04-05T08:21:33Z</time></trkpt><trkpt lat="44.84928002907274" lon="9.660479818083418"><ele>411.0</ele><time>2026-04-05T08:21:34Z</time></trkpt><trkpt lat="44.849328805242" lon="9.660383878566606"><ele>411.0</ele><time>2026-04-05T08:21:35Z</time></trkpt><trkpt lat="44.849379524728036" lon="9.66030867511037"><ele>411.0</ele><time>2026-04-05T08:21:37Z</time></trkpt><trkpt lat="44.84931386874879" lon="9.66031372032924"><ele>411.0</ele><time>2026-04-05T08:21:52Z</time></trkpt><trkpt lat="44.84926145304596" lon="9.66025206049438"><ele>411.0</ele><time>2026-04-05T08:21:57Z</time></trkpt><trkpt lat="44.8492129154995" lon="9.660192945088525"><ele>411.0</ele><time>2026-04-05T08:21:59Z</time></trkpt><trkpt lat="44.849122475252095" lon="9.660078999090238"><ele>409.0</ele><time>2026-04-05T08:22:02Z</time></trkpt><trkpt lat="44.84907814766411" lon="9.659995352173894"><ele>407.0</ele><time>2026-04-05T08:22:03Z</time></trkpt><trkpt lat="44.84900152726947" lon="9.659883476832716"><ele>405.0</ele><time>2026-04-05T08:22:05Z</time></trkpt><trkpt lat="44.848910614920605" lon="9.659794203504848"><ele>403.0</ele><time>2026-04-05T08:22:07Z</time></trkpt><trkpt lat="44.84883963841291" lon="9.659750893372031"><ele>401.0</ele><time>2026-04-05T08:22:08Z</time></trkpt><trkpt lat="44.848813778529575" lon="9.65963265348461"><ele>400.99999999999994</ele><time>2026-04-05T08:22:21Z</time></trkpt><trkpt lat="44.848856281872145" lon="9.659565157673306"><ele>401.0</ele><time>2026-04-05T08:22:22Z</time></trkpt><trkpt lat="44.84891948566233" lon="9.65945722694973"><ele>401.0</ele><time>2026-04-05T08:22:23Z</time></trkpt><trkpt lat="44.84897583497624" lon="9.659370080898846"><ele>401.0</ele><time>2026-04-05T08:22:24Z</time></trkpt><trkpt lat="44.849034059383854" lon="9.65928901959088"><ele>400.99999999999994</ele><time>2026-04-05T08:22:25Z</time></trkpt><trkpt lat="44.84910640988252" lon="9.659239356623395"><ele>401.0</ele><time>2026-04-05T08:22:26Z</time></trkpt><trkpt lat="44.84916990118774" lon="9.659209080618542"><ele>400.99999999999994</ele><time>2026-04-05T08:22:27Z</time></trkpt><trkpt lat="44.84924907077207" lon="9.65919359577626"><ele>401.0</ele><time>2026-04-05T08:22:28Z</time></trkpt><trkpt lat="44.849331153875035" lon="9.659185382426024"><ele>401.0</ele><time>2026-04-05T08:22:29Z</time></trkpt><trkpt lat="44.84935764831738" lon="9.659087363971352"><ele>401.0</ele><time>2026-04-05T08:22:31Z</time></trkpt><trkpt lat="44.84935078029607" lon="9.658976564744943"><ele>400.99999999999994</ele><time>2026-04-05T08:22:32Z</time></trkpt><trkpt lat="44.84940291518069" lon="9.658867421668198"><ele>401.0</ele><time>2026-04-05T08:22:33Z</time></trkpt><trkpt lat="44.84944052780833" lon="9.658753219512208"><ele>397.8333333333333</ele><time>2026-04-05T08:22:34Z</time></trkpt><trkpt lat="44.84950635959376" lon="9.658623263837132"><ele>394.66666666666663</ele><time>2026-04-05T08:22:35Z</time></trkpt><trkpt lat="44.849534892484705" lon="9.658479498836645"><ele>391.5</ele><time>2026-04-05T08:22:37Z</time></trkpt><trkpt lat="44.84957766680703" lon="9.658406451830492"><ele>388.3333333333333</ele><time>2026-04-05T08:22:38Z</time></trkpt><trkpt lat="44.84963981544658" lon="9.658324365524194"><ele>385.16666666666663</ele><time>2026-04-05T08:22:39Z</time></trkpt><trkpt lat="44.84969872386551" lon="9.65825206446633"><ele>382.0</ele><time>2026-04-05T08:22:40Z</time></trkpt><trkpt lat="44.84976432983751" lon="9.658159316570758"><ele>381.0</ele><time>2026-04-05T08:22:42Z</time></trkpt><trkpt lat="44.84971819281412" lon="9.658077307687883"><ele>380.0</ele><time>2026-04-05T08:22:44Z</time></trkpt><trkpt lat="44.849659674670995" lon="9.658010665065405"><ele>379.0</ele><time>2026-04-05T08:22:45Z</time></trkpt><trkpt lat="44.849596464121106" lon="9.65781852292524"><ele>378.0</ele><time>2026-04-05T08:22:47Z</time></trkpt><trkpt lat="44.84958200925467" lon="9.657706289348917"><ele>377.0</ele><time>2026-04-05T08:22:48Z</time></trkpt><trkpt lat="44.84959268260407" lon="9.657576723878618"><ele>375.40000000000003</ele><time>2026-04-05T08:22:49Z</time></trkpt><trkpt lat="44.8496058928199" lon="9.65747366230258"><ele>373.8</ele><time>2026-04-05T08:22:50Z</time></trkpt><trkpt lat="44.84964263389796" lon="9.657356136604449"><ele>372.2</ele><time>2026-04-05T08:22:51Z</time></trkpt><trkpt lat="44.849733484651736" lon="9.657308929355866"><ele>370.6</ele><time>2026-04-05T08:22:52Z</time></trkpt><trkpt lat="44.84982373341337" lon="9.657235398005161"><ele>369.0</ele><time>2026-04-05T08:22:53Z</time></trkpt><trkpt lat="44.84989676098506" lon="9.657111046739306"><ele>369.0</ele><time>2026-04-05T08:22:54Z</time></trkpt><trkpt lat="44.84993331175032" lon="9.656997365776018"><ele>369.0</ele><time>2026-04-05T08:22:55Z</time></trkpt><trkpt lat="44.849938626396415" lon="9.656849458487464"><ele>369.0</ele><time>2026-04-05T08:22:56Z</time></trkpt><trkpt lat="44.849949751055505" lon="9.656679363909097"><ele>369.0</ele><time>2026-04-05T08:22:57Z</time></trkpt><trkpt lat="44.849948163264585" lon="9.656547647780668"><ele>369.0</ele><time>2026-04-05T08:22:58Z</time></trkpt><trkpt lat="44.84997129332474" lon="9.656419493489476"><ele>367.6666666666667</ele><time>2026-04-05T08:22:59Z</time></trkpt><trkpt lat="44.850008254257105" lon="9.656277748127016"><ele>366.3333333333333</ele><time>2026-04-05T08:23:01Z</time></trkpt><trkpt lat="44.84995948447836" lon="9.656202680496419"><ele>365.0</ele><time>2026-04-05T08:23:02Z</time></trkpt><trkpt lat="44.84991107041972" lon="9.65613894864151"><ele>363.66666666666663</ele><time>2026-04-05T08:23:03Z</time></trkpt><trkpt lat="44.8498292904712" lon="9.656154861892812"><ele>362.3333333333333</ele><time>2026-04-05T08:23:19Z</time></trkpt><trkpt lat="44.84975483543147" lon="9.656181807495209"><ele>361.0</ele><time>2026-04-05T08:23:20Z</time></trkpt><trkpt lat="44.849647388182014" lon="9.656263076062048"><ele>361.0</ele><time>2026-04-05T08:23:22Z</time></trkpt><trkpt lat="44.849537731803096" lon="9.65629614715189"><ele>361.0</ele><time>2026-04-05T08:23:24Z</time></trkpt><trkpt lat="44.849420701353694" lon="9.65634227537446"><ele>361.0</ele><time>2026-04-05T08:23:26Z</time></trkpt><trkpt lat="44.849352041648366" lon="9.656313025474965"><ele>361.0</ele><time>2026-04-05T08:23:27Z</time></trkpt><trkpt lat="44.84925948412907" lon="9.65616865735592"><ele>361.0</ele><time>2026-04-05T08:23:29Z</time></trkpt><trkpt lat="44.84919161980505" lon="9.65605759339369"><ele>360.16666666666663</ele><time>2026-04-05T08:23:30Z</time></trkpt><trkpt lat="44.8491354952183" lon="9.655929831167962"><ele>359.3333333333333</ele><time>2026-04-05T08:23:31Z</time></trkpt><trkpt lat="44.849071994317526" lon="9.655863106372145"><ele>358.5</ele><time>2026-04-05T08:23:32Z</time></trkpt><trkpt lat="44.84900778333742" lon="9.655847719026726"><ele>357.6666666666667</ele><time>2026-04-05T08:23:33Z</time></trkpt><trkpt lat="44.84894319584997" lon="9.655841000904994"><ele>356.83333333333337</ele><time>2026-04-05T08:23:36Z</time></trkpt><trkpt lat="44.84887944699079" lon="9.655885531153432"><ele>356.0</ele><time>2026-04-05T08:23:38Z</time></trkpt><trkpt lat="44.848818914681196" lon="9.655993528288704"><ele>356.0</ele><time>2026-04-05T08:23:40Z</time></trkpt><trkpt lat="44.848757706265324" lon="9.656045719505125"><ele>356.0</ele><time>2026-04-05T08:24:11Z</time></trkpt><trkpt lat="44.84866863164731" lon="9.656046040989162"><ele>356.0</ele><time>2026-04-05T08:24:13Z</time></trkpt><trkpt lat="44.84853428913422" lon="9.656067178531016"><ele>356.0</ele><time>2026-04-05T08:24:15Z</time></trkpt><trkpt lat="44.84846780135494" lon="9.656110924167665"><ele>356.0</ele><time>2026-04-05T08:24:16Z</time></trkpt><trkpt lat="44.8484079188188" lon="9.65619537483133"><ele>359.5</ele><time>2026-04-05T08:24:17Z</time></trkpt><trkpt lat="44.84835607819345" lon="9.656276770424483"><ele>363.0</ele><time>2026-04-05T08:24:18Z</time></trkpt><trkpt lat="44.8483027131708" lon="9.656357818170566"><ele>366.5</ele><time>2026-04-05T08:24:19Z</time></trkpt><trkpt lat="44.848236322870996" lon="9.656468272768384"><ele>370.0</ele><time>2026-04-05T08:24:20Z</time></trkpt><trkpt lat="44.84820104828144" lon="9.65654359395941"><ele>373.5</ele><time>2026-04-05T08:24:21Z</time></trkpt><trkpt lat="44.84817844253968" lon="9.656672637491178"><ele>377.0</ele><time>2026-04-05T08:24:23Z</time></trkpt><trkpt lat="44.848065323353225" lon="9.656725987909299"><ele>377.0</ele><time>2026-04-05T08:24:25Z</time></trkpt><trkpt lat="44.84793618169131" lon="9.65685910630944"><ele>377.0</ele><time>2026-04-05T08:24:27Z</time></trkpt><trkpt lat="44.847841825503735" lon="9.656970921384492"><ele>377.0</ele><time>2026-04-05T08:24:28Z</time></trkpt><trkpt lat="44.847762822111235" lon="9.657061644207744"><ele>377.0</ele><time>2026-04-05T08:24:29Z</time></trkpt><trkpt lat="44.847686050310614" lon="9.657163095586753"><ele>381.40000000000003</ele><time>2026-04-05T08:24:30Z</time></trkpt><trkpt lat="44.847625194782914" lon="9.65728380105336"><ele>385.8</ele><time>2026-04-05T08:24:31Z</time></trkpt><trkpt lat="44.84755194181792" lon="9.657393747370431"><ele>390.2</ele><time>2026-04-05T08:24:32Z</time></trkpt><trkpt lat="44.84748110695973" lon="9.65745774397072"><ele>394.6</ele><time>2026-04-05T08:24:33Z</time></trkpt><trkpt lat="44.84738673591726" lon="9.657517358174633"><ele>399.0</ele><time>2026-04-05T08:24:34Z</time></trkpt><trkpt lat="44.84728493085228" lon="9.657605540473092"><ele>399.0</ele><time>2026-04-05T08:24:35Z</time></trkpt><trkpt lat="44.847202483697686" lon="9.657600835728598"><ele>399.0</ele><time>2026-04-05T08:24:37Z</time></trkpt><trkpt lat="44.84715877277133" lon="9.657508129050814"><ele>399.0</ele><time>2026-04-05T08:24:38Z</time></trkpt><trkpt lat="44.84706251704081" lon="9.65744764185496"><ele>399.0</ele><time>2026-04-05T08:24:39Z</time></trkpt><trkpt lat="44.84696750223349" lon="9.657456045605445"><ele>399.0</ele><time>2026-04-05T08:24:40Z</time></trkpt><trkpt lat="44.846884106204556" lon="9.65739141791587"><ele>399.0</ele><time>2026-04-05T08:24:42Z</time></trkpt><trkpt lat="44.84687060991676" lon="9.657243210029671"><ele>399.0</ele><time>2026-04-05T08:24:44Z</time></trkpt><trkpt lat="44.84682353890994" lon="9.657136141022763"><ele>399.0</ele><time>2026-04-05T08:24:50Z</time></trkpt><trkpt lat="44.84678410230283" lon="9.657057803511208"><ele>399.0</ele><time>2026-04-05T08:24:52Z</time></trkpt><trkpt lat="44.84673345727204" lon="9.656942367308323"><ele>399.0</ele><time>2026-04-05T08:24:54Z</time></trkpt><trkpt lat="44.846692575868374" lon="9.656852039529998"><ele>399.0</ele><time>2026-04-05T08:24:55Z</time></trkpt><trkpt lat="44.84665821290191" lon="9.656738325158212"><ele>399.8333333333333</ele><time>2026-04-05T08:24:57Z</time></trkpt><trkpt lat="44.84663171385663" lon="9.65661257622017"><ele>400.66666666666663</ele><time>2026-04-05T08:24:59Z</time></trkpt><trkpt lat="44.84663156640016" lon="9.656522136805581"><ele>401.5</ele><time>2026-04-05T08:25:00Z</time></trkpt><trkpt lat="44.84666037604665" lon="9.656395364508493"><ele>402.3333333333333</ele><time>2026-04-05T08:25:01Z</time></trkpt><trkpt lat="44.846701530421605" lon="9.656296919741878"><ele>403.16666666666663</ele><time>2026-04-05T08:25:02Z</time></trkpt><trkpt lat="44.846740716173635" lon="9.656181825740132"><ele>404.0</ele><time>2026-04-05T08:25:03Z</time></trkpt><trkpt lat="44.8467842977699" lon="9.65606573287494"><ele>400.0</ele><time>2026-04-05T08:25:04Z</time></trkpt><trkpt lat="44.84683474574392" lon="9.655942029556927"><ele>396.0</ele><time>2026-04-05T08:25:05Z</time></trkpt><trkpt lat="44.84688023683357" lon="9.655832870454047"><ele>392.0</ele><time>2026-04-05T08:25:06Z</time></trkpt><trkpt lat="44.84692887193643" lon="9.655731202137025"><ele>388.0</ele><time>2026-04-05T08:25:07Z</time></trkpt><trkpt lat="44.84697591881794" lon="9.655620091412786"><ele>384.0</ele><time>2026-04-05T08:25:08Z</time></trkpt><trkpt lat="44.84703055155492" lon="9.655508610775854"><ele>384.0</ele><time>2026-04-05T08:25:09Z</time></trkpt><trkpt lat="44.84708129232979" lon="9.655387937074552"><ele>384.0</ele><time>2026-04-05T08:25:10Z</time></trkpt><trkpt lat="44.84713117318682" lon="9.655253150712074"><ele>384.0</ele><time>2026-04-05T08:25:11Z</time></trkpt><trkpt lat="44.847175300821085" lon="9.655125197772477"><ele>384.0</ele><time>2026-04-05T08:25:12Z</time></trkpt><trkpt lat="44.84721432452465" lon="9.654990929078933"><ele>384.0</ele><time>2026-04-05T08:25:13Z</time></trkpt><trkpt lat="44.84726265931261" lon="9.654827964370316"><ele>383.0</ele><time>2026-04-05T08:25:14Z</time></trkpt><trkpt lat="44.84726428558091" lon="9.654738993743601"><ele>382.0</ele><time>2026-04-05T08:25:15Z</time></trkpt><trkpt lat="44.84716978870535" lon="9.654611148743928"><ele>381.0</ele><time>2026-04-05T08:25:17Z</time></trkpt><trkpt lat="44.84711680455439" lon="9.65451585969833"><ele>380.0</ele><time>2026-04-05T08:25:18Z</time></trkpt><trkpt lat="44.84709743006028" lon="9.654427945316542"><ele>379.0</ele><time>2026-04-05T08:25:19Z</time></trkpt><trkpt lat="44.84709480337427" lon="9.654325933225564"><ele>378.0</ele><time>2026-04-05T08:25:20Z</time></trkpt><trkpt lat="44.84710805878698" lon="9.654215638413191"><ele>376.0</ele><time>2026-04-05T08:25:21Z</time></trkpt><trkpt lat="44.84713161681896" lon="9.65411075191286"><ele>374.0</ele><time>2026-04-05T08:25:22Z</time></trkpt><trkpt lat="44.84716569460814" lon="9.654006550032767"><ele>372.0</ele><time>2026-04-05T08:25:23Z</time></trkpt><trkpt lat="44.84720370639679" lon="9.653914554479583"><ele>370.0</ele><time>2026-04-05T08:25:24Z</time></trkpt><trkpt lat="44.84724861110845" lon="9.65382811316622"><ele>368.0</ele><time>2026-04-05T08:25:25Z</time></trkpt><trkpt lat="44.84728369015415" lon="9.653744258950043"><ele>366.0</ele><time>2026-04-05T08:25:26Z</time></trkpt><trkpt lat="44.847337076283345" lon="9.653627078317252"><ele>363.8333333333333</ele><time>2026-04-05T08:25:28Z</time></trkpt><trkpt lat="44.84736275700774" lon="9.653545119604374"><ele>361.6666666666667</ele><time>2026-04-05T08:25:32Z</time></trkpt><trkpt lat="44.84736206093599" lon="9.653455342289499"><ele>359.5</ele><time>2026-04-05T08:25:38Z</time></trkpt><trkpt lat="44.84738351804405" lon="9.653363501475225"><ele>357.33333333333337</ele><time>2026-04-05T08:25:42Z</time></trkpt><trkpt lat="44.847445091160644" lon="9.653258059992407"><ele>355.1666666666667</ele><time>2026-04-05T08:25:46Z</time></trkpt><trkpt lat="44.8475097593144" lon="9.653157146908365"><ele>353.0</ele><time>2026-04-05T08:25:48Z</time></trkpt><trkpt lat="44.84756476652643" lon="9.653072754060243"><ele>351.0</ele><time>2026-04-05T08:25:54Z</time></trkpt><trkpt lat="44.84765214880485" lon="9.65296793388262"><ele>349.0</ele><time>2026-04-05T08:25:56Z</time></trkpt><trkpt lat="44.84771640620872" lon="9.652903098241541"><ele>347.0</ele><time>2026-04-05T08:25:57Z</time></trkpt><trkpt lat="44.8477693559888" lon="9.652848627032318"><ele>345.0</ele><time>2026-04-05T08:25:58Z</time></trkpt><trkpt lat="44.84773336606443" lon="9.652953142132194"><ele>343.0</ele><time>2026-04-05T08:27:00Z</time></trkpt><trkpt lat="44.847684621061426" lon="9.65302379247653"><ele>341.0</ele><time>2026-04-05T08:27:01Z</time></trkpt><trkpt lat="44.84762762901272" lon="9.653133850596223"><ele>343.0</ele><time>2026-04-05T08:27:02Z</time></trkpt><trkpt lat="44.84759955183251" lon="9.653262169917207"><ele>345.0</ele><time>2026-04-05T08:27:04Z</time></trkpt><trkpt lat="44.84753097511642" lon="9.653263854839816"><ele>347.0</ele><time>2026-04-05T08:27:10Z</time></trkpt><trkpt lat="44.84750064294067" lon="9.653163191652778"><ele>349.0</ele><time>2026-04-05T08:27:12Z</time></trkpt><trkpt lat="44.84751144077971" lon="9.6530402033559"><ele>351.0</ele><time>2026-04-05T08:27:14Z</time></trkpt><trkpt lat="44.84753789938699" lon="9.652901651426413"><ele>353.0</ele><time>2026-04-05T08:27:16Z</time></trkpt><trkpt lat="44.84757857337405" lon="9.652808294707187"><ele>351.0</ele><time>2026-04-05T08:27:18Z</time></trkpt><trkpt lat="44.8476683330146" lon="9.652785828947703"><ele>349.0</ele><time>2026-04-05T08:27:21Z</time></trkpt><trkpt lat="44.84773774700587" lon="9.652827446767425"><ele>347.0</ele><time>2026-04-05T08:27:23Z</time></trkpt><trkpt lat="44.8478039886709" lon="9.652798181250082"><ele>345.0</ele><time>2026-04-05T08:27:26Z</time></trkpt><trkpt lat="44.84774879577565" lon="9.65289699869656"><ele>343.0</ele><time>2026-04-05T08:27:38Z</time></trkpt><trkpt lat="44.84769203924499" lon="9.652962260112474"><ele>341.0</ele><time>2026-04-05T08:27:39Z</time></trkpt><trkpt lat="44.8476276520503" lon="9.653044728718925"><ele>341.0</ele><time>2026-04-05T08:27:41Z</time></trkpt><trkpt lat="44.84753738721002" lon="9.653203393568266"><ele>341.0</ele><time>2026-04-05T08:27:43Z</time></trkpt><trkpt lat="44.84758888413095" lon="9.653280094419488"><ele>341.0</ele><time>2026-04-05T08:28:03Z</time></trkpt><trkpt lat="44.84766177147937" lon="9.653248620159156"><ele>341.0</ele><time>2026-04-05T08:28:05Z</time></trkpt><trkpt lat="44.84759725340245" lon="9.65323087987675"><ele>341.0</ele><time>2026-04-05T08:28:19Z</time></trkpt><trkpt lat="44.847533757524104" lon="9.653188594669134"><ele>341.0</ele><time>2026-04-05T08:28:22Z</time></trkpt><trkpt lat="44.84751920742077" lon="9.653046630806445"><ele>341.0</ele><time>2026-04-05T08:29:23Z</time></trkpt><trkpt lat="44.84751888170431" lon="9.65293324079735"><ele>341.0</ele><time>2026-04-05T08:29:25Z</time></trkpt><trkpt lat="44.84756121149066" lon="9.652837139766877"><ele>341.0</ele><time>2026-04-05T08:29:27Z</time></trkpt><trkpt lat="44.84762037081611" lon="9.652785895065417"><ele>341.0</ele><time>2026-04-05T08:29:29Z</time></trkpt><trkpt lat="44.847699021899956" lon="9.652808084647043"><ele>341.0</ele><time>2026-04-05T08:29:31Z</time></trkpt><trkpt lat="44.847771342898255" lon="9.652861459292144"><ele>341.0</ele><time>2026-04-05T08:29:33Z</time></trkpt><trkpt lat="44.84782540516265" lon="9.652811266529511"><ele>341.0</ele><time>2026-04-05T08:29:36Z</time></trkpt><trkpt lat="44.847773438863754" lon="9.652893084467204"><ele>341.0</ele><time>2026-04-05T08:29:40Z</time></trkpt><trkpt lat="44.8476867427392" lon="9.652949868909241"><ele>341.0</ele><time>2026-04-05T08:29:41Z</time></trkpt><trkpt lat="44.847599553020736" lon="9.653032143550748"><ele>341.0</ele><time>2026-04-05T08:29:42Z</time></trkpt><trkpt lat="44.84754699449042" lon="9.653104547422632"><ele>341.0</ele><time>2026-04-05T08:29:43Z</time></trkpt><trkpt lat="44.84748573860444" lon="9.653210205621987"><ele>341.0</ele><time>2026-04-05T08:29:45Z</time></trkpt><trkpt lat="44.84743782914779" lon="9.653291315077254"><ele>343.0</ele><time>2026-04-05T08:29:46Z</time></trkpt><trkpt lat="44.84739476388104" lon="9.653356848295536"><ele>345.0</ele><time>2026-04-05T08:29:49Z</time></trkpt><trkpt lat="44.84736928903568" lon="9.653460721464855"><ele>347.0</ele><time>2026-04-05T08:29:54Z</time></trkpt><trkpt lat="44.84733694068255" lon="9.653581953281273"><ele>349.0</ele><time>2026-04-05T08:29:57Z</time></trkpt><trkpt lat="44.84738926157415" lon="9.653637025027505"><ele>351.0</ele><time>2026-04-05T08:30:00Z</time></trkpt><trkpt lat="44.8473708190757" lon="9.653521259924332"><ele>353.0</ele><time>2026-04-05T08:30:03Z</time></trkpt><trkpt lat="44.847367591645195" lon="9.653401126086642"><ele>353.0</ele><time>2026-04-05T08:30:06Z</time></trkpt><trkpt lat="44.84737297402251" lon="9.653278527789123"><ele>353.0</ele><time>2026-04-05T08:30:09Z</time></trkpt><trkpt lat="44.84737689403653" lon="9.653098926207656"><ele>353.0</ele><time>2026-04-05T08:30:11Z</time></trkpt><trkpt lat="44.84737492260862" lon="9.652993888019296"><ele>353.0</ele><time>2026-04-05T08:30:13Z</time></trkpt><trkpt lat="44.8474359982728" lon="9.652941910213183"><ele>353.0</ele><time>2026-04-05T08:30:16Z</time></trkpt><trkpt lat="44.847511750200205" lon="9.652962259895265"><ele>353.0</ele><time>2026-04-05T08:30:17.999Z</time></trkpt><trkpt lat="44.84756540674947" lon="9.652839628507097"><ele>351.0</ele><time>2026-04-05T08:30:31Z</time></trkpt><trkpt lat="44.847645728747736" lon="9.652800722685223"><ele>349.0</ele><time>2026-04-05T08:30:33Z</time></trkpt><trkpt lat="44.847759261925866" lon="9.652837200195853"><ele>347.0</ele><time>2026-04-05T08:30:35Z</time></trkpt><trkpt lat="44.84777720643329" lon="9.65295493903304"><ele>345.0</ele><time>2026-04-05T08:30:39Z</time></trkpt><trkpt lat="44.84783198982679" lon="9.652898405351955"><ele>343.0</ele><time>2026-04-05T08:30:44Z</time></trkpt><trkpt lat="44.84774974481829" lon="9.652901052673148"><ele>341.0</ele><time>2026-04-05T08:35:21Z</time></trkpt><trkpt lat="44.84768224165933" lon="9.652972996313661"><ele>343.0</ele><time>2026-04-05T08:35:22Z</time></trkpt><trkpt lat="44.84760140310851" lon="9.653055878194827"><ele>345.0</ele><time>2026-04-05T08:35:23Z</time></trkpt><trkpt lat="44.84753856626889" lon="9.653144523758428"><ele>347.0</ele><time>2026-04-05T08:35:25Z</time></trkpt><trkpt lat="44.8474997017122" lon="9.65322032649134"><ele>349.0</ele><time>2026-04-05T08:35:27Z</time></trkpt><trkpt lat="44.847436658874486" lon="9.653293777809914"><ele>351.0</ele><time>2026-04-05T08:35:29Z</time></trkpt><trkpt lat="44.847398050855624" lon="9.653383947550351"><ele>353.0</ele><time>2026-04-05T08:35:36Z</time></trkpt><trkpt lat="44.84739753662672" lon="9.65350233068034"><ele>353.0</ele><time>2026-04-05T08:35:39Z</time></trkpt><trkpt lat="44.84738210956122" lon="9.653595875119574"><ele>353.0</ele><time>2026-04-05T08:35:40Z</time></trkpt><trkpt lat="44.84735005651258" lon="9.6536920781248"><ele>353.0</ele><time>2026-04-05T08:35:41Z</time></trkpt><trkpt lat="44.84728323474569" lon="9.65378079592645"><ele>353.0</ele><time>2026-04-05T08:35:42Z</time></trkpt><trkpt lat="44.84718770283054" lon="9.653928717795912"><ele>353.0</ele><time>2026-04-05T08:35:43Z</time></trkpt><trkpt lat="44.8471009686466" lon="9.654097262250922"><ele>355.59999999999997</ele><time>2026-04-05T08:35:44Z</time></trkpt><trkpt lat="44.84704754816549" lon="9.654259181218599"><ele>358.2</ele><time>2026-04-05T08:35:45Z</time></trkpt><trkpt lat="44.84702554664437" lon="9.654376501448208"><ele>360.8</ele><time>2026-04-05T08:35:46Z</time></trkpt><trkpt lat="44.84701676114521" lon="9.654474824117191"><ele>363.4</ele><time>2026-04-05T08:35:47Z</time></trkpt><trkpt lat="44.84709748346736" lon="9.654640916636083"><ele>366.0</ele><time>2026-04-05T08:35:49Z</time></trkpt><trkpt lat="44.84718210479178" lon="9.6547627559342"><ele>368.4</ele><time>2026-04-05T08:35:50Z</time></trkpt><trkpt lat="44.84724571644955" lon="9.65486391354577"><ele>370.8</ele><time>2026-04-05T08:35:51Z</time></trkpt><trkpt lat="44.847204837464815" lon="9.655005559735027"><ele>373.2</ele><time>2026-04-05T08:35:54Z</time></trkpt><trkpt lat="44.84715421589974" lon="9.65516596668395"><ele>375.59999999999997</ele><time>2026-04-05T08:35:56Z</time></trkpt><trkpt lat="44.84712382295879" lon="9.655301734700746"><ele>378.0</ele><time>2026-04-05T08:35:57Z</time></trkpt><trkpt lat="44.84703869633351" lon="9.655462845286397"><ele>379.2</ele><time>2026-04-05T08:35:58Z</time></trkpt><trkpt lat="44.84702874923448" lon="9.655582711512963"><ele>380.4</ele><time>2026-04-05T08:35:59Z</time></trkpt><trkpt lat="44.847001358311005" lon="9.655713857432781"><ele>381.59999999999997</ele><time>2026-04-05T08:36:00Z</time></trkpt><trkpt lat="44.846942155178226" lon="9.655839861029394"><ele>382.79999999999995</ele><time>2026-04-05T08:36:01Z</time></trkpt><trkpt lat="44.846907003864374" lon="9.655968764146145"><ele>384.0</ele><time>2026-04-05T08:36:02Z</time></trkpt><trkpt lat="44.84690030714124" lon="9.656062130885113"><ele>385.1666666666667</ele><time>2026-04-05T08:36:03Z</time></trkpt><trkpt lat="44.84687021635522" lon="9.65614105464142"><ele>386.33333333333337</ele><time>2026-04-05T08:36:04Z</time></trkpt><trkpt lat="44.84681835034763" lon="9.656211092761978"><ele>387.5</ele><time>2026-04-05T08:36:05Z</time></trkpt><trkpt lat="44.84673927253784" lon="9.656295092287428"><ele>388.6666666666667</ele><time>2026-04-05T08:36:06Z</time></trkpt><trkpt lat="44.84671666787981" lon="9.656398898306037"><ele>389.83333333333337</ele><time>2026-04-05T08:36:07Z</time></trkpt><trkpt lat="44.846710783720326" lon="9.656523281166292"><ele>391.0</ele><time>2026-04-05T08:36:07.999Z</time></trkpt><trkpt lat="44.84669253230603" lon="9.656664018819797"><ele>393.6</ele><time>2026-04-05T08:36:08.999Z</time></trkpt><trkpt lat="44.84666657844909" lon="9.656823100812037"><ele>396.20000000000005</ele><time>2026-04-05T08:36:09.999Z</time></trkpt><trkpt lat="44.84664389815606" lon="9.656961250015488"><ele>398.79999999999995</ele><time>2026-04-05T08:36:10.999Z</time></trkpt><trkpt lat="44.846630676412765" lon="9.657081788654434"><ele>401.4</ele><time>2026-04-05T08:36:11.999Z</time></trkpt><trkpt lat="44.846621087159676" lon="9.657244039716112"><ele>404.0</ele><time>2026-04-05T08:36:12.999Z</time></trkpt><trkpt lat="44.84659547057529" lon="9.657396960183105"><ele>405.3333333333333</ele><time>2026-04-05T08:36:13.999Z</time></trkpt><trkpt lat="44.84655239436852" lon="9.65753130015376"><ele>406.66666666666663</ele><time>2026-04-05T08:36:14.999Z</time></trkpt><trkpt lat="44.84652094372768" lon="9.657641309991057"><ele>408.0</ele><time>2026-04-05T08:36:15.999Z</time></trkpt><trkpt lat="44.84650039794472" lon="9.657729371263315"><ele>409.33333333333337</ele><time>2026-04-05T08:36:16.999Z</time></trkpt><trkpt lat="44.84647763878782" lon="9.657850432759195"><ele>410.6666666666667</ele><time>2026-04-05T08:36:17.999Z</time></trkpt><trkpt lat="44.846461075478985" lon="9.65797968083059"><ele>412.0</ele><time>2026-04-05T08:36:18.999Z</time></trkpt><trkpt lat="44.846449290959754" lon="9.658069163668596"><ele>412.8</ele><time>2026-04-05T08:36:19.999Z</time></trkpt><trkpt lat="44.846392542821796" lon="9.658188597938198"><ele>413.6</ele><time>2026-04-05T08:36:21.999Z</time></trkpt><trkpt lat="44.84631545090229" lon="9.65820589142731"><ele>414.40000000000003</ele><time>2026-04-05T08:36:22.999Z</time></trkpt><trkpt lat="44.846216093062345" lon="9.658194889336498"><ele>415.20000000000005</ele><time>2026-04-05T08:36:23.999Z</time></trkpt><trkpt lat="44.84610051039451" lon="9.658158044681995"><ele>416.0</ele><time>2026-04-05T08:36:24.999Z</time></trkpt><trkpt lat="44.84597716773555" lon="9.658093223960211"><ele>418.8</ele><time>2026-04-05T08:36:25.999Z</time></trkpt><trkpt lat="44.84587118151299" lon="9.658002080971718"><ele>421.6</ele><time>2026-04-05T08:36:26.999Z</time></trkpt><trkpt lat="44.84579554878282" lon="9.657915164638274"><ele>424.4</ele><time>2026-04-05T08:36:27.999Z</time></trkpt><trkpt lat="44.845737629438624" lon="9.65785383133964"><ele>427.2</ele><time>2026-04-05T08:36:28.999Z</time></trkpt><trkpt lat="44.84567243761076" lon="9.657831829648044"><ele>430.0</ele><time>2026-04-05T08:36:29.999Z</time></trkpt><trkpt lat="44.84556470734959" lon="9.657834242982265"><ele>430.0</ele><time>2026-04-05T08:36:30.999Z</time></trkpt><trkpt lat="44.8454346892301" lon="9.65783395871837"><ele>430.0</ele><time>2026-04-05T08:36:31.999Z</time></trkpt><trkpt lat="44.84531857782011" lon="9.65783249677197"><ele>430.0</ele><time>2026-04-05T08:36:32.999Z</time></trkpt><trkpt lat="44.845218178269405" lon="9.657827091373143"><ele>430.0</ele><time>2026-04-05T08:36:33.999Z</time></trkpt><trkpt lat="44.84511993602721" lon="9.657820379378942"><ele>430.0</ele><time>2026-04-05T08:36:34.999Z</time></trkpt><trkpt lat="44.84502603033077" lon="9.657800012779685"><ele>431.2</ele><time>2026-04-05T08:36:35.999Z</time></trkpt><trkpt lat="44.84493445116811" lon="9.657795235259403"><ele>432.4</ele><time>2026-04-05T08:36:36.999Z</time></trkpt><trkpt lat="44.84486888861918" lon="9.657801441969482"><ele>433.6</ele><time>2026-04-05T08:36:37.999Z</time></trkpt><trkpt lat="44.844753851987775" lon="9.657810637715922"><ele>434.8</ele><time>2026-04-05T08:36:39Z</time></trkpt><trkpt lat="44.844628006012364" lon="9.657827987096695"><ele>436.0</ele><time>2026-04-05T08:36:40Z</time></trkpt><trkpt lat="44.84451982242773" lon="9.657845881461553"><ele>436.0</ele><time>2026-04-05T08:36:41Z</time></trkpt><trkpt lat="44.84441073278457" lon="9.657858961957649"><ele>436.0</ele><time>2026-04-05T08:36:42Z</time></trkpt><trkpt lat="44.84429083959143" lon="9.657875973459955"><ele>436.0</ele><time>2026-04-05T08:36:43Z</time></trkpt><trkpt lat="44.844174202491644" lon="9.657890620259277"><ele>436.0</ele><time>2026-04-05T08:36:44Z</time></trkpt><trkpt lat="44.84403276770443" lon="9.657914671906697"><ele>437.6</ele><time>2026-04-05T08:36:45Z</time></trkpt><trkpt lat="44.84390337811595" lon="9.657915829891145"><ele>439.20000000000005</ele><time>2026-04-05T08:36:46Z</time></trkpt><trkpt lat="44.843787747399844" lon="9.657898227595789"><ele>440.79999999999995</ele><time>2026-04-05T08:36:47Z</time></trkpt><trkpt lat="44.84368588229756" lon="9.657865098500785"><ele>442.4</ele><time>2026-04-05T08:36:48Z</time></trkpt><trkpt lat="44.84359621504662" lon="9.65783284821699"><ele>444.0</ele><time>2026-04-05T08:36:49Z</time></trkpt><trkpt lat="44.84351858965921" lon="9.657813771543065"><ele>445.2</ele><time>2026-04-05T08:36:50Z</time></trkpt><trkpt lat="44.84343679165916" lon="9.657842563225694"><ele>446.4</ele><time>2026-04-05T08:36:52Z</time></trkpt><trkpt lat="44.8434333969279" lon="9.657979756171136"><ele>447.6</ele><time>2026-04-05T08:36:54Z</time></trkpt><trkpt lat="44.84343852315389" lon="9.658129780378767"><ele>448.8</ele><time>2026-04-05T08:36:56Z</time></trkpt><trkpt lat="44.84341866661141" lon="9.65828302049583"><ele>450.0</ele><time>2026-04-05T08:36:58Z</time></trkpt><trkpt lat="44.84341502094569" lon="9.658417096240202"><ele>450.0</ele><time>2026-04-05T08:37:00Z</time></trkpt><trkpt lat="44.84340839063758" lon="9.658508705159933"><ele>450.0</ele><time>2026-04-05T08:37:03Z</time></trkpt><trkpt lat="44.843396932195944" lon="9.658596138391056"><ele>450.0</ele><time>2026-04-05T08:37:05Z</time></trkpt><trkpt lat="44.843411715887044" lon="9.658704020190209"><ele>450.0</ele><time>2026-04-05T08:37:08Z</time></trkpt><trkpt lat="44.843428853726074" lon="9.658800122004376"><ele>450.0</ele><time>2026-04-05T08:37:10Z</time></trkpt><trkpt lat="44.84347812103724" lon="9.658954525964116"><ele>450.0</ele><time>2026-04-05T08:37:12Z</time></trkpt><trkpt lat="44.843502638153865" lon="9.65911133847789"><ele>450.1666666666667</ele><time>2026-04-05T08:37:14Z</time></trkpt><trkpt lat="44.84351515559355" lon="9.659243920534006"><ele>450.33333333333337</ele><time>2026-04-05T08:37:16Z</time></trkpt><trkpt lat="44.84351318602673" lon="9.659372180624867"><ele>450.5</ele><time>2026-04-05T08:37:18Z</time></trkpt><trkpt lat="44.84348394365638" lon="9.659510476676001"><ele>450.6666666666667</ele><time>2026-04-05T08:37:20Z</time></trkpt><trkpt lat="44.8434301520143" lon="9.659557141319965"><ele>450.83333333333337</ele><time>2026-04-05T08:37:22Z</time></trkpt><trkpt lat="44.84334865573161" lon="9.659550899765852"><ele>451.0</ele><time>2026-04-05T08:37:24Z</time></trkpt><trkpt lat="44.84326616470674" lon="9.659525688434538"><ele>451.20000000000005</ele><time>2026-04-05T08:37:26Z</time></trkpt><trkpt lat="44.843149358941666" lon="9.65946914050248"><ele>451.40000000000003</ele><time>2026-04-05T08:37:28Z</time></trkpt><trkpt lat="44.84307641544113" lon="9.659407174783611"><ele>451.6</ele><time>2026-04-05T08:37:29Z</time></trkpt><trkpt lat="44.842987313503734" lon="9.659389742997716"><ele>451.8</ele><time>2026-04-05T08:37:30Z</time></trkpt><trkpt lat="44.8428965161559" lon="9.65931971584269"><ele>452.0</ele><time>2026-04-05T08:37:31Z</time></trkpt><trkpt lat="44.84279564488202" lon="9.659269197118064"><ele>453.0</ele><time>2026-04-05T08:37:32Z</time></trkpt><trkpt lat="44.84271576281598" lon="9.65922919028783"><ele>454.00000000000006</ele><time>2026-04-05T08:37:33Z</time></trkpt><trkpt lat="44.842628283328644" lon="9.659185378400434"><ele>455.00000000000006</ele><time>2026-04-05T08:37:34Z</time></trkpt><trkpt lat="44.84252809958503" lon="9.659163992139456"><ele>456.0</ele><time>2026-04-05T08:37:35Z</time></trkpt><trkpt lat="44.842424853352114" lon="9.659113159195511"><ele>457.0</ele><time>2026-04-05T08:37:36Z</time></trkpt><trkpt lat="44.84231319680287" lon="9.659061675380663"><ele>460.0</ele><time>2026-04-05T08:37:37Z</time></trkpt><trkpt lat="44.84218994570872" lon="9.659012300920086"><ele>463.0</ele><time>2026-04-05T08:37:38Z</time></trkpt><trkpt lat="44.84206848549568" lon="9.658969575971582"><ele>466.0</ele><time>2026-04-05T08:37:39Z</time></trkpt><trkpt lat="44.84195110626346" lon="9.658929215546504"><ele>469.0</ele><time>2026-04-05T08:37:40Z</time></trkpt><trkpt lat="44.84183918492375" lon="9.658894774563445"><ele>471.2</ele><time>2026-04-05T08:37:41Z</time></trkpt><trkpt lat="44.84172752245322" lon="9.65886297000341"><ele>473.4</ele><time>2026-04-05T08:37:42Z</time></trkpt><trkpt lat="44.84162035938552" lon="9.658832463103366"><ele>475.6</ele><time>2026-04-05T08:37:43Z</time></trkpt><trkpt lat="44.84151538942737" lon="9.658808251088166"><ele>477.8</ele><time>2026-04-05T08:37:44Z</time></trkpt><trkpt lat="44.84140953425104" lon="9.65878684876447"><ele>480.0</ele><time>2026-04-05T08:37:45Z</time></trkpt><trkpt lat="44.84130269259336" lon="9.65876253654396"><ele>480.0</ele><time>2026-04-05T08:37:46Z</time></trkpt><trkpt lat="44.84119882952022" lon="9.658738706997488"><ele>480.0</ele><time>2026-04-05T08:37:47Z</time></trkpt><trkpt lat="44.84109375859258" lon="9.658712291847754"><ele>480.0</ele><time>2026-04-05T08:37:48Z</time></trkpt><trkpt lat="44.84097553000738" lon="9.65868563871446"><ele>480.0</ele><time>2026-04-05T08:37:49Z</time></trkpt><trkpt lat="44.84086743349213" lon="9.658661076375763"><ele>480.0</ele><time>2026-04-05T08:37:50Z</time></trkpt><trkpt lat="44.8407563044872" lon="9.658647920074948"><ele>480.4</ele><time>2026-04-05T08:37:51Z</time></trkpt><trkpt lat="44.84064098933523" lon="9.658654773218759"><ele>480.8</ele><time>2026-04-05T08:37:52Z</time></trkpt><trkpt lat="44.840526491322336" lon="9.658667960558546"><ele>481.20000000000005</ele><time>2026-04-05T08:37:53Z</time></trkpt><trkpt lat="44.84041761907417" lon="9.658667020952565"><ele>481.6</ele><time>2026-04-05T08:37:54Z</time></trkpt><trkpt lat="44.84031278565691" lon="9.658647775169518"><ele>482.0</ele><time>2026-04-05T08:37:55Z</time></trkpt><trkpt lat="44.84019234493312" lon="9.658608870623382"><ele>484.5</ele><time>2026-04-05T08:37:56Z</time></trkpt><trkpt lat="44.84007168079827" lon="9.658570940668781"><ele>487.0</ele><time>2026-04-05T08:37:57Z</time></trkpt><trkpt lat="44.839957990792975" lon="9.658539064125259"><ele>489.5</ele><time>2026-04-05T08:37:58Z</time></trkpt><trkpt lat="44.839836681326894" lon="9.658514255631653"><ele>492.0</ele><time>2026-04-05T08:37:59Z</time></trkpt><trkpt lat="44.839710146550736" lon="9.658487059639981"><ele>492.0</ele><time>2026-04-05T08:38:00Z</time></trkpt><trkpt lat="44.83959163482237" lon="9.658444227912863"><ele>492.0</ele><time>2026-04-05T08:38:01Z</time></trkpt><trkpt lat="44.83948838391689" lon="9.658374792465535"><ele>492.0</ele><time>2026-04-05T08:38:02Z</time></trkpt><trkpt lat="44.839390892900234" lon="9.658269215083084"><ele>492.0</ele><time>2026-04-05T08:38:03Z</time></trkpt><trkpt lat="44.83928564834474" lon="9.658159232516502"><ele>493.25</ele><time>2026-04-05T08:38:04Z</time></trkpt><trkpt lat="44.839172325897245" lon="9.658031961508481"><ele>494.5</ele><time>2026-04-05T08:38:05Z</time></trkpt><trkpt lat="44.83907060432688" lon="9.657915349555802"><ele>495.75</ele><time>2026-04-05T08:38:06Z</time></trkpt><trkpt lat="44.838968347354886" lon="9.657800246961566"><ele>497.0</ele><time>2026-04-05T08:38:06.999Z</time></trkpt><trkpt lat="44.83887439531953" lon="9.657698298725014"><ele>497.0</ele><time>2026-04-05T08:38:07.999Z</time></trkpt><trkpt lat="44.83878265093502" lon="9.657590326151386"><ele>497.0</ele><time>2026-04-05T08:38:08.999Z</time></trkpt><trkpt lat="44.83869613258854" lon="9.65747699823038"><ele>497.0</ele><time>2026-04-05T08:38:09.999Z</time></trkpt><trkpt lat="44.8386137104863" lon="9.657362047446831"><ele>497.0</ele><time>2026-04-05T08:38:10.999Z</time></trkpt><trkpt lat="44.838530313046476" lon="9.657239522586053"><ele>499.20000000000005</ele><time>2026-04-05T08:38:11.999Z</time></trkpt><trkpt lat="44.838454046516595" lon="9.657124680805723"><ele>501.40000000000003</ele><time>2026-04-05T08:38:12.999Z</time></trkpt><trkpt lat="44.83838294046918" lon="9.657015774461978"><ele>503.59999999999997</ele><time>2026-04-05T08:38:13.999Z</time></trkpt><trkpt lat="44.83831267281917" lon="9.656916155806714"><ele>505.79999999999995</ele><time>2026-04-05T08:38:14.999Z</time></trkpt><trkpt lat="44.83824792703015" lon="9.656819994630673"><ele>508.0</ele><time>2026-04-05T08:38:15.999Z</time></trkpt><trkpt lat="44.83820645862439" lon="9.656686411679454"><ele>508.0</ele><time>2026-04-05T08:38:16.999Z</time></trkpt><trkpt lat="44.83818141005331" lon="9.656550641935613"><ele>507.99999999999994</ele><time>2026-04-05T08:38:17.999Z</time></trkpt><trkpt lat="44.83815528831712" lon="9.656401158292855"><ele>507.99999999999994</ele><time>2026-04-05T08:38:18.999Z</time></trkpt><trkpt lat="44.838133159785535" lon="9.65625207560506"><ele>508.0</ele><time>2026-04-05T08:38:19.999Z</time></trkpt><trkpt lat="44.8381089651544" lon="9.656095448897364"><ele>508.0</ele><time>2026-04-05T08:38:20.999Z</time></trkpt><trkpt lat="44.838079280790225" lon="9.655936894274951"><ele>508.5</ele><time>2026-04-05T08:38:21.999Z</time></trkpt><trkpt lat="44.83804730311243" lon="9.65577738030471"><ele>509.0</ele><time>2026-04-05T08:38:22.999Z</time></trkpt><trkpt lat="44.83798016859726" lon="9.655613680503912"><ele>509.5</ele><time>2026-04-05T08:38:23.999Z</time></trkpt><trkpt lat="44.83793541574197" lon="9.655443517404906"><ele>510.0</ele><time>2026-04-05T08:38:24.999Z</time></trkpt><trkpt lat="44.83789181213868" lon="9.655303068588385"><ele>510.25</ele><time>2026-04-05T08:38:25.999Z</time></trkpt><trkpt lat="44.837855773094255" lon="9.65518092539584"><ele>510.5</ele><time>2026-04-05T08:38:26.999Z</time></trkpt><trkpt lat="44.83782199745158" lon="9.655039032684979"><ele>510.75</ele><time>2026-04-05T08:38:27.999Z</time></trkpt><trkpt lat="44.83779169402764" lon="9.654862938157793"><ele>511.0</ele><time>2026-04-05T08:38:28.999Z</time></trkpt><trkpt lat="44.83774607601229" lon="9.65466145043163"><ele>511.0</ele><time>2026-04-05T08:38:29.999Z</time></trkpt><trkpt lat="44.837680841546366" lon="9.65448364076758"><ele>511.0</ele><time>2026-04-05T08:38:30.999Z</time></trkpt><trkpt lat="44.837615399347186" lon="9.65433890879899"><ele>511.0</ele><time>2026-04-05T08:38:31.999Z</time></trkpt><trkpt lat="44.83753952833443" lon="9.654203012673957"><ele>511.0</ele><time>2026-04-05T08:38:32.999Z</time></trkpt><trkpt lat="44.837450363753945" lon="9.65408342659965"><ele>513.25</ele><time>2026-04-05T08:38:33.999Z</time></trkpt><trkpt lat="44.83735340288094" lon="9.653961162706514"><ele>515.5</ele><time>2026-04-05T08:38:34.999Z</time></trkpt><trkpt lat="44.83724997482594" lon="9.653846166004753"><ele>517.75</ele><time>2026-04-05T08:38:35.999Z</time></trkpt><trkpt lat="44.83715044117675" lon="9.653736508819762"><ele>520.0</ele><time>2026-04-05T08:38:36.999Z</time></trkpt><trkpt lat="44.83705328409901" lon="9.65362297603242"><ele>517.75</ele><time>2026-04-05T08:38:37.999Z</time></trkpt><trkpt lat="44.83695960314351" lon="9.653509083828622"><ele>515.5</ele><time>2026-04-05T08:38:38.999Z</time></trkpt><trkpt lat="44.83687002104552" lon="9.653384669855368"><ele>513.25</ele><time>2026-04-05T08:38:39.999Z</time></trkpt><trkpt lat="44.83678606944432" lon="9.653247809808358"><ele>511.0</ele><time>2026-04-05T08:38:40.999Z</time></trkpt><trkpt lat="44.83672760458363" lon="9.653096668653259"><ele>511.0</ele><time>2026-04-05T08:38:41.999Z</time></trkpt><trkpt lat="44.83670629222588" lon="9.652927140710815"><ele>511.0</ele><time>2026-04-05T08:38:42.999Z</time></trkpt><trkpt lat="44.83671404326235" lon="9.652725734328598"><ele>511.0</ele><time>2026-04-05T08:38:43.999Z</time></trkpt><trkpt lat="44.83672478625487" lon="9.652539847218204"><ele>511.0</ele><time>2026-04-05T08:38:45Z</time></trkpt><trkpt lat="44.83672477026214" lon="9.652370637387783"><ele>511.0</ele><time>2026-04-05T08:38:46Z</time></trkpt><trkpt lat="44.83671411632945" lon="9.6521949743025"><ele>511.0</ele><time>2026-04-05T08:38:47Z</time></trkpt><trkpt lat="44.83670503005953" lon="9.652013219734581"><ele>511.0</ele><time>2026-04-05T08:38:48Z</time></trkpt><trkpt lat="44.83670091327658" lon="9.65183099348864"><ele>511.0</ele><time>2026-04-05T08:38:49Z</time></trkpt><trkpt lat="44.836698794463054" lon="9.651652613041062"><ele>511.0</ele><time>2026-04-05T08:38:50Z</time></trkpt><trkpt lat="44.83670601127498" lon="9.651481340366306"><ele>511.0</ele><time>2026-04-05T08:38:51Z</time></trkpt><trkpt lat="44.83673760437331" lon="9.651324523403916"><ele>511.0</ele><time>2026-04-05T08:38:52Z</time></trkpt><trkpt lat="44.836801823359515" lon="9.651195447536518"><ele>511.0</ele><time>2026-04-05T08:38:53Z</time></trkpt><trkpt lat="44.83688372607937" lon="9.651080821704456"><ele>513.0</ele><time>2026-04-05T08:38:54Z</time></trkpt><trkpt lat="44.83696576348993" lon="9.650967918422912"><ele>515.0</ele><time>2026-04-05T08:38:55Z</time></trkpt><trkpt lat="44.837048451105844" lon="9.650867468254933"><ele>517.0</ele><time>2026-04-05T08:38:56Z</time></trkpt><trkpt lat="44.83715095134676" lon="9.650804177294866"><ele>519.0</ele><time>2026-04-05T08:38:57Z</time></trkpt><trkpt lat="44.8372517035066" lon="9.650773303514239"><ele>521.0</ele><time>2026-04-05T08:38:58Z</time></trkpt><trkpt lat="44.83733691427066" lon="9.650758909374355"><ele>521.0</ele><time>2026-04-05T08:38:59Z</time></trkpt><trkpt lat="44.83738604347791" lon="9.650700847222733"><ele>521.0</ele><time>2026-04-05T08:39:00Z</time></trkpt><trkpt lat="44.837339227053555" lon="9.650545336200656"><ele>521.0</ele><time>2026-04-05T08:39:02Z</time></trkpt><trkpt lat="44.83725806887496" lon="9.650519663516668"><ele>521.0</ele><time>2026-04-05T08:39:03Z</time></trkpt><trkpt lat="44.83715796349684" lon="9.650548032845824"><ele>521.0</ele><time>2026-04-05T08:39:04Z</time></trkpt><trkpt lat="44.83704241135123" lon="9.650595721293074"><ele>521.0</ele><time>2026-04-05T08:39:05Z</time></trkpt><trkpt lat="44.83692313617979" lon="9.650628927513877"><ele>521.0</ele><time>2026-04-05T08:39:06Z</time></trkpt><trkpt lat="44.83682178500515" lon="9.650616798521693"><ele>521.0</ele><time>2026-04-05T08:39:07Z</time></trkpt><trkpt lat="44.836755253531514" lon="9.650570458380512"><ele>521.0</ele><time>2026-04-05T08:39:08Z</time></trkpt><trkpt lat="44.83668391822698" lon="9.650446998539552"><ele>521.0</ele><time>2026-04-05T08:39:09Z</time></trkpt><trkpt lat="44.83662039503944" lon="9.650268215461203"><ele>526.75</ele><time>2026-04-05T08:39:10Z</time></trkpt><trkpt lat="44.83654880083662" lon="9.650073170758144"><ele>532.5</ele><time>2026-04-05T08:39:11Z</time></trkpt><trkpt lat="44.83647067293525" lon="9.649879792833074"><ele>538.25</ele><time>2026-04-05T08:39:12Z</time></trkpt><trkpt lat="44.83639640489487" lon="9.649727557378508"><ele>544.0</ele><time>2026-04-05T08:39:13Z</time></trkpt><trkpt lat="44.83631104187257" lon="9.649561566076196"><ele>544.75</ele><time>2026-04-05T08:39:14Z</time></trkpt><trkpt lat="44.83623513001325" lon="9.649399480977765"><ele>545.5</ele><time>2026-04-05T08:39:15Z</time></trkpt><trkpt lat="44.836189780106416" lon="9.649254691715054"><ele>546.25</ele><time>2026-04-05T08:39:16Z</time></trkpt><trkpt lat="44.83617730508127" lon="9.649101131502196"><ele>547.0</ele><time>2026-04-05T08:39:17Z</time></trkpt><trkpt lat="44.836179449869746" lon="9.648928330273764"><ele>547.0</ele><time>2026-04-05T08:39:18Z</time></trkpt><trkpt lat="44.83618921279552" lon="9.648737759917225"><ele>547.0</ele><time>2026-04-05T08:39:19Z</time></trkpt><trkpt lat="44.83620769606573" lon="9.648523518072105"><ele>547.0</ele><time>2026-04-05T08:39:20Z</time></trkpt><trkpt lat="44.83622231113779" lon="9.648326938803066"><ele>547.0</ele><time>2026-04-05T08:39:21Z</time></trkpt><trkpt lat="44.836232296939805" lon="9.648139226857037"><ele>546.0</ele><time>2026-04-05T08:39:22Z</time></trkpt><trkpt lat="44.83623791655688" lon="9.647954210044341"><ele>545.0</ele><time>2026-04-05T08:39:23Z</time></trkpt><trkpt lat="44.83623591604185" lon="9.647759080200482"><ele>544.0</ele><time>2026-04-05T08:39:24Z</time></trkpt><trkpt lat="44.83622211158881" lon="9.647544531306487"><ele>543.0</ele><time>2026-04-05T08:39:25Z</time></trkpt><trkpt lat="44.83620024132629" lon="9.64732499795651"><ele>541.5</ele><time>2026-04-05T08:39:26Z</time></trkpt><trkpt lat="44.83618062259295" lon="9.647127003857882"><ele>540.0</ele><time>2026-04-05T08:39:27Z</time></trkpt><trkpt lat="44.83616215834876" lon="9.646935432121767"><ele>538.5</ele><time>2026-04-05T08:39:28Z</time></trkpt><trkpt lat="44.83614620297609" lon="9.646738525937817"><ele>537.0</ele><time>2026-04-05T08:39:29Z</time></trkpt><trkpt lat="44.836132685781486" lon="9.646520902972023"><ele>537.0</ele><time>2026-04-05T08:39:30Z</time></trkpt><trkpt lat="44.83612544198298" lon="9.646288928338798"><ele>537.0</ele><time>2026-04-05T08:39:31Z</time></trkpt><trkpt lat="44.83611919299579" lon="9.646080961204406"><ele>537.0</ele><time>2026-04-05T08:39:32Z</time></trkpt><trkpt lat="44.836106554073716" lon="9.645894708348006"><ele>537.0</ele><time>2026-04-05T08:39:33Z</time></trkpt><trkpt lat="44.83608123255542" lon="9.645708262937713"><ele>536.0</ele><time>2026-04-05T08:39:34Z</time></trkpt><trkpt lat="44.83604520128962" lon="9.64551097352521"><ele>535.0</ele><time>2026-04-05T08:39:35Z</time></trkpt><trkpt lat="44.836004123030804" lon="9.64530034464961"><ele>534.0</ele><time>2026-04-05T08:39:36Z</time></trkpt><trkpt lat="44.835966391013514" lon="9.645076770615947"><ele>536.6666666666666</ele><time>2026-04-05T08:39:37Z</time></trkpt><trkpt lat="44.8359298224388" lon="9.644853128195372"><ele>539.3333333333333</ele><time>2026-04-05T08:39:38Z</time></trkpt><trkpt lat="44.835896404070205" lon="9.644648639305915"><ele>542.0</ele><time>2026-04-05T08:39:39Z</time></trkpt><trkpt lat="44.835864940577075" lon="9.644452469617033"><ele>542.0</ele><time>2026-04-05T08:39:40Z</time></trkpt><trkpt lat="44.835834410944194" lon="9.644266518446946"><ele>542.0</ele><time>2026-04-05T08:39:41Z</time></trkpt><trkpt lat="44.835802640072025" lon="9.64408917120309"><ele>542.0</ele><time>2026-04-05T08:39:42Z</time></trkpt><trkpt lat="44.835773882135534" lon="9.643918817435246"><ele>542.0</ele><time>2026-04-05T08:39:43Z</time></trkpt><trkpt lat="44.83574797328746" lon="9.643752136379048"><ele>541.5</ele><time>2026-04-05T08:39:44Z</time></trkpt><trkpt lat="44.835717717692106" lon="9.643558055431976"><ele>541.0</ele><time>2026-04-05T08:39:45Z</time></trkpt><trkpt lat="44.83570600503264" lon="9.643356645536043"><ele>540.5</ele><time>2026-04-05T08:39:46Z</time></trkpt><trkpt lat="44.83566256770114" lon="9.643181381796532"><ele>540.0</ele><time>2026-04-05T08:39:47Z</time></trkpt><trkpt lat="44.835653873599256" lon="9.643005333869482"><ele>540.0</ele><time>2026-04-05T08:39:48Z</time></trkpt><trkpt lat="44.83562530147086" lon="9.64282325872055"><ele>540.0</ele><time>2026-04-05T08:39:49Z</time></trkpt><trkpt lat="44.83559319265451" lon="9.642644671512073"><ele>540.0</ele><time>2026-04-05T08:39:50Z</time></trkpt><trkpt lat="44.83556106000763" lon="9.642493146307354"><ele>540.0</ele><time>2026-04-05T08:39:51Z</time></trkpt><trkpt lat="44.83553094593683" lon="9.642395606271572"><ele>539.8</ele><time>2026-04-05T08:39:52Z</time></trkpt><trkpt lat="44.835609868206824" lon="9.642270251399477"><ele>539.6</ele><time>2026-04-05T08:39:53Z</time></trkpt><trkpt lat="44.8356965724447" lon="9.642177504250368"><ele>539.4</ele><time>2026-04-05T08:39:54Z</time></trkpt><trkpt lat="44.83575058586852" lon="9.642057157539245"><ele>539.2</ele><time>2026-04-05T08:39:55Z</time></trkpt><trkpt lat="44.83580026739907" lon="9.641928654801882"><ele>539.0</ele><time>2026-04-05T08:39:56Z</time></trkpt><trkpt lat="44.83589376709581" lon="9.641852171926088"><ele>539.0</ele><time>2026-04-05T08:39:57Z</time></trkpt><trkpt lat="44.83601362123736" lon="9.641777067571692"><ele>539.0</ele><time>2026-04-05T08:39:58Z</time></trkpt><trkpt lat="44.83615581235647" lon="9.641697358462812"><ele>539.0</ele><time>2026-04-05T08:39:59Z</time></trkpt><trkpt lat="44.83629533501845" lon="9.641626384076607"><ele>539.0</ele><time>2026-04-05T08:40:00Z</time></trkpt><trkpt lat="44.83641932952672" lon="9.641564018756586"><ele>539.0</ele><time>2026-04-05T08:40:01Z</time></trkpt><trkpt lat="44.83653474614095" lon="9.641511331832232"><ele>539.0</ele><time>2026-04-05T08:40:02Z</time></trkpt><trkpt lat="44.83665008332024" lon="9.641501498168907"><ele>539.0</ele><time>2026-04-05T08:40:03Z</time></trkpt><trkpt lat="44.83676480328253" lon="9.641449098576283"><ele>539.0</ele><time>2026-04-05T08:40:03.999Z</time></trkpt><trkpt lat="44.83686956711788" lon="9.641337004152504"><ele>537.5</ele><time>2026-04-05T08:40:04.999Z</time></trkpt><trkpt lat="44.83699034052106" lon="9.641238201854538"><ele>536.0</ele><time>2026-04-05T08:40:05.999Z</time></trkpt><trkpt lat="44.83711067022038" lon="9.641172445354918"><ele>534.5</ele><time>2026-04-05T08:40:06.999Z</time></trkpt><trkpt lat="44.837217271546216" lon="9.641106310670805"><ele>533.0</ele><time>2026-04-05T08:40:07.999Z</time></trkpt><trkpt lat="44.8373265222881" lon="9.641050285179116"><ele>539.0</ele><time>2026-04-05T08:40:08.999Z</time></trkpt><trkpt lat="44.837441407680544" lon="9.640992564777399"><ele>545.0</ele><time>2026-04-05T08:40:09.999Z</time></trkpt><trkpt lat="44.8375531482452" lon="9.640915252081646"><ele>551.0</ele><time>2026-04-05T08:40:10.999Z</time></trkpt><trkpt lat="44.83767035591247" lon="9.640867178217524"><ele>557.0</ele><time>2026-04-05T08:40:11.999Z</time></trkpt><trkpt lat="44.83780127036654" lon="9.640825772809123"><ele>557.75</ele><time>2026-04-05T08:40:12.999Z</time></trkpt><trkpt lat="44.83793463023684" lon="9.640840487649369"><ele>558.5</ele><time>2026-04-05T08:40:13.999Z</time></trkpt><trkpt lat="44.83806746854181" lon="9.64085021690941"><ele>559.25</ele><time>2026-04-05T08:40:14.999Z</time></trkpt><trkpt lat="44.838190333418154" lon="9.640856843305917"><ele>560.0</ele><time>2026-04-05T08:40:15.999Z</time></trkpt><trkpt lat="44.83830574120828" lon="9.640930330656104"><ele>560.0</ele><time>2026-04-05T08:40:16.999Z</time></trkpt><trkpt lat="44.83843283998466" lon="9.640974915433475"><ele>560.0</ele><time>2026-04-05T08:40:17.999Z</time></trkpt><trkpt lat="44.838554584567845" lon="9.641048290196158"><ele>560.0</ele><time>2026-04-05T08:40:18.999Z</time></trkpt><trkpt lat="44.83867657809752" lon="9.64112223418369"><ele>560.0</ele><time>2026-04-05T08:40:19.999Z</time></trkpt><trkpt lat="44.83878771863297" lon="9.641192333927524"><ele>556.6</ele><time>2026-04-05T08:40:20.999Z</time></trkpt><trkpt lat="44.83888212355511" lon="9.641246630853438"><ele>553.2</ele><time>2026-04-05T08:40:21.999Z</time></trkpt><trkpt lat="44.83897420314781" lon="9.64128163411677"><ele>549.8</ele><time>2026-04-05T08:40:22.999Z</time></trkpt><trkpt lat="44.83906637589367" lon="9.641318122990699"><ele>546.4</ele><time>2026-04-05T08:40:23.999Z</time></trkpt><trkpt lat="44.83916783664081" lon="9.641305426567602"><ele>543.0</ele><time>2026-04-05T08:40:24.999Z</time></trkpt><trkpt lat="44.839263194612705" lon="9.641245280935932"><ele>544.0</ele><time>2026-04-05T08:40:25.999Z</time></trkpt><trkpt lat="44.839328843254144" lon="9.641186572508516"><ele>545.0</ele><time>2026-04-05T08:40:26.999Z</time></trkpt><trkpt lat="44.839397930283965" lon="9.641132299079787"><ele>546.0</ele><time>2026-04-05T08:40:27.999Z</time></trkpt><trkpt lat="44.83947174396689" lon="9.641074312479953"><ele>547.0</ele><time>2026-04-05T08:40:28.999Z</time></trkpt><trkpt lat="44.83955051819222" lon="9.641012428976085"><ele>548.0</ele><time>2026-04-05T08:40:29.999Z</time></trkpt><trkpt lat="44.83961823414129" lon="9.64096430031495"><ele>549.0</ele><time>2026-04-05T08:40:30.999Z</time></trkpt><trkpt lat="44.83969954986238" lon="9.641004616811566"><ele>549.0</ele><time>2026-04-05T08:40:31.999Z</time></trkpt><trkpt lat="44.839792318902006" lon="9.641089441985914"><ele>549.0</ele><time>2026-04-05T08:40:32.999Z</time></trkpt><trkpt lat="44.83988029016841" lon="9.641187249611745"><ele>549.0</ele><time>2026-04-05T08:40:33.999Z</time></trkpt><trkpt lat="44.839960590473254" lon="9.641261400097074"><ele>549.0</ele><time>2026-04-05T08:40:34.999Z</time></trkpt><trkpt lat="44.84004847889657" lon="9.64132539052873"><ele>549.0</ele><time>2026-04-05T08:40:35.999Z</time></trkpt><trkpt lat="44.8401235326075" lon="9.641371816393358"><ele>552.0</ele><time>2026-04-05T08:40:36.999Z</time></trkpt><trkpt lat="44.8401829787371" lon="9.641406327197016"><ele>555.0</ele><time>2026-04-05T08:40:37.999Z</time></trkpt><trkpt lat="44.840241540480896" lon="9.641450621210971"><ele>558.0</ele><time>2026-04-05T08:40:38.999Z</time></trkpt><trkpt lat="44.84032381397506" lon="9.641477960146611"><ele>561.0</ele><time>2026-04-05T08:40:39.999Z</time></trkpt><trkpt lat="44.84039655545256" lon="9.641493828384238"><ele>564.0</ele><time>2026-04-05T08:40:40.999Z</time></trkpt><trkpt lat="44.840501907230724" lon="9.641491997295784"><ele>567.0</ele><time>2026-04-05T08:40:42.999Z</time></trkpt><trkpt lat="44.84060486465481" lon="9.641535432348903"><ele>567.0</ele><time>2026-04-05T08:40:44.999Z</time></trkpt><trkpt lat="44.84066474384778" lon="9.641575979938862"><ele>567.0</ele><time>2026-04-05T08:40:45.999Z</time></trkpt><trkpt lat="44.840740077031136" lon="9.64163589167509"><ele>567.0</ele><time>2026-04-05T08:40:46.999Z</time></trkpt><trkpt lat="44.84082311638404" lon="9.641696917861676"><ele>567.0</ele><time>2026-04-05T08:40:47.999Z</time></trkpt><trkpt lat="44.84091617811359" lon="9.641762374468712"><ele>567.0</ele><time>2026-04-05T08:40:48.999Z</time></trkpt><trkpt lat="44.84100865923479" lon="9.64181948765925"><ele>569.2</ele><time>2026-04-05T08:40:49.999Z</time></trkpt><trkpt lat="44.84110575294887" lon="9.641861053243561"><ele>571.4000000000001</ele><time>2026-04-05T08:40:51Z</time></trkpt><trkpt lat="44.8412040826445" lon="9.641877815913572"><ele>573.5999999999999</ele><time>2026-04-05T08:40:52Z</time></trkpt><trkpt lat="44.84129263472851" lon="9.64190498436802"><ele>575.8</ele><time>2026-04-05T08:40:53Z</time></trkpt><trkpt lat="44.84137500190749" lon="9.641928684333667"><ele>578.0</ele><time>2026-04-05T08:40:54Z</time></trkpt><trkpt lat="44.84145796262499" lon="9.641967071960762"><ele>575.8</ele><time>2026-04-05T08:40:55Z</time></trkpt><trkpt lat="44.841562908816805" lon="9.642028771369409"><ele>573.5999999999999</ele><time>2026-04-05T08:40:56Z</time></trkpt><trkpt lat="44.841641009738666" lon="9.64207049920583"><ele>571.4000000000001</ele><time>2026-04-05T08:40:57Z</time></trkpt><trkpt lat="44.84170453197641" lon="9.642088915441827"><ele>569.2</ele><time>2026-04-05T08:40:58Z</time></trkpt><trkpt lat="44.841829292254516" lon="9.642111683235456"><ele>567.0</ele><time>2026-04-05T08:41:00Z</time></trkpt><trkpt lat="44.841912374845336" lon="9.642130756147207"><ele>567.0</ele><time>2026-04-05T08:41:01Z</time></trkpt><trkpt lat="44.84198130405081" lon="9.642140916280606"><ele>567.0</ele><time>2026-04-05T08:41:02Z</time></trkpt><trkpt lat="44.841985609033905" lon="9.642035358009185"><ele>567.0</ele><time>2026-04-05T08:41:22Z</time></trkpt><trkpt lat="44.84191838854758" lon="9.64186643921408"><ele>567.0</ele><time>2026-04-05T08:41:24Z</time></trkpt><trkpt lat="44.841886204341534" lon="9.641711724168125"><ele>567.0</ele><time>2026-04-05T08:41:26Z</time></trkpt><trkpt lat="44.84183655773653" lon="9.641598996586092"><ele>569.2</ele><time>2026-04-05T08:41:28Z</time></trkpt><trkpt lat="44.8417976246332" lon="9.641484704587551"><ele>571.4000000000001</ele><time>2026-04-05T08:41:32Z</time></trkpt><trkpt lat="44.84174743082231" lon="9.641386250026656"><ele>573.5999999999999</ele><time>2026-04-05T08:41:34Z</time></trkpt><trkpt lat="44.841698904994516" lon="9.641316694047516"><ele>575.8</ele><time>2026-04-05T08:41:37Z</time></trkpt><trkpt lat="44.84166332056369" lon="9.641184842821145"><ele>578.0</ele><time>2026-04-05T08:41:41Z</time></trkpt><trkpt lat="44.84156809930557" lon="9.640930585540731"><ele>580.5</ele><time>2026-04-05T08:41:44Z</time></trkpt><trkpt lat="44.84152387797988" lon="9.640851626820279"><ele>583.0</ele><time>2026-04-05T08:41:45Z</time></trkpt><trkpt lat="44.84143266549639" lon="9.640763985673106"><ele>585.5</ele><time>2026-04-05T08:41:47Z</time></trkpt><trkpt lat="44.8413492264634" lon="9.64071174160254"><ele>588.0</ele><time>2026-04-05T08:41:48Z</time></trkpt><trkpt lat="44.84127959094695" lon="9.640692766178553"><ele>590.5</ele><time>2026-04-05T08:41:49Z</time></trkpt><trkpt lat="44.84119339786269" lon="9.640671830518622"><ele>593.0</ele><time>2026-04-05T08:41:50Z</time></trkpt><trkpt lat="44.841097369092225" lon="9.64065256761175"><ele>593.0</ele><time>2026-04-05T08:41:51Z</time></trkpt><trkpt lat="44.840994853344895" lon="9.640633670495863"><ele>593.0</ele><time>2026-04-05T08:41:52Z</time></trkpt><trkpt lat="44.84088976829463" lon="9.640602825280512"><ele>593.0</ele><time>2026-04-05T08:41:53Z</time></trkpt><trkpt lat="44.84078175977773" lon="9.640563778721933"><ele>593.0</ele><time>2026-04-05T08:41:53.999Z</time></trkpt><trkpt lat="44.84066798112674" lon="9.640517117105196"><ele>593.0</ele><time>2026-04-05T08:41:54.999Z</time></trkpt><trkpt lat="44.840549215967286" lon="9.640463418500115"><ele>592.75</ele><time>2026-04-05T08:41:55.999Z</time></trkpt><trkpt lat="44.84042516042688" lon="9.64040722038804"><ele>592.5</ele><time>2026-04-05T08:41:56.999Z</time></trkpt><trkpt lat="44.840296906773624" lon="9.64034639026702"><ele>592.25</ele><time>2026-04-05T08:41:57.999Z</time></trkpt><trkpt lat="44.840170288920106" lon="9.640285990474293"><ele>592.0</ele><time>2026-04-05T08:41:58.999Z</time></trkpt><trkpt lat="44.840044582025286" lon="9.640225657369832"><ele>590.6</ele><time>2026-04-05T08:41:59.999Z</time></trkpt><trkpt lat="44.83992688259548" lon="9.640166501565218"><ele>589.2</ele><time>2026-04-05T08:42:00.999Z</time></trkpt><trkpt lat="44.839833744736296" lon="9.640119536257764"><ele>587.8</ele><time>2026-04-05T08:42:01.999Z</time></trkpt><trkpt lat="44.839745502094715" lon="9.640116712905737"><ele>586.4</ele><time>2026-04-05T08:42:02.999Z</time></trkpt><trkpt lat="44.83965121288677" lon="9.640116233386077"><ele>585.0</ele><time>2026-04-05T08:42:03.999Z</time></trkpt><trkpt lat="44.83951813617081" lon="9.640145538636444"><ele>585.0</ele><time>2026-04-05T08:42:04.999Z</time></trkpt><trkpt lat="44.83943301266007" lon="9.640138821408936"><ele>585.0</ele><time>2026-04-05T08:42:05.999Z</time></trkpt><trkpt lat="44.83933799453915" lon="9.6401585154485"><ele>585.0</ele><time>2026-04-05T08:42:06.999Z</time></trkpt><trkpt lat="44.83924140241569" lon="9.640196362876448"><ele>585.0</ele><time>2026-04-05T08:42:07.999Z</time></trkpt><trkpt lat="44.83914445565478" lon="9.640200397897347"><ele>585.0</ele><time>2026-04-05T08:42:08.999Z</time></trkpt><trkpt lat="44.83904640333738" lon="9.640178315829353"><ele>585.2</ele><time>2026-04-05T08:42:09.999Z</time></trkpt><trkpt lat="44.83894213105895" lon="9.640141787253365"><ele>585.4</ele><time>2026-04-05T08:42:10.999Z</time></trkpt><trkpt lat="44.83883007171298" lon="9.64013637335577"><ele>585.6</ele><time>2026-04-05T08:42:11.999Z</time></trkpt><trkpt lat="44.83872188971821" lon="9.640142054370687"><ele>585.8</ele><time>2026-04-05T08:42:12.999Z</time></trkpt><trkpt lat="44.83862194939689" lon="9.640142485987605"><ele>586.0</ele><time>2026-04-05T08:42:13.999Z</time></trkpt><trkpt lat="44.83852072819812" lon="9.640109880816768"><ele>585.0</ele><time>2026-04-05T08:42:14.999Z</time></trkpt><trkpt lat="44.83842115917403" lon="9.6400623534463"><ele>584.0</ele><time>2026-04-05T08:42:15.999Z</time></trkpt><trkpt lat="44.838334916024536" lon="9.640032139775416"><ele>583.0</ele><time>2026-04-05T08:42:16.999Z</time></trkpt><trkpt lat="44.838256392108775" lon="9.640029081234122"><ele>582.0</ele><time>2026-04-05T08:42:17.999Z</time></trkpt><trkpt lat="44.8381841010774" lon="9.640009326554269"><ele>581.0</ele><time>2026-04-05T08:42:18.999Z</time></trkpt><trkpt lat="44.83813144962778" lon="9.63988328608044"><ele>581.0</ele><time>2026-04-05T08:42:20.999Z</time></trkpt><trkpt lat="44.83814076319542" lon="9.63970369925708"><ele>581.0</ele><time>2026-04-05T08:42:22.999Z</time></trkpt><trkpt lat="44.83815754773524" lon="9.639616191399831"><ele>581.0</ele><time>2026-04-05T08:42:23.999Z</time></trkpt><trkpt lat="44.83815246267101" lon="9.639506929019989"><ele>581.0</ele><time>2026-04-05T08:42:25.999Z</time></trkpt><trkpt lat="44.83812461118179" lon="9.639388130801219"><ele>581.0</ele><time>2026-04-05T08:43:17Z</time></trkpt><trkpt lat="44.83808532521017" lon="9.639280509267177"><ele>581.0</ele><time>2026-04-05T08:43:19Z</time></trkpt><trkpt lat="44.8380001174309" lon="9.639140719046548"><ele>580.8</ele><time>2026-04-05T08:43:21Z</time></trkpt><trkpt lat="44.83792739507282" lon="9.639035617097393"><ele>580.6</ele><time>2026-04-05T08:43:22Z</time></trkpt><trkpt lat="44.8378359288727" lon="9.638941164279524"><ele>580.4</ele><time>2026-04-05T08:43:23Z</time></trkpt><trkpt lat="44.83775100157314" lon="9.6388588244887"><ele>580.2</ele><time>2026-04-05T08:43:24Z</time></trkpt><trkpt lat="44.83767315804422" lon="9.638772673764496"><ele>580.0</ele><time>2026-04-05T08:43:25Z</time></trkpt><trkpt lat="44.8375871511385" lon="9.638693236176879"><ele>579.8</ele><time>2026-04-05T08:43:26Z</time></trkpt><trkpt lat="44.83751897350926" lon="9.638594544127459"><ele>579.6</ele><time>2026-04-05T08:43:27Z</time></trkpt><trkpt lat="44.837473590402574" lon="9.638491723107911"><ele>579.4</ele><time>2026-04-05T08:43:28Z</time></trkpt><trkpt lat="44.837435095276945" lon="9.638410473824564"><ele>579.2</ele><time>2026-04-05T08:43:29Z</time></trkpt><trkpt lat="44.83736604220263" lon="9.63843738284936"><ele>579.0</ele><time>2026-04-05T08:43:32Z</time></trkpt><trkpt lat="44.83724538736792" lon="9.638505714355103"><ele>579.0</ele><time>2026-04-05T08:43:34Z</time></trkpt><trkpt lat="44.83718497262338" lon="9.638531093854375"><ele>579.0</ele><time>2026-04-05T08:43:35Z</time></trkpt><trkpt lat="44.837115149732945" lon="9.638522544545857"><ele>579.0</ele><time>2026-04-05T08:43:36Z</time></trkpt><trkpt lat="44.83700137918908" lon="9.638478424509264"><ele>579.0</ele><time>2026-04-05T08:43:37Z</time></trkpt><trkpt lat="44.8369341773424" lon="9.638472781546582"><ele>579.0</ele><time>2026-04-05T08:43:38Z</time></trkpt><trkpt lat="44.8368625610916" lon="9.638495984221109"><ele>579.0</ele><time>2026-04-05T08:43:39Z</time></trkpt><trkpt lat="44.836780229910005" lon="9.638510991356641"><ele>582.4</ele><time>2026-04-05T08:43:40Z</time></trkpt><trkpt lat="44.83669173561547" lon="9.638475430403687"><ele>585.8</ele><time>2026-04-05T08:43:41Z</time></trkpt><trkpt lat="44.836600637016005" lon="9.638398613005368"><ele>589.2</ele><time>2026-04-05T08:43:42Z</time></trkpt><trkpt lat="44.8365183593566" lon="9.638343664508586"><ele>592.6</ele><time>2026-04-05T08:43:43Z</time></trkpt><trkpt lat="44.83642700013879" lon="9.638335367775852"><ele>596.0</ele><time>2026-04-05T08:43:44Z</time></trkpt><trkpt lat="44.836327724329614" lon="9.638337525523886"><ele>596.0</ele><time>2026-04-05T08:43:45Z</time></trkpt><trkpt lat="44.83625317771015" lon="9.638270587969759"><ele>596.0</ele><time>2026-04-05T08:43:46Z</time></trkpt><trkpt lat="44.83617568391849" lon="9.638170916373298"><ele>596.0</ele><time>2026-04-05T08:43:47Z</time></trkpt><trkpt lat="44.836076499500166" lon="9.63809657301941"><ele>596.0</ele><time>2026-04-05T08:43:48Z</time></trkpt><trkpt lat="44.83598037348327" lon="9.638033730522311"><ele>596.0</ele><time>2026-04-05T08:43:49Z</time></trkpt><trkpt lat="44.835902999549454" lon="9.637940755977366"><ele>598.1666666666666</ele><time>2026-04-05T08:43:50.999Z</time></trkpt><trkpt lat="44.83591006480339" lon="9.63780032214857"><ele>600.3333333333333</ele><time>2026-04-05T08:43:52.999Z</time></trkpt><trkpt lat="44.835899224223525" lon="9.637682809212816"><ele>602.5</ele><time>2026-04-05T08:43:53.999Z</time></trkpt><trkpt lat="44.83587976668483" lon="9.637567637646963"><ele>604.6666666666666</ele><time>2026-04-05T08:43:54.999Z</time></trkpt><trkpt lat="44.835855246815896" lon="9.637466204831274"><ele>606.8333333333334</ele><time>2026-04-05T08:43:55.999Z</time></trkpt><trkpt lat="44.83583441328616" lon="9.637358676224755"><ele>609.0</ele><time>2026-04-05T08:43:56.999Z</time></trkpt><trkpt lat="44.83579789782665" lon="9.637243120386197"><ele>609.0</ele><time>2026-04-05T08:43:57.999Z</time></trkpt><trkpt lat="44.83576740347966" lon="9.637141340504757"><ele>609.0</ele><time>2026-04-05T08:43:58.999Z</time></trkpt><trkpt lat="44.835736432503744" lon="9.636960267937027"><ele>609.0</ele><time>2026-04-05T08:44:00.999Z</time></trkpt><trkpt lat="44.83571818053944" lon="9.636852857529167"><ele>609.0</ele><time>2026-04-05T08:44:01.999Z</time></trkpt><trkpt lat="44.83569994466203" lon="9.6367549378472"><ele>609.0</ele><time>2026-04-05T08:44:02.999Z</time></trkpt><trkpt lat="44.83570963898904" lon="9.636663587594532"><ele>609.0</ele><time>2026-04-05T08:44:03.999Z</time></trkpt><trkpt lat="44.83573285937057" lon="9.63656434050606"><ele>608.3333333333334</ele><time>2026-04-05T08:44:04.999Z</time></trkpt><trkpt lat="44.835762651172594" lon="9.636458656693852"><ele>607.6666666666666</ele><time>2026-04-05T08:44:05.999Z</time></trkpt><trkpt lat="44.835784727912774" lon="9.636357424228162"><ele>607.0</ele><time>2026-04-05T08:44:06.999Z</time></trkpt><trkpt lat="44.83579570371917" lon="9.636255288086092"><ele>606.3333333333333</ele><time>2026-04-05T08:44:07.999Z</time></trkpt><trkpt lat="44.83578469096056" lon="9.636154528140144"><ele>605.6666666666666</ele><time>2026-04-05T08:44:08.999Z</time></trkpt><trkpt lat="44.83576563165651" lon="9.636038846068404"><ele>605.0</ele><time>2026-04-05T08:44:09.999Z</time></trkpt><trkpt lat="44.83573340802317" lon="9.635875550507736"><ele>605.0</ele><time>2026-04-05T08:44:10.999Z</time></trkpt><trkpt lat="44.83569928367362" lon="9.635715811301596"><ele>605.0</ele><time>2026-04-05T08:44:11.999Z</time></trkpt><trkpt lat="44.835713991780516" lon="9.635603173787688"><ele>605.0</ele><time>2026-04-05T08:44:12.999Z</time></trkpt><trkpt lat="44.83573633506071" lon="9.635503566489964"><ele>605.0</ele><time>2026-04-05T08:44:13.999Z</time></trkpt><trkpt lat="44.835768716441244" lon="9.635404618638134"><ele>605.0</ele><time>2026-04-05T08:44:14.999Z</time></trkpt><trkpt lat="44.83578651919585" lon="9.63531417241156"><ele>605.0</ele><time>2026-04-05T08:44:15.999Z</time></trkpt><trkpt lat="44.83579582675889" lon="9.635210513038512"><ele>605.2</ele><time>2026-04-05T08:44:16.999Z</time></trkpt><trkpt lat="44.83578806286683" lon="9.635044819057518"><ele>605.4</ele><time>2026-04-05T08:44:18.999Z</time></trkpt><trkpt lat="44.835755367629304" lon="9.634920355057648"><ele>605.6</ele><time>2026-04-05T08:44:20.999Z</time></trkpt><trkpt lat="44.83575125474007" lon="9.634790855512007"><ele>605.8</ele><time>2026-04-05T08:44:22.999Z</time></trkpt><trkpt lat="44.83570573768058" lon="9.634601639522845"><ele>606.0</ele><time>2026-04-05T08:44:24.999Z</time></trkpt><trkpt lat="44.83566796303874" lon="9.634441145870866"><ele>606.0</ele><time>2026-04-05T08:44:26.999Z</time></trkpt><trkpt lat="44.83560637188003" lon="9.634330339977552"><ele>606.0</ele><time>2026-04-05T08:44:27.999Z</time></trkpt><trkpt lat="44.835556423431676" lon="9.634235385299121"><ele>606.0</ele><time>2026-04-05T08:44:28.999Z</time></trkpt><trkpt lat="44.83548818784644" lon="9.63404290981146"><ele>606.0</ele><time>2026-04-05T08:44:30.999Z</time></trkpt><trkpt lat="44.83542185579016" lon="9.633871933816351"><ele>606.0</ele><time>2026-04-05T08:44:31.999Z</time></trkpt><trkpt lat="44.83535982956502" lon="9.633672003005437"><ele>606.0</ele><time>2026-04-05T08:44:32.999Z</time></trkpt><trkpt lat="44.83532568036184" lon="9.633503970941621"><ele>606.0</ele><time>2026-04-05T08:44:33.999Z</time></trkpt><trkpt lat="44.83531487231878" lon="9.633344622458505"><ele>606.0</ele><time>2026-04-05T08:44:34.999Z</time></trkpt><trkpt lat="44.8353133230309" lon="9.633186961441053"><ele>604.0</ele><time>2026-04-05T08:44:35.999Z</time></trkpt><trkpt lat="44.83530290796686" lon="9.632991627221388"><ele>602.0</ele><time>2026-04-05T08:44:36.999Z</time></trkpt><trkpt lat="44.83527473756636" lon="9.632815962537611"><ele>600.0</ele><time>2026-04-05T08:44:37.999Z</time></trkpt><trkpt lat="44.83526476758113" lon="9.63264890328146"><ele>598.0</ele><time>2026-04-05T08:44:38.999Z</time></trkpt><trkpt lat="44.83524603177373" lon="9.632484393804901"><ele>596.75</ele><time>2026-04-05T08:44:39.999Z</time></trkpt><trkpt lat="44.835224584603026" lon="9.63217430348893"><ele>595.5</ele><time>2026-04-05T08:44:40.999Z</time></trkpt><trkpt lat="44.83520050061442" lon="9.632041908572308"><ele>594.25</ele><time>2026-04-05T08:44:41.999Z</time></trkpt><trkpt lat="44.83519717494329" lon="9.631907636440516"><ele>593.0</ele><time>2026-04-05T08:44:42.999Z</time></trkpt><trkpt lat="44.83518115863325" lon="9.63178321098862"><ele>593.0</ele><time>2026-04-05T08:44:43.999Z</time></trkpt><trkpt lat="44.83519775517852" lon="9.631659288488384"><ele>593.0</ele><time>2026-04-05T08:44:44.999Z</time></trkpt><trkpt lat="44.83521246045577" lon="9.631542459291298"><ele>593.0</ele><time>2026-04-05T08:44:45.999Z</time></trkpt><trkpt lat="44.835214323890575" lon="9.631439256688937"><ele>593.0</ele><time>2026-04-05T08:44:46.999Z</time></trkpt><trkpt lat="44.83516501081175" lon="9.631354227220777"><ele>593.0</ele><time>2026-04-05T08:44:48.999Z</time></trkpt><trkpt lat="44.83506896978493" lon="9.63142636939129"><ele>593.0</ele><time>2026-04-05T08:44:50.999Z</time></trkpt><trkpt lat="44.835023079477125" lon="9.631526585922492"><ele>599.8</ele><time>2026-04-05T08:44:51.999Z</time></trkpt><trkpt lat="44.834993733026" lon="9.631639706759302"><ele>606.5999999999999</ele><time>2026-04-05T08:44:52.999Z</time></trkpt><trkpt lat="44.83496564123673" lon="9.631775875243852"><ele>613.4000000000001</ele><time>2026-04-05T08:44:53.999Z</time></trkpt><trkpt lat="44.834894461963664" lon="9.63191870900689"><ele>620.2</ele><time>2026-04-05T08:44:55.999Z</time></trkpt><trkpt lat="44.83484200844274" lon="9.631968619586022"><ele>627.0</ele><time>2026-04-05T08:44:56.999Z</time></trkpt><trkpt lat="44.83477345481086" lon="9.632025455555778"><ele>627.6666666666666</ele><time>2026-04-05T08:44:57.999Z</time></trkpt><trkpt lat="44.83471827705363" lon="9.632074061323449"><ele>628.3333333333334</ele><time>2026-04-05T08:44:58.999Z</time></trkpt><trkpt lat="44.8346061652199" lon="9.632161263758215"><ele>629.0</ele><time>2026-04-05T08:45:00.999Z</time></trkpt><trkpt lat="44.834537497008384" lon="9.632184949920784"><ele>629.6666666666667</ele><time>2026-04-05T08:45:01.999Z</time></trkpt><trkpt lat="44.83447719555735" lon="9.63221367073634"><ele>630.3333333333334</ele><time>2026-04-05T08:45:03Z</time></trkpt><trkpt lat="44.83435952328043" lon="9.632248491897373"><ele>631.0</ele><time>2026-04-05T08:45:05Z</time></trkpt><trkpt lat="44.8342876613504" lon="9.632252487299107"><ele>631.0</ele><time>2026-04-05T08:45:06Z</time></trkpt><trkpt lat="44.83420396045235" lon="9.632236703831795"><ele>631.0</ele><time>2026-04-05T08:45:07Z</time></trkpt><trkpt lat="44.83411737558308" lon="9.63216821025287"><ele>631.0</ele><time>2026-04-05T08:45:09Z</time></trkpt><trkpt lat="44.834048751852364" lon="9.632125184200923"><ele>631.0</ele><time>2026-04-05T08:45:12Z</time></trkpt><trkpt lat="44.83398532656322" lon="9.632087979937115"><ele>631.0</ele><time>2026-04-05T08:45:14Z</time></trkpt><trkpt lat="44.83392704100284" lon="9.632038377031094"><ele>631.0</ele><time>2026-04-05T08:45:18Z</time></trkpt><trkpt lat="44.83386556840811" lon="9.631985457813524"><ele>628.1666666666667</ele><time>2026-04-05T08:45:22Z</time></trkpt><trkpt lat="44.833794258341605" lon="9.631925646785943"><ele>625.3333333333334</ele><time>2026-04-05T08:45:25Z</time></trkpt><trkpt lat="44.83371150757103" lon="9.63184566321406"><ele>622.5</ele><time>2026-04-05T08:45:28Z</time></trkpt><trkpt lat="44.83366724797881" lon="9.631781948785912"><ele>619.6666666666666</ele><time>2026-04-05T08:45:30Z</time></trkpt><trkpt lat="44.83360417944131" lon="9.631686336498358"><ele>616.8333333333333</ele><time>2026-04-05T08:45:33Z</time></trkpt><trkpt lat="44.83353785046692" lon="9.63160400811806"><ele>614.0</ele><time>2026-04-05T08:45:36Z</time></trkpt><trkpt lat="44.83347685593586" lon="9.631524705140572"><ele>611.6666666666666</ele><time>2026-04-05T08:45:38Z</time></trkpt><trkpt lat="44.83341426847731" lon="9.631446331201534"><ele>609.3333333333333</ele><time>2026-04-05T08:45:41Z</time></trkpt><trkpt lat="44.833361369537435" lon="9.63139791862972"><ele>607.0</ele><time>2026-04-05T08:45:43Z</time></trkpt><trkpt lat="44.83330245354933" lon="9.631339766543197"><ele>604.6666666666666</ele><time>2026-04-05T08:45:46Z</time></trkpt><trkpt lat="44.83325006460843" lon="9.631266761841001"><ele>602.3333333333334</ele><time>2026-04-05T08:45:47.999Z</time></trkpt><trkpt lat="44.83317807481926" lon="9.631180800573341"><ele>600.0</ele><time>2026-04-05T08:45:50.999Z</time></trkpt><trkpt lat="44.833110534151" lon="9.631101404779377"><ele>597.3333333333334</ele><time>2026-04-05T08:45:53.999Z</time></trkpt><trkpt lat="44.83305470366153" lon="9.631014596287347"><ele>594.6666666666666</ele><time>2026-04-05T08:45:56.999Z</time></trkpt><trkpt lat="44.83301483997769" lon="9.63093009523818"><ele>592.0</ele><time>2026-04-05T08:45:57.999Z</time></trkpt><trkpt lat="44.8329313921224" lon="9.630832487250665"><ele>589.3333333333333</ele><time>2026-04-05T08:45:58.999Z</time></trkpt><trkpt lat="44.832873906841016" lon="9.630762055263045"><ele>586.6666666666666</ele><time>2026-04-05T08:46:00.999Z</time></trkpt><trkpt lat="44.83282368183999" lon="9.630697788845552"><ele>584.0</ele><time>2026-04-05T08:46:02.999Z</time></trkpt><trkpt lat="44.83280073978358" lon="9.630574137508573"><ele>584.0</ele><time>2026-04-05T08:46:05.999Z</time></trkpt><trkpt lat="44.832773653616044" lon="9.630487471671795"><ele>584.0</ele><time>2026-04-05T08:46:07.999Z</time></trkpt><trkpt lat="44.832743670906126" lon="9.630378338491978"><ele>584.0</ele><time>2026-04-05T08:46:09.999Z</time></trkpt><trkpt lat="44.83272288484931" lon="9.63025333778807"><ele>584.0</ele><time>2026-04-05T08:46:11.999Z</time></trkpt><trkpt lat="44.8326897233132" lon="9.63014388427865"><ele>584.0</ele><time>2026-04-05T08:46:13.999Z</time></trkpt><trkpt lat="44.83265036685432" lon="9.630051210297376"><ele>584.0</ele><time>2026-04-05T08:46:15.999Z</time></trkpt><trkpt lat="44.832587858596305" lon="9.629921962996884"><ele>580.5</ele><time>2026-04-05T08:46:17.999Z</time></trkpt><trkpt lat="44.832516679754235" lon="9.629830344083262"><ele>577.0</ele><time>2026-04-05T08:46:20.999Z</time></trkpt><trkpt lat="44.832465428785056" lon="9.629765774000997"><ele>573.5</ele><time>2026-04-05T08:46:24.999Z</time></trkpt><trkpt lat="44.83239224927303" lon="9.629725752123875"><ele>570.0</ele><time>2026-04-05T08:46:26.999Z</time></trkpt><trkpt lat="44.832315944076484" lon="9.629672232909936"><ele>566.5</ele><time>2026-04-05T08:46:29.999Z</time></trkpt><trkpt lat="44.832250619433296" lon="9.629621111056093"><ele>563.0</ele><time>2026-04-05T08:46:33.999Z</time></trkpt><trkpt lat="44.83215525372009" lon="9.62954836168005"><ele>563.0</ele><time>2026-04-05T08:46:36.999Z</time></trkpt><trkpt lat="44.83207878507568" lon="9.629487758348438"><ele>563.0</ele><time>2026-04-05T08:46:38.999Z</time></trkpt><trkpt lat="44.83203873439453" lon="9.629418136868447"><ele>563.0</ele><time>2026-04-05T08:46:41.999Z</time></trkpt><trkpt lat="44.832004948423396" lon="9.629304934458508"><ele>563.0</ele><time>2026-04-05T08:46:44.999Z</time></trkpt><trkpt lat="44.831992471653514" lon="9.629168805753068"><ele>563.0</ele><time>2026-04-05T08:46:47.999Z</time></trkpt><trkpt lat="44.83198232938309" lon="9.629059687620435"><ele>563.0</ele><time>2026-04-05T08:46:49.999Z</time></trkpt><trkpt lat="44.831969632617955" lon="9.628923782392803"><ele>561.0</ele><time>2026-04-05T08:46:51.999Z</time></trkpt><trkpt lat="44.83196608586121" lon="9.628809313826082"><ele>559.0</ele><time>2026-04-05T08:46:53.999Z</time></trkpt><trkpt lat="44.83196633633458" lon="9.628677956612737"><ele>557.0</ele><time>2026-04-05T08:46:56.999Z</time></trkpt><trkpt lat="44.83197782074547" lon="9.628556025200412"><ele>555.0</ele><time>2026-04-05T08:46:59.999Z</time></trkpt><trkpt lat="44.8320006105897" lon="9.628438499503947"><ele>553.0</ele><time>2026-04-05T08:47:00.999Z</time></trkpt><trkpt lat="44.83199563247543" lon="9.62829372325488"><ele>550.4</ele><time>2026-04-05T08:47:02.999Z</time></trkpt><trkpt lat="44.83192114968259" lon="9.628263315446357"><ele>547.8</ele><time>2026-04-05T08:47:04.999Z</time></trkpt><trkpt lat="44.83185330655016" lon="9.628297025218787"><ele>545.2</ele><time>2026-04-05T08:47:06.999Z</time></trkpt><trkpt lat="44.831798708776915" lon="9.628200425100927"><ele>542.6</ele><time>2026-04-05T08:48:04.999Z</time></trkpt><trkpt lat="44.83177379084633" lon="9.628025906292327"><ele>540.0</ele><time>2026-04-05T08:48:06.999Z</time></trkpt><trkpt lat="44.831734401748406" lon="9.627877088682839"><ele>538.0</ele><time>2026-04-05T08:48:08.999Z</time></trkpt><trkpt lat="44.83165944668974" lon="9.627783363833947"><ele>536.0</ele><time>2026-04-05T08:48:10.999Z</time></trkpt><trkpt lat="44.831628803243625" lon="9.62767201693508"><ele>534.0</ele><time>2026-04-05T08:48:12.999Z</time></trkpt><trkpt lat="44.83168232100628" lon="9.627567658859615"><ele>532.0</ele><time>2026-04-05T08:48:14.999Z</time></trkpt><trkpt lat="44.83177694472942" lon="9.627493321221932"><ele>530.0</ele><time>2026-04-05T08:48:16.999Z</time></trkpt><trkpt lat="44.831801026180116" lon="9.627396144177577"><ele>530.0</ele><time>2026-04-05T08:48:18.999Z</time></trkpt><trkpt lat="44.83180362769662" lon="9.627233955739568"><ele>530.0</ele><time>2026-04-05T08:48:20.999Z</time></trkpt><trkpt lat="44.831831586272386" lon="9.6271465314551"><ele>530.0</ele><time>2026-04-05T08:48:21.999Z</time></trkpt><trkpt lat="44.83180827721519" lon="9.627052627786531"><ele>530.0</ele><time>2026-04-05T08:48:23.999Z</time></trkpt><trkpt lat="44.831773770116236" lon="9.626957293237824"><ele>530.0</ele><time>2026-04-05T08:48:24.999Z</time></trkpt><trkpt lat="44.8317613953015" lon="9.626847674940837"><ele>530.0</ele><time>2026-04-05T08:48:26.999Z</time></trkpt><trkpt lat="44.83169589980961" lon="9.62681056522022"><ele>526.8333333333333</ele><time>2026-04-05T08:48:27.999Z</time></trkpt><trkpt lat="44.83159727815512" lon="9.626780462259026"><ele>523.6666666666666</ele><time>2026-04-05T08:48:29.999Z</time></trkpt><trkpt lat="44.83152933223502" lon="9.626737561042129"><ele>520.5</ele><time>2026-04-05T08:48:31.999Z</time></trkpt><trkpt lat="44.831518781504855" lon="9.626639992820502"><ele>517.3333333333334</ele><time>2026-04-05T08:48:32.999Z</time></trkpt><trkpt lat="44.83144041026616" lon="9.626558856430325"><ele>514.1666666666667</ele><time>2026-04-05T08:48:34.999Z</time></trkpt><trkpt lat="44.83143386287925" lon="9.626432106366703"><ele>511.0</ele><time>2026-04-05T08:48:36.999Z</time></trkpt><trkpt lat="44.83143960363941" lon="9.626327101036047"><ele>511.0</ele><time>2026-04-05T08:48:37.999Z</time></trkpt><trkpt lat="44.831416789356915" lon="9.626224464151594"><ele>511.0</ele><time>2026-04-05T08:48:38.999Z</time></trkpt><trkpt lat="44.83137050073745" lon="9.62614017397733"><ele>511.0</ele><time>2026-04-05T08:48:39.999Z</time></trkpt><trkpt lat="44.83131386651828" lon="9.626085133271909"><ele>511.0</ele><time>2026-04-05T08:48:40.999Z</time></trkpt><trkpt lat="44.831259577914274" lon="9.626026166075347"><ele>511.0</ele><time>2026-04-05T08:48:41.999Z</time></trkpt><trkpt lat="44.831207433044575" lon="9.625945006812293"><ele>511.0</ele><time>2026-04-05T08:48:42.999Z</time></trkpt><trkpt lat="44.831152772322085" lon="9.625869947458845"><ele>511.0</ele><time>2026-04-05T08:48:43.999Z</time></trkpt><trkpt lat="44.831094350991805" lon="9.625809094546847"><ele>511.42857142857144</ele><time>2026-04-05T08:48:44.999Z</time></trkpt><trkpt lat="44.831039779523856" lon="9.625732964693471"><ele>511.8571428571429</ele><time>2026-04-05T08:48:45.999Z</time></trkpt><trkpt lat="44.830998459325244" lon="9.625652227463439"><ele>512.2857142857142</ele><time>2026-04-05T08:48:46.999Z</time></trkpt><trkpt lat="44.83094899071812" lon="9.625575264770259"><ele>512.7142857142858</ele><time>2026-04-05T08:48:47.999Z</time></trkpt><trkpt lat="44.83091117154686" lon="9.625502513681457"><ele>513.1428571428571</ele><time>2026-04-05T08:48:48.999Z</time></trkpt><trkpt lat="44.83084017660703" lon="9.625445258986815"><ele>513.5714285714286</ele><time>2026-04-05T08:48:50.999Z</time></trkpt><trkpt lat="44.83076641228451" lon="9.625444246434151"><ele>514.0</ele><time>2026-04-05T08:48:51.999Z</time></trkpt><trkpt lat="44.830643065311605" lon="9.625495143780626"><ele>514.0</ele><time>2026-04-05T08:48:53.999Z</time></trkpt><trkpt lat="44.830572527399696" lon="9.625551140724378"><ele>514.0</ele><time>2026-04-05T08:48:54.999Z</time></trkpt><trkpt lat="44.83051168999921" lon="9.625609651842453"><ele>514.0</ele><time>2026-04-05T08:48:55.999Z</time></trkpt><trkpt lat="44.83045376962691" lon="9.625652595033271"><ele>514.0</ele><time>2026-04-05T08:48:56.999Z</time></trkpt><trkpt lat="44.83039311043368" lon="9.6257077732051"><ele>514.0</ele><time>2026-04-05T08:48:57.999Z</time></trkpt><trkpt lat="44.83027101520118" lon="9.62580305179113"><ele>514.0</ele><time>2026-04-05T08:48:59.999Z</time></trkpt><trkpt lat="44.830211271058715" lon="9.625834002685982"><ele>514.0</ele><time>2026-04-05T08:49:00.999Z</time></trkpt><trkpt lat="44.8301486577114" lon="9.625859708873758"><ele>514.0</ele><time>2026-04-05T08:49:01.999Z</time></trkpt><trkpt lat="44.83008342320842" lon="9.625854306390957"><ele>514.0</ele><time>2026-04-05T08:49:02.999Z</time></trkpt><trkpt lat="44.83000541067822" lon="9.62582789210299"><ele>514.0</ele><time>2026-04-05T08:49:03.999Z</time></trkpt><trkpt lat="44.829902000243315" lon="9.625785038339117"><ele>514.0</ele><time>2026-04-05T08:49:05.999Z</time></trkpt><trkpt lat="44.829802278303255" lon="9.62569236369036"><ele>514.0</ele><time>2026-04-05T08:49:07.999Z</time></trkpt><trkpt lat="44.829741424371996" lon="9.625631203696164"><ele>513.5</ele><time>2026-04-05T08:49:08.999Z</time></trkpt><trkpt lat="44.82967086502409" lon="9.62555035310817"><ele>513.0</ele><time>2026-04-05T08:49:09.999Z</time></trkpt><trkpt lat="44.8296206002081" lon="9.625488984565298"><ele>512.5</ele><time>2026-04-05T08:49:10.999Z</time></trkpt><trkpt lat="44.82954957934951" lon="9.625473482352378"><ele>512.0</ele><time>2026-04-05T08:49:12.999Z</time></trkpt><trkpt lat="44.82948660381696" lon="9.625510845172707"><ele>511.50000000000006</ele><time>2026-04-05T08:49:14Z</time></trkpt><trkpt lat="44.829407017479305" lon="9.625560570483612"><ele>511.0</ele><time>2026-04-05T08:49:15Z</time></trkpt><trkpt lat="44.82932484545755" lon="9.625570960032025"><ele>511.0</ele><time>2026-04-05T08:49:16Z</time></trkpt><trkpt lat="44.82925625948365" lon="9.625595934609985"><ele>511.0</ele><time>2026-04-05T08:49:17Z</time></trkpt><trkpt lat="44.8291816031682" lon="9.625679417580432"><ele>511.0</ele><time>2026-04-05T08:49:18Z</time></trkpt><trkpt lat="44.82912272979155" lon="9.625718480631747"><ele>511.0</ele><time>2026-04-05T08:49:19Z</time></trkpt><trkpt lat="44.82905318640201" lon="9.62573807120042"><ele>511.0</ele><time>2026-04-05T08:49:20Z</time></trkpt><trkpt lat="44.82898487760288" lon="9.62568977572919"><ele>511.0</ele><time>2026-04-05T08:49:21Z</time></trkpt><trkpt lat="44.82892053666454" lon="9.625653091110491"><ele>511.0</ele><time>2026-04-05T08:49:22Z</time></trkpt><trkpt lat="44.82884367691164" lon="9.625656787727076"><ele>511.0</ele><time>2026-04-05T08:49:23Z</time></trkpt><trkpt lat="44.828721411631605" lon="9.625719508710832"><ele>511.0</ele><time>2026-04-05T08:49:25Z</time></trkpt><trkpt lat="44.82865476793532" lon="9.625753293071067"><ele>511.0</ele><time>2026-04-05T08:49:26Z</time></trkpt><trkpt lat="44.82853405753055" lon="9.625823034386125"><ele>511.0</ele><time>2026-04-05T08:49:28Z</time></trkpt><trkpt lat="44.828473675399884" lon="9.625877472016134"><ele>511.0</ele><time>2026-04-05T08:49:28.999Z</time></trkpt><trkpt lat="44.82842066120288" lon="9.625957862648725"><ele>507.8</ele><time>2026-04-05T08:49:29.999Z</time></trkpt><trkpt lat="44.828372324537845" lon="9.626036011782094"><ele>504.6</ele><time>2026-04-05T08:49:30.999Z</time></trkpt><trkpt lat="44.82832428113336" lon="9.626100093366087"><ele>501.4</ele><time>2026-04-05T08:49:31.999Z</time></trkpt><trkpt lat="44.82820554427967" lon="9.626140397299169"><ele>498.2</ele><time>2026-04-05T08:49:33.999Z</time></trkpt><trkpt lat="44.828122559048296" lon="9.626030663853198"><ele>495.0</ele><time>2026-04-05T08:49:35.999Z</time></trkpt><trkpt lat="44.82806296603799" lon="9.625935549678099"><ele>494.99999999999994</ele><time>2026-04-05T08:49:37.999Z</time></trkpt><trkpt lat="44.82797740703095" lon="9.625907277186402"><ele>495.0</ele><time>2026-04-05T08:49:39.999Z</time></trkpt><trkpt lat="44.827917477111285" lon="9.625866808688526"><ele>494.99999999999994</ele><time>2026-04-05T08:49:43.999Z</time></trkpt><trkpt lat="44.82785998576089" lon="9.625824681239761"><ele>494.99999999999994</ele><time>2026-04-05T08:50:23.999Z</time></trkpt><trkpt lat="44.82789955268929" lon="9.625899820182777"><ele>495.0</ele><time>2026-04-05T08:50:55.999Z</time></trkpt><trkpt lat="44.827961888655096" lon="9.625981395306269"><ele>494.99999999999994</ele><time>2026-04-05T08:54:08Z</time></trkpt><trkpt lat="44.82801544738929" lon="9.626049017705878"><ele>494.99999999999994</ele><time>2026-04-05T08:54:10Z</time></trkpt><trkpt lat="44.82804935676792" lon="9.626188055239002"><ele>495.6666666666667</ele><time>2026-04-05T08:54:12Z</time></trkpt><trkpt lat="44.82809918770223" lon="9.62625145821517"><ele>496.33333333333337</ele><time>2026-04-05T08:54:13Z</time></trkpt><trkpt lat="44.82819956399961" lon="9.626327727981671"><ele>497.0</ele><time>2026-04-05T08:54:15Z</time></trkpt><trkpt lat="44.828271355820355" lon="9.626343361606217"><ele>497.6666666666667</ele><time>2026-04-05T08:54:17Z</time></trkpt><trkpt lat="44.82832755256808" lon="9.626425632503558"><ele>498.33333333333337</ele><time>2026-04-05T08:54:25Z</time></trkpt><trkpt lat="44.82823074376561" lon="9.62642546077305"><ele>499.0</ele><time>2026-04-05T08:55:55Z</time></trkpt><trkpt lat="44.828173416632104" lon="9.626378892900169"><ele>499.0</ele><time>2026-04-05T08:55:56Z</time></trkpt><trkpt lat="44.82810151587314" lon="9.626272010899093"><ele>499.0</ele><time>2026-04-05T08:55:58Z</time></trkpt><trkpt lat="44.82805646440799" lon="9.626112018538608"><ele>499.0</ele><time>2026-04-05T08:56:00Z</time></trkpt><trkpt lat="44.827993976879156" lon="9.626003744226466"><ele>499.0</ele><time>2026-04-05T08:56:02Z</time></trkpt><trkpt lat="44.8279174505434" lon="9.62595683929897"><ele>499.0</ele><time>2026-04-05T08:56:04Z</time></trkpt><trkpt lat="44.82785187243799" lon="9.62587254928833"><ele>499.00000000000006</ele><time>2026-04-05T08:56:06Z</time></trkpt><trkpt lat="44.827913287198115" lon="9.62591618301332"><ele>499.0</ele><time>2026-04-05T08:56:26Z</time></trkpt><trkpt lat="44.82796243965689" lon="9.625975698801673"><ele>499.0</ele><time>2026-04-05T08:56:27Z</time></trkpt><trkpt lat="44.828006845698056" lon="9.626044399349574"><ele>499.0</ele><time>2026-04-05T08:56:28Z</time></trkpt><trkpt lat="44.82804776279741" lon="9.62615622514827"><ele>499.00000000000006</ele><time>2026-04-05T08:56:29Z</time></trkpt><trkpt lat="44.82807390826308" lon="9.62625684407077"><ele>499.0</ele><time>2026-04-05T08:56:30Z</time></trkpt><trkpt lat="44.82815113640485" lon="9.626361374750447"><ele>499.00000000000006</ele><time>2026-04-05T08:56:32Z</time></trkpt><trkpt lat="44.828235244650564" lon="9.626395081250767"><ele>499.0</ele><time>2026-04-05T08:56:34Z</time></trkpt><trkpt lat="44.82829736333724" lon="9.626411149862049"><ele>499.00000000000006</ele><time>2026-04-05T08:56:36Z</time></trkpt><trkpt lat="44.82835078044446" lon="9.62645919920007"><ele>499.00000000000006</ele><time>2026-04-05T08:56:40Z</time></trkpt><trkpt lat="44.82841201507087" lon="9.626487345464138"><ele>499.0</ele><time>2026-04-05T08:56:55Z</time></trkpt><trkpt lat="44.82847770795023" lon="9.626474457483885"><ele>499.00000000000006</ele><time>2026-04-05T08:57:14Z</time></trkpt><trkpt lat="44.82854127240138" lon="9.626501180160458"><ele>499.00000000000006</ele><time>2026-04-05T08:58:46Z</time></trkpt><trkpt lat="44.82862511904059" lon="9.626505899132892"><ele>503.50000000000006</ele><time>2026-04-05T08:58:53Z</time></trkpt><trkpt lat="44.82869315560511" lon="9.626540581986225"><ele>508.0</ele><time>2026-04-05T08:59:00Z</time></trkpt><trkpt lat="44.82875498429781" lon="9.62652230862765"><ele>512.5</ele><time>2026-04-05T08:59:02Z</time></trkpt><trkpt lat="44.82881820174812" lon="9.626476382820924"><ele>517.0</ele><time>2026-04-05T08:59:04Z</time></trkpt><trkpt lat="44.828907322105636" lon="9.626432424222015"><ele>521.5</ele><time>2026-04-05T08:59:06Z</time></trkpt><trkpt lat="44.82898619216043" lon="9.626418590444585"><ele>526.0</ele><time>2026-04-05T08:59:08Z</time></trkpt><trkpt lat="44.82907385854251" lon="9.626424038367261"><ele>526.0</ele><time>2026-04-05T08:59:11Z</time></trkpt><trkpt lat="44.82913103872951" lon="9.626480038905653"><ele>526.0</ele><time>2026-04-05T08:59:15Z</time></trkpt><trkpt lat="44.8292001373217" lon="9.626550112271955"><ele>526.0</ele><time>2026-04-05T08:59:19Z</time></trkpt><trkpt lat="44.82941879763494" lon="9.626704285116384"><ele>526.0</ele><time>2026-04-05T08:59:22Z</time></trkpt><trkpt lat="44.82953366366737" lon="9.626794482505511"><ele>527.2</ele><time>2026-04-05T08:59:24Z</time></trkpt><trkpt lat="44.82958628989554" lon="9.626853571003686"><ele>528.4000000000001</ele><time>2026-04-05T08:59:25Z</time></trkpt><trkpt lat="44.82966636391449" lon="9.626983595133558"><ele>529.6</ele><time>2026-04-05T08:59:27Z</time></trkpt><trkpt lat="44.82975542363668" lon="9.627092359846898"><ele>530.8000000000001</ele><time>2026-04-05T08:59:29Z</time></trkpt><trkpt lat="44.82986434436581" lon="9.62720208769438"><ele>532.0</ele><time>2026-04-05T08:59:31Z</time></trkpt><trkpt lat="44.829918723831554" lon="9.627248955916182"><ele>532.0</ele><time>2026-04-05T08:59:32Z</time></trkpt><trkpt lat="44.82998248590784" lon="9.627290025639704"><ele>532.0</ele><time>2026-04-05T08:59:33Z</time></trkpt><trkpt lat="44.83004844436725" lon="9.627318459377532"><ele>532.0</ele><time>2026-04-05T08:59:34Z</time></trkpt><trkpt lat="44.83011760370078" lon="9.62733024777801"><ele>532.0</ele><time>2026-04-05T08:59:35Z</time></trkpt><trkpt lat="44.83018556009371" lon="9.627328962068306"><ele>532.0</ele><time>2026-04-05T08:59:36Z</time></trkpt><trkpt lat="44.830257407691896" lon="9.627317845696313"><ele>532.0</ele><time>2026-04-05T08:59:37Z</time></trkpt><trkpt lat="44.83034535614716" lon="9.627291532014626"><ele>532.0</ele><time>2026-04-05T08:59:38Z</time></trkpt><trkpt lat="44.83041645880342" lon="9.6272605193488"><ele>534.0</ele><time>2026-04-05T08:59:39Z</time></trkpt><trkpt lat="44.83048771495663" lon="9.627227147389949"><ele>536.0</ele><time>2026-04-05T08:59:40Z</time></trkpt><trkpt lat="44.830558522153524" lon="9.627186448766992"><ele>538.0</ele><time>2026-04-05T08:59:41Z</time></trkpt><trkpt lat="44.8306287477879" lon="9.627153251681788"><ele>540.0</ele><time>2026-04-05T08:59:42Z</time></trkpt><trkpt lat="44.83074045986043" lon="9.627174116424747"><ele>542.0</ele><time>2026-04-05T08:59:44Z</time></trkpt><trkpt lat="44.830798636669336" lon="9.627213325540813"><ele>544.0</ele><time>2026-04-05T08:59:45Z</time></trkpt><trkpt lat="44.830853064485346" lon="9.627261688046636"><ele>543.9999999999999</ele><time>2026-04-05T08:59:46Z</time></trkpt><trkpt lat="44.83090284187653" lon="9.627316222094597"><ele>544.0</ele><time>2026-04-05T08:59:47Z</time></trkpt><trkpt lat="44.83094649233474" lon="9.627387129943159"><ele>544.0</ele><time>2026-04-05T08:59:48Z</time></trkpt><trkpt lat="44.83098502168133" lon="9.627468752427992"><ele>544.0</ele><time>2026-04-05T08:59:49Z</time></trkpt><trkpt lat="44.83101815885894" lon="9.627546938960245"><ele>544.0</ele><time>2026-04-05T08:59:50Z</time></trkpt><trkpt lat="44.83108046237886" lon="9.627651202429549"><ele>543.9999999999999</ele><time>2026-04-05T08:59:52Z</time></trkpt><trkpt lat="44.83113112762153" lon="9.62773206797757"><ele>544.0</ele><time>2026-04-05T08:59:54Z</time></trkpt><trkpt lat="44.831101039082604" lon="9.627644615327641"><ele>544.0</ele><time>2026-04-05T09:00:06Z</time></trkpt><trkpt lat="44.83106295704271" lon="9.627570066006268"><ele>544.0</ele><time>2026-04-05T09:00:07Z</time></trkpt><trkpt lat="44.83100502293457" lon="9.627504213788812"><ele>544.0</ele><time>2026-04-05T09:00:08Z</time></trkpt><trkpt lat="44.83094254536813" lon="9.627419637151789"><ele>544.0</ele><time>2026-04-05T09:00:09Z</time></trkpt><trkpt lat="44.8308959793387" lon="9.627350894542843"><ele>544.0</ele><time>2026-04-05T09:00:10Z</time></trkpt><trkpt lat="44.830847437128696" lon="9.627286212114043"><ele>544.0</ele><time>2026-04-05T09:00:11Z</time></trkpt><trkpt lat="44.830750596425176" lon="9.627216421418305"><ele>544.0</ele><time>2026-04-05T09:00:13Z</time></trkpt><trkpt lat="44.830688855689544" lon="9.62719375690026"><ele>544.0</ele><time>2026-04-05T09:00:14Z</time></trkpt><trkpt lat="44.830529149624226" lon="9.627228795720445"><ele>544.0</ele><time>2026-04-05T09:00:16Z</time></trkpt><trkpt lat="44.83042841646446" lon="9.627253323894726"><ele>544.0</ele><time>2026-04-05T09:00:17Z</time></trkpt><trkpt lat="44.830360712373796" lon="9.627283746227647"><ele>544.0</ele><time>2026-04-05T09:00:18Z</time></trkpt><trkpt lat="44.83021652881136" lon="9.627286057608105"><ele>542.0</ele><time>2026-04-05T09:00:20Z</time></trkpt><trkpt lat="44.83012674131624" lon="9.627286712580833"><ele>540.0</ele><time>2026-04-05T09:00:21Z</time></trkpt><trkpt lat="44.830033913993404" lon="9.62727215687598"><ele>538.0</ele><time>2026-04-05T09:00:22Z</time></trkpt><trkpt lat="44.82994955851477" lon="9.627225494244087"><ele>536.0</ele><time>2026-04-05T09:00:23Z</time></trkpt><trkpt lat="44.82986421461324" lon="9.627194021608258"><ele>534.0</ele><time>2026-04-05T09:00:24Z</time></trkpt><trkpt lat="44.829788927043964" lon="9.627136446017065"><ele>532.0</ele><time>2026-04-05T09:00:25Z</time></trkpt><trkpt lat="44.8297279055088" lon="9.627049223563398"><ele>532.0</ele><time>2026-04-05T09:00:26Z</time></trkpt><trkpt lat="44.829666988791566" lon="9.626966306516335"><ele>532.0</ele><time>2026-04-05T09:00:27Z</time></trkpt><trkpt lat="44.82956027527925" lon="9.626862476998376"><ele>532.0</ele><time>2026-04-05T09:00:29Z</time></trkpt><trkpt lat="44.82950809938147" lon="9.626770837351962"><ele>532.0</ele><time>2026-04-05T09:00:30Z</time></trkpt><trkpt lat="44.82944471200603" lon="9.626704678021815"><ele>532.0</ele><time>2026-04-05T09:00:31Z</time></trkpt><trkpt lat="44.82937615680835" lon="9.626654481327757"><ele>531.0</ele><time>2026-04-05T09:00:32Z</time></trkpt><trkpt lat="44.82929780479237" lon="9.626624738898139"><ele>530.0</ele><time>2026-04-05T09:00:33Z</time></trkpt><trkpt lat="44.82922439614259" lon="9.62658897660068"><ele>529.0</ele><time>2026-04-05T09:00:35Z</time></trkpt><trkpt lat="44.82916135503283" lon="9.626495540724974"><ele>528.0</ele><time>2026-04-05T09:00:38Z</time></trkpt><trkpt lat="44.82911864981406" lon="9.626418476069194"><ele>527.0</ele><time>2026-04-05T09:00:39Z</time></trkpt><trkpt lat="44.829104188009325" lon="9.626301872448712"><ele>526.0</ele><time>2026-04-05T09:00:41Z</time></trkpt><trkpt lat="44.82904081979" lon="9.62630835570435"><ele>526.0</ele><time>2026-04-05T09:00:44Z</time></trkpt><trkpt lat="44.82902530258937" lon="9.626405258403414"><ele>526.0</ele><time>2026-04-05T09:00:48Z</time></trkpt><trkpt lat="44.82910268709704" lon="9.626412648917107"><ele>526.0</ele><time>2026-04-05T09:00:51Z</time></trkpt><trkpt lat="44.82915646430065" lon="9.626482357222649"><ele>526.0</ele><time>2026-04-05T09:00:54Z</time></trkpt><trkpt lat="44.829205482613865" lon="9.626565961762694"><ele>526.0</ele><time>2026-04-05T09:00:56Z</time></trkpt><trkpt lat="44.829299019398526" lon="9.626640741588727"><ele>526.0</ele><time>2026-04-05T09:00:58Z</time></trkpt><trkpt lat="44.8293643025458" lon="9.626675313113191"><ele>527.0</ele><time>2026-04-05T09:00:59Z</time></trkpt><trkpt lat="44.8294460007339" lon="9.626716153342045"><ele>528.0</ele><time>2026-04-05T09:01:00Z</time></trkpt><trkpt lat="44.829521093331344" lon="9.62683029319294"><ele>529.0</ele><time>2026-04-05T09:01:02Z</time></trkpt><trkpt lat="44.82957582970931" lon="9.626936917521693"><ele>530.0</ele><time>2026-04-05T09:01:03Z</time></trkpt><trkpt lat="44.82963395532468" lon="9.627008282172737"><ele>531.0</ele><time>2026-04-05T09:01:04Z</time></trkpt><trkpt lat="44.829702795204" lon="9.627062950148446"><ele>532.0</ele><time>2026-04-05T09:01:05Z</time></trkpt><trkpt lat="44.8297622519566" lon="9.627122215960426"><ele>532.0</ele><time>2026-04-05T09:01:06Z</time></trkpt><trkpt lat="44.829821008362266" lon="9.627191703357289"><ele>532.0</ele><time>2026-04-05T09:01:07Z</time></trkpt><trkpt lat="44.82988706017663" lon="9.627219988371737"><ele>532.0</ele><time>2026-04-05T09:01:08Z</time></trkpt><trkpt lat="44.829968429184305" lon="9.627249079246047"><ele>532.0</ele><time>2026-04-05T09:01:09Z</time></trkpt><trkpt lat="44.830042984188495" lon="9.627288144358982"><ele>532.0</ele><time>2026-04-05T09:01:10Z</time></trkpt><trkpt lat="44.83011848970581" lon="9.627296846456083"><ele>532.0</ele><time>2026-04-05T09:01:11Z</time></trkpt><trkpt lat="44.830185581836695" lon="9.627295733393828"><ele>533.7142857142857</ele><time>2026-04-05T09:01:12Z</time></trkpt><trkpt lat="44.83025454608536" lon="9.627271563302665"><ele>535.4285714285714</ele><time>2026-04-05T09:01:13Z</time></trkpt><trkpt lat="44.83032280189887" lon="9.627264479646382"><ele>537.1428571428571</ele><time>2026-04-05T09:01:14Z</time></trkpt><trkpt lat="44.83038483253819" lon="9.62724322569002"><ele>538.8571428571429</ele><time>2026-04-05T09:01:15Z</time></trkpt><trkpt lat="44.8304515559186" lon="9.627209967074394"><ele>540.5714285714286</ele><time>2026-04-05T09:01:16Z</time></trkpt><trkpt lat="44.830513898239175" lon="9.627186094161516"><ele>542.2857142857142</ele><time>2026-04-05T09:01:17Z</time></trkpt><trkpt lat="44.830603539337396" lon="9.627163892836442"><ele>544.0</ele><time>2026-04-05T09:01:19Z</time></trkpt><trkpt lat="44.83073081241683" lon="9.62717690619474"><ele>544.0</ele><time>2026-04-05T09:01:21Z</time></trkpt><trkpt lat="44.830830056626056" lon="9.62725335817622"><ele>544.0</ele><time>2026-04-05T09:01:23Z</time></trkpt><trkpt lat="44.830939360707696" lon="9.627360962729586"><ele>544.0</ele><time>2026-04-05T09:01:25Z</time></trkpt><trkpt lat="44.830997613967725" lon="9.627500876461076"><ele>544.0</ele><time>2026-04-05T09:01:26Z</time></trkpt><trkpt lat="44.83105882530233" lon="9.627637438749373"><ele>543.3333333333334</ele><time>2026-04-05T09:01:27Z</time></trkpt><trkpt lat="44.83111725945213" lon="9.627733141649879"><ele>542.6666666666667</ele><time>2026-04-05T09:01:28Z</time></trkpt><trkpt lat="44.83117308123767" lon="9.627807406593096"><ele>542.0</ele><time>2026-04-05T09:01:29Z</time></trkpt><trkpt lat="44.83125147492663" lon="9.627841439325746"><ele>541.3333333333334</ele><time>2026-04-05T09:01:30Z</time></trkpt><trkpt lat="44.83132222145174" lon="9.627894966108197"><ele>540.6666666666666</ele><time>2026-04-05T09:01:31Z</time></trkpt><trkpt lat="44.83137997071746" lon="9.627954640955064"><ele>540.0</ele><time>2026-04-05T09:01:32Z</time></trkpt><trkpt lat="44.83143854694267" lon="9.627997352519294"><ele>540.0</ele><time>2026-04-05T09:01:33Z</time></trkpt><trkpt lat="44.831513794917505" lon="9.628017308782415"><ele>540.0</ele><time>2026-04-05T09:01:34Z</time></trkpt><trkpt lat="44.831598818003485" lon="9.628034135603583"><ele>540.0</ele><time>2026-04-05T09:01:35Z</time></trkpt><trkpt lat="44.83166958437644" lon="9.628078512962317"><ele>540.0</ele><time>2026-04-05T09:01:36Z</time></trkpt><trkpt lat="44.83172467326227" lon="9.628127689620195"><ele>540.0</ele><time>2026-04-05T09:01:37Z</time></trkpt><trkpt lat="44.83176597461078" lon="9.628199709978173"><ele>540.0</ele><time>2026-04-05T09:01:38Z</time></trkpt><trkpt lat="44.831799930384044" lon="9.628098531490076"><ele>540.0</ele><time>2026-04-05T09:01:42Z</time></trkpt><trkpt lat="44.83178156920998" lon="9.627984856509672"><ele>540.0</ele><time>2026-04-05T09:01:43Z</time></trkpt><trkpt lat="44.83176063101251" lon="9.62787743864604"><ele>540.0</ele><time>2026-04-05T09:01:44Z</time></trkpt><trkpt lat="44.831704857762396" lon="9.62778390049099"><ele>540.0</ele><time>2026-04-05T09:01:45Z</time></trkpt><trkpt lat="44.83165639001243" lon="9.62772041099253"><ele>540.0</ele><time>2026-04-05T09:01:46Z</time></trkpt><trkpt lat="44.83164230783708" lon="9.627567546479398"><ele>540.0</ele><time>2026-04-05T09:01:48Z</time></trkpt><trkpt lat="44.831824161459224" lon="9.627284442199892"><ele>535.2</ele><time>2026-04-05T09:01:57Z</time></trkpt><trkpt lat="44.83185513808203" lon="9.6270976364129"><ele>530.4</ele><time>2026-04-05T09:01:59Z</time></trkpt><trkpt lat="44.83183652136039" lon="9.626961069525699"><ele>525.6</ele><time>2026-04-05T09:02:01Z</time></trkpt><trkpt lat="44.83179795858415" lon="9.62680615180753"><ele>520.8</ele><time>2026-04-05T09:02:03Z</time></trkpt><trkpt lat="44.8317198472572" lon="9.62672622485395"><ele>516.0</ele><time>2026-04-05T09:02:05Z</time></trkpt><trkpt lat="44.831635962499114" lon="9.626692524893645"><ele>515.0</ele><time>2026-04-05T09:02:06Z</time></trkpt><trkpt lat="44.831561057249154" lon="9.626667804338512"><ele>514.0</ele><time>2026-04-05T09:02:07Z</time></trkpt><trkpt lat="44.83149090095812" lon="9.626588985018813"><ele>513.0</ele><time>2026-04-05T09:02:09Z</time></trkpt><trkpt lat="44.831436399343204" lon="9.626481603113039"><ele>512.0</ele><time>2026-04-05T09:02:11Z</time></trkpt><trkpt lat="44.83141556517486" lon="9.626347457074598"><ele>511.0</ele><time>2026-04-05T09:02:13Z</time></trkpt><trkpt lat="44.83138564914463" lon="9.626143575762093"><ele>508.0</ele><time>2026-04-05T09:02:15Z</time></trkpt><trkpt lat="44.83130420745343" lon="9.626064174658923"><ele>505.0</ele><time>2026-04-05T09:02:16Z</time></trkpt><trkpt lat="44.83122170453616" lon="9.625945955637137"><ele>502.0</ele><time>2026-04-05T09:02:17Z</time></trkpt><trkpt lat="44.83113575317569" lon="9.625823125496906"><ele>499.0</ele><time>2026-04-05T09:02:18Z</time></trkpt><trkpt lat="44.83106113292268" lon="9.625727626518172"><ele>496.0</ele><time>2026-04-05T09:02:19Z</time></trkpt><trkpt lat="44.83099965645316" lon="9.625677067701096"><ele>499.00000000000006</ele><time>2026-04-05T09:02:20Z</time></trkpt><trkpt lat="44.830963539682465" lon="9.625590128761072"><ele>502.0</ele><time>2026-04-05T09:02:21Z</time></trkpt><trkpt lat="44.83092521516804" lon="9.62550424686427"><ele>505.0</ele><time>2026-04-05T09:02:22Z</time></trkpt><trkpt lat="44.830842955560364" lon="9.625466745853968"><ele>508.0</ele><time>2026-04-05T09:02:24Z</time></trkpt><trkpt lat="44.8307604479135" lon="9.625463324074827"><ele>511.00000000000006</ele><time>2026-04-05T09:02:26Z</time></trkpt><trkpt lat="44.830687463542034" lon="9.625507898737672"><ele>514.0</ele><time>2026-04-05T09:02:27Z</time></trkpt><trkpt lat="44.83055715885417" lon="9.625641873341308"><ele>514.0</ele><time>2026-04-05T09:02:29Z</time></trkpt><trkpt lat="44.83046120622845" lon="9.625730080247223"><ele>514.0</ele><time>2026-04-05T09:02:30Z</time></trkpt><trkpt lat="44.83039251146536" lon="9.625791039150254"><ele>514.0</ele><time>2026-04-05T09:02:31Z</time></trkpt><trkpt lat="44.8303261544412" lon="9.62583869361369"><ele>514.0</ele><time>2026-04-05T09:02:32Z</time></trkpt><trkpt lat="44.83019281921888" lon="9.625857024795486"><ele>514.0</ele><time>2026-04-05T09:02:34Z</time></trkpt><trkpt lat="44.830100021667675" lon="9.625826857039934"><ele>513.4</ele><time>2026-04-05T09:02:35Z</time></trkpt><trkpt lat="44.830020756616285" lon="9.62580740316314"><ele>512.8</ele><time>2026-04-05T09:02:36Z</time></trkpt><trkpt lat="44.829935719050404" lon="9.62574289000663"><ele>512.2</ele><time>2026-04-05T09:02:38Z</time></trkpt><trkpt lat="44.82981763645252" lon="9.625595429059668"><ele>511.6</ele><time>2026-04-05T09:02:40Z</time></trkpt><trkpt lat="44.82974014687749" lon="9.625523591233048"><ele>511.0</ele><time>2026-04-05T09:02:41Z</time></trkpt><trkpt lat="44.82962517512495" lon="9.625458969031714"><ele>511.0</ele><time>2026-04-05T09:02:43Z</time></trkpt><trkpt lat="44.82951899815322" lon="9.625528596223615"><ele>511.0</ele><time>2026-04-05T09:02:45Z</time></trkpt><trkpt lat="44.82943952012193" lon="9.62558792879056"><ele>511.0</ele><time>2026-04-05T09:02:46Z</time></trkpt><trkpt lat="44.82935834248023" lon="9.62562675399585"><ele>511.0</ele><time>2026-04-05T09:02:47Z</time></trkpt><trkpt lat="44.82927740765153" lon="9.62567663628913"><ele>511.0</ele><time>2026-04-05T09:02:48Z</time></trkpt><trkpt lat="44.82920036040196" lon="9.625735124557236"><ele>511.00000000000006</ele><time>2026-04-05T09:02:49Z</time></trkpt><trkpt lat="44.82912608908538" lon="9.625732619763008"><ele>511.0</ele><time>2026-04-05T09:02:50Z</time></trkpt><trkpt lat="44.82906049722923" lon="9.625713414068361"><ele>511.0</ele><time>2026-04-05T09:02:51Z</time></trkpt><trkpt lat="44.828982670898135" lon="9.625684628191088"><ele>511.0</ele><time>2026-04-05T09:02:52Z</time></trkpt><trkpt lat="44.828901381679984" lon="9.625673559265417"><ele>511.00000000000006</ele><time>2026-04-05T09:02:53Z</time></trkpt><trkpt lat="44.82881513873181" lon="9.625716795784863"><ele>511.0</ele><time>2026-04-05T09:02:54Z</time></trkpt><trkpt lat="44.82872550530719" lon="9.625767349386493"><ele>511.0</ele><time>2026-04-05T09:02:55Z</time></trkpt><trkpt lat="44.82863559724789" lon="9.625820703868326"><ele>511.0</ele><time>2026-04-05T09:02:56Z</time></trkpt><trkpt lat="44.82855849387849" lon="9.625855047772367"><ele>511.0</ele><time>2026-04-05T09:02:57Z</time></trkpt><trkpt lat="44.828453950805894" lon="9.625966431034493"><ele>511.0</ele><time>2026-04-05T09:02:59Z</time></trkpt><trkpt lat="44.82839036785771" lon="9.626059932110003"><ele>511.0</ele><time>2026-04-05T09:03:00Z</time></trkpt><trkpt lat="44.82832784428998" lon="9.626124675000108"><ele>507.8</ele><time>2026-04-05T09:03:01Z</time></trkpt><trkpt lat="44.82820442872482" lon="9.626096205185247"><ele>504.6</ele><time>2026-04-05T09:03:03Z</time></trkpt><trkpt lat="44.82811306165288" lon="9.625975495282843"><ele>501.4</ele><time>2026-04-05T09:03:05Z</time></trkpt><trkpt lat="44.82806079270901" lon="9.625914872292881"><ele>498.2</ele><time>2026-04-05T09:03:06Z</time></trkpt><trkpt lat="44.827958311073914" lon="9.625898165971536"><ele>495.0</ele><time>2026-04-05T09:03:08Z</time></trkpt><trkpt lat="44.82787932095289" lon="9.625854058115966"><ele>495.0</ele><time>2026-04-05T09:03:11Z</time></trkpt><trkpt lat="44.82793068540019" lon="9.625921536882572"><ele>495.0</ele><time>2026-04-05T09:03:58Z</time></trkpt><trkpt lat="44.82798835897068" lon="9.625976091907875"><ele>495.0</ele><time>2026-04-05T09:06:09Z</time></trkpt><trkpt lat="44.82805207748781" lon="9.62608593475752"><ele>495.0</ele><time>2026-04-05T09:06:11Z</time></trkpt><trkpt lat="44.82811748809468" lon="9.626258869343236"><ele>495.0</ele><time>2026-04-05T09:06:13Z</time></trkpt><trkpt lat="44.82818509548891" lon="9.626337314583264"><ele>495.5714285714285</ele><time>2026-04-05T09:06:15Z</time></trkpt><trkpt lat="44.82824640109134" lon="9.62636415217628"><ele>496.1428571428571</ele><time>2026-04-05T09:06:16Z</time></trkpt><trkpt lat="44.828324531169436" lon="9.62639546301528"><ele>496.7142857142857</ele><time>2026-04-05T09:06:18Z</time></trkpt><trkpt lat="44.82838372768604" lon="9.626434142511462"><ele>497.2857142857143</ele><time>2026-04-05T09:06:24Z</time></trkpt><trkpt lat="44.82845852880446" lon="9.626475866976575"><ele>497.8571428571429</ele><time>2026-04-05T09:06:46Z</time></trkpt><trkpt lat="44.82853233686155" lon="9.626480170618155"><ele>498.4285714285715</ele><time>2026-04-05T09:07:23Z</time></trkpt><trkpt lat="44.828595902587004" lon="9.626495964201439"><ele>499.00000000000006</ele><time>2026-04-05T09:07:32Z</time></trkpt><trkpt lat="44.82866541757866" lon="9.626524527681587"><ele>504.4</ele><time>2026-04-05T09:07:37Z</time></trkpt><trkpt lat="44.828742878091965" lon="9.626517155479624"><ele>509.79999999999995</ele><time>2026-04-05T09:07:40Z</time></trkpt><trkpt lat="44.82883827151335" lon="9.626456771016203"><ele>515.2</ele><time>2026-04-05T09:07:43Z</time></trkpt><trkpt lat="44.8289626372963" lon="9.626468087477837"><ele>520.6</ele><time>2026-04-05T09:07:44Z</time></trkpt><trkpt lat="44.829050234809756" lon="9.626442010057369"><ele>526.0</ele><time>2026-04-05T09:07:46Z</time></trkpt><trkpt lat="44.82912391868545" lon="9.626442135459701"><ele>526.0</ele><time>2026-04-05T09:07:48Z</time></trkpt><trkpt lat="44.8291894384988" lon="9.62647179160977"><ele>526.0</ele><time>2026-04-05T09:07:50Z</time></trkpt><trkpt lat="44.82924458434429" lon="9.626539337649106"><ele>526.0</ele><time>2026-04-05T09:07:52Z</time></trkpt><trkpt lat="44.82932276291081" lon="9.6266340436746"><ele>526.0</ele><time>2026-04-05T09:07:54Z</time></trkpt><trkpt lat="44.829429542069086" lon="9.626720083251344"><ele>526.0</ele><time>2026-04-05T09:07:56Z</time></trkpt><trkpt lat="44.82950448934349" lon="9.626768209500488"><ele>527.0</ele><time>2026-04-05T09:07:57Z</time></trkpt><trkpt lat="44.829571417986564" lon="9.626830437913634"><ele>528.0</ele><time>2026-04-05T09:07:58Z</time></trkpt><trkpt lat="44.82963444133606" lon="9.626902376198755"><ele>529.0</ele><time>2026-04-05T09:07:59Z</time></trkpt><trkpt lat="44.829687432684345" lon="9.626974021288374"><ele>530.0</ele><time>2026-04-05T09:08:00Z</time></trkpt><trkpt lat="44.82975019983793" lon="9.627045826097273"><ele>531.0</ele><time>2026-04-05T09:08:01Z</time></trkpt><trkpt lat="44.82980221537811" lon="9.627119491079597"><ele>532.0</ele><time>2026-04-05T09:08:02Z</time></trkpt><trkpt lat="44.82986193559855" lon="9.627186270016063"><ele>532.0</ele><time>2026-04-05T09:08:03Z</time></trkpt><trkpt lat="44.82993598517878" lon="9.627239965115233"><ele>532.0</ele><time>2026-04-05T09:08:04Z</time></trkpt><trkpt lat="44.83001759181534" lon="9.62726317115168"><ele>532.0</ele><time>2026-04-05T09:08:05Z</time></trkpt><trkpt lat="44.830091595865206" lon="9.627293040065746"><ele>532.0</ele><time>2026-04-05T09:08:06Z</time></trkpt><trkpt lat="44.830171587640706" lon="9.627300447457756"><ele>532.0</ele><time>2026-04-05T09:08:07Z</time></trkpt><trkpt lat="44.83025061778995" lon="9.627280904176104"><ele>532.0</ele><time>2026-04-05T09:08:08Z</time></trkpt><trkpt lat="44.83031765059627" lon="9.62725026613775"><ele>534.4</ele><time>2026-04-05T09:08:09Z</time></trkpt><trkpt lat="44.83038797469723" lon="9.627218784075119"><ele>536.8000000000001</ele><time>2026-04-05T09:08:10Z</time></trkpt><trkpt lat="44.83046685123396" lon="9.627178513023068"><ele>539.2</ele><time>2026-04-05T09:08:11Z</time></trkpt><trkpt lat="44.83055537479885" lon="9.627134626221103"><ele>541.6</ele><time>2026-04-05T09:08:12Z</time></trkpt><trkpt lat="44.830636509188174" lon="9.627120835405547"><ele>544.0</ele><time>2026-04-05T09:08:13Z</time></trkpt><trkpt lat="44.830770020455915" lon="9.627178338480412"><ele>544.0</ele><time>2026-04-05T09:08:15Z</time></trkpt><trkpt lat="44.83084318836519" lon="9.627241110593681"><ele>544.0</ele><time>2026-04-05T09:08:16Z</time></trkpt><trkpt lat="44.83090810310275" lon="9.627304472483965"><ele>544.0</ele><time>2026-04-05T09:08:17Z</time></trkpt><trkpt lat="44.83095755053207" lon="9.627371352448392"><ele>544.0</ele><time>2026-04-05T09:08:18Z</time></trkpt><trkpt lat="44.8310131434728" lon="9.627501241768815"><ele>544.0</ele><time>2026-04-05T09:08:19Z</time></trkpt><trkpt lat="44.831092110104" lon="9.627668537634683"><ele>543.3333333333334</ele><time>2026-04-05T09:08:20Z</time></trkpt><trkpt lat="44.83115554238395" lon="9.627783698525898"><ele>542.6666666666667</ele><time>2026-04-05T09:08:21Z</time></trkpt><trkpt lat="44.83121964838683" lon="9.627834078106462"><ele>542.0</ele><time>2026-04-05T09:08:22Z</time></trkpt><trkpt lat="44.831282230477264" lon="9.627855168644247"><ele>541.3333333333334</ele><time>2026-04-05T09:08:23Z</time></trkpt><trkpt lat="44.83136982327579" lon="9.6279057574246"><ele>540.6666666666666</ele><time>2026-04-05T09:08:24Z</time></trkpt><trkpt lat="44.831457128939284" lon="9.627981418939397"><ele>540.0</ele><time>2026-04-05T09:08:25Z</time></trkpt><trkpt lat="44.83153484989739" lon="9.628036341270793"><ele>540.0</ele><time>2026-04-05T09:08:26Z</time></trkpt><trkpt lat="44.83162557390625" lon="9.628071520884587"><ele>540.0</ele><time>2026-04-05T09:08:27Z</time></trkpt><trkpt lat="44.831714734868385" lon="9.628114564832867"><ele>540.0</ele><time>2026-04-05T09:08:28Z</time></trkpt><trkpt lat="44.831781568215014" lon="9.628160889359936"><ele>540.0</ele><time>2026-04-05T09:08:29Z</time></trkpt><trkpt lat="44.8317792591798" lon="9.627985957255696"><ele>540.0</ele><time>2026-04-05T09:08:34Z</time></trkpt><trkpt lat="44.831751871357454" lon="9.627855573073324"><ele>538.0</ele><time>2026-04-05T09:08:35Z</time></trkpt><trkpt lat="44.831651048115866" lon="9.627772518342164"><ele>536.0</ele><time>2026-04-05T09:08:37Z</time></trkpt><trkpt lat="44.83168507747749" lon="9.627650012246487"><ele>534.0</ele><time>2026-04-05T09:08:40Z</time></trkpt><trkpt lat="44.83173687908422" lon="9.627596074655038"><ele>532.0</ele><time>2026-04-05T09:08:42Z</time></trkpt><trkpt lat="44.83181142394522" lon="9.627466894589787"><ele>530.0</ele><time>2026-04-05T09:08:43Z</time></trkpt><trkpt lat="44.83184239358117" lon="9.627334221963547"><ele>527.6666666666666</ele><time>2026-04-05T09:08:45Z</time></trkpt><trkpt lat="44.83186682049568" lon="9.627161206834211"><ele>525.3333333333333</ele><time>2026-04-05T09:08:47Z</time></trkpt><trkpt lat="44.83186301869299" lon="9.62707003220335"><ele>523.0</ele><time>2026-04-05T09:08:48Z</time></trkpt><trkpt lat="44.83185345761111" lon="9.626978706766879"><ele>520.6666666666666</ele><time>2026-04-05T09:08:49Z</time></trkpt><trkpt lat="44.83182942152281" lon="9.6268749825888"><ele>518.3333333333334</ele><time>2026-04-05T09:08:50Z</time></trkpt><trkpt lat="44.8318038157668" lon="9.626780614583772"><ele>516.0</ele><time>2026-04-05T09:08:51Z</time></trkpt><trkpt lat="44.83175261400848" lon="9.626643399572155"><ele>515.1666666666666</ele><time>2026-04-05T09:08:53Z</time></trkpt><trkpt lat="44.8316943893888" lon="9.626602089167042"><ele>514.3333333333334</ele><time>2026-04-05T09:08:54Z</time></trkpt><trkpt lat="44.83160928178157" lon="9.626522142199908"><ele>513.5</ele><time>2026-04-05T09:08:56Z</time></trkpt><trkpt lat="44.831553980397146" lon="9.626466521770364"><ele>512.6666666666667</ele><time>2026-04-05T09:08:57Z</time></trkpt><trkpt lat="44.83149573819095" lon="9.626323324036813"><ele>511.83333333333337</ele><time>2026-04-05T09:08:59Z</time></trkpt><trkpt lat="44.831461090933225" lon="9.62623531419641"><ele>511.0</ele><time>2026-04-05T09:09:00Z</time></trkpt><trkpt lat="44.831338039296085" lon="9.626103031695184"><ele>507.25</ele><time>2026-04-05T09:09:02Z</time></trkpt><trkpt lat="44.83128013192169" lon="9.626026546307122"><ele>503.5</ele><time>2026-04-05T09:09:03Z</time></trkpt><trkpt lat="44.83120291913524" lon="9.625921239665324"><ele>499.75</ele><time>2026-04-05T09:09:04Z</time></trkpt><trkpt lat="44.83110079002646" lon="9.625798669677593"><ele>496.0</ele><time>2026-04-05T09:09:05Z</time></trkpt><trkpt lat="44.830988610108264" lon="9.625646420441745"><ele>499.6</ele><time>2026-04-05T09:09:06Z</time></trkpt><trkpt lat="44.83089997740695" lon="9.625506998045553"><ele>503.20000000000005</ele><time>2026-04-05T09:09:07Z</time></trkpt><trkpt lat="44.83083754868502" lon="9.625416633361404"><ele>506.79999999999995</ele><time>2026-04-05T09:09:08Z</time></trkpt><trkpt lat="44.83076716340281" lon="9.625410618119139"><ele>510.4</ele><time>2026-04-05T09:09:10Z</time></trkpt><trkpt lat="44.83070455239629" lon="9.625429546861623"><ele>514.0</ele><time>2026-04-05T09:09:11Z</time></trkpt><trkpt lat="44.83061225813148" lon="9.625475476211152"><ele>514.0</ele><time>2026-04-05T09:09:12Z</time></trkpt><trkpt lat="44.83051262108814" lon="9.625545634755893"><ele>514.0</ele><time>2026-04-05T09:09:13Z</time></trkpt><trkpt lat="44.830416002406814" lon="9.625634635155276"><ele>514.0</ele><time>2026-04-05T09:09:14Z</time></trkpt><trkpt lat="44.830325673801084" lon="9.625749811141121"><ele>514.0</ele><time>2026-04-05T09:09:15Z</time></trkpt><trkpt lat="44.830227186497865" lon="9.625850254074015"><ele>513.4</ele><time>2026-04-05T09:09:16Z</time></trkpt><trkpt lat="44.83013507010066" lon="9.62586874505797"><ele>512.8</ele><time>2026-04-05T09:09:17Z</time></trkpt><trkpt lat="44.83003769828458" lon="9.625838754242693"><ele>512.2</ele><time>2026-04-05T09:09:18Z</time></trkpt><trkpt lat="44.82991979227943" lon="9.62578627002516"><ele>511.6</ele><time>2026-04-05T09:09:19Z</time></trkpt><trkpt lat="44.829849874971075" lon="9.625765727136228"><ele>511.0</ele><time>2026-04-05T09:09:20Z</time></trkpt><trkpt lat="44.82977756557312" lon="9.625643351976468"><ele>511.0</ele><time>2026-04-05T09:09:22Z</time></trkpt><trkpt lat="44.82962822866509" lon="9.625875570890626"><ele>511.0</ele><time>2026-04-05T09:09:23Z</time></trkpt><trkpt lat="44.82950791281124" lon="9.62581187955924"><ele>511.0</ele><time>2026-04-05T09:09:25Z</time></trkpt><trkpt lat="44.82943770381586" lon="9.62574722417663"><ele>511.0</ele><time>2026-04-05T09:09:26Z</time></trkpt><trkpt lat="44.82941577643345" lon="9.625647041436626"><ele>511.00000000000006</ele><time>2026-04-05T09:09:27Z</time></trkpt><trkpt lat="44.829312215280396" lon="9.625652180427897"><ele>511.0</ele><time>2026-04-05T09:09:29Z</time></trkpt><trkpt lat="44.82924003814076" lon="9.625690869529643"><ele>511.0</ele><time>2026-04-05T09:09:30Z</time></trkpt><trkpt lat="44.82917068847798" lon="9.625754188725342"><ele>511.0</ele><time>2026-04-05T09:09:31Z</time></trkpt><trkpt lat="44.82909593768398" lon="9.625795211870749"><ele>511.00000000000006</ele><time>2026-04-05T09:09:32Z</time></trkpt><trkpt lat="44.82902798476044" lon="9.62581225294443"><ele>511.0</ele><time>2026-04-05T09:09:33Z</time></trkpt><trkpt lat="44.82895920776433" lon="9.625828762597067"><ele>511.00000000000006</ele><time>2026-04-05T09:09:34Z</time></trkpt><trkpt lat="44.82888897535942" lon="9.62584916144337"><ele>511.0</ele><time>2026-04-05T09:09:35Z</time></trkpt><trkpt lat="44.82880695100227" lon="9.625863061135776"><ele>511.0</ele><time>2026-04-05T09:09:36Z</time></trkpt><trkpt lat="44.82870579628292" lon="9.62588580412553"><ele>511.0</ele><time>2026-04-05T09:09:37Z</time></trkpt><trkpt lat="44.828613615333545" lon="9.625900849845864"><ele>511.00000000000006</ele><time>2026-04-05T09:09:38Z</time></trkpt><trkpt lat="44.828535245888766" lon="9.625913786128741"><ele>511.0</ele><time>2026-04-05T09:09:39Z</time></trkpt><trkpt lat="44.82845137724121" lon="9.62594299057057"><ele>508.0</ele><time>2026-04-05T09:09:40Z</time></trkpt><trkpt lat="44.82837336726768" lon="9.62601163052191"><ele>505.0</ele><time>2026-04-05T09:09:41Z</time></trkpt><trkpt lat="44.82835685044909" lon="9.626118250839966"><ele>502.0</ele><time>2026-04-05T09:09:42Z</time></trkpt><trkpt lat="44.82823217266533" lon="9.626042568509083"><ele>499.0</ele><time>2026-04-05T09:09:44Z</time></trkpt><trkpt lat="44.82801657882601" lon="9.626154108854312"><ele>499.00000000000006</ele><time>2026-04-05T09:09:46Z</time></trkpt><trkpt lat="44.82795025463583" lon="9.626179098336584"><ele>499.0</ele><time>2026-04-05T09:09:47Z</time></trkpt><trkpt lat="44.82788141479873" lon="9.626184247039012"><ele>499.00000000000006</ele><time>2026-04-05T09:09:48Z</time></trkpt><trkpt lat="44.82781730210439" lon="9.626173850230765"><ele>499.00000000000006</ele><time>2026-04-05T09:09:49Z</time></trkpt><trkpt lat="44.82777130697675" lon="9.626112229158421"><ele>499.0</ele><time>2026-04-05T09:09:51Z</time></trkpt><trkpt lat="44.82781934850839" lon="9.626005657270188"><ele>499.00000000000006</ele><time>2026-04-05T09:09:54Z</time></trkpt><trkpt lat="44.82789560808852" lon="9.626007856948506"><ele>499.00000000000006</ele><time>2026-04-05T09:09:58Z</time></trkpt><trkpt lat="44.827957104192905" lon="9.626039951238832"><ele>498.33333333333337</ele><time>2026-04-05T09:10:00Z</time></trkpt><trkpt lat="44.828030264751284" lon="9.626074398523892"><ele>497.6666666666667</ele><time>2026-04-05T09:10:02Z</time></trkpt><trkpt lat="44.82800350960404" lon="9.625986195811619"><ele>497.0</ele><time>2026-04-05T09:10:33Z</time></trkpt><trkpt lat="44.82792196902826" lon="9.625930204644167"><ele>496.33333333333337</ele><time>2026-04-05T09:10:42Z</time></trkpt><trkpt lat="44.827866180801124" lon="9.625844971293922"><ele>495.6666666666667</ele><time>2026-04-05T09:10:44Z</time></trkpt><trkpt lat="44.82775185606674" lon="9.625815355110987"><ele>495.0</ele><time>2026-04-05T09:10:46Z</time></trkpt><trkpt lat="44.8276378620129" lon="9.625803645451423"><ele>493.8</ele><time>2026-04-05T09:10:48Z</time></trkpt><trkpt lat="44.82753274438783" lon="9.625768335058543"><ele>492.6</ele><time>2026-04-05T09:10:50Z</time></trkpt><trkpt lat="44.82743957965236" lon="9.625728714236924"><ele>491.4</ele><time>2026-04-05T09:10:52Z</time></trkpt><trkpt lat="44.82733294730414" lon="9.625686412450003"><ele>490.2</ele><time>2026-04-05T09:10:54Z</time></trkpt><trkpt lat="44.8272562759989" lon="9.625692887352209"><ele>489.0</ele><time>2026-04-05T09:10:55Z</time></trkpt><trkpt lat="44.827147096048336" lon="9.62568411858141"><ele>489.0</ele><time>2026-04-05T09:10:57Z</time></trkpt><trkpt lat="44.827067369796204" lon="9.625665741773453"><ele>489.0</ele><time>2026-04-05T09:11:00Z</time></trkpt><trkpt lat="44.82698777177436" lon="9.625622216159062"><ele>489.0</ele><time>2026-04-05T09:11:02Z</time></trkpt><trkpt lat="44.826873094129354" lon="9.625548846869767"><ele>489.0</ele><time>2026-04-05T09:11:04Z</time></trkpt><trkpt lat="44.82676773543614" lon="9.625548718078996"><ele>489.0</ele><time>2026-04-05T09:11:06Z</time></trkpt><trkpt lat="44.82669878840079" lon="9.625467260495345"><ele>484.3333333333333</ele><time>2026-04-05T09:11:08Z</time></trkpt><trkpt lat="44.82663913424719" lon="9.625419979106432"><ele>479.66666666666663</ele><time>2026-04-05T09:11:10Z</time></trkpt><trkpt lat="44.82657476878985" lon="9.625399211057509"><ele>475.0</ele><time>2026-04-05T09:11:24Z</time></trkpt><trkpt lat="44.82649533170987" lon="9.625378125198734"><ele>470.3333333333333</ele><time>2026-04-05T09:11:29Z</time></trkpt><trkpt lat="44.82641708935064" lon="9.625386695876141"><ele>465.66666666666663</ele><time>2026-04-05T09:11:36Z</time></trkpt><trkpt lat="44.82632848007642" lon="9.62537278267853"><ele>461.0</ele><time>2026-04-05T09:11:39Z</time></trkpt><trkpt lat="44.82623446278292" lon="9.625367387245394"><ele>458.4</ele><time>2026-04-05T09:11:41Z</time></trkpt><trkpt lat="44.82618439681531" lon="9.625305938231323"><ele>455.8</ele><time>2026-04-05T09:11:44Z</time></trkpt><trkpt lat="44.826127984395704" lon="9.625240174126944"><ele>453.19999999999993</ele><time>2026-04-05T09:11:56Z</time></trkpt><trkpt lat="44.826026802359635" lon="9.625181198133225"><ele>450.59999999999997</ele><time>2026-04-05T09:11:58Z</time></trkpt><trkpt lat="44.82589911681474" lon="9.625131056590954"><ele>448.0</ele><time>2026-04-05T09:12:00Z</time></trkpt><trkpt lat="44.82582384808338" lon="9.62511324903543"><ele>444.79999999999995</ele><time>2026-04-05T09:12:01Z</time></trkpt><trkpt lat="44.825757853883395" lon="9.625100800848546"><ele>441.59999999999997</ele><time>2026-04-05T09:12:02Z</time></trkpt><trkpt lat="44.82563721618354" lon="9.625081755011632"><ele>438.40000000000003</ele><time>2026-04-05T09:12:04Z</time></trkpt><trkpt lat="44.82556889241547" lon="9.625084046922574"><ele>435.20000000000005</ele><time>2026-04-05T09:12:05Z</time></trkpt><trkpt lat="44.82547535666529" lon="9.62509225837408"><ele>432.0</ele><time>2026-04-05T09:12:07Z</time></trkpt><trkpt lat="44.82538615527421" lon="9.625027143388753"><ele>432.0</ele><time>2026-04-05T09:12:09Z</time></trkpt><trkpt lat="44.82532690575054" lon="9.624973281695056"><ele>432.0</ele><time>2026-04-05T09:12:10Z</time></trkpt><trkpt lat="44.825266659854336" lon="9.624923858174041"><ele>432.0</ele><time>2026-04-05T09:12:11Z</time></trkpt><trkpt lat="44.825191433961955" lon="9.624871095687364"><ele>432.0</ele><time>2026-04-05T09:12:12Z</time></trkpt><trkpt lat="44.8251137228093" lon="9.624839121829455"><ele>432.0</ele><time>2026-04-05T09:12:13Z</time></trkpt><trkpt lat="44.82502591148329" lon="9.62481623780873"><ele>432.0</ele><time>2026-04-05T09:12:14Z</time></trkpt><trkpt lat="44.824892220064164" lon="9.624763631425951"><ele>428.3333333333333</ele><time>2026-04-05T09:12:15Z</time></trkpt><trkpt lat="44.82478559229296" lon="9.62474770899215"><ele>424.66666666666663</ele><time>2026-04-05T09:12:16Z</time></trkpt><trkpt lat="44.82468565703296" lon="9.624707484795977"><ele>421.0</ele><time>2026-04-05T09:12:17Z</time></trkpt><trkpt lat="44.82461856707924" lon="9.624635907346962"><ele>417.3333333333333</ele><time>2026-04-05T09:12:18Z</time></trkpt><trkpt lat="44.824578038392545" lon="9.624548884347627"><ele>413.66666666666663</ele><time>2026-04-05T09:12:19Z</time></trkpt><trkpt lat="44.82453172027436" lon="9.624481532680393"><ele>410.0</ele><time>2026-04-05T09:12:20Z</time></trkpt><trkpt lat="44.82445337243348" lon="9.624413221083943"><ele>407.49999999999994</ele><time>2026-04-05T09:12:22Z</time></trkpt><trkpt lat="44.82437323683054" lon="9.624345086674108"><ele>405.0</ele><time>2026-04-05T09:12:24Z</time></trkpt><trkpt lat="44.8242806865594" lon="9.624318091046431"><ele>402.5</ele><time>2026-04-05T09:12:26Z</time></trkpt><trkpt lat="44.824218221845435" lon="9.624300414738872"><ele>400.0</ele><time>2026-04-05T09:12:27Z</time></trkpt><trkpt lat="44.82414007063971" lon="9.624280574499652"><ele>397.49999999999994</ele><time>2026-04-05T09:12:28Z</time></trkpt><trkpt lat="44.8240514328501" lon="9.62423091092486"><ele>395.0</ele><time>2026-04-05T09:12:29Z</time></trkpt><trkpt lat="44.82398902123909" lon="9.624188773429092"><ele>393.57142857142856</ele><time>2026-04-05T09:12:30Z</time></trkpt><trkpt lat="44.823926485911265" lon="9.624148541393605"><ele>392.14285714285717</ele><time>2026-04-05T09:12:31Z</time></trkpt><trkpt lat="44.82386221597809" lon="9.624114117982666"><ele>390.7142857142857</ele><time>2026-04-05T09:12:32Z</time></trkpt><trkpt lat="44.82380066237428" lon="9.624082846034613"><ele>389.2857142857143</ele><time>2026-04-05T09:12:33Z</time></trkpt><trkpt lat="44.82373658503465" lon="9.624073457824156"><ele>387.8571428571429</ele><time>2026-04-05T09:12:34Z</time></trkpt><trkpt lat="44.823672032434835" lon="9.624072359345424"><ele>386.42857142857144</ele><time>2026-04-05T09:12:35Z</time></trkpt><trkpt lat="44.82359222654572" lon="9.62406946207018"><ele>385.0</ele><time>2026-04-05T09:12:36Z</time></trkpt><trkpt lat="44.823506742762966" lon="9.624046948204885"><ele>381.2</ele><time>2026-04-05T09:12:37Z</time></trkpt><trkpt lat="44.82341936076984" lon="9.624038933655926"><ele>377.4</ele><time>2026-04-05T09:12:38Z</time></trkpt><trkpt lat="44.82334507428236" lon="9.624034604635693"><ele>373.6</ele><time>2026-04-05T09:12:39Z</time></trkpt><trkpt lat="44.823229173056085" lon="9.6239429645472"><ele>369.8</ele><time>2026-04-05T09:12:41Z</time></trkpt><trkpt lat="44.823134146981104" lon="9.623852048291722"><ele>366.0</ele><time>2026-04-05T09:12:43Z</time></trkpt><trkpt lat="44.823067893781435" lon="9.623813429582698"><ele>366.0</ele><time>2026-04-05T09:12:45Z</time></trkpt><trkpt lat="44.8230013342773" lon="9.623734326701342"><ele>366.0</ele><time>2026-04-05T09:12:49Z</time></trkpt><trkpt lat="44.822956855456326" lon="9.623832743980104"><ele>366.0</ele><time>2026-04-05T09:18:50.999Z</time></trkpt><trkpt lat="44.82295430726178" lon="9.623977524201658"><ele>366.0</ele><time>2026-04-05T09:18:52.999Z</time></trkpt><trkpt lat="44.823001723827055" lon="9.624065171150189"><ele>366.0</ele><time>2026-04-05T09:18:53.999Z</time></trkpt><trkpt lat="44.82306472240268" lon="9.624202359256708"><ele>366.0</ele><time>2026-04-05T09:18:54.999Z</time></trkpt><trkpt lat="44.8230983209837" lon="9.624337734886144"><ele>366.0</ele><time>2026-04-05T09:18:55.999Z</time></trkpt><trkpt lat="44.82312654086114" lon="9.624461088752513"><ele>366.0</ele><time>2026-04-05T09:18:56.999Z</time></trkpt><trkpt lat="44.823168929113514" lon="9.62456277600624"><ele>366.0</ele><time>2026-04-05T09:18:57.999Z</time></trkpt><trkpt lat="44.82322228426624" lon="9.62465502678527"><ele>366.0</ele><time>2026-04-05T09:18:58.999Z</time></trkpt><trkpt lat="44.82327762239386" lon="9.624740789202033"><ele>366.0</ele><time>2026-04-05T09:18:59.999Z</time></trkpt><trkpt lat="44.82332027515217" lon="9.62481038565694"><ele>363.3333333333333</ele><time>2026-04-05T09:19:00.999Z</time></trkpt><trkpt lat="44.82338030087405" lon="9.624865860069924"><ele>360.6666666666667</ele><time>2026-04-05T09:19:01.999Z</time></trkpt><trkpt lat="44.82343202857598" lon="9.624944692604021"><ele>358.0</ele><time>2026-04-05T09:19:02.999Z</time></trkpt><trkpt lat="44.82345730627874" lon="9.625040176603934"><ele>355.33333333333337</ele><time>2026-04-05T09:19:04.999Z</time></trkpt><trkpt lat="44.82339948479916" lon="9.625174885293688"><ele>352.6666666666667</ele><time>2026-04-05T09:19:06.999Z</time></trkpt><trkpt lat="44.823336322565964" lon="9.625263817095794"><ele>350.0</ele><time>2026-04-05T09:19:07.999Z</time></trkpt><trkpt lat="44.82328236199185" lon="9.62535894085967"><ele>347.6666666666667</ele><time>2026-04-05T09:19:08.999Z</time></trkpt><trkpt lat="44.82322774390196" lon="9.625468346373761"><ele>345.33333333333337</ele><time>2026-04-05T09:19:09.999Z</time></trkpt><trkpt lat="44.823173561165824" lon="9.625553866268342"><ele>343.0</ele><time>2026-04-05T09:19:10.999Z</time></trkpt><trkpt lat="44.8231159332613" lon="9.62559458032714"><ele>340.6666666666667</ele><time>2026-04-05T09:19:11.999Z</time></trkpt><trkpt lat="44.82305081203542" lon="9.62557142215775"><ele>338.3333333333333</ele><time>2026-04-05T09:19:12.999Z</time></trkpt><trkpt lat="44.82297982086327" lon="9.62549776215955"><ele>336.0</ele><time>2026-04-05T09:19:13.999Z</time></trkpt><trkpt lat="44.82290685415376" lon="9.625397734969246"><ele>333.8</ele><time>2026-04-05T09:19:14.999Z</time></trkpt><trkpt lat="44.822821741424455" lon="9.62530880364285"><ele>331.6</ele><time>2026-04-05T09:19:15.999Z</time></trkpt><trkpt lat="44.82273345542457" lon="9.62522797343505"><ele>329.4</ele><time>2026-04-05T09:19:16.999Z</time></trkpt><trkpt lat="44.822653862674684" lon="9.62513154043237"><ele>327.2</ele><time>2026-04-05T09:19:17.999Z</time></trkpt><trkpt lat="44.82258158628018" lon="9.625012381677815"><ele>325.0</ele><time>2026-04-05T09:19:18.999Z</time></trkpt><trkpt lat="44.822516639835534" lon="9.624872940804623"><ele>325.0</ele><time>2026-04-05T09:19:19.999Z</time></trkpt><trkpt lat="44.822446220895344" lon="9.624740346406197"><ele>325.0</ele><time>2026-04-05T09:19:20.999Z</time></trkpt><trkpt lat="44.822361346890986" lon="9.624617756963199"><ele>325.0</ele><time>2026-04-05T09:19:21.999Z</time></trkpt><trkpt lat="44.8222752695679" lon="9.624496623043626"><ele>325.0</ele><time>2026-04-05T09:19:22.999Z</time></trkpt><trkpt lat="44.822191400970176" lon="9.624380799085191"><ele>328.0</ele><time>2026-04-05T09:19:23.999Z</time></trkpt><trkpt lat="44.822110134128415" lon="9.624268532457736"><ele>331.0</ele><time>2026-04-05T09:19:24.999Z</time></trkpt><trkpt lat="44.822036942342336" lon="9.624159362059757"><ele>334.0</ele><time>2026-04-05T09:19:25.999Z</time></trkpt><trkpt lat="44.821962349106485" lon="9.624068411365595"><ele>337.0</ele><time>2026-04-05T09:19:26.999Z</time></trkpt><trkpt lat="44.821871979410375" lon="9.624018279742174"><ele>340.0</ele><time>2026-04-05T09:19:27.999Z</time></trkpt><trkpt lat="44.82177008088529" lon="9.623998955574372"><ele>334.16666666666663</ele><time>2026-04-05T09:19:28.999Z</time></trkpt><trkpt lat="44.82168836857293" lon="9.62396250754524"><ele>328.3333333333333</ele><time>2026-04-05T09:19:29.999Z</time></trkpt><trkpt lat="44.82163144159995" lon="9.623901670795883"><ele>322.5</ele><time>2026-04-05T09:19:30.999Z</time></trkpt><trkpt lat="44.82159326984139" lon="9.623799144424169"><ele>316.6666666666667</ele><time>2026-04-05T09:19:31.999Z</time></trkpt><trkpt lat="44.82157406832584" lon="9.623666349349994"><ele>310.83333333333337</ele><time>2026-04-05T09:19:32.999Z</time></trkpt><trkpt lat="44.821573227797586" lon="9.623544858351604"><ele>305.0</ele><time>2026-04-05T09:19:33.999Z</time></trkpt><trkpt lat="44.82161120836949" lon="9.623443421886227"><ele>302.4</ele><time>2026-04-05T09:19:34.999Z</time></trkpt><trkpt lat="44.82169340643212" lon="9.623372952395016"><ele>299.8</ele><time>2026-04-05T09:19:35.999Z</time></trkpt><trkpt lat="44.8217568185781" lon="9.623261557870006"><ele>297.2</ele><time>2026-04-05T09:19:36.999Z</time></trkpt><trkpt lat="44.82184244276232" lon="9.623159987915601"><ele>294.6</ele><time>2026-04-05T09:19:37.999Z</time></trkpt><trkpt lat="44.82191133333126" lon="9.623039729052241"><ele>292.0</ele><time>2026-04-05T09:19:38.999Z</time></trkpt><trkpt lat="44.821973475924295" lon="9.622913072506073"><ele>295.4</ele><time>2026-04-05T09:19:39.999Z</time></trkpt><trkpt lat="44.82202758176025" lon="9.622782114482941"><ele>298.79999999999995</ele><time>2026-04-05T09:19:40.999Z</time></trkpt><trkpt lat="44.822093953875786" lon="9.62267147391651"><ele>302.2</ele><time>2026-04-05T09:19:41.999Z</time></trkpt><trkpt lat="44.822143074611326" lon="9.622555262770112"><ele>305.59999999999997</ele><time>2026-04-05T09:19:42.999Z</time></trkpt><trkpt lat="44.82219169339226" lon="9.622441740112606"><ele>309.0</ele><time>2026-04-05T09:19:43.999Z</time></trkpt><trkpt lat="44.822240020094924" lon="9.622332254785352"><ele>309.0</ele><time>2026-04-05T09:19:44.999Z</time></trkpt><trkpt lat="44.82227728982078" lon="9.62222267519765"><ele>309.0</ele><time>2026-04-05T09:19:45.999Z</time></trkpt><trkpt lat="44.8223448282142" lon="9.622143647153713"><ele>309.0</ele><time>2026-04-05T09:19:46.999Z</time></trkpt><trkpt lat="44.82240846041608" lon="9.622072041956883"><ele>309.0</ele><time>2026-04-05T09:19:47.999Z</time></trkpt><trkpt lat="44.82247291874096" lon="9.621999872267784"><ele>309.0</ele><time>2026-04-05T09:19:48.999Z</time></trkpt><trkpt lat="44.82255052191971" lon="9.6219716002433"><ele>309.0</ele><time>2026-04-05T09:19:49.999Z</time></trkpt><trkpt lat="44.82262163642694" lon="9.62193801226042"><ele>303.59999999999997</ele><time>2026-04-05T09:19:50.999Z</time></trkpt><trkpt lat="44.82268399142257" lon="9.621899399789411"><ele>298.2</ele><time>2026-04-05T09:19:51.999Z</time></trkpt><trkpt lat="44.822771677423646" lon="9.621844735493921"><ele>292.79999999999995</ele><time>2026-04-05T09:19:53.999Z</time></trkpt><trkpt lat="44.82282541774352" lon="9.621779615941989"><ele>287.4</ele><time>2026-04-05T09:19:55.999Z</time></trkpt><trkpt lat="44.82269740581846" lon="9.621714664932503"><ele>282.0</ele><time>2026-04-05T09:19:57.999Z</time></trkpt><trkpt lat="44.822614954204454" lon="9.621748888055068"><ele>281.4</ele><time>2026-04-05T09:19:58.999Z</time></trkpt><trkpt lat="44.822523985939526" lon="9.621813466082173"><ele>280.79999999999995</ele><time>2026-04-05T09:19:59.999Z</time></trkpt><trkpt lat="44.822436973080784" lon="9.621873350760401"><ele>280.2</ele><time>2026-04-05T09:20:00.999Z</time></trkpt><trkpt lat="44.82235600197074" lon="9.621920890313634"><ele>279.59999999999997</ele><time>2026-04-05T09:20:01.999Z</time></trkpt><trkpt lat="44.82226681324329" lon="9.62194007084006"><ele>279.0</ele><time>2026-04-05T09:20:02.999Z</time></trkpt><trkpt lat="44.8221813272299" lon="9.621998568763367"><ele>279.0</ele><time>2026-04-05T09:20:03.999Z</time></trkpt><trkpt lat="44.82209003264373" lon="9.622016047647026"><ele>279.0</ele><time>2026-04-05T09:20:04.999Z</time></trkpt><trkpt lat="44.82198892783367" lon="9.621993861581506"><ele>279.0</ele><time>2026-04-05T09:20:05.999Z</time></trkpt><trkpt lat="44.82187657821616" lon="9.62193298166372"><ele>279.0</ele><time>2026-04-05T09:20:06.999Z</time></trkpt><trkpt lat="44.82177409052689" lon="9.621854330020186"><ele>279.0</ele><time>2026-04-05T09:20:07.999Z</time></trkpt><trkpt lat="44.82168365913284" lon="9.621770519771204"><ele>278.25</ele><time>2026-04-05T09:20:08.999Z</time></trkpt><trkpt lat="44.82157411183515" lon="9.621674630855871"><ele>277.5</ele><time>2026-04-05T09:20:09.999Z</time></trkpt><trkpt lat="44.82144318521277" lon="9.621565829221506"><ele>276.75</ele><time>2026-04-05T09:20:10.999Z</time></trkpt><trkpt lat="44.82133059759925" lon="9.621445261055644"><ele>276.0</ele><time>2026-04-05T09:20:11.999Z</time></trkpt><trkpt lat="44.8212346353445" lon="9.62132112855275"><ele>276.0</ele><time>2026-04-05T09:20:12.999Z</time></trkpt><trkpt lat="44.821153096236806" lon="9.621183185089635"><ele>276.0</ele><time>2026-04-05T09:20:13.999Z</time></trkpt><trkpt lat="44.8210455938702" lon="9.62109705182024"><ele>276.0</ele><time>2026-04-05T09:20:14.999Z</time></trkpt><trkpt lat="44.82093641857854" lon="9.621011143756718"><ele>276.0</ele><time>2026-04-05T09:20:15.999Z</time></trkpt><trkpt lat="44.82081194523001" lon="9.620935094386372"><ele>277.75</ele><time>2026-04-05T09:20:16.999Z</time></trkpt><trkpt lat="44.82068974436865" lon="9.620874547909587"><ele>279.5</ele><time>2026-04-05T09:20:17.999Z</time></trkpt><trkpt lat="44.82057870157633" lon="9.620823235848327"><ele>281.25</ele><time>2026-04-05T09:20:18.999Z</time></trkpt><trkpt lat="44.82045288322784" lon="9.62077018832144"><ele>283.0</ele><time>2026-04-05T09:20:19.999Z</time></trkpt><trkpt lat="44.82029689259391" lon="9.620712528902493"><ele>287.0</ele><time>2026-04-05T09:20:20.999Z</time></trkpt><trkpt lat="44.8201417658381" lon="9.620660662250758"><ele>291.0</ele><time>2026-04-05T09:20:21.999Z</time></trkpt><trkpt lat="44.819990397459456" lon="9.620621865036458"><ele>295.0</ele><time>2026-04-05T09:20:22.999Z</time></trkpt><trkpt lat="44.81984345136448" lon="9.62059293053566"><ele>295.0</ele><time>2026-04-05T09:20:23.999Z</time></trkpt><trkpt lat="44.819690907455396" lon="9.62056519170388"><ele>295.0</ele><time>2026-04-05T09:20:24.999Z</time></trkpt><trkpt lat="44.8195383894463" lon="9.62054018679678"><ele>295.0</ele><time>2026-04-05T09:20:25.999Z</time></trkpt><trkpt lat="44.819387863432596" lon="9.620511805375182"><ele>297.75</ele><time>2026-04-05T09:20:26.999Z</time></trkpt><trkpt lat="44.81924836323182" lon="9.620473760860271"><ele>300.5</ele><time>2026-04-05T09:20:27.999Z</time></trkpt><trkpt lat="44.81911795348301" lon="9.620406487445965"><ele>303.25</ele><time>2026-04-05T09:20:28.999Z</time></trkpt><trkpt lat="44.818988565743204" lon="9.620302208299632"><ele>306.0</ele><time>2026-04-05T09:20:29.999Z</time></trkpt><trkpt lat="44.81887274677613" lon="9.62016380927209"><ele>302.75</ele><time>2026-04-05T09:20:30.999Z</time></trkpt><trkpt lat="44.81876438384812" lon="9.620004444342458"><ele>299.5</ele><time>2026-04-05T09:20:31.999Z</time></trkpt><trkpt lat="44.81866226956691" lon="9.619861485831237"><ele>296.25</ele><time>2026-04-05T09:20:32.999Z</time></trkpt><trkpt lat="44.81855071621583" lon="9.61976983836218"><ele>293.0</ele><time>2026-04-05T09:20:33.999Z</time></trkpt><trkpt lat="44.81843312014677" lon="9.619739544173726"><ele>293.0</ele><time>2026-04-05T09:20:34.999Z</time></trkpt><trkpt lat="44.81830733023023" lon="9.619766319474074"><ele>293.0</ele><time>2026-04-05T09:20:35.999Z</time></trkpt><trkpt lat="44.81816995124331" lon="9.619839851484091"><ele>293.0</ele><time>2026-04-05T09:20:36.999Z</time></trkpt><trkpt lat="44.81801914752824" lon="9.619912016122514"><ele>293.0</ele><time>2026-04-05T09:20:37.999Z</time></trkpt><trkpt lat="44.81788006152169" lon="9.61993643566962"><ele>293.0</ele><time>2026-04-05T09:20:38.999Z</time></trkpt><trkpt lat="44.81774388778227" lon="9.6199208385055"><ele>293.0</ele><time>2026-04-05T09:20:39.999Z</time></trkpt><trkpt lat="44.817593190812595" lon="9.619870532613351"><ele>293.0</ele><time>2026-04-05T09:20:40.999Z</time></trkpt><trkpt lat="44.817428761660786" lon="9.619810933044818"><ele>295.33333333333337</ele><time>2026-04-05T09:20:41.999Z</time></trkpt><trkpt lat="44.81724874992104" lon="9.61977457881355"><ele>297.6666666666667</ele><time>2026-04-05T09:20:43Z</time></trkpt><trkpt lat="44.817052784883366" lon="9.619756738507634"><ele>300.0</ele><time>2026-04-05T09:20:44Z</time></trkpt><trkpt lat="44.81687625759008" lon="9.61972865794817"><ele>302.6666666666667</ele><time>2026-04-05T09:20:45Z</time></trkpt><trkpt lat="44.81672417350282" lon="9.619677080284813"><ele>305.33333333333337</ele><time>2026-04-05T09:20:46Z</time></trkpt><trkpt lat="44.816578908806775" lon="9.61960837449561"><ele>308.0</ele><time>2026-04-05T09:20:47Z</time></trkpt><trkpt lat="44.81644982121584" lon="9.619501115637297"><ele>305.75</ele><time>2026-04-05T09:20:48Z</time></trkpt><trkpt lat="44.81632451240343" lon="9.619427753157938"><ele>303.5</ele><time>2026-04-05T09:20:49Z</time></trkpt><trkpt lat="44.81620267670524" lon="9.61936544482222"><ele>301.25</ele><time>2026-04-05T09:20:50Z</time></trkpt><trkpt lat="44.81608396342138" lon="9.619305347625037"><ele>299.0</ele><time>2026-04-05T09:20:51Z</time></trkpt><trkpt lat="44.815970462376946" lon="9.619246895065595"><ele>299.0</ele><time>2026-04-05T09:20:52Z</time></trkpt><trkpt lat="44.81585157280912" lon="9.619195847141919"><ele>299.0</ele><time>2026-04-05T09:20:53Z</time></trkpt><trkpt lat="44.81574388163278" lon="9.619112410633962"><ele>299.0</ele><time>2026-04-05T09:20:54Z</time></trkpt><trkpt lat="44.815648466990154" lon="9.61898501961549"><ele>299.0</ele><time>2026-04-05T09:20:55Z</time></trkpt><trkpt lat="44.81556176052517" lon="9.61885575546745"><ele>299.0</ele><time>2026-04-05T09:20:56Z</time></trkpt><trkpt lat="44.81546589373161" lon="9.618742990779898"><ele>299.0</ele><time>2026-04-05T09:20:57Z</time></trkpt><trkpt lat="44.81538476000855" lon="9.6186423973485"><ele>299.0</ele><time>2026-04-05T09:20:58Z</time></trkpt><trkpt lat="44.815277379798516" lon="9.618581179920637"><ele>299.0</ele><time>2026-04-05T09:20:59Z</time></trkpt><trkpt lat="44.81514923282628" lon="9.618551645367019"><ele>297.0</ele><time>2026-04-05T09:21:00Z</time></trkpt><trkpt lat="44.8150117416298" lon="9.618545467783603"><ele>295.0</ele><time>2026-04-05T09:21:01Z</time></trkpt><trkpt lat="44.814863121955234" lon="9.618555814976569"><ele>293.0</ele><time>2026-04-05T09:21:02Z</time></trkpt><trkpt lat="44.81470525322137" lon="9.61857546560553"><ele>291.0</ele><time>2026-04-05T09:21:03Z</time></trkpt><trkpt lat="44.814541754559" lon="9.618586065940228"><ele>291.0</ele><time>2026-04-05T09:21:04Z</time></trkpt><trkpt lat="44.81436387462459" lon="9.618544938883183"><ele>291.0</ele><time>2026-04-05T09:21:05Z</time></trkpt><trkpt lat="44.81419241871448" lon="9.618495395374966"><ele>291.0</ele><time>2026-04-05T09:21:06Z</time></trkpt><trkpt lat="44.81404344056079" lon="9.618433777762798"><ele>293.0</ele><time>2026-04-05T09:21:07Z</time></trkpt><trkpt lat="44.81389336775499" lon="9.61838321041088"><ele>295.0</ele><time>2026-04-05T09:21:08Z</time></trkpt><trkpt lat="44.81375241434673" lon="9.6183065084506"><ele>297.0</ele><time>2026-04-05T09:21:09Z</time></trkpt><trkpt lat="44.813634069093084" lon="9.61820246915157"><ele>299.0</ele><time>2026-04-05T09:21:10Z</time></trkpt><trkpt lat="44.813521405600696" lon="9.61810921848033"><ele>297.75</ele><time>2026-04-05T09:21:11Z</time></trkpt><trkpt lat="44.813412904202316" lon="9.61801168361741"><ele>296.5</ele><time>2026-04-05T09:21:12Z</time></trkpt><trkpt lat="44.81330750229267" lon="9.617916934888209"><ele>295.25</ele><time>2026-04-05T09:21:13Z</time></trkpt><trkpt lat="44.8132052888099" lon="9.617825052320113"><ele>294.0</ele><time>2026-04-05T09:21:14Z</time></trkpt><trkpt lat="44.81310986786508" lon="9.617732680472784"><ele>294.0</ele><time>2026-04-05T09:21:15Z</time></trkpt><trkpt lat="44.813008188895814" lon="9.617639422019503"><ele>294.0</ele><time>2026-04-05T09:21:16Z</time></trkpt><trkpt lat="44.812889622579746" lon="9.61755552735246"><ele>294.0</ele><time>2026-04-05T09:21:17Z</time></trkpt><trkpt lat="44.812776804803484" lon="9.617444868985112"><ele>294.0</ele><time>2026-04-05T09:21:18Z</time></trkpt><trkpt lat="44.81266148961579" lon="9.617335219384564"><ele>293.25</ele><time>2026-04-05T09:21:19Z</time></trkpt><trkpt lat="44.812546916741596" lon="9.61723054993731"><ele>292.5</ele><time>2026-04-05T09:21:20Z</time></trkpt><trkpt lat="44.81243121251686" lon="9.617125129719739"><ele>291.75</ele><time>2026-04-05T09:21:21Z</time></trkpt><trkpt lat="44.81230359258931" lon="9.617007152601623"><ele>291.0</ele><time>2026-04-05T09:21:22Z</time></trkpt><trkpt lat="44.8121794099648" lon="9.61688825472675"><ele>291.0</ele><time>2026-04-05T09:21:23Z</time></trkpt><trkpt lat="44.81205896335558" lon="9.616772315152716"><ele>291.0</ele><time>2026-04-05T09:21:24Z</time></trkpt><trkpt lat="44.811939070204964" lon="9.61666255849259"><ele>291.0</ele><time>2026-04-05T09:21:25Z</time></trkpt><trkpt lat="44.81182673668236" lon="9.616561028375537"><ele>291.0</ele><time>2026-04-05T09:21:26Z</time></trkpt><trkpt lat="44.81172283125046" lon="9.616462565912755"><ele>290.5</ele><time>2026-04-05T09:21:27Z</time></trkpt><trkpt lat="44.81162050268123" lon="9.616372741111121"><ele>290.0</ele><time>2026-04-05T09:21:28Z</time></trkpt><trkpt lat="44.81150593465733" lon="9.616285211100456"><ele>289.5</ele><time>2026-04-05T09:21:29Z</time></trkpt><trkpt lat="44.81138359676636" lon="9.616202711158055"><ele>289.0</ele><time>2026-04-05T09:21:30Z</time></trkpt><trkpt lat="44.81125485165575" lon="9.616141354999208"><ele>289.0</ele><time>2026-04-05T09:21:31Z</time></trkpt><trkpt lat="44.81112467920478" lon="9.616087943818068"><ele>289.0</ele><time>2026-04-05T09:21:32Z</time></trkpt><trkpt lat="44.81099687780815" lon="9.616029647310711"><ele>289.0</ele><time>2026-04-05T09:21:33Z</time></trkpt><trkpt lat="44.81087394485569" lon="9.615965602482989"><ele>289.0</ele><time>2026-04-05T09:21:34Z</time></trkpt><trkpt lat="44.81075892153058" lon="9.61590616776307"><ele>292.25</ele><time>2026-04-05T09:21:35Z</time></trkpt><trkpt lat="44.81065035612252" lon="9.615863964501312"><ele>295.5</ele><time>2026-04-05T09:21:36Z</time></trkpt><trkpt lat="44.81054130522754" lon="9.615852729170518"><ele>298.75</ele><time>2026-04-05T09:21:37Z</time></trkpt><trkpt lat="44.81042543466835" lon="9.615881269596937"><ele>302.0</ele><time>2026-04-05T09:21:38Z</time></trkpt><trkpt lat="44.810298492031286" lon="9.615951995636447"><ele>302.0</ele><time>2026-04-05T09:21:39Z</time></trkpt><trkpt lat="44.81017606454921" lon="9.616032887361603"><ele>302.0</ele><time>2026-04-05T09:21:40Z</time></trkpt><trkpt lat="44.81004875039262" lon="9.61609536593564"><ele>302.0</ele><time>2026-04-05T09:21:41Z</time></trkpt><trkpt lat="44.80992008914532" lon="9.616131654349001"><ele>302.0</ele><time>2026-04-05T09:21:42Z</time></trkpt><trkpt lat="44.80979944073062" lon="9.616152086691045"><ele>307.5</ele><time>2026-04-05T09:21:43Z</time></trkpt><trkpt lat="44.80969061082258" lon="9.616160001013858"><ele>313.0</ele><time>2026-04-05T09:21:44Z</time></trkpt><trkpt lat="44.80958301863545" lon="9.616189561612856"><ele>318.5</ele><time>2026-04-05T09:21:45Z</time></trkpt><trkpt lat="44.80946968514159" lon="9.616263760649383"><ele>324.0</ele><time>2026-04-05T09:21:46Z</time></trkpt><trkpt lat="44.80936130143427" lon="9.616379103971328"><ele>319.5</ele><time>2026-04-05T09:21:47Z</time></trkpt><trkpt lat="44.8092618951499" lon="9.616509162819563"><ele>315.0</ele><time>2026-04-05T09:21:48Z</time></trkpt><trkpt lat="44.809163884834824" lon="9.616601075702885"><ele>310.5</ele><time>2026-04-05T09:21:49Z</time></trkpt><trkpt lat="44.809058255323514" lon="9.616634088568972"><ele>306.0</ele><time>2026-04-05T09:21:50Z</time></trkpt><trkpt lat="44.80895415925434" lon="9.616607709530536"><ele>306.0</ele><time>2026-04-05T09:21:51Z</time></trkpt><trkpt lat="44.80884799454636" lon="9.616547288582066"><ele>306.0</ele><time>2026-04-05T09:21:52Z</time></trkpt><trkpt lat="44.80875608887486" lon="9.616492919213036"><ele>306.0</ele><time>2026-04-05T09:21:53Z</time></trkpt><trkpt lat="44.80868447279772" lon="9.616460180471424"><ele>306.0</ele><time>2026-04-05T09:21:54Z</time></trkpt><trkpt lat="44.80862867940608" lon="9.61640101376951"><ele>306.0</ele><time>2026-04-05T09:21:56Z</time></trkpt><trkpt lat="44.80857046881771" lon="9.616587624807218"><ele>306.0</ele><time>2026-04-05T09:21:58Z</time></trkpt><trkpt lat="44.808581173955645" lon="9.616696377850415"><ele>306.0</ele><time>2026-04-05T09:21:59Z</time></trkpt><trkpt lat="44.80860322791662" lon="9.616839282178788"><ele>306.0</ele><time>2026-04-05T09:22:00Z</time></trkpt><trkpt lat="44.80861545087868" lon="9.616974229553731"><ele>306.0</ele><time>2026-04-05T09:22:01Z</time></trkpt><trkpt lat="44.8086172054716" lon="9.617073393481085"><ele>306.0</ele><time>2026-04-05T09:22:02Z</time></trkpt><trkpt lat="44.80857171199398" lon="9.61715748671423"><ele>306.0</ele><time>2026-04-05T09:22:04Z</time></trkpt><trkpt lat="44.80845706309011" lon="9.617213270138555"><ele>307.3333333333333</ele><time>2026-04-05T09:22:06Z</time></trkpt><trkpt lat="44.80838144313411" lon="9.617238280321855"><ele>308.6666666666667</ele><time>2026-04-05T09:22:07Z</time></trkpt><trkpt lat="44.80828326995929" lon="9.6171784327785"><ele>310.0</ele><time>2026-04-05T09:22:09Z</time></trkpt><trkpt lat="44.80826565485876" lon="9.617087280769251"><ele>311.33333333333337</ele><time>2026-04-05T09:22:10Z</time></trkpt><trkpt lat="44.80827119452892" lon="9.61697593396218"><ele>312.6666666666667</ele><time>2026-04-05T09:22:11Z</time></trkpt><trkpt lat="44.80826837229561" lon="9.61684743584364"><ele>314.0</ele><time>2026-04-05T09:22:12Z</time></trkpt><trkpt lat="44.808237458293426" lon="9.616716388296165"><ele>314.0</ele><time>2026-04-05T09:22:13Z</time></trkpt><trkpt lat="44.80819244286155" lon="9.616582352836373"><ele>314.0</ele><time>2026-04-05T09:22:14Z</time></trkpt><trkpt lat="44.80814792676412" lon="9.616455543224873"><ele>314.0</ele><time>2026-04-05T09:22:15Z</time></trkpt><trkpt lat="44.80810353193132" lon="9.616329450350188"><ele>314.0</ele><time>2026-04-05T09:22:17Z</time></trkpt><trkpt lat="44.80802392919203" lon="9.61632916917917"><ele>314.0</ele><time>2026-04-05T09:22:19Z</time></trkpt><trkpt lat="44.80792746143692" lon="9.616386462613912"><ele>314.0</ele><time>2026-04-05T09:22:21Z</time></trkpt><trkpt lat="44.807873457536125" lon="9.616289554680943"><ele>314.0</ele><time>2026-04-05T09:22:23Z</time></trkpt><trkpt lat="44.80784212747729" lon="9.61639231694756"><ele>314.0</ele><time>2026-04-05T09:22:30Z</time></trkpt><trkpt lat="44.8078236141596" lon="9.616491013452888"><ele>314.0</ele><time>2026-04-05T09:22:33Z</time></trkpt><trkpt lat="44.80781671090572" lon="9.616667519721645"><ele>314.0</ele><time>2026-04-05T09:22:36Z</time></trkpt><trkpt lat="44.80775767324251" lon="9.616707222847461"><ele>314.0</ele><time>2026-04-05T09:22:39Z</time></trkpt><trkpt lat="44.807694673940404" lon="9.616659452099453"><ele>320.2</ele><time>2026-04-05T09:22:41Z</time></trkpt><trkpt lat="44.80757780855053" lon="9.616678575988553"><ele>326.4</ele><time>2026-04-05T09:22:42Z</time></trkpt><trkpt lat="44.8074821711606" lon="9.61671517958738"><ele>332.6</ele><time>2026-04-05T09:22:44Z</time></trkpt><trkpt lat="44.80744525578404" lon="9.616805571222788"><ele>338.8</ele><time>2026-04-05T09:22:46Z</time></trkpt><trkpt lat="44.80740791964232" lon="9.616902001693331"><ele>345.0</ele><time>2026-04-05T09:22:49Z</time></trkpt><trkpt lat="44.80731438814916" lon="9.616921671637703"><ele>345.0</ele><time>2026-04-05T09:22:51Z</time></trkpt><trkpt lat="44.807229408070725" lon="9.616926455939332"><ele>345.0</ele><time>2026-04-05T09:22:53Z</time></trkpt><trkpt lat="44.80716543511453" lon="9.617026623549567"><ele>345.0</ele><time>2026-04-05T09:22:56Z</time></trkpt><trkpt lat="44.80709679761486" lon="9.617090495457026"><ele>345.0</ele><time>2026-04-05T09:22:58Z</time></trkpt><trkpt lat="44.80703124817261" lon="9.61699398619082"><ele>345.0</ele><time>2026-04-05T09:23:01Z</time></trkpt><trkpt lat="44.807001097091224" lon="9.616905792709424"><ele>345.0</ele><time>2026-04-05T09:23:02Z</time></trkpt><trkpt lat="44.80693532465977" lon="9.616876991126752"><ele>345.0</ele><time>2026-04-05T09:23:04Z</time></trkpt><trkpt lat="44.80688369313913" lon="9.616949790274468"><ele>345.0</ele><time>2026-04-05T09:23:06Z</time></trkpt><trkpt lat="44.806869818834826" lon="9.617042186993773"><ele>345.0</ele><time>2026-04-05T09:23:08Z</time></trkpt><trkpt lat="44.806861358283044" lon="9.617148803439195"><ele>345.0</ele><time>2026-04-05T09:23:10Z</time></trkpt><trkpt lat="44.80672821183068" lon="9.617159371560001"><ele>345.0</ele><time>2026-04-05T09:23:12Z</time></trkpt><trkpt lat="44.80666410159134" lon="9.617192539070755"><ele>345.0</ele><time>2026-04-05T09:23:13Z</time></trkpt><trkpt lat="44.80655575540171" lon="9.617255509643346"><ele>351.5</ele><time>2026-04-05T09:23:15Z</time></trkpt><trkpt lat="44.806444860035484" lon="9.617306664019198"><ele>358.0</ele><time>2026-04-05T09:23:17Z</time></trkpt><trkpt lat="44.806358693974175" lon="9.617291774569445"><ele>364.5</ele><time>2026-04-05T09:23:19Z</time></trkpt><trkpt lat="44.80628860658007" lon="9.617337670128514"><ele>371.0</ele><time>2026-04-05T09:23:21Z</time></trkpt><trkpt lat="44.80622019798154" lon="9.617315444247678"><ele>377.5</ele><time>2026-04-05T09:23:24Z</time></trkpt><trkpt lat="44.80612360756222" lon="9.617312029973732"><ele>384.0</ele><time>2026-04-05T09:23:26Z</time></trkpt><trkpt lat="44.80610116751383" lon="9.617430189016883"><ele>384.0</ele><time>2026-04-05T09:23:29Z</time></trkpt><trkpt lat="44.80606948119734" lon="9.617535209625505"><ele>384.0</ele><time>2026-04-05T09:23:32Z</time></trkpt><trkpt lat="44.80601183870089" lon="9.617580591778465"><ele>384.0</ele><time>2026-04-05T09:23:33Z</time></trkpt><trkpt lat="44.80593556604065" lon="9.617696332632812"><ele>384.0</ele><time>2026-04-05T09:23:35Z</time></trkpt><trkpt lat="44.80584116784907" lon="9.617795904973798"><ele>384.0</ele><time>2026-04-05T09:23:37Z</time></trkpt><trkpt lat="44.80577863660719" lon="9.617864389849323"><ele>388.6666666666667</ele><time>2026-04-05T09:23:38Z</time></trkpt><trkpt lat="44.80572047977707" lon="9.617924981322497"><ele>393.33333333333337</ele><time>2026-04-05T09:23:39Z</time></trkpt><trkpt lat="44.80565124923766" lon="9.618015613460162"><ele>398.0</ele><time>2026-04-05T09:23:41Z</time></trkpt><trkpt lat="44.80552858831078" lon="9.618054064154462"><ele>402.6666666666667</ele><time>2026-04-05T09:23:43Z</time></trkpt><trkpt lat="44.80546659931943" lon="9.618110743710464"><ele>407.33333333333337</ele><time>2026-04-05T09:23:44Z</time></trkpt><trkpt lat="44.80541826992592" lon="9.618199478490743"><ele>412.0</ele><time>2026-04-05T09:23:45Z</time></trkpt><trkpt lat="44.80536585445194" lon="9.618268769058927"><ele>412.00000000000006</ele><time>2026-04-05T09:23:46Z</time></trkpt><trkpt lat="44.805309350686194" lon="9.61831987594369"><ele>412.0</ele><time>2026-04-05T09:23:47Z</time></trkpt><trkpt lat="44.805257214970695" lon="9.618385413176622"><ele>412.0</ele><time>2026-04-05T09:23:48Z</time></trkpt><trkpt lat="44.805170509619074" lon="9.618487241807275"><ele>412.0</ele><time>2026-04-05T09:23:50Z</time></trkpt><trkpt lat="44.80509041910912" lon="9.618502292364816"><ele>412.00000000000006</ele><time>2026-04-05T09:23:51Z</time></trkpt><trkpt lat="44.80500293945101" lon="9.6185450543711"><ele>412.0</ele><time>2026-04-05T09:23:53Z</time></trkpt><trkpt lat="44.804937991917235" lon="9.618620553269675"><ele>416.5</ele><time>2026-04-05T09:23:55Z</time></trkpt><trkpt lat="44.8047645233087" lon="9.618775242976557"><ele>421.0</ele><time>2026-04-05T09:23:57Z</time></trkpt><trkpt lat="44.804727566768705" lon="9.618866638338782"><ele>425.5</ele><time>2026-04-05T09:23:58Z</time></trkpt><trkpt lat="44.80466254189984" lon="9.618985029575065"><ele>430.0</ele><time>2026-04-05T09:24:00Z</time></trkpt><trkpt lat="44.80458699947792" lon="9.619126659979285"><ele>430.00000000000006</ele><time>2026-04-05T09:24:02Z</time></trkpt><trkpt lat="44.80454403178314" lon="9.619219423570957"><ele>430.0</ele><time>2026-04-05T09:24:03Z</time></trkpt><trkpt lat="44.80450704075027" lon="9.61930788628055"><ele>430.0</ele><time>2026-04-05T09:24:04Z</time></trkpt><trkpt lat="44.804462383760615" lon="9.619374192394595"><ele>430.0</ele><time>2026-04-05T09:24:05Z</time></trkpt><trkpt lat="44.804357298702165" lon="9.619470753885913"><ele>430.00000000000006</ele><time>2026-04-05T09:24:07Z</time></trkpt><trkpt lat="44.804335307320386" lon="9.61956661804012"><ele>430.0</ele><time>2026-04-05T09:24:08Z</time></trkpt><trkpt lat="44.80429051535908" lon="9.61965441503783"><ele>432.4</ele><time>2026-04-05T09:24:09Z</time></trkpt><trkpt lat="44.80424492806166" lon="9.619727243510713"><ele>434.8</ele><time>2026-04-05T09:24:10Z</time></trkpt><trkpt lat="44.80419477756378" lon="9.619789424174819"><ele>437.20000000000005</ele><time>2026-04-05T09:24:11Z</time></trkpt><trkpt lat="44.8040974906305" lon="9.619740680153123"><ele>439.6</ele><time>2026-04-05T09:24:13Z</time></trkpt><trkpt lat="44.80399867404064" lon="9.619688008824848"><ele>442.0</ele><time>2026-04-05T09:24:15Z</time></trkpt><trkpt lat="44.80388222477631" lon="9.61979272561828"><ele>442.00000000000006</ele><time>2026-04-05T09:24:17Z</time></trkpt><trkpt lat="44.80382541562434" lon="9.619873699712972"><ele>442.0</ele><time>2026-04-05T09:24:18Z</time></trkpt><trkpt lat="44.80377075338768" lon="9.619929920340978"><ele>442.0</ele><time>2026-04-05T09:24:19Z</time></trkpt><trkpt lat="44.803695442869234" lon="9.619973082146405"><ele>442.0</ele><time>2026-04-05T09:24:20Z</time></trkpt><trkpt lat="44.80362824285401" lon="9.62002030059944"><ele>442.00000000000006</ele><time>2026-04-05T09:24:21Z</time></trkpt><trkpt lat="44.80351524921488" lon="9.620035511922602"><ele>442.0</ele><time>2026-04-05T09:24:23Z</time></trkpt><trkpt lat="44.80344593246259" lon="9.620028738499588"><ele>445.40000000000003</ele><time>2026-04-05T09:24:24Z</time></trkpt><trkpt lat="44.80334236542725" lon="9.620108401077667"><ele>448.80000000000007</ele><time>2026-04-05T09:24:26Z</time></trkpt><trkpt lat="44.803267421647746" lon="9.620198669420704"><ele>452.2</ele><time>2026-04-05T09:24:28Z</time></trkpt><trkpt lat="44.803245764804046" lon="9.620322330152078"><ele>455.6</ele><time>2026-04-05T09:24:29Z</time></trkpt><trkpt lat="44.803221959098984" lon="9.620424454844018"><ele>459.0</ele><time>2026-04-05T09:24:30Z</time></trkpt><trkpt lat="44.8031785582072" lon="9.620506062802106"><ele>459.8333333333333</ele><time>2026-04-05T09:24:31Z</time></trkpt><trkpt lat="44.80313647482391" lon="9.620572074539101"><ele>460.66666666666663</ele><time>2026-04-05T09:24:32Z</time></trkpt><trkpt lat="44.80308944144578" lon="9.620724286201936"><ele>461.5</ele><time>2026-04-05T09:24:34Z</time></trkpt><trkpt lat="44.80301424665997" lon="9.620851721455272"><ele>462.3333333333333</ele><time>2026-04-05T09:24:36Z</time></trkpt><trkpt lat="44.80295542642276" lon="9.620892524047827"><ele>463.16666666666663</ele><time>2026-04-05T09:24:37Z</time></trkpt><trkpt lat="44.80289086340642" lon="9.620936605896619"><ele>464.0</ele><time>2026-04-05T09:24:38Z</time></trkpt><trkpt lat="44.80278729314823" lon="9.62103472678309"><ele>466.0</ele><time>2026-04-05T09:24:40Z</time></trkpt><trkpt lat="44.802741235874414" lon="9.62119010431822"><ele>468.0</ele><time>2026-04-05T09:24:42Z</time></trkpt><trkpt lat="44.80265236437685" lon="9.621362425716878"><ele>470.0</ele><time>2026-04-05T09:24:44Z</time></trkpt><trkpt lat="44.802623503008164" lon="9.621461620056763"><ele>472.0</ele><time>2026-04-05T09:24:46Z</time></trkpt><trkpt lat="44.802555958999726" lon="9.621500092901309"><ele>474.0</ele><time>2026-04-05T09:24:52Z</time></trkpt><trkpt lat="44.80254619923299" lon="9.621613429244341"><ele>474.0</ele><time>2026-04-05T09:24:55Z</time></trkpt><trkpt lat="44.80258238776923" lon="9.62171233617343"><ele>474.0</ele><time>2026-04-05T09:24:57Z</time></trkpt><trkpt lat="44.802631478428054" lon="9.621839870837935"><ele>474.0</ele><time>2026-04-05T09:24:58Z</time></trkpt><trkpt lat="44.802677620366545" lon="9.621954405733923"><ele>474.0</ele><time>2026-04-05T09:24:59Z</time></trkpt><trkpt lat="44.80268018488833" lon="9.622132815471074"><ele>474.0</ele><time>2026-04-05T09:25:01Z</time></trkpt><trkpt lat="44.80263862603018" lon="9.622243180449555"><ele>479.6</ele><time>2026-04-05T09:25:03Z</time></trkpt><trkpt lat="44.802493105286345" lon="9.622310420504153"><ele>485.2</ele><time>2026-04-05T09:25:05Z</time></trkpt><trkpt lat="44.802376024479905" lon="9.622267276032042"><ele>490.80000000000007</ele><time>2026-04-05T09:25:06Z</time></trkpt><trkpt lat="44.80228863589119" lon="9.622240686702474"><ele>496.40000000000003</ele><time>2026-04-05T09:25:07Z</time></trkpt><trkpt lat="44.80221573071772" lon="9.622226283828493"><ele>502.0</ele><time>2026-04-05T09:25:08Z</time></trkpt><trkpt lat="44.80214731457711" lon="9.622247662203788"><ele>502.00000000000006</ele><time>2026-04-05T09:25:09Z</time></trkpt><trkpt lat="44.80206755629598" lon="9.622299272387307"><ele>502.0</ele><time>2026-04-05T09:25:10Z</time></trkpt><trkpt lat="44.80199211395528" lon="9.62234159857462"><ele>502.0</ele><time>2026-04-05T09:25:11Z</time></trkpt><trkpt lat="44.80192187754192" lon="9.622365757843012"><ele>502.0</ele><time>2026-04-05T09:25:12Z</time></trkpt><trkpt lat="44.80185834188289" lon="9.622382726471852"><ele>502.00000000000006</ele><time>2026-04-05T09:25:13Z</time></trkpt><trkpt lat="44.80175405701182" lon="9.622454885038474"><ele>502.0</ele><time>2026-04-05T09:25:15Z</time></trkpt><trkpt lat="44.801712674126364" lon="9.62252347154899"><ele>504.00000000000006</ele><time>2026-04-05T09:25:16Z</time></trkpt><trkpt lat="44.8016715463571" lon="9.62262529381381"><ele>506.0</ele><time>2026-04-05T09:25:17Z</time></trkpt><trkpt lat="44.80162474612966" lon="9.62269812863077"><ele>508.0</ele><time>2026-04-05T09:25:18Z</time></trkpt><trkpt lat="44.80152086051015" lon="9.62273590230273"><ele>510.0</ele><time>2026-04-05T09:25:20Z</time></trkpt><trkpt lat="44.80146492833561" lon="9.622785411167198"><ele>512.0</ele><time>2026-04-05T09:25:21Z</time></trkpt><trkpt lat="44.80140994773126" lon="9.622859963443446"><ele>514.0</ele><time>2026-04-05T09:25:22Z</time></trkpt><trkpt lat="44.80137152846284" lon="9.62295438034815"><ele>514.0</ele><time>2026-04-05T09:25:24Z</time></trkpt><trkpt lat="44.801310072657806" lon="9.62292680738931"><ele>514.0</ele><time>2026-04-05T09:25:26Z</time></trkpt><trkpt lat="44.80120815462024" lon="9.622896245326116"><ele>514.0</ele><time>2026-04-05T09:25:28Z</time></trkpt><trkpt lat="44.80111705638452" lon="9.62292462382974"><ele>514.0</ele><time>2026-04-05T09:25:31Z</time></trkpt><trkpt lat="44.80106949327542" lon="9.62284966246014"><ele>514.0</ele><time>2026-04-05T09:25:33Z</time></trkpt><trkpt lat="44.80101567916141" lon="9.622716803145076"><ele>514.0</ele><time>2026-04-05T09:25:35Z</time></trkpt><trkpt lat="44.80096779877001" lon="9.622565895171737"><ele>515.0</ele><time>2026-04-05T09:25:37Z</time></trkpt><trkpt lat="44.80095739431753" lon="9.622409769375531"><ele>516.0</ele><time>2026-04-05T09:25:39Z</time></trkpt><trkpt lat="44.80093518296254" lon="9.62228909513671"><ele>517.0</ele><time>2026-04-05T09:25:41Z</time></trkpt><trkpt lat="44.800842224749125" lon="9.622241097894367"><ele>518.0</ele><time>2026-04-05T09:25:43Z</time></trkpt><trkpt lat="44.800764354634104" lon="9.622231745436387"><ele>519.0</ele><time>2026-04-05T09:25:44Z</time></trkpt><trkpt lat="44.80069861525594" lon="9.62222858181258"><ele>520.0</ele><time>2026-04-05T09:25:45Z</time></trkpt><trkpt lat="44.80060080308138" lon="9.622250890251278"><ele>520.0</ele><time>2026-04-05T09:25:47Z</time></trkpt><trkpt lat="44.80051506877149" lon="9.622295001197289"><ele>520.0</ele><time>2026-04-05T09:25:49Z</time></trkpt><trkpt lat="44.80044546788863" lon="9.622303349711194"><ele>520.0</ele><time>2026-04-05T09:25:50Z</time></trkpt><trkpt lat="44.800356515080885" lon="9.622358091364816"><ele>520.0</ele><time>2026-04-05T09:25:52Z</time></trkpt><trkpt lat="44.800250951118514" lon="9.622409484389165"><ele>520.0</ele><time>2026-04-05T09:25:54Z</time></trkpt><trkpt lat="44.80017513636806" lon="9.622415745299884"><ele>520.0</ele><time>2026-04-05T09:25:57Z</time></trkpt><trkpt lat="44.800106420063514" lon="9.622368008796442"><ele>520.75</ele><time>2026-04-05T09:26:00Z</time></trkpt><trkpt lat="44.80003712615447" lon="9.622200535405472"><ele>521.5</ele><time>2026-04-05T09:26:02Z</time></trkpt><trkpt lat="44.7999857273138" lon="9.622066446691678"><ele>522.25</ele><time>2026-04-05T09:26:03Z</time></trkpt><trkpt lat="44.79991263561915" lon="9.621910321179984"><ele>523.0</ele><time>2026-04-05T09:26:04Z</time></trkpt><trkpt lat="44.79985370944465" lon="9.621780484196496"><ele>521.5</ele><time>2026-04-05T09:26:05Z</time></trkpt><trkpt lat="44.799796140071294" lon="9.62170025268673"><ele>520.0</ele><time>2026-04-05T09:26:06Z</time></trkpt><trkpt lat="44.79972198546193" lon="9.621626021872665"><ele>518.5</ele><time>2026-04-05T09:26:07Z</time></trkpt><trkpt lat="44.79965900675907" lon="9.621579153900578"><ele>517.0</ele><time>2026-04-05T09:26:08Z</time></trkpt><trkpt lat="44.799590089116684" lon="9.62156608194176"><ele>515.5</ele><time>2026-04-05T09:26:09Z</time></trkpt><trkpt lat="44.799524761436146" lon="9.621585478969022"><ele>514.0</ele><time>2026-04-05T09:26:10Z</time></trkpt><trkpt lat="44.799417135902424" lon="9.62159688705064"><ele>514.0</ele><time>2026-04-05T09:26:11Z</time></trkpt><trkpt lat="44.79933615630636" lon="9.621570664648845"><ele>514.0</ele><time>2026-04-05T09:26:12Z</time></trkpt><trkpt lat="44.79926433939083" lon="9.621568224066564"><ele>514.0</ele><time>2026-04-05T09:26:13Z</time></trkpt><trkpt lat="44.79919011021939" lon="9.62158707441543"><ele>514.0</ele><time>2026-04-05T09:26:14Z</time></trkpt><trkpt lat="44.799097917527654" lon="9.621622249573774"><ele>514.0</ele><time>2026-04-05T09:26:16Z</time></trkpt><trkpt lat="44.79898539120112" lon="9.621688970847613"><ele>514.0</ele><time>2026-04-05T09:26:18Z</time></trkpt><trkpt lat="44.798918674914624" lon="9.621767311465707"><ele>516.3333333333334</ele><time>2026-04-05T09:26:19Z</time></trkpt><trkpt lat="44.79885706902322" lon="9.621839375073536"><ele>518.6666666666667</ele><time>2026-04-05T09:26:20Z</time></trkpt><trkpt lat="44.79877736110131" lon="9.621900555844471"><ele>521.0</ele><time>2026-04-05T09:26:21Z</time></trkpt><trkpt lat="44.79869478102089" lon="9.621945790713193"><ele>523.3333333333334</ele><time>2026-04-05T09:26:22Z</time></trkpt><trkpt lat="44.79862058592135" lon="9.622006218087918"><ele>525.6666666666666</ele><time>2026-04-05T09:26:23Z</time></trkpt><trkpt lat="44.79854061758591" lon="9.62203933195891"><ele>528.0</ele><time>2026-04-05T09:26:24Z</time></trkpt><trkpt lat="44.79847420636399" lon="9.622029069967361"><ele>528.0</ele><time>2026-04-05T09:26:25Z</time></trkpt><trkpt lat="44.79840347770592" lon="9.6219430464314"><ele>528.0</ele><time>2026-04-05T09:26:27Z</time></trkpt><trkpt lat="44.798340544470456" lon="9.621893365869123"><ele>528.0</ele><time>2026-04-05T09:26:29Z</time></trkpt><trkpt lat="44.798262077460414" lon="9.621841278789772"><ele>528.0</ele><time>2026-04-05T09:26:30Z</time></trkpt><trkpt lat="44.79820011115662" lon="9.621814525537921"><ele>528.0</ele><time>2026-04-05T09:26:31Z</time></trkpt><trkpt lat="44.79810982506096" lon="9.621786010064412"><ele>528.0</ele><time>2026-04-05T09:26:33Z</time></trkpt><trkpt lat="44.79804689425257" lon="9.621742179534143"><ele>528.0</ele><time>2026-04-05T09:26:34Z</time></trkpt><trkpt lat="44.797974899165354" lon="9.621721763652927"><ele>528.0</ele><time>2026-04-05T09:26:35Z</time></trkpt><trkpt lat="44.79790269555303" lon="9.621695168567198"><ele>528.0</ele><time>2026-04-05T09:26:36Z</time></trkpt><trkpt lat="44.797810118216454" lon="9.62163772069222"><ele>528.0</ele><time>2026-04-05T09:26:38Z</time></trkpt><trkpt lat="44.797672698672365" lon="9.621630053884907"><ele>528.0</ele><time>2026-04-05T09:26:40Z</time></trkpt><trkpt lat="44.79759716856865" lon="9.621634572466903"><ele>530.5</ele><time>2026-04-05T09:26:41Z</time></trkpt><trkpt lat="44.797492408971486" lon="9.62160637885627"><ele>533.0</ele><time>2026-04-05T09:26:43Z</time></trkpt><trkpt lat="44.79741025243328" lon="9.621569280138463"><ele>535.5</ele><time>2026-04-05T09:26:45Z</time></trkpt><trkpt lat="44.79722298963415" lon="9.621553723436454"><ele>538.0</ele><time>2026-04-05T09:26:48Z</time></trkpt><trkpt lat="44.7971312228764" lon="9.621540204800732"><ele>538.0</ele><time>2026-04-05T09:26:50Z</time></trkpt><trkpt lat="44.79702544082654" lon="9.62151190530572"><ele>538.0</ele><time>2026-04-05T09:26:52Z</time></trkpt><trkpt lat="44.79695607290945" lon="9.621395903142435"><ele>538.0</ele><time>2026-04-05T09:26:54Z</time></trkpt><trkpt lat="44.79687769660033" lon="9.621287717321641"><ele>538.0</ele><time>2026-04-05T09:26:56Z</time></trkpt><trkpt lat="44.79675481838797" lon="9.621157309858944"><ele>539.3333333333334</ele><time>2026-04-05T09:26:58Z</time></trkpt><trkpt lat="44.79668404626851" lon="9.621052397731763"><ele>540.6666666666667</ele><time>2026-04-05T09:26:59Z</time></trkpt><trkpt lat="44.796631558438946" lon="9.620971863647327"><ele>542.0</ele><time>2026-04-05T09:27:00Z</time></trkpt><trkpt lat="44.796584051970264" lon="9.620906893438253"><ele>543.3333333333334</ele><time>2026-04-05T09:27:01Z</time></trkpt><trkpt lat="44.796532078285736" lon="9.620839798750195"><ele>544.6666666666666</ele><time>2026-04-05T09:27:02Z</time></trkpt><trkpt lat="44.796457843276194" lon="9.620774833884292"><ele>546.0</ele><time>2026-04-05T09:27:03Z</time></trkpt><trkpt lat="44.796376388768074" lon="9.62072468536635"><ele>546.0</ele><time>2026-04-05T09:27:04Z</time></trkpt><trkpt lat="44.796293441998124" lon="9.620669320951107"><ele>546.0</ele><time>2026-04-05T09:27:05Z</time></trkpt><trkpt lat="44.79621229165005" lon="9.620618885242871"><ele>546.0</ele><time>2026-04-05T09:27:06Z</time></trkpt><trkpt lat="44.796130458917034" lon="9.620587202055725"><ele>546.0</ele><time>2026-04-05T09:27:07Z</time></trkpt><trkpt lat="44.79600172323622" lon="9.620649730148637"><ele>546.0</ele><time>2026-04-05T09:27:09Z</time></trkpt><trkpt lat="44.79594613551465" lon="9.620725478383662"><ele>547.8</ele><time>2026-04-05T09:27:10Z</time></trkpt><trkpt lat="44.79588523984215" lon="9.62086304422652"><ele>549.6</ele><time>2026-04-05T09:27:12Z</time></trkpt><trkpt lat="44.79581736591536" lon="9.621001833350633"><ele>551.4</ele><time>2026-04-05T09:27:14Z</time></trkpt><trkpt lat="44.79579681293884" lon="9.621100801693414"><ele>553.2</ele><time>2026-04-05T09:27:15Z</time></trkpt><trkpt lat="44.79576154449447" lon="9.621238379290181"><ele>555.0</ele><time>2026-04-05T09:27:17Z</time></trkpt><trkpt lat="44.79572817747322" lon="9.621386609192397"><ele>557.75</ele><time>2026-04-05T09:27:19Z</time></trkpt><trkpt lat="44.79566538371272" lon="9.621507203016371"><ele>560.5</ele><time>2026-04-05T09:27:21Z</time></trkpt><trkpt lat="44.79556018513008" lon="9.621588488975002"><ele>563.25</ele><time>2026-04-05T09:27:23Z</time></trkpt><trkpt lat="44.79544742456642" lon="9.621685569833367"><ele>566.0</ele><time>2026-04-05T09:27:25Z</time></trkpt><trkpt lat="44.79535268860953" lon="9.62168584534393"><ele>566.0</ele><time>2026-04-05T09:27:26Z</time></trkpt><trkpt lat="44.795239516091605" lon="9.621689573445984"><ele>566.0</ele><time>2026-04-05T09:27:27Z</time></trkpt><trkpt lat="44.795123238686934" lon="9.621734480504273"><ele>566.0</ele><time>2026-04-05T09:27:28Z</time></trkpt><trkpt lat="44.79500912246719" lon="9.621782780574145"><ele>566.0</ele><time>2026-04-05T09:27:29Z</time></trkpt><trkpt lat="44.794926980720845" lon="9.621824055232665"><ele>566.0</ele><time>2026-04-05T09:27:30Z</time></trkpt><trkpt lat="44.7948649602872" lon="9.621862969530522"><ele>568.0</ele><time>2026-04-05T09:27:31Z</time></trkpt><trkpt lat="44.794807860453545" lon="9.621913195522378"><ele>570.0</ele><time>2026-04-05T09:27:32Z</time></trkpt><trkpt lat="44.7947558084059" lon="9.621968714962797"><ele>572.0</ele><time>2026-04-05T09:27:33Z</time></trkpt><trkpt lat="44.79470759546996" lon="9.62203074502076"><ele>574.0</ele><time>2026-04-05T09:27:34Z</time></trkpt><trkpt lat="44.794678571333016" lon="9.622112128723437"><ele>576.0</ele><time>2026-04-05T09:27:35Z</time></trkpt><trkpt lat="44.794667308432935" lon="9.622199863854137"><ele>578.0</ele><time>2026-04-05T09:27:36Z</time></trkpt><trkpt lat="44.79467081399678" lon="9.622339501397304"><ele>580.0</ele><time>2026-04-05T09:27:38Z</time></trkpt><trkpt lat="44.79471901392213" lon="9.62243574217121"><ele>581.2</ele><time>2026-04-05T09:27:40Z</time></trkpt><trkpt lat="44.794821600549234" lon="9.622460450352001"><ele>582.4</ele><time>2026-04-05T09:27:42Z</time></trkpt><trkpt lat="44.79490519167135" lon="9.622533532139638"><ele>583.6</ele><time>2026-04-05T09:27:44Z</time></trkpt><trkpt lat="44.79491800361874" lon="9.622651473471564"><ele>584.8</ele><time>2026-04-05T09:27:46Z</time></trkpt><trkpt lat="44.79486708656405" lon="9.622804158857024"><ele>586.0</ele><time>2026-04-05T09:27:48Z</time></trkpt><trkpt lat="44.79482933011777" lon="9.622910090071379"><ele>586.8333333333334</ele><time>2026-04-05T09:27:49Z</time></trkpt><trkpt lat="44.79482117067869" lon="9.623022945601551"><ele>587.6666666666667</ele><time>2026-04-05T09:27:50Z</time></trkpt><trkpt lat="44.794816251298634" lon="9.623142513738841"><ele>588.5</ele><time>2026-04-05T09:27:51Z</time></trkpt><trkpt lat="44.794815957972936" lon="9.623246233685563"><ele>589.3333333333334</ele><time>2026-04-05T09:27:52Z</time></trkpt><trkpt lat="44.794865596323135" lon="9.623388638048274"><ele>590.1666666666666</ele><time>2026-04-05T09:27:54Z</time></trkpt><trkpt lat="44.79492038367085" lon="9.623467430805034"><ele>591.0</ele><time>2026-04-05T09:27:55Z</time></trkpt><trkpt lat="44.79497830838337" lon="9.623560942811046"><ele>591.8</ele><time>2026-04-05T09:27:56Z</time></trkpt><trkpt lat="44.79504950509536" lon="9.623673232217993"><ele>592.6</ele><time>2026-04-05T09:27:57Z</time></trkpt><trkpt lat="44.79512040033836" lon="9.623794669583335"><ele>593.4</ele><time>2026-04-05T09:27:58Z</time></trkpt><trkpt lat="44.79518738689892" lon="9.623892327201979"><ele>594.2</ele><time>2026-04-05T09:27:59Z</time></trkpt><trkpt lat="44.79525090165579" lon="9.623993033052416"><ele>595.0</ele><time>2026-04-05T09:28:00Z</time></trkpt><trkpt lat="44.79529934566203" lon="9.624084980929755"><ele>595.6666666666667</ele><time>2026-04-05T09:28:01Z</time></trkpt><trkpt lat="44.795330109497996" lon="9.624244191456903"><ele>596.3333333333334</ele><time>2026-04-05T09:28:03Z</time></trkpt><trkpt lat="44.79531781957103" lon="9.624339060990554"><ele>597.0</ele><time>2026-04-05T09:28:04Z</time></trkpt><trkpt lat="44.79529682179214" lon="9.624436614040457"><ele>597.6666666666666</ele><time>2026-04-05T09:28:05Z</time></trkpt><trkpt lat="44.79526709720403" lon="9.62453086750266"><ele>598.3333333333333</ele><time>2026-04-05T09:28:06Z</time></trkpt><trkpt lat="44.79522265974091" lon="9.624608103365839"><ele>599.0</ele><time>2026-04-05T09:28:07Z</time></trkpt><trkpt lat="44.79516478397764" lon="9.624672465837445"><ele>599.1666666666666</ele><time>2026-04-05T09:28:08Z</time></trkpt><trkpt lat="44.79511377915951" lon="9.624728702086875"><ele>599.3333333333333</ele><time>2026-04-05T09:28:09Z</time></trkpt><trkpt lat="44.79505176510961" lon="9.62479171616885"><ele>599.5</ele><time>2026-04-05T09:28:10Z</time></trkpt><trkpt lat="44.7949792509576" lon="9.624868900485207"><ele>599.6666666666666</ele><time>2026-04-05T09:28:11Z</time></trkpt><trkpt lat="44.794910691870875" lon="9.624952565780443"><ele>599.8333333333334</ele><time>2026-04-05T09:28:12Z</time></trkpt><trkpt lat="44.79484906707525" lon="9.625032809514707"><ele>600.0</ele><time>2026-04-05T09:28:13Z</time></trkpt><trkpt lat="44.79478716305351" lon="9.625115924126817"><ele>600.0</ele><time>2026-04-05T09:28:14Z</time></trkpt><trkpt lat="44.794726384225015" lon="9.62520881262856"><ele>600.0</ele><time>2026-04-05T09:28:15Z</time></trkpt><trkpt lat="44.79465065538114" lon="9.62529273470718"><ele>600.0</ele><time>2026-04-05T09:28:16Z</time></trkpt><trkpt lat="44.79460265850976" lon="9.625417540141218"><ele>600.0</ele><time>2026-04-05T09:28:17Z</time></trkpt><trkpt lat="44.794547131426995" lon="9.625533508012085"><ele>600.0</ele><time>2026-04-05T09:28:18Z</time></trkpt><trkpt lat="44.79449764831354" lon="9.62565884034907"><ele>600.4</ele><time>2026-04-05T09:28:19Z</time></trkpt><trkpt lat="44.79443540053446" lon="9.625776357049851"><ele>600.8</ele><time>2026-04-05T09:28:20Z</time></trkpt><trkpt lat="44.794386145588405" lon="9.625904470113575"><ele>601.2</ele><time>2026-04-05T09:28:21Z</time></trkpt><trkpt lat="44.79433101654933" lon="9.626042077979216"><ele>601.6</ele><time>2026-04-05T09:28:22Z</time></trkpt><trkpt lat="44.79427406087144" lon="9.626177632487087"><ele>602.0</ele><time>2026-04-05T09:28:23Z</time></trkpt><trkpt lat="44.79422165224256" lon="9.626310494888688"><ele>598.25</ele><time>2026-04-05T09:28:24Z</time></trkpt><trkpt lat="44.794186130781384" lon="9.626447252421658"><ele>594.5</ele><time>2026-04-05T09:28:25Z</time></trkpt><trkpt lat="44.794127584472086" lon="9.626592630615633"><ele>590.75</ele><time>2026-04-05T09:28:26Z</time></trkpt><trkpt lat="44.7940689624584" lon="9.626762609788369"><ele>587.0</ele><time>2026-04-05T09:28:27Z</time></trkpt><trkpt lat="44.79401065414228" lon="9.626927605516643"><ele>587.5</ele><time>2026-04-05T09:28:28Z</time></trkpt><trkpt lat="44.7939294274245" lon="9.627068158298238"><ele>588.0</ele><time>2026-04-05T09:28:29Z</time></trkpt><trkpt lat="44.79386091220685" lon="9.627217595334484"><ele>588.5</ele><time>2026-04-05T09:28:30Z</time></trkpt><trkpt lat="44.79379957953661" lon="9.627366542779285"><ele>589.0</ele><time>2026-04-05T09:28:31Z</time></trkpt><trkpt lat="44.79375401910264" lon="9.627494957591562"><ele>589.0</ele><time>2026-04-05T09:28:32Z</time></trkpt><trkpt lat="44.793707042701264" lon="9.627594316627532"><ele>589.0</ele><time>2026-04-05T09:28:33Z</time></trkpt><trkpt lat="44.79365829872614" lon="9.627687984439293"><ele>589.0</ele><time>2026-04-05T09:28:34Z</time></trkpt><trkpt lat="44.79356332235462" lon="9.627695285792317"><ele>589.0</ele><time>2026-04-05T09:28:35Z</time></trkpt><trkpt lat="44.7934724799607" lon="9.627720743456845"><ele>589.0</ele><time>2026-04-05T09:28:36Z</time></trkpt><trkpt lat="44.79340127910512" lon="9.627770514468036"><ele>589.0</ele><time>2026-04-05T09:28:37Z</time></trkpt><trkpt lat="44.79333909470261" lon="9.62780772415097"><ele>586.0</ele><time>2026-04-05T09:28:38Z</time></trkpt><trkpt lat="44.79326551608453" lon="9.627853535650175"><ele>583.0</ele><time>2026-04-05T09:28:40Z</time></trkpt><trkpt lat="44.793204807941336" lon="9.627890606433791"><ele>580.0</ele><time>2026-04-05T09:28:48Z</time></trkpt><trkpt lat="44.79321348906069" lon="9.62799747882223"><ele>577.0</ele><time>2026-04-05T09:28:50Z</time></trkpt><trkpt lat="44.793257919819716" lon="9.628177992442877"><ele>574.0</ele><time>2026-04-05T09:28:52Z</time></trkpt><trkpt lat="44.79327444627626" lon="9.628267799220636"><ele>571.0</ele><time>2026-04-05T09:28:53Z</time></trkpt><trkpt lat="44.793296584134" lon="9.628359165969682"><ele>571.0</ele><time>2026-04-05T09:28:54Z</time></trkpt><trkpt lat="44.79332398379141" lon="9.628467062743194"><ele>571.0</ele><time>2026-04-05T09:28:55Z</time></trkpt><trkpt lat="44.793354193094096" lon="9.628594776596907"><ele>571.0</ele><time>2026-04-05T09:28:56Z</time></trkpt><trkpt lat="44.79338931017344" lon="9.628732502197433"><ele>571.0</ele><time>2026-04-05T09:28:57Z</time></trkpt><trkpt lat="44.79343263009055" lon="9.628887296097293"><ele>571.0</ele><time>2026-04-05T09:28:58Z</time></trkpt><trkpt lat="44.79348420488944" lon="9.629055493700667"><ele>572.4</ele><time>2026-04-05T09:28:59Z</time></trkpt><trkpt lat="44.79353279141048" lon="9.62919534790313"><ele>573.8</ele><time>2026-04-05T09:29:00Z</time></trkpt><trkpt lat="44.79358496784582" lon="9.629323936764726"><ele>575.1999999999999</ele><time>2026-04-05T09:29:01Z</time></trkpt><trkpt lat="44.79362990766649" lon="9.629424382242355"><ele>576.6</ele><time>2026-04-05T09:29:02Z</time></trkpt><trkpt lat="44.793652079647536" lon="9.629545841668937"><ele>578.0</ele><time>2026-04-05T09:29:04Z</time></trkpt><trkpt lat="44.793583987094934" lon="9.629729960519143"><ele>578.0</ele><time>2026-04-05T09:29:06Z</time></trkpt><trkpt lat="44.793543878225016" lon="9.629828495671179"><ele>578.0</ele><time>2026-04-05T09:29:07Z</time></trkpt><trkpt lat="44.79349835268012" lon="9.629921926932303"><ele>578.0</ele><time>2026-04-05T09:29:08Z</time></trkpt><trkpt lat="44.793465108916195" lon="9.630021523603695"><ele>578.0</ele><time>2026-04-05T09:29:09Z</time></trkpt><trkpt lat="44.793446456168276" lon="9.630130490313501"><ele>578.0</ele><time>2026-04-05T09:29:10Z</time></trkpt><trkpt lat="44.79343004057514" lon="9.63026048991216"><ele>578.0</ele><time>2026-04-05T09:29:11Z</time></trkpt><trkpt lat="44.79341323808467" lon="9.630392557353433"><ele>574.8333333333333</ele><time>2026-04-05T09:29:12Z</time></trkpt><trkpt lat="44.79339900850603" lon="9.630528411758961"><ele>571.6666666666666</ele><time>2026-04-05T09:29:13Z</time></trkpt><trkpt lat="44.79337552868999" lon="9.630657641057915"><ele>568.5</ele><time>2026-04-05T09:29:14Z</time></trkpt><trkpt lat="44.793332220049926" lon="9.630771203514575"><ele>565.3333333333334</ele><time>2026-04-05T09:29:15Z</time></trkpt><trkpt lat="44.79327788477924" lon="9.630843558697723"><ele>562.1666666666667</ele><time>2026-04-05T09:29:16Z</time></trkpt><trkpt lat="44.79321610254917" lon="9.630894189507424"><ele>559.0</ele><time>2026-04-05T09:29:17Z</time></trkpt><trkpt lat="44.793139538669514" lon="9.63093797243383"><ele>559.0</ele><time>2026-04-05T09:29:19Z</time></trkpt><trkpt lat="44.793055594016764" lon="9.630821524279817"><ele>559.0</ele><time>2026-04-05T09:29:21Z</time></trkpt><trkpt lat="44.79298454883201" lon="9.630709496065363"><ele>559.0</ele><time>2026-04-05T09:29:22Z</time></trkpt><trkpt lat="44.792895900434885" lon="9.630560814690751"><ele>559.0</ele><time>2026-04-05T09:29:23Z</time></trkpt><trkpt lat="44.79279121785134" lon="9.630438753392092"><ele>559.0</ele><time>2026-04-05T09:29:24Z</time></trkpt><trkpt lat="44.79269380338729" lon="9.630347221957015"><ele>559.0</ele><time>2026-04-05T09:29:25Z</time></trkpt><trkpt lat="44.792615207896006" lon="9.630232066974065"><ele>559.0</ele><time>2026-04-05T09:29:26Z</time></trkpt><trkpt lat="44.792526257301596" lon="9.63011755760623"><ele>559.0</ele><time>2026-04-05T09:29:27Z</time></trkpt><trkpt lat="44.792449648172166" lon="9.62998876360073"><ele>557.0</ele><time>2026-04-05T09:29:28Z</time></trkpt><trkpt lat="44.79238769120923" lon="9.629857476902655"><ele>555.0</ele><time>2026-04-05T09:29:29Z</time></trkpt><trkpt lat="44.79232393293362" lon="9.629739969783268"><ele>553.0</ele><time>2026-04-05T09:29:30Z</time></trkpt><trkpt lat="44.79226419528008" lon="9.629614158169836"><ele>551.0</ele><time>2026-04-05T09:29:31Z</time></trkpt><trkpt lat="44.79217718139072" lon="9.62945971931806"><ele>551.0</ele><time>2026-04-05T09:29:32Z</time></trkpt><trkpt lat="44.79208493379451" lon="9.629307707843681"><ele>551.0</ele><time>2026-04-05T09:29:33Z</time></trkpt><trkpt lat="44.79200755932409" lon="9.629192134781741"><ele>551.0</ele><time>2026-04-05T09:29:34Z</time></trkpt><trkpt lat="44.79194020434165" lon="9.629110794006925"><ele>551.0</ele><time>2026-04-05T09:29:35Z</time></trkpt><trkpt lat="44.79185873693718" lon="9.62902538056829"><ele>551.0</ele><time>2026-04-05T09:29:36Z</time></trkpt><trkpt lat="44.791768774912896" lon="9.628927562324506"><ele>547.75</ele><time>2026-04-05T09:29:37Z</time></trkpt><trkpt lat="44.791675160234796" lon="9.628818058964143"><ele>544.5</ele><time>2026-04-05T09:29:38Z</time></trkpt><trkpt lat="44.79157773889792" lon="9.628709178696893"><ele>541.25</ele><time>2026-04-05T09:29:39Z</time></trkpt><trkpt lat="44.79148714242558" lon="9.62861433568259"><ele>538.0</ele><time>2026-04-05T09:29:40Z</time></trkpt><trkpt lat="44.791402338262245" lon="9.628524498076873"><ele>538.0</ele><time>2026-04-05T09:29:41Z</time></trkpt><trkpt lat="44.79132547097436" lon="9.628434393881374"><ele>538.0</ele><time>2026-04-05T09:29:42Z</time></trkpt><trkpt lat="44.79128472670684" lon="9.628324887354887"><ele>538.0</ele><time>2026-04-05T09:29:43Z</time></trkpt><trkpt lat="44.791259122477165" lon="9.628193785935709"><ele>538.0</ele><time>2026-04-05T09:29:44Z</time></trkpt><trkpt lat="44.7912477370669" lon="9.628019844751378"><ele>538.0</ele><time>2026-04-05T09:29:45Z</time></trkpt><trkpt lat="44.791237349565286" lon="9.62784096395164"><ele>537.6</ele><time>2026-04-05T09:29:46Z</time></trkpt><trkpt lat="44.79120737012908" lon="9.62768165358406"><ele>537.1999999999999</ele><time>2026-04-05T09:29:47Z</time></trkpt><trkpt lat="44.79117413496845" lon="9.62754562745947"><ele>536.8</ele><time>2026-04-05T09:29:48Z</time></trkpt><trkpt lat="44.79114994979231" lon="9.627445152436644"><ele>536.4</ele><time>2026-04-05T09:29:49Z</time></trkpt><trkpt lat="44.79110781616868" lon="9.627327889602777"><ele>536.0</ele><time>2026-04-05T09:29:51Z</time></trkpt><trkpt lat="44.79108314333743" lon="9.627242693124343"><ele>536.0</ele><time>2026-04-05T09:29:53Z</time></trkpt><trkpt lat="44.79105916661951" lon="9.627127270980566"><ele>536.0</ele><time>2026-04-05T09:29:55Z</time></trkpt><trkpt lat="44.79103684715072" lon="9.626950885918456"><ele>536.0</ele><time>2026-04-05T09:29:57Z</time></trkpt><trkpt lat="44.79104980246927" lon="9.626837887744912"><ele>536.0</ele><time>2026-04-05T09:29:58Z</time></trkpt><trkpt lat="44.79108513963998" lon="9.62672031312999"><ele>536.0</ele><time>2026-04-05T09:29:59Z</time></trkpt><trkpt lat="44.79112899826059" lon="9.626605308838721"><ele>535.8</ele><time>2026-04-05T09:30:00Z</time></trkpt><trkpt lat="44.79116454091806" lon="9.626481113211723"><ele>535.6</ele><time>2026-04-05T09:30:01Z</time></trkpt><trkpt lat="44.79117610948863" lon="9.626343234044402"><ele>535.4</ele><time>2026-04-05T09:30:02Z</time></trkpt><trkpt lat="44.791153701355576" lon="9.626190848239947"><ele>535.2</ele><time>2026-04-05T09:30:03Z</time></trkpt><trkpt lat="44.79111319001472" lon="9.626036569251095"><ele>535.0</ele><time>2026-04-05T09:30:04Z</time></trkpt><trkpt lat="44.79108053838462" lon="9.625878935967823"><ele>535.0</ele><time>2026-04-05T09:30:05Z</time></trkpt><trkpt lat="44.79105619622771" lon="9.625724141052086"><ele>535.0</ele><time>2026-04-05T09:30:06Z</time></trkpt><trkpt lat="44.791024106278726" lon="9.625582800853444"><ele>535.0</ele><time>2026-04-05T09:30:07Z</time></trkpt><trkpt lat="44.79099200668386" lon="9.625448590503849"><ele>535.0</ele><time>2026-04-05T09:30:08Z</time></trkpt><trkpt lat="44.790958155064374" lon="9.625322491818444"><ele>535.0</ele><time>2026-04-05T09:30:09Z</time></trkpt><trkpt lat="44.790911977899746" lon="9.62520138429263"><ele>530.75</ele><time>2026-04-05T09:30:10Z</time></trkpt><trkpt lat="44.79085069369825" lon="9.625075573939895"><ele>526.5</ele><time>2026-04-05T09:30:11Z</time></trkpt><trkpt lat="44.79077476014859" lon="9.624949203074932"><ele>522.25</ele><time>2026-04-05T09:30:12Z</time></trkpt><trkpt lat="44.79069582107449" lon="9.624830960436821"><ele>518.0</ele><time>2026-04-05T09:30:13Z</time></trkpt><trkpt lat="44.79060565749896" lon="9.62472114619629"><ele>518.0</ele><time>2026-04-05T09:30:14Z</time></trkpt><trkpt lat="44.790531734535335" lon="9.624617399578137"><ele>518.0</ele><time>2026-04-05T09:30:15Z</time></trkpt><trkpt lat="44.790464554580495" lon="9.624508471306232"><ele>518.0</ele><time>2026-04-05T09:30:16Z</time></trkpt><trkpt lat="44.79042109258791" lon="9.624374488109053"><ele>518.0</ele><time>2026-04-05T09:30:17Z</time></trkpt><trkpt lat="44.790401316560356" lon="9.624187457135411"><ele>518.0</ele><time>2026-04-05T09:30:18Z</time></trkpt><trkpt lat="44.79040262782232" lon="9.623963443373519"><ele>518.5</ele><time>2026-04-05T09:30:19Z</time></trkpt><trkpt lat="44.79041083068766" lon="9.623745010025932"><ele>519.0</ele><time>2026-04-05T09:30:20Z</time></trkpt><trkpt lat="44.79042753782923" lon="9.623568609934232"><ele>519.5</ele><time>2026-04-05T09:30:21Z</time></trkpt><trkpt lat="44.790470047954436" lon="9.623416047403554"><ele>520.0</ele><time>2026-04-05T09:30:22Z</time></trkpt><trkpt lat="44.79054237243232" lon="9.62326682599636"><ele>520.0</ele><time>2026-04-05T09:30:23Z</time></trkpt><trkpt lat="44.79061154172121" lon="9.623117706258414"><ele>520.0</ele><time>2026-04-05T09:30:24Z</time></trkpt><trkpt lat="44.790654085936126" lon="9.622961888176386"><ele>520.0</ele><time>2026-04-05T09:30:25Z</time></trkpt><trkpt lat="44.7906647779823" lon="9.622800320378502"><ele>520.0</ele><time>2026-04-05T09:30:26Z</time></trkpt><trkpt lat="44.790658134012496" lon="9.622640383771474"><ele>518.6</ele><time>2026-04-05T09:30:27Z</time></trkpt><trkpt lat="44.79064678371507" lon="9.622483909377799"><ele>517.2</ele><time>2026-04-05T09:30:28Z</time></trkpt><trkpt lat="44.790638900531725" lon="9.622338973264428"><ele>515.8</ele><time>2026-04-05T09:30:29Z</time></trkpt><trkpt lat="44.79064020381975" lon="9.622227051199816"><ele>514.4</ele><time>2026-04-05T09:30:30Z</time></trkpt><trkpt lat="44.790634645834004" lon="9.622107230889604"><ele>513.0</ele><time>2026-04-05T09:30:32Z</time></trkpt><trkpt lat="44.79053411602307" lon="9.622148304309471"><ele>513.0</ele><time>2026-04-05T09:30:35Z</time></trkpt><trkpt lat="44.790496824102476" lon="9.62234610440385"><ele>513.0</ele><time>2026-04-05T09:30:37Z</time></trkpt><trkpt lat="44.79049190688707" lon="9.622498946876844"><ele>513.0</ele><time>2026-04-05T09:30:38Z</time></trkpt><trkpt lat="44.7904692362752" lon="9.622640182971471"><ele>513.0</ele><time>2026-04-05T09:30:39Z</time></trkpt><trkpt lat="44.79038109042271" lon="9.62271724501453"><ele>513.0</ele><time>2026-04-05T09:30:40Z</time></trkpt><trkpt lat="44.7903097791062" lon="9.62280976079649"><ele>513.0</ele><time>2026-04-05T09:30:41Z</time></trkpt><trkpt lat="44.79023473813617" lon="9.622910222452212"><ele>513.0</ele><time>2026-04-05T09:30:42Z</time></trkpt><trkpt lat="44.790177307129866" lon="9.623027905961859"><ele>513.0</ele><time>2026-04-05T09:30:43Z</time></trkpt><trkpt lat="44.79010103807801" lon="9.623136160285902"><ele>513.0</ele><time>2026-04-05T09:30:44Z</time></trkpt><trkpt lat="44.79002484791728" lon="9.623244922723597"><ele>510.8333333333333</ele><time>2026-04-05T09:30:45Z</time></trkpt><trkpt lat="44.789958522882166" lon="9.623347385830897"><ele>508.66666666666663</ele><time>2026-04-05T09:30:46Z</time></trkpt><trkpt lat="44.78989190672511" lon="9.62344433741415"><ele>506.5</ele><time>2026-04-05T09:30:47Z</time></trkpt><trkpt lat="44.7898471890895" lon="9.623514197922484"><ele>504.3333333333333</ele><time>2026-04-05T09:30:48Z</time></trkpt><trkpt lat="44.789805555546245" lon="9.623595845093352"><ele>502.16666666666663</ele><time>2026-04-05T09:30:49Z</time></trkpt><trkpt lat="44.7897809923412" lon="9.623696437982458"><ele>500.0</ele><time>2026-04-05T09:30:50Z</time></trkpt><trkpt lat="44.78978570794457" lon="9.623820598150317"><ele>499.8333333333333</ele><time>2026-04-05T09:30:51Z</time></trkpt><trkpt lat="44.78980285337432" lon="9.623953213132046"><ele>499.66666666666663</ele><time>2026-04-05T09:30:52Z</time></trkpt><trkpt lat="44.789810882997244" lon="9.624071274648719"><ele>499.5</ele><time>2026-04-05T09:30:53Z</time></trkpt><trkpt lat="44.78979397388458" lon="9.624163049492072"><ele>499.33333333333337</ele><time>2026-04-05T09:30:54Z</time></trkpt><trkpt lat="44.78975850748968" lon="9.624276814729678"><ele>499.1666666666667</ele><time>2026-04-05T09:30:55Z</time></trkpt><trkpt lat="44.78971510418724" lon="9.624394609655598"><ele>499.0</ele><time>2026-04-05T09:30:56Z</time></trkpt><trkpt lat="44.78967151370272" lon="9.624503791565354"><ele>498.5</ele><time>2026-04-05T09:30:57Z</time></trkpt><trkpt lat="44.78961095362043" lon="9.624605856152296"><ele>498.0</ele><time>2026-04-05T09:30:58Z</time></trkpt><trkpt lat="44.78953923156" lon="9.624683134491567"><ele>497.5</ele><time>2026-04-05T09:30:59Z</time></trkpt><trkpt lat="44.789428821665915" lon="9.62476829718529"><ele>497.0</ele><time>2026-04-05T09:31:00Z</time></trkpt><trkpt lat="44.789309413942014" lon="9.624873798594543"><ele>494.40000000000003</ele><time>2026-04-05T09:31:01Z</time></trkpt><trkpt lat="44.78921761037818" lon="9.624973484287816"><ele>491.80000000000007</ele><time>2026-04-05T09:31:02Z</time></trkpt><trkpt lat="44.789159137838155" lon="9.625067436471797"><ele>489.2</ele><time>2026-04-05T09:31:03Z</time></trkpt><trkpt lat="44.789110630683254" lon="9.625187564136944"><ele>486.6</ele><time>2026-04-05T09:31:04Z</time></trkpt><trkpt lat="44.78907311369102" lon="9.625334719144108"><ele>484.0</ele><time>2026-04-05T09:31:05Z</time></trkpt><trkpt lat="44.7890560743362" lon="9.625483220708976"><ele>483.4</ele><time>2026-04-05T09:31:06Z</time></trkpt><trkpt lat="44.78906733549423" lon="9.625610008635862"><ele>482.79999999999995</ele><time>2026-04-05T09:31:07Z</time></trkpt><trkpt lat="44.78910125653298" lon="9.62572841975805"><ele>482.20000000000005</ele><time>2026-04-05T09:31:08Z</time></trkpt><trkpt lat="44.78913410965047" lon="9.62586596003653"><ele>481.6</ele><time>2026-04-05T09:31:09Z</time></trkpt><trkpt lat="44.78913805010315" lon="9.625990036019546"><ele>481.0</ele><time>2026-04-05T09:31:10Z</time></trkpt><trkpt lat="44.789129094387555" lon="9.626115956128938"><ele>481.50000000000006</ele><time>2026-04-05T09:31:11Z</time></trkpt><trkpt lat="44.78915635933482" lon="9.626246605990595"><ele>482.0</ele><time>2026-04-05T09:31:12Z</time></trkpt><trkpt lat="44.789192936868844" lon="9.626367655353745"><ele>482.5</ele><time>2026-04-05T09:31:13Z</time></trkpt><trkpt lat="44.78914785260437" lon="9.626484613491705"><ele>483.0</ele><time>2026-04-05T09:31:15Z</time></trkpt><trkpt lat="44.789073329599276" lon="9.62650890317943"><ele>483.50000000000006</ele><time>2026-04-05T09:31:17Z</time></trkpt><trkpt lat="44.78903242498772" lon="9.626585160316388"><ele>484.0</ele><time>2026-04-05T09:31:19Z</time></trkpt><trkpt lat="44.78893974692428" lon="9.626577478530304"><ele>484.00000000000006</ele><time>2026-04-05T09:31:23Z</time></trkpt><trkpt lat="44.788872494820126" lon="9.626504919601166"><ele>484.0</ele><time>2026-04-05T09:31:25Z</time></trkpt><trkpt lat="44.78880788224854" lon="9.626474188547972"><ele>484.0</ele><time>2026-04-05T09:31:26Z</time></trkpt><trkpt lat="44.78873382660933" lon="9.626430344843207"><ele>484.0</ele><time>2026-04-05T09:31:27Z</time></trkpt><trkpt lat="44.78866568183551" lon="9.62637001441018"><ele>484.00000000000006</ele><time>2026-04-05T09:31:28Z</time></trkpt><trkpt lat="44.788596478384456" lon="9.626306267081155"><ele>484.0</ele><time>2026-04-05T09:31:29Z</time></trkpt><trkpt lat="44.78852698520305" lon="9.62624764407477"><ele>481.1666666666667</ele><time>2026-04-05T09:31:30Z</time></trkpt><trkpt lat="44.78845136468472" lon="9.626179463437227"><ele>478.33333333333337</ele><time>2026-04-05T09:31:31Z</time></trkpt><trkpt lat="44.78836987670045" lon="9.626117315546404"><ele>475.5</ele><time>2026-04-05T09:31:32Z</time></trkpt><trkpt lat="44.78828914455448" lon="9.626062116203295"><ele>472.66666666666663</ele><time>2026-04-05T09:31:33Z</time></trkpt><trkpt lat="44.7882081205969" lon="9.626008230937728"><ele>469.8333333333333</ele><time>2026-04-05T09:31:34Z</time></trkpt><trkpt lat="44.78813120574351" lon="9.625950042167235"><ele>467.0</ele><time>2026-04-05T09:31:35Z</time></trkpt><trkpt lat="44.788060505172446" lon="9.625891666578404"><ele>466.3333333333333</ele><time>2026-04-05T09:31:36Z</time></trkpt><trkpt lat="44.78799830832656" lon="9.625827906811947"><ele>465.66666666666663</ele><time>2026-04-05T09:31:37Z</time></trkpt><trkpt lat="44.78794199989124" lon="9.625778491267633"><ele>465.0</ele><time>2026-04-05T09:31:38Z</time></trkpt><trkpt lat="44.78787664337393" lon="9.625728689368147"><ele>464.33333333333337</ele><time>2026-04-05T09:31:39Z</time></trkpt><trkpt lat="44.787802398610765" lon="9.625666274933849"><ele>463.6666666666667</ele><time>2026-04-05T09:31:40Z</time></trkpt><trkpt lat="44.78773055721844" lon="9.625612144513399"><ele>463.0</ele><time>2026-04-05T09:31:41Z</time></trkpt><trkpt lat="44.78766696819919" lon="9.62556387883361"><ele>459.2</ele><time>2026-04-05T09:31:42Z</time></trkpt><trkpt lat="44.78759054709843" lon="9.625409948871825"><ele>455.4</ele><time>2026-04-05T09:31:44Z</time></trkpt><trkpt lat="44.787547017886396" lon="9.62530436852722"><ele>451.59999999999997</ele><time>2026-04-05T09:31:45Z</time></trkpt><trkpt lat="44.78749588321802" lon="9.62520251808542"><ele>447.79999999999995</ele><time>2026-04-05T09:31:46Z</time></trkpt><trkpt lat="44.787456710330666" lon="9.625089736823234"><ele>444.0</ele><time>2026-04-05T09:31:47Z</time></trkpt><trkpt lat="44.787444100186995" lon="9.624981386922235"><ele>443.6</ele><time>2026-04-05T09:31:48Z</time></trkpt><trkpt lat="44.7874037659613" lon="9.624845398851006"><ele>443.2</ele><time>2026-04-05T09:31:50Z</time></trkpt><trkpt lat="44.787301054192596" lon="9.62475094967762"><ele>442.80000000000007</ele><time>2026-04-05T09:31:52Z</time></trkpt><trkpt lat="44.787236421615404" lon="9.624659881639174"><ele>442.40000000000003</ele><time>2026-04-05T09:31:53Z</time></trkpt><trkpt lat="44.78716161328999" lon="9.62456755698683"><ele>442.0</ele><time>2026-04-05T09:31:54Z</time></trkpt><trkpt lat="44.78709233477656" lon="9.624484043643962"><ele>441.6666666666667</ele><time>2026-04-05T09:31:55Z</time></trkpt><trkpt lat="44.78703179027065" lon="9.624403802256008"><ele>441.33333333333337</ele><time>2026-04-05T09:31:56Z</time></trkpt><trkpt lat="44.78696385881693" lon="9.624326982443174"><ele>441.0</ele><time>2026-04-05T09:31:57Z</time></trkpt><trkpt lat="44.78690043977812" lon="9.624237426688907"><ele>440.66666666666663</ele><time>2026-04-05T09:31:58Z</time></trkpt><trkpt lat="44.786850147606366" lon="9.62415927090215"><ele>440.3333333333333</ele><time>2026-04-05T09:31:59Z</time></trkpt><trkpt lat="44.78679951857823" lon="9.62407077887494"><ele>440.0</ele><time>2026-04-05T09:32:01Z</time></trkpt><trkpt lat="44.786729690092464" lon="9.623911719047875"><ele>436.8333333333333</ele><time>2026-04-05T09:32:03Z</time></trkpt><trkpt lat="44.786723345564056" lon="9.623809155385388"><ele>433.66666666666663</ele><time>2026-04-05T09:32:04Z</time></trkpt><trkpt lat="44.78673335814897" lon="9.623711538714057"><ele>430.5</ele><time>2026-04-05T09:32:05Z</time></trkpt><trkpt lat="44.78667511499838" lon="9.623798707347433"><ele>427.33333333333337</ele><time>2026-04-05T09:32:12Z</time></trkpt><trkpt lat="44.78665217058342" lon="9.62393198773811"><ele>424.1666666666667</ele><time>2026-04-05T09:32:13Z</time></trkpt><trkpt lat="44.78662165966138" lon="9.6240476118168"><ele>421.0</ele><time>2026-04-05T09:32:14Z</time></trkpt><trkpt lat="44.786601829026104" lon="9.624145442865013"><ele>421.00000000000006</ele><time>2026-04-05T09:32:15Z</time></trkpt><trkpt lat="44.786587654081934" lon="9.624239735619613"><ele>421.0</ele><time>2026-04-05T09:32:16Z</time></trkpt><trkpt lat="44.78657237179785" lon="9.624334597633975"><ele>421.0</ele><time>2026-04-05T09:32:17Z</time></trkpt><trkpt lat="44.78656737608396" lon="9.624453384165518"><ele>421.0</ele><time>2026-04-05T09:32:19Z</time></trkpt><trkpt lat="44.78658791741989" lon="9.624609533433446"><ele>421.00000000000006</ele><time>2026-04-05T09:32:21Z</time></trkpt><trkpt lat="44.78658989361072" lon="9.624712929927034"><ele>421.0</ele><time>2026-04-05T09:32:22Z</time></trkpt><trkpt lat="44.786591975258084" lon="9.62482355922657"><ele>421.8</ele><time>2026-04-05T09:32:24Z</time></trkpt><trkpt lat="44.78651893964002" lon="9.624858695726568"><ele>422.6</ele><time>2026-04-05T09:32:28Z</time></trkpt><trkpt lat="44.786391192860634" lon="9.62481332196296"><ele>423.4</ele><time>2026-04-05T09:32:31Z</time></trkpt><trkpt lat="44.78630876577436" lon="9.62476152752209"><ele>424.2</ele><time>2026-04-05T09:32:32Z</time></trkpt><trkpt lat="44.786239410839606" lon="9.62472288759605"><ele>425.0</ele><time>2026-04-05T09:32:33Z</time></trkpt><trkpt lat="44.7861703476793" lon="9.624678780794358"><ele>425.0</ele><time>2026-04-05T09:32:34Z</time></trkpt><trkpt lat="44.78611048919822" lon="9.62463934464002"><ele>425.0</ele><time>2026-04-05T09:32:35Z</time></trkpt><trkpt lat="44.78604675754483" lon="9.624517868915543"><ele>425.0</ele><time>2026-04-05T09:32:38Z</time></trkpt><trkpt lat="44.78594807349348" lon="9.624447385975447"><ele>425.0</ele><time>2026-04-05T09:32:40Z</time></trkpt><trkpt lat="44.785836930324635" lon="9.624392942852856"><ele>425.0</ele><time>2026-04-05T09:32:42Z</time></trkpt><trkpt lat="44.78581121160165" lon="9.624288726869228"><ele>422.3333333333333</ele><time>2026-04-05T09:32:44Z</time></trkpt><trkpt lat="44.78577513503007" lon="9.62421601792484"><ele>419.66666666666663</ele><time>2026-04-05T09:32:49.999Z</time></trkpt><trkpt lat="44.78569414641479" lon="9.624233089741779"><ele>417.0</ele><time>2026-04-05T09:32:54.999Z</time></trkpt><trkpt lat="44.78562788592057" lon="9.624151669131194"><ele>414.33333333333337</ele><time>2026-04-05T09:32:58.999Z</time></trkpt><trkpt lat="44.78558582343566" lon="9.624055191683366"><ele>411.6666666666667</ele><time>2026-04-05T09:33:01.999Z</time></trkpt><trkpt lat="44.78555945376023" lon="9.623974269912651"><ele>409.0</ele><time>2026-04-05T09:33:03.999Z</time></trkpt><trkpt lat="44.785534472390715" lon="9.623870013837834"><ele>409.00000000000006</ele><time>2026-04-05T09:33:05.999Z</time></trkpt><trkpt lat="44.78550025223499" lon="9.623772145472698"><ele>409.0</ele><time>2026-04-05T09:33:09.999Z</time></trkpt><trkpt lat="44.78542561432209" lon="9.623727304429082"><ele>409.0</ele><time>2026-04-05T09:33:11.999Z</time></trkpt><trkpt lat="44.785345718242546" lon="9.62371037600055"><ele>409.0</ele><time>2026-04-05T09:33:12.999Z</time></trkpt><trkpt lat="44.78528640992994" lon="9.623677029114258"><ele>409.00000000000006</ele><time>2026-04-05T09:33:13.999Z</time></trkpt><trkpt lat="44.785194654938095" lon="9.623647364288416"><ele>409.0</ele><time>2026-04-05T09:33:15.999Z</time></trkpt><trkpt lat="44.78509790072333" lon="9.623618766900623"><ele>407.50000000000006</ele><time>2026-04-05T09:33:18Z</time></trkpt><trkpt lat="44.785045381395314" lon="9.623547305006124"><ele>406.0</ele><time>2026-04-05T09:33:21Z</time></trkpt><trkpt lat="44.784988619067406" lon="9.623492352844062"><ele>404.5</ele><time>2026-04-05T09:33:23Z</time></trkpt><trkpt lat="44.784949050244975" lon="9.62340336377143"><ele>403.0</ele><time>2026-04-05T09:33:25Z</time></trkpt><trkpt lat="44.784904149056096" lon="9.623288123977256"><ele>401.50000000000006</ele><time>2026-04-05T09:33:28Z</time></trkpt><trkpt lat="44.7849077034084" lon="9.623199397100784"><ele>400.0</ele><time>2026-04-05T09:33:30Z</time></trkpt><trkpt lat="44.784874783873285" lon="9.623001705799282"><ele>400.00000000000006</ele><time>2026-04-05T09:33:32Z</time></trkpt><trkpt lat="44.78483652308319" lon="9.622912827011339"><ele>400.0</ele><time>2026-04-05T09:33:33Z</time></trkpt><trkpt lat="44.7848252180853" lon="9.622820611000641"><ele>400.0</ele><time>2026-04-05T09:33:34Z</time></trkpt><trkpt lat="44.78478886046888" lon="9.622748120149843"><ele>400.0</ele><time>2026-04-05T09:33:36Z</time></trkpt><trkpt lat="44.784701049318805" lon="9.622672323449436"><ele>400.00000000000006</ele><time>2026-04-05T09:33:39Z</time></trkpt><trkpt lat="44.78463282928034" lon="9.622657093921736"><ele>400.0</ele><time>2026-04-05T09:33:43Z</time></trkpt><trkpt lat="44.78456719755473" lon="9.622593522368572"><ele>400.33333333333337</ele><time>2026-04-05T09:33:46Z</time></trkpt><trkpt lat="44.78452359477135" lon="9.622520842639394"><ele>400.6666666666667</ele><time>2026-04-05T09:33:48Z</time></trkpt><trkpt lat="44.78451224772472" lon="9.622429366595453"><ele>401.0</ele><time>2026-04-05T09:33:50Z</time></trkpt><trkpt lat="44.784408363171" lon="9.622289351328337"><ele>401.33333333333337</ele><time>2026-04-05T09:33:51Z</time></trkpt><trkpt lat="44.7843608878598" lon="9.62220936107443"><ele>401.6666666666667</ele><time>2026-04-05T09:33:52Z</time></trkpt><trkpt lat="44.78431479175536" lon="9.622123049079898"><ele>402.0</ele><time>2026-04-05T09:33:53Z</time></trkpt><trkpt lat="44.784284224959826" lon="9.622027911881608"><ele>401.0</ele><time>2026-04-05T09:33:54Z</time></trkpt><trkpt lat="44.784263663143115" lon="9.621931766675496"><ele>400.0</ele><time>2026-04-05T09:33:55Z</time></trkpt><trkpt lat="44.784246166996375" lon="9.621825018989338"><ele>399.0</ele><time>2026-04-05T09:33:56Z</time></trkpt><trkpt lat="44.78423055111491" lon="9.621729652645644"><ele>398.0</ele><time>2026-04-05T09:33:57Z</time></trkpt><trkpt lat="44.78421933535683" lon="9.621628092556627"><ele>397.0</ele><time>2026-04-05T09:33:58Z</time></trkpt><trkpt lat="44.784215699608666" lon="9.621532828955356"><ele>396.0</ele><time>2026-04-05T09:33:59Z</time></trkpt><trkpt lat="44.784211627090286" lon="9.621437626542857"><ele>395.0</ele><time>2026-04-05T09:34:00Z</time></trkpt><trkpt lat="44.78419536214718" lon="9.62130150647687"><ele>395.0</ele><time>2026-04-05T09:35:12.999Z</time></trkpt><trkpt lat="44.78419489642751" lon="9.621192787843938"><ele>395.0</ele><time>2026-04-05T09:35:24.999Z</time></trkpt><trkpt lat="44.784167056598804" lon="9.621069436450046"><ele>395.0</ele><time>2026-04-05T09:35:26.999Z</time></trkpt><trkpt lat="44.78417808535412" lon="9.620968875779523"><ele>395.0</ele><time>2026-04-05T09:35:30.999Z</time></trkpt><trkpt lat="44.784184461157125" lon="9.62088021373024"><ele>395.0</ele><time>2026-04-05T09:35:33.999Z</time></trkpt><trkpt lat="44.784114348309366" lon="9.620699748095786"><ele>392.66666666666663</ele><time>2026-04-05T09:35:35.999Z</time></trkpt><trkpt lat="44.784062459500646" lon="9.620588617325282"><ele>390.3333333333333</ele><time>2026-04-05T09:35:37.999Z</time></trkpt><trkpt lat="44.78400472962475" lon="9.62045989248232"><ele>388.0</ele><time>2026-04-05T09:35:40.999Z</time></trkpt><trkpt lat="44.784082109854836" lon="9.620392895324832"><ele>385.66666666666663</ele><time>2026-04-05T09:35:42.999Z</time></trkpt><trkpt lat="44.784157651783055" lon="9.620376263698699"><ele>383.3333333333333</ele><time>2026-04-05T09:35:44.999Z</time></trkpt><trkpt lat="44.78421982295153" lon="9.620342127626849"><ele>381.0</ele><time>2026-04-05T09:35:47.999Z</time></trkpt><trkpt lat="44.78430675844998" lon="9.620301783897082"><ele>379.7142857142857</ele><time>2026-04-05T09:35:51.999Z</time></trkpt><trkpt lat="44.7842933152681" lon="9.620187752440895"><ele>378.42857142857144</ele><time>2026-04-05T09:35:54.999Z</time></trkpt><trkpt lat="44.78429038128538" lon="9.620086730400724"><ele>377.14285714285717</ele><time>2026-04-05T09:35:56.999Z</time></trkpt><trkpt lat="44.78429078438432" lon="9.619990519627132"><ele>375.8571428571429</ele><time>2026-04-05T09:36:00.999Z</time></trkpt><trkpt lat="44.7842965209443" lon="9.619894001953497"><ele>374.57142857142856</ele><time>2026-04-05T09:36:06.999Z</time></trkpt><trkpt lat="44.78429624107631" lon="9.619792375785414"><ele>373.28571428571433</ele><time>2026-04-05T09:36:17.999Z</time></trkpt><trkpt lat="44.784262080604584" lon="9.619717741813684"><ele>372.0</ele><time>2026-04-05T09:36:20.999Z</time></trkpt><trkpt lat="44.78421573852827" lon="9.619619504751263"><ele>372.0</ele><time>2026-04-05T09:36:30.999Z</time></trkpt><trkpt lat="44.78419181394443" lon="9.61952034199623"><ele>372.0</ele><time>2026-04-05T09:36:32.999Z</time></trkpt><trkpt lat="44.7841776898223" lon="9.61942286198419"><ele>372.0</ele><time>2026-04-05T09:36:39.999Z</time></trkpt><trkpt lat="44.78424030047237" lon="9.619288846665828"><ele>372.0</ele><time>2026-04-05T09:36:41.999Z</time></trkpt><trkpt lat="44.78427759560843" lon="9.6191487941261"><ele>372.0</ele><time>2026-04-05T09:36:43.999Z</time></trkpt><trkpt lat="44.784302895913235" lon="9.61901722828065"><ele>370.8333333333333</ele><time>2026-04-05T09:36:45.999Z</time></trkpt><trkpt lat="44.78431795608412" lon="9.618911252750083"><ele>369.6666666666667</ele><time>2026-04-05T09:36:47.999Z</time></trkpt><trkpt lat="44.78424794370626" lon="9.618814788952058"><ele>368.5</ele><time>2026-04-05T09:36:49.999Z</time></trkpt><trkpt lat="44.78418340479097" lon="9.618804747232193"><ele>367.33333333333337</ele><time>2026-04-05T09:36:51.999Z</time></trkpt><trkpt lat="44.78408645859385" lon="9.618865245212957"><ele>366.1666666666667</ele><time>2026-04-05T09:36:53.999Z</time></trkpt><trkpt lat="44.784010103337955" lon="9.618892532134144"><ele>365.0</ele><time>2026-04-05T09:36:55.999Z</time></trkpt><trkpt lat="44.78392669178004" lon="9.618798268634933"><ele>365.0</ele><time>2026-04-05T09:36:57.999Z</time></trkpt><trkpt lat="44.78386564705088" lon="9.618727811531809"><ele>365.0</ele><time>2026-04-05T09:36:59.999Z</time></trkpt><trkpt lat="44.78379679245492" lon="9.618614656725931"><ele>365.0</ele><time>2026-04-05T09:37:01.999Z</time></trkpt><trkpt lat="44.78377198130702" lon="9.618489528726323"><ele>365.0</ele><time>2026-04-05T09:37:03.999Z</time></trkpt><trkpt lat="44.783697657342785" lon="9.61842048233934"><ele>365.0</ele><time>2026-04-05T09:37:06.999Z</time></trkpt><trkpt lat="44.78362886033739" lon="9.618289777251414"><ele>362.75</ele><time>2026-04-05T09:37:07.999Z</time></trkpt><trkpt lat="44.78363623457938" lon="9.618131915407181"><ele>360.5</ele><time>2026-04-05T09:37:09.999Z</time></trkpt><trkpt lat="44.783643316135205" lon="9.617973739912193"><ele>358.25</ele><time>2026-04-05T09:37:11.999Z</time></trkpt><trkpt lat="44.783586268106355" lon="9.617821889443238"><ele>356.0</ele><time>2026-04-05T09:37:13.999Z</time></trkpt><trkpt lat="44.78353014342826" lon="9.617676266483272"><ele>355.25</ele><time>2026-04-05T09:37:15.999Z</time></trkpt><trkpt lat="44.78353865247288" lon="9.617526826856713"><ele>354.5</ele><time>2026-04-05T09:37:17.999Z</time></trkpt><trkpt lat="44.78351759142048" lon="9.617351372842274"><ele>353.75</ele><time>2026-04-05T09:37:19.999Z</time></trkpt><trkpt lat="44.78351198468157" lon="9.617180275193576"><ele>353.0</ele><time>2026-04-05T09:37:21.999Z</time></trkpt><trkpt lat="44.783516093069565" lon="9.61703449421642"><ele>352.2</ele><time>2026-04-05T09:37:23.999Z</time></trkpt><trkpt lat="44.78351579109728" lon="9.616898049732589"><ele>351.4</ele><time>2026-04-05T09:37:25.999Z</time></trkpt><trkpt lat="44.78354617728181" lon="9.616797961748155"><ele>350.59999999999997</ele><time>2026-04-05T09:37:26.999Z</time></trkpt><trkpt lat="44.78356838827834" lon="9.616710145344317"><ele>349.79999999999995</ele><time>2026-04-05T09:37:27.999Z</time></trkpt><trkpt lat="44.78361870413267" lon="9.61655576272095"><ele>349.0</ele><time>2026-04-05T09:37:29.999Z</time></trkpt><trkpt lat="44.783619258269546" lon="9.616400730732783"><ele>349.0</ele><time>2026-04-05T09:37:31.999Z</time></trkpt><trkpt lat="44.783583430973195" lon="9.616309902378436"><ele>349.0</ele><time>2026-04-05T09:37:32.999Z</time></trkpt><trkpt lat="44.783533640157316" lon="9.616208999395662"><ele>349.0</ele><time>2026-04-05T09:37:33.999Z</time></trkpt><trkpt lat="44.78348776348636" lon="9.61611121430901"><ele>349.0</ele><time>2026-04-05T09:37:34.999Z</time></trkpt><trkpt lat="44.78344192447763" lon="9.616016845673437"><ele>349.0</ele><time>2026-04-05T09:37:35.999Z</time></trkpt><trkpt lat="44.78338858413963" lon="9.61593131428526"><ele>349.0</ele><time>2026-04-05T09:37:36.999Z</time></trkpt><trkpt lat="44.783337473484316" lon="9.615852320731097"><ele>348.0</ele><time>2026-04-05T09:37:37.999Z</time></trkpt><trkpt lat="44.78329861566447" lon="9.615770613580272"><ele>347.0</ele><time>2026-04-05T09:37:38.999Z</time></trkpt><trkpt lat="44.783257602122276" lon="9.615668754870303"><ele>346.0</ele><time>2026-04-05T09:37:39.999Z</time></trkpt><trkpt lat="44.78323017026747" lon="9.61555707467446"><ele>345.0</ele><time>2026-04-05T09:37:40.999Z</time></trkpt><trkpt lat="44.78321558379724" lon="9.615423015536244"><ele>344.0</ele><time>2026-04-05T09:37:41.999Z</time></trkpt><trkpt lat="44.78320614411494" lon="9.615293021709354"><ele>343.0</ele><time>2026-04-05T09:37:42.999Z</time></trkpt><trkpt lat="44.78318296636853" lon="9.615162040878156"><ele>342.3333333333333</ele><time>2026-04-05T09:37:43.999Z</time></trkpt><trkpt lat="44.78314910392263" lon="9.615022553785398"><ele>341.66666666666663</ele><time>2026-04-05T09:37:44.999Z</time></trkpt><trkpt lat="44.7831104293244" lon="9.614903152386706"><ele>341.0</ele><time>2026-04-05T09:37:45.999Z</time></trkpt><trkpt lat="44.7830778019981" lon="9.614796767212221"><ele>340.3333333333333</ele><time>2026-04-05T09:37:46.999Z</time></trkpt><trkpt lat="44.783057287875415" lon="9.61469934353482"><ele>339.6666666666667</ele><time>2026-04-05T09:37:47.999Z</time></trkpt><trkpt lat="44.783049370098574" lon="9.614600489322543"><ele>339.0</ele><time>2026-04-05T09:37:48.999Z</time></trkpt><trkpt lat="44.78311113630965" lon="9.614461349541319"><ele>338.6</ele><time>2026-04-05T09:37:50.999Z</time></trkpt><trkpt lat="44.78319783502277" lon="9.614369790645158"><ele>338.2</ele><time>2026-04-05T09:37:52.999Z</time></trkpt><trkpt lat="44.783256725376766" lon="9.614249940488605"><ele>337.8</ele><time>2026-04-05T09:37:54.999Z</time></trkpt><trkpt lat="44.783256298532514" lon="9.61415207890761"><ele>337.40000000000003</ele><time>2026-04-05T09:37:55.999Z</time></trkpt><trkpt lat="44.783242802403976" lon="9.614029172924532"><ele>337.0</ele><time>2026-04-05T09:37:56.999Z</time></trkpt><trkpt lat="44.783238645225346" lon="9.613898911309438"><ele>337.0</ele><time>2026-04-05T09:37:57.999Z</time></trkpt><trkpt lat="44.783250104243734" lon="9.613769264811184"><ele>337.0</ele><time>2026-04-05T09:37:58.999Z</time></trkpt><trkpt lat="44.78326979819186" lon="9.613652140558711"><ele>337.0</ele><time>2026-04-05T09:37:59.999Z</time></trkpt><trkpt lat="44.78327497050545" lon="9.61354026801512"><ele>337.0</ele><time>2026-04-05T09:38:00.999Z</time></trkpt><trkpt lat="44.78324982638808" lon="9.613418991311825"><ele>337.0</ele><time>2026-04-05T09:38:01.999Z</time></trkpt><trkpt lat="44.78323330410838" lon="9.613297291377224"><ele>337.0</ele><time>2026-04-05T09:38:02.999Z</time></trkpt><trkpt lat="44.78321655849656" lon="9.613177954576866"><ele>336.6</ele><time>2026-04-05T09:38:03.999Z</time></trkpt><trkpt lat="44.783184207725476" lon="9.613063910775592"><ele>336.20000000000005</ele><time>2026-04-05T09:38:04.999Z</time></trkpt><trkpt lat="44.783144954551226" lon="9.612926099576791"><ele>335.8</ele><time>2026-04-05T09:38:05.999Z</time></trkpt><trkpt lat="44.78309948053115" lon="9.612786085292365"><ele>335.4</ele><time>2026-04-05T09:38:06.999Z</time></trkpt><trkpt lat="44.78306309947426" lon="9.61266976153859"><ele>335.0</ele><time>2026-04-05T09:38:07.999Z</time></trkpt><trkpt lat="44.783013698615655" lon="9.612572865599514"><ele>334.83333333333337</ele><time>2026-04-05T09:38:08.999Z</time></trkpt><trkpt lat="44.78296131958816" lon="9.612478792030027"><ele>334.6666666666667</ele><time>2026-04-05T09:38:09.999Z</time></trkpt><trkpt lat="44.782900942833436" lon="9.61238472851341"><ele>334.5</ele><time>2026-04-05T09:38:10.999Z</time></trkpt><trkpt lat="44.78285020610307" lon="9.612276926308157"><ele>334.3333333333333</ele><time>2026-04-05T09:38:11.999Z</time></trkpt><trkpt lat="44.782826131633286" lon="9.612168804326393"><ele>334.16666666666663</ele><time>2026-04-05T09:38:12.999Z</time></trkpt><trkpt lat="44.78282202853087" lon="9.61205494216555"><ele>334.0</ele><time>2026-04-05T09:38:13.999Z</time></trkpt><trkpt lat="44.78284828188591" lon="9.611937605562176"><ele>334.0</ele><time>2026-04-05T09:38:14.999Z</time></trkpt><trkpt lat="44.78283195700048" lon="9.611835447024353"><ele>334.0</ele><time>2026-04-05T09:38:15.999Z</time></trkpt><trkpt lat="44.78280584333795" lon="9.611726017304873"><ele>334.0</ele><time>2026-04-05T09:38:16.999Z</time></trkpt><trkpt lat="44.78280265127184" lon="9.61159191891393"><ele>334.0</ele><time>2026-04-05T09:38:17.999Z</time></trkpt><trkpt lat="44.78280967464968" lon="9.61145047455671"><ele>334.0</ele><time>2026-04-05T09:38:18.999Z</time></trkpt><trkpt lat="44.78282970157397" lon="9.611311479480243"><ele>334.0</ele><time>2026-04-05T09:38:19.999Z</time></trkpt><trkpt lat="44.782844299431154" lon="9.611168747507588"><ele>334.0</ele><time>2026-04-05T09:38:20.999Z</time></trkpt><trkpt lat="44.782849253775865" lon="9.611027024839956"><ele>334.0</ele><time>2026-04-05T09:38:21.999Z</time></trkpt><trkpt lat="44.782836338907785" lon="9.610893446344075"><ele>334.0</ele><time>2026-04-05T09:38:22.999Z</time></trkpt><trkpt lat="44.782815149148774" lon="9.610782249012201"><ele>334.0</ele><time>2026-04-05T09:38:23.999Z</time></trkpt><trkpt lat="44.78280674972065" lon="9.6106913122163"><ele>334.0</ele><time>2026-04-05T09:38:24.999Z</time></trkpt><trkpt lat="44.78276958726101" lon="9.610572038059649"><ele>332.66666666666663</ele><time>2026-04-05T09:38:26.999Z</time></trkpt><trkpt lat="44.78264978170017" lon="9.610571797336188"><ele>331.3333333333333</ele><time>2026-04-05T09:38:28.999Z</time></trkpt><trkpt lat="44.782575567539546" lon="9.610604895051742"><ele>330.0</ele><time>2026-04-05T09:38:29.999Z</time></trkpt><trkpt lat="44.78249554375821" lon="9.610650792503595"><ele>328.6666666666667</ele><time>2026-04-05T09:38:30.999Z</time></trkpt><trkpt lat="44.78242268389724" lon="9.610657287750994"><ele>327.33333333333337</ele><time>2026-04-05T09:38:31.999Z</time></trkpt><trkpt lat="44.782363283203544" lon="9.610609864475203"><ele>326.0</ele><time>2026-04-05T09:38:32.999Z</time></trkpt><trkpt lat="44.78231920926115" lon="9.610511502245444"><ele>326.0</ele><time>2026-04-05T09:38:33.999Z</time></trkpt><trkpt lat="44.782268507660994" lon="9.610421914770063"><ele>326.0</ele><time>2026-04-05T09:38:34.999Z</time></trkpt><trkpt lat="44.78219113945307" lon="9.610376645423827"><ele>326.0</ele><time>2026-04-05T09:38:35.999Z</time></trkpt><trkpt lat="44.78209320983349" lon="9.610374239989282"><ele>326.0</ele><time>2026-04-05T09:38:36.999Z</time></trkpt><trkpt lat="44.78198204319336" lon="9.610375744181804"><ele>326.0</ele><time>2026-04-05T09:38:37.999Z</time></trkpt><trkpt lat="44.78186602766522" lon="9.610343702337154"><ele>325.75</ele><time>2026-04-05T09:38:38.999Z</time></trkpt><trkpt lat="44.7817424452544" lon="9.61027629515879"><ele>325.5</ele><time>2026-04-05T09:38:39.999Z</time></trkpt><trkpt lat="44.78162086541162" lon="9.61020304456714"><ele>325.25</ele><time>2026-04-05T09:38:40.999Z</time></trkpt><trkpt lat="44.781502150828054" lon="9.610137058176457"><ele>325.0</ele><time>2026-04-05T09:38:41.999Z</time></trkpt><trkpt lat="44.78137871718282" lon="9.610070390014183"><ele>325.0</ele><time>2026-04-05T09:38:43Z</time></trkpt><trkpt lat="44.78126746930018" lon="9.61000354017265"><ele>325.0</ele><time>2026-04-05T09:38:44Z</time></trkpt><trkpt lat="44.78116851236068" lon="9.609936672649312"><ele>325.0</ele><time>2026-04-05T09:38:45Z</time></trkpt><trkpt lat="44.781076213823866" lon="9.609877626211441"><ele>325.0</ele><time>2026-04-05T09:38:46Z</time></trkpt><trkpt lat="44.78098275405361" lon="9.609824445163603"><ele>325.0</ele><time>2026-04-05T09:38:47Z</time></trkpt><trkpt lat="44.78088725053483" lon="9.609771673663419"><ele>325.0</ele><time>2026-04-05T09:38:48Z</time></trkpt><trkpt lat="44.78079366387164" lon="9.609716257115963"><ele>325.0</ele><time>2026-04-05T09:38:49Z</time></trkpt><trkpt lat="44.78070128893816" lon="9.609659541923302"><ele>325.0</ele><time>2026-04-05T09:38:50Z</time></trkpt><trkpt lat="44.7806081443132" lon="9.609604504834245"><ele>325.0</ele><time>2026-04-05T09:38:51Z</time></trkpt><trkpt lat="44.78051227731555" lon="9.609551592091027"><ele>325.0</ele><time>2026-04-05T09:38:52Z</time></trkpt><trkpt lat="44.78041870442921" lon="9.60949602265939"><ele>324.8</ele><time>2026-04-05T09:38:53Z</time></trkpt><trkpt lat="44.78032364340562" lon="9.60943831453581"><ele>324.6</ele><time>2026-04-05T09:38:54Z</time></trkpt><trkpt lat="44.7802244580186" lon="9.609378085704043"><ele>324.4</ele><time>2026-04-05T09:38:55Z</time></trkpt><trkpt lat="44.78011865184987" lon="9.609318505776535"><ele>324.2</ele><time>2026-04-05T09:38:56Z</time></trkpt><trkpt lat="44.780015270300524" lon="9.609259651409914"><ele>324.0</ele><time>2026-04-05T09:38:57Z</time></trkpt><trkpt lat="44.77990908830301" lon="9.609197971503061"><ele>324.5</ele><time>2026-04-05T09:38:58Z</time></trkpt><trkpt lat="44.77979925079168" lon="9.60913285790326"><ele>325.0</ele><time>2026-04-05T09:38:59Z</time></trkpt><trkpt lat="44.77968515334189" lon="9.60906906786654"><ele>325.5</ele><time>2026-04-05T09:39:00Z</time></trkpt><trkpt lat="44.77956938325531" lon="9.609005943512598"><ele>326.0</ele><time>2026-04-05T09:39:01Z</time></trkpt><trkpt lat="44.779456430416616" lon="9.608941077073547"><ele>325.75</ele><time>2026-04-05T09:39:02Z</time></trkpt><trkpt lat="44.7793452484792" lon="9.608874497143908"><ele>325.5</ele><time>2026-04-05T09:39:03Z</time></trkpt><trkpt lat="44.7792354094484" lon="9.60880515083122"><ele>325.25</ele><time>2026-04-05T09:39:04Z</time></trkpt><trkpt lat="44.77912306507539" lon="9.608739639100222"><ele>325.0</ele><time>2026-04-05T09:39:05Z</time></trkpt><trkpt lat="44.77901013273431" lon="9.608677222668199"><ele>325.0</ele><time>2026-04-05T09:39:06Z</time></trkpt><trkpt lat="44.77889907971139" lon="9.608618547446033"><ele>325.0</ele><time>2026-04-05T09:39:07Z</time></trkpt><trkpt lat="44.77879303853579" lon="9.608557100348428"><ele>325.0</ele><time>2026-04-05T09:39:08Z</time></trkpt><trkpt lat="44.778687170890926" lon="9.608498268469845"><ele>325.0</ele><time>2026-04-05T09:39:09Z</time></trkpt><trkpt lat="44.77858105743499" lon="9.60843762939782"><ele>325.75</ele><time>2026-04-05T09:39:10Z</time></trkpt><trkpt lat="44.778473481440635" lon="9.608370202407645"><ele>326.5</ele><time>2026-04-05T09:39:11Z</time></trkpt><trkpt lat="44.77836517302104" lon="9.608296910099856"><ele>327.25</ele><time>2026-04-05T09:39:12Z</time></trkpt><trkpt lat="44.7782522803711" lon="9.608233330739584"><ele>328.0</ele><time>2026-04-05T09:39:13Z</time></trkpt><trkpt lat="44.77814374305502" lon="9.608175387846064"><ele>328.0</ele><time>2026-04-05T09:39:14Z</time></trkpt><trkpt lat="44.77804831435116" lon="9.60811934713657"><ele>328.0</ele><time>2026-04-05T09:39:15Z</time></trkpt><trkpt lat="44.77796365078198" lon="9.608066273879292"><ele>328.0</ele><time>2026-04-05T09:39:16Z</time></trkpt><trkpt lat="44.7778945388331" lon="9.60801829068346"><ele>328.0</ele><time>2026-04-05T09:39:17Z</time></trkpt><trkpt lat="44.777829418080394" lon="9.607927712644567"><ele>328.0</ele><time>2026-04-05T09:39:19Z</time></trkpt><trkpt lat="44.777830357147174" lon="9.607827025090339"><ele>328.0</ele><time>2026-04-05T09:39:21Z</time></trkpt><trkpt lat="44.777798641940564" lon="9.607741589477635"><ele>328.0</ele><time>2026-04-05T09:39:41Z</time></trkpt><trkpt lat="44.77766345847613" lon="9.607782122287347"><ele>328.0</ele><time>2026-04-05T09:44:15Z</time></trkpt><trkpt lat="44.77759474890583" lon="9.607807966929094"><ele>328.0</ele><time>2026-04-05T09:44:18Z</time></trkpt><trkpt lat="44.777518189555046" lon="9.607792364154701"><ele>328.0</ele><time>2026-04-05T09:44:20Z</time></trkpt><trkpt lat="44.777453582474855" lon="9.607754114398153"><ele>328.0</ele><time>2026-04-05T09:44:21Z</time></trkpt><trkpt lat="44.7773828594413" lon="9.607707691470454"><ele>328.0</ele><time>2026-04-05T09:44:22Z</time></trkpt><trkpt lat="44.77731838177702" lon="9.607669566881082"><ele>328.0</ele><time>2026-04-05T09:44:23Z</time></trkpt><trkpt lat="44.777198053047485" lon="9.607612744418292"><ele>328.0</ele><time>2026-04-05T09:44:25Z</time></trkpt><trkpt lat="44.777114199691646" lon="9.607554228750708"><ele>328.0</ele><time>2026-04-05T09:44:26Z</time></trkpt><trkpt lat="44.77703741976458" lon="9.607513986471078"><ele>328.0</ele><time>2026-04-05T09:44:27Z</time></trkpt><trkpt lat="44.77697632047056" lon="9.607485268540463"><ele>328.0</ele><time>2026-04-05T09:44:28Z</time></trkpt><trkpt lat="44.77685720876346" lon="9.607430665029142"><ele>328.16666666666663</ele><time>2026-04-05T09:44:30Z</time></trkpt><trkpt lat="44.77674306502146" lon="9.60735637769747"><ele>328.3333333333333</ele><time>2026-04-05T09:44:32Z</time></trkpt><trkpt lat="44.77668223572864" lon="9.607321421365237"><ele>328.5</ele><time>2026-04-05T09:44:33Z</time></trkpt><trkpt lat="44.776623362243136" lon="9.60728695047742"><ele>328.6666666666667</ele><time>2026-04-05T09:44:34Z</time></trkpt><trkpt lat="44.7765296521234" lon="9.607237544111694"><ele>328.83333333333337</ele><time>2026-04-05T09:44:36Z</time></trkpt><trkpt lat="44.77644878569823" lon="9.607187353502281"><ele>329.0</ele><time>2026-04-05T09:44:38Z</time></trkpt><trkpt lat="44.77636180635245" lon="9.607131841637825"><ele>329.0</ele><time>2026-04-05T09:44:40Z</time></trkpt><trkpt lat="44.77629226991383" lon="9.607063468367299"><ele>329.0</ele><time>2026-04-05T09:44:42Z</time></trkpt><trkpt lat="44.77623387486403" lon="9.606956658172397"><ele>329.0</ele><time>2026-04-05T09:44:45Z</time></trkpt><trkpt lat="44.776236683330474" lon="9.606770275288977"><ele>329.0</ele><time>2026-04-05T09:44:47Z</time></trkpt><trkpt lat="44.776238193909734" lon="9.606640035709356"><ele>329.0</ele><time>2026-04-05T09:44:48Z</time></trkpt><trkpt lat="44.77623838904465" lon="9.606483476848702"><ele>328.0</ele><time>2026-04-05T09:44:49Z</time></trkpt><trkpt lat="44.77625996246515" lon="9.606312714515376"><ele>327.0</ele><time>2026-04-05T09:44:50Z</time></trkpt><trkpt lat="44.776267933716284" lon="9.606158468225336"><ele>326.0</ele><time>2026-04-05T09:44:51Z</time></trkpt><trkpt lat="44.77625990918342" lon="9.605997156109359"><ele>325.0</ele><time>2026-04-05T09:44:52Z</time></trkpt><trkpt lat="44.77626703224791" lon="9.605848176173453"><ele>325.0</ele><time>2026-04-05T09:44:53Z</time></trkpt><trkpt lat="44.776273182325035" lon="9.605740241219168"><ele>325.0</ele><time>2026-04-05T09:44:54Z</time></trkpt><trkpt lat="44.77627376281368" lon="9.605622364979867"><ele>325.0</ele><time>2026-04-05T09:44:56Z</time></trkpt><trkpt lat="44.776217400666326" lon="9.605512088275912"><ele>325.0</ele><time>2026-04-05T09:44:58Z</time></trkpt><trkpt lat="44.77610005693519" lon="9.605532422822865"><ele>325.0</ele><time>2026-04-05T09:44:59Z</time></trkpt><trkpt lat="44.77598844350159" lon="9.60553615735879"><ele>325.4</ele><time>2026-04-05T09:45:00Z</time></trkpt><trkpt lat="44.77588646655254" lon="9.605532756133154"><ele>325.8</ele><time>2026-04-05T09:45:01Z</time></trkpt><trkpt lat="44.77577462299553" lon="9.60552406252381"><ele>326.20000000000005</ele><time>2026-04-05T09:45:02Z</time></trkpt><trkpt lat="44.77565660888533" lon="9.605516611839073"><ele>326.6</ele><time>2026-04-05T09:45:03Z</time></trkpt><trkpt lat="44.77553991785513" lon="9.605504712760048"><ele>327.0</ele><time>2026-04-05T09:45:04Z</time></trkpt><trkpt lat="44.775433303743775" lon="9.605490739990264"><ele>327.0</ele><time>2026-04-05T09:45:05Z</time></trkpt><trkpt lat="44.77532054444711" lon="9.605467717379947"><ele>327.0</ele><time>2026-04-05T09:45:06Z</time></trkpt><trkpt lat="44.775191586761764" lon="9.60543454757957"><ele>327.0</ele><time>2026-04-05T09:45:07Z</time></trkpt><trkpt lat="44.77507469746332" lon="9.6054020377457"><ele>327.0</ele><time>2026-04-05T09:45:08Z</time></trkpt><trkpt lat="44.77496608053682" lon="9.605372924416463"><ele>326.75</ele><time>2026-04-05T09:45:09Z</time></trkpt><trkpt lat="44.774855723780625" lon="9.605344543117576"><ele>326.5</ele><time>2026-04-05T09:45:10Z</time></trkpt><trkpt lat="44.77473942719092" lon="9.605309798652295"><ele>326.25</ele><time>2026-04-05T09:45:11Z</time></trkpt><trkpt lat="44.774616621145825" lon="9.605269990241041"><ele>326.0</ele><time>2026-04-05T09:45:12Z</time></trkpt><trkpt lat="44.77449478880172" lon="9.605235658193402"><ele>326.5</ele><time>2026-04-05T09:45:13Z</time></trkpt><trkpt lat="44.774373158618396" lon="9.605208099503082"><ele>327.0</ele><time>2026-04-05T09:45:14Z</time></trkpt><trkpt lat="44.77425211809035" lon="9.605176492367173"><ele>327.5</ele><time>2026-04-05T09:45:15Z</time></trkpt><trkpt lat="44.774129257162784" lon="9.605138186703517"><ele>328.0</ele><time>2026-04-05T09:45:16Z</time></trkpt><trkpt lat="44.77400458372143" lon="9.605091730039614"><ele>328.5</ele><time>2026-04-05T09:45:17Z</time></trkpt><trkpt lat="44.77387847093831" lon="9.605039054122386"><ele>329.0</ele><time>2026-04-05T09:45:18Z</time></trkpt><trkpt lat="44.77376490996818" lon="9.604981660029688"><ele>329.5</ele><time>2026-04-05T09:45:19Z</time></trkpt><trkpt lat="44.77365156259334" lon="9.60492243742017"><ele>330.0</ele><time>2026-04-05T09:45:20Z</time></trkpt><trkpt lat="44.77353335011316" lon="9.604859499210091"><ele>330.5</ele><time>2026-04-05T09:45:21Z</time></trkpt><trkpt lat="44.77340923879127" lon="9.604795617096816"><ele>331.0</ele><time>2026-04-05T09:45:22Z</time></trkpt><trkpt lat="44.77327314755624" lon="9.60472403416239"><ele>331.5</ele><time>2026-04-05T09:45:23Z</time></trkpt><trkpt lat="44.77315564369454" lon="9.604660929648274"><ele>332.0</ele><time>2026-04-05T09:45:24Z</time></trkpt><trkpt lat="44.77303716157246" lon="9.604592519291046"><ele>332.0</ele><time>2026-04-05T09:45:25Z</time></trkpt><trkpt lat="44.772926750757904" lon="9.604519926240508"><ele>332.0</ele><time>2026-04-05T09:45:26Z</time></trkpt><trkpt lat="44.77283669442248" lon="9.604461208500233"><ele>332.0</ele><time>2026-04-05T09:45:27Z</time></trkpt><trkpt lat="44.772775827090015" lon="9.604417755605429"><ele>332.0</ele><time>2026-04-05T09:45:28Z</time></trkpt><trkpt lat="44.772741717763026" lon="9.604329227897422"><ele>332.0</ele><time>2026-04-05T09:45:30Z</time></trkpt><trkpt lat="44.772798798015" lon="9.604284180769916"><ele>332.0</ele><time>2026-04-05T09:45:32Z</time></trkpt><trkpt lat="44.772861751479866" lon="9.604329592413594"><ele>334.0</ele><time>2026-04-05T09:45:33Z</time></trkpt><trkpt lat="44.77295067437445" lon="9.604375440460643"><ele>336.0</ele><time>2026-04-05T09:45:34Z</time></trkpt><trkpt lat="44.77305894947709" lon="9.604396544282675"><ele>338.0</ele><time>2026-04-05T09:45:35Z</time></trkpt><trkpt lat="44.773159002652235" lon="9.604389014247529"><ele>340.0</ele><time>2026-04-05T09:45:36Z</time></trkpt><trkpt lat="44.773248697598675" lon="9.604326992870766"><ele>342.0</ele><time>2026-04-05T09:45:37Z</time></trkpt><trkpt lat="44.77333579126109" lon="9.604235703943155"><ele>342.0</ele><time>2026-04-05T09:45:38Z</time></trkpt><trkpt lat="44.77342261239571" lon="9.60413919523035"><ele>342.0</ele><time>2026-04-05T09:45:39Z</time></trkpt><trkpt lat="44.77349484556887" lon="9.604060295399215"><ele>342.0</ele><time>2026-04-05T09:45:40Z</time></trkpt><trkpt lat="44.77358130485218" lon="9.603990072725283"><ele>342.0</ele><time>2026-04-05T09:45:41Z</time></trkpt><trkpt lat="44.77366286219213" lon="9.603904814184608"><ele>342.0</ele><time>2026-04-05T09:45:42Z</time></trkpt><trkpt lat="44.77367510993962" lon="9.60373968918087"><ele>342.0</ele><time>2026-04-05T09:45:43Z</time></trkpt><trkpt lat="44.773687373249906" lon="9.603575848900588"><ele>342.0</ele><time>2026-04-05T09:45:45Z</time></trkpt><trkpt lat="44.773635181191146" lon="9.603470400701342"><ele>342.0</ele><time>2026-04-05T09:45:46Z</time></trkpt><trkpt lat="44.773574479474725" lon="9.603344156686285"><ele>342.0</ele><time>2026-04-05T09:45:47Z</time></trkpt><trkpt lat="44.773526932118" lon="9.603200365491826"><ele>342.0</ele><time>2026-04-05T09:45:48Z</time></trkpt><trkpt lat="44.77352109779001" lon="9.603039028995306"><ele>345.0</ele><time>2026-04-05T09:45:49Z</time></trkpt><trkpt lat="44.77349888962945" lon="9.602862484286899"><ele>348.0</ele><time>2026-04-05T09:45:50Z</time></trkpt><trkpt lat="44.77349944661231" lon="9.602684447801987"><ele>351.0</ele><time>2026-04-05T09:45:51Z</time></trkpt><trkpt lat="44.77350648181779" lon="9.60251700856051"><ele>354.0</ele><time>2026-04-05T09:45:52Z</time></trkpt><trkpt lat="44.773505100406425" lon="9.60235382435561"><ele>355.75</ele><time>2026-04-05T09:45:53Z</time></trkpt><trkpt lat="44.77349430877787" lon="9.602180155222445"><ele>357.5</ele><time>2026-04-05T09:45:54Z</time></trkpt><trkpt lat="44.77345976854366" lon="9.602017459630408"><ele>359.25</ele><time>2026-04-05T09:45:55Z</time></trkpt><trkpt lat="44.7734002359288" lon="9.601848006331917"><ele>361.0</ele><time>2026-04-05T09:45:56Z</time></trkpt><trkpt lat="44.773312221227236" lon="9.601661792055094"><ele>361.25</ele><time>2026-04-05T09:45:57Z</time></trkpt><trkpt lat="44.77322831374688" lon="9.601452035333468"><ele>361.5</ele><time>2026-04-05T09:45:58Z</time></trkpt><trkpt lat="44.7731490614047" lon="9.601272251759701"><ele>361.75</ele><time>2026-04-05T09:45:59Z</time></trkpt><trkpt lat="44.7731071796154" lon="9.601120356813059"><ele>362.0</ele><time>2026-04-05T09:46:00Z</time></trkpt><trkpt lat="44.773089965550014" lon="9.600970561430033"><ele>364.75</ele><time>2026-04-05T09:46:01Z</time></trkpt><trkpt lat="44.773074332098524" lon="9.60078905496898"><ele>367.5</ele><time>2026-04-05T09:46:02Z</time></trkpt><trkpt lat="44.77304129940799" lon="9.600579365127912"><ele>370.25</ele><time>2026-04-05T09:46:03Z</time></trkpt><trkpt lat="44.77302427519036" lon="9.600359913085864"><ele>373.0</ele><time>2026-04-05T09:46:04Z</time></trkpt><trkpt lat="44.77301055432011" lon="9.60016030957447"><ele>375.66666666666663</ele><time>2026-04-05T09:46:05Z</time></trkpt><trkpt lat="44.773005198380325" lon="9.60000719386266"><ele>378.3333333333333</ele><time>2026-04-05T09:46:06Z</time></trkpt><trkpt lat="44.773031608320785" lon="9.59990227152139"><ele>381.0</ele><time>2026-04-05T09:46:07Z</time></trkpt><trkpt lat="44.77304161607593" lon="9.599783798460935"><ele>383.66666666666663</ele><time>2026-04-05T09:46:09Z</time></trkpt><trkpt lat="44.7729879488649" lon="9.599734462014172"><ele>386.3333333333333</ele><time>2026-04-05T09:46:22Z</time></trkpt><trkpt lat="44.772909399365155" lon="9.59976310140732"><ele>389.0</ele><time>2026-04-05T09:46:30Z</time></trkpt><trkpt lat="44.77286241102052" lon="9.599683151224001"><ele>388.99999999999994</ele><time>2026-04-05T09:46:32Z</time></trkpt><trkpt lat="44.77287311308073" lon="9.599563398304987"><ele>389.0</ele><time>2026-04-05T09:46:36Z</time></trkpt><trkpt lat="44.77280931149768" lon="9.599556325730543"><ele>389.0</ele><time>2026-04-05T09:46:40Z</time></trkpt><trkpt lat="44.772804364297315" lon="9.599462831250959"><ele>389.0</ele><time>2026-04-05T09:46:43Z</time></trkpt><trkpt lat="44.77282990770139" lon="9.599354636374311"><ele>388.99999999999994</ele><time>2026-04-05T09:46:45Z</time></trkpt><trkpt lat="44.772765979249996" lon="9.599233520352337"><ele>389.0</ele><time>2026-04-05T09:46:48Z</time></trkpt><trkpt lat="44.77274645122608" lon="9.599131231299602"><ele>391.25</ele><time>2026-04-05T09:46:49Z</time></trkpt><trkpt lat="44.77271818729537" lon="9.599035556881379"><ele>393.5</ele><time>2026-04-05T09:46:50Z</time></trkpt><trkpt lat="44.77270417418819" lon="9.598898064183526"><ele>395.75</ele><time>2026-04-05T09:46:52Z</time></trkpt><trkpt lat="44.77269986898865" lon="9.598761429318703"><ele>398.0</ele><time>2026-04-05T09:46:55Z</time></trkpt><trkpt lat="44.77270825132983" lon="9.598498955874023"><ele>398.8333333333333</ele><time>2026-04-05T09:46:57Z</time></trkpt><trkpt lat="44.772723162913486" lon="9.598344503617385"><ele>399.66666666666663</ele><time>2026-04-05T09:46:59Z</time></trkpt><trkpt lat="44.7727670595924" lon="9.59825248458894"><ele>400.5</ele><time>2026-04-05T09:47:01Z</time></trkpt><trkpt lat="44.772789015164506" lon="9.598142319059978"><ele>401.33333333333337</ele><time>2026-04-05T09:47:03Z</time></trkpt><trkpt lat="44.77279065851225" lon="9.598007672616545"><ele>402.1666666666667</ele><time>2026-04-05T09:47:05Z</time></trkpt><trkpt lat="44.77278797080049" lon="9.597892272706062"><ele>403.0</ele><time>2026-04-05T09:47:07Z</time></trkpt><trkpt lat="44.77278324310471" lon="9.5977825335685"><ele>404.6666666666667</ele><time>2026-04-05T09:47:09Z</time></trkpt><trkpt lat="44.77279483965041" lon="9.597680395165252"><ele>406.33333333333337</ele><time>2026-04-05T09:47:11Z</time></trkpt><trkpt lat="44.77279135059945" lon="9.597562066117867"><ele>408.0</ele><time>2026-04-05T09:47:13Z</time></trkpt><trkpt lat="44.77275540206829" lon="9.597447548491182"><ele>409.66666666666663</ele><time>2026-04-05T09:47:15Z</time></trkpt><trkpt lat="44.77271187348922" lon="9.597341170583132"><ele>411.3333333333333</ele><time>2026-04-05T09:47:18Z</time></trkpt><trkpt lat="44.77266578830936" lon="9.597227139638214"><ele>413.0</ele><time>2026-04-05T09:47:21Z</time></trkpt><trkpt lat="44.77265314610138" lon="9.596904782731789"><ele>414.49999999999994</ele><time>2026-04-05T09:47:24Z</time></trkpt><trkpt lat="44.772704216840594" lon="9.596743950669854"><ele>416.0</ele><time>2026-04-05T09:47:26Z</time></trkpt><trkpt lat="44.77275295185356" lon="9.596641982998326"><ele>417.5</ele><time>2026-04-05T09:47:27Z</time></trkpt><trkpt lat="44.77279402442433" lon="9.596533737955491"><ele>419.0</ele><time>2026-04-05T09:47:28Z</time></trkpt><trkpt lat="44.772815168565145" lon="9.596425984803572"><ele>420.49999999999994</ele><time>2026-04-05T09:47:29Z</time></trkpt><trkpt lat="44.77282336541454" lon="9.596327215492826"><ele>422.0</ele><time>2026-04-05T09:47:30Z</time></trkpt><trkpt lat="44.77283802870043" lon="9.596227925234588"><ele>423.14285714285717</ele><time>2026-04-05T09:47:31Z</time></trkpt><trkpt lat="44.772863519145616" lon="9.596130890498682"><ele>424.28571428571433</ele><time>2026-04-05T09:47:32Z</time></trkpt><trkpt lat="44.772901430503104" lon="9.596038260472982"><ele>425.42857142857144</ele><time>2026-04-05T09:47:33Z</time></trkpt><trkpt lat="44.772941059597635" lon="9.595957808421206"><ele>426.57142857142856</ele><time>2026-04-05T09:47:34Z</time></trkpt><trkpt lat="44.77298772511516" lon="9.595880910614923"><ele>427.7142857142857</ele><time>2026-04-05T09:47:35Z</time></trkpt><trkpt lat="44.77302782101626" lon="9.595791620771399"><ele>428.85714285714283</ele><time>2026-04-05T09:47:36Z</time></trkpt><trkpt lat="44.77305505530752" lon="9.595699112900895"><ele>430.0</ele><time>2026-04-05T09:47:37Z</time></trkpt><trkpt lat="44.77306146661943" lon="9.595586405072776"><ele>430.0</ele><time>2026-04-05T09:47:39Z</time></trkpt><trkpt lat="44.77299331893034" lon="9.595535733336643"><ele>430.0</ele><time>2026-04-05T09:47:41Z</time></trkpt><trkpt lat="44.7728882614081" lon="9.595487345861843"><ele>430.0</ele><time>2026-04-05T09:47:43Z</time></trkpt><trkpt lat="44.77285240296448" lon="9.59537418034319"><ele>430.0</ele><time>2026-04-05T09:47:44Z</time></trkpt><trkpt lat="44.77281358080304" lon="9.595258958322834"><ele>430.0</ele><time>2026-04-05T09:47:45Z</time></trkpt><trkpt lat="44.77273148919922" lon="9.595140309749802"><ele>432.2</ele><time>2026-04-05T09:47:47Z</time></trkpt><trkpt lat="44.772669924391685" lon="9.595006359415828"><ele>434.4</ele><time>2026-04-05T09:47:49Z</time></trkpt><trkpt lat="44.77261079409293" lon="9.594866363275345"><ele>436.6</ele><time>2026-04-05T09:47:51Z</time></trkpt><trkpt lat="44.77263029069143" lon="9.594729659439173"><ele>438.8</ele><time>2026-04-05T09:47:53Z</time></trkpt><trkpt lat="44.77265801098532" lon="9.594602954616473"><ele>441.0</ele><time>2026-04-05T09:47:54Z</time></trkpt><trkpt lat="44.77266065138785" lon="9.594461289650818"><ele>442.5</ele><time>2026-04-05T09:47:55Z</time></trkpt><trkpt lat="44.77260174764933" lon="9.594342502071916"><ele>444.0</ele><time>2026-04-05T09:47:57Z</time></trkpt><trkpt lat="44.772555527084826" lon="9.594269857838793"><ele>445.5</ele><time>2026-04-05T09:47:58Z</time></trkpt><trkpt lat="44.77251803982422" lon="9.594182135845545"><ele>447.0</ele><time>2026-04-05T09:47:59Z</time></trkpt><trkpt lat="44.7725214909661" lon="9.594037822043406"><ele>448.5</ele><time>2026-04-05T09:48:01Z</time></trkpt><trkpt lat="44.7725486161956" lon="9.593899696504963"><ele>450.0</ele><time>2026-04-05T09:48:03Z</time></trkpt><trkpt lat="44.772544687062336" lon="9.593810123310751"><ele>450.0</ele><time>2026-04-05T09:48:04Z</time></trkpt><trkpt lat="44.77253666232617" lon="9.593681500116537"><ele>450.0</ele><time>2026-04-05T09:48:05Z</time></trkpt><trkpt lat="44.77256899942841" lon="9.593528880071588"><ele>450.0</ele><time>2026-04-05T09:48:07Z</time></trkpt><trkpt lat="44.77268931950996" lon="9.593504689610615"><ele>450.0</ele><time>2026-04-05T09:48:09Z</time></trkpt><trkpt lat="44.77275974109451" lon="9.593499495670978"><ele>450.0</ele><time>2026-04-05T09:48:10Z</time></trkpt><trkpt lat="44.772840276190365" lon="9.593458278731326"><ele>452.28571428571433</ele><time>2026-04-05T09:48:11Z</time></trkpt><trkpt lat="44.77288599981388" lon="9.593379082556368"><ele>454.57142857142856</ele><time>2026-04-05T09:48:12Z</time></trkpt><trkpt lat="44.77295391347388" lon="9.593295316312505"><ele>456.8571428571429</ele><time>2026-04-05T09:48:14Z</time></trkpt><trkpt lat="44.77302179285529" lon="9.593277559671924"><ele>459.14285714285717</ele><time>2026-04-05T09:48:15Z</time></trkpt><trkpt lat="44.77308283642453" lon="9.593229878814867"><ele>461.42857142857144</ele><time>2026-04-05T09:48:17Z</time></trkpt><trkpt lat="44.77312680431994" lon="9.593163776704936"><ele>463.7142857142857</ele><time>2026-04-05T09:48:20Z</time></trkpt><trkpt lat="44.77319396036935" lon="9.593150641125856"><ele>466.0</ele><time>2026-04-05T09:48:22Z</time></trkpt><trkpt lat="44.773350394778895" lon="9.59307128931537"><ele>466.0</ele><time>2026-04-05T09:48:24Z</time></trkpt><trkpt lat="44.77342480663587" lon="9.59298708875224"><ele>466.0</ele><time>2026-04-05T09:48:26Z</time></trkpt><trkpt lat="44.77345982924453" lon="9.592892858262116"><ele>466.0</ele><time>2026-04-05T09:48:28Z</time></trkpt><trkpt lat="44.77349622608067" lon="9.592763147603767"><ele>466.0</ele><time>2026-04-05T09:48:30Z</time></trkpt><trkpt lat="44.77355455047739" lon="9.592614195600609"><ele>466.0</ele><time>2026-04-05T09:48:32Z</time></trkpt><trkpt lat="44.77358885037141" lon="9.592518219045212"><ele>468.4</ele><time>2026-04-05T09:48:33Z</time></trkpt><trkpt lat="44.77362845137626" lon="9.592411984450676"><ele>470.8</ele><time>2026-04-05T09:48:34Z</time></trkpt><trkpt lat="44.773665056222896" lon="9.59231170734136"><ele>473.19999999999993</ele><time>2026-04-05T09:48:35Z</time></trkpt><trkpt lat="44.77367935413036" lon="9.592222385566968"><ele>475.59999999999997</ele><time>2026-04-05T09:48:36Z</time></trkpt><trkpt lat="44.77368987568079" lon="9.592081797177043"><ele>478.0</ele><time>2026-04-05T09:48:38Z</time></trkpt><trkpt lat="44.7737180274817" lon="9.5919103793093"><ele>480.1666666666667</ele><time>2026-04-05T09:48:40Z</time></trkpt><trkpt lat="44.77375076636092" lon="9.591797169201183"><ele>482.33333333333337</ele><time>2026-04-05T09:48:41Z</time></trkpt><trkpt lat="44.77380253054339" lon="9.591723972614203"><ele>484.5</ele><time>2026-04-05T09:48:42Z</time></trkpt><trkpt lat="44.77381654317675" lon="9.59181333459881"><ele>486.66666666666663</ele><time>2026-04-05T09:48:47Z</time></trkpt><trkpt lat="44.77389726534374" lon="9.591798030615692"><ele>488.8333333333333</ele><time>2026-04-05T09:49:13Z</time></trkpt><trkpt lat="44.773953705869246" lon="9.591687850889793"><ele>491.0</ele><time>2026-04-05T09:49:55Z</time></trkpt><trkpt lat="44.773989907155546" lon="9.591614831075988"><ele>490.99999999999994</ele><time>2026-04-05T09:49:56Z</time></trkpt><trkpt lat="44.77404854071169" lon="9.591530799630268"><ele>491.0</ele><time>2026-04-05T09:49:58Z</time></trkpt><trkpt lat="44.77404536708124" lon="9.591425076495359"><ele>491.0</ele><time>2026-04-05T09:50:00Z</time></trkpt><trkpt lat="44.77404835255806" lon="9.591317515651765"><ele>491.0</ele><time>2026-04-05T09:50:01Z</time></trkpt><trkpt lat="44.774060787541295" lon="9.591217618323721"><ele>490.99999999999994</ele><time>2026-04-05T09:50:02Z</time></trkpt><trkpt lat="44.77406266135827" lon="9.59103635584245"><ele>491.0</ele><time>2026-04-05T09:50:04Z</time></trkpt><trkpt lat="44.774238053233276" lon="9.590874098197155"><ele>492.49999999999994</ele><time>2026-04-05T09:50:06Z</time></trkpt><trkpt lat="44.774231392823204" lon="9.59073829747182"><ele>494.0</ele><time>2026-04-05T09:50:08Z</time></trkpt><trkpt lat="44.774230128507284" lon="9.59064460533746"><ele>495.5</ele><time>2026-04-05T09:50:09Z</time></trkpt><trkpt lat="44.77422974625554" lon="9.59053205309529"><ele>497.0</ele><time>2026-04-05T09:50:10Z</time></trkpt><trkpt lat="44.77423034154515" lon="9.590416716596806"><ele>498.49999999999994</ele><time>2026-04-05T09:50:11Z</time></trkpt><trkpt lat="44.77423170240817" lon="9.590311479331326"><ele>500.0</ele><time>2026-04-05T09:50:12Z</time></trkpt><trkpt lat="44.774104807160214" lon="9.590195935730147"><ele>501.49999999999994</ele><time>2026-04-05T09:50:13Z</time></trkpt><trkpt lat="44.77409136270964" lon="9.590099672510938"><ele>503.0</ele><time>2026-04-05T09:50:14Z</time></trkpt><trkpt lat="44.77409723712299" lon="9.58999152676768"><ele>504.5</ele><time>2026-04-05T09:50:15Z</time></trkpt><trkpt lat="44.77412948786669" lon="9.589891237750319"><ele>506.0</ele><time>2026-04-05T09:50:16Z</time></trkpt><trkpt lat="44.77417886171154" lon="9.589802488865999"><ele>507.49999999999994</ele><time>2026-04-05T09:50:17Z</time></trkpt><trkpt lat="44.774231793330465" lon="9.589722547893663"><ele>509.0</ele><time>2026-04-05T09:50:18Z</time></trkpt><trkpt lat="44.774229414900695" lon="9.589612369199687"><ele>510.3333333333333</ele><time>2026-04-05T09:50:20Z</time></trkpt><trkpt lat="44.77419951099899" lon="9.589504443736823"><ele>511.66666666666663</ele><time>2026-04-05T09:50:21Z</time></trkpt><trkpt lat="44.77417140286894" lon="9.589392314287094"><ele>513.0</ele><time>2026-04-05T09:50:22Z</time></trkpt><trkpt lat="44.77414673849828" lon="9.589272093974843"><ele>514.3333333333334</ele><time>2026-04-05T09:50:23Z</time></trkpt><trkpt lat="44.77412498002213" lon="9.58916526734407"><ele>515.6666666666667</ele><time>2026-04-05T09:50:24Z</time></trkpt><trkpt lat="44.77408508414517" lon="9.589027286648284"><ele>517.0</ele><time>2026-04-05T09:50:26Z</time></trkpt><trkpt lat="44.77403433076147" lon="9.5889532335885"><ele>517.0</ele><time>2026-04-05T09:50:29Z</time></trkpt><trkpt lat="44.77400958636941" lon="9.58878996715532"><ele>517.0</ele><time>2026-04-05T09:50:44Z</time></trkpt><trkpt lat="44.773995810323804" lon="9.58866912187891"><ele>517.0</ele><time>2026-04-05T09:50:45Z</time></trkpt><trkpt lat="44.77396642145343" lon="9.588541287014905"><ele>517.0</ele><time>2026-04-05T09:50:47Z</time></trkpt><trkpt lat="44.77407352571606" lon="9.588393658151881"><ele>519.1666666666667</ele><time>2026-04-05T09:50:49Z</time></trkpt><trkpt lat="44.77413329078318" lon="9.58842229014418"><ele>521.3333333333334</ele><time>2026-04-05T09:50:50Z</time></trkpt><trkpt lat="44.77424611107676" lon="9.588399129073352"><ele>523.5</ele><time>2026-04-05T09:50:51Z</time></trkpt><trkpt lat="44.77432224743074" lon="9.588315989600337"><ele>525.6666666666666</ele><time>2026-04-05T09:50:53Z</time></trkpt><trkpt lat="44.774388132956425" lon="9.588279733802873"><ele>527.8333333333333</ele><time>2026-04-05T09:50:54Z</time></trkpt><trkpt lat="44.77444663511255" lon="9.588242769675734"><ele>530.0</ele><time>2026-04-05T09:50:55Z</time></trkpt><trkpt lat="44.774508571477135" lon="9.588211566182382"><ele>532.6666666666666</ele><time>2026-04-05T09:50:56Z</time></trkpt><trkpt lat="44.77457811255977" lon="9.588183284683305"><ele>535.3333333333333</ele><time>2026-04-05T09:50:57Z</time></trkpt><trkpt lat="44.77464708553076" lon="9.58816479782561"><ele>538.0</ele><time>2026-04-05T09:50:58Z</time></trkpt><trkpt lat="44.774711472484206" lon="9.58812281445164"><ele>540.6666666666666</ele><time>2026-04-05T09:50:59Z</time></trkpt><trkpt lat="44.77478958389109" lon="9.588071304767896"><ele>543.3333333333334</ele><time>2026-04-05T09:51:00Z</time></trkpt><trkpt lat="44.774857843334715" lon="9.588000255386202"><ele>546.0</ele><time>2026-04-05T09:51:01Z</time></trkpt><trkpt lat="44.774896084899794" lon="9.587908892299417"><ele>546.8333333333334</ele><time>2026-04-05T09:51:02Z</time></trkpt><trkpt lat="44.77493847655152" lon="9.587806144254646"><ele>547.6666666666666</ele><time>2026-04-05T09:51:03Z</time></trkpt><trkpt lat="44.77500345760442" lon="9.587747127086526"><ele>548.5</ele><time>2026-04-05T09:51:04Z</time></trkpt><trkpt lat="44.77507542722136" lon="9.58770306169959"><ele>549.3333333333333</ele><time>2026-04-05T09:51:05Z</time></trkpt><trkpt lat="44.77513011151233" lon="9.587638685187892"><ele>550.1666666666666</ele><time>2026-04-05T09:51:07Z</time></trkpt><trkpt lat="44.775226121420694" lon="9.58757338081977"><ele>551.0</ele><time>2026-04-05T09:51:09Z</time></trkpt><trkpt lat="44.77528901768376" lon="9.587536800807001"><ele>553.6666666666666</ele><time>2026-04-05T09:51:10Z</time></trkpt><trkpt lat="44.775356989026776" lon="9.587516964771854"><ele>556.3333333333333</ele><time>2026-04-05T09:51:11Z</time></trkpt><trkpt lat="44.775436342238784" lon="9.58741073568582"><ele>559.0</ele><time>2026-04-05T09:51:13Z</time></trkpt><trkpt lat="44.77550626853549" lon="9.587326468691074"><ele>561.6666666666666</ele><time>2026-04-05T09:51:15Z</time></trkpt><trkpt lat="44.77556505119454" lon="9.587282461462424"><ele>564.3333333333334</ele><time>2026-04-05T09:51:16Z</time></trkpt><trkpt lat="44.77563357860805" lon="9.58722908988352"><ele>567.0</ele><time>2026-04-05T09:51:17Z</time></trkpt><trkpt lat="44.77571292939431" lon="9.587120090972748"><ele>567.0</ele><time>2026-04-05T09:51:19Z</time></trkpt><trkpt lat="44.77570360619785" lon="9.587017656331874"><ele>567.0</ele><time>2026-04-05T09:51:21Z</time></trkpt><trkpt lat="44.775704793939994" lon="9.58692507856298"><ele>567.0</ele><time>2026-04-05T09:51:23Z</time></trkpt><trkpt lat="44.77574433187663" lon="9.58680996245251"><ele>567.0</ele><time>2026-04-05T09:51:26Z</time></trkpt><trkpt lat="44.77577404804519" lon="9.58671621390277"><ele>567.0</ele><time>2026-04-05T09:51:28Z</time></trkpt><trkpt lat="44.77579944708242" lon="9.586619906703593"><ele>567.0</ele><time>2026-04-05T09:51:30Z</time></trkpt><trkpt lat="44.77585243993214" lon="9.58656494114823"><ele>567.0</ele><time>2026-04-05T09:51:32Z</time></trkpt><trkpt lat="44.775932190075025" lon="9.586538478382474"><ele>570.0</ele><time>2026-04-05T09:51:36Z</time></trkpt><trkpt lat="44.776028074738605" lon="9.58651595723907"><ele>573.0</ele><time>2026-04-05T09:51:38Z</time></trkpt><trkpt lat="44.776114661344984" lon="9.586477317375524"><ele>576.0</ele><time>2026-04-05T09:51:39Z</time></trkpt><trkpt lat="44.776177921301915" lon="9.586408768211758"><ele>579.0</ele><time>2026-04-05T09:51:40Z</time></trkpt><trkpt lat="44.776255642672794" lon="9.586380680686037"><ele>582.0</ele><time>2026-04-05T09:51:41Z</time></trkpt><trkpt lat="44.77633622698487" lon="9.58638572566128"><ele>585.0</ele><time>2026-04-05T09:51:42Z</time></trkpt><trkpt lat="44.776419916401686" lon="9.586386497328446"><ele>585.0</ele><time>2026-04-05T09:51:44Z</time></trkpt><trkpt lat="44.77643527964093" lon="9.58626905642553"><ele>585.0</ele><time>2026-04-05T09:51:46Z</time></trkpt><trkpt lat="44.776488297432245" lon="9.586100571283797"><ele>585.0</ele><time>2026-04-05T09:51:48Z</time></trkpt><trkpt lat="44.776600727803014" lon="9.586062201935531"><ele>585.0</ele><time>2026-04-05T09:51:50Z</time></trkpt><trkpt lat="44.77667643295263" lon="9.586087741627455"><ele>585.0</ele><time>2026-04-05T09:51:51Z</time></trkpt><trkpt lat="44.776740526063975" lon="9.586123261115352"><ele>585.6666666666666</ele><time>2026-04-05T09:51:52Z</time></trkpt><trkpt lat="44.77682201431713" lon="9.586074242071387"><ele>586.3333333333334</ele><time>2026-04-05T09:51:54Z</time></trkpt><trkpt lat="44.77685154220626" lon="9.585981034629588"><ele>587.0</ele><time>2026-04-05T09:56:57Z</time></trkpt><trkpt lat="44.77685411054471" lon="9.585858100426117"><ele>587.6666666666667</ele><time>2026-04-05T09:56:59Z</time></trkpt><trkpt lat="44.77687449090503" lon="9.585757939386845"><ele>588.3333333333334</ele><time>2026-04-05T09:57:01Z</time></trkpt><trkpt lat="44.77683619364838" lon="9.58564745085737"><ele>589.0</ele><time>2026-04-05T09:57:03Z</time></trkpt><trkpt lat="44.77677314469653" lon="9.585532322730106"><ele>590.3333333333334</ele><time>2026-04-05T09:57:05Z</time></trkpt><trkpt lat="44.77671637968981" lon="9.58538699711517"><ele>591.6666666666667</ele><time>2026-04-05T09:57:07Z</time></trkpt><trkpt lat="44.77668482772478" lon="9.585231255380164"><ele>593.0</ele><time>2026-04-05T09:57:09Z</time></trkpt><trkpt lat="44.7766831105379" lon="9.585142037519024"><ele>594.3333333333334</ele><time>2026-04-05T09:57:10Z</time></trkpt><trkpt lat="44.7767038254049" lon="9.585053668252648"><ele>595.6666666666666</ele><time>2026-04-05T09:57:11Z</time></trkpt><trkpt lat="44.776715604187956" lon="9.58495814822663"><ele>597.0</ele><time>2026-04-05T09:57:12Z</time></trkpt><trkpt lat="44.77672912283243" lon="9.584842684377374"><ele>599.0</ele><time>2026-04-05T09:57:13Z</time></trkpt><trkpt lat="44.77675699118951" lon="9.584718913712635"><ele>601.0</ele><time>2026-04-05T09:57:14Z</time></trkpt><trkpt lat="44.776786898278175" lon="9.584599833212767"><ele>603.0</ele><time>2026-04-05T09:57:15Z</time></trkpt><trkpt lat="44.77679912054642" lon="9.584475601520257"><ele>605.0</ele><time>2026-04-05T09:57:16Z</time></trkpt><trkpt lat="44.7767941693081" lon="9.584363772455676"><ele>607.0</ele><time>2026-04-05T09:57:17Z</time></trkpt><trkpt lat="44.77678781263601" lon="9.584255777674544"><ele>609.0</ele><time>2026-04-05T09:57:18Z</time></trkpt><trkpt lat="44.77677279597047" lon="9.584140414737282"><ele>610.1666666666666</ele><time>2026-04-05T09:57:19Z</time></trkpt><trkpt lat="44.776762469214646" lon="9.584016861199785"><ele>611.3333333333334</ele><time>2026-04-05T09:57:20Z</time></trkpt><trkpt lat="44.7767609681786" lon="9.58389876503401"><ele>612.5</ele><time>2026-04-05T09:57:21Z</time></trkpt><trkpt lat="44.77679079196456" lon="9.58381680942608"><ele>613.6666666666667</ele><time>2026-04-05T09:57:22Z</time></trkpt><trkpt lat="44.776832459103126" lon="9.583737401846124"><ele>614.8333333333334</ele><time>2026-04-05T09:57:23Z</time></trkpt><trkpt lat="44.77688576197006" lon="9.583657006803287"><ele>616.0</ele><time>2026-04-05T09:57:24Z</time></trkpt><trkpt lat="44.7769351251497" lon="9.583573698119631"><ele>617.2</ele><time>2026-04-05T09:57:25Z</time></trkpt><trkpt lat="44.77696954857017" lon="9.583459809519463"><ele>618.4000000000001</ele><time>2026-04-05T09:57:26Z</time></trkpt><trkpt lat="44.77698935982687" lon="9.583317583169496"><ele>619.6</ele><time>2026-04-05T09:57:27Z</time></trkpt><trkpt lat="44.777012458430555" lon="9.583183050615641"><ele>620.8000000000001</ele><time>2026-04-05T09:57:28Z</time></trkpt><trkpt lat="44.77701515564581" lon="9.583065930779034"><ele>622.0</ele><time>2026-04-05T09:57:29Z</time></trkpt><trkpt lat="44.77701277264013" lon="9.582945774447209"><ele>624.6666666666667</ele><time>2026-04-05T09:57:30Z</time></trkpt><trkpt lat="44.777034996461026" lon="9.58282991833239"><ele>627.3333333333334</ele><time>2026-04-05T09:57:31Z</time></trkpt><trkpt lat="44.77709441292344" lon="9.582723618066261"><ele>630.0</ele><time>2026-04-05T09:57:32Z</time></trkpt><trkpt lat="44.777152787721015" lon="9.582640375713614"><ele>632.6666666666666</ele><time>2026-04-05T09:57:33Z</time></trkpt><trkpt lat="44.77709885548804" lon="9.582548927787894"><ele>635.3333333333333</ele><time>2026-04-05T09:57:35Z</time></trkpt><trkpt lat="44.777018648367516" lon="9.582521307112929"><ele>638.0</ele><time>2026-04-05T09:57:37Z</time></trkpt><trkpt lat="44.776985527409224" lon="9.582367757122192"><ele>638.0</ele><time>2026-04-05T09:57:39Z</time></trkpt><trkpt lat="44.77697114190492" lon="9.58209075941081"><ele>638.0</ele><time>2026-04-05T09:57:41Z</time></trkpt><trkpt lat="44.77693611673559" lon="9.581975090416629"><ele>638.0</ele><time>2026-04-05T09:57:42Z</time></trkpt><trkpt lat="44.77689656326621" lon="9.581854744239438"><ele>638.0</ele><time>2026-04-05T09:57:43Z</time></trkpt><trkpt lat="44.77685780896669" lon="9.581758072217859"><ele>643.1666666666666</ele><time>2026-04-05T09:57:44Z</time></trkpt><trkpt lat="44.77683106499276" lon="9.581914439304384"><ele>648.3333333333333</ele><time>2026-04-05T09:58:27Z</time></trkpt><trkpt lat="44.77677051727058" lon="9.58187059767575"><ele>653.5</ele><time>2026-04-05T09:58:30Z</time></trkpt><trkpt lat="44.776693445011695" lon="9.581841232145909"><ele>658.6666666666666</ele><time>2026-04-05T09:58:32Z</time></trkpt><trkpt lat="44.776626724510194" lon="9.581826312544392"><ele>663.8333333333334</ele><time>2026-04-05T09:58:33Z</time></trkpt><trkpt lat="44.776542403742994" lon="9.581810998878684"><ele>669.0</ele><time>2026-04-05T09:58:34Z</time></trkpt><trkpt lat="44.77645205380394" lon="9.581794175180066"><ele>669.0</ele><time>2026-04-05T09:58:35Z</time></trkpt><trkpt lat="44.77639295538196" lon="9.5817417762437"><ele>669.0</ele><time>2026-04-05T09:58:37Z</time></trkpt><trkpt lat="44.776350600094645" lon="9.581673599043228"><ele>669.0</ele><time>2026-04-05T09:58:38Z</time></trkpt><trkpt lat="44.77629701076004" lon="9.581595662222865"><ele>669.0</ele><time>2026-04-05T09:58:39Z</time></trkpt><trkpt lat="44.77623240679265" lon="9.581541788343124"><ele>669.0</ele><time>2026-04-05T09:58:40Z</time></trkpt><trkpt lat="44.776148033729115" lon="9.581506842810306"><ele>669.0</ele><time>2026-04-05T09:58:41Z</time></trkpt><trkpt lat="44.77607156153376" lon="9.581467598400325"><ele>669.6666666666666</ele><time>2026-04-05T09:58:42Z</time></trkpt><trkpt lat="44.776016695537464" lon="9.581419659872589"><ele>670.3333333333334</ele><time>2026-04-05T09:58:43Z</time></trkpt><trkpt lat="44.77599483712168" lon="9.58124025171985"><ele>671.0</ele><time>2026-04-05T09:58:45Z</time></trkpt><trkpt lat="44.776008139454156" lon="9.581130543083006"><ele>671.6666666666667</ele><time>2026-04-05T09:58:46Z</time></trkpt><trkpt lat="44.77605185293323" lon="9.581060382695602"><ele>672.3333333333334</ele><time>2026-04-05T09:58:47Z</time></trkpt><trkpt lat="44.77612002862701" lon="9.581010318802903"><ele>673.0</ele><time>2026-04-05T09:58:48Z</time></trkpt><trkpt lat="44.77617719318401" lon="9.580902703952573"><ele>674.8</ele><time>2026-04-05T09:58:50Z</time></trkpt><trkpt lat="44.77612887196567" lon="9.580742367412551"><ele>676.5999999999999</ele><time>2026-04-05T09:58:52Z</time></trkpt><trkpt lat="44.776077599675325" lon="9.580682666528022"><ele>678.4000000000001</ele><time>2026-04-05T09:58:53Z</time></trkpt><trkpt lat="44.776000859532466" lon="9.580540816653238"><ele>680.2</ele><time>2026-04-05T09:58:55Z</time></trkpt><trkpt lat="44.77594799253721" lon="9.580434362690628"><ele>682.0</ele><time>2026-04-05T09:58:56Z</time></trkpt><trkpt lat="44.775886840674005" lon="9.580346294601387"><ele>686.4000000000001</ele><time>2026-04-05T09:58:57Z</time></trkpt><trkpt lat="44.775782100714444" lon="9.580248802997724"><ele>690.8000000000001</ele><time>2026-04-05T09:58:59Z</time></trkpt><trkpt lat="44.77573128121809" lon="9.580180347346293"><ele>695.2</ele><time>2026-04-05T09:59:00Z</time></trkpt><trkpt lat="44.77564088090163" lon="9.580075436642773"><ele>699.6</ele><time>2026-04-05T09:59:02Z</time></trkpt><trkpt lat="44.77556901867165" lon="9.580006073452905"><ele>704.0</ele><time>2026-04-05T09:59:04Z</time></trkpt><trkpt lat="44.77556879568907" lon="9.57987129212705"><ele>704.0</ele><time>2026-04-05T09:59:06Z</time></trkpt><trkpt lat="44.7755149912872" lon="9.57980374412393"><ele>704.0</ele><time>2026-04-05T09:59:08Z</time></trkpt><trkpt lat="44.77548957035373" lon="9.579720296602503"><ele>704.0</ele><time>2026-04-05T09:59:10Z</time></trkpt><trkpt lat="44.77544204705303" lon="9.579532341445493"><ele>704.0</ele><time>2026-04-05T09:59:12Z</time></trkpt><trkpt lat="44.775428719710874" lon="9.579394981896238"><ele>704.0</ele><time>2026-04-05T09:59:14Z</time></trkpt><trkpt lat="44.77536451515956" lon="9.579286791596807"><ele>705.6</ele><time>2026-04-05T09:59:16Z</time></trkpt><trkpt lat="44.775252847821896" lon="9.57920201323368"><ele>707.2</ele><time>2026-04-05T09:59:18Z</time></trkpt><trkpt lat="44.775194744482555" lon="9.579145418702893"><ele>708.8000000000001</ele><time>2026-04-05T09:59:19Z</time></trkpt><trkpt lat="44.77514265320956" lon="9.579085359181914"><ele>710.4000000000001</ele><time>2026-04-05T09:59:20Z</time></trkpt><trkpt lat="44.775066439374406" lon="9.578936886904529"><ele>712.0</ele><time>2026-04-05T09:59:22Z</time></trkpt><trkpt lat="44.77503497197741" lon="9.57884258805468"><ele>712.1666666666667</ele><time>2026-04-05T09:59:23Z</time></trkpt><trkpt lat="44.77501313006529" lon="9.578735868347133"><ele>712.3333333333334</ele><time>2026-04-05T09:59:24Z</time></trkpt><trkpt lat="44.774990548343624" lon="9.57862448120142"><ele>712.5</ele><time>2026-04-05T09:59:25Z</time></trkpt><trkpt lat="44.774954545211784" lon="9.578498026210951"><ele>712.6666666666666</ele><time>2026-04-05T09:59:26Z</time></trkpt><trkpt lat="44.774914236656265" lon="9.578386705398342"><ele>712.8333333333333</ele><time>2026-04-05T09:59:27Z</time></trkpt><trkpt lat="44.77487218984002" lon="9.578289381081994"><ele>713.0</ele><time>2026-04-05T09:59:28Z</time></trkpt><trkpt lat="44.774835648582204" lon="9.578201193829592"><ele>715.0</ele><time>2026-04-05T09:59:29Z</time></trkpt><trkpt lat="44.77480852599567" lon="9.578119836864927"><ele>717.0</ele><time>2026-04-05T09:59:30Z</time></trkpt><trkpt lat="44.774790617527465" lon="9.57801114500183"><ele>719.0</ele><time>2026-04-05T09:59:32Z</time></trkpt><trkpt lat="44.774760481309094" lon="9.57791791600593"><ele>721.0</ele><time>2026-04-05T09:59:33Z</time></trkpt><trkpt lat="44.77471535910589" lon="9.57784896801729"><ele>723.0</ele><time>2026-04-05T09:59:34Z</time></trkpt><trkpt lat="44.774619534674365" lon="9.577775300893595"><ele>725.0</ele><time>2026-04-05T09:59:36Z</time></trkpt><trkpt lat="44.77448512151987" lon="9.577817740525466"><ele>725.0</ele><time>2026-04-05T09:59:38Z</time></trkpt><trkpt lat="44.7744159812839" lon="9.577884314485202"><ele>725.0</ele><time>2026-04-05T09:59:39Z</time></trkpt><trkpt lat="44.77433033561674" lon="9.577960476143899"><ele>725.0</ele><time>2026-04-05T09:59:40Z</time></trkpt><trkpt lat="44.77422194375903" lon="9.578026987504701"><ele>725.0</ele><time>2026-04-05T09:59:41Z</time></trkpt><trkpt lat="44.774140493671425" lon="9.578069113514385"><ele>725.0</ele><time>2026-04-05T09:59:42Z</time></trkpt><trkpt lat="44.77403506978023" lon="9.578120988915542"><ele>725.0</ele><time>2026-04-05T09:59:44Z</time></trkpt><trkpt lat="44.77398175385565" lon="9.578187478069843"><ele>725.0</ele><time>2026-04-05T09:59:45Z</time></trkpt><trkpt lat="44.77395125272842" lon="9.578272254024293"><ele>725.0</ele><time>2026-04-05T09:59:46Z</time></trkpt><trkpt lat="44.7739311174803" lon="9.578359851111454"><ele>725.0</ele><time>2026-04-05T09:59:47Z</time></trkpt><trkpt lat="44.77392206128761" lon="9.578462885834883"><ele>725.0</ele><time>2026-04-05T09:59:48Z</time></trkpt><trkpt lat="44.77388230209458" lon="9.578624511693832"><ele>725.0</ele><time>2026-04-05T09:59:50Z</time></trkpt><trkpt lat="44.77384353219897" lon="9.578722010728018"><ele>725.0</ele><time>2026-04-05T09:59:51Z</time></trkpt><trkpt lat="44.773776869849115" lon="9.578785848081205"><ele>725.0</ele><time>2026-04-05T09:59:52Z</time></trkpt><trkpt lat="44.77370238448295" lon="9.578814632663066"><ele>725.0</ele><time>2026-04-05T09:59:53Z</time></trkpt><trkpt lat="44.773632554318326" lon="9.578829836380441"><ele>725.0</ele><time>2026-04-05T09:59:54Z</time></trkpt><trkpt lat="44.77355893921385" lon="9.578819562253974"><ele>725.0</ele><time>2026-04-05T09:59:55Z</time></trkpt><trkpt lat="44.773482213282485" lon="9.578807773515699"><ele>725.0</ele><time>2026-04-05T09:59:56Z</time></trkpt><trkpt lat="44.77340685447867" lon="9.578853535174417"><ele>726.6666666666666</ele><time>2026-04-05T09:59:57Z</time></trkpt><trkpt lat="44.773336257595496" lon="9.578914710238749"><ele>728.3333333333333</ele><time>2026-04-05T09:59:58Z</time></trkpt><trkpt lat="44.7732800530985" lon="9.578989699963934"><ele>730.0</ele><time>2026-04-05T09:59:59Z</time></trkpt><trkpt lat="44.773221250625596" lon="9.579057891899161"><ele>731.6666666666666</ele><time>2026-04-05T10:00:00Z</time></trkpt><trkpt lat="44.7731546740358" lon="9.579138831896275"><ele>733.3333333333334</ele><time>2026-04-05T10:00:01Z</time></trkpt><trkpt lat="44.77308771137588" lon="9.579216160821844"><ele>735.0</ele><time>2026-04-05T10:00:02Z</time></trkpt><trkpt lat="44.773020599125694" lon="9.579294002181857"><ele>735.0</ele><time>2026-04-05T10:00:03Z</time></trkpt><trkpt lat="44.7729422195803" lon="9.579341787719766"><ele>735.0</ele><time>2026-04-05T10:00:04Z</time></trkpt><trkpt lat="44.77285167454713" lon="9.579349174974713"><ele>735.0</ele><time>2026-04-05T10:00:05Z</time></trkpt><trkpt lat="44.7727486126208" lon="9.57937122621189"><ele>735.0</ele><time>2026-04-05T10:00:06Z</time></trkpt><trkpt lat="44.772632994537744" lon="9.57938555049009"><ele>735.0</ele><time>2026-04-05T10:00:07Z</time></trkpt><trkpt lat="44.77251038739118" lon="9.579393655079487"><ele>735.8</ele><time>2026-04-05T10:00:08Z</time></trkpt><trkpt lat="44.77241965680398" lon="9.579412264026354"><ele>736.6</ele><time>2026-04-05T10:00:09Z</time></trkpt><trkpt lat="44.77235024942315" lon="9.579437787936529"><ele>737.4000000000001</ele><time>2026-04-05T10:00:10Z</time></trkpt><trkpt lat="44.7722857025623" lon="9.579465889610814"><ele>738.2</ele><time>2026-04-05T10:00:11Z</time></trkpt><trkpt lat="44.77217494056205" lon="9.57947161940437"><ele>739.0</ele><time>2026-04-05T10:00:13Z</time></trkpt><trkpt lat="44.7720731848718" lon="9.579386136490115"><ele>739.0</ele><time>2026-04-05T10:00:15Z</time></trkpt><trkpt lat="44.771992221298724" lon="9.57923097423127"><ele>739.0</ele><time>2026-04-05T10:00:17Z</time></trkpt><trkpt lat="44.771957629784936" lon="9.579112707337044"><ele>739.0</ele><time>2026-04-05T10:00:18Z</time></trkpt><trkpt lat="44.77190843101389" lon="9.579041991331623"><ele>739.0</ele><time>2026-04-05T10:00:19Z</time></trkpt><trkpt lat="44.771762566610114" lon="9.579036946729627"><ele>739.0</ele><time>2026-04-05T10:00:21Z</time></trkpt><trkpt lat="44.77165852579003" lon="9.579037741520617"><ele>739.1666666666667</ele><time>2026-04-05T10:00:22Z</time></trkpt><trkpt lat="44.77156520235786" lon="9.579050166364398"><ele>739.3333333333334</ele><time>2026-04-05T10:00:23Z</time></trkpt><trkpt lat="44.77148895052875" lon="9.579089481369959"><ele>739.5</ele><time>2026-04-05T10:00:24Z</time></trkpt><trkpt lat="44.771416691806614" lon="9.579142936859505"><ele>739.6666666666666</ele><time>2026-04-05T10:00:25Z</time></trkpt><trkpt lat="44.77135160885189" lon="9.579208933923999"><ele>739.8333333333333</ele><time>2026-04-05T10:00:26Z</time></trkpt><trkpt lat="44.771292950733894" lon="9.579271306088891"><ele>740.0</ele><time>2026-04-05T10:00:27Z</time></trkpt><trkpt lat="44.77123760102879" lon="9.579322858410771"><ele>740.0</ele><time>2026-04-05T10:00:28Z</time></trkpt><trkpt lat="44.77117437067593" lon="9.579383675980036"><ele>740.0</ele><time>2026-04-05T10:00:29Z</time></trkpt><trkpt lat="44.77106566758947" lon="9.579387214040606"><ele>740.0</ele><time>2026-04-05T10:00:31Z</time></trkpt><trkpt lat="44.77101113010527" lon="9.579314421142307"><ele>740.0</ele><time>2026-04-05T10:00:32Z</time></trkpt><trkpt lat="44.77096637342388" lon="9.579215476709315"><ele>740.0</ele><time>2026-04-05T10:00:33Z</time></trkpt><trkpt lat="44.77089152087919" lon="9.579113955593805"><ele>740.0</ele><time>2026-04-05T10:00:34Z</time></trkpt><trkpt lat="44.77082023955963" lon="9.579056923276347"><ele>740.8</ele><time>2026-04-05T10:00:35Z</time></trkpt><trkpt lat="44.770752242683315" lon="9.578988874596305"><ele>741.6</ele><time>2026-04-05T10:00:36Z</time></trkpt><trkpt lat="44.770715316018496" lon="9.578883478398525"><ele>742.4000000000001</ele><time>2026-04-05T10:00:37Z</time></trkpt><trkpt lat="44.77069590522664" lon="9.578757952006258"><ele>743.2</ele><time>2026-04-05T10:00:38Z</time></trkpt><trkpt lat="44.77066644783995" lon="9.578625620462569"><ele>744.0</ele><time>2026-04-05T10:00:39Z</time></trkpt><trkpt lat="44.770627648161096" lon="9.578505697272178"><ele>744.0</ele><time>2026-04-05T10:00:40Z</time></trkpt><trkpt lat="44.77058912620879" lon="9.578399119605272"><ele>744.0</ele><time>2026-04-05T10:00:41Z</time></trkpt><trkpt lat="44.770560654900116" lon="9.578295445566825"><ele>744.0</ele><time>2026-04-05T10:00:42Z</time></trkpt><trkpt lat="44.77052090038604" lon="9.578203015778683"><ele>744.0</ele><time>2026-04-05T10:00:43Z</time></trkpt><trkpt lat="44.7704750780036" lon="9.578113670066104"><ele>744.0</ele><time>2026-04-05T10:00:44Z</time></trkpt><trkpt lat="44.770468098149564" lon="9.578011299058453"><ele>744.0</ele><time>2026-04-05T10:00:45Z</time></trkpt><trkpt lat="44.7704700255366" lon="9.57788248079882"><ele>747.8333333333334</ele><time>2026-04-05T10:00:46Z</time></trkpt><trkpt lat="44.7704653247426" lon="9.57775535101547"><ele>751.6666666666666</ele><time>2026-04-05T10:00:47Z</time></trkpt><trkpt lat="44.77043289173679" lon="9.577669553863425"><ele>755.5</ele><time>2026-04-05T10:00:48Z</time></trkpt><trkpt lat="44.77038554737111" lon="9.577602328510146"><ele>759.3333333333333</ele><time>2026-04-05T10:00:49Z</time></trkpt><trkpt lat="44.77033065722427" lon="9.577527408687736"><ele>763.1666666666666</ele><time>2026-04-05T10:00:50Z</time></trkpt><trkpt lat="44.770272112292226" lon="9.577395384425833"><ele>767.0</ele><time>2026-04-05T10:00:51Z</time></trkpt><trkpt lat="44.770224458528645" lon="9.577232473917693"><ele>767.8333333333333</ele><time>2026-04-05T10:00:52Z</time></trkpt><trkpt lat="44.77017721818287" lon="9.57712908647233"><ele>768.6666666666666</ele><time>2026-04-05T10:00:53Z</time></trkpt><trkpt lat="44.770058188824784" lon="9.577078579066557"><ele>769.5</ele><time>2026-04-05T10:00:55Z</time></trkpt><trkpt lat="44.76998702237858" lon="9.5770492017665"><ele>770.3333333333333</ele><time>2026-04-05T10:00:56Z</time></trkpt><trkpt lat="44.76994518402409" lon="9.57697499763854"><ele>771.1666666666666</ele><time>2026-04-05T10:00:57Z</time></trkpt><trkpt lat="44.769925623904065" lon="9.576845402784365"><ele>772.0</ele><time>2026-04-05T10:00:58Z</time></trkpt><trkpt lat="44.76991570186992" lon="9.576731589860076"><ele>772.0</ele><time>2026-04-05T10:00:59Z</time></trkpt><trkpt lat="44.76990862713568" lon="9.576628957569595"><ele>772.0</ele><time>2026-04-05T10:01:00Z</time></trkpt><trkpt lat="44.76988097229288" lon="9.576518068171438"><ele>772.0</ele><time>2026-04-05T10:01:01Z</time></trkpt><trkpt lat="44.76983565093303" lon="9.576416914736296"><ele>772.0</ele><time>2026-04-05T10:01:02Z</time></trkpt><trkpt lat="44.7697997713626" lon="9.57626609907732"><ele>772.0</ele><time>2026-04-05T10:01:04Z</time></trkpt><trkpt lat="44.769851916823214" lon="9.576112052728934"><ele>774.8333333333333</ele><time>2026-04-05T10:01:06Z</time></trkpt><trkpt lat="44.76986732870897" lon="9.576020959288696"><ele>777.6666666666666</ele><time>2026-04-05T10:01:07Z</time></trkpt><trkpt lat="44.76981761273272" lon="9.575955169072541"><ele>780.5</ele><time>2026-04-05T10:01:08Z</time></trkpt><trkpt lat="44.76974237986656" lon="9.575920310388902"><ele>783.3333333333333</ele><time>2026-04-05T10:01:09Z</time></trkpt><trkpt lat="44.769689176187725" lon="9.575848450182493"><ele>786.1666666666666</ele><time>2026-04-05T10:01:11Z</time></trkpt><trkpt lat="44.76971835448989" lon="9.575750094953124"><ele>789.0</ele><time>2026-04-05T10:01:12Z</time></trkpt><trkpt lat="44.769733629425666" lon="9.575630085594035"><ele>789.0</ele><time>2026-04-05T10:01:13Z</time></trkpt><trkpt lat="44.76974941897507" lon="9.575532054870994"><ele>789.0</ele><time>2026-04-05T10:01:14Z</time></trkpt><trkpt lat="44.769783278096085" lon="9.575446201356238"><ele>789.0</ele><time>2026-04-05T10:01:15Z</time></trkpt><trkpt lat="44.769842998475816" lon="9.575334568628625"><ele>789.0</ele><time>2026-04-05T10:01:16Z</time></trkpt><trkpt lat="44.76986692418354" lon="9.575232866077823"><ele>789.0</ele><time>2026-04-05T10:01:17Z</time></trkpt><trkpt lat="44.769832479884045" lon="9.575120198942255"><ele>789.0</ele><time>2026-04-05T10:01:19Z</time></trkpt><trkpt lat="44.769803680017844" lon="9.575035402327797"><ele>792.6</ele><time>2026-04-05T10:01:20Z</time></trkpt><trkpt lat="44.7697852270033" lon="9.574932346847842"><ele>796.2</ele><time>2026-04-05T10:01:21Z</time></trkpt><trkpt lat="44.76981485736539" lon="9.574762459304802"><ele>799.8000000000001</ele><time>2026-04-05T10:01:23Z</time></trkpt><trkpt lat="44.76981719287696" lon="9.574644021325968"><ele>803.4000000000001</ele><time>2026-04-05T10:01:24Z</time></trkpt><trkpt lat="44.76976535195809" lon="9.574527503431"><ele>807.0</ele><time>2026-04-05T10:01:26Z</time></trkpt><trkpt lat="44.769688468488674" lon="9.57450258122205"><ele>807.0</ele><time>2026-04-05T10:01:28Z</time></trkpt><trkpt lat="44.76961973507528" lon="9.574588869332132"><ele>807.0</ele><time>2026-04-05T10:01:31Z</time></trkpt><trkpt lat="44.769502794235" lon="9.574566781941767"><ele>807.0</ele><time>2026-04-05T10:01:33Z</time></trkpt><trkpt lat="44.769410030809524" lon="9.574544156980304"><ele>807.0</ele><time>2026-04-05T10:01:35Z</time></trkpt><trkpt lat="44.769340898935695" lon="9.574529783355695"><ele>807.0</ele><time>2026-04-05T10:01:37Z</time></trkpt><trkpt lat="44.76926764690187" lon="9.5745070600178"><ele>807.0</ele><time>2026-04-05T10:01:39Z</time></trkpt><trkpt lat="44.76920025748558" lon="9.57451248833828"><ele>805.6666666666667</ele><time>2026-04-05T10:01:41Z</time></trkpt><trkpt lat="44.768864946117354" lon="9.574505151966553"><ele>804.3333333333334</ele><time>2026-04-05T10:01:44Z</time></trkpt><trkpt lat="44.768769787576325" lon="9.574522437754457"><ele>803.0</ele><time>2026-04-05T10:01:45Z</time></trkpt><trkpt lat="44.768678482472716" lon="9.574533471268792"><ele>803.0000000000001</ele><time>2026-04-05T10:01:46Z</time></trkpt><trkpt lat="44.768595430071834" lon="9.57455409632239"><ele>803.0</ele><time>2026-04-05T10:01:47Z</time></trkpt><trkpt lat="44.76852881191089" lon="9.57457621078891"><ele>803.0</ele><time>2026-04-05T10:01:48Z</time></trkpt><trkpt lat="44.768461114026074" lon="9.574456499594692"><ele>803.0</ele><time>2026-04-05T10:01:51Z</time></trkpt><trkpt lat="44.768429636737395" lon="9.57436879024067"><ele>803.0000000000001</ele><time>2026-04-05T10:01:52Z</time></trkpt><trkpt lat="44.76840157062139" lon="9.574288474218132"><ele>803.0</ele><time>2026-04-05T10:01:53Z</time></trkpt><trkpt lat="44.76836854561712" lon="9.574212196425934"><ele>806.3333333333334</ele><time>2026-04-05T10:01:54Z</time></trkpt><trkpt lat="44.76829323925162" lon="9.574061809668908"><ele>809.6666666666667</ele><time>2026-04-05T10:01:56Z</time></trkpt><trkpt lat="44.76825213271894" lon="9.573973326130435"><ele>813.0</ele><time>2026-04-05T10:01:57Z</time></trkpt><trkpt lat="44.76823341539777" lon="9.573870550000542"><ele>816.3333333333333</ele><time>2026-04-05T10:01:58Z</time></trkpt><trkpt lat="44.76824629178103" lon="9.57376758937626"><ele>819.6666666666666</ele><time>2026-04-05T10:01:59Z</time></trkpt><trkpt lat="44.76828427980922" lon="9.57367048964676"><ele>823.0</ele><time>2026-04-05T10:02:00Z</time></trkpt><trkpt lat="44.76833098339127" lon="9.573586405567262"><ele>825.0</ele><time>2026-04-05T10:02:01Z</time></trkpt><trkpt lat="44.76838643692082" lon="9.57349260868537"><ele>827.0</ele><time>2026-04-05T10:02:02Z</time></trkpt><trkpt lat="44.76853688466167" lon="9.573346262074923"><ele>829.0</ele><time>2026-04-05T10:02:03Z</time></trkpt><trkpt lat="44.76858307676612" lon="9.573244099956993"><ele>831.0</ele><time>2026-04-05T10:02:04Z</time></trkpt><trkpt lat="44.76860509213459" lon="9.573140229177849"><ele>833.0</ele><time>2026-04-05T10:02:05Z</time></trkpt><trkpt lat="44.76860957356691" lon="9.573037272975997"><ele>833.3333333333334</ele><time>2026-04-05T10:02:06Z</time></trkpt><trkpt lat="44.768605509294076" lon="9.5729412184635"><ele>833.6666666666667</ele><time>2026-04-05T10:02:07Z</time></trkpt><trkpt lat="44.768562719768696" lon="9.572842400489092"><ele>834.0</ele><time>2026-04-05T10:02:09Z</time></trkpt><trkpt lat="44.76848092683748" lon="9.572751190367587"><ele>834.3333333333333</ele><time>2026-04-05T10:02:11Z</time></trkpt><trkpt lat="44.768447275360245" lon="9.572664935039317"><ele>834.6666666666666</ele><time>2026-04-05T10:02:12Z</time></trkpt><trkpt lat="44.76843953529321" lon="9.572567229352776"><ele>835.0</ele><time>2026-04-05T10:02:13Z</time></trkpt><trkpt lat="44.76846073447461" lon="9.572482511080018"><ele>836.8333333333333</ele><time>2026-04-05T10:02:14Z</time></trkpt><trkpt lat="44.76848937007402" lon="9.572392326872446"><ele>838.6666666666666</ele><time>2026-04-05T10:02:15Z</time></trkpt><trkpt lat="44.76851571252022" lon="9.57230175913877"><ele>840.5</ele><time>2026-04-05T10:02:16Z</time></trkpt><trkpt lat="44.76856245750235" lon="9.572174621737249"><ele>842.3333333333333</ele><time>2026-04-05T10:02:18Z</time></trkpt><trkpt lat="44.768628638480344" lon="9.57213353166117"><ele>844.1666666666666</ele><time>2026-04-05T10:02:20Z</time></trkpt><trkpt lat="44.76871613669388" lon="9.572175851607104"><ele>846.0</ele><time>2026-04-05T10:02:22Z</time></trkpt><trkpt lat="44.76878790383626" lon="9.57214470528556"><ele>846.6666666666666</ele><time>2026-04-05T10:02:25Z</time></trkpt><trkpt lat="44.76888872926736" lon="9.572050438169402"><ele>847.3333333333333</ele><time>2026-04-05T10:02:26Z</time></trkpt><trkpt lat="44.768923773705225" lon="9.571973681320513"><ele>848.0</ele><time>2026-04-05T10:02:27Z</time></trkpt><trkpt lat="44.76897967623728" lon="9.571891457889762"><ele>848.6666666666666</ele><time>2026-04-05T10:02:28Z</time></trkpt><trkpt lat="44.76903924264853" lon="9.571830276574612"><ele>849.3333333333333</ele><time>2026-04-05T10:02:29Z</time></trkpt><trkpt lat="44.76909209842418" lon="9.571774371450228"><ele>850.0</ele><time>2026-04-05T10:02:30Z</time></trkpt><trkpt lat="44.769148277306584" lon="9.571706464996996"><ele>852.1666666666666</ele><time>2026-04-05T10:02:31Z</time></trkpt><trkpt lat="44.76920867740249" lon="9.571630916835893"><ele>854.3333333333333</ele><time>2026-04-05T10:02:32Z</time></trkpt><trkpt lat="44.76927945722399" lon="9.571544785505738"><ele>856.5</ele><time>2026-04-05T10:02:33Z</time></trkpt><trkpt lat="44.76933648098088" lon="9.571454623340795"><ele>858.6666666666667</ele><time>2026-04-05T10:02:34Z</time></trkpt><trkpt lat="44.7693968826441" lon="9.571378938964669"><ele>860.8333333333334</ele><time>2026-04-05T10:02:35Z</time></trkpt><trkpt lat="44.76946806189226" lon="9.571356641508283"><ele>863.0</ele><time>2026-04-05T10:02:36Z</time></trkpt><trkpt lat="44.769545955022295" lon="9.57135849452307"><ele>865.0</ele><time>2026-04-05T10:02:37Z</time></trkpt><trkpt lat="44.76963249558001" lon="9.571385514197559"><ele>867.0</ele><time>2026-04-05T10:02:38Z</time></trkpt><trkpt lat="44.76972285493565" lon="9.571410801691373"><ele>869.0</ele><time>2026-04-05T10:02:39Z</time></trkpt><trkpt lat="44.76981345959177" lon="9.571421739333196"><ele>871.0</ele><time>2026-04-05T10:02:40Z</time></trkpt><trkpt lat="44.769896091645016" lon="9.571394362608498"><ele>873.0</ele><time>2026-04-05T10:02:41Z</time></trkpt><trkpt lat="44.76998771432673" lon="9.571333317532439"><ele>873.0</ele><time>2026-04-05T10:02:42Z</time></trkpt><trkpt lat="44.770066198879306" lon="9.571284597094536"><ele>873.0</ele><time>2026-04-05T10:02:43Z</time></trkpt><trkpt lat="44.770124770332906" lon="9.571231813818935"><ele>873.0</ele><time>2026-04-05T10:02:44Z</time></trkpt><trkpt lat="44.77006713632194" lon="9.571139587860467"><ele>873.0</ele><time>2026-04-05T10:02:47Z</time></trkpt><trkpt lat="44.770021281885064" lon="9.571029193651182"><ele>873.0</ele><time>2026-04-05T10:02:48Z</time></trkpt><trkpt lat="44.76998601500539" lon="9.570906079861913"><ele>873.0</ele><time>2026-04-05T10:02:49Z</time></trkpt><trkpt lat="44.76995551766304" lon="9.57080089411354"><ele>874.1428571428571</ele><time>2026-04-05T10:02:50Z</time></trkpt><trkpt lat="44.769927376449836" lon="9.570700951991986"><ele>875.2857142857142</ele><time>2026-04-05T10:02:51Z</time></trkpt><trkpt lat="44.76988218824859" lon="9.570612158807535"><ele>876.4285714285713</ele><time>2026-04-05T10:02:52Z</time></trkpt><trkpt lat="44.76983176606013" lon="9.57052144302354"><ele>877.5714285714286</ele><time>2026-04-05T10:02:53Z</time></trkpt><trkpt lat="44.769804534727555" lon="9.570436851541459"><ele>878.7142857142858</ele><time>2026-04-05T10:02:54Z</time></trkpt><trkpt lat="44.76976304996937" lon="9.570366693612607"><ele>879.8571428571428</ele><time>2026-04-05T10:02:55Z</time></trkpt><trkpt lat="44.76970225671094" lon="9.570305842941536"><ele>881.0</ele><time>2026-04-05T10:02:56Z</time></trkpt><trkpt lat="44.76965042054614" lon="9.570220915126438"><ele>883.1666666666667</ele><time>2026-04-05T10:02:57Z</time></trkpt><trkpt lat="44.76963462244623" lon="9.570114836924544"><ele>885.3333333333334</ele><time>2026-04-05T10:02:58Z</time></trkpt><trkpt lat="44.7696746800704" lon="9.570012237903759"><ele>887.5</ele><time>2026-04-05T10:02:59Z</time></trkpt><trkpt lat="44.769727997684036" lon="9.569934270925206"><ele>889.6666666666667</ele><time>2026-04-05T10:03:00Z</time></trkpt><trkpt lat="44.76966012183957" lon="9.56980636254253"><ele>891.8333333333334</ele><time>2026-04-05T10:03:03Z</time></trkpt><trkpt lat="44.76961992905703" lon="9.569728527122859"><ele>894.0</ele><time>2026-04-05T10:03:04Z</time></trkpt><trkpt lat="44.76958705476372" lon="9.569649964962966"><ele>893.9999999999999</ele><time>2026-04-05T10:03:05Z</time></trkpt><trkpt lat="44.76951830675355" lon="9.56957963691943"><ele>894.0</ele><time>2026-04-05T10:03:09Z</time></trkpt><trkpt lat="44.76944050240103" lon="9.569560829181201"><ele>894.0</ele><time>2026-04-05T10:03:12Z</time></trkpt><trkpt lat="44.769413973213794" lon="9.569476611908621"><ele>894.0</ele><time>2026-04-05T10:03:14Z</time></trkpt><trkpt lat="44.76936980275687" lon="9.56941268846681"><ele>894.0</ele><time>2026-04-05T10:03:16Z</time></trkpt><trkpt lat="44.76931646580887" lon="9.569341382182895"><ele>893.9999999999999</ele><time>2026-04-05T10:03:19Z</time></trkpt><trkpt lat="44.76925709659363" lon="9.56928630412275"><ele>894.0</ele><time>2026-04-05T10:03:22Z</time></trkpt><trkpt lat="44.76918609433778" lon="9.569193533827523"><ele>896.4000000000001</ele><time>2026-04-05T10:03:24Z</time></trkpt><trkpt lat="44.76911973702988" lon="9.569165833785592"><ele>898.8000000000001</ele><time>2026-04-05T10:03:26Z</time></trkpt><trkpt lat="44.76907750685015" lon="9.569072424133422"><ele>901.1999999999999</ele><time>2026-04-05T10:03:29Z</time></trkpt><trkpt lat="44.768937791129" lon="9.568916823414067"><ele>903.5999999999999</ele><time>2026-04-05T10:03:34Z</time></trkpt><trkpt lat="44.7688748657495" lon="9.568822089737738"><ele>906.0</ele><time>2026-04-05T10:03:37Z</time></trkpt><trkpt lat="44.76883299723298" lon="9.56873962191211"><ele>909.6666666666666</ele><time>2026-04-05T10:03:39Z</time></trkpt><trkpt lat="44.768785083780465" lon="9.568652294921378"><ele>913.3333333333333</ele><time>2026-04-05T10:03:42Z</time></trkpt><trkpt lat="44.76875674516131" lon="9.568564669200903"><ele>917.0</ele><time>2026-04-05T10:03:44Z</time></trkpt><trkpt lat="44.76873121057809" lon="9.5684531201118"><ele>920.6666666666666</ele><time>2026-04-05T10:03:46Z</time></trkpt><trkpt lat="44.76877387984696" lon="9.568372552366514"><ele>924.3333333333333</ele><time>2026-04-05T10:03:48Z</time></trkpt><trkpt lat="44.76879914351393" lon="9.568260040793648"><ele>928.0</ele><time>2026-04-05T10:03:51Z</time></trkpt><trkpt lat="44.76884796861473" lon="9.568175359240831"><ele>927.9999999999999</ele><time>2026-04-05T10:03:59Z</time></trkpt><trkpt lat="44.76885816221131" lon="9.568086967687227"><ele>928.0</ele><time>2026-04-05T10:04:04Z</time></trkpt><trkpt lat="44.76880600878031" lon="9.56797097490688"><ele>928.0</ele><time>2026-04-05T10:04:09Z</time></trkpt><trkpt lat="44.76876221886648" lon="9.56788741746236"><ele>928.0</ele><time>2026-04-05T10:04:13Z</time></trkpt><trkpt lat="44.768709210901505" lon="9.567809334682428"><ele>927.9999999999999</ele><time>2026-04-05T10:04:16Z</time></trkpt><trkpt lat="44.768676459909834" lon="9.567704375819924"><ele>928.0</ele><time>2026-04-05T10:04:19Z</time></trkpt><trkpt lat="44.76869927658174" lon="9.567587240013054"><ele>931.3333333333333</ele><time>2026-04-05T10:04:22Z</time></trkpt><trkpt lat="44.76874011130138" lon="9.567462925272533"><ele>934.6666666666666</ele><time>2026-04-05T10:04:25Z</time></trkpt><trkpt lat="44.76877137806578" lon="9.567368709755163"><ele>938.0</ele><time>2026-04-05T10:04:29Z</time></trkpt><trkpt lat="44.76881508534359" lon="9.567262724556457"><ele>941.3333333333333</ele><time>2026-04-05T10:04:31Z</time></trkpt><trkpt lat="44.76888987445565" lon="9.567170883341346"><ele>944.6666666666666</ele><time>2026-04-05T10:04:33Z</time></trkpt><trkpt lat="44.768942284042375" lon="9.567120626708041"><ele>948.0</ele><time>2026-04-05T10:04:34Z</time></trkpt><trkpt lat="44.768980931365846" lon="9.567000542558462"><ele>949.6666666666666</ele><time>2026-04-05T10:04:36Z</time></trkpt><trkpt lat="44.768948919788635" lon="9.566923140469894"><ele>951.3333333333333</ele><time>2026-04-05T10:04:39Z</time></trkpt><trkpt lat="44.76896028153312" lon="9.566828588202682"><ele>953.0</ele><time>2026-04-05T10:08:34Z</time></trkpt><trkpt lat="44.768952007560856" lon="9.56666442414426"><ele>954.6666666666666</ele><time>2026-04-05T10:08:36Z</time></trkpt><trkpt lat="44.76895998101954" lon="9.566561852145725"><ele>956.3333333333333</ele><time>2026-04-05T10:08:37Z</time></trkpt><trkpt lat="44.76897817169504" lon="9.566466285838674"><ele>958.0</ele><time>2026-04-05T10:08:39Z</time></trkpt><trkpt lat="44.76890984547527" lon="9.566417284426553"><ele>957.9999999999999</ele><time>2026-04-05T10:08:41Z</time></trkpt><trkpt lat="44.76889472330828" lon="9.566312931666602"><ele>958.0</ele><time>2026-04-05T10:08:42Z</time></trkpt><trkpt lat="44.76890878992102" lon="9.566178861582626"><ele>958.0</ele><time>2026-04-05T10:08:44Z</time></trkpt><trkpt lat="44.768961180367825" lon="9.566091125713562"><ele>958.0</ele><time>2026-04-05T10:08:46Z</time></trkpt><trkpt lat="44.76903531681331" lon="9.566038752667739"><ele>957.9999999999999</ele><time>2026-04-05T10:08:48Z</time></trkpt><trkpt lat="44.769120090677674" lon="9.565944754120325"><ele>958.0</ele><time>2026-04-05T10:08:50Z</time></trkpt><trkpt lat="44.76913705104725" lon="9.565848749546827"><ele>960.2</ele><time>2026-04-05T10:08:53Z</time></trkpt><trkpt lat="44.769074959239674" lon="9.565749770594069"><ele>962.4</ele><time>2026-04-05T10:08:55Z</time></trkpt><trkpt lat="44.769119497521366" lon="9.565634993869644"><ele>964.6000000000001</ele><time>2026-04-05T10:08:58Z</time></trkpt><trkpt lat="44.76919593249799" lon="9.565426476328504"><ele>966.8000000000001</ele><time>2026-04-05T10:09:00Z</time></trkpt><trkpt lat="44.769236023974514" lon="9.56533280998932"><ele>969.0</ele><time>2026-04-05T10:09:02Z</time></trkpt><trkpt lat="44.76924287850575" lon="9.565185553413384"><ele>970.3333333333334</ele><time>2026-04-05T10:09:05Z</time></trkpt><trkpt lat="44.76926352943117" lon="9.565082014570358"><ele>971.6666666666667</ele><time>2026-04-05T10:09:06Z</time></trkpt><trkpt lat="44.769311271882636" lon="9.564938391066926"><ele>973.0</ele><time>2026-04-05T10:09:08Z</time></trkpt><trkpt lat="44.76939321879435" lon="9.56486025655804"><ele>974.3333333333334</ele><time>2026-04-05T10:09:10Z</time></trkpt><trkpt lat="44.7694593195775" lon="9.564809996203296"><ele>975.6666666666667</ele><time>2026-04-05T10:09:12Z</time></trkpt><trkpt lat="44.76947741669882" lon="9.56471406364945"><ele>977.0</ele><time>2026-04-05T10:09:14Z</time></trkpt><trkpt lat="44.769487022505686" lon="9.564597350039852"><ele>980.2</ele><time>2026-04-05T10:09:16Z</time></trkpt><trkpt lat="44.769457598181894" lon="9.564492970538053"><ele>983.4000000000001</ele><time>2026-04-05T10:09:18Z</time></trkpt><trkpt lat="44.76951089707255" lon="9.564406936128059"><ele>986.5999999999999</ele><time>2026-04-05T10:09:21Z</time></trkpt><trkpt lat="44.76958273506149" lon="9.564266762040367"><ele>989.8</ele><time>2026-04-05T10:09:23Z</time></trkpt><trkpt lat="44.76966464944389" lon="9.564181050238027"><ele>993.0</ele><time>2026-04-05T10:09:25Z</time></trkpt><trkpt lat="44.76969467122512" lon="9.564101397197831"><ele>993.0</ele><time>2026-04-05T10:09:27Z</time></trkpt><trkpt lat="44.76973677882594" lon="9.564009137803945"><ele>993.0</ele><time>2026-04-05T10:09:29Z</time></trkpt><trkpt lat="44.769814538732625" lon="9.563916250066246"><ele>993.0</ele><time>2026-04-05T10:09:31Z</time></trkpt><trkpt lat="44.76989215692936" lon="9.563825115625036"><ele>993.0</ele><time>2026-04-05T10:09:33Z</time></trkpt><trkpt lat="44.76987477036371" lon="9.563735358010778"><ele>993.0</ele><time>2026-04-05T10:09:35Z</time></trkpt><trkpt lat="44.76984444512852" lon="9.563655666478112"><ele>993.0</ele><time>2026-04-05T10:09:37Z</time></trkpt><trkpt lat="44.7698113021496" lon="9.563549992485571"><ele>994.6666666666666</ele><time>2026-04-05T10:09:40Z</time></trkpt><trkpt lat="44.769758330334746" lon="9.563464312460008"><ele>996.3333333333333</ele><time>2026-04-05T10:09:42Z</time></trkpt><trkpt lat="44.76973542676078" lon="9.563324480472202"><ele>998.0</ele><time>2026-04-05T10:10:00Z</time></trkpt><trkpt lat="44.769702120515696" lon="9.563208870314735"><ele>999.6666666666666</ele><time>2026-04-05T10:10:01Z</time></trkpt><trkpt lat="44.76968622575143" lon="9.563084532250675"><ele>1001.3333333333333</ele><time>2026-04-05T10:10:02Z</time></trkpt><trkpt lat="44.76968216667269" lon="9.562991674511244"><ele>1003.0</ele><time>2026-04-05T10:10:03Z</time></trkpt><trkpt lat="44.7696703688304" lon="9.562900055727034"><ele>1002.1666666666666</ele><time>2026-04-05T10:10:04Z</time></trkpt><trkpt lat="44.76965229981062" lon="9.562799724009958"><ele>1001.3333333333333</ele><time>2026-04-05T10:10:05Z</time></trkpt><trkpt lat="44.76962309032559" lon="9.562708737973105"><ele>1000.5</ele><time>2026-04-05T10:10:06Z</time></trkpt><trkpt lat="44.76956050092106" lon="9.562639713444929"><ele>999.6666666666667</ele><time>2026-04-05T10:10:07Z</time></trkpt><trkpt lat="44.76948665730591" lon="9.562571259513298"><ele>998.8333333333334</ele><time>2026-04-05T10:10:08Z</time></trkpt><trkpt lat="44.769401958022435" lon="9.562481609638482"><ele>998.0</ele><time>2026-04-05T10:10:09Z</time></trkpt><trkpt lat="44.769310745858405" lon="9.562401110423414"><ele>997.6666666666667</ele><time>2026-04-05T10:10:10Z</time></trkpt><trkpt lat="44.76924887537257" lon="9.562320863568532"><ele>997.3333333333334</ele><time>2026-04-05T10:10:11Z</time></trkpt><trkpt lat="44.7692275598528" lon="9.562235146146014"><ele>997.0</ele><time>2026-04-05T10:10:12Z</time></trkpt><trkpt lat="44.76921933883614" lon="9.562124904580372"><ele>996.6666666666667</ele><time>2026-04-05T10:10:13Z</time></trkpt><trkpt lat="44.76919322850496" lon="9.561991933360304"><ele>996.3333333333334</ele><time>2026-04-05T10:10:14Z</time></trkpt><trkpt lat="44.769153428312784" lon="9.561896841650775"><ele>996.0</ele><time>2026-04-05T10:10:15Z</time></trkpt><trkpt lat="44.769065713984894" lon="9.561866251327514"><ele>996.0</ele><time>2026-04-05T10:10:17Z</time></trkpt><trkpt lat="44.76900399921406" lon="9.561944857012605"><ele>996.0</ele><time>2026-04-05T10:10:19Z</time></trkpt><trkpt lat="44.76900171440558" lon="9.562049267317748"><ele>996.0</ele><time>2026-04-05T10:10:20Z</time></trkpt><trkpt lat="44.76898554175214" lon="9.562256351865523"><ele>996.0</ele><time>2026-04-05T10:10:22Z</time></trkpt><trkpt lat="44.76896589246509" lon="9.562348118666502"><ele>996.0</ele><time>2026-04-05T10:10:23Z</time></trkpt><trkpt lat="44.768929884254554" lon="9.562430141143997"><ele>996.0</ele><time>2026-04-05T10:10:25Z</time></trkpt><trkpt lat="44.768853728572026" lon="9.562451458191756"><ele>996.0</ele><time>2026-04-05T10:10:27Z</time></trkpt><trkpt lat="44.76872136535667" lon="9.562528227053416"><ele>995.9999999999999</ele><time>2026-04-05T10:10:29Z</time></trkpt><trkpt lat="44.768652194585606" lon="9.562467534590485"><ele>995.9999999999999</ele><time>2026-04-05T10:10:31Z</time></trkpt><trkpt lat="44.76863574819785" lon="9.5623300097404"><ele>996.0</ele><time>2026-04-05T10:10:33Z</time></trkpt><trkpt lat="44.76861390616664" lon="9.562245477221493"><ele>996.0</ele><time>2026-04-05T10:10:34Z</time></trkpt><trkpt lat="44.76857208389997" lon="9.562083409344522"><ele>995.5</ele><time>2026-04-05T10:10:36Z</time></trkpt><trkpt lat="44.76855462612763" lon="9.561970230027372"><ele>995.0</ele><time>2026-04-05T10:10:37Z</time></trkpt><trkpt lat="44.7685419381717" lon="9.561860111357795"><ele>994.5</ele><time>2026-04-05T10:10:38Z</time></trkpt><trkpt lat="44.76853129870385" lon="9.561749396581414"><ele>994.0</ele><time>2026-04-05T10:10:39Z</time></trkpt><trkpt lat="44.768518730298574" lon="9.56164723759828"><ele>993.5</ele><time>2026-04-05T10:10:40Z</time></trkpt><trkpt lat="44.76849361502707" lon="9.561528931601424"><ele>993.0</ele><time>2026-04-05T10:10:41Z</time></trkpt><trkpt lat="44.76845950799312" lon="9.561412673344478"><ele>989.5999999999999</ele><time>2026-04-05T10:10:42Z</time></trkpt><trkpt lat="44.768434310145615" lon="9.561294071070536"><ele>986.1999999999999</ele><time>2026-04-05T10:10:43Z</time></trkpt><trkpt lat="44.768409673647085" lon="9.561182514914478"><ele>982.8</ele><time>2026-04-05T10:10:44Z</time></trkpt><trkpt lat="44.76838727677775" lon="9.56107936391874"><ele>979.4</ele><time>2026-04-05T10:10:45Z</time></trkpt><trkpt lat="44.768317310346426" lon="9.560951043614999"><ele>976.0</ele><time>2026-04-05T10:10:47Z</time></trkpt><trkpt lat="44.768273103647175" lon="9.560793199990552"><ele>975.1666666666666</ele><time>2026-04-05T10:10:49Z</time></trkpt><trkpt lat="44.76825478681359" lon="9.560684777030225"><ele>974.3333333333333</ele><time>2026-04-05T10:10:50Z</time></trkpt><trkpt lat="44.768269764173105" lon="9.560572431710385"><ele>973.5</ele><time>2026-04-05T10:10:51Z</time></trkpt><trkpt lat="44.76826998683269" lon="9.560459990169269"><ele>972.6666666666667</ele><time>2026-04-05T10:10:52Z</time></trkpt><trkpt lat="44.76825067810116" lon="9.560352610640969"><ele>971.8333333333334</ele><time>2026-04-05T10:10:53Z</time></trkpt><trkpt lat="44.76819538733496" lon="9.560241825301944"><ele>971.0</ele><time>2026-04-05T10:10:54Z</time></trkpt><trkpt lat="44.7681313218985" lon="9.56014253344885"><ele>970.5999999999999</ele><time>2026-04-05T10:10:55Z</time></trkpt><trkpt lat="44.7680787014948" lon="9.560039250864907"><ele>970.1999999999999</ele><time>2026-04-05T10:10:56Z</time></trkpt><trkpt lat="44.768031567948064" lon="9.559910713368726"><ele>969.8000000000001</ele><time>2026-04-05T10:10:57Z</time></trkpt><trkpt lat="44.76797833714042" lon="9.55978678006505"><ele>969.4000000000001</ele><time>2026-04-05T10:10:58Z</time></trkpt><trkpt lat="44.7679106957937" lon="9.559684411672539"><ele>969.0</ele><time>2026-04-05T10:10:59Z</time></trkpt><trkpt lat="44.76784537035274" lon="9.559599035727151"><ele>968.5</ele><time>2026-04-05T10:11:00Z</time></trkpt><trkpt lat="44.767783808442935" lon="9.559522528194194"><ele>968.0</ele><time>2026-04-05T10:11:01Z</time></trkpt><trkpt lat="44.76772810775966" lon="9.55947523150086"><ele>967.5</ele><time>2026-04-05T10:11:02Z</time></trkpt><trkpt lat="44.76763481981363" lon="9.559362409885722"><ele>967.0</ele><time>2026-04-05T10:11:04Z</time></trkpt><trkpt lat="44.767573766925196" lon="9.55930939616742"><ele>966.5</ele><time>2026-04-05T10:11:05Z</time></trkpt><trkpt lat="44.76751435360912" lon="9.559267997701461"><ele>966.0</ele><time>2026-04-05T10:11:06Z</time></trkpt><trkpt lat="44.76743953271309" lon="9.559199156313918"><ele>966.0</ele><time>2026-04-05T10:11:07Z</time></trkpt><trkpt lat="44.76736305855293" lon="9.559126926943078"><ele>966.0</ele><time>2026-04-05T10:11:08Z</time></trkpt><trkpt lat="44.76728381787717" lon="9.55902835901279"><ele>966.0</ele><time>2026-04-05T10:11:09Z</time></trkpt><trkpt lat="44.76723086997133" lon="9.558937620169736"><ele>966.0</ele><time>2026-04-05T10:11:10Z</time></trkpt><trkpt lat="44.76720858491266" lon="9.55884477521031"><ele>966.0</ele><time>2026-04-05T10:11:11Z</time></trkpt><trkpt lat="44.76719379176391" lon="9.558743896374944"><ele>966.0</ele><time>2026-04-05T10:11:12Z</time></trkpt><trkpt lat="44.76717805597347" lon="9.558645273155458"><ele>967.4</ele><time>2026-04-05T10:11:13Z</time></trkpt><trkpt lat="44.767146583460374" lon="9.558531430131444"><ele>968.8</ele><time>2026-04-05T10:11:14Z</time></trkpt><trkpt lat="44.767110858072904" lon="9.558410140936717"><ele>970.1999999999999</ele><time>2026-04-05T10:11:15Z</time></trkpt><trkpt lat="44.76707622651099" lon="9.55828098512047"><ele>971.5999999999999</ele><time>2026-04-05T10:11:16Z</time></trkpt><trkpt lat="44.76703658455414" lon="9.558160734892125"><ele>973.0</ele><time>2026-04-05T10:11:17Z</time></trkpt><trkpt lat="44.76699791971313" lon="9.55803359199753"><ele>972.9999999999999</ele><time>2026-04-05T10:11:18Z</time></trkpt><trkpt lat="44.76697610375986" lon="9.55793588100471"><ele>973.0</ele><time>2026-04-05T10:11:19Z</time></trkpt><trkpt lat="44.76695657003361" lon="9.55784337271353"><ele>973.0</ele><time>2026-04-05T10:11:21Z</time></trkpt><trkpt lat="44.76693025325838" lon="9.557706356513297"><ele>973.0</ele><time>2026-04-05T10:11:23Z</time></trkpt><trkpt lat="44.766914271340845" lon="9.557599890745628"><ele>972.9999999999999</ele><time>2026-04-05T10:11:24Z</time></trkpt><trkpt lat="44.76687270289423" lon="9.55751084528243"><ele>973.0</ele><time>2026-04-05T10:11:25Z</time></trkpt><trkpt lat="44.766812652531755" lon="9.557389987864362"><ele>969.8</ele><time>2026-04-05T10:11:26Z</time></trkpt><trkpt lat="44.76674574598705" lon="9.557278343994485"><ele>966.5999999999999</ele><time>2026-04-05T10:11:27Z</time></trkpt><trkpt lat="44.76668792057696" lon="9.55716121717055"><ele>963.4000000000001</ele><time>2026-04-05T10:11:28Z</time></trkpt><trkpt lat="44.766630204428424" lon="9.557039499348694"><ele>960.2</ele><time>2026-04-05T10:11:29Z</time></trkpt><trkpt lat="44.76656846150031" lon="9.556948752211907"><ele>957.0</ele><time>2026-04-05T10:11:30Z</time></trkpt><trkpt lat="44.76649971383552" lon="9.556867473437567"><ele>957.0</ele><time>2026-04-05T10:11:31Z</time></trkpt><trkpt lat="44.76641494829564" lon="9.556798927453269"><ele>957.0</ele><time>2026-04-05T10:11:32Z</time></trkpt><trkpt lat="44.76633235514166" lon="9.556698680467678"><ele>957.0</ele><time>2026-04-05T10:11:33Z</time></trkpt><trkpt lat="44.76627345447006" lon="9.556590038169901"><ele>957.0</ele><time>2026-04-05T10:11:34Z</time></trkpt><trkpt lat="44.766248847884945" lon="9.556497218254675"><ele>957.0</ele><time>2026-04-05T10:11:35Z</time></trkpt><trkpt lat="44.76622988199604" lon="9.556406283491546"><ele>957.0</ele><time>2026-04-05T10:11:36Z</time></trkpt><trkpt lat="44.766230111802294" lon="9.556297358311976"><ele>954.4000000000001</ele><time>2026-04-05T10:11:38Z</time></trkpt><trkpt lat="44.76626094948727" lon="9.556196893917164"><ele>951.8000000000001</ele><time>2026-04-05T10:11:40Z</time></trkpt><trkpt lat="44.766283464626696" lon="9.556066336188819"><ele>949.2</ele><time>2026-04-05T10:11:42Z</time></trkpt><trkpt lat="44.76640010331326" lon="9.555925803320783"><ele>946.6</ele><time>2026-04-05T10:11:46Z</time></trkpt><trkpt lat="44.766395876621004" lon="9.555784416623107"><ele>944.0</ele><time>2026-04-05T10:11:48Z</time></trkpt><trkpt lat="44.76638571065762" lon="9.555648804307344"><ele>944.0000000000001</ele><time>2026-04-05T10:11:50Z</time></trkpt><trkpt lat="44.76642323003702" lon="9.555520460734266"><ele>944.0</ele><time>2026-04-05T10:11:52Z</time></trkpt><trkpt lat="44.76639949546324" lon="9.555371852693261"><ele>944.0</ele><time>2026-04-05T10:11:54Z</time></trkpt><trkpt lat="44.766363841978176" lon="9.555296461263211"><ele>944.0</ele><time>2026-04-05T10:11:55Z</time></trkpt><trkpt lat="44.76631900911287" lon="9.55521946043819"><ele>944.0000000000001</ele><time>2026-04-05T10:11:56Z</time></trkpt><trkpt lat="44.76625117694845" lon="9.55512929957422"><ele>944.0</ele><time>2026-04-05T10:11:57Z</time></trkpt><trkpt lat="44.766196124510174" lon="9.555056129123175"><ele>942.2</ele><time>2026-04-05T10:11:58Z</time></trkpt><trkpt lat="44.76616561392904" lon="9.554960946448407"><ele>940.4000000000001</ele><time>2026-04-05T10:11:59Z</time></trkpt><trkpt lat="44.766134897852304" lon="9.55487482666594"><ele>938.6</ele><time>2026-04-05T10:12:00Z</time></trkpt><trkpt lat="44.766075909215466" lon="9.55473489973613"><ele>936.8</ele><time>2026-04-05T10:12:02Z</time></trkpt><trkpt lat="44.76600113252855" lon="9.554608827321696"><ele>935.0</ele><time>2026-04-05T10:12:04Z</time></trkpt><trkpt lat="44.765945720761486" lon="9.554493631390567"><ele>931.8</ele><time>2026-04-05T10:12:06Z</time></trkpt><trkpt lat="44.76591512938373" lon="9.554368402464034"><ele>928.6</ele><time>2026-04-05T10:12:08Z</time></trkpt><trkpt lat="44.765842248985805" lon="9.554251709818537"><ele>925.4000000000001</ele><time>2026-04-05T10:12:10Z</time></trkpt><trkpt lat="44.76578015819526" lon="9.554206826103318"><ele>922.2</ele><time>2026-04-05T10:12:11Z</time></trkpt><trkpt lat="44.765690211699614" lon="9.554144834846053"><ele>919.0</ele><time>2026-04-05T10:12:13Z</time></trkpt><trkpt lat="44.765590403409895" lon="9.554103458928173"><ele>918.9999999999999</ele><time>2026-04-05T10:12:15Z</time></trkpt><trkpt lat="44.76546715486851" lon="9.554113073668379"><ele>919.0</ele><time>2026-04-05T10:12:17Z</time></trkpt><trkpt lat="44.76539650251307" lon="9.554080405088081"><ele>919.0</ele><time>2026-04-05T10:12:18Z</time></trkpt><trkpt lat="44.765325748550865" lon="9.554042593057419"><ele>919.0</ele><time>2026-04-05T10:12:19Z</time></trkpt><trkpt lat="44.76524916039842" lon="9.5539958334618"><ele>918.9999999999999</ele><time>2026-04-05T10:12:20Z</time></trkpt><trkpt lat="44.76518421298309" lon="9.553945585899209"><ele>919.0</ele><time>2026-04-05T10:12:21Z</time></trkpt><trkpt lat="44.765114077853724" lon="9.553834865761942"><ele>919.3333333333333</ele><time>2026-04-05T10:12:23Z</time></trkpt><trkpt lat="44.76505822414561" lon="9.553700194161998"><ele>919.6666666666666</ele><time>2026-04-05T10:12:25Z</time></trkpt><trkpt lat="44.76501188435143" lon="9.55362203243445"><ele>920.0</ele><time>2026-04-05T10:12:27Z</time></trkpt><trkpt lat="44.764948212850676" lon="9.553562808792302"><ele>920.3333333333333</ele><time>2026-04-05T10:12:29Z</time></trkpt><trkpt lat="44.7648692937865" lon="9.553517633892522"><ele>920.6666666666666</ele><time>2026-04-05T10:12:31Z</time></trkpt><trkpt lat="44.764790589370826" lon="9.553454398321094"><ele>921.0</ele><time>2026-04-05T10:12:33Z</time></trkpt><trkpt lat="44.76471839910341" lon="9.553412716021132"><ele>921.0</ele><time>2026-04-05T10:12:35Z</time></trkpt><trkpt lat="44.76462861113543" lon="9.553367033071721"><ele>921.0</ele><time>2026-04-05T10:12:37Z</time></trkpt><trkpt lat="44.76453956556754" lon="9.553319704706045"><ele>921.0</ele><time>2026-04-05T10:12:39Z</time></trkpt><trkpt lat="44.76446465215648" lon="9.553279115232675"><ele>921.0</ele><time>2026-04-05T10:12:41Z</time></trkpt><trkpt lat="44.764386960470695" lon="9.553244273263594"><ele>921.0</ele><time>2026-04-05T10:12:44Z</time></trkpt><trkpt lat="44.764306902970546" lon="9.553199101221972"><ele>921.0</ele><time>2026-04-05T10:12:46Z</time></trkpt><trkpt lat="44.76423736351879" lon="9.553171308741177"><ele>920.6666666666666</ele><time>2026-04-05T10:12:49Z</time></trkpt><trkpt lat="44.76415991793598" lon="9.553132767948954"><ele>920.3333333333333</ele><time>2026-04-05T10:12:52Z</time></trkpt><trkpt lat="44.764020048954706" lon="9.553088046305053"><ele>920.0</ele><time>2026-04-05T10:12:54Z</time></trkpt><trkpt lat="44.763958490664756" lon="9.553060617178764"><ele>919.6666666666666</ele><time>2026-04-05T10:12:55Z</time></trkpt><trkpt lat="44.7638865314685" lon="9.55304893794996"><ele>919.3333333333333</ele><time>2026-04-05T10:12:56Z</time></trkpt><trkpt lat="44.76381552907976" lon="9.55304153951123"><ele>919.0</ele><time>2026-04-05T10:12:57Z</time></trkpt><trkpt lat="44.763730771044386" lon="9.55306169620913"><ele>919.0</ele><time>2026-04-05T10:12:58Z</time></trkpt><trkpt lat="44.76359797863955" lon="9.553069952345888"><ele>919.0000000000001</ele><time>2026-04-05T10:13:00Z</time></trkpt><trkpt lat="44.76348145841977" lon="9.553017371016157"><ele>919.0000000000001</ele><time>2026-04-05T10:13:02Z</time></trkpt><trkpt lat="44.763411773162126" lon="9.553024293346885"><ele>919.0</ele><time>2026-04-05T10:13:03Z</time></trkpt><trkpt lat="44.76334033640096" lon="9.553028270198848"><ele>919.0</ele><time>2026-04-05T10:13:04Z</time></trkpt><trkpt lat="44.76327035741772" lon="9.55301305265515"><ele>919.6666666666666</ele><time>2026-04-05T10:13:05Z</time></trkpt><trkpt lat="44.763199435075336" lon="9.553016156104688"><ele>920.3333333333333</ele><time>2026-04-05T10:13:07Z</time></trkpt><trkpt lat="44.7630895513305" lon="9.553005507995751"><ele>921.0</ele><time>2026-04-05T10:13:11Z</time></trkpt><trkpt lat="44.76300575684309" lon="9.552961628340391"><ele>921.6666666666667</ele><time>2026-04-05T10:13:13Z</time></trkpt><trkpt lat="44.76293909932986" lon="9.552942028193618"><ele>922.3333333333334</ele><time>2026-04-05T10:13:14Z</time></trkpt><trkpt lat="44.762843946757116" lon="9.552965171485905"><ele>923.0</ele><time>2026-04-05T10:13:16Z</time></trkpt><trkpt lat="44.76277280247295" lon="9.553009177052948"><ele>922.5000000000001</ele><time>2026-04-05T10:13:18Z</time></trkpt><trkpt lat="44.762686784451994" lon="9.553032535208578"><ele>922.0</ele><time>2026-04-05T10:13:21Z</time></trkpt><trkpt lat="44.7626158126531" lon="9.553040232114943"><ele>921.5</ele><time>2026-04-05T10:13:23Z</time></trkpt><trkpt lat="44.76254433366182" lon="9.553079828195301"><ele>921.0</ele><time>2026-04-05T10:13:25Z</time></trkpt><trkpt lat="44.762480453618466" lon="9.553096929801258"><ele>920.5000000000001</ele><time>2026-04-05T10:13:27Z</time></trkpt><trkpt lat="44.76239768969451" lon="9.553029036167572"><ele>920.0</ele><time>2026-04-05T10:13:29Z</time></trkpt><trkpt lat="44.762320506114" lon="9.552894928428543"><ele>920.5000000000001</ele><time>2026-04-05T10:13:31Z</time></trkpt><trkpt lat="44.7622922280306" lon="9.552814060933697"><ele>921.0</ele><time>2026-04-05T10:13:32Z</time></trkpt><trkpt lat="44.76227324199389" lon="9.552727562358845"><ele>921.5</ele><time>2026-04-05T10:13:33Z</time></trkpt><trkpt lat="44.7622630624375" lon="9.552578613242222"><ele>922.0</ele><time>2026-04-05T10:13:34Z</time></trkpt><trkpt lat="44.76223625055972" lon="9.55245874837613"><ele>922.5000000000001</ele><time>2026-04-05T10:13:35Z</time></trkpt><trkpt lat="44.76221265178535" lon="9.552355442843236"><ele>923.0</ele><time>2026-04-05T10:13:36Z</time></trkpt><trkpt lat="44.76216701315688" lon="9.552253875195927"><ele>923.0000000000001</ele><time>2026-04-05T10:13:37Z</time></trkpt><trkpt lat="44.762127669191415" lon="9.552143599265717"><ele>923.0</ele><time>2026-04-05T10:13:38Z</time></trkpt><trkpt lat="44.7620788496871" lon="9.55202461117148"><ele>923.0</ele><time>2026-04-05T10:13:39Z</time></trkpt><trkpt lat="44.762003340837666" lon="9.551941514334503"><ele>923.0</ele><time>2026-04-05T10:13:40Z</time></trkpt><trkpt lat="44.76194183298217" lon="9.551851063560598"><ele>923.0000000000001</ele><time>2026-04-05T10:13:41Z</time></trkpt><trkpt lat="44.761877907900846" lon="9.551789421323033"><ele>923.0</ele><time>2026-04-05T10:13:42Z</time></trkpt><trkpt lat="44.76180555047023" lon="9.551717811394047"><ele>923.3333333333334</ele><time>2026-04-05T10:13:43Z</time></trkpt><trkpt lat="44.76173200490495" lon="9.551626005929295"><ele>923.6666666666667</ele><time>2026-04-05T10:13:44Z</time></trkpt><trkpt lat="44.761686932579146" lon="9.551515091280425"><ele>924.0</ele><time>2026-04-05T10:13:45Z</time></trkpt><trkpt lat="44.76164269003039" lon="9.551403661193488"><ele>924.3333333333333</ele><time>2026-04-05T10:13:46Z</time></trkpt><trkpt lat="44.761578706625976" lon="9.551310772399956"><ele>924.6666666666666</ele><time>2026-04-05T10:13:47Z</time></trkpt><trkpt lat="44.76153270300897" lon="9.551224929198112"><ele>925.0</ele><time>2026-04-05T10:13:48Z</time></trkpt><trkpt lat="44.76148504752626" lon="9.551163208741754"><ele>925.0</ele><time>2026-04-05T10:13:49Z</time></trkpt><trkpt lat="44.76139824990619" lon="9.551070989748068"><ele>925.0</ele><time>2026-04-05T10:13:51Z</time></trkpt><trkpt lat="44.7613057317801" lon="9.55098600569256"><ele>925.0</ele><time>2026-04-05T10:13:53Z</time></trkpt><trkpt lat="44.76124005827175" lon="9.550898743903838"><ele>925.0</ele><time>2026-04-05T10:13:55Z</time></trkpt><trkpt lat="44.761233083765596" lon="9.550766869255147"><ele>925.0</ele><time>2026-04-05T10:13:57Z</time></trkpt><trkpt lat="44.7612492543591" lon="9.55062044452923"><ele>924.9999999999999</ele><time>2026-04-05T10:13:59Z</time></trkpt><trkpt lat="44.761228568035555" lon="9.550489612061082"><ele>925.0</ele><time>2026-04-05T10:14:01Z</time></trkpt><trkpt lat="44.76119722140649" lon="9.550404228612106"><ele>925.0</ele><time>2026-04-05T10:14:02Z</time></trkpt><trkpt lat="44.76115651965223" lon="9.550312556722885"><ele>925.0</ele><time>2026-04-05T10:14:03Z</time></trkpt><trkpt lat="44.76112581546267" lon="9.55021365557585"><ele>924.9999999999999</ele><time>2026-04-05T10:14:04Z</time></trkpt><trkpt lat="44.76110223905875" lon="9.550122345714852"><ele>925.0</ele><time>2026-04-05T10:14:05Z</time></trkpt><trkpt lat="44.76101573989706" lon="9.550040645209137"><ele>924.8333333333333</ele><time>2026-04-05T10:14:07Z</time></trkpt><trkpt lat="44.76095191357785" lon="9.55001643071273"><ele>924.6666666666666</ele><time>2026-04-05T10:14:08Z</time></trkpt><trkpt lat="44.76087925855112" lon="9.549980951499029"><ele>924.5</ele><time>2026-04-05T10:14:09Z</time></trkpt><trkpt lat="44.76081253505966" lon="9.549943559694734"><ele>924.3333333333333</ele><time>2026-04-05T10:14:10Z</time></trkpt><trkpt lat="44.76072325885089" lon="9.549865592770614"><ele>924.1666666666666</ele><time>2026-04-05T10:14:12Z</time></trkpt><trkpt lat="44.76069852858376" lon="9.549729393304014"><ele>924.0</ele><time>2026-04-05T10:14:14Z</time></trkpt><trkpt lat="44.76067425999254" lon="9.549556495112828"><ele>926.0</ele><time>2026-04-05T10:14:16Z</time></trkpt><trkpt lat="44.760649107513125" lon="9.549449975855886"><ele>928.0</ele><time>2026-04-05T10:14:17Z</time></trkpt><trkpt lat="44.760615217975264" lon="9.54935027694094"><ele>930.0</ele><time>2026-04-05T10:14:18Z</time></trkpt><trkpt lat="44.760569159536765" lon="9.549248565232944"><ele>932.0</ele><time>2026-04-05T10:14:19Z</time></trkpt><trkpt lat="44.760530103809465" lon="9.549143883527607"><ele>934.0</ele><time>2026-04-05T10:14:20Z</time></trkpt><trkpt lat="44.7605130758834" lon="9.549029359885887"><ele>936.0</ele><time>2026-04-05T10:14:21Z</time></trkpt><trkpt lat="44.760520974728244" lon="9.548905259413377"><ele>936.0</ele><time>2026-04-05T10:14:22Z</time></trkpt><trkpt lat="44.760535838851354" lon="9.54877593832257"><ele>936.0</ele><time>2026-04-05T10:14:23Z</time></trkpt><trkpt lat="44.760541090939256" lon="9.548660018929032"><ele>936.0</ele><time>2026-04-05T10:14:24Z</time></trkpt><trkpt lat="44.760533545776354" lon="9.548555398365314"><ele>936.0</ele><time>2026-04-05T10:14:25Z</time></trkpt><trkpt lat="44.76049956369333" lon="9.548455373851754"><ele>936.0</ele><time>2026-04-05T10:14:26Z</time></trkpt><trkpt lat="44.76044310923344" lon="9.548357246693147"><ele>936.0</ele><time>2026-04-05T10:14:27Z</time></trkpt><trkpt lat="44.76038041829259" lon="9.548258934302483"><ele>937.3333333333334</ele><time>2026-04-05T10:14:28Z</time></trkpt><trkpt lat="44.76031434784663" lon="9.54816610286529"><ele>938.6666666666667</ele><time>2026-04-05T10:14:29Z</time></trkpt><trkpt lat="44.76025638804342" lon="9.548064368637718"><ele>940.0</ele><time>2026-04-05T10:14:30Z</time></trkpt><trkpt lat="44.76021073937512" lon="9.54795059112978"><ele>941.3333333333334</ele><time>2026-04-05T10:14:31Z</time></trkpt><trkpt lat="44.760170710917286" lon="9.54784280634725"><ele>942.6666666666667</ele><time>2026-04-05T10:14:32Z</time></trkpt><trkpt lat="44.76014635560967" lon="9.547758615837244"><ele>944.0</ele><time>2026-04-05T10:14:33Z</time></trkpt><trkpt lat="44.76019400294453" lon="9.547607622153413"><ele>946.5000000000001</ele><time>2026-04-05T10:14:35Z</time></trkpt><trkpt lat="44.760227341035836" lon="9.547515864692159"><ele>949.0</ele><time>2026-04-05T10:14:36Z</time></trkpt><trkpt lat="44.760266555202534" lon="9.547417295683818"><ele>951.5</ele><time>2026-04-05T10:14:37Z</time></trkpt><trkpt lat="44.760300882911324" lon="9.54730617388716"><ele>954.0</ele><time>2026-04-05T10:14:38Z</time></trkpt><trkpt lat="44.760331759386574" lon="9.547210871125586"><ele>956.5000000000001</ele><time>2026-04-05T10:14:39Z</time></trkpt><trkpt lat="44.76035437142688" lon="9.54712086446364"><ele>959.0</ele><time>2026-04-05T10:14:40Z</time></trkpt><trkpt lat="44.76038358449389" lon="9.547024107749788"><ele>961.2</ele><time>2026-04-05T10:14:41Z</time></trkpt><trkpt lat="44.76039639391999" lon="9.54693403936329"><ele>963.4000000000001</ele><time>2026-04-05T10:14:42Z</time></trkpt><trkpt lat="44.76040223210298" lon="9.546839293346306"><ele>965.6</ele><time>2026-04-05T10:14:43Z</time></trkpt><trkpt lat="44.76044559542634" lon="9.546656259401697"><ele>967.8</ele><time>2026-04-05T10:14:45Z</time></trkpt><trkpt lat="44.760476095924" lon="9.546534350194737"><ele>970.0</ele><time>2026-04-05T10:14:46Z</time></trkpt><trkpt lat="44.76048407039453" lon="9.546406520135564"><ele>970.0</ele><time>2026-04-05T10:14:47Z</time></trkpt><trkpt lat="44.760488972657924" lon="9.546303385438652"><ele>970.0</ele><time>2026-04-05T10:14:48Z</time></trkpt><trkpt lat="44.76049796858559" lon="9.546192090312108"><ele>970.0</ele><time>2026-04-05T10:14:49Z</time></trkpt><trkpt lat="44.760535258637084" lon="9.546053201024721"><ele>970.0</ele><time>2026-04-05T10:14:50Z</time></trkpt><trkpt lat="44.760558685924536" lon="9.545909872794622"><ele>970.0</ele><time>2026-04-05T10:14:51Z</time></trkpt><trkpt lat="44.76056481020254" lon="9.545771312760472"><ele>970.9999999999999</ele><time>2026-04-05T10:14:52Z</time></trkpt><trkpt lat="44.76057079230644" lon="9.545644940423403"><ele>972.0</ele><time>2026-04-05T10:14:53Z</time></trkpt><trkpt lat="44.760569437570695" lon="9.545531028626861"><ele>973.0</ele><time>2026-04-05T10:14:54Z</time></trkpt><trkpt lat="44.76056480943326" lon="9.545421935226775"><ele>974.0</ele><time>2026-04-05T10:14:55Z</time></trkpt><trkpt lat="44.76057171363119" lon="9.545312873428085"><ele>974.9999999999999</ele><time>2026-04-05T10:14:56Z</time></trkpt><trkpt lat="44.760594230342065" lon="9.545208083868605"><ele>976.0</ele><time>2026-04-05T10:14:57Z</time></trkpt><trkpt lat="44.76060726054969" lon="9.545068614492736"><ele>977.1666666666666</ele><time>2026-04-05T10:14:59Z</time></trkpt><trkpt lat="44.76056438649886" lon="9.54491097855784"><ele>978.3333333333333</ele><time>2026-04-05T10:15:01Z</time></trkpt><trkpt lat="44.76057096956307" lon="9.544813450682401"><ele>979.5</ele><time>2026-04-05T10:15:02Z</time></trkpt><trkpt lat="44.7605926476237" lon="9.544713890671742"><ele>980.6666666666667</ele><time>2026-04-05T10:15:03Z</time></trkpt><trkpt lat="44.76062664851807" lon="9.544615435598768"><ele>981.8333333333334</ele><time>2026-04-05T10:15:04Z</time></trkpt><trkpt lat="44.760646856207906" lon="9.544519398689404"><ele>983.0</ele><time>2026-04-05T10:15:05Z</time></trkpt><trkpt lat="44.76063972948905" lon="9.544381000089881"><ele>983.4</ele><time>2026-04-05T10:15:07Z</time></trkpt><trkpt lat="44.76063203278075" lon="9.544209894722679"><ele>983.8</ele><time>2026-04-05T10:15:09Z</time></trkpt><trkpt lat="44.76067689136" lon="9.544111815274954"><ele>984.2</ele><time>2026-04-05T10:15:11Z</time></trkpt><trkpt lat="44.760634814064325" lon="9.5440171033446"><ele>984.6</ele><time>2026-04-05T10:17:44Z</time></trkpt><trkpt lat="44.76058673901422" lon="9.543898317530811"><ele>985.0</ele><time>2026-04-05T10:17:46Z</time></trkpt><trkpt lat="44.760554116427315" lon="9.543766183095812"><ele>983.8333333333333</ele><time>2026-04-05T10:17:48Z</time></trkpt><trkpt lat="44.76051334045428" lon="9.54367818616908"><ele>982.6666666666666</ele><time>2026-04-05T10:17:49Z</time></trkpt><trkpt lat="44.76048695955542" lon="9.543562084580282"><ele>981.5</ele><time>2026-04-05T10:17:51Z</time></trkpt><trkpt lat="44.76047104320547" lon="9.54341101986284"><ele>980.3333333333333</ele><time>2026-04-05T10:17:53Z</time></trkpt><trkpt lat="44.760449038998765" lon="9.543302004190288"><ele>979.1666666666666</ele><time>2026-04-05T10:17:55Z</time></trkpt><trkpt lat="44.76045250838152" lon="9.5431834453133"><ele>978.0</ele><time>2026-04-05T10:18:00Z</time></trkpt><trkpt lat="44.76043261780185" lon="9.543080437711708"><ele>978.0</ele><time>2026-04-05T10:18:02Z</time></trkpt><trkpt lat="44.76039867812964" lon="9.542938840927096"><ele>978.0</ele><time>2026-04-05T10:18:04Z</time></trkpt><trkpt lat="44.760373778696504" lon="9.542821240905134"><ele>978.0</ele><time>2026-04-05T10:18:05Z</time></trkpt><trkpt lat="44.76034527794816" lon="9.54267591668862"><ele>978.0</ele><time>2026-04-05T10:18:06Z</time></trkpt><trkpt lat="44.76033195601166" lon="9.542540210435893"><ele>978.0</ele><time>2026-04-05T10:18:07Z</time></trkpt><trkpt lat="44.760306485415065" lon="9.542369891440815"><ele>977.5</ele><time>2026-04-05T10:18:09Z</time></trkpt><trkpt lat="44.76028603008487" lon="9.54227525851602"><ele>977.0</ele><time>2026-04-05T10:18:10Z</time></trkpt><trkpt lat="44.760277899203054" lon="9.542173589463864"><ele>976.5</ele><time>2026-04-05T10:18:11Z</time></trkpt><trkpt lat="44.760268197884606" lon="9.542063184691914"><ele>976.0</ele><time>2026-04-05T10:18:12Z</time></trkpt><trkpt lat="44.76025185042329" lon="9.54196784524677"><ele>975.5</ele><time>2026-04-05T10:18:13Z</time></trkpt><trkpt lat="44.76021059972584" lon="9.541825981528993"><ele>975.0</ele><time>2026-04-05T10:18:15Z</time></trkpt><trkpt lat="44.76016728899365" lon="9.54168918344709"><ele>980.0</ele><time>2026-04-05T10:18:17Z</time></trkpt><trkpt lat="44.76012352762455" lon="9.541565200793128"><ele>985.0</ele><time>2026-04-05T10:18:19Z</time></trkpt><trkpt lat="44.76010683526833" lon="9.541478388224402"><ele>990.0</ele><time>2026-04-05T10:18:22Z</time></trkpt><trkpt lat="44.760094305035494" lon="9.541146900990896"><ele>995.0</ele><time>2026-04-05T10:18:25Z</time></trkpt><trkpt lat="44.7601245432699" lon="9.540991624397245"><ele>995.0000000000001</ele><time>2026-04-05T10:18:27Z</time></trkpt><trkpt lat="44.76011271454815" lon="9.540864949277154"><ele>995.0</ele><time>2026-04-05T10:18:29Z</time></trkpt><trkpt lat="44.760076781741034" lon="9.540747245262708"><ele>995.0</ele><time>2026-04-05T10:18:32Z</time></trkpt><trkpt lat="44.76009651491557" lon="9.54062286081062"><ele>995.0</ele><time>2026-04-05T10:18:35Z</time></trkpt><trkpt lat="44.760114468594686" lon="9.540532995871855"><ele>995.0000000000001</ele><time>2026-04-05T10:18:37Z</time></trkpt><trkpt lat="44.760100304460266" lon="9.540442695547343"><ele>995.0</ele><time>2026-04-05T10:18:40Z</time></trkpt><trkpt lat="44.76002894070295" lon="9.540342409737061"><ele>995.3333333333334</ele><time>2026-04-05T10:18:45Z</time></trkpt><trkpt lat="44.759971353595546" lon="9.540277754439364"><ele>995.6666666666667</ele><time>2026-04-05T10:18:46Z</time></trkpt><trkpt lat="44.7599304847697" lon="9.540192209535592"><ele>996.0</ele><time>2026-04-05T10:18:47Z</time></trkpt><trkpt lat="44.75990145567831" lon="9.540071265166599"><ele>996.3333333333333</ele><time>2026-04-05T10:18:48Z</time></trkpt><trkpt lat="44.759920728037336" lon="9.539909053019656"><ele>996.6666666666666</ele><time>2026-04-05T10:18:50Z</time></trkpt><trkpt lat="44.75991888806396" lon="9.539803081484246"><ele>997.0</ele><time>2026-04-05T10:18:51Z</time></trkpt><trkpt lat="44.75993513817005" lon="9.539624136634343"><ele>997.1666666666666</ele><time>2026-04-05T10:18:53Z</time></trkpt><trkpt lat="44.75996115344783" lon="9.539522393192238"><ele>997.3333333333333</ele><time>2026-04-05T10:18:54Z</time></trkpt><trkpt lat="44.76000063249018" lon="9.539439506914764"><ele>997.5</ele><time>2026-04-05T10:18:55Z</time></trkpt><trkpt lat="44.76002645920385" lon="9.539343035957932"><ele>997.6666666666667</ele><time>2026-04-05T10:18:56Z</time></trkpt><trkpt lat="44.760049639667784" lon="9.53924145613459"><ele>997.8333333333334</ele><time>2026-04-05T10:18:57Z</time></trkpt><trkpt lat="44.76006074755605" lon="9.539072885900833"><ele>998.0</ele><time>2026-04-05T10:18:59Z</time></trkpt><trkpt lat="44.76005817222874" lon="9.538974419442361"><ele>998.0000000000001</ele><time>2026-04-05T10:19:00Z</time></trkpt><trkpt lat="44.76005891670895" lon="9.538861366871908"><ele>998.0</ele><time>2026-04-05T10:19:01Z</time></trkpt><trkpt lat="44.76007712130252" lon="9.538752763849805"><ele>998.0</ele><time>2026-04-05T10:19:02Z</time></trkpt><trkpt lat="44.76012778886803" lon="9.538658680971935"><ele>998.0</ele><time>2026-04-05T10:19:03Z</time></trkpt><trkpt lat="44.76018336233952" lon="9.538585230077775"><ele>998.0000000000001</ele><time>2026-04-05T10:19:04Z</time></trkpt><trkpt lat="44.760242047759604" lon="9.538504024709976"><ele>998.0</ele><time>2026-04-05T10:19:05Z</time></trkpt><trkpt lat="44.760311857698426" lon="9.538430748242698"><ele>997.0000000000001</ele><time>2026-04-05T10:19:06Z</time></trkpt><trkpt lat="44.7603763266516" lon="9.53837160363144"><ele>996.0</ele><time>2026-04-05T10:19:07Z</time></trkpt><trkpt lat="44.76043457255631" lon="9.53830221261746"><ele>995.0</ele><time>2026-04-05T10:19:08Z</time></trkpt><trkpt lat="44.760483792443104" lon="9.538244645875105"><ele>994.0</ele><time>2026-04-05T10:19:09Z</time></trkpt><trkpt lat="44.76053328296439" lon="9.538145722358019"><ele>993.0000000000001</ele><time>2026-04-05T10:19:11Z</time></trkpt><trkpt lat="44.760522309526266" lon="9.538009918745505"><ele>992.0</ele><time>2026-04-05T10:19:12.999Z</time></trkpt><trkpt lat="44.76050116541426" lon="9.53791406937915"><ele>991.5000000000001</ele><time>2026-04-05T10:19:16.999Z</time></trkpt><trkpt lat="44.76048136446629" lon="9.537795073118538"><ele>991.0</ele><time>2026-04-05T10:19:19.999Z</time></trkpt><trkpt lat="44.76046308628211" lon="9.537676000432294"><ele>990.5</ele><time>2026-04-05T10:19:21.999Z</time></trkpt><trkpt lat="44.760415588210314" lon="9.537581583334784"><ele>990.0</ele><time>2026-04-05T10:19:24.999Z</time></trkpt><trkpt lat="44.760388458792775" lon="9.53747552177428"><ele>989.5000000000001</ele><time>2026-04-05T10:19:27Z</time></trkpt><trkpt lat="44.76034954982914" lon="9.537359173307841"><ele>989.0</ele><time>2026-04-05T10:19:29Z</time></trkpt><trkpt lat="44.76033804847822" lon="9.537254490795751"><ele>989.0000000000001</ele><time>2026-04-05T10:19:37Z</time></trkpt><trkpt lat="44.760298946231835" lon="9.537159200630187"><ele>989.0</ele><time>2026-04-05T10:19:40Z</time></trkpt><trkpt lat="44.760264984879214" lon="9.53704045197682"><ele>989.0</ele><time>2026-04-05T10:19:42Z</time></trkpt><trkpt lat="44.76030782403467" lon="9.53697303995015"><ele>989.0</ele><time>2026-04-05T10:19:44Z</time></trkpt><trkpt lat="44.7603926523008" lon="9.536898687345364"><ele>989.0000000000001</ele><time>2026-04-05T10:19:46Z</time></trkpt><trkpt lat="44.760470873498946" lon="9.536852325655204"><ele>989.0</ele><time>2026-04-05T10:19:48Z</time></trkpt><trkpt lat="44.760465778194856" lon="9.536725150868358"><ele>987.3333333333334</ele><time>2026-04-05T10:19:51Z</time></trkpt><trkpt lat="44.760456154015294" lon="9.536611039321635"><ele>985.6666666666667</ele><time>2026-04-05T10:19:54Z</time></trkpt><trkpt lat="44.76045580929199" lon="9.536512209025599"><ele>984.0</ele><time>2026-04-05T10:19:56Z</time></trkpt><trkpt lat="44.76047767484972" lon="9.536406158986686"><ele>982.3333333333333</ele><time>2026-04-05T10:19:58Z</time></trkpt><trkpt lat="44.76051823738558" lon="9.536305976679333"><ele>980.6666666666666</ele><time>2026-04-05T10:20:00Z</time></trkpt><trkpt lat="44.760527987379355" lon="9.536173460078038"><ele>979.0</ele><time>2026-04-05T10:20:02Z</time></trkpt><trkpt lat="44.76054930926464" lon="9.536033808969888"><ele>976.2</ele><time>2026-04-05T10:20:04Z</time></trkpt><trkpt lat="44.760531061283615" lon="9.53586173207674"><ele>973.4000000000001</ele><time>2026-04-05T10:20:06Z</time></trkpt><trkpt lat="44.7604922954809" lon="9.535737550617956"><ele>970.6</ele><time>2026-04-05T10:20:08Z</time></trkpt><trkpt lat="44.76044765105144" lon="9.535629879598925"><ele>967.8</ele><time>2026-04-05T10:20:11Z</time></trkpt><trkpt lat="44.76042350366626" lon="9.535545576085811"><ele>965.0</ele><time>2026-04-05T10:20:13Z</time></trkpt><trkpt lat="44.760382946664706" lon="9.535422312813116"><ele>960.0</ele><time>2026-04-05T10:20:15Z</time></trkpt><trkpt lat="44.76035968274598" lon="9.53533589362854"><ele>955.0</ele><time>2026-04-05T10:20:16Z</time></trkpt><trkpt lat="44.760308850986725" lon="9.535185644675051"><ele>950.0</ele><time>2026-04-05T10:20:18Z</time></trkpt><trkpt lat="44.76027590022785" lon="9.535045229683591"><ele>945.0</ele><time>2026-04-05T10:20:20Z</time></trkpt><trkpt lat="44.76020756495822" lon="9.534907058991772"><ele>940.0</ele><time>2026-04-05T10:20:22Z</time></trkpt><trkpt lat="44.76013512327128" lon="9.534861160986459"><ele>939.9999999999999</ele><time>2026-04-05T10:20:24Z</time></trkpt><trkpt lat="44.76007418065033" lon="9.534919466649354"><ele>940.0</ele><time>2026-04-05T10:20:26Z</time></trkpt><trkpt lat="44.75999137178978" lon="9.53492131391833"><ele>940.0</ele><time>2026-04-05T10:20:28Z</time></trkpt><trkpt lat="44.75992174919998" lon="9.534918664765753"><ele>940.0</ele><time>2026-04-05T10:20:29Z</time></trkpt><trkpt lat="44.75983179479775" lon="9.534884627339743"><ele>939.9999999999999</ele><time>2026-04-05T10:20:31Z</time></trkpt><trkpt lat="44.75981984291253" lon="9.534789561262883"><ele>940.0</ele><time>2026-04-05T10:20:33Z</time></trkpt><trkpt lat="44.75991044755625" lon="9.5345753842271"><ele>936.8333333333333</ele><time>2026-04-05T10:20:36Z</time></trkpt><trkpt lat="44.759930667392744" lon="9.53448174764029"><ele>933.6666666666666</ele><time>2026-04-05T10:20:37Z</time></trkpt><trkpt lat="44.759977730735095" lon="9.534313913610182"><ele>930.5</ele><time>2026-04-05T10:20:39Z</time></trkpt><trkpt lat="44.76000282730279" lon="9.534221673358864"><ele>927.3333333333333</ele><time>2026-04-05T10:20:40Z</time></trkpt><trkpt lat="44.760026300124395" lon="9.534122187727728"><ele>924.1666666666666</ele><time>2026-04-05T10:20:41Z</time></trkpt><trkpt lat="44.76005424508736" lon="9.534023900298353"><ele>921.0</ele><time>2026-04-05T10:20:42Z</time></trkpt><trkpt lat="44.76007852929219" lon="9.533904047877988"><ele>921.0000000000001</ele><time>2026-04-05T10:20:43Z</time></trkpt><trkpt lat="44.76008664150466" lon="9.533801755093325"><ele>921.0</ele><time>2026-04-05T10:20:44Z</time></trkpt><trkpt lat="44.760077525976186" lon="9.53370284423274"><ele>921.0000000000001</ele><time>2026-04-05T10:20:45Z</time></trkpt><trkpt lat="44.760061580441864" lon="9.533596805584592"><ele>921.0000000000001</ele><time>2026-04-05T10:20:46Z</time></trkpt><trkpt lat="44.7600418579312" lon="9.533495476856139"><ele>921.0</ele><time>2026-04-05T10:20:47Z</time></trkpt><trkpt lat="44.76001707937268" lon="9.533399398312127"><ele>921.0000000000001</ele><time>2026-04-05T10:20:48Z</time></trkpt><trkpt lat="44.759994366886886" lon="9.533301627475229"><ele>921.0000000000001</ele><time>2026-04-05T10:20:49Z</time></trkpt><trkpt lat="44.7599779242076" lon="9.533198409084576"><ele>918.4285714285716</ele><time>2026-04-05T10:20:50Z</time></trkpt><trkpt lat="44.759966561619436" lon="9.533107932835875"><ele>915.8571428571429</ele><time>2026-04-05T10:20:51Z</time></trkpt><trkpt lat="44.75996898144864" lon="9.533013095281833"><ele>913.2857142857143</ele><time>2026-04-05T10:20:52Z</time></trkpt><trkpt lat="44.759959924751826" lon="9.532910382300802"><ele>910.7142857142858</ele><time>2026-04-05T10:20:53Z</time></trkpt><trkpt lat="44.759936623383666" lon="9.532797475678223"><ele>908.1428571428571</ele><time>2026-04-05T10:20:54Z</time></trkpt><trkpt lat="44.759932170649336" lon="9.532688002290273"><ele>905.5714285714286</ele><time>2026-04-05T10:20:55Z</time></trkpt><trkpt lat="44.75994197864995" lon="9.532587610769678"><ele>903.0</ele><time>2026-04-05T10:20:56Z</time></trkpt><trkpt lat="44.759966641180604" lon="9.532489325835899"><ele>901.2857142857143</ele><time>2026-04-05T10:20:56.999Z</time></trkpt><trkpt lat="44.75999583276895" lon="9.532391842348398"><ele>899.5714285714286</ele><time>2026-04-05T10:20:57.999Z</time></trkpt><trkpt lat="44.76001609763457" lon="9.532291064130968"><ele>897.8571428571429</ele><time>2026-04-05T10:20:58.999Z</time></trkpt><trkpt lat="44.76003415445744" lon="9.532201596042935"><ele>896.1428571428571</ele><time>2026-04-05T10:20:59.999Z</time></trkpt><trkpt lat="44.76008192327499" lon="9.532120712335356"><ele>894.4285714285714</ele><time>2026-04-05T10:21:00.999Z</time></trkpt><trkpt lat="44.76012529089961" lon="9.532039943338443"><ele>892.7142857142858</ele><time>2026-04-05T10:21:01.999Z</time></trkpt><trkpt lat="44.76014783299118" lon="9.53194537402241"><ele>891.0</ele><time>2026-04-05T10:21:02.999Z</time></trkpt><trkpt lat="44.760165587832255" lon="9.531853731654385"><ele>888.5714285714287</ele><time>2026-04-05T10:21:03.999Z</time></trkpt><trkpt lat="44.760177279007536" lon="9.531759843234314"><ele>886.1428571428571</ele><time>2026-04-05T10:21:04.999Z</time></trkpt><trkpt lat="44.76019777120328" lon="9.531664573289751"><ele>883.7142857142858</ele><time>2026-04-05T10:21:05.999Z</time></trkpt><trkpt lat="44.76021181711296" lon="9.531559791523188"><ele>881.2857142857143</ele><time>2026-04-05T10:21:06.999Z</time></trkpt><trkpt lat="44.760220081940396" lon="9.531454078550547"><ele>878.8571428571429</ele><time>2026-04-05T10:21:07.999Z</time></trkpt><trkpt lat="44.76024193001916" lon="9.531344079714573"><ele>876.4285714285714</ele><time>2026-04-05T10:21:08.999Z</time></trkpt><trkpt lat="44.7602779048115" lon="9.531251972053568"><ele>874.0</ele><time>2026-04-05T10:21:09.999Z</time></trkpt><trkpt lat="44.76031446890499" lon="9.531169108853435"><ele>870.2</ele><time>2026-04-05T10:21:10.999Z</time></trkpt><trkpt lat="44.76034141933997" lon="9.53100994474391"><ele>866.4000000000001</ele><time>2026-04-05T10:21:12.999Z</time></trkpt><trkpt lat="44.760336076030235" lon="9.530888509123885"><ele>862.6</ele><time>2026-04-05T10:21:14.999Z</time></trkpt><trkpt lat="44.760270022333046" lon="9.53080688102772"><ele>858.8</ele><time>2026-04-05T10:21:16.999Z</time></trkpt><trkpt lat="44.76025639092377" lon="9.530666829489386"><ele>855.0</ele><time>2026-04-05T10:21:18.999Z</time></trkpt><trkpt lat="44.76037239978153" lon="9.530442975373209"><ele>852.8333333333334</ele><time>2026-04-05T10:21:21.999Z</time></trkpt><trkpt lat="44.760461606583526" lon="9.530360530855283"><ele>850.6666666666667</ele><time>2026-04-05T10:21:22.999Z</time></trkpt><trkpt lat="44.760527645329255" lon="9.530297669874065"><ele>848.5</ele><time>2026-04-05T10:21:23.999Z</time></trkpt><trkpt lat="44.760573140059236" lon="9.530219903285358"><ele>846.3333333333334</ele><time>2026-04-05T10:21:24.999Z</time></trkpt><trkpt lat="44.76061838498316" lon="9.53014310714083"><ele>844.1666666666667</ele><time>2026-04-05T10:21:25.999Z</time></trkpt><trkpt lat="44.76067170252748" lon="9.530091958121686"><ele>842.0</ele><time>2026-04-05T10:21:26.999Z</time></trkpt><trkpt lat="44.76077189104732" lon="9.530034051769242"><ele>842.0000000000001</ele><time>2026-04-05T10:21:28.999Z</time></trkpt><trkpt lat="44.76086189965662" lon="9.529907190696264"><ele>842.0</ele><time>2026-04-05T10:21:30.999Z</time></trkpt><trkpt lat="44.76089902033846" lon="9.529834956145486"><ele>842.0</ele><time>2026-04-05T10:21:31.999Z</time></trkpt><trkpt lat="44.76094225324443" lon="9.529740689904532"><ele>842.0</ele><time>2026-04-05T10:21:33Z</time></trkpt><trkpt lat="44.760994798468786" lon="9.529639179799501"><ele>842.0000000000001</ele><time>2026-04-05T10:21:34Z</time></trkpt><trkpt lat="44.76104944582346" lon="9.529544683452741"><ele>842.0</ele><time>2026-04-05T10:21:35Z</time></trkpt><trkpt lat="44.76110874682312" lon="9.52945439230902"><ele>839.6666666666667</ele><time>2026-04-05T10:21:36Z</time></trkpt><trkpt lat="44.7611549953986" lon="9.529346627299198"><ele>837.3333333333334</ele><time>2026-04-05T10:21:37Z</time></trkpt><trkpt lat="44.76118080998601" lon="9.529223917712981"><ele>835.0</ele><time>2026-04-05T10:21:38Z</time></trkpt><trkpt lat="44.76121324766906" lon="9.529120472680578"><ele>832.6666666666667</ele><time>2026-04-05T10:21:39Z</time></trkpt><trkpt lat="44.76127929630651" lon="9.52904848243855"><ele>830.3333333333334</ele><time>2026-04-05T10:21:40Z</time></trkpt><trkpt lat="44.76136743067155" lon="9.529014400141396"><ele>828.0</ele><time>2026-04-05T10:21:41Z</time></trkpt><trkpt lat="44.76146654503484" lon="9.528999174826899"><ele>828.0</ele><time>2026-04-05T10:21:42Z</time></trkpt><trkpt lat="44.761583806274345" lon="9.529011717186405"><ele>828.0</ele><time>2026-04-05T10:21:43Z</time></trkpt><trkpt lat="44.76167801316523" lon="9.529022333650085"><ele>828.0</ele><time>2026-04-05T10:21:44Z</time></trkpt><trkpt lat="44.76174872764312" lon="9.528986566770508"><ele>828.0</ele><time>2026-04-05T10:21:45Z</time></trkpt><trkpt lat="44.7618011289007" lon="9.528919049585785"><ele>828.0</ele><time>2026-04-05T10:21:46Z</time></trkpt><trkpt lat="44.76184515204482" lon="9.528838875275513"><ele>828.0</ele><time>2026-04-05T10:21:47Z</time></trkpt><trkpt lat="44.76190112009586" lon="9.528767531819433"><ele>822.4</ele><time>2026-04-05T10:21:48Z</time></trkpt><trkpt lat="44.761955320171396" lon="9.528682854631038"><ele>816.8</ele><time>2026-04-05T10:21:49Z</time></trkpt><trkpt lat="44.762020736012865" lon="9.528599782038645"><ele>811.2</ele><time>2026-04-05T10:21:50Z</time></trkpt><trkpt lat="44.76208755929762" lon="9.528512488936386"><ele>805.6</ele><time>2026-04-05T10:21:51Z</time></trkpt><trkpt lat="44.76216638673523" lon="9.528429416492731"><ele>800.0</ele><time>2026-04-05T10:21:52Z</time></trkpt><trkpt lat="44.762254917455316" lon="9.528342486861701"><ele>800.0</ele><time>2026-04-05T10:21:53Z</time></trkpt><trkpt lat="44.762333085464995" lon="9.528272744127827"><ele>800.0</ele><time>2026-04-05T10:21:54Z</time></trkpt><trkpt lat="44.76241297367221" lon="9.528193502734922"><ele>800.0</ele><time>2026-04-05T10:21:55Z</time></trkpt><trkpt lat="44.76249455303704" lon="9.528120661356041"><ele>800.0</ele><time>2026-04-05T10:21:56Z</time></trkpt><trkpt lat="44.762581925039505" lon="9.528049122526449"><ele>800.0</ele><time>2026-04-05T10:21:57Z</time></trkpt><trkpt lat="44.76265744731513" lon="9.527974530737522"><ele>797.8333333333334</ele><time>2026-04-05T10:21:58Z</time></trkpt><trkpt lat="44.76272753096199" lon="9.52789739093149"><ele>795.6666666666667</ele><time>2026-04-05T10:21:59Z</time></trkpt><trkpt lat="44.762784753151685" lon="9.52782672073658"><ele>793.5</ele><time>2026-04-05T10:22:00Z</time></trkpt><trkpt lat="44.76283620855159" lon="9.527749282810818"><ele>791.3333333333333</ele><time>2026-04-05T10:22:01Z</time></trkpt><trkpt lat="44.762882169882715" lon="9.527669929511559"><ele>789.1666666666666</ele><time>2026-04-05T10:22:02Z</time></trkpt><trkpt lat="44.76293851681479" lon="9.527542751561496"><ele>787.0</ele><time>2026-04-05T10:22:04Z</time></trkpt><trkpt lat="44.762990635797735" lon="9.527452233105576"><ele>786.4999999999999</ele><time>2026-04-05T10:22:06Z</time></trkpt><trkpt lat="44.76305318768571" lon="9.52734922122663"><ele>786.0</ele><time>2026-04-05T10:22:08Z</time></trkpt><trkpt lat="44.763114883209305" lon="9.527217731604244"><ele>785.5</ele><time>2026-04-05T10:22:10Z</time></trkpt><trkpt lat="44.763154351425655" lon="9.527142720159544"><ele>785.0</ele><time>2026-04-05T10:22:12Z</time></trkpt><trkpt lat="44.763188733529674" lon="9.527062857466495"><ele>784.4999999999999</ele><time>2026-04-05T10:22:14Z</time></trkpt><trkpt lat="44.763275371544644" lon="9.52702880365163"><ele>784.0</ele><time>2026-04-05T10:24:34.999Z</time></trkpt><trkpt lat="44.763335876425025" lon="9.527164326948842"><ele>784.0</ele><time>2026-04-05T10:24:37.999Z</time></trkpt><trkpt lat="44.76337915035423" lon="9.527230964946229"><ele>784.0</ele><time>2026-04-05T10:24:38.999Z</time></trkpt><trkpt lat="44.76342150600319" lon="9.52731689178243"><ele>784.0</ele><time>2026-04-05T10:24:39.999Z</time></trkpt><trkpt lat="44.76348994219335" lon="9.527455035230187"><ele>784.0</ele><time>2026-04-05T10:24:41.999Z</time></trkpt><trkpt lat="44.76351919274385" lon="9.527534163309296"><ele>784.0</ele><time>2026-04-05T10:24:42.999Z</time></trkpt><trkpt lat="44.76354617245416" lon="9.527616322600835"><ele>784.0</ele><time>2026-04-05T10:24:43.999Z</time></trkpt><trkpt lat="44.763580676216534" lon="9.527691780709901"><ele>784.0</ele><time>2026-04-05T10:24:44.999Z</time></trkpt><trkpt lat="44.763623328149784" lon="9.527770253414543"><ele>783.1666666666666</ele><time>2026-04-05T10:24:45.999Z</time></trkpt><trkpt lat="44.76368428977823" lon="9.527856827431235"><ele>782.3333333333333</ele><time>2026-04-05T10:24:46.999Z</time></trkpt><trkpt lat="44.76375583985704" lon="9.52793961149267"><ele>781.5</ele><time>2026-04-05T10:24:47.999Z</time></trkpt><trkpt lat="44.763831728890814" lon="9.528012079889665"><ele>780.6666666666667</ele><time>2026-04-05T10:24:48.999Z</time></trkpt><trkpt lat="44.76390030996141" lon="9.528070835460595"><ele>779.8333333333334</ele><time>2026-04-05T10:24:49.999Z</time></trkpt><trkpt lat="44.76396743559866" lon="9.528120800725842"><ele>779.0</ele><time>2026-04-05T10:24:50.999Z</time></trkpt><trkpt lat="44.7640348741877" lon="9.528167016188121"><ele>779.0000000000001</ele><time>2026-04-05T10:24:51.999Z</time></trkpt><trkpt lat="44.764109284989225" lon="9.528205687861504"><ele>779.0</ele><time>2026-04-05T10:24:52.999Z</time></trkpt><trkpt lat="44.764185382083475" lon="9.528231916580516"><ele>779.0</ele><time>2026-04-05T10:24:53.999Z</time></trkpt><trkpt lat="44.76426738100171" lon="9.5282535838359"><ele>779.0</ele><time>2026-04-05T10:24:54.999Z</time></trkpt><trkpt lat="44.764335595823866" lon="9.528286754449551"><ele>779.0000000000001</ele><time>2026-04-05T10:24:55.999Z</time></trkpt><trkpt lat="44.76440517677368" lon="9.528316032371054"><ele>779.0</ele><time>2026-04-05T10:24:56.999Z</time></trkpt><trkpt lat="44.76446619989306" lon="9.528345782814368"><ele>778.6</ele><time>2026-04-05T10:24:57.999Z</time></trkpt><trkpt lat="44.76458291713027" lon="9.52840357262528"><ele>778.2</ele><time>2026-04-05T10:24:59.999Z</time></trkpt><trkpt lat="44.764686759542506" lon="9.528441625040648"><ele>777.8000000000001</ele><time>2026-04-05T10:25:01.999Z</time></trkpt><trkpt lat="44.76477789876129" lon="9.528378059868514"><ele>777.4000000000001</ele><time>2026-04-05T10:25:03.999Z</time></trkpt><trkpt lat="44.76483642122336" lon="9.528237562956038"><ele>777.0</ele><time>2026-04-05T10:25:05.999Z</time></trkpt><trkpt lat="44.76493689990705" lon="9.528198650362938"><ele>777.0</ele><time>2026-04-05T10:25:07.999Z</time></trkpt><trkpt lat="44.76504271130887" lon="9.528229696599594"><ele>777.0</ele><time>2026-04-05T10:25:09.999Z</time></trkpt><trkpt lat="44.76510670974816" lon="9.52822943148878"><ele>777.0</ele><time>2026-04-05T10:25:11.999Z</time></trkpt><trkpt lat="44.765181930076835" lon="9.528224652017125"><ele>777.0</ele><time>2026-04-05T10:25:13.999Z</time></trkpt><trkpt lat="44.76524572101379" lon="9.528200564781178"><ele>777.0</ele><time>2026-04-05T10:25:15.999Z</time></trkpt><trkpt lat="44.76531940112197" lon="9.52815449717457"><ele>777.0</ele><time>2026-04-05T10:25:18.999Z</time></trkpt><trkpt lat="44.76538161794703" lon="9.528116473586898"><ele>777.0</ele><time>2026-04-05T10:25:21.999Z</time></trkpt><trkpt lat="44.76535537638932" lon="9.528030192206542"><ele>777.0</ele><time>2026-04-05T10:25:23.999Z</time></trkpt><trkpt lat="44.76529171346765" lon="9.527994170098191"><ele>777.0</ele><time>2026-04-05T10:25:27.999Z</time></trkpt><trkpt lat="44.765242761596305" lon="9.52806366849124"><ele>777.0</ele><time>2026-04-05T10:25:35.999Z</time></trkpt><trkpt lat="44.76520590423976" lon="9.528137609885698"><ele>777.0</ele><time>2026-04-05T10:25:38.999Z</time></trkpt><trkpt lat="44.765145714651" lon="9.528210265311596"><ele>777.0</ele><time>2026-04-05T10:25:41.999Z</time></trkpt><trkpt lat="44.765058903962256" lon="9.528212886725331"><ele>777.0</ele><time>2026-04-05T10:25:59Z</time></trkpt><trkpt lat="44.765128003060354" lon="9.52822967268704"><ele>776.1666666666666</ele><time>2026-04-05T10:26:05Z</time></trkpt><trkpt lat="44.765236724730435" lon="9.528192106991971"><ele>775.3333333333333</ele><time>2026-04-05T10:26:06Z</time></trkpt><trkpt lat="44.76529785434942" lon="9.528168613818757"><ele>774.5</ele><time>2026-04-05T10:26:07Z</time></trkpt><trkpt lat="44.76535969140195" lon="9.528143505877276"><ele>773.6666666666666</ele><time>2026-04-05T10:26:08Z</time></trkpt><trkpt lat="44.76545879190843" lon="9.528122756507164"><ele>772.8333333333333</ele><time>2026-04-05T10:26:10Z</time></trkpt><trkpt lat="44.76555134463146" lon="9.528196932706399"><ele>772.0</ele><time>2026-04-05T10:26:12Z</time></trkpt><trkpt lat="44.76560285548424" lon="9.52827077381421"><ele>771.9999999999999</ele><time>2026-04-05T10:26:13Z</time></trkpt><trkpt lat="44.76566863813026" lon="9.528366424377099"><ele>772.0</ele><time>2026-04-05T10:26:14Z</time></trkpt><trkpt lat="44.765722071018196" lon="9.528442004185713"><ele>772.0</ele><time>2026-04-05T10:26:15Z</time></trkpt><trkpt lat="44.765774729323475" lon="9.528517000643198"><ele>772.0</ele><time>2026-04-05T10:26:16Z</time></trkpt><trkpt lat="44.765860275263975" lon="9.528614390001549"><ele>771.9999999999999</ele><time>2026-04-05T10:26:17Z</time></trkpt><trkpt lat="44.76592722144769" lon="9.528695299394245"><ele>772.0</ele><time>2026-04-05T10:26:18Z</time></trkpt><trkpt lat="44.76599750244247" lon="9.528775130848848"><ele>771.2857142857143</ele><time>2026-04-05T10:26:19Z</time></trkpt><trkpt lat="44.76606031705695" lon="9.52884749680532"><ele>770.5714285714286</ele><time>2026-04-05T10:26:20Z</time></trkpt><trkpt lat="44.76611526455856" lon="9.528921422958643"><ele>769.8571428571429</ele><time>2026-04-05T10:26:21Z</time></trkpt><trkpt lat="44.766163135403424" lon="9.528996127387776"><ele>769.1428571428571</ele><time>2026-04-05T10:26:22Z</time></trkpt><trkpt lat="44.76620634355284" lon="9.529063198505135"><ele>768.4285714285714</ele><time>2026-04-05T10:26:23Z</time></trkpt><trkpt lat="44.76625723957573" lon="9.52912696802638"><ele>767.7142857142858</ele><time>2026-04-05T10:26:24Z</time></trkpt><trkpt lat="44.76631307034457" lon="9.529191504931402"><ele>767.0</ele><time>2026-04-05T10:26:25Z</time></trkpt><trkpt lat="44.76637430349755" lon="9.529287663794342"><ele>767.0</ele><time>2026-04-05T10:26:26Z</time></trkpt><trkpt lat="44.76643210022357" lon="9.529375647754645"><ele>767.0</ele><time>2026-04-05T10:26:27Z</time></trkpt><trkpt lat="44.76649461241621" lon="9.529447948757037"><ele>767.0</ele><time>2026-04-05T10:26:28Z</time></trkpt><trkpt lat="44.76656638342243" lon="9.529517225550487"><ele>767.0</ele><time>2026-04-05T10:26:29Z</time></trkpt><trkpt lat="44.76665151066241" lon="9.529576330304684"><ele>767.0</ele><time>2026-04-05T10:26:30Z</time></trkpt><trkpt lat="44.76674637147986" lon="9.529621467220718"><ele>767.0</ele><time>2026-04-05T10:26:31Z</time></trkpt><trkpt lat="44.76683791644043" lon="9.529643508447135"><ele>765.5</ele><time>2026-04-05T10:26:32Z</time></trkpt><trkpt lat="44.76692681134465" lon="9.529638255405208"><ele>764.0</ele><time>2026-04-05T10:26:32.999Z</time></trkpt><trkpt lat="44.76701029615797" lon="9.529637366485474"><ele>762.5</ele><time>2026-04-05T10:26:33.999Z</time></trkpt><trkpt lat="44.76709301893869" lon="9.529627763275492"><ele>761.0</ele><time>2026-04-05T10:26:34.999Z</time></trkpt><trkpt lat="44.767175482401626" lon="9.529623748404672"><ele>759.5</ele><time>2026-04-05T10:26:35.999Z</time></trkpt><trkpt lat="44.76725562941016" lon="9.52960541745203"><ele>758.0</ele><time>2026-04-05T10:26:36.999Z</time></trkpt><trkpt lat="44.76732776480795" lon="9.529594219643466"><ele>758.0</ele><time>2026-04-05T10:26:37.999Z</time></trkpt><trkpt lat="44.767397900866996" lon="9.52958432501455"><ele>758.0</ele><time>2026-04-05T10:26:38.999Z</time></trkpt><trkpt lat="44.767455600367704" lon="9.52963379171252"><ele>758.0</ele><time>2026-04-05T10:26:39.999Z</time></trkpt><trkpt lat="44.767484258428226" lon="9.529747992238162"><ele>758.0</ele><time>2026-04-05T10:26:40.999Z</time></trkpt><trkpt lat="44.767495486087384" lon="9.52990301657023"><ele>758.0</ele><time>2026-04-05T10:26:41.999Z</time></trkpt><trkpt lat="44.767492039706966" lon="9.530051875120622"><ele>758.0</ele><time>2026-04-05T10:26:42.999Z</time></trkpt><trkpt lat="44.767492459675694" lon="9.530177498263024"><ele>758.0</ele><time>2026-04-05T10:26:43.999Z</time></trkpt><trkpt lat="44.76749293873575" lon="9.530302220215166"><ele>758.0</ele><time>2026-04-05T10:26:44.999Z</time></trkpt><trkpt lat="44.76749525100219" lon="9.530425002219427"><ele>758.0</ele><time>2026-04-05T10:26:45.999Z</time></trkpt><trkpt lat="44.76751748696629" lon="9.530546468153034"><ele>758.0</ele><time>2026-04-05T10:26:46.999Z</time></trkpt><trkpt lat="44.767571624636815" lon="9.530651890935804"><ele>758.0</ele><time>2026-04-05T10:26:47.999Z</time></trkpt><trkpt lat="44.76763343219301" lon="9.530755418391395"><ele>757.3333333333333</ele><time>2026-04-05T10:26:48.999Z</time></trkpt><trkpt lat="44.76770565707402" lon="9.53082988127156"><ele>756.6666666666666</ele><time>2026-04-05T10:26:49.999Z</time></trkpt><trkpt lat="44.76778033462492" lon="9.530888805935266"><ele>756.0</ele><time>2026-04-05T10:26:50.999Z</time></trkpt><trkpt lat="44.76783906885647" lon="9.530963164039798"><ele>755.3333333333334</ele><time>2026-04-05T10:26:51.999Z</time></trkpt><trkpt lat="44.76788888623687" lon="9.53104664483619"><ele>754.6666666666667</ele><time>2026-04-05T10:26:52.999Z</time></trkpt><trkpt lat="44.76793749831921" lon="9.531137297468314"><ele>754.0</ele><time>2026-04-05T10:26:53.999Z</time></trkpt><trkpt lat="44.7679912271681" lon="9.531233051565405"><ele>754.0</ele><time>2026-04-05T10:26:54.999Z</time></trkpt><trkpt lat="44.768054948693624" lon="9.531329070465143"><ele>754.0</ele><time>2026-04-05T10:26:55.999Z</time></trkpt><trkpt lat="44.76812970787759" lon="9.531411309813356"><ele>754.0</ele><time>2026-04-05T10:26:56.999Z</time></trkpt><trkpt lat="44.76820653771163" lon="9.531473335240806"><ele>754.0</ele><time>2026-04-05T10:26:57.999Z</time></trkpt><trkpt lat="44.76828468072069" lon="9.531524743373526"><ele>754.0</ele><time>2026-04-05T10:26:58.999Z</time></trkpt><trkpt lat="44.76835687553458" lon="9.531584767100853"><ele>754.0</ele><time>2026-04-05T10:26:59.999Z</time></trkpt><trkpt lat="44.768426916275786" lon="9.531662446071683"><ele>754.0</ele><time>2026-04-05T10:27:00.999Z</time></trkpt><trkpt lat="44.76848636237138" lon="9.531754244997272"><ele>754.0</ele><time>2026-04-05T10:27:01.999Z</time></trkpt><trkpt lat="44.768540248083646" lon="9.53185247071321"><ele>754.0</ele><time>2026-04-05T10:27:02.999Z</time></trkpt><trkpt lat="44.768596011654225" lon="9.531944724957206"><ele>754.0</ele><time>2026-04-05T10:27:03.999Z</time></trkpt><trkpt lat="44.768653183246414" lon="9.53203461440805"><ele>754.0</ele><time>2026-04-05T10:27:04.999Z</time></trkpt><trkpt lat="44.7687114619843" lon="9.532112826361576"><ele>754.0</ele><time>2026-04-05T10:27:05.999Z</time></trkpt><trkpt lat="44.76877349187536" lon="9.532168828472669"><ele>753.1666666666667</ele><time>2026-04-05T10:27:06.999Z</time></trkpt><trkpt lat="44.76884402329828" lon="9.532199830676301"><ele>752.3333333333334</ele><time>2026-04-05T10:27:07.999Z</time></trkpt><trkpt lat="44.768914885761625" lon="9.532219293817997"><ele>751.5</ele><time>2026-04-05T10:27:08.999Z</time></trkpt><trkpt lat="44.768984209394674" lon="9.532243316121951"><ele>750.6666666666666</ele><time>2026-04-05T10:27:09.999Z</time></trkpt><trkpt lat="44.76906481336566" lon="9.532272561477194"><ele>749.8333333333333</ele><time>2026-04-05T10:27:10.999Z</time></trkpt><trkpt lat="44.76914883109062" lon="9.532293517769963"><ele>749.0</ele><time>2026-04-05T10:27:11.999Z</time></trkpt><trkpt lat="44.769225003011336" lon="9.532315593322396"><ele>749.0</ele><time>2026-04-05T10:27:12.999Z</time></trkpt><trkpt lat="44.769297020416914" lon="9.532329062718281"><ele>749.0</ele><time>2026-04-05T10:27:13.999Z</time></trkpt><trkpt lat="44.769364042457916" lon="9.5323435176143"><ele>749.0</ele><time>2026-04-05T10:27:14.999Z</time></trkpt><trkpt lat="44.769433033276904" lon="9.532346801946995"><ele>749.0</ele><time>2026-04-05T10:27:15.999Z</time></trkpt><trkpt lat="44.76955718775235" lon="9.532350019444642"><ele>749.0</ele><time>2026-04-05T10:27:17.999Z</time></trkpt><trkpt lat="44.769621847223405" lon="9.5323622291957"><ele>749.0</ele><time>2026-04-05T10:27:18.999Z</time></trkpt><trkpt lat="44.76968251467297" lon="9.532387684608983"><ele>746.3333333333333</ele><time>2026-04-05T10:27:19.999Z</time></trkpt><trkpt lat="44.76975577461308" lon="9.532436635281487"><ele>743.6666666666666</ele><time>2026-04-05T10:27:21.999Z</time></trkpt><trkpt lat="44.769817044318714" lon="9.53235759664139"><ele>741.0</ele><time>2026-04-05T10:27:24.999Z</time></trkpt><trkpt lat="44.76984106398301" lon="9.532267462179831"><ele>738.3333333333334</ele><time>2026-04-05T10:27:26.999Z</time></trkpt><trkpt lat="44.76987283353427" lon="9.532184190644333"><ele>735.6666666666667</ele><time>2026-04-05T10:27:28.999Z</time></trkpt><trkpt lat="44.769910744210385" lon="9.53209336031782"><ele>733.0</ele><time>2026-04-05T10:27:32.999Z</time></trkpt><trkpt lat="44.76997138146003" lon="9.532017967720599"><ele>731.6666666666667</ele><time>2026-04-05T10:27:36.999Z</time></trkpt><trkpt lat="44.77000277754351" lon="9.531937879107527"><ele>730.3333333333334</ele><time>2026-04-05T10:27:40.999Z</time></trkpt><trkpt lat="44.77002266385388" lon="9.531853276260875"><ele>729.0</ele><time>2026-04-05T10:27:43.999Z</time></trkpt><trkpt lat="44.770024408115006" lon="9.531757044431401"><ele>727.6666666666666</ele><time>2026-04-05T10:27:47.999Z</time></trkpt><trkpt lat="44.770016222729616" lon="9.531635288005482"><ele>726.3333333333333</ele><time>2026-04-05T10:27:53Z</time></trkpt><trkpt lat="44.77005314924624" lon="9.531537074968798"><ele>725.0</ele><time>2026-04-05T10:27:55Z</time></trkpt><trkpt lat="44.770087477602814" lon="9.531417373426713"><ele>725.0</ele><time>2026-04-05T10:27:57Z</time></trkpt><trkpt lat="44.7701379375877" lon="9.531254876742437"><ele>725.0</ele><time>2026-04-05T10:27:59.001Z</time></trkpt><trkpt lat="44.77016764955653" lon="9.53116344248403"><ele>725.0</ele><time>2026-04-05T10:28:00.001Z</time></trkpt><trkpt lat="44.77020471577231" lon="9.531072111867253"><ele>725.0</ele><time>2026-04-05T10:28:01.001Z</time></trkpt><trkpt lat="44.770290469388215" lon="9.53097456140554"><ele>725.0</ele><time>2026-04-05T10:28:03.001Z</time></trkpt><trkpt lat="44.77040250433826" lon="9.530930105710087"><ele>719.6666666666666</ele><time>2026-04-05T10:28:05.001Z</time></trkpt><trkpt lat="44.7705134629931" lon="9.530879397512507"><ele>714.3333333333333</ele><time>2026-04-05T10:28:07.001Z</time></trkpt><trkpt lat="44.77057278461471" lon="9.530849176768518"><ele>709.0</ele><time>2026-04-05T10:28:08.001Z</time></trkpt><trkpt lat="44.77063018810617" lon="9.530788567889921"><ele>703.6666666666666</ele><time>2026-04-05T10:28:09.001Z</time></trkpt><trkpt lat="44.770692029475285" lon="9.530750187570808"><ele>698.3333333333334</ele><time>2026-04-05T10:28:10.001Z</time></trkpt><trkpt lat="44.770755252221726" lon="9.530758139152532"><ele>693.0</ele><time>2026-04-05T10:28:11.001Z</time></trkpt><trkpt lat="44.77083130698772" lon="9.53076282284507"><ele>693.0</ele><time>2026-04-05T10:28:12.001Z</time></trkpt><trkpt lat="44.77091480265597" lon="9.530751891017433"><ele>693.0</ele><time>2026-04-05T10:28:13.001Z</time></trkpt><trkpt lat="44.771001662949324" lon="9.530720388098047"><ele>693.0</ele><time>2026-04-05T10:28:14.001Z</time></trkpt><trkpt lat="44.771083264447384" lon="9.530671547222388"><ele>693.0</ele><time>2026-04-05T10:28:15.001Z</time></trkpt><trkpt lat="44.77116009086617" lon="9.530618415881023"><ele>693.0</ele><time>2026-04-05T10:28:16.001Z</time></trkpt><trkpt lat="44.77125303562255" lon="9.530640083800321"><ele>693.0</ele><time>2026-04-05T10:28:18.001Z</time></trkpt><trkpt lat="44.77129821850305" lon="9.53071704731834"><ele>691.1666666666666</ele><time>2026-04-05T10:28:19.001Z</time></trkpt><trkpt lat="44.77136584225305" lon="9.53082550708565"><ele>689.3333333333334</ele><time>2026-04-05T10:28:20Z</time></trkpt><trkpt lat="44.77143121865094" lon="9.530908205129714"><ele>687.5</ele><time>2026-04-05T10:28:21Z</time></trkpt><trkpt lat="44.77149975900291" lon="9.530951096678262"><ele>685.6666666666667</ele><time>2026-04-05T10:28:22Z</time></trkpt><trkpt lat="44.77156633047333" lon="9.53099873766692"><ele>683.8333333333334</ele><time>2026-04-05T10:28:23Z</time></trkpt><trkpt lat="44.77162869291687" lon="9.53104326571584"><ele>682.0</ele><time>2026-04-05T10:28:24Z</time></trkpt><trkpt lat="44.77169126899244" lon="9.53108973166156"><ele>682.0</ele><time>2026-04-05T10:28:25Z</time></trkpt><trkpt lat="44.77175438019797" lon="9.53114005095978"><ele>682.0</ele><time>2026-04-05T10:28:26Z</time></trkpt><trkpt lat="44.77181262031958" lon="9.531187223917744"><ele>682.0</ele><time>2026-04-05T10:28:27Z</time></trkpt><trkpt lat="44.7718806629038" lon="9.531184142357281"><ele>682.0</ele><time>2026-04-05T10:28:28Z</time></trkpt><trkpt lat="44.77195321503359" lon="9.531150634162032"><ele>682.0</ele><time>2026-04-05T10:28:29Z</time></trkpt><trkpt lat="44.77202633706351" lon="9.531120941646188"><ele>682.0</ele><time>2026-04-05T10:28:30Z</time></trkpt><trkpt lat="44.772102036262154" lon="9.531103221710511"><ele>682.0</ele><time>2026-04-05T10:28:31Z</time></trkpt><trkpt lat="44.772172775722076" lon="9.531068970509992"><ele>682.0</ele><time>2026-04-05T10:28:32Z</time></trkpt><trkpt lat="44.77225018737748" lon="9.530999249544736"><ele>682.0</ele><time>2026-04-05T10:28:33Z</time></trkpt><trkpt lat="44.77232634238117" lon="9.530914297731616"><ele>682.0</ele><time>2026-04-05T10:28:34Z</time></trkpt><trkpt lat="44.7723983092165" lon="9.530852574983284"><ele>682.0</ele><time>2026-04-05T10:28:35Z</time></trkpt><trkpt lat="44.77245944724984" lon="9.530814151368807"><ele>682.0</ele><time>2026-04-05T10:28:36Z</time></trkpt><trkpt lat="44.77252006492519" lon="9.53068737861391"><ele>682.0</ele><time>2026-04-05T10:28:38Z</time></trkpt><trkpt lat="44.77250922229104" lon="9.530593377254482"><ele>682.0</ele><time>2026-04-05T10:28:39Z</time></trkpt><trkpt lat="44.77247865545798" lon="9.530444844119303"><ele>682.0</ele><time>2026-04-05T10:28:41Z</time></trkpt><trkpt lat="44.77246568174456" lon="9.530304321990178"><ele>682.0</ele><time>2026-04-05T10:28:43Z</time></trkpt><trkpt lat="44.77244853895565" lon="9.53013705847855"><ele>682.0</ele><time>2026-04-05T10:28:45Z</time></trkpt><trkpt lat="44.77245164629328" lon="9.530038588358707"><ele>682.0</ele><time>2026-04-05T10:28:46Z</time></trkpt><trkpt lat="44.77246190754819" lon="9.529927862570577"><ele>679.8333333333334</ele><time>2026-04-05T10:28:47Z</time></trkpt><trkpt lat="44.772471575004914" lon="9.529828855494154"><ele>677.6666666666667</ele><time>2026-04-05T10:28:48Z</time></trkpt><trkpt lat="44.772483606947496" lon="9.529690238701313"><ele>675.5</ele><time>2026-04-05T10:28:50Z</time></trkpt><trkpt lat="44.77248643102424" lon="9.529571338772362"><ele>673.3333333333334</ele><time>2026-04-05T10:28:52Z</time></trkpt><trkpt lat="44.77252566307058" lon="9.529474812198577"><ele>671.1666666666666</ele><time>2026-04-05T10:28:54Z</time></trkpt><trkpt lat="44.77261459268822" lon="9.52942856653728"><ele>669.0</ele><time>2026-04-05T10:28:58Z</time></trkpt><trkpt lat="44.77269194895648" lon="9.529406757649657"><ele>665.0</ele><time>2026-04-05T10:29:01Z</time></trkpt><trkpt lat="44.77286158912678" lon="9.529427860251188"><ele>661.0</ele><time>2026-04-05T10:29:04Z</time></trkpt><trkpt lat="44.77278285799306" lon="9.529419313805988"><ele>657.0</ele><time>2026-04-05T10:29:44Z</time></trkpt><trkpt lat="44.77267041315887" lon="9.529414792532894"><ele>653.0</ele><time>2026-04-05T10:29:46Z</time></trkpt><trkpt lat="44.77256268226447" lon="9.529483276611014"><ele>656.2</ele><time>2026-04-05T10:29:48Z</time></trkpt><trkpt lat="44.77251618723313" lon="9.529602836274018"><ele>659.4</ele><time>2026-04-05T10:29:50Z</time></trkpt><trkpt lat="44.77246102942074" lon="9.52968453237019"><ele>662.6</ele><time>2026-04-05T10:29:51Z</time></trkpt><trkpt lat="44.772459273610664" lon="9.52978247859514"><ele>665.8000000000001</ele><time>2026-04-05T10:29:52Z</time></trkpt><trkpt lat="44.77248933915192" lon="9.529965206127846"><ele>669.0</ele><time>2026-04-05T10:29:54Z</time></trkpt><trkpt lat="44.77247726022428" lon="9.530065047507145"><ele>669.0</ele><time>2026-04-05T10:29:55Z</time></trkpt><trkpt lat="44.77247062405793" lon="9.530153492910621"><ele>669.0</ele><time>2026-04-05T10:29:56Z</time></trkpt><trkpt lat="44.77247536980101" lon="9.530326526149441"><ele>669.0</ele><time>2026-04-05T10:29:58Z</time></trkpt><trkpt lat="44.77249207568269" lon="9.530425481831976"><ele>669.0</ele><time>2026-04-05T10:29:59Z</time></trkpt><trkpt lat="44.772497027815156" lon="9.530534239043917"><ele>669.0</ele><time>2026-04-05T10:30:00Z</time></trkpt><trkpt lat="44.77251153121528" lon="9.530668615746194"><ele>669.0</ele><time>2026-04-05T10:30:02Z</time></trkpt><trkpt lat="44.77250277626727" lon="9.530828961781426"><ele>669.6666666666666</ele><time>2026-04-05T10:30:04Z</time></trkpt><trkpt lat="44.772608429132816" lon="9.530796702096751"><ele>670.3333333333334</ele><time>2026-04-05T10:30:07Z</time></trkpt><trkpt lat="44.77270437208766" lon="9.530760607932685"><ele>671.0</ele><time>2026-04-05T10:30:08Z</time></trkpt><trkpt lat="44.77278678171801" lon="9.530740951070058"><ele>671.6666666666667</ele><time>2026-04-05T10:30:09Z</time></trkpt><trkpt lat="44.77285116041473" lon="9.530749437422358"><ele>672.3333333333334</ele><time>2026-04-05T10:30:10Z</time></trkpt><trkpt lat="44.77291124943653" lon="9.530784954852697"><ele>673.0</ele><time>2026-04-05T10:30:11Z</time></trkpt><trkpt lat="44.77297190707027" lon="9.53083688171014"><ele>673.0</ele><time>2026-04-05T10:30:12Z</time></trkpt><trkpt lat="44.77303672041822" lon="9.530881186336662"><ele>673.0</ele><time>2026-04-05T10:30:13Z</time></trkpt><trkpt lat="44.77310705079105" lon="9.530912895375625"><ele>673.0</ele><time>2026-04-05T10:30:14Z</time></trkpt><trkpt lat="44.77318240934346" lon="9.530951365812697"><ele>673.0</ele><time>2026-04-05T10:30:15Z</time></trkpt><trkpt lat="44.77327299248301" lon="9.53099986628403"><ele>673.0</ele><time>2026-04-05T10:30:16Z</time></trkpt><trkpt lat="44.77333326830812" lon="9.531037502117961"><ele>673.0</ele><time>2026-04-05T10:30:17Z</time></trkpt><trkpt lat="44.773420061355445" lon="9.531002001664364"><ele>673.0</ele><time>2026-04-05T10:30:19Z</time></trkpt><trkpt lat="44.773489355797295" lon="9.530932524376832"><ele>673.0</ele><time>2026-04-05T10:30:20Z</time></trkpt><trkpt lat="44.77355791380516" lon="9.530884369804523"><ele>673.0</ele><time>2026-04-05T10:30:21Z</time></trkpt><trkpt lat="44.77363145624811" lon="9.530853437946304"><ele>673.0</ele><time>2026-04-05T10:30:22Z</time></trkpt><trkpt lat="44.77370855584685" lon="9.530819453429778"><ele>673.0</ele><time>2026-04-05T10:30:23Z</time></trkpt><trkpt lat="44.77378810805808" lon="9.530771598618832"><ele>673.0</ele><time>2026-04-05T10:30:24Z</time></trkpt><trkpt lat="44.77385569654039" lon="9.530727867775747"><ele>670.6666666666667</ele><time>2026-04-05T10:30:25Z</time></trkpt><trkpt lat="44.773944173091124" lon="9.53066325937039"><ele>668.3333333333334</ele><time>2026-04-05T10:30:27Z</time></trkpt><trkpt lat="44.77401680002893" lon="9.530675836812112"><ele>666.0</ele><time>2026-04-05T10:30:28Z</time></trkpt><trkpt lat="44.77408912512642" lon="9.530723896123469"><ele>663.6666666666666</ele><time>2026-04-05T10:30:29Z</time></trkpt><trkpt lat="44.77416147485337" lon="9.530774481563427"><ele>661.3333333333333</ele><time>2026-04-05T10:30:30Z</time></trkpt><trkpt lat="44.77422477122435" lon="9.530776601570041"><ele>659.0</ele><time>2026-04-05T10:30:31Z</time></trkpt><trkpt lat="44.77429243914168" lon="9.530745516883034"><ele>657.5714285714286</ele><time>2026-04-05T10:30:32Z</time></trkpt><trkpt lat="44.774360017139124" lon="9.530704132802793"><ele>656.1428571428571</ele><time>2026-04-05T10:30:33Z</time></trkpt><trkpt lat="44.77443068730088" lon="9.530713512519513"><ele>654.7142857142857</ele><time>2026-04-05T10:30:34Z</time></trkpt><trkpt lat="44.77449049626908" lon="9.530760978677938"><ele>653.2857142857142</ele><time>2026-04-05T10:30:35Z</time></trkpt><trkpt lat="44.77454261306721" lon="9.530812684464406"><ele>651.8571428571429</ele><time>2026-04-05T10:30:36Z</time></trkpt><trkpt lat="44.774625844516756" lon="9.530818490132436"><ele>650.4285714285713</ele><time>2026-04-05T10:30:42Z</time></trkpt><trkpt lat="44.7746908653741" lon="9.530835822667573"><ele>649.0</ele><time>2026-04-05T10:30:44Z</time></trkpt><trkpt lat="44.77487469095424" lon="9.530901899584723"><ele>649.0</ele><time>2026-04-05T10:30:46Z</time></trkpt><trkpt lat="44.77493644827461" lon="9.530934499522962"><ele>649.0</ele><time>2026-04-05T10:30:47Z</time></trkpt><trkpt lat="44.775051778798336" lon="9.530985960615439"><ele>649.0</ele><time>2026-04-05T10:30:49Z</time></trkpt><trkpt lat="44.77511465530591" lon="9.531001871504424"><ele>649.0</ele><time>2026-04-05T10:30:50Z</time></trkpt><trkpt lat="44.7752377606509" lon="9.531043683630443"><ele>649.0</ele><time>2026-04-05T10:30:52Z</time></trkpt><trkpt lat="44.77530222218635" lon="9.531063161362974"><ele>649.0</ele><time>2026-04-05T10:30:53Z</time></trkpt><trkpt lat="44.77537301362809" lon="9.531076560179525"><ele>647.0</ele><time>2026-04-05T10:30:54Z</time></trkpt><trkpt lat="44.77545453914802" lon="9.531079140790895"><ele>645.0</ele><time>2026-04-05T10:30:55Z</time></trkpt><trkpt lat="44.7755354345437" lon="9.53107281855787"><ele>643.0</ele><time>2026-04-05T10:30:56Z</time></trkpt><trkpt lat="44.7756127332405" lon="9.531073958820015"><ele>641.0</ele><time>2026-04-05T10:30:57Z</time></trkpt><trkpt lat="44.775682405832285" lon="9.531089219292962"><ele>639.0</ele><time>2026-04-05T10:30:58Z</time></trkpt><trkpt lat="44.77575098699013" lon="9.531118336684065"><ele>637.0</ele><time>2026-04-05T10:30:59Z</time></trkpt><trkpt lat="44.775820928501886" lon="9.531163218579207"><ele>636.7142857142857</ele><time>2026-04-05T10:31:00Z</time></trkpt><trkpt lat="44.77589660443606" lon="9.531225319762722"><ele>636.4285714285714</ele><time>2026-04-05T10:31:01Z</time></trkpt><trkpt lat="44.775951301876354" lon="9.5313171374376"><ele>636.1428571428571</ele><time>2026-04-05T10:31:02Z</time></trkpt><trkpt lat="44.77598405695212" lon="9.531404759896681"><ele>635.8571428571429</ele><time>2026-04-05T10:31:03Z</time></trkpt><trkpt lat="44.775997824393656" lon="9.531498375161668"><ele>635.5714285714286</ele><time>2026-04-05T10:31:04Z</time></trkpt><trkpt lat="44.77599281307312" lon="9.531591316399375"><ele>635.2857142857142</ele><time>2026-04-05T10:31:05Z</time></trkpt><trkpt lat="44.776049243123595" lon="9.531640564807654"><ele>635.0</ele><time>2026-04-05T10:31:06Z</time></trkpt><trkpt lat="44.77613033060733" lon="9.531676400523994"><ele>631.8</ele><time>2026-04-05T10:31:07Z</time></trkpt><trkpt lat="44.77620173272807" lon="9.531676536961587"><ele>628.6</ele><time>2026-04-05T10:31:08Z</time></trkpt><trkpt lat="44.77630268850747" lon="9.531681269408441"><ele>625.4</ele><time>2026-04-05T10:31:10Z</time></trkpt><trkpt lat="44.77634005666654" lon="9.53159907716121"><ele>622.2</ele><time>2026-04-05T10:31:12Z</time></trkpt><trkpt lat="44.77636437053894" lon="9.531502932506813"><ele>619.0</ele><time>2026-04-05T10:31:13Z</time></trkpt><trkpt lat="44.77637633078236" lon="9.531250534954811"><ele>618.8333333333334</ele><time>2026-04-05T10:31:15Z</time></trkpt><trkpt lat="44.77632825943376" lon="9.531139768969695"><ele>618.6666666666667</ele><time>2026-04-05T10:31:17Z</time></trkpt><trkpt lat="44.77630263339408" lon="9.531054601101362"><ele>618.5</ele><time>2026-04-05T10:31:18Z</time></trkpt><trkpt lat="44.77627360670166" lon="9.530951145547508"><ele>618.3333333333334</ele><time>2026-04-05T10:31:19Z</time></trkpt><trkpt lat="44.77622948037279" lon="9.530783525175368"><ele>618.1666666666666</ele><time>2026-04-05T10:31:20Z</time></trkpt><trkpt lat="44.776200563179756" lon="9.53067640213022"><ele>618.0</ele><time>2026-04-05T10:31:21Z</time></trkpt><trkpt lat="44.77618362381515" lon="9.53059079587811"><ele>618.0</ele><time>2026-04-05T10:31:22Z</time></trkpt><trkpt lat="44.7761840083598" lon="9.530492876498394"><ele>618.0</ele><time>2026-04-05T10:31:23Z</time></trkpt><trkpt lat="44.776196201013605" lon="9.53033490464513"><ele>618.0</ele><time>2026-04-05T10:31:25Z</time></trkpt><trkpt lat="44.77612856740695" lon="9.530215264034306"><ele>618.0</ele><time>2026-04-05T10:31:29Z</time></trkpt><trkpt lat="44.77604187782958" lon="9.530138299095794"><ele>618.0</ele><time>2026-04-05T10:31:31Z</time></trkpt><trkpt lat="44.77597356325296" lon="9.529996203115202"><ele>618.0</ele><time>2026-04-05T10:31:33Z</time></trkpt><trkpt lat="44.775930510375055" lon="9.52992902690551"><ele>618.0</ele><time>2026-04-05T10:31:34Z</time></trkpt><trkpt lat="44.77588854027181" lon="9.529851262698456"><ele>618.0</ele><time>2026-04-05T10:31:35Z</time></trkpt><trkpt lat="44.77582055574775" lon="9.529773957874761"><ele>618.0</ele><time>2026-04-05T10:31:37Z</time></trkpt><trkpt lat="44.7757644177736" lon="9.529659557064901"><ele>618.0</ele><time>2026-04-05T10:31:39Z</time></trkpt><trkpt lat="44.775787989205796" lon="9.529530952620002"><ele>618.0</ele><time>2026-04-05T10:31:41Z</time></trkpt><trkpt lat="44.77580608987228" lon="9.529429231520687"><ele>618.0</ele><time>2026-04-05T10:31:43Z</time></trkpt><trkpt lat="44.77581043033156" lon="9.529337654546636"><ele>618.0</ele><time>2026-04-05T10:31:45Z</time></trkpt><trkpt lat="44.77573215177697" lon="9.529191624982936"><ele>618.0</ele><time>2026-04-05T10:31:47Z</time></trkpt><trkpt lat="44.775696428967926" lon="9.529106864752682"><ele>618.0</ele><time>2026-04-05T10:31:48Z</time></trkpt><trkpt lat="44.77568374928945" lon="9.52895648310083"><ele>618.0</ele><time>2026-04-05T10:31:50Z</time></trkpt><trkpt lat="44.775693223199575" lon="9.52885438843197"><ele>618.0</ele><time>2026-04-05T10:31:52Z</time></trkpt><trkpt lat="44.77568862023616" lon="9.528734436138443"><ele>617.0</ele><time>2026-04-05T10:32:35Z</time></trkpt><trkpt lat="44.77566660582672" lon="9.52857524745576"><ele>616.0</ele><time>2026-04-05T10:32:37Z</time></trkpt><trkpt lat="44.77568503057415" lon="9.528419810508716"><ele>615.0</ele><time>2026-04-05T10:32:39Z</time></trkpt><trkpt lat="44.77571349401244" lon="9.52827009456612"><ele>614.0</ele><time>2026-04-05T10:32:41Z</time></trkpt><trkpt lat="44.775734124412935" lon="9.528150644799942"><ele>613.0</ele><time>2026-04-05T10:32:43Z</time></trkpt><trkpt lat="44.77576069302768" lon="9.528047819155256"><ele>613.0</ele><time>2026-04-05T10:32:45Z</time></trkpt><trkpt lat="44.77579259098404" lon="9.527926059756355"><ele>613.0</ele><time>2026-04-05T10:32:48Z</time></trkpt><trkpt lat="44.775811130172855" lon="9.527823197728337"><ele>613.0</ele><time>2026-04-05T10:32:50Z</time></trkpt><trkpt lat="44.77580797520402" lon="9.527730525672755"><ele>613.0</ele><time>2026-04-05T10:32:51Z</time></trkpt><trkpt lat="44.77581627005298" lon="9.527630689240683"><ele>613.0</ele><time>2026-04-05T10:32:52Z</time></trkpt><trkpt lat="44.7758448544779" lon="9.52751601816815"><ele>613.0</ele><time>2026-04-05T10:32:54Z</time></trkpt><trkpt lat="44.77587347977099" lon="9.527391378532046"><ele>613.3333333333334</ele><time>2026-04-05T10:32:56Z</time></trkpt><trkpt lat="44.77587412337351" lon="9.527296670637151"><ele>613.6666666666667</ele><time>2026-04-05T10:32:59Z</time></trkpt><trkpt lat="44.77587474940827" lon="9.527162172498722"><ele>614.0</ele><time>2026-04-05T10:33:00Z</time></trkpt><trkpt lat="44.77586267759057" lon="9.527023607694376"><ele>614.3333333333334</ele><time>2026-04-05T10:33:02Z</time></trkpt><trkpt lat="44.77592608919773" lon="9.526931712025355"><ele>614.6666666666666</ele><time>2026-04-05T10:33:50Z</time></trkpt><trkpt lat="44.77600572430847" lon="9.526906896999083"><ele>615.0</ele><time>2026-04-05T10:33:52Z</time></trkpt><trkpt lat="44.77606018077493" lon="9.527051562247955"><ele>613.1666666666666</ele><time>2026-04-05T10:33:54Z</time></trkpt><trkpt lat="44.776088073398135" lon="9.527152825745112"><ele>611.3333333333334</ele><time>2026-04-05T10:33:55Z</time></trkpt><trkpt lat="44.77611976877794" lon="9.527237969297609"><ele>609.5</ele><time>2026-04-05T10:33:56Z</time></trkpt><trkpt lat="44.7761573721366" lon="9.527321125608703"><ele>607.6666666666667</ele><time>2026-04-05T10:33:57Z</time></trkpt><trkpt lat="44.77619636851312" lon="9.52739956116317"><ele>605.8333333333334</ele><time>2026-04-05T10:33:58Z</time></trkpt><trkpt lat="44.77623323388613" lon="9.527516590003005"><ele>604.0</ele><time>2026-04-05T10:34:00Z</time></trkpt><trkpt lat="44.77629569847056" lon="9.527668535123924"><ele>604.0</ele><time>2026-04-05T10:34:02Z</time></trkpt><trkpt lat="44.77633306792505" lon="9.52775244045251"><ele>604.0</ele><time>2026-04-05T10:34:03Z</time></trkpt><trkpt lat="44.77637957339158" lon="9.527845110341383"><ele>604.0</ele><time>2026-04-05T10:34:04Z</time></trkpt><trkpt lat="44.776433112709206" lon="9.527931586870187"><ele>604.0</ele><time>2026-04-05T10:34:05Z</time></trkpt><trkpt lat="44.77649159606558" lon="9.528008512682424"><ele>604.0</ele><time>2026-04-05T10:34:06Z</time></trkpt><trkpt lat="44.7765700740752" lon="9.528097410176837"><ele>604.0</ele><time>2026-04-05T10:34:07Z</time></trkpt><trkpt lat="44.776645323617274" lon="9.528188996604635"><ele>605.0</ele><time>2026-04-05T10:34:08Z</time></trkpt><trkpt lat="44.776707731062324" lon="9.528275453579397"><ele>606.0</ele><time>2026-04-05T10:34:09Z</time></trkpt><trkpt lat="44.776753532422426" lon="9.52834914142776"><ele>607.0</ele><time>2026-04-05T10:34:10Z</time></trkpt><trkpt lat="44.776842376385716" lon="9.52845495292908"><ele>608.0</ele><time>2026-04-05T10:34:12Z</time></trkpt><trkpt lat="44.77690653679293" lon="9.528474706927433"><ele>609.0</ele><time>2026-04-05T10:34:13Z</time></trkpt><trkpt lat="44.77700579140272" lon="9.5285682506183"><ele>608.6</ele><time>2026-04-05T10:34:15Z</time></trkpt><trkpt lat="44.7770487274908" lon="9.528643951132928"><ele>608.2</ele><time>2026-04-05T10:34:16Z</time></trkpt><trkpt lat="44.77710200766268" lon="9.528720652668277"><ele>607.8000000000001</ele><time>2026-04-05T10:34:17Z</time></trkpt><trkpt lat="44.77715955489949" lon="9.528799814584298"><ele>607.4</ele><time>2026-04-05T10:34:18Z</time></trkpt><trkpt lat="44.77729654577977" lon="9.528878003595908"><ele>607.0</ele><time>2026-04-05T10:34:20Z</time></trkpt><trkpt lat="44.77738568896782" lon="9.528885053596431"><ele>607.0</ele><time>2026-04-05T10:34:21Z</time></trkpt><trkpt lat="44.777473800069586" lon="9.528981022696215"><ele>607.0</ele><time>2026-04-05T10:34:23Z</time></trkpt><trkpt lat="44.777508369425405" lon="9.529111798366262"><ele>607.0</ele><time>2026-04-05T10:34:25Z</time></trkpt><trkpt lat="44.777568135877814" lon="9.52922573477868"><ele>607.0</ele><time>2026-04-05T10:34:27Z</time></trkpt><trkpt lat="44.77761571636241" lon="9.529295117823645"><ele>607.0</ele><time>2026-04-05T10:34:29Z</time></trkpt><trkpt lat="44.77762947011618" lon="9.52943501407191"><ele>607.0</ele><time>2026-04-05T10:34:32Z</time></trkpt><trkpt lat="44.77762466104751" lon="9.52953807139802"><ele>607.0</ele><time>2026-04-05T10:34:34Z</time></trkpt><trkpt lat="44.77763951349877" lon="9.529668197799674"><ele>607.0</ele><time>2026-04-05T10:34:36Z</time></trkpt><trkpt lat="44.777671178387635" lon="9.529788563268898"><ele>607.0</ele><time>2026-04-05T10:34:37Z</time></trkpt><trkpt lat="44.77768552486012" lon="9.529884730958164"><ele>607.0</ele><time>2026-04-05T10:34:38Z</time></trkpt><trkpt lat="44.777660626506865" lon="9.530027640063201"><ele>607.0</ele><time>2026-04-05T10:34:40Z</time></trkpt><trkpt lat="44.77761196519044" lon="9.530128945696967"><ele>606.3333333333334</ele><time>2026-04-05T10:34:42Z</time></trkpt><trkpt lat="44.77759747099238" lon="9.530233222607954"><ele>605.6666666666667</ele><time>2026-04-05T10:34:45Z</time></trkpt><trkpt lat="44.77759258439039" lon="9.530381141679037"><ele>605.0</ele><time>2026-04-05T10:34:47Z</time></trkpt><trkpt lat="44.777586112335634" lon="9.53048259471108"><ele>604.3333333333334</ele><time>2026-04-05T10:34:48Z</time></trkpt><trkpt lat="44.77759220891371" lon="9.530604551859982"><ele>603.6666666666666</ele><time>2026-04-05T10:34:49Z</time></trkpt><trkpt lat="44.77757949653643" lon="9.530693610316517"><ele>603.0</ele><time>2026-04-05T10:34:52Z</time></trkpt><trkpt lat="44.777494654112594" lon="9.530747324410695"><ele>603.0</ele><time>2026-04-05T10:34:56Z</time></trkpt><trkpt lat="44.77740918556774" lon="9.530685511749516"><ele>603.0</ele><time>2026-04-05T10:34:58Z</time></trkpt><trkpt lat="44.77739830980927" lon="9.530541023907547"><ele>603.0</ele><time>2026-04-05T10:35:00Z</time></trkpt><trkpt lat="44.777408665927716" lon="9.530417691649713"><ele>603.0</ele><time>2026-04-05T10:35:02Z</time></trkpt><trkpt lat="44.777370829670375" lon="9.530332755168224"><ele>603.0</ele><time>2026-04-05T10:35:04Z</time></trkpt><trkpt lat="44.77731871115408" lon="9.530196019643135"><ele>603.0</ele><time>2026-04-05T10:35:06Z</time></trkpt><trkpt lat="44.7773178055083" lon="9.53009816639159"><ele>603.0</ele><time>2026-04-05T10:35:07Z</time></trkpt><trkpt lat="44.777396636780765" lon="9.529989187111022"><ele>603.0</ele><time>2026-04-05T10:35:09Z</time></trkpt><trkpt lat="44.77745055362081" lon="9.52989573780245"><ele>603.0</ele><time>2026-04-05T10:35:11Z</time></trkpt><trkpt lat="44.77746867838238" lon="9.529787851141988"><ele>603.0</ele><time>2026-04-05T10:35:12Z</time></trkpt><trkpt lat="44.77751281607043" lon="9.529692492650657"><ele>603.0</ele><time>2026-04-05T10:35:13Z</time></trkpt><trkpt lat="44.77758461522977" lon="9.529628691189169"><ele>603.6666666666666</ele><time>2026-04-05T10:35:14Z</time></trkpt><trkpt lat="44.77763760747101" lon="9.529533980410942"><ele>604.3333333333334</ele><time>2026-04-05T10:35:16Z</time></trkpt><trkpt lat="44.777634939050365" lon="9.529431447845377"><ele>605.0</ele><time>2026-04-05T10:35:18Z</time></trkpt><trkpt lat="44.77761058859751" lon="9.52932169695492"><ele>605.6666666666667</ele><time>2026-04-05T10:35:21Z</time></trkpt><trkpt lat="44.77757840976766" lon="9.529225077564492"><ele>606.3333333333334</ele><time>2026-04-05T10:35:25Z</time></trkpt><trkpt lat="44.777539787780526" lon="9.529110313150694"><ele>607.0</ele><time>2026-04-05T10:35:28Z</time></trkpt><trkpt lat="44.77750112021607" lon="9.52901135618094"><ele>607.0</ele><time>2026-04-05T10:35:30Z</time></trkpt><trkpt lat="44.777421061255815" lon="9.528930848981403"><ele>607.0</ele><time>2026-04-05T10:35:32Z</time></trkpt><trkpt lat="44.77730996767544" lon="9.528902340785026"><ele>607.0</ele><time>2026-04-05T10:35:34Z</time></trkpt><trkpt lat="44.77724208804992" lon="9.528887163944592"><ele>607.0</ele><time>2026-04-05T10:35:35Z</time></trkpt><trkpt lat="44.77714075022583" lon="9.528801156049823"><ele>607.0</ele><time>2026-04-05T10:35:37Z</time></trkpt><trkpt lat="44.777061796140046" lon="9.528697397637067"><ele>607.4</ele><time>2026-04-05T10:35:39Z</time></trkpt><trkpt lat="44.777026605617046" lon="9.528621900937155"><ele>607.8000000000001</ele><time>2026-04-05T10:35:41Z</time></trkpt><trkpt lat="44.77688784906834" lon="9.528430247657091"><ele>608.2</ele><time>2026-04-05T10:35:43Z</time></trkpt><trkpt lat="44.7767775417534" lon="9.528356101976659"><ele>608.6</ele><time>2026-04-05T10:35:45Z</time></trkpt><trkpt lat="44.776725658134346" lon="9.528303394074912"><ele>609.0</ele><time>2026-04-05T10:35:46Z</time></trkpt><trkpt lat="44.77667225236647" lon="9.528223765743245"><ele>609.0</ele><time>2026-04-05T10:35:47Z</time></trkpt><trkpt lat="44.77660828409441" lon="9.528120144275952"><ele>609.0</ele><time>2026-04-05T10:35:48Z</time></trkpt><trkpt lat="44.77653379333779" lon="9.528014983902908"><ele>609.0</ele><time>2026-04-05T10:35:49Z</time></trkpt><trkpt lat="44.776454815108856" lon="9.52791249887376"><ele>609.0</ele><time>2026-04-05T10:35:50Z</time></trkpt><trkpt lat="44.776375606152385" lon="9.527810438888423"><ele>609.0</ele><time>2026-04-05T10:35:51Z</time></trkpt><trkpt lat="44.77630595084574" lon="9.527706695443984"><ele>608.1666666666666</ele><time>2026-04-05T10:35:52Z</time></trkpt><trkpt lat="44.776243492087396" lon="9.52758980842421"><ele>607.3333333333334</ele><time>2026-04-05T10:35:53Z</time></trkpt><trkpt lat="44.77618718776512" lon="9.52747980952104"><ele>606.5</ele><time>2026-04-05T10:35:54Z</time></trkpt><trkpt lat="44.77615083109854" lon="9.52738718501663"><ele>605.6666666666667</ele><time>2026-04-05T10:35:55Z</time></trkpt><trkpt lat="44.7761384768335" lon="9.52729824792983"><ele>604.8333333333334</ele><time>2026-04-05T10:35:57Z</time></trkpt><trkpt lat="44.77611310826453" lon="9.527204229806314"><ele>604.0</ele><time>2026-04-05T10:35:59Z</time></trkpt><trkpt lat="44.77608312693333" lon="9.527080228118496"><ele>605.0</ele><time>2026-04-05T10:36:03Z</time></trkpt><trkpt lat="44.7760527303276" lon="9.526976153857852"><ele>606.0</ele><time>2026-04-05T10:36:05Z</time></trkpt><trkpt lat="44.77599468950976" lon="9.526935876301176"><ele>607.0</ele><time>2026-04-05T10:36:08Z</time></trkpt><trkpt lat="44.775912928631115" lon="9.526958195040978"><ele>608.0</ele><time>2026-04-05T10:36:11Z</time></trkpt><trkpt lat="44.77584333023582" lon="9.526919128529054"><ele>609.0</ele><time>2026-04-05T10:36:14Z</time></trkpt><trkpt lat="44.77572773715427" lon="9.52676546784182"><ele>609.0</ele><time>2026-04-05T10:36:16Z</time></trkpt><trkpt lat="44.77567075780842" lon="9.526669325247854"><ele>609.0</ele><time>2026-04-05T10:36:17Z</time></trkpt><trkpt lat="44.77561112123095" lon="9.52659608672945"><ele>609.0</ele><time>2026-04-05T10:36:18Z</time></trkpt><trkpt lat="44.77554979906034" lon="9.526521337322693"><ele>609.0</ele><time>2026-04-05T10:36:19Z</time></trkpt><trkpt lat="44.77547812490993" lon="9.526429853823613"><ele>609.0</ele><time>2026-04-05T10:36:20Z</time></trkpt><trkpt lat="44.77540457889929" lon="9.526346193999853"><ele>609.0</ele><time>2026-04-05T10:36:21Z</time></trkpt><trkpt lat="44.77532442932542" lon="9.526282601473756"><ele>609.0</ele><time>2026-04-05T10:36:22Z</time></trkpt><trkpt lat="44.77523597719217" lon="9.526232256085208"><ele>609.0</ele><time>2026-04-05T10:36:23Z</time></trkpt><trkpt lat="44.77515700286494" lon="9.526179053179568"><ele>609.0</ele><time>2026-04-05T10:36:24Z</time></trkpt><trkpt lat="44.77507093148862" lon="9.526114699559253"><ele>609.0</ele><time>2026-04-05T10:36:25Z</time></trkpt><trkpt lat="44.774988727199975" lon="9.52605519520929"><ele>609.0</ele><time>2026-04-05T10:36:26Z</time></trkpt><trkpt lat="44.77491326322141" lon="9.525990513100254"><ele>605.8333333333334</ele><time>2026-04-05T10:36:27Z</time></trkpt><trkpt lat="44.77484518279912" lon="9.525913195420292"><ele>602.6666666666666</ele><time>2026-04-05T10:36:28Z</time></trkpt><trkpt lat="44.77477617112403" lon="9.525846109376953"><ele>599.5</ele><time>2026-04-05T10:36:29Z</time></trkpt><trkpt lat="44.774701359453815" lon="9.525777431566533"><ele>596.3333333333333</ele><time>2026-04-05T10:36:30Z</time></trkpt><trkpt lat="44.77463690401297" lon="9.525707791830515"><ele>593.1666666666666</ele><time>2026-04-05T10:36:31Z</time></trkpt><trkpt lat="44.77459429239782" lon="9.525642482106534"><ele>590.0</ele><time>2026-04-05T10:36:32Z</time></trkpt><trkpt lat="44.77461595134473" lon="9.525492215422668"><ele>590.0</ele><time>2026-04-05T10:36:34Z</time></trkpt><trkpt lat="44.774690255435075" lon="9.525430917045268"><ele>590.0</ele><time>2026-04-05T10:36:35Z</time></trkpt><trkpt lat="44.77471288216082" lon="9.525345594822104"><ele>590.0</ele><time>2026-04-05T10:36:36Z</time></trkpt><trkpt lat="44.774731958907736" lon="9.525212058269622"><ele>590.0</ele><time>2026-04-05T10:36:38Z</time></trkpt><trkpt lat="44.77460907467695" lon="9.525215986546298"><ele>590.0</ele><time>2026-04-05T10:36:40Z</time></trkpt><trkpt lat="44.774532785349066" lon="9.525229047824938"><ele>590.0</ele><time>2026-04-05T10:36:41Z</time></trkpt><trkpt lat="44.77447680635045" lon="9.525182365264577"><ele>587.3333333333333</ele><time>2026-04-05T10:36:42Z</time></trkpt><trkpt lat="44.774416238330154" lon="9.525100613214788"><ele>584.6666666666666</ele><time>2026-04-05T10:36:43Z</time></trkpt><trkpt lat="44.77436350814781" lon="9.525030035426623"><ele>582.0</ele><time>2026-04-05T10:36:44Z</time></trkpt><trkpt lat="44.77429979230517" lon="9.524972743861765"><ele>579.3333333333334</ele><time>2026-04-05T10:36:45Z</time></trkpt><trkpt lat="44.77422991637158" lon="9.524937147976539"><ele>576.6666666666667</ele><time>2026-04-05T10:36:46Z</time></trkpt><trkpt lat="44.77415759554948" lon="9.5249056504035"><ele>574.0</ele><time>2026-04-05T10:36:47Z</time></trkpt><trkpt lat="44.774083917911355" lon="9.524893509031514"><ele>573.8333333333334</ele><time>2026-04-05T10:36:48Z</time></trkpt><trkpt lat="44.77399238307959" lon="9.524899298837344"><ele>573.6666666666667</ele><time>2026-04-05T10:36:49Z</time></trkpt><trkpt lat="44.77389878594763" lon="9.52493101380616"><ele>573.5</ele><time>2026-04-05T10:36:50Z</time></trkpt><trkpt lat="44.77382140184395" lon="9.524966796275084"><ele>573.3333333333334</ele><time>2026-04-05T10:36:51Z</time></trkpt><trkpt lat="44.773762669590944" lon="9.524919058350088"><ele>573.1666666666666</ele><time>2026-04-05T10:36:53Z</time></trkpt><trkpt lat="44.77371727364057" lon="9.524851693262454"><ele>573.0</ele><time>2026-04-05T10:36:54Z</time></trkpt><trkpt lat="44.77366790776336" lon="9.524777524880776"><ele>573.0</ele><time>2026-04-05T10:36:55Z</time></trkpt><trkpt lat="44.773599409373396" lon="9.524706754592309"><ele>573.0</ele><time>2026-04-05T10:36:56Z</time></trkpt><trkpt lat="44.77352605420376" lon="9.524641153272892"><ele>573.0</ele><time>2026-04-05T10:36:57Z</time></trkpt><trkpt lat="44.77347739413236" lon="9.524576402864213"><ele>573.0</ele><time>2026-04-05T10:36:58Z</time></trkpt><trkpt lat="44.77345444982027" lon="9.524482464881093"><ele>573.0</ele><time>2026-04-05T10:36:59Z</time></trkpt><trkpt lat="44.77343600427983" lon="9.52436462098157"><ele>573.0</ele><time>2026-04-05T10:37:00Z</time></trkpt><trkpt lat="44.773401850049126" lon="9.524263554730585"><ele>572.8333333333334</ele><time>2026-04-05T10:37:01Z</time></trkpt><trkpt lat="44.77333929563805" lon="9.52417027152127"><ele>572.6666666666666</ele><time>2026-04-05T10:37:02Z</time></trkpt><trkpt lat="44.773301028584875" lon="9.524069928351174"><ele>572.5</ele><time>2026-04-05T10:37:03Z</time></trkpt><trkpt lat="44.773265100373564" lon="9.523974222131718"><ele>572.3333333333333</ele><time>2026-04-05T10:37:04Z</time></trkpt><trkpt lat="44.77321480715404" lon="9.523897092045289"><ele>572.1666666666666</ele><time>2026-04-05T10:37:05Z</time></trkpt><trkpt lat="44.773153596969046" lon="9.523816499338508"><ele>572.0</ele><time>2026-04-05T10:37:06Z</time></trkpt><trkpt lat="44.77309209568417" lon="9.523698538105833"><ele>571.4</ele><time>2026-04-05T10:37:07Z</time></trkpt><trkpt lat="44.77304244582352" lon="9.523587564281504"><ele>570.8000000000001</ele><time>2026-04-05T10:37:08Z</time></trkpt><trkpt lat="44.772995850940184" lon="9.52352037299691"><ele>570.2</ele><time>2026-04-05T10:37:09Z</time></trkpt><trkpt lat="44.77289506633583" lon="9.523426468591719"><ele>569.6</ele><time>2026-04-05T10:37:11Z</time></trkpt><trkpt lat="44.77283572133882" lon="9.523324366593808"><ele>569.0</ele><time>2026-04-05T10:37:12Z</time></trkpt><trkpt lat="44.772767250823435" lon="9.523193880769806"><ele>569.0</ele><time>2026-04-05T10:37:13Z</time></trkpt><trkpt lat="44.77271021700211" lon="9.523098235089266"><ele>569.0</ele><time>2026-04-05T10:37:14Z</time></trkpt><trkpt lat="44.77265408061428" lon="9.523007227432817"><ele>569.0</ele><time>2026-04-05T10:37:15Z</time></trkpt><trkpt lat="44.77260284909159" lon="9.522926732490605"><ele>569.0</ele><time>2026-04-05T10:37:16Z</time></trkpt><trkpt lat="44.772567123113824" lon="9.522843569119162"><ele>569.0</ele><time>2026-04-05T10:37:17Z</time></trkpt><trkpt lat="44.77255139365429" lon="9.522668274777331"><ele>569.0</ele><time>2026-04-05T10:37:19Z</time></trkpt><trkpt lat="44.77251537928446" lon="9.522472972501253"><ele>570.6</ele><time>2026-04-05T10:37:21Z</time></trkpt><trkpt lat="44.772470736261226" lon="9.52234329971077"><ele>572.2</ele><time>2026-04-05T10:37:22Z</time></trkpt><trkpt lat="44.772417622281374" lon="9.522205947917675"><ele>573.8000000000001</ele><time>2026-04-05T10:37:23Z</time></trkpt><trkpt lat="44.77236898246884" lon="9.5220819365259"><ele>575.4</ele><time>2026-04-05T10:37:24Z</time></trkpt><trkpt lat="44.77233131057875" lon="9.521986085823407"><ele>577.0</ele><time>2026-04-05T10:37:25Z</time></trkpt><trkpt lat="44.77228339355244" lon="9.521906870330787"><ele>577.0</ele><time>2026-04-05T10:37:26Z</time></trkpt><trkpt lat="44.772210908710015" lon="9.521818095102525"><ele>577.0</ele><time>2026-04-05T10:37:27Z</time></trkpt><trkpt lat="44.77214463679675" lon="9.521735987534056"><ele>577.0</ele><time>2026-04-05T10:37:28Z</time></trkpt><trkpt lat="44.7721003454514" lon="9.521642931088829"><ele>577.0</ele><time>2026-04-05T10:37:29Z</time></trkpt><trkpt lat="44.7720752866969" lon="9.521557019881415"><ele>577.0</ele><time>2026-04-05T10:37:30Z</time></trkpt><trkpt lat="44.77204683843636" lon="9.521476842133131"><ele>577.0</ele><time>2026-04-05T10:37:31Z</time></trkpt><trkpt lat="44.771940382822294" lon="9.521389166822166"><ele>577.0</ele><time>2026-04-05T10:37:33Z</time></trkpt><trkpt lat="44.771858422718964" lon="9.521364107185446"><ele>577.0</ele><time>2026-04-05T10:37:34Z</time></trkpt><trkpt lat="44.77176073929232" lon="9.521332497120445"><ele>577.0</ele><time>2026-04-05T10:37:35Z</time></trkpt><trkpt lat="44.771674366817656" lon="9.52128718948541"><ele>577.0</ele><time>2026-04-05T10:37:36Z</time></trkpt><trkpt lat="44.77159909774534" lon="9.521243116456775"><ele>577.0</ele><time>2026-04-05T10:37:37Z</time></trkpt><trkpt lat="44.77153885468874" lon="9.521116877509046"><ele>577.6</ele><time>2026-04-05T10:37:39Z</time></trkpt><trkpt lat="44.77160040305997" lon="9.521089376045534"><ele>578.2</ele><time>2026-04-05T10:37:47Z</time></trkpt><trkpt lat="44.77174385286451" lon="9.521035393187713"><ele>578.8</ele><time>2026-04-05T10:37:49Z</time></trkpt><trkpt lat="44.7717961339534" lon="9.521133255876737"><ele>579.4</ele><time>2026-04-05T10:37:50Z</time></trkpt><trkpt lat="44.771876379911795" lon="9.520958598761586"><ele>580.0</ele><time>2026-04-05T10:37:51Z</time></trkpt><trkpt lat="44.77196561685575" lon="9.520921312241256"><ele>578.4</ele><time>2026-04-05T10:37:52Z</time></trkpt><trkpt lat="44.77205221563499" lon="9.520911006549454"><ele>576.8</ele><time>2026-04-05T10:37:53Z</time></trkpt><trkpt lat="44.7721317780035" lon="9.52090323712445"><ele>575.2</ele><time>2026-04-05T10:37:54Z</time></trkpt><trkpt lat="44.7722217999142" lon="9.520942994873854"><ele>573.6</ele><time>2026-04-05T10:37:55Z</time></trkpt><trkpt lat="44.772294234645095" lon="9.521050549736378"><ele>572.0</ele><time>2026-04-05T10:37:56Z</time></trkpt><trkpt lat="44.77238035275664" lon="9.521098988907207"><ele>572.0</ele><time>2026-04-05T10:37:57Z</time></trkpt><trkpt lat="44.77247906086126" lon="9.521101943220495"><ele>572.0</ele><time>2026-04-05T10:37:58Z</time></trkpt><trkpt lat="44.77256532694618" lon="9.521142771518054"><ele>572.0</ele><time>2026-04-05T10:37:59Z</time></trkpt><trkpt lat="44.772646990150534" lon="9.521180505453431"><ele>572.0</ele><time>2026-04-05T10:38:00Z</time></trkpt><trkpt lat="44.772719878918586" lon="9.521215761853998"><ele>572.0</ele><time>2026-04-05T10:38:01Z</time></trkpt><trkpt lat="44.77284448476356" lon="9.52126864865911"><ele>569.0</ele><time>2026-04-05T10:38:03Z</time></trkpt><trkpt lat="44.772897869608926" lon="9.521342060251142"><ele>566.0</ele><time>2026-04-05T10:38:04Z</time></trkpt><trkpt lat="44.77294338825644" lon="9.521434425198962"><ele>563.0</ele><time>2026-04-05T10:38:05Z</time></trkpt><trkpt lat="44.772971918723734" lon="9.521530172821976"><ele>560.0</ele><time>2026-04-05T10:38:06Z</time></trkpt><trkpt lat="44.77300080712614" lon="9.521624557251679"><ele>557.0</ele><time>2026-04-05T10:38:07Z</time></trkpt><trkpt lat="44.77303348146038" lon="9.52172140613366"><ele>554.0</ele><time>2026-04-05T10:38:08Z</time></trkpt><trkpt lat="44.77307260807907" lon="9.521825281703135"><ele>554.0</ele><time>2026-04-05T10:38:09Z</time></trkpt><trkpt lat="44.7731198261049" lon="9.52191760279737"><ele>554.0</ele><time>2026-04-05T10:38:10Z</time></trkpt><trkpt lat="44.77318925895414" lon="9.521958307785896"><ele>554.0</ele><time>2026-04-05T10:38:11Z</time></trkpt><trkpt lat="44.77328149863113" lon="9.521990702606"><ele>554.0</ele><time>2026-04-05T10:38:12Z</time></trkpt><trkpt lat="44.77337101660466" lon="9.522008051405539"><ele>554.0</ele><time>2026-04-05T10:38:13Z</time></trkpt><trkpt lat="44.773455655331446" lon="9.522004997170345"><ele>554.0</ele><time>2026-04-05T10:38:14Z</time></trkpt><trkpt lat="44.773538012960735" lon="9.521970138454387"><ele>552.1428571428571</ele><time>2026-04-05T10:38:15Z</time></trkpt><trkpt lat="44.773607505905375" lon="9.52192652938766"><ele>550.2857142857142</ele><time>2026-04-05T10:38:16Z</time></trkpt><trkpt lat="44.77367966510432" lon="9.521898924141885"><ele>548.4285714285714</ele><time>2026-04-05T10:38:17Z</time></trkpt><trkpt lat="44.77375384207991" lon="9.521881823959491"><ele>546.5714285714286</ele><time>2026-04-05T10:38:18Z</time></trkpt><trkpt lat="44.77382927264883" lon="9.521873394413117"><ele>544.7142857142858</ele><time>2026-04-05T10:38:19Z</time></trkpt><trkpt lat="44.77390153205542" lon="9.521876315094364"><ele>542.8571428571429</ele><time>2026-04-05T10:38:20Z</time></trkpt><trkpt lat="44.77396749486915" lon="9.521896271242845"><ele>541.0</ele><time>2026-04-05T10:38:21Z</time></trkpt><trkpt lat="44.77403035370281" lon="9.521917605959302"><ele>541.0000000000001</ele><time>2026-04-05T10:38:22Z</time></trkpt><trkpt lat="44.774092513777966" lon="9.521947211319308"><ele>541.0</ele><time>2026-04-05T10:38:23Z</time></trkpt><trkpt lat="44.774147983409335" lon="9.52200330811572"><ele>541.0</ele><time>2026-04-05T10:38:24Z</time></trkpt><trkpt lat="44.7741953751726" lon="9.522067067432891"><ele>541.0</ele><time>2026-04-05T10:38:25Z</time></trkpt><trkpt lat="44.77425472868158" lon="9.522119257664446"><ele>541.0</ele><time>2026-04-05T10:38:26Z</time></trkpt><trkpt lat="44.774317502718986" lon="9.522159870563828"><ele>541.0000000000001</ele><time>2026-04-05T10:38:27Z</time></trkpt><trkpt lat="44.774380463630656" lon="9.52217642154611"><ele>541.0</ele><time>2026-04-05T10:38:28Z</time></trkpt><trkpt lat="44.7744478715064" lon="9.522185789499543"><ele>540.8571428571429</ele><time>2026-04-05T10:38:29Z</time></trkpt><trkpt lat="44.77451369038114" lon="9.522186898265169"><ele>540.7142857142858</ele><time>2026-04-05T10:38:30Z</time></trkpt><trkpt lat="44.77458770521214" lon="9.5221880792866"><ele>540.5714285714286</ele><time>2026-04-05T10:38:31Z</time></trkpt><trkpt lat="44.774661584473954" lon="9.522185993293888"><ele>540.4285714285714</ele><time>2026-04-05T10:38:32Z</time></trkpt><trkpt lat="44.77472795288475" lon="9.522195074167968"><ele>540.2857142857142</ele><time>2026-04-05T10:38:33Z</time></trkpt><trkpt lat="44.77479047027777" lon="9.52221140278352"><ele>540.1428571428571</ele><time>2026-04-05T10:38:34Z</time></trkpt><trkpt lat="44.7748543443715" lon="9.522227666775175"><ele>540.0</ele><time>2026-04-05T10:38:35Z</time></trkpt><trkpt lat="44.77492809762543" lon="9.522254450770006"><ele>540.0</ele><time>2026-04-05T10:38:36Z</time></trkpt><trkpt lat="44.775010166677355" lon="9.522291593552719"><ele>540.0</ele><time>2026-04-05T10:38:37Z</time></trkpt><trkpt lat="44.77508572252417" lon="9.522329016342166"><ele>540.0</ele><time>2026-04-05T10:38:38Z</time></trkpt><trkpt lat="44.77515592965982" lon="9.522365020636409"><ele>540.0</ele><time>2026-04-05T10:38:39Z</time></trkpt><trkpt lat="44.775224424277994" lon="9.522405529180034"><ele>540.0</ele><time>2026-04-05T10:38:40Z</time></trkpt><trkpt lat="44.77528582373445" lon="9.52246497731655"><ele>540.0</ele><time>2026-04-05T10:38:41Z</time></trkpt><trkpt lat="44.775325923839894" lon="9.522554439827866"><ele>540.0</ele><time>2026-04-05T10:38:42Z</time></trkpt><trkpt lat="44.77531797801822" lon="9.522657908120241"><ele>540.0</ele><time>2026-04-05T10:38:43Z</time></trkpt><trkpt lat="44.77527119065337" lon="9.52273555420217"><ele>540.0</ele><time>2026-04-05T10:38:44Z</time></trkpt><trkpt lat="44.77519048023281" lon="9.522770509917823"><ele>540.0</ele><time>2026-04-05T10:38:45Z</time></trkpt><trkpt lat="44.77512853394116" lon="9.522846255574745"><ele>540.0</ele><time>2026-04-05T10:38:46Z</time></trkpt><trkpt lat="44.77508904258026" lon="9.522915922165085"><ele>540.0</ele><time>2026-04-05T10:38:47Z</time></trkpt><trkpt lat="44.7750863832736" lon="9.52309106156521"><ele>540.3333333333334</ele><time>2026-04-05T10:38:49Z</time></trkpt><trkpt lat="44.775148948286706" lon="9.523176509500374"><ele>540.6666666666666</ele><time>2026-04-05T10:38:50Z</time></trkpt><trkpt lat="44.775234146968174" lon="9.523221875053641"><ele>541.0</ele><time>2026-04-05T10:38:51Z</time></trkpt><trkpt lat="44.7753052373162" lon="9.523261660383065"><ele>541.3333333333333</ele><time>2026-04-05T10:38:52Z</time></trkpt><trkpt lat="44.77536703354945" lon="9.52328938895697"><ele>541.6666666666666</ele><time>2026-04-05T10:38:53Z</time></trkpt><trkpt lat="44.775442597317095" lon="9.523292989346606"><ele>542.0</ele><time>2026-04-05T10:38:54Z</time></trkpt><trkpt lat="44.77552563662781" lon="9.523250661789668"><ele>541.3333333333333</ele><time>2026-04-05T10:38:55Z</time></trkpt><trkpt lat="44.77560733147343" lon="9.523189030005069"><ele>540.6666666666666</ele><time>2026-04-05T10:38:56Z</time></trkpt><trkpt lat="44.7756856796115" lon="9.523127501282026"><ele>540.0</ele><time>2026-04-05T10:38:57Z</time></trkpt><trkpt lat="44.77576229744878" lon="9.523086510943164"><ele>539.3333333333334</ele><time>2026-04-05T10:38:58Z</time></trkpt><trkpt lat="44.775837832798295" lon="9.523076627648065"><ele>538.6666666666667</ele><time>2026-04-05T10:38:59Z</time></trkpt><trkpt lat="44.77592589807515" lon="9.523067067876795"><ele>538.0</ele><time>2026-04-05T10:39:00Z</time></trkpt><trkpt lat="44.776013388410256" lon="9.523051052734974"><ele>537.5</ele><time>2026-04-05T10:39:01Z</time></trkpt><trkpt lat="44.776099865100726" lon="9.52301049158586"><ele>537.0</ele><time>2026-04-05T10:39:02Z</time></trkpt><trkpt lat="44.77618582319618" lon="9.522996082907195"><ele>536.5</ele><time>2026-04-05T10:39:03Z</time></trkpt><trkpt lat="44.77627070544359" lon="9.523004354605964"><ele>536.0</ele><time>2026-04-05T10:39:04Z</time></trkpt><trkpt lat="44.77636053185174" lon="9.523040915630451"><ele>535.5</ele><time>2026-04-05T10:39:05Z</time></trkpt><trkpt lat="44.77644929144963" lon="9.523042569037507"><ele>535.0</ele><time>2026-04-05T10:39:06Z</time></trkpt><trkpt lat="44.7765411315371" lon="9.522989904241008"><ele>532.6</ele><time>2026-04-05T10:39:07Z</time></trkpt><trkpt lat="44.77661381657952" lon="9.5228657959752"><ele>530.2</ele><time>2026-04-05T10:39:08Z</time></trkpt><trkpt lat="44.77667761710197" lon="9.522755926161835"><ele>527.8</ele><time>2026-04-05T10:39:09Z</time></trkpt><trkpt lat="44.77674702124695" lon="9.522679895840467"><ele>525.4</ele><time>2026-04-05T10:39:10Z</time></trkpt><trkpt lat="44.77678527679754" lon="9.522587633497624"><ele>523.0</ele><time>2026-04-05T10:39:11Z</time></trkpt><trkpt lat="44.776842847917365" lon="9.522519536014732"><ele>524.0</ele><time>2026-04-05T10:39:12Z</time></trkpt><trkpt lat="44.7769084173535" lon="9.522455586279973"><ele>525.0</ele><time>2026-04-05T10:39:13Z</time></trkpt><trkpt lat="44.776995829749936" lon="9.522422928446217"><ele>526.0</ele><time>2026-04-05T10:39:14Z</time></trkpt><trkpt lat="44.77706856603253" lon="9.52235794564277"><ele>527.0</ele><time>2026-04-05T10:39:15Z</time></trkpt><trkpt lat="44.77713275188403" lon="9.522272159312955"><ele>528.0</ele><time>2026-04-05T10:39:16Z</time></trkpt><trkpt lat="44.77719038887959" lon="9.52217545870779"><ele>529.0</ele><time>2026-04-05T10:39:17Z</time></trkpt><trkpt lat="44.777240662448804" lon="9.522063527560887"><ele>527.0</ele><time>2026-04-05T10:39:18Z</time></trkpt><trkpt lat="44.7772453031447" lon="9.52193195672058"><ele>525.0</ele><time>2026-04-05T10:39:19Z</time></trkpt><trkpt lat="44.77724912080462" lon="9.521817374138406"><ele>523.0</ele><time>2026-04-05T10:39:20Z</time></trkpt><trkpt lat="44.777257117233965" lon="9.521703412213954"><ele>521.0</ele><time>2026-04-05T10:39:21Z</time></trkpt><trkpt lat="44.77728217560239" lon="9.521609742965145"><ele>519.0</ele><time>2026-04-05T10:39:22Z</time></trkpt><trkpt lat="44.77732411263037" lon="9.521533298528745"><ele>517.0</ele><time>2026-04-05T10:39:23Z</time></trkpt><trkpt lat="44.777384669561286" lon="9.52147770884599"><ele>517.0</ele><time>2026-04-05T10:39:24Z</time></trkpt><trkpt lat="44.777460650827905" lon="9.521453560403247"><ele>517.0</ele><time>2026-04-05T10:39:25Z</time></trkpt><trkpt lat="44.77754558900476" lon="9.521456766229372"><ele>517.0</ele><time>2026-04-05T10:39:26Z</time></trkpt><trkpt lat="44.777620848371384" lon="9.521470131846694"><ele>517.0</ele><time>2026-04-05T10:39:27Z</time></trkpt><trkpt lat="44.77767941634818" lon="9.521524203469252"><ele>517.0</ele><time>2026-04-05T10:39:28Z</time></trkpt><trkpt lat="44.777740081331665" lon="9.521601374652079"><ele>517.0</ele><time>2026-04-05T10:39:29Z</time></trkpt><trkpt lat="44.777796645269866" lon="9.521683914986966"><ele>515.8000000000001</ele><time>2026-04-05T10:39:30Z</time></trkpt><trkpt lat="44.77784475431657" lon="9.521774253683708"><ele>514.6</ele><time>2026-04-05T10:39:31Z</time></trkpt><trkpt lat="44.777905526972916" lon="9.521855260203662"><ele>513.4000000000001</ele><time>2026-04-05T10:39:32Z</time></trkpt><trkpt lat="44.77798482625673" lon="9.52192633729684"><ele>512.2</ele><time>2026-04-05T10:39:33Z</time></trkpt><trkpt lat="44.77808518213651" lon="9.521988150830285"><ele>511.0</ele><time>2026-04-05T10:39:34Z</time></trkpt><trkpt lat="44.778184372344334" lon="9.52205074093403"><ele>511.0</ele><time>2026-04-05T10:39:35Z</time></trkpt><trkpt lat="44.778284484384635" lon="9.52206410157661"><ele>511.0</ele><time>2026-04-05T10:39:36Z</time></trkpt><trkpt lat="44.7783835059424" lon="9.522014069374052"><ele>511.0</ele><time>2026-04-05T10:39:37Z</time></trkpt><trkpt lat="44.77847278142139" lon="9.521997435709592"><ele>511.0</ele><time>2026-04-05T10:39:38Z</time></trkpt><trkpt lat="44.778558684124036" lon="9.521954379316371"><ele>511.0</ele><time>2026-04-05T10:39:39Z</time></trkpt><trkpt lat="44.77863705739081" lon="9.521875437321604"><ele>510.83333333333337</ele><time>2026-04-05T10:39:40Z</time></trkpt><trkpt lat="44.77870671323778" lon="9.521804350406022"><ele>510.6666666666667</ele><time>2026-04-05T10:39:41Z</time></trkpt><trkpt lat="44.77877815948638" lon="9.521749309461448"><ele>510.5</ele><time>2026-04-05T10:39:42Z</time></trkpt><trkpt lat="44.77885085286816" lon="9.521703581621344"><ele>510.33333333333337</ele><time>2026-04-05T10:39:43Z</time></trkpt><trkpt lat="44.778934742985" lon="9.521689979404872"><ele>510.1666666666667</ele><time>2026-04-05T10:39:44Z</time></trkpt><trkpt lat="44.77902598743804" lon="9.521707694579508"><ele>510.0</ele><time>2026-04-05T10:39:45Z</time></trkpt><trkpt lat="44.77913055349961" lon="9.52174490451558"><ele>510.0</ele><time>2026-04-05T10:39:46Z</time></trkpt><trkpt lat="44.77924223342196" lon="9.521776301786891"><ele>510.0</ele><time>2026-04-05T10:39:47Z</time></trkpt><trkpt lat="44.77934278335818" lon="9.521779378321188"><ele>510.0</ele><time>2026-04-05T10:39:48Z</time></trkpt><trkpt lat="44.779430665946" lon="9.521736864526908"><ele>510.0</ele><time>2026-04-05T10:39:49Z</time></trkpt><trkpt lat="44.7795072041326" lon="9.521673792237543"><ele>510.0</ele><time>2026-04-05T10:39:50Z</time></trkpt><trkpt lat="44.779578887660634" lon="9.521645126287305"><ele>509.6666666666667</ele><time>2026-04-05T10:39:51Z</time></trkpt><trkpt lat="44.779644418471094" lon="9.521672772042633"><ele>509.33333333333337</ele><time>2026-04-05T10:39:52Z</time></trkpt><trkpt lat="44.77968572202987" lon="9.521748535452591"><ele>509.0</ele><time>2026-04-05T10:39:53Z</time></trkpt><trkpt lat="44.77970004835428" lon="9.521872448754388"><ele>508.6666666666667</ele><time>2026-04-05T10:39:54Z</time></trkpt><trkpt lat="44.779696211195976" lon="9.522024612161804"><ele>508.33333333333337</ele><time>2026-04-05T10:39:55Z</time></trkpt><trkpt lat="44.779702556807244" lon="9.522161013442721"><ele>508.0</ele><time>2026-04-05T10:39:56Z</time></trkpt><trkpt lat="44.779738823892" lon="9.522258873409973"><ele>508.0</ele><time>2026-04-05T10:39:57Z</time></trkpt><trkpt lat="44.779805774944606" lon="9.522324513761287"><ele>507.99999999999994</ele><time>2026-04-05T10:39:58Z</time></trkpt><trkpt lat="44.77990244949021" lon="9.522357043306975"><ele>507.99999999999994</ele><time>2026-04-05T10:39:59Z</time></trkpt><trkpt lat="44.78000249442974" lon="9.522380506640562"><ele>508.0</ele><time>2026-04-05T10:40:00Z</time></trkpt><trkpt lat="44.780088906703924" lon="9.522410921088676"><ele>508.0</ele><time>2026-04-05T10:40:01Z</time></trkpt><trkpt lat="44.780176398080926" lon="9.52244233343062"><ele>506.83333333333337</ele><time>2026-04-05T10:40:02Z</time></trkpt><trkpt lat="44.78026263061931" lon="9.522456126761195"><ele>505.6666666666667</ele><time>2026-04-05T10:40:03Z</time></trkpt><trkpt lat="44.780353947974426" lon="9.522455185208603"><ele>504.5</ele><time>2026-04-05T10:40:04Z</time></trkpt><trkpt lat="44.78043243890215" lon="9.522399448515822"><ele>503.33333333333337</ele><time>2026-04-05T10:40:05Z</time></trkpt><trkpt lat="44.780488798397016" lon="9.52230072401593"><ele>502.1666666666667</ele><time>2026-04-05T10:40:06Z</time></trkpt><trkpt lat="44.780547196000036" lon="9.522226053566762"><ele>501.0</ele><time>2026-04-05T10:40:07Z</time></trkpt><trkpt lat="44.78060714506592" lon="9.52216023091965"><ele>501.0</ele><time>2026-04-05T10:40:08Z</time></trkpt><trkpt lat="44.78067672442859" lon="9.52212566085464"><ele>501.0</ele><time>2026-04-05T10:40:09Z</time></trkpt><trkpt lat="44.78074341003433" lon="9.52209338298795"><ele>501.0</ele><time>2026-04-05T10:40:10Z</time></trkpt><trkpt lat="44.78081246217555" lon="9.522102660865208"><ele>501.0</ele><time>2026-04-05T10:40:11Z</time></trkpt><trkpt lat="44.78087673289411" lon="9.522166556938679"><ele>501.0</ele><time>2026-04-05T10:40:12Z</time></trkpt><trkpt lat="44.78095512829523" lon="9.522218588529439"><ele>501.0</ele><time>2026-04-05T10:40:13Z</time></trkpt><trkpt lat="44.781025721491304" lon="9.522252267511385"><ele>499.4</ele><time>2026-04-05T10:40:14Z</time></trkpt><trkpt lat="44.78110612261818" lon="9.522249872001517"><ele>497.8</ele><time>2026-04-05T10:40:15Z</time></trkpt><trkpt lat="44.781176658334125" lon="9.522166390469472"><ele>496.19999999999993</ele><time>2026-04-05T10:40:16Z</time></trkpt><trkpt lat="44.7812514200976" lon="9.522110764264331"><ele>494.59999999999997</ele><time>2026-04-05T10:40:17Z</time></trkpt><trkpt lat="44.78131982176881" lon="9.521994670342048"><ele>493.0</ele><time>2026-04-05T10:40:18Z</time></trkpt><trkpt lat="44.781385970064115" lon="9.52190940470091"><ele>491.6666666666667</ele><time>2026-04-05T10:40:19Z</time></trkpt><trkpt lat="44.78144800273374" lon="9.521839487523696"><ele>490.33333333333337</ele><time>2026-04-05T10:40:20Z</time></trkpt><trkpt lat="44.78149991465682" lon="9.521778822140002"><ele>489.0</ele><time>2026-04-05T10:40:21Z</time></trkpt><trkpt lat="44.78155842145675" lon="9.521742649043661"><ele>487.66666666666663</ele><time>2026-04-05T10:40:22Z</time></trkpt><trkpt lat="44.781635601714285" lon="9.521741000956332"><ele>486.3333333333333</ele><time>2026-04-05T10:40:23Z</time></trkpt><trkpt lat="44.78171465849812" lon="9.521696169400135"><ele>485.0</ele><time>2026-04-05T10:40:24Z</time></trkpt><trkpt lat="44.781792822503334" lon="9.52166344314328"><ele>483.49999999999994</ele><time>2026-04-05T10:40:25Z</time></trkpt><trkpt lat="44.78186843428803" lon="9.521601082905807"><ele>482.0</ele><time>2026-04-05T10:40:26Z</time></trkpt><trkpt lat="44.781942570638826" lon="9.521529241839241"><ele>480.5</ele><time>2026-04-05T10:40:27Z</time></trkpt><trkpt lat="44.78200318837757" lon="9.521446453046185"><ele>479.0</ele><time>2026-04-05T10:40:28Z</time></trkpt><trkpt lat="44.782056265034136" lon="9.52136773923267"><ele>477.49999999999994</ele><time>2026-04-05T10:40:29Z</time></trkpt><trkpt lat="44.78211222584867" lon="9.521290850212985"><ele>476.0</ele><time>2026-04-05T10:40:30Z</time></trkpt><trkpt lat="44.78217350918429" lon="9.521218069850056"><ele>475.99999999999994</ele><time>2026-04-05T10:40:31Z</time></trkpt><trkpt lat="44.78222796656223" lon="9.521138639923837"><ele>476.0</ele><time>2026-04-05T10:40:32Z</time></trkpt><trkpt lat="44.782301778691426" lon="9.521103149884915"><ele>476.0</ele><time>2026-04-05T10:40:33Z</time></trkpt><trkpt lat="44.78237091503628" lon="9.521093840979253"><ele>476.0</ele><time>2026-04-05T10:40:34Z</time></trkpt><trkpt lat="44.78244640640586" lon="9.521126389803817"><ele>475.99999999999994</ele><time>2026-04-05T10:40:35Z</time></trkpt><trkpt lat="44.78250530763307" lon="9.521207666699473"><ele>476.0</ele><time>2026-04-05T10:40:36Z</time></trkpt><trkpt lat="44.78258075075455" lon="9.521272779556329"><ele>475.99999999999994</ele><time>2026-04-05T10:40:37Z</time></trkpt><trkpt lat="44.7826470419481" lon="9.521344835265772"><ele>476.0</ele><time>2026-04-05T10:40:38Z</time></trkpt><trkpt lat="44.78274562105213" lon="9.521340341307253"><ele>476.0</ele><time>2026-04-05T10:40:39Z</time></trkpt><trkpt lat="44.78282847198322" lon="9.521262195225026"><ele>476.0</ele><time>2026-04-05T10:40:40Z</time></trkpt><trkpt lat="44.782898927914445" lon="9.521201129322648"><ele>475.99999999999994</ele><time>2026-04-05T10:40:41Z</time></trkpt><trkpt lat="44.782978314574414" lon="9.521188978272782"><ele>476.0</ele><time>2026-04-05T10:40:42Z</time></trkpt><trkpt lat="44.78305615942653" lon="9.521161828042958"><ele>474.8333333333333</ele><time>2026-04-05T10:40:43Z</time></trkpt><trkpt lat="44.78313267493165" lon="9.521137516627094"><ele>473.66666666666663</ele><time>2026-04-05T10:40:44Z</time></trkpt><trkpt lat="44.783209970810034" lon="9.52111551245322"><ele>472.5</ele><time>2026-04-05T10:40:45Z</time></trkpt><trkpt lat="44.78328776683086" lon="9.5210951372952"><ele>471.33333333333337</ele><time>2026-04-05T10:40:46Z</time></trkpt><trkpt lat="44.78337049723329" lon="9.521074082811149"><ele>470.1666666666667</ele><time>2026-04-05T10:40:47Z</time></trkpt><trkpt lat="44.78345115810413" lon="9.521054936349993"><ele>469.0</ele><time>2026-04-05T10:40:48Z</time></trkpt><trkpt lat="44.783532144096945" lon="9.521029301263171"><ele>466.33333333333337</ele><time>2026-04-05T10:40:49Z</time></trkpt><trkpt lat="44.7836098694516" lon="9.520988493084628"><ele>463.6666666666667</ele><time>2026-04-05T10:40:50Z</time></trkpt><trkpt lat="44.78366127018746" lon="9.520874286956543"><ele>461.0</ele><time>2026-04-05T10:40:51Z</time></trkpt><trkpt lat="44.78370807236843" lon="9.52077867826053"><ele>458.33333333333337</ele><time>2026-04-05T10:40:52Z</time></trkpt><trkpt lat="44.78375959997574" lon="9.520690701359213"><ele>455.6666666666667</ele><time>2026-04-05T10:40:53Z</time></trkpt><trkpt lat="44.78374948549229" lon="9.520573645433696"><ele>453.0</ele><time>2026-04-05T10:40:54Z</time></trkpt><trkpt lat="44.78373724692636" lon="9.520478111314457"><ele>451.8333333333333</ele><time>2026-04-05T10:40:55Z</time></trkpt><trkpt lat="44.78369974138697" lon="9.52038827617686"><ele>450.66666666666663</ele><time>2026-04-05T10:40:56Z</time></trkpt><trkpt lat="44.78364769826285" lon="9.520304178581323"><ele>449.5</ele><time>2026-04-05T10:40:57Z</time></trkpt><trkpt lat="44.78361843015502" lon="9.520191081739782"><ele>448.3333333333333</ele><time>2026-04-05T10:40:58Z</time></trkpt><trkpt lat="44.78357951960888" lon="9.520076246473165"><ele>447.16666666666663</ele><time>2026-04-05T10:40:59Z</time></trkpt><trkpt lat="44.783602403523645" lon="9.51993560285879"><ele>446.0</ele><time>2026-04-05T10:41:00Z</time></trkpt><trkpt lat="44.78358423325647" lon="9.519811489970499"><ele>445.99999999999994</ele><time>2026-04-05T10:41:01Z</time></trkpt><trkpt lat="44.783575727971424" lon="9.519704612085405"><ele>446.0</ele><time>2026-04-05T10:41:02Z</time></trkpt><trkpt lat="44.78355072295516" lon="9.519600688073622"><ele>446.0</ele><time>2026-04-05T10:41:03Z</time></trkpt><trkpt lat="44.783526078181325" lon="9.519496866293919"><ele>446.0</ele><time>2026-04-05T10:41:04Z</time></trkpt><trkpt lat="44.78350762842202" lon="9.519385757909705"><ele>445.99999999999994</ele><time>2026-04-05T10:41:05Z</time></trkpt><trkpt lat="44.78350387967494" lon="9.519268294768466"><ele>446.0</ele><time>2026-04-05T10:41:06Z</time></trkpt><trkpt lat="44.7835309299505" lon="9.519154639205958"><ele>444.3333333333333</ele><time>2026-04-05T10:41:07Z</time></trkpt><trkpt lat="44.783532844847954" lon="9.519041545872424"><ele>442.66666666666663</ele><time>2026-04-05T10:41:08Z</time></trkpt><trkpt lat="44.78357463819305" lon="9.518950142087798"><ele>441.0</ele><time>2026-04-05T10:41:09Z</time></trkpt><trkpt lat="44.78360474018596" lon="9.518852898583564"><ele>439.33333333333337</ele><time>2026-04-05T10:41:10Z</time></trkpt><trkpt lat="44.783638227799095" lon="9.518758273002208"><ele>437.6666666666667</ele><time>2026-04-05T10:41:11Z</time></trkpt><trkpt lat="44.78365549337598" lon="9.518660782633257"><ele>436.0</ele><time>2026-04-05T10:41:12Z</time></trkpt><trkpt lat="44.78373572971726" lon="9.518591994293576"><ele>434.8</ele><time>2026-04-05T10:41:14Z</time></trkpt><trkpt lat="44.78378701306922" lon="9.518647918715292"><ele>433.6</ele><time>2026-04-05T10:41:16Z</time></trkpt><trkpt lat="44.78390447491678" lon="9.518542164000152"><ele>432.4</ele><time>2026-04-05T10:41:19Z</time></trkpt><trkpt lat="44.78386593791924" lon="9.518412449439966"><ele>431.2</ele><time>2026-04-05T10:41:20Z</time></trkpt><trkpt lat="44.78376899622788" lon="9.518311973248746"><ele>430.0</ele><time>2026-04-05T10:41:21Z</time></trkpt><trkpt lat="44.78369037106153" lon="9.518193716421361"><ele>430.00000000000006</ele><time>2026-04-05T10:41:22Z</time></trkpt><trkpt lat="44.7836369133289" lon="9.51808853760947"><ele>430.0</ele><time>2026-04-05T10:41:23Z</time></trkpt><trkpt lat="44.783582901757725" lon="9.518001888556373"><ele>430.0</ele><time>2026-04-05T10:41:24Z</time></trkpt><trkpt lat="44.783527281946036" lon="9.517944027314554"><ele>430.0</ele><time>2026-04-05T10:41:25Z</time></trkpt><trkpt lat="44.7834598745169" lon="9.517943457455377"><ele>430.00000000000006</ele><time>2026-04-05T10:41:26Z</time></trkpt><trkpt lat="44.78337084602611" lon="9.518004463611646"><ele>430.0</ele><time>2026-04-05T10:41:27Z</time></trkpt><trkpt lat="44.78327741795745" lon="9.518059041581111"><ele>429.0</ele><time>2026-04-05T10:41:28Z</time></trkpt><trkpt lat="44.78319057594705" lon="9.518090857484587"><ele>428.0</ele><time>2026-04-05T10:41:29Z</time></trkpt><trkpt lat="44.783121323943796" lon="9.518024222089913"><ele>427.0</ele><time>2026-04-05T10:41:30Z</time></trkpt><trkpt lat="44.78304554337312" lon="9.517922631006414"><ele>426.0</ele><time>2026-04-05T10:41:31Z</time></trkpt><trkpt lat="44.782961206266236" lon="9.51786747347383"><ele>425.0</ele><time>2026-04-05T10:41:32Z</time></trkpt><trkpt lat="44.78287174317793" lon="9.517835777884413"><ele>425.0</ele><time>2026-04-05T10:41:33Z</time></trkpt><trkpt lat="44.78278307378808" lon="9.517822605038333"><ele>425.0</ele><time>2026-04-05T10:41:34Z</time></trkpt><trkpt lat="44.782706144926465" lon="9.517854881083533"><ele>425.0</ele><time>2026-04-05T10:41:35Z</time></trkpt><trkpt lat="44.78263035966276" lon="9.517917826735177"><ele>425.0</ele><time>2026-04-05T10:41:36Z</time></trkpt><trkpt lat="44.782534747393875" lon="9.517971835529806"><ele>425.0</ele><time>2026-04-05T10:41:37Z</time></trkpt><trkpt lat="44.78244248981174" lon="9.518023861115264"><ele>428.8</ele><time>2026-04-05T10:41:38Z</time></trkpt><trkpt lat="44.78236522721032" lon="9.518102091730524"><ele>432.6</ele><time>2026-04-05T10:41:39Z</time></trkpt><trkpt lat="44.78229766719235" lon="9.518191559572397"><ele>436.4</ele><time>2026-04-05T10:41:40Z</time></trkpt><trkpt lat="44.782217430653525" lon="9.518232075578052"><ele>440.2</ele><time>2026-04-05T10:41:41Z</time></trkpt><trkpt lat="44.7821327831204" lon="9.518194649747933"><ele>444.0</ele><time>2026-04-05T10:41:42Z</time></trkpt><trkpt lat="44.78206367223205" lon="9.51809741740775"><ele>444.0</ele><time>2026-04-05T10:41:43Z</time></trkpt><trkpt lat="44.78201171801801" lon="9.51798119604814"><ele>444.0</ele><time>2026-04-05T10:41:44Z</time></trkpt><trkpt lat="44.78194531977653" lon="9.517895741561297"><ele>444.0</ele><time>2026-04-05T10:41:45Z</time></trkpt><trkpt lat="44.78184668848531" lon="9.51786490235676"><ele>444.0</ele><time>2026-04-05T10:41:46Z</time></trkpt><trkpt lat="44.78173371213465" lon="9.517839412396622"><ele>444.0</ele><time>2026-04-05T10:41:47Z</time></trkpt><trkpt lat="44.78164986567632" lon="9.517810979719405"><ele>440.6</ele><time>2026-04-05T10:41:48Z</time></trkpt><trkpt lat="44.78156967162559" lon="9.517727527302554"><ele>437.2</ele><time>2026-04-05T10:41:49Z</time></trkpt><trkpt lat="44.781516907097554" lon="9.517590958513933"><ele>433.80000000000007</ele><time>2026-04-05T10:41:50Z</time></trkpt><trkpt lat="44.7814900202097" lon="9.517473053439183"><ele>430.40000000000003</ele><time>2026-04-05T10:41:51Z</time></trkpt><trkpt lat="44.781465437423996" lon="9.517368061468549"><ele>427.0</ele><time>2026-04-05T10:41:52Z</time></trkpt><trkpt lat="44.78143395722329" lon="9.51727006230829"><ele>427.0</ele><time>2026-04-05T10:41:53Z</time></trkpt><trkpt lat="44.78139447705952" lon="9.517181067272107"><ele>427.00000000000006</ele><time>2026-04-05T10:41:54Z</time></trkpt><trkpt lat="44.78135762454957" lon="9.517098086835663"><ele>427.00000000000006</ele><time>2026-04-05T10:41:55Z</time></trkpt><trkpt lat="44.781361973567364" lon="9.516956579793463"><ele>427.0</ele><time>2026-04-05T10:41:57Z</time></trkpt><trkpt lat="44.78144514861895" lon="9.516854660698087"><ele>427.0</ele><time>2026-04-05T10:41:59Z</time></trkpt><trkpt lat="44.7815728712736" lon="9.516836228073595"><ele>427.00000000000006</ele><time>2026-04-05T10:42:01Z</time></trkpt><trkpt lat="44.78164288235685" lon="9.516893882194864"><ele>427.0</ele><time>2026-04-05T10:42:02Z</time></trkpt><trkpt lat="44.78171926295767" lon="9.516939174140512"><ele>427.0</ele><time>2026-04-05T10:42:03Z</time></trkpt><trkpt lat="44.78179705214161" lon="9.517002074110422"><ele>427.0</ele><time>2026-04-05T10:42:04Z</time></trkpt><trkpt lat="44.78188557258256" lon="9.517043961358441"><ele>427.00000000000006</ele><time>2026-04-05T10:42:05Z</time></trkpt><trkpt lat="44.781954800756345" lon="9.517103599555341"><ele>427.0</ele><time>2026-04-05T10:42:06Z</time></trkpt><trkpt lat="44.782027391370846" lon="9.517157339031238"><ele>427.00000000000006</ele><time>2026-04-05T10:42:07Z</time></trkpt><trkpt lat="44.782111169203574" lon="9.517195247129928"><ele>427.0</ele><time>2026-04-05T10:42:08Z</time></trkpt><trkpt lat="44.7821983627979" lon="9.517195413420316"><ele>427.0</ele><time>2026-04-05T10:42:09Z</time></trkpt><trkpt lat="44.78228146836627" lon="9.517155073560785"><ele>427.0</ele><time>2026-04-05T10:42:10Z</time></trkpt><trkpt lat="44.78235788076727" lon="9.517102965085385"><ele>427.00000000000006</ele><time>2026-04-05T10:42:11Z</time></trkpt><trkpt lat="44.78242888494778" lon="9.517061839921588"><ele>427.0</ele><time>2026-04-05T10:42:12Z</time></trkpt><trkpt lat="44.78250458553988" lon="9.51701965519696"><ele>424.1666666666667</ele><time>2026-04-05T10:42:13Z</time></trkpt><trkpt lat="44.782569072760204" lon="9.51695870804427"><ele>421.33333333333337</ele><time>2026-04-05T10:42:14Z</time></trkpt><trkpt lat="44.78261426405889" lon="9.516859021537421"><ele>418.5</ele><time>2026-04-05T10:42:15Z</time></trkpt><trkpt lat="44.7826448820349" lon="9.516753161482127"><ele>415.66666666666663</ele><time>2026-04-05T10:42:16Z</time></trkpt><trkpt lat="44.78267582111867" lon="9.516659622993517"><ele>412.8333333333333</ele><time>2026-04-05T10:42:17Z</time></trkpt><trkpt lat="44.78272804984302" lon="9.516587782527186"><ele>410.0</ele><time>2026-04-05T10:42:18Z</time></trkpt><trkpt lat="44.78279934207867" lon="9.516546542350772"><ele>409.66666666666663</ele><time>2026-04-05T10:42:19Z</time></trkpt><trkpt lat="44.782877471157896" lon="9.516552491592094"><ele>409.3333333333333</ele><time>2026-04-05T10:42:20Z</time></trkpt><trkpt lat="44.78295092982687" lon="9.516599677248589"><ele>409.0</ele><time>2026-04-05T10:42:21Z</time></trkpt><trkpt lat="44.783019915874135" lon="9.516657615591352"><ele>408.66666666666663</ele><time>2026-04-05T10:42:22Z</time></trkpt><trkpt lat="44.78310551695898" lon="9.516700288799703"><ele>408.3333333333333</ele><time>2026-04-05T10:42:23Z</time></trkpt><trkpt lat="44.78320391970592" lon="9.516718744210849"><ele>408.0</ele><time>2026-04-05T10:42:24Z</time></trkpt><trkpt lat="44.78329490031095" lon="9.516773449696204"><ele>408.0</ele><time>2026-04-05T10:42:25Z</time></trkpt><trkpt lat="44.78337988831212" lon="9.51679622364876"><ele>408.0</ele><time>2026-04-05T10:42:26Z</time></trkpt><trkpt lat="44.783451753831706" lon="9.516814799292325"><ele>408.0</ele><time>2026-04-05T10:42:27Z</time></trkpt><trkpt lat="44.78352011601454" lon="9.516832469402473"><ele>408.0</ele><time>2026-04-05T10:42:29Z</time></trkpt><trkpt lat="44.783454646735926" lon="9.516606123034382"><ele>408.0</ele><time>2026-04-05T10:42:33Z</time></trkpt><trkpt lat="44.78334379603253" lon="9.516552683994508"><ele>408.0</ele><time>2026-04-05T10:42:35Z</time></trkpt><trkpt lat="44.78326664048519" lon="9.516519781597669"><ele>408.0</ele><time>2026-04-05T10:42:36Z</time></trkpt><trkpt lat="44.78317632531761" lon="9.516463839877868"><ele>408.0</ele><time>2026-04-05T10:42:37Z</time></trkpt><trkpt lat="44.78301554907108" lon="9.516618397939082"><ele>408.0</ele><time>2026-04-05T10:42:38Z</time></trkpt><trkpt lat="44.78291337669096" lon="9.51655353401808"><ele>408.0</ele><time>2026-04-05T10:42:39Z</time></trkpt><trkpt lat="44.782839742019796" lon="9.516511402973764"><ele>408.0</ele><time>2026-04-05T10:42:40Z</time></trkpt><trkpt lat="44.7827568165412" lon="9.516463286387895"><ele>408.0</ele><time>2026-04-05T10:42:41Z</time></trkpt><trkpt lat="44.78263890493684" lon="9.516467876897861"><ele>408.0</ele><time>2026-04-05T10:42:43Z</time></trkpt><trkpt lat="44.782616011573516" lon="9.515980913058582"><ele>405.79999999999995</ele><time>2026-04-05T10:42:44Z</time></trkpt><trkpt lat="44.78253142553712" lon="9.515968378539258"><ele>403.6</ele><time>2026-04-05T10:42:45Z</time></trkpt><trkpt lat="44.78243646316738" lon="9.515942322172577"><ele>401.4</ele><time>2026-04-05T10:42:46Z</time></trkpt><trkpt lat="44.782355467128845" lon="9.515875445988732"><ele>399.20000000000005</ele><time>2026-04-05T10:42:47Z</time></trkpt><trkpt lat="44.782296064693554" lon="9.515764525724236"><ele>397.0</ele><time>2026-04-05T10:42:48Z</time></trkpt><trkpt lat="44.78226060787931" lon="9.515642335746342"><ele>397.00000000000006</ele><time>2026-04-05T10:42:49Z</time></trkpt><trkpt lat="44.78224677370632" lon="9.515524122644926"><ele>397.0</ele><time>2026-04-05T10:42:50Z</time></trkpt><trkpt lat="44.78224501433237" lon="9.51543306733847"><ele>397.0</ele><time>2026-04-05T10:42:51Z</time></trkpt><trkpt lat="44.782144874637666" lon="9.515346150131693"><ele>397.0</ele><time>2026-04-05T10:42:53Z</time></trkpt><trkpt lat="44.78206827301264" lon="9.51534020731761"><ele>397.00000000000006</ele><time>2026-04-05T10:42:54Z</time></trkpt><trkpt lat="44.7819978157706" lon="9.515306837616553"><ele>397.0</ele><time>2026-04-05T10:42:55Z</time></trkpt><trkpt lat="44.781922931130225" lon="9.51526030717167"><ele>395.85714285714283</ele><time>2026-04-05T10:42:56Z</time></trkpt><trkpt lat="44.78187153176931" lon="9.515173451597622"><ele>394.71428571428567</ele><time>2026-04-05T10:42:57Z</time></trkpt><trkpt lat="44.7818450284363" lon="9.515069619584969"><ele>393.57142857142856</ele><time>2026-04-05T10:42:58Z</time></trkpt><trkpt lat="44.781834319143314" lon="9.514978146656187"><ele>392.42857142857144</ele><time>2026-04-05T10:42:59Z</time></trkpt><trkpt lat="44.78181354269006" lon="9.514885692497568"><ele>391.2857142857143</ele><time>2026-04-05T10:43:00Z</time></trkpt><trkpt lat="44.781782005439474" lon="9.514798555752524"><ele>390.14285714285717</ele><time>2026-04-05T10:43:01Z</time></trkpt><trkpt lat="44.7817506593555" lon="9.514710678168331"><ele>389.0</ele><time>2026-04-05T10:43:02Z</time></trkpt><trkpt lat="44.781724966515036" lon="9.514621262551634"><ele>387.99999999999994</ele><time>2026-04-05T10:43:03Z</time></trkpt><trkpt lat="44.78168725319617" lon="9.514536933705402"><ele>387.0</ele><time>2026-04-05T10:43:04Z</time></trkpt><trkpt lat="44.78165735142831" lon="9.514456467365413"><ele>386.0</ele><time>2026-04-05T10:43:05Z</time></trkpt><trkpt lat="44.78159151881386" lon="9.514298073926748"><ele>385.0</ele><time>2026-04-05T10:43:07Z</time></trkpt><trkpt lat="44.7815549885583" lon="9.514199459055638"><ele>384.0</ele><time>2026-04-05T10:43:08Z</time></trkpt><trkpt lat="44.78153277091053" lon="9.514082310355588"><ele>383.0</ele><time>2026-04-05T10:43:09Z</time></trkpt><trkpt lat="44.7815406771084" lon="9.513962054088042"><ele>383.0</ele><time>2026-04-05T10:43:10Z</time></trkpt><trkpt lat="44.78154624520276" lon="9.51385425394655"><ele>383.0</ele><time>2026-04-05T10:43:11Z</time></trkpt><trkpt lat="44.781550217902016" lon="9.513748070755323"><ele>383.0</ele><time>2026-04-05T10:43:12Z</time></trkpt><trkpt lat="44.781561720508165" lon="9.513637260655356"><ele>383.0</ele><time>2026-04-05T10:43:13Z</time></trkpt><trkpt lat="44.7815815041946" lon="9.51352396841946"><ele>383.0</ele><time>2026-04-05T10:43:14Z</time></trkpt><trkpt lat="44.78159626027334" lon="9.513412353088455"><ele>383.0</ele><time>2026-04-05T10:43:15Z</time></trkpt><trkpt lat="44.78161251766749" lon="9.513298510055094"><ele>381.6666666666667</ele><time>2026-04-05T10:43:16Z</time></trkpt><trkpt lat="44.78160252083814" lon="9.513191619871636"><ele>380.33333333333337</ele><time>2026-04-05T10:43:17Z</time></trkpt><trkpt lat="44.781507590533266" lon="9.513114272455299"><ele>379.0</ele><time>2026-04-05T10:43:19Z</time></trkpt><trkpt lat="44.78144115783062" lon="9.513144067109309"><ele>377.6666666666667</ele><time>2026-04-05T10:43:20Z</time></trkpt><trkpt lat="44.78137397885721" lon="9.513211290743246"><ele>376.3333333333333</ele><time>2026-04-05T10:43:21Z</time></trkpt><trkpt lat="44.781293830543135" lon="9.513259288619325"><ele>375.0</ele><time>2026-04-05T10:43:22Z</time></trkpt><trkpt lat="44.781197049888334" lon="9.51327395370756"><ele>375.0</ele><time>2026-04-05T10:43:23Z</time></trkpt><trkpt lat="44.78111503756927" lon="9.513302722924893"><ele>375.0</ele><time>2026-04-05T10:43:24Z</time></trkpt><trkpt lat="44.78103579291264" lon="9.513317974804856"><ele>375.0</ele><time>2026-04-05T10:43:25Z</time></trkpt><trkpt lat="44.780972759471794" lon="9.513243846315815"><ele>375.0</ele><time>2026-04-05T10:43:26Z</time></trkpt><trkpt lat="44.78092481186251" lon="9.513131490690991"><ele>375.0</ele><time>2026-04-05T10:43:27Z</time></trkpt><trkpt lat="44.78088856707274" lon="9.513018438272274"><ele>375.0</ele><time>2026-04-05T10:43:28Z</time></trkpt><trkpt lat="44.780858852622195" lon="9.512912108509148"><ele>372.1666666666667</ele><time>2026-04-05T10:43:29Z</time></trkpt><trkpt lat="44.780828537578614" lon="9.51281374210881"><ele>369.3333333333333</ele><time>2026-04-05T10:43:30Z</time></trkpt><trkpt lat="44.78079565090959" lon="9.512736160497242"><ele>366.5</ele><time>2026-04-05T10:43:31Z</time></trkpt><trkpt lat="44.78073357006874" lon="9.512709146512003"><ele>363.66666666666663</ele><time>2026-04-05T10:43:32Z</time></trkpt><trkpt lat="44.7806493718331" lon="9.512733249267747"><ele>360.8333333333333</ele><time>2026-04-05T10:43:33Z</time></trkpt><trkpt lat="44.78057500613312" lon="9.51279626217858"><ele>358.0</ele><time>2026-04-05T10:43:34Z</time></trkpt><trkpt lat="44.78048832958446" lon="9.512785715592043"><ele>358.0</ele><time>2026-04-05T10:43:36Z</time></trkpt><trkpt lat="44.780546475519714" lon="9.512618196525073"><ele>358.0</ele><time>2026-04-05T10:43:38Z</time></trkpt><trkpt lat="44.78061875010701" lon="9.512550889873967"><ele>358.0</ele><time>2026-04-05T10:43:39Z</time></trkpt><trkpt lat="44.78064467733635" lon="9.512431929717229"><ele>358.0</ele><time>2026-04-05T10:43:40Z</time></trkpt><trkpt lat="44.78065415531049" lon="9.512328442966378"><ele>358.0</ele><time>2026-04-05T10:43:41Z</time></trkpt><trkpt lat="44.78069567589173" lon="9.51222693351712"><ele>358.0</ele><time>2026-04-05T10:43:42Z</time></trkpt><trkpt lat="44.78075764421006" lon="9.512158516915207"><ele>358.0</ele><time>2026-04-05T10:43:43Z</time></trkpt><trkpt lat="44.78083902877757" lon="9.512136220755401"><ele>358.0</ele><time>2026-04-05T10:43:44Z</time></trkpt><trkpt lat="44.78092479405768" lon="9.512141327836808"><ele>358.0</ele><time>2026-04-05T10:43:45Z</time></trkpt><trkpt lat="44.781005393982184" lon="9.512152478978862"><ele>358.0</ele><time>2026-04-05T10:43:46Z</time></trkpt><trkpt lat="44.781081496975176" lon="9.512070718471312"><ele>358.0</ele><time>2026-04-05T10:43:48Z</time></trkpt><trkpt lat="44.78101778695778" lon="9.511936860310724"><ele>354.79999999999995</ele><time>2026-04-05T10:43:50Z</time></trkpt><trkpt lat="44.78094722416709" lon="9.511888529079444"><ele>351.6</ele><time>2026-04-05T10:43:51Z</time></trkpt><trkpt lat="44.780852364808865" lon="9.511854516900138"><ele>348.4</ele><time>2026-04-05T10:43:52Z</time></trkpt><trkpt lat="44.78076898732348" lon="9.511840087982765"><ele>345.20000000000005</ele><time>2026-04-05T10:43:53Z</time></trkpt><trkpt lat="44.78068595862437" lon="9.511777569786574"><ele>342.0</ele><time>2026-04-05T10:43:55Z</time></trkpt><trkpt lat="44.780736785775915" lon="9.51165930897414"><ele>342.0</ele><time>2026-04-05T10:43:57Z</time></trkpt><trkpt lat="44.78081706744928" lon="9.511575863052604"><ele>342.0</ele><time>2026-04-05T10:43:59Z</time></trkpt><trkpt lat="44.78074182324042" lon="9.511440902584106"><ele>342.0</ele><time>2026-04-05T10:44:01Z</time></trkpt><trkpt lat="44.7806636162076" lon="9.511391352868532"><ele>342.0</ele><time>2026-04-05T10:44:02Z</time></trkpt><trkpt lat="44.7805830601232" lon="9.511350741695729"><ele>342.0</ele><time>2026-04-05T10:44:03Z</time></trkpt><trkpt lat="44.780541985778854" lon="9.511256645624417"><ele>340.6666666666667</ele><time>2026-04-05T10:44:04Z</time></trkpt><trkpt lat="44.78053522691364" lon="9.511147125501934"><ele>339.3333333333333</ele><time>2026-04-05T10:44:05Z</time></trkpt><trkpt lat="44.78054511657986" lon="9.511052880827656"><ele>338.0</ele><time>2026-04-05T10:44:06Z</time></trkpt><trkpt lat="44.78055795260452" lon="9.510889391490672"><ele>336.66666666666663</ele><time>2026-04-05T10:44:08Z</time></trkpt><trkpt lat="44.7805894230678" lon="9.51080927219987"><ele>335.3333333333333</ele><time>2026-04-05T10:44:09Z</time></trkpt><trkpt lat="44.780642161705885" lon="9.510724728243304"><ele>334.0</ele><time>2026-04-05T10:44:10Z</time></trkpt><trkpt lat="44.78068562113834" lon="9.510652755125157"><ele>334.0</ele><time>2026-04-05T10:44:11Z</time></trkpt><trkpt lat="44.780634677759764" lon="9.51054481289131"><ele>334.0</ele><time>2026-04-05T10:44:14Z</time></trkpt><trkpt lat="44.78054712895466" lon="9.51052282031444"><ele>334.0</ele><time>2026-04-05T10:44:15Z</time></trkpt><trkpt lat="44.78043356720421" lon="9.510528022303207"><ele>334.0</ele><time>2026-04-05T10:44:16Z</time></trkpt><trkpt lat="44.78034115427844" lon="9.510542695409773"><ele>334.0</ele><time>2026-04-05T10:44:17Z</time></trkpt><trkpt lat="44.78027228676186" lon="9.510534375988543"><ele>334.0</ele><time>2026-04-05T10:44:18Z</time></trkpt><trkpt lat="44.780202422981084" lon="9.510505834191589"><ele>334.0</ele><time>2026-04-05T10:44:19Z</time></trkpt><trkpt lat="44.78013286027727" lon="9.510462255561068"><ele>334.0</ele><time>2026-04-05T10:44:20Z</time></trkpt><trkpt lat="44.780076061030144" lon="9.510397672766315"><ele>334.0</ele><time>2026-04-05T10:44:21Z</time></trkpt><trkpt lat="44.780025232689894" lon="9.510327415984287"><ele>334.0</ele><time>2026-04-05T10:44:22Z</time></trkpt><trkpt lat="44.77997693291006" lon="9.510269562612775"><ele>334.0</ele><time>2026-04-05T10:44:23Z</time></trkpt><trkpt lat="44.779884644655205" lon="9.51017886848896"><ele>335.6</ele><time>2026-04-05T10:44:25Z</time></trkpt><trkpt lat="44.7798260521421" lon="9.510112604962327"><ele>337.2</ele><time>2026-04-05T10:44:26Z</time></trkpt><trkpt lat="44.779766428182874" lon="9.510031868958544"><ele>338.8</ele><time>2026-04-05T10:44:27Z</time></trkpt><trkpt lat="44.7797023611512" lon="9.50993589926162"><ele>340.40000000000003</ele><time>2026-04-05T10:44:28Z</time></trkpt><trkpt lat="44.779626683317275" lon="9.509832113230818"><ele>342.0</ele><time>2026-04-05T10:44:29Z</time></trkpt><trkpt lat="44.77954581904578" lon="9.509726863577354"><ele>342.0</ele><time>2026-04-05T10:44:30Z</time></trkpt><trkpt lat="44.77945631481302" lon="9.509621777730718"><ele>342.0</ele><time>2026-04-05T10:44:31Z</time></trkpt><trkpt lat="44.779370170851664" lon="9.509530743906963"><ele>342.0</ele><time>2026-04-05T10:44:32Z</time></trkpt><trkpt lat="44.77929067570451" lon="9.509458364453113"><ele>342.0</ele><time>2026-04-05T10:44:33Z</time></trkpt><trkpt lat="44.77921178832843" lon="9.50939445164783"><ele>342.0</ele><time>2026-04-05T10:44:34Z</time></trkpt><trkpt lat="44.77913594812309" lon="9.509335046599501"><ele>342.8</ele><time>2026-04-05T10:44:35Z</time></trkpt><trkpt lat="44.779054375327064" lon="9.50928695195054"><ele>343.6</ele><time>2026-04-05T10:44:36Z</time></trkpt><trkpt lat="44.77896240543306" lon="9.509247031670174"><ele>344.40000000000003</ele><time>2026-04-05T10:44:37Z</time></trkpt><trkpt lat="44.77886506958525" lon="9.509214893883081"><ele>345.20000000000005</ele><time>2026-04-05T10:44:38Z</time></trkpt><trkpt lat="44.778762072975944" lon="9.509197024616565"><ele>346.0</ele><time>2026-04-05T10:44:39Z</time></trkpt><trkpt lat="44.778662060690685" lon="9.509194789362807"><ele>346.0</ele><time>2026-04-05T10:44:40Z</time></trkpt><trkpt lat="44.778572004614254" lon="9.509185272419504"><ele>346.0</ele><time>2026-04-05T10:44:41Z</time></trkpt><trkpt lat="44.778495145525326" lon="9.509171551744545"><ele>346.0</ele><time>2026-04-05T10:44:42Z</time></trkpt><trkpt lat="44.778426582886084" lon="9.509159302668682"><ele>346.0</ele><time>2026-04-05T10:44:43Z</time></trkpt><trkpt lat="44.77831034746642" lon="9.509127102550517"><ele>346.0</ele><time>2026-04-05T10:44:45Z</time></trkpt><trkpt lat="44.77824703117285" lon="9.509022279505125"><ele>346.0</ele><time>2026-04-05T10:44:47Z</time></trkpt><trkpt lat="44.77828100222693" lon="9.508890339443123"><ele>346.0</ele><time>2026-04-05T10:44:49Z</time></trkpt><trkpt lat="44.778338647487885" lon="9.508838008016076"><ele>346.0</ele><time>2026-04-05T10:44:50Z</time></trkpt><trkpt lat="44.77841096876656" lon="9.508804662899815"><ele>346.0</ele><time>2026-04-05T10:44:51Z</time></trkpt><trkpt lat="44.77849661848552" lon="9.508815176159287"><ele>346.0</ele><time>2026-04-05T10:44:52Z</time></trkpt><trkpt lat="44.77858539383701" lon="9.508846941012669"><ele>346.0</ele><time>2026-04-05T10:44:53Z</time></trkpt><trkpt lat="44.77867542766066" lon="9.508870831348318"><ele>346.0</ele><time>2026-04-05T10:44:54Z</time></trkpt><trkpt lat="44.778761876665904" lon="9.508876114454742"><ele>346.0</ele><time>2026-04-05T10:44:55Z</time></trkpt><trkpt lat="44.778826020717716" lon="9.508887402853151"><ele>346.0</ele><time>2026-04-05T10:44:56Z</time></trkpt><trkpt lat="44.77891106604767" lon="9.50890791966407"><ele>346.0</ele><time>2026-04-05T10:44:57Z</time></trkpt><trkpt lat="44.77900313342854" lon="9.508933144378455"><ele>346.0</ele><time>2026-04-05T10:44:58Z</time></trkpt><trkpt lat="44.77908276783771" lon="9.508958752221211"><ele>346.0</ele><time>2026-04-05T10:44:59Z</time></trkpt><trkpt lat="44.7791620306603" lon="9.508982360271641"><ele>346.0</ele><time>2026-04-05T10:45:00Z</time></trkpt><trkpt lat="44.779250087220305" lon="9.50900829925679"><ele>346.0</ele><time>2026-04-05T10:45:01Z</time></trkpt><trkpt lat="44.7793444475289" lon="9.509035052047643"><ele>346.0</ele><time>2026-04-05T10:45:02Z</time></trkpt><trkpt lat="44.77943460751214" lon="9.509059793933385"><ele>346.0</ele><time>2026-04-05T10:45:03Z</time></trkpt><trkpt lat="44.779522433830174" lon="9.509073893463913"><ele>346.0</ele><time>2026-04-05T10:45:04Z</time></trkpt><trkpt lat="44.779611218280714" lon="9.509094262220417"><ele>347.3333333333333</ele><time>2026-04-05T10:45:05Z</time></trkpt><trkpt lat="44.77969686541115" lon="9.50911649043575"><ele>348.66666666666663</ele><time>2026-04-05T10:45:06Z</time></trkpt><trkpt lat="44.77977417638969" lon="9.509128294760632"><ele>350.0</ele><time>2026-04-05T10:45:07Z</time></trkpt><trkpt lat="44.77986127626587" lon="9.509150505677901"><ele>351.3333333333333</ele><time>2026-04-05T10:45:08Z</time></trkpt><trkpt lat="44.779960539687735" lon="9.509176826396297"><ele>352.6666666666667</ele><time>2026-04-05T10:45:09Z</time></trkpt><trkpt lat="44.78003997624158" lon="9.509202649077203"><ele>354.0</ele><time>2026-04-05T10:45:10Z</time></trkpt><trkpt lat="44.78012287242059" lon="9.509227997823823"><ele>354.2</ele><time>2026-04-05T10:45:11Z</time></trkpt><trkpt lat="44.78021265348915" lon="9.509242036888082"><ele>354.4</ele><time>2026-04-05T10:45:12Z</time></trkpt><trkpt lat="44.780303107579044" lon="9.509220034187518"><ele>354.6</ele><time>2026-04-05T10:45:13Z</time></trkpt><trkpt lat="44.78040268890168" lon="9.509161063988355"><ele>354.8</ele><time>2026-04-05T10:45:14Z</time></trkpt><trkpt lat="44.78052056720927" lon="9.50908602222821"><ele>355.0</ele><time>2026-04-05T10:45:15Z</time></trkpt><trkpt lat="44.780618749092966" lon="9.50901582755186"><ele>355.0</ele><time>2026-04-05T10:45:16Z</time></trkpt><trkpt lat="44.7806891981559" lon="9.508960783105561"><ele>355.0</ele><time>2026-04-05T10:45:17Z</time></trkpt><trkpt lat="44.78075012859885" lon="9.508911314172094"><ele>355.0</ele><time>2026-04-05T10:45:18Z</time></trkpt><trkpt lat="44.78082468889337" lon="9.508859493768108"><ele>355.0</ele><time>2026-04-05T10:45:19Z</time></trkpt><trkpt lat="44.78091360078219" lon="9.508788831658554"><ele>355.0</ele><time>2026-04-05T10:45:20Z</time></trkpt><trkpt lat="44.78100576618267" lon="9.508723195702364"><ele>355.0</ele><time>2026-04-05T10:45:21Z</time></trkpt><trkpt lat="44.78108263835064" lon="9.508656769246691"><ele>356.66666666666663</ele><time>2026-04-05T10:45:22Z</time></trkpt><trkpt lat="44.7811544526381" lon="9.508591004639348"><ele>358.3333333333333</ele><time>2026-04-05T10:45:23Z</time></trkpt><trkpt lat="44.781223623561104" lon="9.508533292819132"><ele>360.0</ele><time>2026-04-05T10:45:24Z</time></trkpt><trkpt lat="44.78128474743457" lon="9.508451131139065"><ele>361.6666666666667</ele><time>2026-04-05T10:45:25Z</time></trkpt><trkpt lat="44.78131580244023" lon="9.508361803125338"><ele>363.33333333333337</ele><time>2026-04-05T10:45:26Z</time></trkpt><trkpt lat="44.78131265369615" lon="9.508272391523047"><ele>365.0</ele><time>2026-04-05T10:45:27Z</time></trkpt><trkpt lat="44.78127387776694" lon="9.508198937023481"><ele>365.0</ele><time>2026-04-05T10:45:28Z</time></trkpt><trkpt lat="44.78120327039522" lon="9.508160590742744"><ele>365.0</ele><time>2026-04-05T10:45:29Z</time></trkpt><trkpt lat="44.78110776030432" lon="9.50817131596147"><ele>365.0</ele><time>2026-04-05T10:45:30Z</time></trkpt><trkpt lat="44.78099595701413" lon="9.508210331625476"><ele>365.0</ele><time>2026-04-05T10:45:31Z</time></trkpt><trkpt lat="44.78089983359844" lon="9.508244675971401"><ele>365.0</ele><time>2026-04-05T10:45:32Z</time></trkpt><trkpt lat="44.78080702475933" lon="9.508265062088734"><ele>365.83333333333337</ele><time>2026-04-05T10:45:33Z</time></trkpt><trkpt lat="44.7807094826989" lon="9.508282368328947"><ele>366.6666666666667</ele><time>2026-04-05T10:45:34Z</time></trkpt><trkpt lat="44.780616481142445" lon="9.50828386494683"><ele>367.5</ele><time>2026-04-05T10:45:35Z</time></trkpt><trkpt lat="44.780525379464976" lon="9.508267785435784"><ele>368.3333333333333</ele><time>2026-04-05T10:45:36Z</time></trkpt><trkpt lat="44.78044499252902" lon="9.508252043083937"><ele>369.16666666666663</ele><time>2026-04-05T10:45:37Z</time></trkpt><trkpt lat="44.78038045794966" lon="9.508228793400507"><ele>370.0</ele><time>2026-04-05T10:45:38Z</time></trkpt><trkpt lat="44.78032074091658" lon="9.508176521921824"><ele>370.0</ele><time>2026-04-05T10:45:39Z</time></trkpt><trkpt lat="44.780287650493776" lon="9.508082254818733"><ele>370.0</ele><time>2026-04-05T10:45:40Z</time></trkpt><trkpt lat="44.78029567266138" lon="9.507978153974866"><ele>370.0</ele><time>2026-04-05T10:45:41Z</time></trkpt><trkpt lat="44.780341012570545" lon="9.507894565257173"><ele>370.0</ele><time>2026-04-05T10:45:42Z</time></trkpt><trkpt lat="44.78042489473267" lon="9.507851090619939"><ele>370.0</ele><time>2026-04-05T10:45:43Z</time></trkpt><trkpt lat="44.78053248404283" lon="9.507844799957445"><ele>370.0</ele><time>2026-04-05T10:45:44Z</time></trkpt><trkpt lat="44.78064423897607" lon="9.50784603778026"><ele>372.4</ele><time>2026-04-05T10:45:45Z</time></trkpt><trkpt lat="44.780757030550014" lon="9.507829441061919"><ele>374.8</ele><time>2026-04-05T10:45:46Z</time></trkpt><trkpt lat="44.7808509538945" lon="9.507813207514452"><ele>377.20000000000005</ele><time>2026-04-05T10:45:47Z</time></trkpt><trkpt lat="44.78093879532332" lon="9.50780945734286"><ele>379.6</ele><time>2026-04-05T10:45:48Z</time></trkpt><trkpt lat="44.78102513949877" lon="9.507811290578083"><ele>382.0</ele><time>2026-04-05T10:45:49Z</time></trkpt><trkpt lat="44.781107376632974" lon="9.507806562502156"><ele>382.0</ele><time>2026-04-05T10:45:50Z</time></trkpt><trkpt lat="44.7811855438011" lon="9.507794943201004"><ele>382.0</ele><time>2026-04-05T10:45:51Z</time></trkpt><trkpt lat="44.781244658936515" lon="9.507746865668391"><ele>382.0</ele><time>2026-04-05T10:45:52Z</time></trkpt><trkpt lat="44.78128263818616" lon="9.507666607687854"><ele>382.0</ele><time>2026-04-05T10:45:53Z</time></trkpt><trkpt lat="44.78129349499419" lon="9.50757875668917"><ele>382.0</ele><time>2026-04-05T10:45:54Z</time></trkpt><trkpt lat="44.78120923764618" lon="9.50746618718"><ele>382.0</ele><time>2026-04-05T10:45:56Z</time></trkpt><trkpt lat="44.78112414345283" lon="9.507454903929622"><ele>382.0</ele><time>2026-04-05T10:45:57Z</time></trkpt><trkpt lat="44.781019408976434" lon="9.50746315910033"><ele>382.0</ele><time>2026-04-05T10:45:58Z</time></trkpt><trkpt lat="44.78091816887863" lon="9.50746947562144"><ele>382.0</ele><time>2026-04-05T10:45:59Z</time></trkpt><trkpt lat="44.78083988580276" lon="9.507456636259537"><ele>382.0</ele><time>2026-04-05T10:46:00Z</time></trkpt><trkpt lat="44.78076842790791" lon="9.507429358681678"><ele>382.0</ele><time>2026-04-05T10:46:01Z</time></trkpt><trkpt lat="44.78068908766345" lon="9.507396956638345"><ele>382.0</ele><time>2026-04-05T10:46:02Z</time></trkpt><trkpt lat="44.780600045933774" lon="9.507357373797534"><ele>382.8</ele><time>2026-04-05T10:46:03Z</time></trkpt><trkpt lat="44.78050962046233" lon="9.507316449517635"><ele>383.6</ele><time>2026-04-05T10:46:04Z</time></trkpt><trkpt lat="44.780422824088674" lon="9.507237508943776"><ele>384.40000000000003</ele><time>2026-04-05T10:46:05Z</time></trkpt><trkpt lat="44.78033673560476" lon="9.507173499273282"><ele>385.20000000000005</ele><time>2026-04-05T10:46:06Z</time></trkpt><trkpt lat="44.78024942651887" lon="9.507115604647074"><ele>386.0</ele><time>2026-04-05T10:46:07Z</time></trkpt><trkpt lat="44.780165685558934" lon="9.507076919241669"><ele>389.20000000000005</ele><time>2026-04-05T10:46:08Z</time></trkpt><trkpt lat="44.78006192825096" lon="9.507044866492608"><ele>392.40000000000003</ele><time>2026-04-05T10:46:09Z</time></trkpt><trkpt lat="44.779963619268436" lon="9.507011652592281"><ele>395.6</ele><time>2026-04-05T10:46:10Z</time></trkpt><trkpt lat="44.77988306220855" lon="9.506975397613015"><ele>398.8</ele><time>2026-04-05T10:46:11Z</time></trkpt><trkpt lat="44.77981683365348" lon="9.506942594955177"><ele>402.0</ele><time>2026-04-05T10:46:12Z</time></trkpt><trkpt lat="44.77973353816362" lon="9.506831229277985"><ele>402.0</ele><time>2026-04-05T10:46:14Z</time></trkpt><trkpt lat="44.77972420832947" lon="9.506739659641543"><ele>402.0</ele><time>2026-04-05T10:46:15Z</time></trkpt><trkpt lat="44.77974441238177" lon="9.50664125841912"><ele>402.0</ele><time>2026-04-05T10:46:16Z</time></trkpt><trkpt lat="44.77980116430126" lon="9.506575191686139"><ele>402.0</ele><time>2026-04-05T10:46:17Z</time></trkpt><trkpt lat="44.77987987830923" lon="9.506568727141133"><ele>402.0</ele><time>2026-04-05T10:46:18Z</time></trkpt><trkpt lat="44.779952633220915" lon="9.506651833917712"><ele>402.0</ele><time>2026-04-05T10:46:19Z</time></trkpt><trkpt lat="44.780048932277246" lon="9.506703722662074"><ele>402.0</ele><time>2026-04-05T10:46:20Z</time></trkpt><trkpt lat="44.780168645443766" lon="9.50671895058159"><ele>402.0</ele><time>2026-04-05T10:46:21Z</time></trkpt><trkpt lat="44.7802797987658" lon="9.506731397974113"><ele>402.0</ele><time>2026-04-05T10:46:22Z</time></trkpt><trkpt lat="44.780385616615355" lon="9.506739785119942"><ele>402.0</ele><time>2026-04-05T10:46:23Z</time></trkpt><trkpt lat="44.780482728218665" lon="9.506752359867797"><ele>402.0</ele><time>2026-04-05T10:46:24Z</time></trkpt><trkpt lat="44.780567382991876" lon="9.506785576162022"><ele>401.6666666666667</ele><time>2026-04-05T10:46:25Z</time></trkpt><trkpt lat="44.780651799246364" lon="9.506776101004936"><ele>401.33333333333337</ele><time>2026-04-05T10:46:26Z</time></trkpt><trkpt lat="44.7807356844768" lon="9.506789768168233"><ele>401.0</ele><time>2026-04-05T10:46:27Z</time></trkpt><trkpt lat="44.78081723422714" lon="9.506777785703541"><ele>400.6666666666667</ele><time>2026-04-05T10:46:28Z</time></trkpt><trkpt lat="44.78087752202292" lon="9.506736175833634"><ele>400.33333333333337</ele><time>2026-04-05T10:46:29Z</time></trkpt><trkpt lat="44.780915959337875" lon="9.506662027175565"><ele>400.0</ele><time>2026-04-05T10:46:30Z</time></trkpt><trkpt lat="44.78094675058578" lon="9.506545371601476"><ele>400.0</ele><time>2026-04-05T10:46:31Z</time></trkpt><trkpt lat="44.78098858281767" lon="9.506402276773366"><ele>400.0</ele><time>2026-04-05T10:46:32Z</time></trkpt><trkpt lat="44.78104649890005" lon="9.506288965539026"><ele>400.0</ele><time>2026-04-05T10:46:33Z</time></trkpt><trkpt lat="44.781122744899996" lon="9.506225438607293"><ele>400.0</ele><time>2026-04-05T10:46:34Z</time></trkpt><trkpt lat="44.781209627317786" lon="9.506186120724493"><ele>400.0</ele><time>2026-04-05T10:46:35Z</time></trkpt><trkpt lat="44.78128168019144" lon="9.506146848468777"><ele>401.50000000000006</ele><time>2026-04-05T10:46:36Z</time></trkpt><trkpt lat="44.781332562876194" lon="9.506086345986569"><ele>403.0</ele><time>2026-04-05T10:46:37Z</time></trkpt><trkpt lat="44.78136834041894" lon="9.505991456147306"><ele>404.5</ele><time>2026-04-05T10:46:38Z</time></trkpt><trkpt lat="44.781376176530486" lon="9.505893841464488"><ele>406.0</ele><time>2026-04-05T10:46:39Z</time></trkpt><trkpt lat="44.78137727440066" lon="9.505754295033832"><ele>407.50000000000006</ele><time>2026-04-05T10:46:41Z</time></trkpt><trkpt lat="44.78150778008183" lon="9.505698530377096"><ele>409.0</ele><time>2026-04-05T10:46:43Z</time></trkpt><trkpt lat="44.78161192295198" lon="9.50570299780179"><ele>409.00000000000006</ele><time>2026-04-05T10:46:44Z</time></trkpt><trkpt lat="44.7817077350717" lon="9.50571598430702"><ele>409.0</ele><time>2026-04-05T10:46:45Z</time></trkpt><trkpt lat="44.78178828141472" lon="9.50569942481679"><ele>409.0</ele><time>2026-04-05T10:46:46Z</time></trkpt><trkpt lat="44.781871710794256" lon="9.505659849520244"><ele>409.0</ele><time>2026-04-05T10:46:47Z</time></trkpt><trkpt lat="44.78194821258467" lon="9.505635683352512"><ele>409.00000000000006</ele><time>2026-04-05T10:46:48Z</time></trkpt><trkpt lat="44.78202196309172" lon="9.50561079017515"><ele>409.0</ele><time>2026-04-05T10:46:49Z</time></trkpt><trkpt lat="44.782096070391596" lon="9.505565222336344"><ele>410.1666666666667</ele><time>2026-04-05T10:46:50Z</time></trkpt><trkpt lat="44.782178076483326" lon="9.505511607883557"><ele>411.33333333333337</ele><time>2026-04-05T10:46:51Z</time></trkpt><trkpt lat="44.78225565694559" lon="9.50546475767751"><ele>412.5</ele><time>2026-04-05T10:46:52Z</time></trkpt><trkpt lat="44.782330918620765" lon="9.505437787636547"><ele>413.66666666666663</ele><time>2026-04-05T10:46:53Z</time></trkpt><trkpt lat="44.78239373642582" lon="9.505396295841571"><ele>414.8333333333333</ele><time>2026-04-05T10:46:54Z</time></trkpt><trkpt lat="44.78244769061741" lon="9.50531550431635"><ele>416.0</ele><time>2026-04-05T10:46:55Z</time></trkpt><trkpt lat="44.782505857593875" lon="9.50519930886449"><ele>418.6</ele><time>2026-04-05T10:46:56Z</time></trkpt><trkpt lat="44.78257074765209" lon="9.505065919812308"><ele>421.20000000000005</ele><time>2026-04-05T10:46:57Z</time></trkpt><trkpt lat="44.78264000835819" lon="9.504959274299857"><ele>423.79999999999995</ele><time>2026-04-05T10:46:58Z</time></trkpt><trkpt lat="44.78269828210866" lon="9.50487935318717"><ele>426.4</ele><time>2026-04-05T10:46:59Z</time></trkpt><trkpt lat="44.78276219644492" lon="9.504833351122013"><ele>429.0</ele><time>2026-04-05T10:47:00Z</time></trkpt><trkpt lat="44.78285210771187" lon="9.50479043749484"><ele>429.79999999999995</ele><time>2026-04-05T10:47:01Z</time></trkpt><trkpt lat="44.78295034882943" lon="9.504754694734764"><ele>430.59999999999997</ele><time>2026-04-05T10:47:02Z</time></trkpt><trkpt lat="44.783056066958025" lon="9.504716857167775"><ele>431.4</ele><time>2026-04-05T10:47:03Z</time></trkpt><trkpt lat="44.78314408638521" lon="9.504692378750692"><ele>432.2</ele><time>2026-04-05T10:47:04Z</time></trkpt><trkpt lat="44.783155568229596" lon="9.504546521284103"><ele>433.0</ele><time>2026-04-05T10:47:20Z</time></trkpt><trkpt lat="44.783228917633096" lon="9.504363693400043"><ele>436.6666666666667</ele><time>2026-04-05T10:47:22Z</time></trkpt><trkpt lat="44.783268272688034" lon="9.504225594303989"><ele>440.33333333333337</ele><time>2026-04-05T10:47:23Z</time></trkpt><trkpt lat="44.783289488687316" lon="9.504077165347073"><ele>444.0</ele><time>2026-04-05T10:47:24Z</time></trkpt><trkpt lat="44.78330991541951" lon="9.503968424496614"><ele>447.66666666666663</ele><time>2026-04-05T10:47:25Z</time></trkpt><trkpt lat="44.783353306497624" lon="9.503896477905045"><ele>451.3333333333333</ele><time>2026-04-05T10:47:26Z</time></trkpt><trkpt lat="44.783383098577346" lon="9.503793100874015"><ele>455.0</ele><time>2026-04-05T10:47:28Z</time></trkpt><trkpt lat="44.783284166957635" lon="9.503693967928006"><ele>459.2</ele><time>2026-04-05T10:47:30Z</time></trkpt><trkpt lat="44.78338492009824" lon="9.503638993555288"><ele>463.4</ele><time>2026-04-05T10:47:33Z</time></trkpt><trkpt lat="44.783436193593374" lon="9.50356860147671"><ele>467.6</ele><time>2026-04-05T10:47:35Z</time></trkpt><trkpt lat="44.78342400881577" lon="9.50343314027208"><ele>471.8</ele><time>2026-04-05T10:47:39Z</time></trkpt><trkpt lat="44.78349175898609" lon="9.50333755503715"><ele>476.0</ele><time>2026-04-05T10:47:42Z</time></trkpt><trkpt lat="44.783590924117135" lon="9.503314513997802"><ele>477.6</ele><time>2026-04-05T10:47:45Z</time></trkpt><trkpt lat="44.78368947079431" lon="9.503233587088378"><ele>479.20000000000005</ele><time>2026-04-05T10:47:47Z</time></trkpt><trkpt lat="44.78373443622673" lon="9.50314611393002"><ele>480.79999999999995</ele><time>2026-04-05T10:47:49Z</time></trkpt><trkpt lat="44.783773542063315" lon="9.50303842127304"><ele>482.4</ele><time>2026-04-05T10:47:52Z</time></trkpt><trkpt lat="44.78382973816291" lon="9.50295514184948"><ele>484.0</ele><time>2026-04-05T10:47:55Z</time></trkpt><trkpt lat="44.78390269222979" lon="9.50286135680566"><ele>489.5</ele><time>2026-04-05T10:47:57Z</time></trkpt><trkpt lat="44.78396480990044" lon="9.502803478853874"><ele>495.0</ele><time>2026-04-05T10:47:58Z</time></trkpt><trkpt lat="44.78415377840472" lon="9.502615787670582"><ele>500.5</ele><time>2026-04-05T10:48:00Z</time></trkpt><trkpt lat="44.784251961753995" lon="9.502544432924001"><ele>506.0</ele><time>2026-04-05T10:48:01Z</time></trkpt><trkpt lat="44.78433455033417" lon="9.502518977660005"><ele>506.99999999999994</ele><time>2026-04-05T10:48:02Z</time></trkpt><trkpt lat="44.78440447650715" lon="9.502512325330141"><ele>508.0</ele><time>2026-04-05T10:48:03Z</time></trkpt><trkpt lat="44.78445510490414" lon="9.502408262264"><ele>509.0</ele><time>2026-04-05T10:48:05Z</time></trkpt><trkpt lat="44.784415610404764" lon="9.50228439215549"><ele>510.0</ele><time>2026-04-05T10:48:07Z</time></trkpt><trkpt lat="44.78440314391955" lon="9.502181681349144"><ele>510.99999999999994</ele><time>2026-04-05T10:48:08Z</time></trkpt><trkpt lat="44.78438447716272" lon="9.502042328163363"><ele>512.0</ele><time>2026-04-05T10:48:10Z</time></trkpt><trkpt lat="44.784425988129435" lon="9.501926254741283"><ele>513.3333333333333</ele><time>2026-04-05T10:48:12Z</time></trkpt><trkpt lat="44.78443782898427" lon="9.501789526292738"><ele>514.6666666666666</ele><time>2026-04-05T10:48:14Z</time></trkpt><trkpt lat="44.78446726282609" lon="9.501710390186231"><ele>516.0</ele><time>2026-04-05T10:48:15Z</time></trkpt><trkpt lat="44.78449194877704" lon="9.501628197010506"><ele>517.3333333333334</ele><time>2026-04-05T10:48:16Z</time></trkpt><trkpt lat="44.784522310502666" lon="9.501507919134362"><ele>518.6666666666667</ele><time>2026-04-05T10:48:18Z</time></trkpt><trkpt lat="44.784490807416454" lon="9.501347916597464"><ele>520.0</ele><time>2026-04-05T10:48:20Z</time></trkpt><trkpt lat="44.784500328532054" lon="9.501250237160917"><ele>520.4</ele><time>2026-04-05T10:48:27Z</time></trkpt><trkpt lat="44.78456422355064" lon="9.501222884519244"><ele>520.8</ele><time>2026-04-05T10:48:29Z</time></trkpt><trkpt lat="44.78468317354845" lon="9.50123607431594"><ele>521.2</ele><time>2026-04-05T10:48:31Z</time></trkpt><trkpt lat="44.78479796252875" lon="9.501237640453791"><ele>521.6</ele><time>2026-04-05T10:48:32Z</time></trkpt><trkpt lat="44.784892713401135" lon="9.501213977597647"><ele>522.0</ele><time>2026-04-05T10:48:33Z</time></trkpt><trkpt lat="44.784989711783716" lon="9.501200606750453"><ele>522.0</ele><time>2026-04-05T10:48:34Z</time></trkpt><trkpt lat="44.78508609769308" lon="9.501185310582073"><ele>522.0</ele><time>2026-04-05T10:48:35Z</time></trkpt><trkpt lat="44.78518335958817" lon="9.501167664285509"><ele>522.0</ele><time>2026-04-05T10:48:36Z</time></trkpt><trkpt lat="44.78528394008672" lon="9.50115568293905"><ele>522.0</ele><time>2026-04-05T10:48:37Z</time></trkpt><trkpt lat="44.785387276106306" lon="9.501137873516843"><ele>522.0</ele><time>2026-04-05T10:48:38Z</time></trkpt><trkpt lat="44.78548696811927" lon="9.501112785462967"><ele>521.8000000000001</ele><time>2026-04-05T10:48:39Z</time></trkpt><trkpt lat="44.785583307774274" lon="9.501094036463964"><ele>521.6</ele><time>2026-04-05T10:48:40Z</time></trkpt><trkpt lat="44.785690728344186" lon="9.501070894832665"><ele>521.4000000000001</ele><time>2026-04-05T10:48:41Z</time></trkpt><trkpt lat="44.78580332859485" lon="9.501054670175638"><ele>521.2</ele><time>2026-04-05T10:48:42Z</time></trkpt><trkpt lat="44.785920388251505" lon="9.501047126143346"><ele>521.0</ele><time>2026-04-05T10:48:43Z</time></trkpt><trkpt lat="44.78602524749819" lon="9.501037670652591"><ele>521.3333333333333</ele><time>2026-04-05T10:48:44Z</time></trkpt><trkpt lat="44.78610138544123" lon="9.501032790558547"><ele>521.6666666666666</ele><time>2026-04-05T10:48:45Z</time></trkpt><trkpt lat="44.786178321001834" lon="9.501032545075708"><ele>522.0</ele><time>2026-04-05T10:48:47Z</time></trkpt><trkpt lat="44.786265115004156" lon="9.500985469121016"><ele>522.3333333333334</ele><time>2026-04-05T10:48:50Z</time></trkpt><trkpt lat="44.7863841059383" lon="9.50092623853742"><ele>522.6666666666667</ele><time>2026-04-05T10:48:52Z</time></trkpt><trkpt lat="44.78645354488943" lon="9.500897416282404"><ele>523.0</ele><time>2026-04-05T10:48:53Z</time></trkpt><trkpt lat="44.78652777799912" lon="9.500877831536908"><ele>523.0</ele><time>2026-04-05T10:48:54Z</time></trkpt><trkpt lat="44.786603117859194" lon="9.500862310246115"><ele>523.0</ele><time>2026-04-05T10:48:55Z</time></trkpt><trkpt lat="44.786683014152224" lon="9.500851521985114"><ele>523.0</ele><time>2026-04-05T10:48:56Z</time></trkpt><trkpt lat="44.78677740940471" lon="9.500840084891072"><ele>523.0</ele><time>2026-04-05T10:48:57Z</time></trkpt><trkpt lat="44.78688654570616" lon="9.50083212733997"><ele>523.0</ele><time>2026-04-05T10:48:58Z</time></trkpt><trkpt lat="44.787000500028164" lon="9.500854646836842"><ele>524.25</ele><time>2026-04-05T10:48:59Z</time></trkpt><trkpt lat="44.78710894740256" lon="9.50092055664192"><ele>525.5</ele><time>2026-04-05T10:49:00Z</time></trkpt><trkpt lat="44.78721686315192" lon="9.501009645748262"><ele>526.75</ele><time>2026-04-05T10:49:01Z</time></trkpt><trkpt lat="44.787323393340614" lon="9.501091223312779"><ele>528.0</ele><time>2026-04-05T10:49:02Z</time></trkpt><trkpt lat="44.787418679377126" lon="9.501182787867592"><ele>527.75</ele><time>2026-04-05T10:49:03Z</time></trkpt><trkpt lat="44.78751345501216" lon="9.501310697951666"><ele>527.5</ele><time>2026-04-05T10:49:04Z</time></trkpt><trkpt lat="44.78753904433687" lon="9.501488268688478"><ele>527.25</ele><time>2026-04-05T10:49:05Z</time></trkpt><trkpt lat="44.787701402293095" lon="9.501523604683424"><ele>527.0</ele><time>2026-04-05T10:49:06Z</time></trkpt><trkpt lat="44.787761150563796" lon="9.501618835674197"><ele>527.0</ele><time>2026-04-05T10:49:07Z</time></trkpt><trkpt lat="44.7878431668865" lon="9.501694503783181"><ele>527.0</ele><time>2026-04-05T10:49:09Z</time></trkpt><trkpt lat="44.787920338019184" lon="9.5016815444115"><ele>527.0</ele><time>2026-04-05T10:49:11Z</time></trkpt><trkpt lat="44.787991829931336" lon="9.501692113643479"><ele>527.0</ele><time>2026-04-05T10:49:13Z</time></trkpt><trkpt lat="44.78801443884562" lon="9.501819834865216"><ele>527.0</ele><time>2026-04-05T10:49:15Z</time></trkpt><trkpt lat="44.78805498056539" lon="9.501910457537015"><ele>527.0</ele><time>2026-04-05T10:49:16Z</time></trkpt><trkpt lat="44.78811871309299" lon="9.502012483860467"><ele>527.0</ele><time>2026-04-05T10:49:17Z</time></trkpt><trkpt lat="44.78816995912193" lon="9.502102282160688"><ele>527.0</ele><time>2026-04-05T10:49:18Z</time></trkpt><trkpt lat="44.78825702515401" lon="9.502169439757427"><ele>527.0</ele><time>2026-04-05T10:49:20Z</time></trkpt><trkpt lat="44.78831212631733" lon="9.502116542068235"><ele>527.0</ele><time>2026-04-05T10:49:22Z</time></trkpt><trkpt lat="44.78833138888332" lon="9.501963196647328"><ele>527.0</ele><time>2026-04-05T10:49:24Z</time></trkpt><trkpt lat="44.788330248869286" lon="9.501851847772457"><ele>527.0</ele><time>2026-04-05T10:49:25Z</time></trkpt><trkpt lat="44.78833157265847" lon="9.501714308382555"><ele>527.0</ele><time>2026-04-05T10:49:26Z</time></trkpt><trkpt lat="44.788341533820336" lon="9.501570473565863"><ele>527.0</ele><time>2026-04-05T10:49:27Z</time></trkpt><trkpt lat="44.788346410371055" lon="9.501441982175919"><ele>527.0</ele><time>2026-04-05T10:49:28Z</time></trkpt><trkpt lat="44.78833158393397" lon="9.501288541129341"><ele>527.0</ele><time>2026-04-05T10:49:29Z</time></trkpt><trkpt lat="44.788321900366995" lon="9.501160258921384"><ele>527.0</ele><time>2026-04-05T10:49:30Z</time></trkpt><trkpt lat="44.78833817638299" lon="9.501053626872027"><ele>529.4</ele><time>2026-04-05T10:49:31Z</time></trkpt><trkpt lat="44.78837431815402" lon="9.500938674190143"><ele>531.8000000000001</ele><time>2026-04-05T10:49:32Z</time></trkpt><trkpt lat="44.788427702865434" lon="9.500832023099079"><ele>534.2</ele><time>2026-04-05T10:49:33Z</time></trkpt><trkpt lat="44.78842326034852" lon="9.500733980177802"><ele>536.6</ele><time>2026-04-05T10:49:34Z</time></trkpt><trkpt lat="44.788361992607804" lon="9.500619708484813"><ele>539.0</ele><time>2026-04-05T10:49:35Z</time></trkpt><trkpt lat="44.788309541171415" lon="9.500473503765617"><ele>542.6</ele><time>2026-04-05T10:49:36Z</time></trkpt><trkpt lat="44.78826784817403" lon="9.500324636902192"><ele>546.2</ele><time>2026-04-05T10:49:37Z</time></trkpt><trkpt lat="44.78823592486087" lon="9.500172428022468"><ele>549.8000000000001</ele><time>2026-04-05T10:49:38Z</time></trkpt><trkpt lat="44.7882290919835" lon="9.500038683893433"><ele>553.4</ele><time>2026-04-05T10:49:39Z</time></trkpt><trkpt lat="44.788242910662575" lon="9.499914667098032"><ele>557.0</ele><time>2026-04-05T10:49:40Z</time></trkpt><trkpt lat="44.78823393095906" lon="9.499816373852125"><ele>557.0</ele><time>2026-04-05T10:49:41Z</time></trkpt><trkpt lat="44.78821124038992" lon="9.499680867597966"><ele>557.0</ele><time>2026-04-05T10:49:42Z</time></trkpt><trkpt lat="44.7882070148301" lon="9.499531144473535"><ele>557.0</ele><time>2026-04-05T10:49:43Z</time></trkpt><trkpt lat="44.788210913185644" lon="9.499363247638556"><ele>557.0</ele><time>2026-04-05T10:49:44Z</time></trkpt><trkpt lat="44.7881979515699" lon="9.499193556513235"><ele>557.0</ele><time>2026-04-05T10:49:45Z</time></trkpt><trkpt lat="44.78820420826157" lon="9.499071286188437"><ele>560.2</ele><time>2026-04-05T10:49:46Z</time></trkpt><trkpt lat="44.788286243392434" lon="9.499106048959135"><ele>563.4000000000001</ele><time>2026-04-05T10:49:49Z</time></trkpt><trkpt lat="44.78836028573567" lon="9.499029614481273"><ele>566.5999999999999</ele><time>2026-04-05T10:49:51Z</time></trkpt><trkpt lat="44.788435374297684" lon="9.499023713531656"><ele>569.8</ele><time>2026-04-05T10:49:54Z</time></trkpt><trkpt lat="44.7885485740583" lon="9.499034649845907"><ele>573.0</ele><time>2026-04-05T10:49:56Z</time></trkpt><trkpt lat="44.78865974369025" lon="9.49901867621199"><ele>573.5</ele><time>2026-04-05T10:49:58Z</time></trkpt><trkpt lat="44.78873936699851" lon="9.499006851595487"><ele>574.0</ele><time>2026-04-05T10:50:00Z</time></trkpt><trkpt lat="44.78888423494285" lon="9.498987111069303"><ele>574.5</ele><time>2026-04-05T10:50:02Z</time></trkpt><trkpt lat="44.788994767156716" lon="9.4989726667623"><ele>575.0</ele><time>2026-04-05T10:50:03Z</time></trkpt><trkpt lat="44.789110162062094" lon="9.498943230013072"><ele>575.0</ele><time>2026-04-05T10:50:04Z</time></trkpt><trkpt lat="44.78920091491541" lon="9.498904355505262"><ele>575.0</ele><time>2026-04-05T10:50:05Z</time></trkpt><trkpt lat="44.78927535723285" lon="9.498870977796507"><ele>575.0</ele><time>2026-04-05T10:50:06Z</time></trkpt><trkpt lat="44.789342403046085" lon="9.498837957260873"><ele>575.0</ele><time>2026-04-05T10:50:07Z</time></trkpt><trkpt lat="44.78940936773403" lon="9.498776932924745"><ele>575.0</ele><time>2026-04-05T10:50:08Z</time></trkpt><trkpt lat="44.78948170898199" lon="9.498665829037753"><ele>575.0</ele><time>2026-04-05T10:50:09Z</time></trkpt><trkpt lat="44.78955365587213" lon="9.498527762199979"><ele>573.4</ele><time>2026-04-05T10:50:10Z</time></trkpt><trkpt lat="44.78962876366043" lon="9.498420918873803"><ele>571.8</ele><time>2026-04-05T10:50:11Z</time></trkpt><trkpt lat="44.789701955152196" lon="9.498340861333922"><ele>570.2</ele><time>2026-04-05T10:50:12Z</time></trkpt><trkpt lat="44.78977975372442" lon="9.498271171386614"><ele>568.6</ele><time>2026-04-05T10:50:13Z</time></trkpt><trkpt lat="44.78986228722274" lon="9.498223935172359"><ele>567.0</ele><time>2026-04-05T10:50:14Z</time></trkpt><trkpt lat="44.78995125853275" lon="9.498188551999498"><ele>567.0</ele><time>2026-04-05T10:50:15Z</time></trkpt><trkpt lat="44.79003558351996" lon="9.49814183763756"><ele>567.0</ele><time>2026-04-05T10:50:16Z</time></trkpt><trkpt lat="44.79011324181549" lon="9.498084016448926"><ele>567.0</ele><time>2026-04-05T10:50:17Z</time></trkpt><trkpt lat="44.79018646049883" lon="9.49801604584675"><ele>567.0</ele><time>2026-04-05T10:50:18Z</time></trkpt><trkpt lat="44.79026815389907" lon="9.497967549679167"><ele>567.0</ele><time>2026-04-05T10:50:19Z</time></trkpt><trkpt lat="44.79034663504858" lon="9.497994390184871"><ele>567.0</ele><time>2026-04-05T10:50:20Z</time></trkpt><trkpt lat="44.79043870117396" lon="9.498028112475193"><ele>563.8333333333334</ele><time>2026-04-05T10:50:21Z</time></trkpt><trkpt lat="44.79052798937591" lon="9.49806018535112"><ele>560.6666666666666</ele><time>2026-04-05T10:50:22Z</time></trkpt><trkpt lat="44.790619697794064" lon="9.498077659988592"><ele>557.5</ele><time>2026-04-05T10:50:23Z</time></trkpt><trkpt lat="44.790718164048755" lon="9.498113439195881"><ele>554.3333333333333</ele><time>2026-04-05T10:50:24Z</time></trkpt><trkpt lat="44.790796794476734" lon="9.498152646170958"><ele>551.1666666666666</ele><time>2026-04-05T10:50:25Z</time></trkpt><trkpt lat="44.790862855802416" lon="9.498197604342556"><ele>548.0</ele><time>2026-04-05T10:50:27Z</time></trkpt><trkpt lat="44.79086899136251" lon="9.498085574242937"><ele>548.0</ele><time>2026-04-05T10:50:29Z</time></trkpt><trkpt lat="44.79086869161905" lon="9.497921125749848"><ele>548.0</ele><time>2026-04-05T10:50:31Z</time></trkpt><trkpt lat="44.79085659960062" lon="9.497816307848721"><ele>548.0</ele><time>2026-04-05T10:50:32Z</time></trkpt><trkpt lat="44.7908617162313" lon="9.497678125686809"><ele>548.0</ele><time>2026-04-05T10:50:33Z</time></trkpt><trkpt lat="44.79088861646014" lon="9.497548052161138"><ele>548.0</ele><time>2026-04-05T10:50:34Z</time></trkpt><trkpt lat="44.79093198899665" lon="9.49742611419882"><ele>549.1666666666666</ele><time>2026-04-05T10:50:35Z</time></trkpt><trkpt lat="44.79098829480996" lon="9.49731967286988"><ele>550.3333333333333</ele><time>2026-04-05T10:50:36Z</time></trkpt><trkpt lat="44.791045413223294" lon="9.497255100372893"><ele>551.5</ele><time>2026-04-05T10:50:37Z</time></trkpt><trkpt lat="44.79109337296463" lon="9.4971880385463"><ele>552.6666666666666</ele><time>2026-04-05T10:50:38Z</time></trkpt><trkpt lat="44.791109142711136" lon="9.497086898446298"><ele>553.8333333333334</ele><time>2026-04-05T10:50:39Z</time></trkpt><trkpt lat="44.79109096834851" lon="9.496980777032643"><ele>555.0</ele><time>2026-04-05T10:50:40Z</time></trkpt><trkpt lat="44.79105865320846" lon="9.496886143646712"><ele>555.0</ele><time>2026-04-05T10:50:41Z</time></trkpt><trkpt lat="44.7910421502205" lon="9.496778609263746"><ele>555.0</ele><time>2026-04-05T10:50:43Z</time></trkpt><trkpt lat="44.79110707832347" lon="9.49675743583626"><ele>555.0</ele><time>2026-04-05T10:50:44Z</time></trkpt><trkpt lat="44.791176569037304" lon="9.496767268546241"><ele>555.0</ele><time>2026-04-05T10:50:45Z</time></trkpt><trkpt lat="44.791271548831375" lon="9.49680224472903"><ele>555.0</ele><time>2026-04-05T10:50:46Z</time></trkpt><trkpt lat="44.79138662163256" lon="9.496836384203462"><ele>555.0</ele><time>2026-04-05T10:50:47Z</time></trkpt><trkpt lat="44.791499416626074" lon="9.496861354194735"><ele>555.0</ele><time>2026-04-05T10:50:48Z</time></trkpt><trkpt lat="44.7915766062289" lon="9.49685735641957"><ele>555.0</ele><time>2026-04-05T10:50:49Z</time></trkpt><trkpt lat="44.79165668692765" lon="9.496830791333394"><ele>555.0</ele><time>2026-04-05T10:50:50Z</time></trkpt><trkpt lat="44.79174268949129" lon="9.496789493227057"><ele>555.0</ele><time>2026-04-05T10:50:51Z</time></trkpt><trkpt lat="44.79183130230262" lon="9.49676679873349"><ele>555.0</ele><time>2026-04-05T10:50:52Z</time></trkpt><trkpt lat="44.79191595136502" lon="9.49679932362191"><ele>555.0</ele><time>2026-04-05T10:50:53Z</time></trkpt><trkpt lat="44.79201529167224" lon="9.496872426830778"><ele>554.25</ele><time>2026-04-05T10:50:54Z</time></trkpt><trkpt lat="44.792126901847304" lon="9.496969683047134"><ele>553.5</ele><time>2026-04-05T10:50:55Z</time></trkpt><trkpt lat="44.79225359827767" lon="9.497070630471649"><ele>552.75</ele><time>2026-04-05T10:50:56Z</time></trkpt><trkpt lat="44.79237454302837" lon="9.497148131983383"><ele>552.0</ele><time>2026-04-05T10:50:57Z</time></trkpt><trkpt lat="44.792512092677654" lon="9.49721757487513"><ele>552.0</ele><time>2026-04-05T10:50:58Z</time></trkpt><trkpt lat="44.79264640882592" lon="9.49727054355307"><ele>552.0</ele><time>2026-04-05T10:50:59Z</time></trkpt><trkpt lat="44.792772704600345" lon="9.497316731394829"><ele>552.0</ele><time>2026-04-05T10:51:00Z</time></trkpt><trkpt lat="44.7928881943596" lon="9.49739709592538"><ele>552.0</ele><time>2026-04-05T10:51:01Z</time></trkpt><trkpt lat="44.79299849552897" lon="9.497488408832602"><ele>554.0</ele><time>2026-04-05T10:51:02Z</time></trkpt><trkpt lat="44.793091414746385" lon="9.497541152449292"><ele>556.0</ele><time>2026-04-05T10:51:03Z</time></trkpt><trkpt lat="44.793154237087116" lon="9.49756827904362"><ele>558.0</ele><time>2026-04-05T10:51:04Z</time></trkpt><trkpt lat="44.79321985684343" lon="9.49749131566654"><ele>560.0</ele><time>2026-04-05T10:51:07Z</time></trkpt><trkpt lat="44.79322119906499" lon="9.4973948161134"><ele>562.0</ele><time>2026-04-05T10:51:09Z</time></trkpt><trkpt lat="44.793266457470736" lon="9.497313756094595"><ele>564.0</ele><time>2026-04-05T10:51:12Z</time></trkpt><trkpt lat="44.79329678135002" lon="9.497233937159319"><ele>564.0</ele><time>2026-04-05T10:51:13Z</time></trkpt><trkpt lat="44.79331139742317" lon="9.497115970355212"><ele>564.0</ele><time>2026-04-05T10:51:14Z</time></trkpt><trkpt lat="44.79335847335462" lon="9.497000013218825"><ele>564.0</ele><time>2026-04-05T10:51:16Z</time></trkpt><trkpt lat="44.79343143267312" lon="9.496871954172068"><ele>564.0</ele><time>2026-04-05T10:51:18Z</time></trkpt><trkpt lat="44.79344970341251" lon="9.496746900381721"><ele>564.0</ele><time>2026-04-05T10:51:20Z</time></trkpt><trkpt lat="44.79349212728931" lon="9.496622949560285"><ele>564.8333333333334</ele><time>2026-04-05T10:51:22Z</time></trkpt><trkpt lat="44.79352249097347" lon="9.49653148656885"><ele>565.6666666666666</ele><time>2026-04-05T10:51:23Z</time></trkpt><trkpt lat="44.79352138734584" lon="9.496441438134642"><ele>566.5</ele><time>2026-04-05T10:51:24Z</time></trkpt><trkpt lat="44.79346984343499" lon="9.496329118083361"><ele>567.3333333333333</ele><time>2026-04-05T10:51:25Z</time></trkpt><trkpt lat="44.79343465388946" lon="9.496217586355302"><ele>568.1666666666666</ele><time>2026-04-05T10:51:26Z</time></trkpt><trkpt lat="44.79341163584568" lon="9.496118028640803"><ele>569.0</ele><time>2026-04-05T10:51:27Z</time></trkpt><trkpt lat="44.793413997590335" lon="9.495996775053758"><ele>570.8333333333333</ele><time>2026-04-05T10:51:28Z</time></trkpt><trkpt lat="44.79340378271569" lon="9.495868954953055"><ele>572.6666666666666</ele><time>2026-04-05T10:51:29Z</time></trkpt><trkpt lat="44.79338846806631" lon="9.495738351129292"><ele>574.5</ele><time>2026-04-05T10:51:30Z</time></trkpt><trkpt lat="44.79336147510568" lon="9.49562115387132"><ele>576.3333333333334</ele><time>2026-04-05T10:51:31Z</time></trkpt><trkpt lat="44.793327621093894" lon="9.49551070784052"><ele>578.1666666666667</ele><time>2026-04-05T10:51:32Z</time></trkpt><trkpt lat="44.79331192288238" lon="9.495399948389204"><ele>580.0</ele><time>2026-04-05T10:51:33Z</time></trkpt><trkpt lat="44.79327171856444" lon="9.495286728642359"><ele>581.8</ele><time>2026-04-05T10:51:34Z</time></trkpt><trkpt lat="44.79322704768451" lon="9.495170069713119"><ele>583.6</ele><time>2026-04-05T10:51:35Z</time></trkpt><trkpt lat="44.79318734958077" lon="9.495061226615613"><ele>585.4</ele><time>2026-04-05T10:51:36Z</time></trkpt><trkpt lat="44.793145510199025" lon="9.494968964515948"><ele>587.2</ele><time>2026-04-05T10:51:37Z</time></trkpt><trkpt lat="44.793098411340864" lon="9.494900531885017"><ele>589.0</ele><time>2026-04-05T10:51:38Z</time></trkpt><trkpt lat="44.792968709261494" lon="9.494806614703041"><ele>589.0</ele><time>2026-04-05T10:51:40Z</time></trkpt><trkpt lat="44.79291260184539" lon="9.494728320218405"><ele>589.0</ele><time>2026-04-05T10:51:41Z</time></trkpt><trkpt lat="44.79287516394934" lon="9.494626186069473"><ele>589.0</ele><time>2026-04-05T10:51:42Z</time></trkpt><trkpt lat="44.792834560429" lon="9.4944989940699"><ele>589.0</ele><time>2026-04-05T10:51:43Z</time></trkpt><trkpt lat="44.792788984268874" lon="9.49435618235436"><ele>589.0</ele><time>2026-04-05T10:51:44Z</time></trkpt><trkpt lat="44.792729505424845" lon="9.494184777814802"><ele>592.0</ele><time>2026-04-05T10:51:45Z</time></trkpt><trkpt lat="44.792672000318056" lon="9.494024152768677"><ele>595.0</ele><time>2026-04-05T10:51:46Z</time></trkpt><trkpt lat="44.79263355825615" lon="9.493951757557847"><ele>598.0</ele><time>2026-04-05T10:51:47Z</time></trkpt><trkpt lat="44.792561793609316" lon="9.493901718070239"><ele>601.0</ele><time>2026-04-05T10:51:49Z</time></trkpt><trkpt lat="44.79255757934068" lon="9.493787457063698"><ele>604.0</ele><time>2026-04-05T10:51:51Z</time></trkpt><trkpt lat="44.79251100005376" lon="9.493624317532587"><ele>605.3333333333334</ele><time>2026-04-05T10:51:53Z</time></trkpt><trkpt lat="44.792473770439955" lon="9.493520992219983"><ele>606.6666666666667</ele><time>2026-04-05T10:51:54Z</time></trkpt><trkpt lat="44.79243314868133" lon="9.493414360135512"><ele>608.0</ele><time>2026-04-05T10:51:56Z</time></trkpt><trkpt lat="44.79236646837712" lon="9.493426260187745"><ele>609.3333333333334</ele><time>2026-04-05T10:52:06Z</time></trkpt><trkpt lat="44.79229413976673" lon="9.493443891105837"><ele>610.6666666666666</ele><time>2026-04-05T10:52:09Z</time></trkpt><trkpt lat="44.7921599572432" lon="9.493420565560221"><ele>612.0</ele><time>2026-04-05T10:52:11Z</time></trkpt><trkpt lat="44.792080035957845" lon="9.493376793901483"><ele>612.0</ele><time>2026-04-05T10:52:12Z</time></trkpt><trkpt lat="44.7920241689789" lon="9.493323232791159"><ele>612.0</ele><time>2026-04-05T10:52:13Z</time></trkpt><trkpt lat="44.791954891056626" lon="9.493245737550632"><ele>612.0</ele><time>2026-04-05T10:52:14Z</time></trkpt><trkpt lat="44.79187135498534" lon="9.493133261360946"><ele>612.0</ele><time>2026-04-05T10:52:15Z</time></trkpt><trkpt lat="44.79179823536534" lon="9.493027132304217"><ele>612.0</ele><time>2026-04-05T10:52:16Z</time></trkpt><trkpt lat="44.791742039970494" lon="9.49292508400983"><ele>614.2</ele><time>2026-04-05T10:52:17Z</time></trkpt><trkpt lat="44.791700147820244" lon="9.492803976442955"><ele>616.4000000000001</ele><time>2026-04-05T10:52:18Z</time></trkpt><trkpt lat="44.79166461440814" lon="9.492678016323708"><ele>618.5999999999999</ele><time>2026-04-05T10:52:19Z</time></trkpt><trkpt lat="44.791635844234264" lon="9.49253834659448"><ele>620.8</ele><time>2026-04-05T10:52:20Z</time></trkpt><trkpt lat="44.79163114581282" lon="9.49241022195837"><ele>623.0</ele><time>2026-04-05T10:52:21Z</time></trkpt><trkpt lat="44.791647660401814" lon="9.49230710384612"><ele>623.0</ele><time>2026-04-05T10:52:22Z</time></trkpt><trkpt lat="44.79168092177185" lon="9.492203117057507"><ele>623.0</ele><time>2026-04-05T10:52:23Z</time></trkpt><trkpt lat="44.79171158926482" lon="9.492101398177278"><ele>623.0</ele><time>2026-04-05T10:52:24Z</time></trkpt><trkpt lat="44.791746452668804" lon="9.491978626629914"><ele>623.0</ele><time>2026-04-05T10:52:25Z</time></trkpt><trkpt lat="44.7917891978218" lon="9.491861664794927"><ele>623.0</ele><time>2026-04-05T10:52:26Z</time></trkpt><trkpt lat="44.7918424153777" lon="9.491748025419032"><ele>623.0</ele><time>2026-04-05T10:52:27Z</time></trkpt><trkpt lat="44.79189837633821" lon="9.491635993515407"><ele>624.25</ele><time>2026-04-05T10:52:28Z</time></trkpt><trkpt lat="44.79195504089825" lon="9.491526582613876"><ele>625.5</ele><time>2026-04-05T10:52:29Z</time></trkpt><trkpt lat="44.79200995904264" lon="9.491398934702435"><ele>626.75</ele><time>2026-04-05T10:52:30Z</time></trkpt><trkpt lat="44.79206087585406" lon="9.491257318719203"><ele>628.0</ele><time>2026-04-05T10:52:31Z</time></trkpt><trkpt lat="44.792167575223736" lon="9.491080109035098"><ele>628.5</ele><time>2026-04-05T10:52:32Z</time></trkpt><trkpt lat="44.79219407208627" lon="9.49097916149598"><ele>629.0</ele><time>2026-04-05T10:52:33Z</time></trkpt><trkpt lat="44.79220679823502" lon="9.490888891477228"><ele>629.5</ele><time>2026-04-05T10:52:34Z</time></trkpt><trkpt lat="44.7921960217108" lon="9.490791197935147"><ele>630.0</ele><time>2026-04-05T10:52:35Z</time></trkpt><trkpt lat="44.79214161475737" lon="9.490713823800776"><ele>630.5</ele><time>2026-04-05T10:52:36Z</time></trkpt><trkpt lat="44.792077882681376" lon="9.490675872449401"><ele>631.0</ele><time>2026-04-05T10:52:37Z</time></trkpt><trkpt lat="44.79195145181695" lon="9.490646119264845"><ele>631.0</ele><time>2026-04-05T10:52:39Z</time></trkpt><trkpt lat="44.79188267020224" lon="9.490631233789678"><ele>631.0</ele><time>2026-04-05T10:52:40Z</time></trkpt><trkpt lat="44.7918055258559" lon="9.490609579654823"><ele>631.0</ele><time>2026-04-05T10:52:41Z</time></trkpt><trkpt lat="44.79172635303376" lon="9.49058605806683"><ele>631.0</ele><time>2026-04-05T10:52:42Z</time></trkpt><trkpt lat="44.79164150318006" lon="9.490553590694605"><ele>631.0</ele><time>2026-04-05T10:52:43Z</time></trkpt><trkpt lat="44.79156010463191" lon="9.490528445488982"><ele>631.0</ele><time>2026-04-05T10:52:44Z</time></trkpt><trkpt lat="44.79145909876297" lon="9.490516001829825"><ele>634.25</ele><time>2026-04-05T10:52:45Z</time></trkpt><trkpt lat="44.791330514816295" lon="9.490484622137672"><ele>637.5</ele><time>2026-04-05T10:52:46Z</time></trkpt><trkpt lat="44.79118396539146" lon="9.490447149796857"><ele>640.75</ele><time>2026-04-05T10:52:47Z</time></trkpt><trkpt lat="44.791038425630376" lon="9.49041741322039"><ele>644.0</ele><time>2026-04-05T10:52:48Z</time></trkpt><trkpt lat="44.79091931947534" lon="9.490389686817275"><ele>647.75</ele><time>2026-04-05T10:52:49Z</time></trkpt><trkpt lat="44.7907990537687" lon="9.490330341274245"><ele>651.5</ele><time>2026-04-05T10:52:50Z</time></trkpt><trkpt lat="44.79066904622321" lon="9.490228958417688"><ele>655.25</ele><time>2026-04-05T10:52:51Z</time></trkpt><trkpt lat="44.790543375298846" lon="9.490096494971763"><ele>659.0</ele><time>2026-04-05T10:52:52Z</time></trkpt><trkpt lat="44.79044038902747" lon="9.489975909137177"><ele>659.0</ele><time>2026-04-05T10:52:53Z</time></trkpt><trkpt lat="44.79034406866464" lon="9.489877279588876"><ele>659.0</ele><time>2026-04-05T10:52:54Z</time></trkpt><trkpt lat="44.79026578264207" lon="9.489798197651828"><ele>659.0</ele><time>2026-04-05T10:52:55Z</time></trkpt><trkpt lat="44.790205299355065" lon="9.489708388238062"><ele>659.0</ele><time>2026-04-05T10:52:57Z</time></trkpt><trkpt lat="44.79026817357937" lon="9.489647220061874"><ele>659.0</ele><time>2026-04-05T10:52:59Z</time></trkpt><trkpt lat="44.790317697048714" lon="9.489578932234812"><ele>659.0</ele><time>2026-04-05T10:53:01Z</time></trkpt><trkpt lat="44.790340911014596" lon="9.489471155909131"><ele>659.0</ele><time>2026-04-05T10:53:03Z</time></trkpt><trkpt lat="44.7904266805517" lon="9.489475917684388"><ele>659.0</ele><time>2026-04-05T10:53:06Z</time></trkpt><trkpt lat="44.79047112825989" lon="9.48954992360229"><ele>659.0</ele><time>2026-04-05T10:53:08Z</time></trkpt><trkpt lat="44.790479640318274" lon="9.489679169747827"><ele>659.0</ele><time>2026-04-05T10:53:10Z</time></trkpt><trkpt lat="44.790440175844644" lon="9.489775000626267"><ele>659.0</ele><time>2026-04-05T10:53:12Z</time></trkpt><trkpt lat="44.79041319588326" lon="9.489889177353598"><ele>659.0</ele><time>2026-04-05T10:53:15Z</time></trkpt><trkpt lat="44.79048048180033" lon="9.489906340629583"><ele>659.0</ele><time>2026-04-05T10:53:18Z</time></trkpt><trkpt lat="44.79052132482804" lon="9.489748288975708"><ele>659.0</ele><time>2026-04-05T10:53:20Z</time></trkpt><trkpt lat="44.79053153136334" lon="9.489534063863507"><ele>659.0</ele><time>2026-04-05T10:53:22Z</time></trkpt><trkpt lat="44.79052545798756" lon="9.489403226631854"><ele>659.0</ele><time>2026-04-05T10:53:23Z</time></trkpt><trkpt lat="44.790505031873195" lon="9.48927935145935"><ele>658.6</ele><time>2026-04-05T10:53:24Z</time></trkpt><trkpt lat="44.79046669706717" lon="9.489132462582976"><ele>658.2</ele><time>2026-04-05T10:53:25Z</time></trkpt><trkpt lat="44.79044385329726" lon="9.489035043377317"><ele>657.8000000000001</ele><time>2026-04-05T10:53:26Z</time></trkpt><trkpt lat="44.79049685843338" lon="9.488923526354125"><ele>657.4000000000001</ele><time>2026-04-05T10:53:28Z</time></trkpt><trkpt lat="44.79058347126133" lon="9.488916327534085"><ele>657.0</ele><time>2026-04-05T10:53:29Z</time></trkpt><trkpt lat="44.7906694209099" lon="9.488862660960711"><ele>657.0</ele><time>2026-04-05T10:53:30Z</time></trkpt><trkpt lat="44.790741608656845" lon="9.488820086709952"><ele>657.0</ele><time>2026-04-05T10:53:31Z</time></trkpt><trkpt lat="44.7908069948185" lon="9.488780293355498"><ele>657.0</ele><time>2026-04-05T10:53:32Z</time></trkpt><trkpt lat="44.79087003068993" lon="9.488741930362966"><ele>657.0</ele><time>2026-04-05T10:53:33Z</time></trkpt><trkpt lat="44.79095132430078" lon="9.488768437694942"><ele>657.0</ele><time>2026-04-05T10:53:34Z</time></trkpt><trkpt lat="44.79104861259347" lon="9.48866745154372"><ele>657.0</ele><time>2026-04-05T10:53:36Z</time></trkpt><trkpt lat="44.79108878424098" lon="9.488596378986335"><ele>651.6666666666666</ele><time>2026-04-05T10:53:37Z</time></trkpt><trkpt lat="44.79113126388027" lon="9.488522038156894"><ele>646.3333333333334</ele><time>2026-04-05T10:53:38Z</time></trkpt><trkpt lat="44.79116565493813" lon="9.4884439629886"><ele>641.0</ele><time>2026-04-05T10:53:39Z</time></trkpt><trkpt lat="44.791210397309875" lon="9.488310914813454"><ele>635.6666666666667</ele><time>2026-04-05T10:53:41Z</time></trkpt><trkpt lat="44.79119632609132" lon="9.488180496571552"><ele>630.3333333333334</ele><time>2026-04-05T10:53:43Z</time></trkpt><trkpt lat="44.79117458341357" lon="9.488059491895353"><ele>625.0</ele><time>2026-04-05T10:53:45Z</time></trkpt><trkpt lat="44.79124414665167" lon="9.487939712055857"><ele>622.4</ele><time>2026-04-05T10:53:47Z</time></trkpt><trkpt lat="44.79137580188965" lon="9.487897047716004"><ele>619.8</ele><time>2026-04-05T10:53:49Z</time></trkpt><trkpt lat="44.791455764228864" lon="9.487895942488684"><ele>617.2</ele><time>2026-04-05T10:53:50Z</time></trkpt><trkpt lat="44.791539950619054" lon="9.487889792177977"><ele>614.6</ele><time>2026-04-05T10:53:51Z</time></trkpt><trkpt lat="44.791623324252" lon="9.487877173129705"><ele>612.0</ele><time>2026-04-05T10:53:52Z</time></trkpt><trkpt lat="44.79170175440323" lon="9.487843351138785"><ele>612.0</ele><time>2026-04-05T10:53:53Z</time></trkpt><trkpt lat="44.791776919910596" lon="9.487784741735773"><ele>612.0</ele><time>2026-04-05T10:53:54Z</time></trkpt><trkpt lat="44.79184818617182" lon="9.487720265531447"><ele>612.0</ele><time>2026-04-05T10:53:55Z</time></trkpt><trkpt lat="44.79190030654114" lon="9.487660389978485"><ele>612.0</ele><time>2026-04-05T10:53:56Z</time></trkpt><trkpt lat="44.791978966472946" lon="9.487594344202492"><ele>612.0</ele><time>2026-04-05T10:53:58Z</time></trkpt><trkpt lat="44.79205389969766" lon="9.487635245190397"><ele>612.0</ele><time>2026-04-05T10:54:00Z</time></trkpt><trkpt lat="44.79211187820102" lon="9.487672439575242"><ele>609.1666666666666</ele><time>2026-04-05T10:54:01Z</time></trkpt><trkpt lat="44.79217690774591" lon="9.487705120302248"><ele>606.3333333333334</ele><time>2026-04-05T10:54:02Z</time></trkpt><trkpt lat="44.792238625521684" lon="9.487732196744776"><ele>603.5</ele><time>2026-04-05T10:54:03Z</time></trkpt><trkpt lat="44.79235975083439" lon="9.487717725202781"><ele>600.6666666666667</ele><time>2026-04-05T10:54:05Z</time></trkpt><trkpt lat="44.79242372655009" lon="9.487689431261307"><ele>597.8333333333334</ele><time>2026-04-05T10:54:06Z</time></trkpt><trkpt lat="44.79249768814488" lon="9.487653921243918"><ele>595.0</ele><time>2026-04-05T10:54:07Z</time></trkpt><trkpt lat="44.79257367817695" lon="9.487623332589457"><ele>595.0</ele><time>2026-04-05T10:54:08Z</time></trkpt><trkpt lat="44.792652114994794" lon="9.48759857414335"><ele>595.0</ele><time>2026-04-05T10:54:09Z</time></trkpt><trkpt lat="44.792731342851305" lon="9.48759239734581"><ele>595.0</ele><time>2026-04-05T10:54:10Z</time></trkpt><trkpt lat="44.79280086419402" lon="9.487596362696435"><ele>595.0</ele><time>2026-04-05T10:54:11Z</time></trkpt><trkpt lat="44.79291117507058" lon="9.48758391637181"><ele>595.0</ele><time>2026-04-05T10:54:13Z</time></trkpt><trkpt lat="44.79301406321805" lon="9.487507227935401"><ele>591.8</ele><time>2026-04-05T10:54:15Z</time></trkpt><trkpt lat="44.79309379332945" lon="9.487434334845222"><ele>588.6</ele><time>2026-04-05T10:54:16Z</time></trkpt><trkpt lat="44.793203751337764" lon="9.487354248950696"><ele>585.4</ele><time>2026-04-05T10:54:17Z</time></trkpt><trkpt lat="44.79329704908466" lon="9.487301534484445"><ele>582.2</ele><time>2026-04-05T10:54:18Z</time></trkpt><trkpt lat="44.79340474138776" lon="9.487242156745893"><ele>579.0</ele><time>2026-04-05T10:54:20Z</time></trkpt><trkpt lat="44.79347497851287" lon="9.487193588144896"><ele>575.2</ele><time>2026-04-05T10:54:21Z</time></trkpt><trkpt lat="44.79356167772305" lon="9.487158481145848"><ele>571.4</ele><time>2026-04-05T10:54:22Z</time></trkpt><trkpt lat="44.79365426827295" lon="9.48712363491492"><ele>567.6</ele><time>2026-04-05T10:54:23Z</time></trkpt><trkpt lat="44.79374495786979" lon="9.487075521933908"><ele>563.8</ele><time>2026-04-05T10:54:24Z</time></trkpt><trkpt lat="44.793833059288104" lon="9.487035663799125"><ele>560.0</ele><time>2026-04-05T10:54:25Z</time></trkpt><trkpt lat="44.7939166598958" lon="9.487011534405946"><ele>559.8333333333333</ele><time>2026-04-05T10:54:26Z</time></trkpt><trkpt lat="44.7939846612083" lon="9.486985487028857"><ele>559.6666666666666</ele><time>2026-04-05T10:54:27Z</time></trkpt><trkpt lat="44.794045754220804" lon="9.486956900837468"><ele>559.5</ele><time>2026-04-05T10:54:28Z</time></trkpt><trkpt lat="44.79415018572131" lon="9.486883847718135"><ele>559.3333333333334</ele><time>2026-04-05T10:54:30Z</time></trkpt><trkpt lat="44.794200440188604" lon="9.486827183899765"><ele>559.1666666666667</ele><time>2026-04-05T10:54:31Z</time></trkpt><trkpt lat="44.79426239367306" lon="9.486777601465208"><ele>559.0</ele><time>2026-04-05T10:54:32Z</time></trkpt><trkpt lat="44.794323474451964" lon="9.486736810019654"><ele>559.0</ele><time>2026-04-05T10:54:33Z</time></trkpt><trkpt lat="44.79438037966406" lon="9.486683118344098"><ele>559.0</ele><time>2026-04-05T10:54:35Z</time></trkpt><trkpt lat="44.7943291977335" lon="9.486558783746224"><ele>559.0</ele><time>2026-04-05T10:54:39Z</time></trkpt><trkpt lat="44.794271556028356" lon="9.486437431282951"><ele>559.0</ele><time>2026-04-05T10:54:40Z</time></trkpt><trkpt lat="44.794226286390504" lon="9.486306250435026"><ele>559.0</ele><time>2026-04-05T10:54:41Z</time></trkpt><trkpt lat="44.79419035325156" lon="9.486200190132811"><ele>557.6666666666667</ele><time>2026-04-05T10:54:42Z</time></trkpt><trkpt lat="44.79415747571125" lon="9.48612280624262"><ele>556.3333333333334</ele><time>2026-04-05T10:54:43Z</time></trkpt><trkpt lat="44.79410249868479" lon="9.48600801824889"><ele>555.0</ele><time>2026-04-05T10:54:45Z</time></trkpt><trkpt lat="44.79407946644387" lon="9.48592363650141"><ele>553.6666666666666</ele><time>2026-04-05T10:54:47Z</time></trkpt><trkpt lat="44.79419401748386" lon="9.48598380481311"><ele>552.3333333333333</ele><time>2026-04-05T10:54:51Z</time></trkpt><trkpt lat="44.794281422240275" lon="9.486029091545648"><ele>551.0</ele><time>2026-04-05T10:54:52Z</time></trkpt><trkpt lat="44.794346981916455" lon="9.486062451591463"><ele>548.6</ele><time>2026-04-05T10:54:53Z</time></trkpt><trkpt lat="44.79440879663786" lon="9.486096711784608"><ele>546.2</ele><time>2026-04-05T10:54:54Z</time></trkpt><trkpt lat="44.79447710651277" lon="9.48613640956199"><ele>543.8</ele><time>2026-04-05T10:54:56Z</time></trkpt><trkpt lat="44.79448986856413" lon="9.485832792609315"><ele>541.4</ele><time>2026-04-05T10:54:59Z</time></trkpt><trkpt lat="44.794506744854665" lon="9.48572331094754"><ele>539.0</ele><time>2026-04-05T10:55:00Z</time></trkpt><trkpt lat="44.794524612171756" lon="9.485634950814484"><ele>539.0</ele><time>2026-04-05T10:55:01Z</time></trkpt><trkpt lat="44.79459124404605" lon="9.485565100914462"><ele>539.0</ele><time>2026-04-05T10:55:02Z</time></trkpt><trkpt lat="44.79466225504205" lon="9.485482901074525"><ele>539.0</ele><time>2026-04-05T10:55:03Z</time></trkpt><trkpt lat="44.79473502936555" lon="9.48538114908311"><ele>539.0</ele><time>2026-04-05T10:55:04Z</time></trkpt><trkpt lat="44.79480153779393" lon="9.48528286034062"><ele>539.0</ele><time>2026-04-05T10:55:05Z</time></trkpt><trkpt lat="44.7948653055755" lon="9.485193390191172"><ele>539.0</ele><time>2026-04-05T10:55:06Z</time></trkpt><trkpt lat="44.79492393705384" lon="9.485108256962443"><ele>539.0</ele><time>2026-04-05T10:55:07Z</time></trkpt><trkpt lat="44.79496746572774" lon="9.485011071418668"><ele>539.0</ele><time>2026-04-05T10:55:08Z</time></trkpt><trkpt lat="44.794988424567194" lon="9.484890494003901"><ele>539.0</ele><time>2026-04-05T10:55:09Z</time></trkpt><trkpt lat="44.79499043573197" lon="9.484771290881188"><ele>539.0</ele><time>2026-04-05T10:55:10Z</time></trkpt><trkpt lat="44.795003437817165" lon="9.484660910645252"><ele>539.0</ele><time>2026-04-05T10:55:11Z</time></trkpt><trkpt lat="44.79502475271705" lon="9.48453965993027"><ele>537.8</ele><time>2026-04-05T10:55:12Z</time></trkpt><trkpt lat="44.79503728658434" lon="9.48440507959576"><ele>536.5999999999999</ele><time>2026-04-05T10:55:13Z</time></trkpt><trkpt lat="44.79501972714295" lon="9.484256247833246"><ele>535.4</ele><time>2026-04-05T10:55:14Z</time></trkpt><trkpt lat="44.79499848813745" lon="9.484110429952079"><ele>534.1999999999999</ele><time>2026-04-05T10:55:15Z</time></trkpt><trkpt lat="44.79501767830676" lon="9.483994885618108"><ele>533.0</ele><time>2026-04-05T10:55:16Z</time></trkpt><trkpt lat="44.79506783250599" lon="9.483887068415047"><ele>533.0</ele><time>2026-04-05T10:55:17Z</time></trkpt><trkpt lat="44.795124060987625" lon="9.483793987347157"><ele>533.0</ele><time>2026-04-05T10:55:18Z</time></trkpt><trkpt lat="44.79517197692262" lon="9.483716415376065"><ele>533.0</ele><time>2026-04-05T10:55:19Z</time></trkpt><trkpt lat="44.7952360741546" lon="9.483663216525777"><ele>533.0</ele><time>2026-04-05T10:55:20Z</time></trkpt><trkpt lat="44.795341217523266" lon="9.48368761930416"><ele>533.0</ele><time>2026-04-05T10:55:21Z</time></trkpt><trkpt lat="44.79546509417284" lon="9.48366270249127"><ele>535.75</ele><time>2026-04-05T10:55:22Z</time></trkpt><trkpt lat="44.79559057392059" lon="9.48359405963691"><ele>538.5</ele><time>2026-04-05T10:55:23Z</time></trkpt><trkpt lat="44.79569380368251" lon="9.483537153987339"><ele>541.25</ele><time>2026-04-05T10:55:24Z</time></trkpt><trkpt lat="44.79578682387071" lon="9.483472379976225"><ele>544.0</ele><time>2026-04-05T10:55:25Z</time></trkpt><trkpt lat="44.79588418025223" lon="9.483414029795357"><ele>544.0</ele><time>2026-04-05T10:55:26Z</time></trkpt><trkpt lat="44.79600015735355" lon="9.483360240991288"><ele>544.0</ele><time>2026-04-05T10:55:27Z</time></trkpt><trkpt lat="44.79610940235888" lon="9.483294458276667"><ele>544.0</ele><time>2026-04-05T10:55:28Z</time></trkpt><trkpt lat="44.7962192613258" lon="9.483236242269555"><ele>544.0</ele><time>2026-04-05T10:55:29Z</time></trkpt><trkpt lat="44.79633828270803" lon="9.483202431469044"><ele>543.25</ele><time>2026-04-05T10:55:30Z</time></trkpt><trkpt lat="44.7964624957149" lon="9.483188901579576"><ele>542.5</ele><time>2026-04-05T10:55:31Z</time></trkpt><trkpt lat="44.79659027313519" lon="9.483218313341448"><ele>541.75</ele><time>2026-04-05T10:55:32Z</time></trkpt><trkpt lat="44.796725894130525" lon="9.483215822832552"><ele>541.0</ele><time>2026-04-05T10:55:33Z</time></trkpt><trkpt lat="44.79685680725958" lon="9.483242808797977"><ele>541.0</ele><time>2026-04-05T10:55:34Z</time></trkpt><trkpt lat="44.79697684117476" lon="9.483261690393402"><ele>541.0</ele><time>2026-04-05T10:55:35Z</time></trkpt><trkpt lat="44.797082527000434" lon="9.483279328558636"><ele>541.0</ele><time>2026-04-05T10:55:36Z</time></trkpt><trkpt lat="44.79718926849329" lon="9.483287969442504"><ele>541.0</ele><time>2026-04-05T10:55:37Z</time></trkpt><trkpt lat="44.79730537458896" lon="9.48329176742684"><ele>541.0</ele><time>2026-04-05T10:55:38Z</time></trkpt><trkpt lat="44.79742793398051" lon="9.48331587321905"><ele>541.0</ele><time>2026-04-05T10:55:39Z</time></trkpt><trkpt lat="44.79755400782608" lon="9.483289871318826"><ele>541.0</ele><time>2026-04-05T10:55:40Z</time></trkpt><trkpt lat="44.797681587556" lon="9.48328030479185"><ele>541.0</ele><time>2026-04-05T10:55:41Z</time></trkpt><trkpt lat="44.797804162812184" lon="9.483268316667118"><ele>541.75</ele><time>2026-04-05T10:55:42Z</time></trkpt><trkpt lat="44.79792595993625" lon="9.483252181383586"><ele>542.5</ele><time>2026-04-05T10:55:43Z</time></trkpt><trkpt lat="44.79804863414776" lon="9.483234856255965"><ele>543.25</ele><time>2026-04-05T10:55:44Z</time></trkpt><trkpt lat="44.79818507778933" lon="9.483219475509804"><ele>544.0</ele><time>2026-04-05T10:55:45Z</time></trkpt><trkpt lat="44.79831905389444" lon="9.483221674794212"><ele>544.0</ele><time>2026-04-05T10:55:46Z</time></trkpt><trkpt lat="44.798442847843916" lon="9.48322061030092"><ele>544.0</ele><time>2026-04-05T10:55:47Z</time></trkpt><trkpt lat="44.79856128119456" lon="9.483223678539774"><ele>544.0</ele><time>2026-04-05T10:55:48Z</time></trkpt><trkpt lat="44.79868259453852" lon="9.483227197643647"><ele>544.0</ele><time>2026-04-05T10:55:49Z</time></trkpt><trkpt lat="44.79879607674213" lon="9.483252492628043"><ele>544.25</ele><time>2026-04-05T10:55:50Z</time></trkpt><trkpt lat="44.798911417090046" lon="9.48329336423597"><ele>544.5</ele><time>2026-04-05T10:55:51Z</time></trkpt><trkpt lat="44.79903305801731" lon="9.483341379337858"><ele>544.75</ele><time>2026-04-05T10:55:52Z</time></trkpt><trkpt lat="44.799161235673814" lon="9.483414665753841"><ele>545.0</ele><time>2026-04-05T10:55:53Z</time></trkpt><trkpt lat="44.79930007314395" lon="9.483454881337087"><ele>545.5</ele><time>2026-04-05T10:55:54Z</time></trkpt><trkpt lat="44.7994282798997" lon="9.483481700614007"><ele>546.0</ele><time>2026-04-05T10:55:55Z</time></trkpt><trkpt lat="44.799535392609556" lon="9.483509635312783"><ele>546.5</ele><time>2026-04-05T10:55:56Z</time></trkpt><trkpt lat="44.79964404338336" lon="9.483526238676003"><ele>547.0</ele><time>2026-04-05T10:55:57Z</time></trkpt><trkpt lat="44.799760798227275" lon="9.48353391214686"><ele>547.0</ele><time>2026-04-05T10:55:58Z</time></trkpt><trkpt lat="44.79988225520785" lon="9.483513326166554"><ele>547.0</ele><time>2026-04-05T10:55:59Z</time></trkpt><trkpt lat="44.800014799866965" lon="9.483471785217365"><ele>547.0</ele><time>2026-04-05T10:56:00Z</time></trkpt><trkpt lat="44.80014203181198" lon="9.483309296775063"><ele>547.0</ele><time>2026-04-05T10:56:01Z</time></trkpt><trkpt lat="44.80028460344358" lon="9.483357176859244"><ele>545.75</ele><time>2026-04-05T10:56:02Z</time></trkpt><trkpt lat="44.80040395658989" lon="9.48328789561275"><ele>544.5</ele><time>2026-04-05T10:56:03Z</time></trkpt><trkpt lat="44.800531352159915" lon="9.483280643970271"><ele>543.25</ele><time>2026-04-05T10:56:04Z</time></trkpt><trkpt lat="44.80064199213409" lon="9.483258004064488"><ele>542.0</ele><time>2026-04-05T10:56:05Z</time></trkpt><trkpt lat="44.80074188096419" lon="9.483222045115365"><ele>542.0</ele><time>2026-04-05T10:56:06Z</time></trkpt><trkpt lat="44.80082896681902" lon="9.483165636351805"><ele>542.0</ele><time>2026-04-05T10:56:07Z</time></trkpt><trkpt lat="44.80091770970034" lon="9.48309271227475"><ele>542.0</ele><time>2026-04-05T10:56:08Z</time></trkpt><trkpt lat="44.80100607168839" lon="9.483007407008973"><ele>542.0</ele><time>2026-04-05T10:56:09Z</time></trkpt><trkpt lat="44.80109334489514" lon="9.482899852873851"><ele>542.0</ele><time>2026-04-05T10:56:10Z</time></trkpt><trkpt lat="44.80117222455267" lon="9.482786772460097"><ele>540.6</ele><time>2026-04-05T10:56:11Z</time></trkpt><trkpt lat="44.80125667401909" lon="9.482691850661459"><ele>539.2</ele><time>2026-04-05T10:56:12Z</time></trkpt><trkpt lat="44.8013313554122" lon="9.482588783569083"><ele>537.8</ele><time>2026-04-05T10:56:13Z</time></trkpt><trkpt lat="44.8014124008346" lon="9.482515222484832"><ele>536.4</ele><time>2026-04-05T10:56:14Z</time></trkpt><trkpt lat="44.80151031926681" lon="9.482476282214678"><ele>535.0</ele><time>2026-04-05T10:56:15Z</time></trkpt><trkpt lat="44.801628807529134" lon="9.482503470999086"><ele>535.0</ele><time>2026-04-05T10:56:16Z</time></trkpt><trkpt lat="44.80176725536772" lon="9.4824941304904"><ele>535.0</ele><time>2026-04-05T10:56:17Z</time></trkpt><trkpt lat="44.8019051008661" lon="9.482512069842693"><ele>535.0</ele><time>2026-04-05T10:56:18Z</time></trkpt><trkpt lat="44.80203495949665" lon="9.482515170426964"><ele>535.0</ele><time>2026-04-05T10:56:19Z</time></trkpt><trkpt lat="44.80217302829836" lon="9.482500311007419"><ele>532.5</ele><time>2026-04-05T10:56:20Z</time></trkpt><trkpt lat="44.802316922631896" lon="9.48248047775275"><ele>530.0</ele><time>2026-04-05T10:56:21Z</time></trkpt><trkpt lat="44.80244693296959" lon="9.482449111670846"><ele>527.5</ele><time>2026-04-05T10:56:22Z</time></trkpt><trkpt lat="44.80256517917536" lon="9.48241372748552"><ele>525.0</ele><time>2026-04-05T10:56:23Z</time></trkpt><trkpt lat="44.80267908422591" lon="9.482368942801036"><ele>524.5</ele><time>2026-04-05T10:56:24Z</time></trkpt><trkpt lat="44.80279609304834" lon="9.48230576037383"><ele>524.0</ele><time>2026-04-05T10:56:25Z</time></trkpt><trkpt lat="44.80291280760136" lon="9.48221885046548"><ele>523.5</ele><time>2026-04-05T10:56:26Z</time></trkpt><trkpt lat="44.8030174816308" lon="9.48212999983554"><ele>523.0</ele><time>2026-04-05T10:56:27Z</time></trkpt><trkpt lat="44.803110927515675" lon="9.482029795497116"><ele>523.0</ele><time>2026-04-05T10:56:28Z</time></trkpt><trkpt lat="44.80321771372969" lon="9.481920754076723"><ele>523.0</ele><time>2026-04-05T10:56:29Z</time></trkpt><trkpt lat="44.80332040925248" lon="9.481782836265475"><ele>523.0</ele><time>2026-04-05T10:56:30Z</time></trkpt><trkpt lat="44.803440434159235" lon="9.481717204210147"><ele>523.0</ele><time>2026-04-05T10:56:31Z</time></trkpt><trkpt lat="44.80354693593294" lon="9.481627048088823"><ele>518.1999999999999</ele><time>2026-04-05T10:56:32Z</time></trkpt><trkpt lat="44.803626512907776" lon="9.481515116571922"><ele>513.4</ele><time>2026-04-05T10:56:33Z</time></trkpt><trkpt lat="44.80371133308682" lon="9.481420928040645"><ele>508.59999999999997</ele><time>2026-04-05T10:56:34Z</time></trkpt><trkpt lat="44.80379871536986" lon="9.481346349310119"><ele>503.79999999999995</ele><time>2026-04-05T10:56:35Z</time></trkpt><trkpt lat="44.80389159339365" lon="9.481302066643382"><ele>499.0</ele><time>2026-04-05T10:56:36Z</time></trkpt><trkpt lat="44.80397056994149" lon="9.481274089752265"><ele>502.2</ele><time>2026-04-05T10:56:37Z</time></trkpt><trkpt lat="44.80402972631012" lon="9.481240384670063"><ele>505.4</ele><time>2026-04-05T10:56:38Z</time></trkpt><trkpt lat="44.80407973889758" lon="9.481172310910962"><ele>508.6</ele><time>2026-04-05T10:56:40Z</time></trkpt><trkpt lat="44.80413618704792" lon="9.48096160692905"><ele>511.8</ele><time>2026-04-05T10:57:54Z</time></trkpt><trkpt lat="44.80414467152024" lon="9.480848845427273"><ele>515.0</ele><time>2026-04-05T10:57:55Z</time></trkpt><trkpt lat="44.804114301429365" lon="9.48072523457779"><ele>515.0</ele><time>2026-04-05T10:57:56Z</time></trkpt><trkpt lat="44.80411574614445" lon="9.480620612748902"><ele>515.0</ele><time>2026-04-05T10:57:57Z</time></trkpt><trkpt lat="44.804115746146145" lon="9.480482783428199"><ele>515.0</ele><time>2026-04-05T10:57:59Z</time></trkpt><trkpt lat="44.80412063034829" lon="9.480363106374824"><ele>515.0</ele><time>2026-04-05T10:58:01Z</time></trkpt><trkpt lat="44.80410183650407" lon="9.48027371955621"><ele>515.0</ele><time>2026-04-05T10:58:02Z</time></trkpt><trkpt lat="44.80409195019071" lon="9.48015626949158"><ele>515.0</ele><time>2026-04-05T10:58:03Z</time></trkpt><trkpt lat="44.80409723230734" lon="9.480041038178095"><ele>514.6666666666666</ele><time>2026-04-05T10:58:04Z</time></trkpt><trkpt lat="44.80409285295083" lon="9.479926697132614"><ele>514.3333333333333</ele><time>2026-04-05T10:58:05Z</time></trkpt><trkpt lat="44.80406897259689" lon="9.479813540333565"><ele>514.0</ele><time>2026-04-05T10:58:06Z</time></trkpt><trkpt lat="44.80405477373536" lon="9.479700570001382"><ele>513.6666666666666</ele><time>2026-04-05T10:58:07Z</time></trkpt><trkpt lat="44.80402174304702" lon="9.479600621120102"><ele>513.3333333333334</ele><time>2026-04-05T10:58:08Z</time></trkpt><trkpt lat="44.80398186073575" lon="9.479507424992908"><ele>513.0</ele><time>2026-04-05T10:58:09Z</time></trkpt><trkpt lat="44.80394466102264" lon="9.479409359061803"><ele>510.8333333333333</ele><time>2026-04-05T10:58:10Z</time></trkpt><trkpt lat="44.80390604978571" lon="9.479305501410007"><ele>508.66666666666663</ele><time>2026-04-05T10:58:11Z</time></trkpt><trkpt lat="44.803870778583416" lon="9.479195246906446"><ele>506.5</ele><time>2026-04-05T10:58:12Z</time></trkpt><trkpt lat="44.80383934241861" lon="9.47907840364558"><ele>504.3333333333333</ele><time>2026-04-05T10:58:13Z</time></trkpt><trkpt lat="44.80380712363096" lon="9.478955276807023"><ele>502.16666666666663</ele><time>2026-04-05T10:58:14Z</time></trkpt><trkpt lat="44.80376655290594" lon="9.478844555563375"><ele>500.0</ele><time>2026-04-05T10:58:15Z</time></trkpt><trkpt lat="44.80375059869146" lon="9.478731618534486"><ele>499.3333333333333</ele><time>2026-04-05T10:58:16Z</time></trkpt><trkpt lat="44.80373833205531" lon="9.478616026079045"><ele>498.66666666666663</ele><time>2026-04-05T10:58:17Z</time></trkpt><trkpt lat="44.8037482343169" lon="9.478490604932638"><ele>498.0</ele><time>2026-04-05T10:58:18Z</time></trkpt><trkpt lat="44.80376105146912" lon="9.478373895363992"><ele>497.33333333333337</ele><time>2026-04-05T10:58:19Z</time></trkpt><trkpt lat="44.80379036403194" lon="9.478261964140346"><ele>496.6666666666667</ele><time>2026-04-05T10:58:20Z</time></trkpt><trkpt lat="44.80383806493977" lon="9.478158665335465"><ele>496.0</ele><time>2026-04-05T10:58:21Z</time></trkpt><trkpt lat="44.80389309916907" lon="9.478078003181821"><ele>496.0</ele><time>2026-04-05T10:58:22Z</time></trkpt><trkpt lat="44.803950549214605" lon="9.478008847010564"><ele>496.0</ele><time>2026-04-05T10:58:23Z</time></trkpt><trkpt lat="44.80402205212816" lon="9.47795538281554"><ele>496.0</ele><time>2026-04-05T10:58:24Z</time></trkpt><trkpt lat="44.80408933801101" lon="9.477878292678637"><ele>496.0</ele><time>2026-04-05T10:58:25Z</time></trkpt><trkpt lat="44.804086325433" lon="9.477648660791909"><ele>496.0</ele><time>2026-04-05T10:58:26Z</time></trkpt><trkpt lat="44.804109489422345" lon="9.477488026802225"><ele>496.5</ele><time>2026-04-05T10:58:27Z</time></trkpt><trkpt lat="44.80411349846015" lon="9.47733238056466"><ele>497.0</ele><time>2026-04-05T10:58:28Z</time></trkpt><trkpt lat="44.804136049053774" lon="9.477164801617308"><ele>497.5</ele><time>2026-04-05T10:58:29Z</time></trkpt><trkpt lat="44.80418765887605" lon="9.47699112196861"><ele>498.0</ele><time>2026-04-05T10:58:30Z</time></trkpt><trkpt lat="44.80425715373563" lon="9.476839891812826"><ele>498.5</ele><time>2026-04-05T10:58:31Z</time></trkpt><trkpt lat="44.80431582001298" lon="9.47671056452681"><ele>499.0</ele><time>2026-04-05T10:58:32Z</time></trkpt><trkpt lat="44.80438241817753" lon="9.47654255443795"><ele>499.5</ele><time>2026-04-05T10:58:33Z</time></trkpt><trkpt lat="44.8044841156015" lon="9.476355635968503"><ele>500.0</ele><time>2026-04-05T10:58:34Z</time></trkpt><trkpt lat="44.804575413628115" lon="9.476149386543643"><ele>496.8</ele><time>2026-04-05T10:58:35Z</time></trkpt><trkpt lat="44.804667695109224" lon="9.475974633066675"><ele>493.6</ele><time>2026-04-05T10:58:36Z</time></trkpt><trkpt lat="44.80473560072671" lon="9.475852619186332"><ele>490.4</ele><time>2026-04-05T10:58:37Z</time></trkpt><trkpt lat="44.80475241544827" lon="9.475750067552148"><ele>487.2</ele><time>2026-04-05T10:58:38Z</time></trkpt><trkpt lat="44.80480186333608" lon="9.475632840296308"><ele>484.0</ele><time>2026-04-05T10:58:39Z</time></trkpt><trkpt lat="44.80487944119367" lon="9.475482898127243"><ele>485.6</ele><time>2026-04-05T10:58:40Z</time></trkpt><trkpt lat="44.80495854271538" lon="9.475344728874438"><ele>487.2</ele><time>2026-04-05T10:58:41Z</time></trkpt><trkpt lat="44.80501174216049" lon="9.47524553803032"><ele>488.80000000000007</ele><time>2026-04-05T10:58:42Z</time></trkpt><trkpt lat="44.805051821876795" lon="9.475159746921252"><ele>490.40000000000003</ele><time>2026-04-05T10:58:43Z</time></trkpt><trkpt lat="44.80509352894503" lon="9.475036554603147"><ele>492.0</ele><time>2026-04-05T10:58:44Z</time></trkpt><trkpt lat="44.80508519789629" lon="9.474842518074796"><ele>492.0</ele><time>2026-04-05T10:58:45Z</time></trkpt><trkpt lat="44.80507330861873" lon="9.474656696843317"><ele>492.00000000000006</ele><time>2026-04-05T10:58:46Z</time></trkpt><trkpt lat="44.80504284164842" lon="9.474539305618594"><ele>492.00000000000006</ele><time>2026-04-05T10:58:47Z</time></trkpt><trkpt lat="44.804969281623244" lon="9.474430317645755"><ele>492.0</ele><time>2026-04-05T10:58:48Z</time></trkpt><trkpt lat="44.80489053692452" lon="9.47432562697525"><ele>492.0</ele><time>2026-04-05T10:58:49Z</time></trkpt><trkpt lat="44.80483368673722" lon="9.474222620062015"><ele>492.6</ele><time>2026-04-05T10:58:50Z</time></trkpt><trkpt lat="44.80485864442152" lon="9.47407415505821"><ele>493.20000000000005</ele><time>2026-04-05T10:58:52Z</time></trkpt><trkpt lat="44.80493896533176" lon="9.473942600356303"><ele>493.8</ele><time>2026-04-05T10:58:53Z</time></trkpt><trkpt lat="44.80497578173758" lon="9.473821458927537"><ele>494.4</ele><time>2026-04-05T10:58:54Z</time></trkpt><trkpt lat="44.804949808693785" lon="9.473702038521493"><ele>495.0</ele><time>2026-04-05T10:58:55Z</time></trkpt><trkpt lat="44.80491232204855" lon="9.473543564181158"><ele>496.0</ele><time>2026-04-05T10:58:56Z</time></trkpt><trkpt lat="44.80489085344363" lon="9.473380975959165"><ele>497.0</ele><time>2026-04-05T10:58:57Z</time></trkpt><trkpt lat="44.80487132854831" lon="9.473197958856723"><ele>498.0</ele><time>2026-04-05T10:58:58Z</time></trkpt><trkpt lat="44.804831296333425" lon="9.473080825725754"><ele>499.0</ele><time>2026-04-05T10:58:59Z</time></trkpt><trkpt lat="44.8047667833392" lon="9.472977921906047"><ele>500.0</ele><time>2026-04-05T10:59:00Z</time></trkpt><trkpt lat="44.804717910999884" lon="9.472847450769507"><ele>500.0</ele><time>2026-04-05T10:59:01Z</time></trkpt><trkpt lat="44.80465451066713" lon="9.472738594734322"><ele>500.0</ele><time>2026-04-05T10:59:02Z</time></trkpt><trkpt lat="44.80458855775783" lon="9.472657410397915"><ele>500.0</ele><time>2026-04-05T10:59:03Z</time></trkpt><trkpt lat="44.804523812835484" lon="9.472629821488107"><ele>500.0</ele><time>2026-04-05T10:59:04Z</time></trkpt><trkpt lat="44.80443463047746" lon="9.472621360702977"><ele>500.0</ele><time>2026-04-05T10:59:05Z</time></trkpt><trkpt lat="44.80431707898145" lon="9.472596124039057"><ele>499.0</ele><time>2026-04-05T10:59:06Z</time></trkpt><trkpt lat="44.80422955765374" lon="9.472584323183856"><ele>498.0</ele><time>2026-04-05T10:59:07Z</time></trkpt><trkpt lat="44.80411866434955" lon="9.472587937942228"><ele>497.0</ele><time>2026-04-05T10:59:08Z</time></trkpt><trkpt lat="44.8040212559898" lon="9.472599384460764"><ele>496.0</ele><time>2026-04-05T10:59:09Z</time></trkpt><trkpt lat="44.80394101329727" lon="9.472668964522278"><ele>495.0</ele><time>2026-04-05T10:59:11Z</time></trkpt><trkpt lat="44.80383288595912" lon="9.472651084843264"><ele>495.0</ele><time>2026-04-05T10:59:13Z</time></trkpt><trkpt lat="44.803760518240594" lon="9.472596601961069"><ele>495.0</ele><time>2026-04-05T10:59:14Z</time></trkpt><trkpt lat="44.803647397447726" lon="9.472595577673598"><ele>495.0</ele><time>2026-04-05T10:59:15Z</time></trkpt><trkpt lat="44.80355476419698" lon="9.472525298233354"><ele>495.0</ele><time>2026-04-05T10:59:17Z</time></trkpt><trkpt lat="44.803521904696176" lon="9.472393344678354"><ele>495.0</ele><time>2026-04-05T10:59:18Z</time></trkpt><trkpt lat="44.80348286878965" lon="9.472262037632408"><ele>494.6</ele><time>2026-04-05T10:59:19Z</time></trkpt><trkpt lat="44.803415821263435" lon="9.472187479533826"><ele>494.2</ele><time>2026-04-05T10:59:20Z</time></trkpt><trkpt lat="44.803326125186366" lon="9.472179691746394"><ele>493.79999999999995</ele><time>2026-04-05T10:59:21Z</time></trkpt><trkpt lat="44.80325361524321" lon="9.47212620730794"><ele>493.4</ele><time>2026-04-05T10:59:22Z</time></trkpt><trkpt lat="44.80321460470613" lon="9.47197837022609"><ele>493.0</ele><time>2026-04-05T10:59:23Z</time></trkpt><trkpt lat="44.803168151920154" lon="9.471817191900513"><ele>493.0</ele><time>2026-04-05T10:59:24Z</time></trkpt><trkpt lat="44.803115895693814" lon="9.471667222792707"><ele>493.0</ele><time>2026-04-05T10:59:25Z</time></trkpt><trkpt lat="44.803072827520914" lon="9.471517384095296"><ele>493.0</ele><time>2026-04-05T10:59:26Z</time></trkpt><trkpt lat="44.80302291828521" lon="9.471412113680302"><ele>493.0</ele><time>2026-04-05T10:59:27Z</time></trkpt><trkpt lat="44.80291409510801" lon="9.471260232696212"><ele>491.79999999999995</ele><time>2026-04-05T10:59:29Z</time></trkpt><trkpt lat="44.80284328665962" lon="9.471124700809524"><ele>490.59999999999997</ele><time>2026-04-05T10:59:30Z</time></trkpt><trkpt lat="44.80282449157007" lon="9.470995189509267"><ele>489.40000000000003</ele><time>2026-04-05T10:59:31Z</time></trkpt><trkpt lat="44.80278428130465" lon="9.470883948008812"><ele>488.20000000000005</ele><time>2026-04-05T10:59:32Z</time></trkpt><trkpt lat="44.80273110595421" lon="9.470759641460877"><ele>487.0</ele><time>2026-04-05T10:59:33Z</time></trkpt><trkpt lat="44.80265167951637" lon="9.470622813823214"><ele>489.25</ele><time>2026-04-05T10:59:34Z</time></trkpt><trkpt lat="44.802553574237464" lon="9.470497057525579"><ele>491.5</ele><time>2026-04-05T10:59:35Z</time></trkpt><trkpt lat="44.802454267682776" lon="9.470376224443452"><ele>493.75</ele><time>2026-04-05T10:59:36Z</time></trkpt><trkpt lat="44.802382237162774" lon="9.470258500392832"><ele>496.0</ele><time>2026-04-05T10:59:37Z</time></trkpt><trkpt lat="44.80233355941798" lon="9.470125191751555"><ele>496.0</ele><time>2026-04-05T10:59:38Z</time></trkpt><trkpt lat="44.8022681309896" lon="9.469998364576448"><ele>496.0</ele><time>2026-04-05T10:59:39Z</time></trkpt><trkpt lat="44.80221980092376" lon="9.469913585204846"><ele>496.0</ele><time>2026-04-05T10:59:40Z</time></trkpt><trkpt lat="44.80210930866724" lon="9.469752865186955"><ele>496.0</ele><time>2026-04-05T10:59:42Z</time></trkpt><trkpt lat="44.80204036824702" lon="9.469587971903955"><ele>495.1666666666667</ele><time>2026-04-05T10:59:43Z</time></trkpt><trkpt lat="44.80201583470051" lon="9.46942931824738"><ele>494.33333333333337</ele><time>2026-04-05T10:59:44Z</time></trkpt><trkpt lat="44.80201403968882" lon="9.469326631032141"><ele>493.5</ele><time>2026-04-05T10:59:45Z</time></trkpt><trkpt lat="44.80201302054026" lon="9.469226860845708"><ele>492.66666666666663</ele><time>2026-04-05T10:59:46Z</time></trkpt><trkpt lat="44.80200912303329" lon="9.46911989537128"><ele>491.8333333333333</ele><time>2026-04-05T10:59:47Z</time></trkpt><trkpt lat="44.80198804103762" lon="9.469022752957194"><ele>491.0</ele><time>2026-04-05T10:59:48Z</time></trkpt><trkpt lat="44.80199524845918" lon="9.468890690323299"><ele>493.6</ele><time>2026-04-05T10:59:50Z</time></trkpt><trkpt lat="44.80195990596063" lon="9.468731796571479"><ele>496.20000000000005</ele><time>2026-04-05T10:59:52Z</time></trkpt><trkpt lat="44.80189555111307" lon="9.468625624782069"><ele>498.79999999999995</ele><time>2026-04-05T10:59:53Z</time></trkpt><trkpt lat="44.801831220495096" lon="9.468517531228326"><ele>501.4</ele><time>2026-04-05T10:59:54Z</time></trkpt><trkpt lat="44.80180796328489" lon="9.46838477781751"><ele>504.0</ele><time>2026-04-05T10:59:55Z</time></trkpt><trkpt lat="44.80181226023986" lon="9.46824571508221"><ele>504.0</ele><time>2026-04-05T10:59:56Z</time></trkpt><trkpt lat="44.80183701796445" lon="9.46815836663237"><ele>504.0</ele><time>2026-04-05T10:59:57Z</time></trkpt><trkpt lat="44.80197778921408" lon="9.46815635214282"><ele>504.0</ele><time>2026-04-05T10:59:59Z</time></trkpt><trkpt lat="44.802096847431294" lon="9.468177758869977"><ele>504.0</ele><time>2026-04-05T11:00:00Z</time></trkpt><trkpt lat="44.8021818321294" lon="9.468160933071044"><ele>504.0</ele><time>2026-04-05T11:00:01Z</time></trkpt><trkpt lat="44.80222073243937" lon="9.468044547303418"><ele>504.8333333333333</ele><time>2026-04-05T11:00:02Z</time></trkpt><trkpt lat="44.80225593957204" lon="9.46785931035973"><ele>505.66666666666663</ele><time>2026-04-05T11:00:03Z</time></trkpt><trkpt lat="44.80231884491467" lon="9.467782454025429"><ele>506.5</ele><time>2026-04-05T11:00:04Z</time></trkpt><trkpt lat="44.8023836679964" lon="9.4677494201725"><ele>507.3333333333333</ele><time>2026-04-05T11:00:05Z</time></trkpt><trkpt lat="44.802425206725424" lon="9.467671543768859"><ele>508.16666666666663</ele><time>2026-04-05T11:00:06Z</time></trkpt><trkpt lat="44.802447894550994" lon="9.467568044740755"><ele>509.0</ele><time>2026-04-05T11:00:07Z</time></trkpt><trkpt lat="44.802440783028594" lon="9.467438014588009"><ele>508.99999999999994</ele><time>2026-04-05T11:00:08Z</time></trkpt><trkpt lat="44.802402659838656" lon="9.467318277219045"><ele>509.0</ele><time>2026-04-05T11:00:09Z</time></trkpt><trkpt lat="44.80233351206285" lon="9.467223723036385"><ele>509.0</ele><time>2026-04-05T11:00:10Z</time></trkpt><trkpt lat="44.802319540803445" lon="9.467136684981508"><ele>509.0</ele><time>2026-04-05T11:00:11Z</time></trkpt><trkpt lat="44.802356071546804" lon="9.467032922336303"><ele>508.99999999999994</ele><time>2026-04-05T11:00:12Z</time></trkpt><trkpt lat="44.802378262046496" lon="9.466885681789213"><ele>509.0</ele><time>2026-04-05T11:00:13Z</time></trkpt><trkpt lat="44.80236440169706" lon="9.466763455399535"><ele>509.99999999999994</ele><time>2026-04-05T11:00:14Z</time></trkpt><trkpt lat="44.80240874309057" lon="9.466661162322787"><ele>511.0</ele><time>2026-04-05T11:00:15Z</time></trkpt><trkpt lat="44.80246850622533" lon="9.466577752706577"><ele>512.0</ele><time>2026-04-05T11:00:16Z</time></trkpt><trkpt lat="44.80255777230246" lon="9.466551895423803"><ele>513.0</ele><time>2026-04-05T11:00:17Z</time></trkpt><trkpt lat="44.802588904952735" lon="9.466462829489085"><ele>514.0</ele><time>2026-04-05T11:00:18Z</time></trkpt><trkpt lat="44.802581999673706" lon="9.466306162277007"><ele>515.0</ele><time>2026-04-05T11:00:19Z</time></trkpt><trkpt lat="44.802593208725874" lon="9.466122347531101"><ele>518.0</ele><time>2026-04-05T11:00:20Z</time></trkpt><trkpt lat="44.802639609755786" lon="9.465939102337233"><ele>521.0</ele><time>2026-04-05T11:00:21Z</time></trkpt><trkpt lat="44.80268463214823" lon="9.465769527168478"><ele>524.0</ele><time>2026-04-05T11:00:22Z</time></trkpt><trkpt lat="44.802730479521415" lon="9.465592494020333"><ele>527.0</ele><time>2026-04-05T11:00:23Z</time></trkpt><trkpt lat="44.802783501131636" lon="9.465365466386436"><ele>519.5</ele><time>2026-04-05T11:00:24Z</time></trkpt><trkpt lat="44.80282960846002" lon="9.465187192774247"><ele>512.0</ele><time>2026-04-05T11:00:25Z</time></trkpt><trkpt lat="44.80288927988174" lon="9.465017525563475"><ele>504.5</ele><time>2026-04-05T11:00:26Z</time></trkpt><trkpt lat="44.80291830620097" lon="9.464871648642895"><ele>497.0</ele><time>2026-04-05T11:00:27Z</time></trkpt><trkpt lat="44.802915111111815" lon="9.46475156636953"><ele>495.25</ele><time>2026-04-05T11:00:28Z</time></trkpt><trkpt lat="44.80288583369761" lon="9.464580644978579"><ele>493.5</ele><time>2026-04-05T11:00:29Z</time></trkpt><trkpt lat="44.802841391714075" lon="9.464380877191596"><ele>491.75</ele><time>2026-04-05T11:00:30Z</time></trkpt><trkpt lat="44.80280230344173" lon="9.464177942294063"><ele>490.0</ele><time>2026-04-05T11:00:31Z</time></trkpt><trkpt lat="44.8027915553565" lon="9.464010589880244"><ele>490.0</ele><time>2026-04-05T11:00:32Z</time></trkpt><trkpt lat="44.80277412950637" lon="9.463861612160766"><ele>490.0</ele><time>2026-04-05T11:00:33Z</time></trkpt><trkpt lat="44.80280001393678" lon="9.46372538930155"><ele>490.0</ele><time>2026-04-05T11:00:34Z</time></trkpt><trkpt lat="44.802725769303365" lon="9.46358100047487"><ele>490.0</ele><time>2026-04-05T11:00:36Z</time></trkpt><trkpt lat="44.80262695706023" lon="9.463477604887661"><ele>491.5</ele><time>2026-04-05T11:00:37Z</time></trkpt><trkpt lat="44.80251002849795" lon="9.463404196603973"><ele>493.0</ele><time>2026-04-05T11:00:38Z</time></trkpt><trkpt lat="44.80238231634813" lon="9.46333670184798"><ele>494.5</ele><time>2026-04-05T11:00:39Z</time></trkpt><trkpt lat="44.80227035563852" lon="9.463279035614551"><ele>496.0</ele><time>2026-04-05T11:00:40Z</time></trkpt><trkpt lat="44.80216323748335" lon="9.463233139143231"><ele>496.0</ele><time>2026-04-05T11:00:41Z</time></trkpt><trkpt lat="44.80202526728471" lon="9.463213651908507"><ele>496.0</ele><time>2026-04-05T11:00:42Z</time></trkpt><trkpt lat="44.801904751261205" lon="9.463185054850246"><ele>496.0</ele><time>2026-04-05T11:00:43Z</time></trkpt><trkpt lat="44.801801754976246" lon="9.463117241655242"><ele>496.0</ele><time>2026-04-05T11:00:44Z</time></trkpt><trkpt lat="44.801700551364114" lon="9.463012206642448"><ele>494.8</ele><time>2026-04-05T11:00:45Z</time></trkpt><trkpt lat="44.80162006142393" lon="9.462914619912292"><ele>493.6</ele><time>2026-04-05T11:00:46Z</time></trkpt><trkpt lat="44.801525632664344" lon="9.462847072145376"><ele>492.4</ele><time>2026-04-05T11:00:47Z</time></trkpt><trkpt lat="44.80143773166609" lon="9.462720270593005"><ele>491.2</ele><time>2026-04-05T11:00:48Z</time></trkpt><trkpt lat="44.801329140634195" lon="9.462739804358629"><ele>490.0</ele><time>2026-04-05T11:00:49Z</time></trkpt><trkpt lat="44.80129655827696" lon="9.462876326957005"><ele>490.0</ele><time>2026-04-05T11:01:20Z</time></trkpt><trkpt lat="44.80126185720297" lon="9.462765014836348"><ele>490.0</ele><time>2026-04-05T11:01:54Z</time></trkpt><trkpt lat="44.8012011582554" lon="9.462643571744934"><ele>490.0</ele><time>2026-04-05T11:01:56Z</time></trkpt><trkpt lat="44.801137565374354" lon="9.462580425806365"><ele>490.0</ele><time>2026-04-05T11:01:57Z</time></trkpt><trkpt lat="44.80103840457625" lon="9.462473901065623"><ele>490.0</ele><time>2026-04-05T11:01:58Z</time></trkpt><trkpt lat="44.80095873513103" lon="9.462365472254108"><ele>494.2</ele><time>2026-04-05T11:01:59Z</time></trkpt><trkpt lat="44.80089591060496" lon="9.462226144174966"><ele>498.4</ele><time>2026-04-05T11:02:00Z</time></trkpt><trkpt lat="44.8008064479633" lon="9.462119927438529"><ele>502.6</ele><time>2026-04-05T11:02:01Z</time></trkpt><trkpt lat="44.80074403905567" lon="9.462020567479081"><ele>506.8</ele><time>2026-04-05T11:02:02Z</time></trkpt><trkpt lat="44.80074840659471" lon="9.461905641783272"><ele>511.0</ele><time>2026-04-05T11:02:03Z</time></trkpt><trkpt lat="44.800640228716325" lon="9.461802070797514"><ele>511.0</ele><time>2026-04-05T11:02:04Z</time></trkpt><trkpt lat="44.8007037885032" lon="9.461641047220152"><ele>511.0</ele><time>2026-04-05T11:02:05Z</time></trkpt><trkpt lat="44.80071805387258" lon="9.461443845543874"><ele>511.0</ele><time>2026-04-05T11:02:06Z</time></trkpt><trkpt lat="44.80069849604381" lon="9.461223523136894"><ele>511.0</ele><time>2026-04-05T11:02:07Z</time></trkpt><trkpt lat="44.8006711801252" lon="9.461057895331514"><ele>511.20000000000005</ele><time>2026-04-05T11:02:08Z</time></trkpt><trkpt lat="44.800646979998575" lon="9.46092071015147"><ele>511.40000000000003</ele><time>2026-04-05T11:02:09Z</time></trkpt><trkpt lat="44.80060015018924" lon="9.460809663248025"><ele>511.6</ele><time>2026-04-05T11:02:10Z</time></trkpt><trkpt lat="44.80052128122704" lon="9.46068973573284"><ele>511.8</ele><time>2026-04-05T11:02:11Z</time></trkpt><trkpt lat="44.80043032872024" lon="9.460613287347284"><ele>512.0</ele><time>2026-04-05T11:02:12Z</time></trkpt><trkpt lat="44.80035915207951" lon="9.460579871708156"><ele>512.0</ele><time>2026-04-05T11:02:13Z</time></trkpt><trkpt lat="44.80029436122093" lon="9.460592670034075"><ele>512.0</ele><time>2026-04-05T11:02:14Z</time></trkpt><trkpt lat="44.800163873038166" lon="9.460629075261512"><ele>512.0</ele><time>2026-04-05T11:02:15Z</time></trkpt><trkpt lat="44.800018387691374" lon="9.460668902458261"><ele>512.0</ele><time>2026-04-05T11:02:16Z</time></trkpt><trkpt lat="44.799870339977566" lon="9.460707373281052"><ele>514.8000000000001</ele><time>2026-04-05T11:02:17Z</time></trkpt><trkpt lat="44.79975939111526" lon="9.460763947897549"><ele>517.6</ele><time>2026-04-05T11:02:18Z</time></trkpt><trkpt lat="44.799691708107446" lon="9.460832092117018"><ele>520.4000000000001</ele><time>2026-04-05T11:02:19Z</time></trkpt><trkpt lat="44.79965722815751" lon="9.460950853142386"><ele>523.2</ele><time>2026-04-05T11:02:20Z</time></trkpt><trkpt lat="44.79965889825815" lon="9.461099540224863"><ele>526.0</ele><time>2026-04-05T11:02:21Z</time></trkpt><trkpt lat="44.79969945493253" lon="9.461241123955059"><ele>528.75</ele><time>2026-04-05T11:02:22Z</time></trkpt><trkpt lat="44.79977381901417" lon="9.46139364199557"><ele>531.5</ele><time>2026-04-05T11:02:23Z</time></trkpt><trkpt lat="44.79982545800276" lon="9.461551413732536"><ele>534.25</ele><time>2026-04-05T11:02:24Z</time></trkpt><trkpt lat="44.79985234413004" lon="9.461721201571917"><ele>537.0</ele><time>2026-04-05T11:02:25Z</time></trkpt><trkpt lat="44.799868298102034" lon="9.46188336772271"><ele>537.0</ele><time>2026-04-05T11:02:26Z</time></trkpt><trkpt lat="44.79989105399489" lon="9.462030434147177"><ele>537.0</ele><time>2026-04-05T11:02:27Z</time></trkpt><trkpt lat="44.79987119169615" lon="9.462232593667009"><ele>537.0</ele><time>2026-04-05T11:02:28Z</time></trkpt><trkpt lat="44.799854478152916" lon="9.462407036355863"><ele>537.0</ele><time>2026-04-05T11:02:29Z</time></trkpt><trkpt lat="44.79984181761728" lon="9.462562792504897"><ele>537.6</ele><time>2026-04-05T11:02:30Z</time></trkpt><trkpt lat="44.79983250463494" lon="9.462702037401144"><ele>538.2</ele><time>2026-04-05T11:02:31Z</time></trkpt><trkpt lat="44.79982098783158" lon="9.462815185758979"><ele>538.8</ele><time>2026-04-05T11:02:32Z</time></trkpt><trkpt lat="44.799720633618854" lon="9.462925672618326"><ele>539.4</ele><time>2026-04-05T11:02:34Z</time></trkpt><trkpt lat="44.799621068068475" lon="9.462936710552428"><ele>540.0</ele><time>2026-04-05T11:02:35Z</time></trkpt><trkpt lat="44.79951440711435" lon="9.462915374874134"><ele>540.0</ele><time>2026-04-05T11:02:36Z</time></trkpt><trkpt lat="44.7993943695846" lon="9.462890536336557"><ele>540.0</ele><time>2026-04-05T11:02:37Z</time></trkpt><trkpt lat="44.79927228391941" lon="9.462871821218256"><ele>540.0</ele><time>2026-04-05T11:02:38Z</time></trkpt><trkpt lat="44.79917996826101" lon="9.46285399544119"><ele>540.0</ele><time>2026-04-05T11:02:39Z</time></trkpt><trkpt lat="44.79907324242877" lon="9.462854531248166"><ele>540.0</ele><time>2026-04-05T11:02:40Z</time></trkpt><trkpt lat="44.798972332826814" lon="9.462886967077672"><ele>542.4</ele><time>2026-04-05T11:02:41Z</time></trkpt><trkpt lat="44.798872451652855" lon="9.462922946669202"><ele>544.8</ele><time>2026-04-05T11:02:42Z</time></trkpt><trkpt lat="44.79878197781259" lon="9.462994651967984"><ele>547.2</ele><time>2026-04-05T11:02:43Z</time></trkpt><trkpt lat="44.79869755257632" lon="9.463095390974766"><ele>549.6</ele><time>2026-04-05T11:02:44Z</time></trkpt><trkpt lat="44.79861841084752" lon="9.46318262484721"><ele>552.0</ele><time>2026-04-05T11:02:45Z</time></trkpt><trkpt lat="44.79853942805343" lon="9.46325552768249"><ele>555.2</ele><time>2026-04-05T11:02:46Z</time></trkpt><trkpt lat="44.79844837861339" lon="9.463302018572191"><ele>558.4000000000001</ele><time>2026-04-05T11:02:47Z</time></trkpt><trkpt lat="44.798346955876184" lon="9.46333404833319"><ele>561.5999999999999</ele><time>2026-04-05T11:02:48Z</time></trkpt><trkpt lat="44.79824636593189" lon="9.463385130692156"><ele>564.8</ele><time>2026-04-05T11:02:49Z</time></trkpt><trkpt lat="44.798161365271035" lon="9.463474247928236"><ele>568.0</ele><time>2026-04-05T11:02:50Z</time></trkpt><trkpt lat="44.798086316619546" lon="9.463550132108745"><ele>568.0</ele><time>2026-04-05T11:02:51Z</time></trkpt><trkpt lat="44.79801145286838" lon="9.463596054975449"><ele>568.0</ele><time>2026-04-05T11:02:52Z</time></trkpt><trkpt lat="44.79790732219688" lon="9.463570921818581"><ele>568.0</ele><time>2026-04-05T11:02:54Z</time></trkpt><trkpt lat="44.797802608699506" lon="9.46354957261894"><ele>568.0</ele><time>2026-04-05T11:02:56Z</time></trkpt><trkpt lat="44.79773622429622" lon="9.46351425782289"><ele>568.0</ele><time>2026-04-05T11:02:57Z</time></trkpt><trkpt lat="44.79763899971176" lon="9.46361434561819"><ele>569.0</ele><time>2026-04-05T11:02:59Z</time></trkpt><trkpt lat="44.79762063239087" lon="9.46371735801559"><ele>570.0</ele><time>2026-04-05T11:03:00Z</time></trkpt><trkpt lat="44.797487931639985" lon="9.463782894242621"><ele>571.0</ele><time>2026-04-05T11:03:02Z</time></trkpt><trkpt lat="44.7973967506557" lon="9.463800116447084"><ele>572.0</ele><time>2026-04-05T11:03:03Z</time></trkpt><trkpt lat="44.79726401485311" lon="9.463879980772324"><ele>572.0</ele><time>2026-04-05T11:03:05Z</time></trkpt><trkpt lat="44.79719081856378" lon="9.4638787584419"><ele>572.0</ele><time>2026-04-05T11:03:06Z</time></trkpt><trkpt lat="44.7971187506207" lon="9.463811739420969"><ele>572.0</ele><time>2026-04-05T11:03:07Z</time></trkpt><trkpt lat="44.797068248068584" lon="9.463749523365175"><ele>572.0</ele><time>2026-04-05T11:03:08Z</time></trkpt><trkpt lat="44.79693310169625" lon="9.463678758166695"><ele>572.0</ele><time>2026-04-05T11:03:10Z</time></trkpt><trkpt lat="44.79684271370997" lon="9.46364118424106"><ele>574.1428571428571</ele><time>2026-04-05T11:03:11Z</time></trkpt><trkpt lat="44.796786431014134" lon="9.463577417843508"><ele>576.2857142857142</ele><time>2026-04-05T11:03:12Z</time></trkpt><trkpt lat="44.796780668146845" lon="9.463478364799352"><ele>578.4285714285714</ele><time>2026-04-05T11:03:13Z</time></trkpt><trkpt lat="44.79678966275066" lon="9.463388730213444"><ele>580.5714285714286</ele><time>2026-04-05T11:03:14Z</time></trkpt><trkpt lat="44.796764785991996" lon="9.463264429936412"><ele>582.7142857142858</ele><time>2026-04-05T11:03:16Z</time></trkpt><trkpt lat="44.79671311356904" lon="9.4631994265802"><ele>584.8571428571429</ele><time>2026-04-05T11:03:17Z</time></trkpt><trkpt lat="44.796647230551784" lon="9.463178131705275"><ele>587.0</ele><time>2026-04-05T11:03:18Z</time></trkpt><trkpt lat="44.796533465185334" lon="9.463232957625374"><ele>587.0</ele><time>2026-04-05T11:03:20Z</time></trkpt><trkpt lat="44.796485803538374" lon="9.463294806245125"><ele>587.0</ele><time>2026-04-05T11:03:21Z</time></trkpt><trkpt lat="44.79642736933825" lon="9.463357395803941"><ele>587.0</ele><time>2026-04-05T11:03:22Z</time></trkpt><trkpt lat="44.796335543277166" lon="9.463365929362025"><ele>587.0</ele><time>2026-04-05T11:03:24Z</time></trkpt><trkpt lat="44.79626612917125" lon="9.46319699250847"><ele>587.0</ele><time>2026-04-05T11:03:26Z</time></trkpt><trkpt lat="44.796236295301526" lon="9.463043385048273"><ele>585.8000000000001</ele><time>2026-04-05T11:03:27Z</time></trkpt><trkpt lat="44.79620992832826" lon="9.46291766241703"><ele>584.6</ele><time>2026-04-05T11:03:28Z</time></trkpt><trkpt lat="44.79617459247119" lon="9.462802615594134"><ele>583.4000000000001</ele><time>2026-04-05T11:03:29Z</time></trkpt><trkpt lat="44.7960765531664" lon="9.462827068740351"><ele>582.2</ele><time>2026-04-05T11:03:30Z</time></trkpt><trkpt lat="44.796015797632094" lon="9.462749175160749"><ele>581.0</ele><time>2026-04-05T11:03:31Z</time></trkpt><trkpt lat="44.79592338332891" lon="9.462700154692898"><ele>587.0</ele><time>2026-04-05T11:03:32Z</time></trkpt><trkpt lat="44.79587250220165" lon="9.462606352072712"><ele>593.0</ele><time>2026-04-05T11:03:33Z</time></trkpt><trkpt lat="44.795825112132206" lon="9.46251170076602"><ele>599.0</ele><time>2026-04-05T11:03:34Z</time></trkpt><trkpt lat="44.795779304570964" lon="9.462425334695466"><ele>605.0</ele><time>2026-04-05T11:03:35Z</time></trkpt><trkpt lat="44.79574162865855" lon="9.462346494855089"><ele>611.0</ele><time>2026-04-05T11:03:36Z</time></trkpt><trkpt lat="44.7957183902873" lon="9.462241014822174"><ele>617.0</ele><time>2026-04-05T11:03:37Z</time></trkpt><trkpt lat="44.79570345750419" lon="9.462140410822984"><ele>615.6</ele><time>2026-04-05T11:03:38Z</time></trkpt><trkpt lat="44.795678142049255" lon="9.46204359080938"><ele>614.2</ele><time>2026-04-05T11:03:39Z</time></trkpt><trkpt lat="44.79559433674957" lon="9.461905317682966"><ele>612.8</ele><time>2026-04-05T11:03:41Z</time></trkpt><trkpt lat="44.7955253484919" lon="9.46180528649134"><ele>611.4</ele><time>2026-04-05T11:03:42Z</time></trkpt><trkpt lat="44.79545434147482" lon="9.461716094636252"><ele>610.0</ele><time>2026-04-05T11:03:43Z</time></trkpt><trkpt lat="44.795376300810915" lon="9.461635796001902"><ele>610.0</ele><time>2026-04-05T11:03:44Z</time></trkpt><trkpt lat="44.79528723101358" lon="9.461576691120312"><ele>610.0</ele><time>2026-04-05T11:03:45Z</time></trkpt><trkpt lat="44.795215711026" lon="9.461513011776477"><ele>610.0</ele><time>2026-04-05T11:03:46Z</time></trkpt><trkpt lat="44.795151238085104" lon="9.46145527894351"><ele>610.0</ele><time>2026-04-05T11:03:47Z</time></trkpt><trkpt lat="44.795085425608306" lon="9.46139303957593"><ele>610.0</ele><time>2026-04-05T11:03:48Z</time></trkpt><trkpt lat="44.79499948115202" lon="9.461325730833341"><ele>610.0</ele><time>2026-04-05T11:03:49Z</time></trkpt><trkpt lat="44.79490779466511" lon="9.46126998936439"><ele>613.4</ele><time>2026-04-05T11:03:50Z</time></trkpt><trkpt lat="44.79484556299656" lon="9.461242392657375"><ele>616.8</ele><time>2026-04-05T11:03:51Z</time></trkpt><trkpt lat="44.794781313088386" lon="9.461277651519481"><ele>620.2</ele><time>2026-04-05T11:03:52Z</time></trkpt><trkpt lat="44.79462187185666" lon="9.46124206018917"><ele>623.6</ele><time>2026-04-05T11:03:54Z</time></trkpt><trkpt lat="44.79452139386221" lon="9.461184182661007"><ele>627.0</ele><time>2026-04-05T11:03:55Z</time></trkpt><trkpt lat="44.794431840201945" lon="9.461162366654893"><ele>627.0</ele><time>2026-04-05T11:03:56Z</time></trkpt><trkpt lat="44.794348198203025" lon="9.46115611036501"><ele>627.0</ele><time>2026-04-05T11:03:57Z</time></trkpt><trkpt lat="44.79425951404949" lon="9.461130541385158"><ele>627.0</ele><time>2026-04-05T11:03:58Z</time></trkpt><trkpt lat="44.794169537615915" lon="9.46109916320548"><ele>627.0</ele><time>2026-04-05T11:03:59Z</time></trkpt><trkpt lat="44.794082029387425" lon="9.461079634544586"><ele>627.0</ele><time>2026-04-05T11:04:00Z</time></trkpt><trkpt lat="44.7939875885857" lon="9.461057491231989"><ele>629.1666666666666</ele><time>2026-04-05T11:04:01Z</time></trkpt><trkpt lat="44.79387954029478" lon="9.461015908107578"><ele>631.3333333333334</ele><time>2026-04-05T11:04:02Z</time></trkpt><trkpt lat="44.79380444028998" lon="9.460984658814036"><ele>633.5</ele><time>2026-04-05T11:04:03Z</time></trkpt><trkpt lat="44.79374224976176" lon="9.46100049134749"><ele>635.6666666666667</ele><time>2026-04-05T11:04:04Z</time></trkpt><trkpt lat="44.79365092236885" lon="9.46105033430522"><ele>637.8333333333334</ele><time>2026-04-05T11:04:05Z</time></trkpt><trkpt lat="44.79355668901235" lon="9.461061704350369"><ele>640.0</ele><time>2026-04-05T11:04:06Z</time></trkpt><trkpt lat="44.793464538731136" lon="9.461053964293754"><ele>641.3333333333334</ele><time>2026-04-05T11:04:07Z</time></trkpt><trkpt lat="44.79339565537374" lon="9.461063889790275"><ele>642.6666666666667</ele><time>2026-04-05T11:04:08Z</time></trkpt><trkpt lat="44.79333628662319" lon="9.461115294859658"><ele>644.0</ele><time>2026-04-05T11:04:10Z</time></trkpt><trkpt lat="44.79327911279908" lon="9.461021665958446"><ele>645.3333333333334</ele><time>2026-04-05T11:04:13Z</time></trkpt><trkpt lat="44.79329484795057" lon="9.460926503338563"><ele>646.6666666666666</ele><time>2026-04-05T11:04:14Z</time></trkpt><trkpt lat="44.79330846843371" lon="9.460815850065757"><ele>648.0</ele><time>2026-04-05T11:04:15Z</time></trkpt><trkpt lat="44.793235535993475" lon="9.460683094189884"><ele>648.0</ele><time>2026-04-05T11:04:17Z</time></trkpt><trkpt lat="44.793176691349736" lon="9.460553572950776"><ele>648.0</ele><time>2026-04-05T11:04:19Z</time></trkpt><trkpt lat="44.79312415581747" lon="9.460483586524825"><ele>648.0</ele><time>2026-04-05T11:04:22Z</time></trkpt><trkpt lat="44.79293610654923" lon="9.460373834335464"><ele>648.0</ele><time>2026-04-05T11:04:23Z</time></trkpt><trkpt lat="44.792867228891346" lon="9.460386865524175"><ele>648.5</ele><time>2026-04-05T11:04:24Z</time></trkpt><trkpt lat="44.7928015594759" lon="9.460410744693515"><ele>649.0</ele><time>2026-04-05T11:04:25Z</time></trkpt><trkpt lat="44.79271799410815" lon="9.460444222624757"><ele>649.5</ele><time>2026-04-05T11:04:27Z</time></trkpt><trkpt lat="44.792621033112866" lon="9.460481791040621"><ele>650.0</ele><time>2026-04-05T11:04:30Z</time></trkpt><trkpt lat="44.79252164392351" lon="9.460461472301372"><ele>650.5</ele><time>2026-04-05T11:04:32Z</time></trkpt><trkpt lat="44.792460156269435" lon="9.460430747572483"><ele>651.0</ele><time>2026-04-05T11:04:33Z</time></trkpt><trkpt lat="44.79239403267736" lon="9.460412435173646"><ele>649.1666666666666</ele><time>2026-04-05T11:04:34Z</time></trkpt><trkpt lat="44.79232272462555" lon="9.460396633574508"><ele>647.3333333333334</ele><time>2026-04-05T11:04:35Z</time></trkpt><trkpt lat="44.792260545656156" lon="9.460373735816535"><ele>645.5</ele><time>2026-04-05T11:04:36Z</time></trkpt><trkpt lat="44.79223660009261" lon="9.460277062828673"><ele>643.6666666666667</ele><time>2026-04-05T11:04:37Z</time></trkpt><trkpt lat="44.79224233490573" lon="9.460175251981273"><ele>641.8333333333334</ele><time>2026-04-05T11:04:38Z</time></trkpt><trkpt lat="44.7922061610767" lon="9.460021936860585"><ele>640.0</ele><time>2026-04-05T11:04:40Z</time></trkpt><trkpt lat="44.79210396961746" lon="9.459948405349563"><ele>640.0</ele><time>2026-04-05T11:04:42Z</time></trkpt><trkpt lat="44.791962683019" lon="9.459917039317242"><ele>640.0</ele><time>2026-04-05T11:04:44Z</time></trkpt><trkpt lat="44.79190034292334" lon="9.459888699998137"><ele>640.0</ele><time>2026-04-05T11:04:45Z</time></trkpt><trkpt lat="44.791875125241255" lon="9.45974427788295"><ele>640.0</ele><time>2026-04-05T11:04:47Z</time></trkpt><trkpt lat="44.79178134266182" lon="9.459491334378477"><ele>639.0</ele><time>2026-04-05T11:04:51Z</time></trkpt><trkpt lat="44.79176912669527" lon="9.45937781367017"><ele>638.0</ele><time>2026-04-05T11:04:52Z</time></trkpt><trkpt lat="44.7916761232054" lon="9.45932299884945"><ele>637.0</ele><time>2026-04-05T11:04:57Z</time></trkpt><trkpt lat="44.7916113031683" lon="9.459373431953075"><ele>636.0</ele><time>2026-04-05T11:04:59Z</time></trkpt><trkpt lat="44.791577942398895" lon="9.459456643193382"><ele>635.0</ele><time>2026-04-05T11:05:04Z</time></trkpt><trkpt lat="44.791510386709135" lon="9.459486571906645"><ele>634.0</ele><time>2026-04-05T11:05:09Z</time></trkpt><trkpt lat="44.79143330996641" lon="9.459482917211131"><ele>634.0</ele><time>2026-04-05T11:05:11Z</time></trkpt><trkpt lat="44.7914242865544" lon="9.459390069565655"><ele>634.0</ele><time>2026-04-05T11:05:14Z</time></trkpt><trkpt lat="44.79142423524174" lon="9.4592691759593"><ele>634.0</ele><time>2026-04-05T11:05:17Z</time></trkpt><trkpt lat="44.79138835770437" lon="9.459150429796706"><ele>634.0</ele><time>2026-04-05T11:05:19Z</time></trkpt><trkpt lat="44.791358329480424" lon="9.459049295699964"><ele>634.0</ele><time>2026-04-05T11:05:20Z</time></trkpt><trkpt lat="44.791340861177915" lon="9.458914234797453"><ele>634.0</ele><time>2026-04-05T11:05:22Z</time></trkpt><trkpt lat="44.791412481995" lon="9.458778642652184"><ele>635.2</ele><time>2026-04-05T11:05:24Z</time></trkpt><trkpt lat="44.79148434154427" lon="9.458666781152482"><ele>636.4</ele><time>2026-04-05T11:05:26Z</time></trkpt><trkpt lat="44.791552725596475" lon="9.458620931137604"><ele>637.6</ele><time>2026-04-05T11:05:27Z</time></trkpt><trkpt lat="44.791623313272204" lon="9.45851439320505"><ele>638.8</ele><time>2026-04-05T11:05:29Z</time></trkpt><trkpt lat="44.791631642622285" lon="9.458393221772646"><ele>640.0</ele><time>2026-04-05T11:05:30Z</time></trkpt><trkpt lat="44.79167826216333" lon="9.458287839425683"><ele>640.0</ele><time>2026-04-05T11:05:31Z</time></trkpt><trkpt lat="44.79178405920188" lon="9.458212310191088"><ele>640.0</ele><time>2026-04-05T11:05:32Z</time></trkpt><trkpt lat="44.79186228724573" lon="9.458156303252883"><ele>640.0</ele><time>2026-04-05T11:05:33Z</time></trkpt><trkpt lat="44.79189561707756" lon="9.458064628392693"><ele>640.0</ele><time>2026-04-05T11:05:34Z</time></trkpt><trkpt lat="44.79191631197449" lon="9.457943615267803"><ele>640.0</ele><time>2026-04-05T11:05:35Z</time></trkpt><trkpt lat="44.791935950596944" lon="9.457846755305741"><ele>640.0</ele><time>2026-04-05T11:05:36Z</time></trkpt><trkpt lat="44.79199564222251" lon="9.457775284475373"><ele>638.3333333333334</ele><time>2026-04-05T11:05:38Z</time></trkpt><trkpt lat="44.79207280169321" lon="9.457769364589767"><ele>636.6666666666667</ele><time>2026-04-05T11:05:39Z</time></trkpt><trkpt lat="44.7921464014348" lon="9.45770131785421"><ele>635.0</ele><time>2026-04-05T11:05:40Z</time></trkpt><trkpt lat="44.79221742430912" lon="9.457613619165738"><ele>633.3333333333334</ele><time>2026-04-05T11:05:41Z</time></trkpt><trkpt lat="44.79224268223666" lon="9.45750656372074"><ele>631.6666666666666</ele><time>2026-04-05T11:05:43Z</time></trkpt><trkpt lat="44.79220074344836" lon="9.457413426386918"><ele>630.0</ele><time>2026-04-05T11:05:44Z</time></trkpt><trkpt lat="44.79219778180001" lon="9.457297998682863"><ele>636.75</ele><time>2026-04-05T11:05:45Z</time></trkpt><trkpt lat="44.792311782872694" lon="9.457117033593786"><ele>643.5</ele><time>2026-04-05T11:05:47Z</time></trkpt><trkpt lat="44.792426384533684" lon="9.456996446790656"><ele>650.25</ele><time>2026-04-05T11:05:48Z</time></trkpt><trkpt lat="44.792502659165685" lon="9.456954548063436"><ele>657.0</ele><time>2026-04-05T11:05:49Z</time></trkpt><trkpt lat="44.79257506883655" lon="9.456913622559425"><ele>657.0</ele><time>2026-04-05T11:05:50Z</time></trkpt><trkpt lat="44.7926538227323" lon="9.45689116606046"><ele>657.0</ele><time>2026-04-05T11:05:51Z</time></trkpt><trkpt lat="44.79272782170808" lon="9.456918450169429"><ele>657.0</ele><time>2026-04-05T11:05:52Z</time></trkpt><trkpt lat="44.79280848427527" lon="9.45698848912034"><ele>657.0</ele><time>2026-04-05T11:05:53Z</time></trkpt><trkpt lat="44.792900286353074" lon="9.457026824404128"><ele>657.0</ele><time>2026-04-05T11:05:54Z</time></trkpt><trkpt lat="44.792983494540984" lon="9.457057331767889"><ele>657.0</ele><time>2026-04-05T11:05:55Z</time></trkpt><trkpt lat="44.79306006955045" lon="9.457089450977296"><ele>654.0</ele><time>2026-04-05T11:05:56Z</time></trkpt><trkpt lat="44.793152473378285" lon="9.457068559435438"><ele>651.0</ele><time>2026-04-05T11:05:58Z</time></trkpt><trkpt lat="44.7932376627252" lon="9.456912413343453"><ele>648.0</ele><time>2026-04-05T11:06:00Z</time></trkpt><trkpt lat="44.793309953447604" lon="9.45683058369653"><ele>645.0</ele><time>2026-04-05T11:06:01Z</time></trkpt><trkpt lat="44.79338359608167" lon="9.456758804868334"><ele>642.0</ele><time>2026-04-05T11:06:02Z</time></trkpt><trkpt lat="44.793464214033435" lon="9.456723995193304"><ele>637.2</ele><time>2026-04-05T11:06:03Z</time></trkpt><trkpt lat="44.793535400595665" lon="9.45671068476073"><ele>632.4000000000001</ele><time>2026-04-05T11:06:04Z</time></trkpt><trkpt lat="44.79359930121711" lon="9.456713255498048"><ele>627.5999999999999</ele><time>2026-04-05T11:06:05Z</time></trkpt><trkpt lat="44.79370256506691" lon="9.456609360113948"><ele>622.8</ele><time>2026-04-05T11:06:07Z</time></trkpt><trkpt lat="44.79382900276799" lon="9.456585795055295"><ele>618.0</ele><time>2026-04-05T11:06:09Z</time></trkpt><trkpt lat="44.79393425892202" lon="9.456559143639504"><ele>618.0</ele><time>2026-04-05T11:06:11Z</time></trkpt><trkpt lat="44.79399586412666" lon="9.456480863775978"><ele>618.0</ele><time>2026-04-05T11:06:12Z</time></trkpt><trkpt lat="44.7940616965571" lon="9.456421890209327"><ele>618.0</ele><time>2026-04-05T11:06:13Z</time></trkpt><trkpt lat="44.794135269066444" lon="9.456402584454505"><ele>618.0</ele><time>2026-04-05T11:06:14Z</time></trkpt><trkpt lat="44.794201795038" lon="9.456406320883604"><ele>618.0</ele><time>2026-04-05T11:06:15Z</time></trkpt><trkpt lat="44.79426061282229" lon="9.456314545283405"><ele>618.0</ele><time>2026-04-05T11:06:17Z</time></trkpt><trkpt lat="44.794264157060624" lon="9.456211748055223"><ele>616.0</ele><time>2026-04-05T11:06:18Z</time></trkpt><trkpt lat="44.794270040456695" lon="9.456062216953232"><ele>614.0</ele><time>2026-04-05T11:06:19Z</time></trkpt><trkpt lat="44.79429456199321" lon="9.455918963117178"><ele>612.0</ele><time>2026-04-05T11:06:20Z</time></trkpt><trkpt lat="44.79432083391146" lon="9.455793774911443"><ele>610.0</ele><time>2026-04-05T11:06:21Z</time></trkpt><trkpt lat="44.79435508366855" lon="9.455679992216387"><ele>608.0</ele><time>2026-04-05T11:06:22Z</time></trkpt><trkpt lat="44.79438134227908" lon="9.45556669970979"><ele>610.6666666666666</ele><time>2026-04-05T11:06:23Z</time></trkpt><trkpt lat="44.79439149795421" lon="9.455438553069433"><ele>613.3333333333333</ele><time>2026-04-05T11:06:24Z</time></trkpt><trkpt lat="44.794414416644635" lon="9.455307486255784"><ele>616.0</ele><time>2026-04-05T11:06:25Z</time></trkpt><trkpt lat="44.79446521616439" lon="9.455212640491997"><ele>618.6666666666666</ele><time>2026-04-05T11:06:26Z</time></trkpt><trkpt lat="44.79451715725566" lon="9.455145806867542"><ele>621.3333333333334</ele><time>2026-04-05T11:06:27Z</time></trkpt><trkpt lat="44.794577899337064" lon="9.455097313225485"><ele>624.0</ele><time>2026-04-05T11:06:28Z</time></trkpt><trkpt lat="44.79463970474711" lon="9.455048271803118"><ele>624.0</ele><time>2026-04-05T11:06:29Z</time></trkpt><trkpt lat="44.79470287282631" lon="9.455009119847478"><ele>624.0</ele><time>2026-04-05T11:06:30Z</time></trkpt><trkpt lat="44.79481212060059" lon="9.454982365602605"><ele>624.0</ele><time>2026-04-05T11:06:32Z</time></trkpt><trkpt lat="44.79488482894076" lon="9.455021006073332"><ele>624.0</ele><time>2026-04-05T11:06:33Z</time></trkpt><trkpt lat="44.79496825118373" lon="9.455070321602193"><ele>624.0</ele><time>2026-04-05T11:06:34Z</time></trkpt><trkpt lat="44.795038667846455" lon="9.455050847751428"><ele>624.0</ele><time>2026-04-05T11:06:35Z</time></trkpt><trkpt lat="44.79509048891472" lon="9.454970181236547"><ele>624.0</ele><time>2026-04-05T11:06:36Z</time></trkpt><trkpt lat="44.795122213590936" lon="9.454888761933214"><ele>624.0</ele><time>2026-04-05T11:06:37Z</time></trkpt><trkpt lat="44.79512944114253" lon="9.454788776657818"><ele>624.0</ele><time>2026-04-05T11:06:38Z</time></trkpt><trkpt lat="44.79512403384122" lon="9.454649110521405"><ele>624.0</ele><time>2026-04-05T11:06:39Z</time></trkpt><trkpt lat="44.79514112025636" lon="9.454521206633643"><ele>624.0</ele><time>2026-04-05T11:06:40Z</time></trkpt><trkpt lat="44.79516761048218" lon="9.454411277894966"><ele>624.0</ele><time>2026-04-05T11:06:41Z</time></trkpt><trkpt lat="44.795189087400054" lon="9.454306922531261"><ele>624.2</ele><time>2026-04-05T11:06:42Z</time></trkpt><trkpt lat="44.795214212091395" lon="9.45415199210823"><ele>624.4</ele><time>2026-04-05T11:06:44Z</time></trkpt><trkpt lat="44.79520739453919" lon="9.453986842992615"><ele>624.6</ele><time>2026-04-05T11:06:46Z</time></trkpt><trkpt lat="44.795204128989475" lon="9.453892437360446"><ele>624.8</ele><time>2026-04-05T11:06:47Z</time></trkpt><trkpt lat="44.795180158389336" lon="9.453794450097972"><ele>625.0</ele><time>2026-04-05T11:06:48Z</time></trkpt><trkpt lat="44.79512456161151" lon="9.453699438969393"><ele>625.0</ele><time>2026-04-05T11:06:49Z</time></trkpt><trkpt lat="44.79504241982173" lon="9.453609713386543"><ele>625.0</ele><time>2026-04-05T11:06:50Z</time></trkpt><trkpt lat="44.794972463839144" lon="9.453528880970703"><ele>625.0</ele><time>2026-04-05T11:06:51Z</time></trkpt><trkpt lat="44.79491056192148" lon="9.453447470164575"><ele>625.0</ele><time>2026-04-05T11:06:52Z</time></trkpt><trkpt lat="44.79486146748799" lon="9.453368743145548"><ele>625.0</ele><time>2026-04-05T11:06:53Z</time></trkpt><trkpt lat="44.7949100716006" lon="9.453197433860645"><ele>625.0</ele><time>2026-04-05T11:06:55Z</time></trkpt><trkpt lat="44.794949724084994" lon="9.45310177336457"><ele>625.0</ele><time>2026-04-05T11:06:56Z</time></trkpt><trkpt lat="44.794926869245316" lon="9.452962362670464"><ele>625.0</ele><time>2026-04-05T11:06:58Z</time></trkpt><trkpt lat="44.79488139605187" lon="9.452878195076126"><ele>625.0</ele><time>2026-04-05T11:07:00Z</time></trkpt><trkpt lat="44.794878741544814" lon="9.45278074103467"><ele>625.0</ele><time>2026-04-05T11:07:02Z</time></trkpt><trkpt lat="44.79490421560624" lon="9.452627591809861"><ele>625.0</ele><time>2026-04-05T11:07:05Z</time></trkpt><trkpt lat="44.794914564780484" lon="9.452528022786693"><ele>624.8</ele><time>2026-04-05T11:07:06Z</time></trkpt><trkpt lat="44.79491519945535" lon="9.452436993651627"><ele>624.6</ele><time>2026-04-05T11:07:07Z</time></trkpt><trkpt lat="44.7949212484551" lon="9.452333090102575"><ele>624.4</ele><time>2026-04-05T11:07:08Z</time></trkpt><trkpt lat="44.794964990601805" lon="9.452199798621914"><ele>624.2</ele><time>2026-04-05T11:07:10Z</time></trkpt><trkpt lat="44.79502472190195" lon="9.452127971577083"><ele>624.0</ele><time>2026-04-05T11:07:11Z</time></trkpt><trkpt lat="44.79508199154744" lon="9.45195563137068"><ele>624.0</ele><time>2026-04-05T11:07:13Z</time></trkpt><trkpt lat="44.79506838067938" lon="9.451802341708781"><ele>624.0</ele><time>2026-04-05T11:07:14Z</time></trkpt><trkpt lat="44.79506753781817" lon="9.451650461409239"><ele>624.0</ele><time>2026-04-05T11:07:15Z</time></trkpt><trkpt lat="44.79508868365622" lon="9.451542105696587"><ele>624.0</ele><time>2026-04-05T11:07:16Z</time></trkpt><trkpt lat="44.79514911263255" lon="9.451471539656652"><ele>624.0</ele><time>2026-04-05T11:07:17Z</time></trkpt><trkpt lat="44.795222538546156" lon="9.451418989506507"><ele>623.0</ele><time>2026-04-05T11:07:18Z</time></trkpt><trkpt lat="44.79531450619448" lon="9.451338405165453"><ele>622.0</ele><time>2026-04-05T11:07:19Z</time></trkpt><trkpt lat="44.79541373357054" lon="9.451239842564604"><ele>621.0</ele><time>2026-04-05T11:07:20Z</time></trkpt><trkpt lat="44.79551180101303" lon="9.451160110123487"><ele>620.0</ele><time>2026-04-05T11:07:21Z</time></trkpt><trkpt lat="44.79558772192863" lon="9.451132523420789"><ele>619.0</ele><time>2026-04-05T11:07:22Z</time></trkpt><trkpt lat="44.795703757445295" lon="9.451108527802145"><ele>619.0</ele><time>2026-04-05T11:07:23Z</time></trkpt><trkpt lat="44.795788112455796" lon="9.451055729508388"><ele>619.0</ele><time>2026-04-05T11:07:24Z</time></trkpt><trkpt lat="44.79587741501609" lon="9.45100673034771"><ele>619.0</ele><time>2026-04-05T11:07:25Z</time></trkpt><trkpt lat="44.79599957495869" lon="9.450972976944016"><ele>619.0</ele><time>2026-04-05T11:07:26Z</time></trkpt><trkpt lat="44.796108224185616" lon="9.450950253963063"><ele>619.0</ele><time>2026-04-05T11:07:27Z</time></trkpt><trkpt lat="44.79618558879145" lon="9.45089237419547"><ele>615.0</ele><time>2026-04-05T11:07:28Z</time></trkpt><trkpt lat="44.7962531563484" lon="9.450826749230414"><ele>611.0</ele><time>2026-04-05T11:07:29Z</time></trkpt><trkpt lat="44.79629979733702" lon="9.450759895735388"><ele>607.0</ele><time>2026-04-05T11:07:30Z</time></trkpt><trkpt lat="44.796332539306654" lon="9.450682045131211"><ele>603.0</ele><time>2026-04-05T11:07:31Z</time></trkpt><trkpt lat="44.79637480285442" lon="9.450596557153215"><ele>599.0</ele><time>2026-04-05T11:07:32Z</time></trkpt><trkpt lat="44.796476049565" lon="9.45049457423302"><ele>595.0</ele><time>2026-04-05T11:07:34Z</time></trkpt><trkpt lat="44.79661701508251" lon="9.450488353754908"><ele>595.0</ele><time>2026-04-05T11:07:36Z</time></trkpt><trkpt lat="44.79668083491273" lon="9.450465233110684"><ele>595.0</ele><time>2026-04-05T11:07:37Z</time></trkpt><trkpt lat="44.79675240890307" lon="9.45033014718236"><ele>595.0</ele><time>2026-04-05T11:07:39Z</time></trkpt><trkpt lat="44.79678391060315" lon="9.450247423387975"><ele>595.0</ele><time>2026-04-05T11:07:40Z</time></trkpt><trkpt lat="44.79683026216133" lon="9.450165833098614"><ele>595.0</ele><time>2026-04-05T11:07:41Z</time></trkpt><trkpt lat="44.79686813679917" lon="9.450087170685897"><ele>595.0</ele><time>2026-04-05T11:07:42Z</time></trkpt><trkpt lat="44.79689489396181" lon="9.449997166817317"><ele>596.8333333333334</ele><time>2026-04-05T11:07:43Z</time></trkpt><trkpt lat="44.79692838738742" lon="9.449905197113251"><ele>598.6666666666667</ele><time>2026-04-05T11:07:44Z</time></trkpt><trkpt lat="44.79694365349049" lon="9.449814660686636"><ele>600.5</ele><time>2026-04-05T11:07:45Z</time></trkpt><trkpt lat="44.79694454491149" lon="9.449725030295834"><ele>602.3333333333334</ele><time>2026-04-05T11:07:46Z</time></trkpt><trkpt lat="44.79694216537373" lon="9.449631889870048"><ele>604.1666666666666</ele><time>2026-04-05T11:07:47Z</time></trkpt><trkpt lat="44.79695913250457" lon="9.449459130702696"><ele>606.0</ele><time>2026-04-05T11:07:49Z</time></trkpt><trkpt lat="44.796990477526116" lon="9.44933829842319"><ele>606.0</ele><time>2026-04-05T11:07:50Z</time></trkpt><trkpt lat="44.79703037241553" lon="9.449225552716891"><ele>606.0</ele><time>2026-04-05T11:07:51Z</time></trkpt><trkpt lat="44.79706877449668" lon="9.44913800356561"><ele>606.0</ele><time>2026-04-05T11:07:52Z</time></trkpt><trkpt lat="44.797138057358076" lon="9.449102794499156"><ele>606.0</ele><time>2026-04-05T11:07:53Z</time></trkpt><trkpt lat="44.79723397033972" lon="9.44907667462039"><ele>606.0</ele><time>2026-04-05T11:07:54Z</time></trkpt><trkpt lat="44.79731979005208" lon="9.449062924703519"><ele>606.0</ele><time>2026-04-05T11:07:55Z</time></trkpt><trkpt lat="44.79740928877601" lon="9.449035354831773"><ele>606.0</ele><time>2026-04-05T11:07:56Z</time></trkpt><trkpt lat="44.79751792073525" lon="9.44901323499255"><ele>606.0</ele><time>2026-04-05T11:07:57Z</time></trkpt><trkpt lat="44.7976332074491" lon="9.448947984094824"><ele>606.0</ele><time>2026-04-05T11:07:58Z</time></trkpt><trkpt lat="44.79774988008061" lon="9.448942857393508"><ele>606.0</ele><time>2026-04-05T11:07:59Z</time></trkpt><trkpt lat="44.79787853940824" lon="9.44895203479175"><ele>602.75</ele><time>2026-04-05T11:08:00Z</time></trkpt><trkpt lat="44.79804175133564" lon="9.448928261486794"><ele>599.5</ele><time>2026-04-05T11:08:01Z</time></trkpt><trkpt lat="44.798178659441675" lon="9.448939036566363"><ele>596.25</ele><time>2026-04-05T11:08:02Z</time></trkpt><trkpt lat="44.798314474123785" lon="9.448940214596705"><ele>593.0</ele><time>2026-04-05T11:08:03Z</time></trkpt><trkpt lat="44.798439912251496" lon="9.448963769715334"><ele>590.5</ele><time>2026-04-05T11:08:04Z</time></trkpt><trkpt lat="44.79852810110903" lon="9.449008918817514"><ele>588.0</ele><time>2026-04-05T11:08:05Z</time></trkpt><trkpt lat="44.79858862135624" lon="9.449039988772158"><ele>585.5</ele><time>2026-04-05T11:08:06Z</time></trkpt><trkpt lat="44.79868263803355" lon="9.448982753641916"><ele>583.0</ele><time>2026-04-05T11:08:08Z</time></trkpt><trkpt lat="44.798659398833905" lon="9.448848150328004"><ele>580.5</ele><time>2026-04-05T11:08:10Z</time></trkpt><trkpt lat="44.79860847599402" lon="9.44879462454357"><ele>578.0</ele><time>2026-04-05T11:08:13Z</time></trkpt><trkpt lat="44.79852552179033" lon="9.448667474000887"><ele>578.0</ele><time>2026-04-05T11:08:16Z</time></trkpt><trkpt lat="44.79852176945243" lon="9.448570498662217"><ele>578.0</ele><time>2026-04-05T11:08:18Z</time></trkpt><trkpt lat="44.7983974458294" lon="9.448264618692468"><ele>578.0</ele><time>2026-04-05T11:08:19Z</time></trkpt><trkpt lat="44.79834681782685" lon="9.448137250944523"><ele>578.0</ele><time>2026-04-05T11:08:20Z</time></trkpt><trkpt lat="44.79827224038262" lon="9.447997228636584"><ele>581.4</ele><time>2026-04-05T11:08:21Z</time></trkpt><trkpt lat="44.7982209531246" lon="9.447877562940185"><ele>584.8</ele><time>2026-04-05T11:08:22Z</time></trkpt><trkpt lat="44.79819015523579" lon="9.447771442527948"><ele>588.2</ele><time>2026-04-05T11:08:23Z</time></trkpt><trkpt lat="44.798180761903616" lon="9.44761656623967"><ele>591.6</ele><time>2026-04-05T11:08:24Z</time></trkpt><trkpt lat="44.798193430440186" lon="9.447466267500156"><ele>595.0</ele><time>2026-04-05T11:08:25Z</time></trkpt><trkpt lat="44.798214571749924" lon="9.447323513807072"><ele>595.0</ele><time>2026-04-05T11:08:26Z</time></trkpt><trkpt lat="44.79822659381446" lon="9.447176102318846"><ele>595.0</ele><time>2026-04-05T11:08:28Z</time></trkpt><trkpt lat="44.79821751808466" lon="9.447075154682473"><ele>595.0</ele><time>2026-04-05T11:08:29Z</time></trkpt><trkpt lat="44.79817296873705" lon="9.447000873498482"><ele>595.0</ele><time>2026-04-05T11:08:30Z</time></trkpt><trkpt lat="44.79810887738466" lon="9.446925730275844"><ele>595.0</ele><time>2026-04-05T11:08:31Z</time></trkpt><trkpt lat="44.79804133139876" lon="9.446843956019963"><ele>595.0</ele><time>2026-04-05T11:08:32Z</time></trkpt><trkpt lat="44.79797373529976" lon="9.446777625760348"><ele>595.3333333333334</ele><time>2026-04-05T11:08:33Z</time></trkpt><trkpt lat="44.79791202774303" lon="9.446717401558333"><ele>595.6666666666667</ele><time>2026-04-05T11:08:34Z</time></trkpt><trkpt lat="44.79785431470113" lon="9.446658108312716"><ele>596.0</ele><time>2026-04-05T11:08:35Z</time></trkpt><trkpt lat="44.797767613108235" lon="9.446637520912349"><ele>596.3333333333334</ele><time>2026-04-05T11:08:36Z</time></trkpt><trkpt lat="44.797696359410246" lon="9.446556334791456"><ele>596.6666666666666</ele><time>2026-04-05T11:08:37Z</time></trkpt><trkpt lat="44.797636179433454" lon="9.446476964158986"><ele>597.0</ele><time>2026-04-05T11:08:38Z</time></trkpt><trkpt lat="44.797583422481004" lon="9.446409145163525"><ele>593.0</ele><time>2026-04-05T11:08:39Z</time></trkpt><trkpt lat="44.79751256410505" lon="9.44627900045711"><ele>589.0</ele><time>2026-04-05T11:08:41Z</time></trkpt><trkpt lat="44.797484506586734" lon="9.446190550112659"><ele>585.0</ele><time>2026-04-05T11:08:42Z</time></trkpt><trkpt lat="44.797428851808434" lon="9.446114921393919"><ele>581.0</ele><time>2026-04-05T11:08:43Z</time></trkpt><trkpt lat="44.79733799782893" lon="9.446020345062328"><ele>577.0</ele><time>2026-04-05T11:08:44Z</time></trkpt><trkpt lat="44.79723451230877" lon="9.445921777073458"><ele>577.0</ele><time>2026-04-05T11:08:45Z</time></trkpt><trkpt lat="44.79717671618045" lon="9.44585043996459"><ele>577.0</ele><time>2026-04-05T11:08:46Z</time></trkpt><trkpt lat="44.79708668837605" lon="9.445745762691454"><ele>577.0</ele><time>2026-04-05T11:08:47Z</time></trkpt><trkpt lat="44.796979913552974" lon="9.445623380724804"><ele>577.0</ele><time>2026-04-05T11:08:48Z</time></trkpt><trkpt lat="44.7968987140265" lon="9.445507279194514"><ele>577.0</ele><time>2026-04-05T11:08:49Z</time></trkpt><trkpt lat="44.79684414157893" lon="9.445394150066738"><ele>578.6</ele><time>2026-04-05T11:08:50Z</time></trkpt><trkpt lat="44.79679514174025" lon="9.445248402466442"><ele>580.2</ele><time>2026-04-05T11:08:51Z</time></trkpt><trkpt lat="44.796774651499724" lon="9.445096338740862"><ele>581.8</ele><time>2026-04-05T11:08:52Z</time></trkpt><trkpt lat="44.79675427843318" lon="9.444947594465212"><ele>583.4</ele><time>2026-04-05T11:08:53Z</time></trkpt><trkpt lat="44.79672086096131" lon="9.444822775733632"><ele>585.0</ele><time>2026-04-05T11:08:54Z</time></trkpt><trkpt lat="44.79667922239898" lon="9.444743648490798"><ele>585.0</ele><time>2026-04-05T11:08:55Z</time></trkpt><trkpt lat="44.796608056168736" lon="9.444696015023295"><ele>585.0</ele><time>2026-04-05T11:08:57Z</time></trkpt><trkpt lat="44.79652742715256" lon="9.444687343658973"><ele>585.0</ele><time>2026-04-05T11:08:58Z</time></trkpt><trkpt lat="44.796429677136985" lon="9.444660521839348"><ele>585.0</ele><time>2026-04-05T11:08:59Z</time></trkpt><trkpt lat="44.79631988828691" lon="9.444602384968102"><ele>585.0</ele><time>2026-04-05T11:09:00Z</time></trkpt><trkpt lat="44.79621861332601" lon="9.444524963544378"><ele>584.6</ele><time>2026-04-05T11:09:01Z</time></trkpt><trkpt lat="44.7961320621478" lon="9.444431340411807"><ele>584.2</ele><time>2026-04-05T11:09:02Z</time></trkpt><trkpt lat="44.796045925717266" lon="9.444311709104094"><ele>583.8</ele><time>2026-04-05T11:09:03Z</time></trkpt><trkpt lat="44.795978637240786" lon="9.444178132186197"><ele>583.4</ele><time>2026-04-05T11:09:04Z</time></trkpt><trkpt lat="44.7959184658999" lon="9.44409123405998"><ele>583.0</ele><time>2026-04-05T11:09:05Z</time></trkpt><trkpt lat="44.79584938547311" lon="9.444041797788698"><ele>583.0</ele><time>2026-04-05T11:09:06Z</time></trkpt><trkpt lat="44.79575361687639" lon="9.444024878787177"><ele>583.0</ele><time>2026-04-05T11:09:07Z</time></trkpt><trkpt lat="44.795647312399474" lon="9.44401649862376"><ele>583.0</ele><time>2026-04-05T11:09:08Z</time></trkpt><trkpt lat="44.79555821957029" lon="9.444019685715514"><ele>583.0</ele><time>2026-04-05T11:09:09Z</time></trkpt><trkpt lat="44.79549739490187" lon="9.444060048222365"><ele>583.0</ele><time>2026-04-05T11:09:10Z</time></trkpt><trkpt lat="44.79544190356451" lon="9.444134976723046"><ele>583.0</ele><time>2026-04-05T11:09:11Z</time></trkpt><trkpt lat="44.79538573324421" lon="9.44423347437521"><ele>583.0</ele><time>2026-04-05T11:09:12Z</time></trkpt><trkpt lat="44.7953269707621" lon="9.444330763108226"><ele>583.0</ele><time>2026-04-05T11:09:13Z</time></trkpt><trkpt lat="44.795263276033296" lon="9.44438452241601"><ele>583.0</ele><time>2026-04-05T11:09:14Z</time></trkpt><trkpt lat="44.79519063778069" lon="9.444408219305394"><ele>583.0</ele><time>2026-04-05T11:09:15Z</time></trkpt><trkpt lat="44.79512619302907" lon="9.444410220631342"><ele>583.0</ele><time>2026-04-05T11:09:16Z</time></trkpt><trkpt lat="44.79507336317305" lon="9.444602761867314"><ele>585.0</ele><time>2026-04-05T11:09:18Z</time></trkpt><trkpt lat="44.79503346248979" lon="9.444721715157687"><ele>587.0</ele><time>2026-04-05T11:09:19Z</time></trkpt><trkpt lat="44.79497560331454" lon="9.444790739192385"><ele>589.0</ele><time>2026-04-05T11:09:20Z</time></trkpt><trkpt lat="44.79490540480577" lon="9.444814662693641"><ele>591.0</ele><time>2026-04-05T11:09:21Z</time></trkpt><trkpt lat="44.7948289753916" lon="9.444791586032425"><ele>593.0</ele><time>2026-04-05T11:09:22Z</time></trkpt><trkpt lat="44.79474302364335" lon="9.444721507364155"><ele>595.0</ele><time>2026-04-05T11:09:23Z</time></trkpt><trkpt lat="44.79468021654205" lon="9.444635189742053"><ele>592.4</ele><time>2026-04-05T11:09:24Z</time></trkpt><trkpt lat="44.794625176788166" lon="9.444543516202511"><ele>589.8</ele><time>2026-04-05T11:09:25Z</time></trkpt><trkpt lat="44.79456930853339" lon="9.444406220855612"><ele>587.2</ele><time>2026-04-05T11:09:26Z</time></trkpt><trkpt lat="44.79452399508656" lon="9.444255801636555"><ele>584.6</ele><time>2026-04-05T11:09:27Z</time></trkpt><trkpt lat="44.7944664479346" lon="9.444111864533099"><ele>582.0</ele><time>2026-04-05T11:09:28Z</time></trkpt><trkpt lat="44.79440518808797" lon="9.443996204247702"><ele>582.0</ele><time>2026-04-05T11:09:29Z</time></trkpt><trkpt lat="44.79434008496861" lon="9.443894960506427"><ele>582.0</ele><time>2026-04-05T11:09:30Z</time></trkpt><trkpt lat="44.794281014771094" lon="9.443798262131457"><ele>582.0</ele><time>2026-04-05T11:09:31Z</time></trkpt><trkpt lat="44.79421738311788" lon="9.443691357006387"><ele>582.0</ele><time>2026-04-05T11:09:32Z</time></trkpt><trkpt lat="44.79413725900051" lon="9.443551377881638"><ele>582.0</ele><time>2026-04-05T11:09:33Z</time></trkpt><trkpt lat="44.79404986855692" lon="9.443400646816052"><ele>582.5</ele><time>2026-04-05T11:09:34Z</time></trkpt><trkpt lat="44.79395972177809" lon="9.443252874221878"><ele>583.0</ele><time>2026-04-05T11:09:35Z</time></trkpt><trkpt lat="44.79388511691062" lon="9.443121597591098"><ele>583.5</ele><time>2026-04-05T11:09:36Z</time></trkpt><trkpt lat="44.79383459527885" lon="9.443003485345194"><ele>584.0</ele><time>2026-04-05T11:09:37Z</time></trkpt><trkpt lat="44.79377353237671" lon="9.442900214981313"><ele>584.4</ele><time>2026-04-05T11:09:38Z</time></trkpt><trkpt lat="44.79369940607646" lon="9.442821013242801"><ele>584.8</ele><time>2026-04-05T11:09:39Z</time></trkpt><trkpt lat="44.79361230402475" lon="9.442742761170884"><ele>585.2</ele><time>2026-04-05T11:09:40Z</time></trkpt><trkpt lat="44.7935321979593" lon="9.442633747572685"><ele>585.6</ele><time>2026-04-05T11:09:41Z</time></trkpt><trkpt lat="44.79345021077623" lon="9.442510005678797"><ele>586.0</ele><time>2026-04-05T11:09:42Z</time></trkpt><trkpt lat="44.79335987628077" lon="9.442387520385182"><ele>586.0</ele><time>2026-04-05T11:09:43Z</time></trkpt><trkpt lat="44.79326989828991" lon="9.442295177793154"><ele>586.0</ele><time>2026-04-05T11:09:44Z</time></trkpt><trkpt lat="44.793194461663134" lon="9.442252095826058"><ele>586.0</ele><time>2026-04-05T11:09:45Z</time></trkpt><trkpt lat="44.793135388708386" lon="9.442284238660989"><ele>586.0</ele><time>2026-04-05T11:09:50Z</time></trkpt><trkpt lat="44.79314689687972" lon="9.442194527284727"><ele>586.0</ele><time>2026-04-05T11:10:11Z</time></trkpt><trkpt lat="44.79310469777166" lon="9.44211418683394"><ele>586.0</ele><time>2026-04-05T11:10:16Z</time></trkpt><trkpt lat="44.79307036317373" lon="9.442038175105779"><ele>583.0</ele><time>2026-04-05T11:10:38Z</time></trkpt><trkpt lat="44.79314232839632" lon="9.441958326307585"><ele>580.0</ele><time>2026-04-05T11:10:41Z</time></trkpt><trkpt lat="44.79316828424542" lon="9.441822928637658"><ele>577.0</ele><time>2026-04-05T11:10:44Z</time></trkpt><trkpt lat="44.79316937184509" lon="9.441722336754951"><ele>574.0</ele><time>2026-04-05T11:10:47Z</time></trkpt><trkpt lat="44.79310721150761" lon="9.441702404094139"><ele>571.0</ele><time>2026-04-05T11:10:51Z</time></trkpt><trkpt lat="44.7930516244846" lon="9.44174438008116"><ele>568.0</ele><time>2026-04-05T11:10:53Z</time></trkpt><trkpt lat="44.7930238798883" lon="9.441829021625495"><ele>568.0</ele><time>2026-04-05T11:10:57Z</time></trkpt><trkpt lat="44.79300996467702" lon="9.44170080738858"><ele>568.0</ele><time>2026-04-05T11:11:00Z</time></trkpt><trkpt lat="44.793073448295516" lon="9.441600367397204"><ele>568.0</ele><time>2026-04-05T11:11:02Z</time></trkpt><trkpt lat="44.79314327526862" lon="9.441573327794796"><ele>568.0</ele><time>2026-04-05T11:11:04Z</time></trkpt><trkpt lat="44.793167772044136" lon="9.441463768546459"><ele>568.0</ele><time>2026-04-05T11:11:07Z</time></trkpt><trkpt lat="44.79315986702346" lon="9.441363188256126"><ele>568.0</ele><time>2026-04-05T11:11:08Z</time></trkpt><trkpt lat="44.79316908285987" lon="9.44111047904063"><ele>565.8333333333334</ele><time>2026-04-05T11:11:11Z</time></trkpt><trkpt lat="44.793152482401176" lon="9.441019580085937"><ele>563.6666666666667</ele><time>2026-04-05T11:11:12Z</time></trkpt><trkpt lat="44.793139520088744" lon="9.440929274233277"><ele>561.5</ele><time>2026-04-05T11:11:13Z</time></trkpt><trkpt lat="44.7931515171096" lon="9.440772036327006"><ele>559.3333333333334</ele><time>2026-04-05T11:11:15Z</time></trkpt><trkpt lat="44.79318331076712" lon="9.440628909187822"><ele>557.1666666666666</ele><time>2026-04-05T11:11:17Z</time></trkpt><trkpt lat="44.79320759891343" lon="9.440495923097046"><ele>555.0</ele><time>2026-04-05T11:11:19Z</time></trkpt><trkpt lat="44.79317790237352" lon="9.44040870793622"><ele>552.8333333333334</ele><time>2026-04-05T11:11:22Z</time></trkpt><trkpt lat="44.79315571311358" lon="9.4403081728799"><ele>550.6666666666666</ele><time>2026-04-05T11:11:24Z</time></trkpt><trkpt lat="44.79322391859712" lon="9.440253327548934"><ele>548.5</ele><time>2026-04-05T11:11:28Z</time></trkpt><trkpt lat="44.79328945789322" lon="9.440266692626164"><ele>546.3333333333333</ele><time>2026-04-05T11:11:31Z</time></trkpt><trkpt lat="44.79334915503109" lon="9.440329681988853"><ele>544.1666666666666</ele><time>2026-04-05T11:11:34Z</time></trkpt><trkpt lat="44.793388020982434" lon="9.440255434579651"><ele>542.0</ele><time>2026-04-05T11:11:36Z</time></trkpt><trkpt lat="44.79347169252638" lon="9.44008417650296"><ele>542.0</ele><time>2026-04-05T11:11:38Z</time></trkpt><trkpt lat="44.79345740885315" lon="9.440172903952057"><ele>542.0</ele><time>2026-04-05T11:11:49Z</time></trkpt><trkpt lat="44.79341689284962" lon="9.440283370563948"><ele>542.0</ele><time>2026-04-05T11:11:51Z</time></trkpt><trkpt lat="44.79335590466837" lon="9.440314984593543"><ele>542.0</ele><time>2026-04-05T11:11:54Z</time></trkpt><trkpt lat="44.79327709169095" lon="9.440243865375294"><ele>542.0</ele><time>2026-04-05T11:11:56Z</time></trkpt><trkpt lat="44.79320336663607" lon="9.44026859380902"><ele>542.0</ele><time>2026-04-05T11:11:59Z</time></trkpt><trkpt lat="44.79322292447539" lon="9.440372158043974"><ele>544.6</ele><time>2026-04-05T11:12:01Z</time></trkpt><trkpt lat="44.79323236539701" lon="9.440531637426977"><ele>547.2</ele><time>2026-04-05T11:12:03Z</time></trkpt><trkpt lat="44.79318689601632" lon="9.440700876842515"><ele>549.8</ele><time>2026-04-05T11:12:05Z</time></trkpt><trkpt lat="44.79316328696419" lon="9.440807401432481"><ele>552.4</ele><time>2026-04-05T11:12:06Z</time></trkpt><trkpt lat="44.79313397653815" lon="9.440910730758315"><ele>555.0</ele><time>2026-04-05T11:12:07Z</time></trkpt><trkpt lat="44.79311756891748" lon="9.441018348129653"><ele>555.0</ele><time>2026-04-05T11:12:08Z</time></trkpt><trkpt lat="44.79314474466141" lon="9.441119475350305"><ele>555.0</ele><time>2026-04-05T11:12:09Z</time></trkpt><trkpt lat="44.79316605344566" lon="9.441222865690216"><ele>555.0</ele><time>2026-04-05T11:12:10Z</time></trkpt><trkpt lat="44.79318207197923" lon="9.441337870875126"><ele>555.0</ele><time>2026-04-05T11:12:11Z</time></trkpt><trkpt lat="44.793179190374616" lon="9.441478789306656"><ele>555.0</ele><time>2026-04-05T11:12:13Z</time></trkpt><trkpt lat="44.7931051158543" lon="9.441559244013275"><ele>555.0</ele><time>2026-04-05T11:12:15Z</time></trkpt><trkpt lat="44.7930113611154" lon="9.441657383297791"><ele>557.6</ele><time>2026-04-05T11:12:17Z</time></trkpt><trkpt lat="44.79296859375042" lon="9.441733900496319"><ele>560.2</ele><time>2026-04-05T11:12:18Z</time></trkpt><trkpt lat="44.792907791447526" lon="9.441872287319455"><ele>562.8</ele><time>2026-04-05T11:12:20Z</time></trkpt><trkpt lat="44.79285534965329" lon="9.44200660381375"><ele>565.4</ele><time>2026-04-05T11:12:22Z</time></trkpt><trkpt lat="44.79278431120423" lon="9.441998916051535"><ele>568.0</ele><time>2026-04-05T11:12:27Z</time></trkpt><trkpt lat="44.79279891113636" lon="9.441866330384247"><ele>568.0</ele><time>2026-04-05T11:12:29Z</time></trkpt><trkpt lat="44.79280571492649" lon="9.441694768534541"><ele>568.0</ele><time>2026-04-05T11:12:31Z</time></trkpt><trkpt lat="44.79282037329092" lon="9.441585246051941"><ele>568.0</ele><time>2026-04-05T11:12:32Z</time></trkpt><trkpt lat="44.79282568975269" lon="9.441465727241079"><ele>568.0</ele><time>2026-04-05T11:12:33Z</time></trkpt><trkpt lat="44.79282959420421" lon="9.44133784930302"><ele>568.0</ele><time>2026-04-05T11:12:34Z</time></trkpt><trkpt lat="44.79284199841701" lon="9.441209960725132"><ele>565.8333333333334</ele><time>2026-04-05T11:12:35Z</time></trkpt><trkpt lat="44.792865089586854" lon="9.441093604041006"><ele>563.6666666666667</ele><time>2026-04-05T11:12:36Z</time></trkpt><trkpt lat="44.79289243885854" lon="9.440980479559528"><ele>561.5</ele><time>2026-04-05T11:12:37Z</time></trkpt><trkpt lat="44.79292449782681" lon="9.440877445962615"><ele>559.3333333333334</ele><time>2026-04-05T11:12:38Z</time></trkpt><trkpt lat="44.79294012592631" lon="9.440775945169138"><ele>557.1666666666666</ele><time>2026-04-05T11:12:39Z</time></trkpt><trkpt lat="44.79293656274003" lon="9.440677819787595"><ele>555.0</ele><time>2026-04-05T11:12:40Z</time></trkpt><trkpt lat="44.792926353616096" lon="9.440574595635061"><ele>555.0</ele><time>2026-04-05T11:12:41Z</time></trkpt><trkpt lat="44.79292939331223" lon="9.440473812084413"><ele>555.0</ele><time>2026-04-05T11:12:42Z</time></trkpt><trkpt lat="44.792936738109546" lon="9.440379996361031"><ele>555.0</ele><time>2026-04-05T11:12:43Z</time></trkpt><trkpt lat="44.79295043317078" lon="9.440280524578393"><ele>555.0</ele><time>2026-04-05T11:12:44Z</time></trkpt><trkpt lat="44.79296330577986" lon="9.440168228271158"><ele>555.0</ele><time>2026-04-05T11:12:45Z</time></trkpt><trkpt lat="44.79297206457204" lon="9.440055525335111"><ele>555.0</ele><time>2026-04-05T11:12:46Z</time></trkpt><trkpt lat="44.79298358940117" lon="9.439943988425574"><ele>552.4</ele><time>2026-04-05T11:12:47Z</time></trkpt><trkpt lat="44.79299358293342" lon="9.439825093405785"><ele>549.8</ele><time>2026-04-05T11:12:48Z</time></trkpt><trkpt lat="44.79300322756167" lon="9.43971124076894"><ele>547.2</ele><time>2026-04-05T11:12:49Z</time></trkpt><trkpt lat="44.793009386234" lon="9.439594047853495"><ele>544.6</ele><time>2026-04-05T11:12:50Z</time></trkpt><trkpt lat="44.79297840402375" lon="9.439443132389703"><ele>542.0</ele><time>2026-04-05T11:12:52Z</time></trkpt><trkpt lat="44.79303391252351" lon="9.439286613520661"><ele>538.3333333333333</ele><time>2026-04-05T11:12:54Z</time></trkpt><trkpt lat="44.793100948835644" lon="9.439138890507095"><ele>534.6666666666666</ele><time>2026-04-05T11:12:56Z</time></trkpt><trkpt lat="44.79315092542017" lon="9.439072622360676"><ele>531.0</ele><time>2026-04-05T11:12:57Z</time></trkpt><trkpt lat="44.793217358718394" lon="9.438994309398987"><ele>527.3333333333334</ele><time>2026-04-05T11:12:59Z</time></trkpt><trkpt lat="44.793214750785715" lon="9.438901785746907"><ele>523.6666666666667</ele><time>2026-04-05T11:13:01Z</time></trkpt><trkpt lat="44.793182988364094" lon="9.43878126397301"><ele>520.0</ele><time>2026-04-05T11:13:03Z</time></trkpt><trkpt lat="44.79314324952738" lon="9.438648144139002"><ele>517.3333333333334</ele><time>2026-04-05T11:13:05Z</time></trkpt><trkpt lat="44.79315876857487" lon="9.438542168029443"><ele>514.6666666666667</ele><time>2026-04-05T11:13:07Z</time></trkpt><trkpt lat="44.793165706706425" lon="9.438433297114539"><ele>512.0</ele><time>2026-04-05T11:13:08Z</time></trkpt><trkpt lat="44.793152257227966" lon="9.438307505291638"><ele>509.33333333333337</ele><time>2026-04-05T11:13:09Z</time></trkpt><trkpt lat="44.793157206045606" lon="9.438200512079769"><ele>506.6666666666667</ele><time>2026-04-05T11:13:10Z</time></trkpt><trkpt lat="44.79313896353699" lon="9.438097828880375"><ele>504.0</ele><time>2026-04-05T11:13:11Z</time></trkpt><trkpt lat="44.79312244291241" lon="9.437991780788035"><ele>501.2</ele><time>2026-04-05T11:13:12Z</time></trkpt><trkpt lat="44.79311379381766" lon="9.437832657473848"><ele>498.4</ele><time>2026-04-05T11:13:14Z</time></trkpt><trkpt lat="44.79306051656416" lon="9.437761628734453"><ele>495.6</ele><time>2026-04-05T11:13:16Z</time></trkpt><trkpt lat="44.792955552478034" lon="9.437858465797408"><ele>492.8</ele><time>2026-04-05T11:13:18Z</time></trkpt><trkpt lat="44.792892781340555" lon="9.437911464614684"><ele>490.0</ele><time>2026-04-05T11:13:19Z</time></trkpt><trkpt lat="44.79282377158045" lon="9.437961742829327"><ele>490.0</ele><time>2026-04-05T11:13:20Z</time></trkpt><trkpt lat="44.7927604303635" lon="9.438018167129567"><ele>490.0</ele><time>2026-04-05T11:13:21Z</time></trkpt><trkpt lat="44.792703731825775" lon="9.438062126477451"><ele>490.0</ele><time>2026-04-05T11:13:22Z</time></trkpt><trkpt lat="44.79263691203067" lon="9.438041982471967"><ele>490.0</ele><time>2026-04-05T11:13:24Z</time></trkpt><trkpt lat="44.79271347357017" lon="9.43791461570794"><ele>490.0</ele><time>2026-04-05T11:13:26Z</time></trkpt><trkpt lat="44.79284406637579" lon="9.437773720789718"><ele>490.0</ele><time>2026-04-05T11:13:28Z</time></trkpt><trkpt lat="44.79298129489966" lon="9.437640913698186"><ele>490.0</ele><time>2026-04-05T11:13:29Z</time></trkpt><trkpt lat="44.79306563172992" lon="9.43752262291017"><ele>490.0</ele><time>2026-04-05T11:13:30Z</time></trkpt><trkpt lat="44.79315074916009" lon="9.43740772381512"><ele>490.0</ele><time>2026-04-05T11:13:31Z</time></trkpt><trkpt lat="44.793222959698795" lon="9.437288888064721"><ele>490.0</ele><time>2026-04-05T11:13:32Z</time></trkpt><trkpt lat="44.79329668167396" lon="9.43717370409332"><ele>490.0</ele><time>2026-04-05T11:13:33Z</time></trkpt><trkpt lat="44.79334952212718" lon="9.43705402617125"><ele>490.0</ele><time>2026-04-05T11:13:34Z</time></trkpt><trkpt lat="44.79338802066594" lon="9.436922324510974"><ele>490.0</ele><time>2026-04-05T11:13:35Z</time></trkpt><trkpt lat="44.79340800728852" lon="9.436776981583956"><ele>490.0</ele><time>2026-04-05T11:13:36Z</time></trkpt><trkpt lat="44.7934125544883" lon="9.436607107248902"><ele>486.5</ele><time>2026-04-05T11:13:37Z</time></trkpt><trkpt lat="44.79341430716401" lon="9.436433772242001"><ele>483.0</ele><time>2026-04-05T11:13:37.999Z</time></trkpt><trkpt lat="44.79343073406291" lon="9.436259775521041"><ele>479.5</ele><time>2026-04-05T11:13:38.999Z</time></trkpt><trkpt lat="44.79346177175018" lon="9.43607072019256"><ele>476.0</ele><time>2026-04-05T11:13:39.999Z</time></trkpt><trkpt lat="44.79354205817851" lon="9.435907633010812"><ele>475.0</ele><time>2026-04-05T11:13:40.999Z</time></trkpt><trkpt lat="44.79358820249038" lon="9.435738762983885"><ele>474.0</ele><time>2026-04-05T11:13:41.999Z</time></trkpt><trkpt lat="44.793631113976495" lon="9.435572782960534"><ele>473.0</ele><time>2026-04-05T11:13:42.999Z</time></trkpt><trkpt lat="44.79364521945145" lon="9.43540064856344"><ele>472.0</ele><time>2026-04-05T11:13:43.999Z</time></trkpt><trkpt lat="44.79368621260322" lon="9.435245480832855"><ele>472.0</ele><time>2026-04-05T11:13:44.999Z</time></trkpt><trkpt lat="44.793725044813904" lon="9.43508493611258"><ele>472.0</ele><time>2026-04-05T11:13:45.999Z</time></trkpt><trkpt lat="44.79375451207951" lon="9.434923224884619"><ele>472.0</ele><time>2026-04-05T11:13:46.999Z</time></trkpt><trkpt lat="44.79380625735538" lon="9.434769582732631"><ele>472.0</ele><time>2026-04-05T11:13:47.999Z</time></trkpt><trkpt lat="44.79383246274386" lon="9.434604828858344"><ele>471.20000000000005</ele><time>2026-04-05T11:13:48.999Z</time></trkpt><trkpt lat="44.79386359284622" lon="9.434438101421037"><ele>470.40000000000003</ele><time>2026-04-05T11:13:49.999Z</time></trkpt><trkpt lat="44.79389876357522" lon="9.434274222619754"><ele>469.59999999999997</ele><time>2026-04-05T11:13:50.999Z</time></trkpt><trkpt lat="44.79394250836044" lon="9.434164805162908"><ele>468.79999999999995</ele><time>2026-04-05T11:13:51.999Z</time></trkpt><trkpt lat="44.79400112739908" lon="9.434098235477476"><ele>468.0</ele><time>2026-04-05T11:13:52.999Z</time></trkpt><trkpt lat="44.794064952182715" lon="9.4340589866314"><ele>468.0</ele><time>2026-04-05T11:13:53.999Z</time></trkpt><trkpt lat="44.79412346411942" lon="9.43402356482218"><ele>468.0</ele><time>2026-04-05T11:13:54.999Z</time></trkpt><trkpt lat="44.79401024755589" lon="9.433945260741552"><ele>468.0</ele><time>2026-04-05T11:14:01Z</time></trkpt><trkpt lat="44.793926494019075" lon="9.433981894129362"><ele>468.0</ele><time>2026-04-05T11:14:02Z</time></trkpt><trkpt lat="44.793846499480466" lon="9.434003893514049"><ele>468.0</ele><time>2026-04-05T11:14:03Z</time></trkpt><trkpt lat="44.79376598807303" lon="9.434020831894124"><ele>468.0</ele><time>2026-04-05T11:14:04Z</time></trkpt><trkpt lat="44.79368979248827" lon="9.434037617490972"><ele>468.0</ele><time>2026-04-05T11:14:05Z</time></trkpt><trkpt lat="44.79362286851739" lon="9.434089983863782"><ele>468.0</ele><time>2026-04-05T11:14:06Z</time></trkpt><trkpt lat="44.793556730943365" lon="9.4341773153153"><ele>468.0</ele><time>2026-04-05T11:14:07Z</time></trkpt><trkpt lat="44.793483666224034" lon="9.434261718470593"><ele>468.0</ele><time>2026-04-05T11:14:08Z</time></trkpt><trkpt lat="44.793398862775646" lon="9.434323510933977"><ele>468.0</ele><time>2026-04-05T11:14:09Z</time></trkpt><trkpt lat="44.79331435243495" lon="9.43436173381803"><ele>468.0</ele><time>2026-04-05T11:14:10Z</time></trkpt><trkpt lat="44.79322988701034" lon="9.43440410563431"><ele>463.8333333333333</ele><time>2026-04-05T11:14:11Z</time></trkpt><trkpt lat="44.793148811421425" lon="9.434429921820469"><ele>459.66666666666663</ele><time>2026-04-05T11:14:12Z</time></trkpt><trkpt lat="44.79306458052186" lon="9.434442208844638"><ele>455.5</ele><time>2026-04-05T11:14:13Z</time></trkpt><trkpt lat="44.792983847993334" lon="9.434460074242507"><ele>451.3333333333333</ele><time>2026-04-05T11:14:14Z</time></trkpt><trkpt lat="44.7928904581242" lon="9.434482115002996"><ele>447.16666666666663</ele><time>2026-04-05T11:14:15Z</time></trkpt><trkpt lat="44.79279263684128" lon="9.434495749068454"><ele>443.0</ele><time>2026-04-05T11:14:16Z</time></trkpt><trkpt lat="44.79270665513132" lon="9.434496832564985"><ele>440.8333333333333</ele><time>2026-04-05T11:14:17Z</time></trkpt><trkpt lat="44.79263079093237" lon="9.434497462228167"><ele>438.66666666666663</ele><time>2026-04-05T11:14:18Z</time></trkpt><trkpt lat="44.792547890932866" lon="9.434511410949005"><ele>436.5</ele><time>2026-04-05T11:14:19Z</time></trkpt><trkpt lat="44.792460273706325" lon="9.43452649054712"><ele>434.33333333333337</ele><time>2026-04-05T11:14:20Z</time></trkpt><trkpt lat="44.79237667004178" lon="9.43455465263507"><ele>432.1666666666667</ele><time>2026-04-05T11:14:21Z</time></trkpt><trkpt lat="44.792295165876" lon="9.434595989625313"><ele>430.0</ele><time>2026-04-05T11:14:22Z</time></trkpt><trkpt lat="44.792220808037236" lon="9.43463143372886"><ele>430.00000000000006</ele><time>2026-04-05T11:14:23Z</time></trkpt><trkpt lat="44.79215209132786" lon="9.4346733611417"><ele>430.0</ele><time>2026-04-05T11:14:24Z</time></trkpt><trkpt lat="44.792088305088065" lon="9.434725007451755"><ele>430.0</ele><time>2026-04-05T11:14:25Z</time></trkpt><trkpt lat="44.7920243263278" lon="9.434778005416362"><ele>430.0</ele><time>2026-04-05T11:14:26Z</time></trkpt><trkpt lat="44.79192345931611" lon="9.434704790092054"><ele>430.00000000000006</ele><time>2026-04-05T11:14:28Z</time></trkpt><trkpt lat="44.79187997268252" lon="9.434589760357696"><ele>430.0</ele><time>2026-04-05T11:14:29Z</time></trkpt><trkpt lat="44.791818833493544" lon="9.434483648742113"><ele>429.6666666666667</ele><time>2026-04-05T11:14:30Z</time></trkpt><trkpt lat="44.79176112558652" lon="9.434383129001677"><ele>429.33333333333337</ele><time>2026-04-05T11:14:31Z</time></trkpt><trkpt lat="44.79170665175178" lon="9.434269193409042"><ele>429.0</ele><time>2026-04-05T11:14:32Z</time></trkpt><trkpt lat="44.79165811019387" lon="9.434155943648499"><ele>428.66666666666663</ele><time>2026-04-05T11:14:33Z</time></trkpt><trkpt lat="44.791608464158436" lon="9.434080364427071"><ele>428.3333333333333</ele><time>2026-04-05T11:14:34Z</time></trkpt><trkpt lat="44.79155067473058" lon="9.4340216683407"><ele>428.0</ele><time>2026-04-05T11:14:35Z</time></trkpt><trkpt lat="44.791487464462264" lon="9.433976737284256"><ele>427.99999999999994</ele><time>2026-04-05T11:14:36Z</time></trkpt><trkpt lat="44.79138203419983" lon="9.43396356042466"><ele>428.0</ele><time>2026-04-05T11:14:38Z</time></trkpt><trkpt lat="44.791325591314475" lon="9.43400860485693"><ele>428.0</ele><time>2026-04-05T11:14:39Z</time></trkpt><trkpt lat="44.791265065168616" lon="9.434099571442013"><ele>428.0</ele><time>2026-04-05T11:14:40Z</time></trkpt><trkpt lat="44.7911967604437" lon="9.43421090014961"><ele>427.99999999999994</ele><time>2026-04-05T11:14:41Z</time></trkpt><trkpt lat="44.791137051824286" lon="9.434278641942313"><ele>428.0</ele><time>2026-04-05T11:14:42Z</time></trkpt><trkpt lat="44.79105928774925" lon="9.434268605809223"><ele>427.99999999999994</ele><time>2026-04-05T11:14:44Z</time></trkpt><trkpt lat="44.79101134770648" lon="9.434156950589989"><ele>428.0</ele><time>2026-04-05T11:14:46Z</time></trkpt><trkpt lat="44.79097974857532" lon="9.434069315366024"><ele>428.0</ele><time>2026-04-05T11:14:48Z</time></trkpt><trkpt lat="44.79094542570612" lon="9.433993310900156"><ele>428.0</ele><time>2026-04-05T11:14:49Z</time></trkpt><trkpt lat="44.790914700967946" lon="9.433858805438108"><ele>427.99999999999994</ele><time>2026-04-05T11:14:51Z</time></trkpt><trkpt lat="44.790909410706924" lon="9.433743063807107"><ele>428.0</ele><time>2026-04-05T11:14:53Z</time></trkpt><trkpt lat="44.79090744229421" lon="9.433585287316717"><ele>426.2</ele><time>2026-04-05T11:14:55Z</time></trkpt><trkpt lat="44.79092755699258" lon="9.433485955428004"><ele>424.4</ele><time>2026-04-05T11:14:56Z</time></trkpt><trkpt lat="44.790950198223726" lon="9.433386846803023"><ele>422.59999999999997</ele><time>2026-04-05T11:14:57Z</time></trkpt><trkpt lat="44.79098433192429" lon="9.433293453388618"><ele>420.79999999999995</ele><time>2026-04-05T11:14:58Z</time></trkpt><trkpt lat="44.79103760734636" lon="9.433147621000474"><ele>419.0</ele><time>2026-04-05T11:15:00Z</time></trkpt><trkpt lat="44.7910269909391" lon="9.432966987573078"><ele>423.4</ele><time>2026-04-05T11:15:02Z</time></trkpt><trkpt lat="44.79098799535917" lon="9.432838129735769"><ele>427.79999999999995</ele><time>2026-04-05T11:15:04Z</time></trkpt><trkpt lat="44.79094677764433" lon="9.432707715419285"><ele>432.20000000000005</ele><time>2026-04-05T11:15:06Z</time></trkpt><trkpt lat="44.79095776207" lon="9.432561582695984"><ele>436.6</ele><time>2026-04-05T11:15:08Z</time></trkpt><trkpt lat="44.790939168155695" lon="9.432410977097243"><ele>441.0</ele><time>2026-04-05T11:15:10Z</time></trkpt><trkpt lat="44.79093793205752" lon="9.43225783032836"><ele>441.0</ele><time>2026-04-05T11:15:12Z</time></trkpt><trkpt lat="44.791002450198405" lon="9.432144382758542"><ele>441.0</ele><time>2026-04-05T11:15:14Z</time></trkpt><trkpt lat="44.79103921739326" lon="9.432041973220143"><ele>441.0</ele><time>2026-04-05T11:15:16Z</time></trkpt><trkpt lat="44.79109161064576" lon="9.43176049159978"><ele>441.0</ele><time>2026-04-05T11:15:19Z</time></trkpt><trkpt lat="44.791108696698196" lon="9.431620784604233"><ele>437.0</ele><time>2026-04-05T11:15:21Z</time></trkpt><trkpt lat="44.79114627350966" lon="9.43152588224924"><ele>433.0</ele><time>2026-04-05T11:15:22Z</time></trkpt><trkpt lat="44.7911948799069" lon="9.43137821248931"><ele>429.0</ele><time>2026-04-05T11:15:23Z</time></trkpt><trkpt lat="44.791235369034084" lon="9.431235420887202"><ele>425.0</ele><time>2026-04-05T11:15:24Z</time></trkpt><trkpt lat="44.79124239455238" lon="9.431128449663879"><ele>421.0</ele><time>2026-04-05T11:15:25Z</time></trkpt><trkpt lat="44.79125240353643" lon="9.431030347064784"><ele>417.0</ele><time>2026-04-05T11:15:26Z</time></trkpt><trkpt lat="44.791276687094445" lon="9.430915823330949"><ele>417.0</ele><time>2026-04-05T11:15:27Z</time></trkpt><trkpt lat="44.791303708223346" lon="9.430799908647199"><ele>417.0</ele><time>2026-04-05T11:15:28Z</time></trkpt><trkpt lat="44.791335434346685" lon="9.430710886144945"><ele>417.0</ele><time>2026-04-05T11:15:28.999Z</time></trkpt><trkpt lat="44.79135653548192" lon="9.43059853888205"><ele>417.0</ele><time>2026-04-05T11:15:29.999Z</time></trkpt><trkpt lat="44.79137623754478" lon="9.430487457420956"><ele>417.0</ele><time>2026-04-05T11:15:30.999Z</time></trkpt><trkpt lat="44.79138830964207" lon="9.430379518994705"><ele>417.0</ele><time>2026-04-05T11:15:31.999Z</time></trkpt><trkpt lat="44.79136858887272" lon="9.430279780447371"><ele>417.1666666666667</ele><time>2026-04-05T11:15:32.999Z</time></trkpt><trkpt lat="44.79131155418865" lon="9.430197678798597"><ele>417.33333333333337</ele><time>2026-04-05T11:15:33.999Z</time></trkpt><trkpt lat="44.7912606734491" lon="9.430117185150696"><ele>417.5</ele><time>2026-04-05T11:15:34.999Z</time></trkpt><trkpt lat="44.79120619889323" lon="9.430050157798068"><ele>417.6666666666667</ele><time>2026-04-05T11:15:35.999Z</time></trkpt><trkpt lat="44.791141466235096" lon="9.429949155330277"><ele>417.83333333333337</ele><time>2026-04-05T11:15:37.999Z</time></trkpt><trkpt lat="44.79108897256389" lon="9.429865400026141"><ele>418.0</ele><time>2026-04-05T11:15:39.999Z</time></trkpt><trkpt lat="44.7910125156381" lon="9.429812857102561"><ele>418.0</ele><time>2026-04-05T11:15:41.999Z</time></trkpt><trkpt lat="44.7910226588894" lon="9.42970052980954"><ele>418.0</ele><time>2026-04-05T11:15:44.999Z</time></trkpt><trkpt lat="44.79100552789014" lon="9.429615027314192"><ele>418.0</ele><time>2026-04-05T11:15:45.999Z</time></trkpt><trkpt lat="44.79097642439679" lon="9.429482707603038"><ele>418.0</ele><time>2026-04-05T11:15:47.999Z</time></trkpt><trkpt lat="44.7909342581916" lon="9.429347620702531"><ele>418.0</ele><time>2026-04-05T11:15:49.999Z</time></trkpt><trkpt lat="44.79094086189578" lon="9.429178675044957"><ele>418.83333333333337</ele><time>2026-04-05T11:15:51.999Z</time></trkpt><trkpt lat="44.79092801461422" lon="9.42904845196618"><ele>419.6666666666667</ele><time>2026-04-05T11:15:54.999Z</time></trkpt><trkpt lat="44.79088996318573" lon="9.428946776313744"><ele>420.5</ele><time>2026-04-05T11:15:55.999Z</time></trkpt><trkpt lat="44.79085958176156" lon="9.428856374261779"><ele>421.33333333333337</ele><time>2026-04-05T11:15:56.999Z</time></trkpt><trkpt lat="44.79084133057561" lon="9.428766367347967"><ele>422.1666666666667</ele><time>2026-04-05T11:15:57.999Z</time></trkpt><trkpt lat="44.790812146391175" lon="9.42866227450684"><ele>423.0</ele><time>2026-04-05T11:15:59.999Z</time></trkpt><trkpt lat="44.79073106264266" lon="9.428575781540326"><ele>423.0</ele><time>2026-04-05T11:16:02.999Z</time></trkpt><trkpt lat="44.79062333459552" lon="9.428575142626231"><ele>423.0</ele><time>2026-04-05T11:16:04.999Z</time></trkpt><trkpt lat="44.79047231706885" lon="9.428441732839804"><ele>423.0</ele><time>2026-04-05T11:16:07Z</time></trkpt><trkpt lat="44.79038188750576" lon="9.428413187517307"><ele>423.0</ele><time>2026-04-05T11:16:08Z</time></trkpt><trkpt lat="44.79031424688568" lon="9.428398085348435"><ele>423.0</ele><time>2026-04-05T11:16:09Z</time></trkpt><trkpt lat="44.79019845756401" lon="9.428422643906716"><ele>423.8333333333333</ele><time>2026-04-05T11:16:11Z</time></trkpt><trkpt lat="44.79013655229175" lon="9.428455149077111"><ele>424.66666666666663</ele><time>2026-04-05T11:16:12Z</time></trkpt><trkpt lat="44.79006799579422" lon="9.428481423276535"><ele>425.5</ele><time>2026-04-05T11:16:13Z</time></trkpt><trkpt lat="44.78999250178954" lon="9.428508964253925"><ele>426.3333333333333</ele><time>2026-04-05T11:16:14Z</time></trkpt><trkpt lat="44.789928680178285" lon="9.42853142776408"><ele>427.16666666666663</ele><time>2026-04-05T11:16:15Z</time></trkpt><trkpt lat="44.78985881866777" lon="9.428438073409248"><ele>428.0</ele><time>2026-04-05T11:16:17Z</time></trkpt><trkpt lat="44.78990994731326" lon="9.428306842840787"><ele>428.0</ele><time>2026-04-05T11:16:19Z</time></trkpt><trkpt lat="44.78995560626991" lon="9.428198536219607"><ele>427.99999999999994</ele><time>2026-04-05T11:16:21Z</time></trkpt><trkpt lat="44.78989726129337" lon="9.428065775723805"><ele>427.99999999999994</ele><time>2026-04-05T11:16:23Z</time></trkpt><trkpt lat="44.78979595254977" lon="9.42794816488719"><ele>428.0</ele><time>2026-04-05T11:16:25Z</time></trkpt><trkpt lat="44.789726814372294" lon="9.427859242436117"><ele>428.0</ele><time>2026-04-05T11:16:26Z</time></trkpt><trkpt lat="44.789663712644334" lon="9.427807818286956"><ele>425.8333333333333</ele><time>2026-04-05T11:16:27Z</time></trkpt><trkpt lat="44.78960241789488" lon="9.42771181521985"><ele>423.66666666666663</ele><time>2026-04-05T11:16:29Z</time></trkpt><trkpt lat="44.78963586361502" lon="9.427635095138994"><ele>421.5</ele><time>2026-04-05T11:16:30Z</time></trkpt><trkpt lat="44.78966755314005" lon="9.427530836892645"><ele>419.33333333333337</ele><time>2026-04-05T11:16:31Z</time></trkpt><trkpt lat="44.789676934582495" lon="9.427421774800862"><ele>417.1666666666667</ele><time>2026-04-05T11:16:32Z</time></trkpt><trkpt lat="44.78966822348467" lon="9.42728357773658"><ele>415.0</ele><time>2026-04-05T11:16:33Z</time></trkpt><trkpt lat="44.78965314872649" lon="9.427151989873048"><ele>414.1666666666667</ele><time>2026-04-05T11:16:34Z</time></trkpt><trkpt lat="44.78966065400193" lon="9.427034627818696"><ele>413.33333333333337</ele><time>2026-04-05T11:16:35Z</time></trkpt><trkpt lat="44.78966673469401" lon="9.426934267337915"><ele>412.5</ele><time>2026-04-05T11:16:36Z</time></trkpt><trkpt lat="44.78965456954802" lon="9.426829236651377"><ele>411.66666666666663</ele><time>2026-04-05T11:16:37Z</time></trkpt><trkpt lat="44.789560961428236" lon="9.426722688757918"><ele>410.8333333333333</ele><time>2026-04-05T11:16:39Z</time></trkpt><trkpt lat="44.78948454478945" lon="9.42668363856672"><ele>410.0</ele><time>2026-04-05T11:16:40Z</time></trkpt><trkpt lat="44.78943027026411" lon="9.426589871895569"><ele>409.99999999999994</ele><time>2026-04-05T11:16:42Z</time></trkpt><trkpt lat="44.7894918336199" lon="9.42647132374799"><ele>410.0</ele><time>2026-04-05T11:16:44Z</time></trkpt><trkpt lat="44.78955600575537" lon="9.426424855828909"><ele>410.0</ele><time>2026-04-05T11:16:45Z</time></trkpt><trkpt lat="44.78962186646692" lon="9.426381852475835"><ele>410.0</ele><time>2026-04-05T11:16:46Z</time></trkpt><trkpt lat="44.7896729351441" lon="9.426261943087338"><ele>409.99999999999994</ele><time>2026-04-05T11:16:48Z</time></trkpt><trkpt lat="44.789667048832165" lon="9.426167224010495"><ele>410.0</ele><time>2026-04-05T11:16:49Z</time></trkpt><trkpt lat="44.78961350479845" lon="9.42594632818401"><ele>409.66666666666663</ele><time>2026-04-05T11:16:51Z</time></trkpt><trkpt lat="44.789583750029536" lon="9.42583384778426"><ele>409.3333333333333</ele><time>2026-04-05T11:16:52Z</time></trkpt><trkpt lat="44.78954700856292" lon="9.425744450004762"><ele>409.0</ele><time>2026-04-05T11:16:53Z</time></trkpt><trkpt lat="44.78949773141413" lon="9.425675180099665"><ele>408.66666666666663</ele><time>2026-04-05T11:16:54Z</time></trkpt><trkpt lat="44.78943450655975" lon="9.42560623757247"><ele>408.3333333333333</ele><time>2026-04-05T11:16:55Z</time></trkpt><trkpt lat="44.789380095345976" lon="9.42552492335516"><ele>408.0</ele><time>2026-04-05T11:16:56Z</time></trkpt><trkpt lat="44.78938978084568" lon="9.42540826033781"><ele>409.0</ele><time>2026-04-05T11:16:58Z</time></trkpt><trkpt lat="44.789412462955944" lon="9.425257426762409"><ele>410.0</ele><time>2026-04-05T11:17:00Z</time></trkpt><trkpt lat="44.78944300204214" lon="9.425173315896041"><ele>411.0</ele><time>2026-04-05T11:17:01Z</time></trkpt><trkpt lat="44.78949535397555" lon="9.425095259793812"><ele>412.0</ele><time>2026-04-05T11:17:01.999Z</time></trkpt><trkpt lat="44.789553907070584" lon="9.425049182236684"><ele>413.0</ele><time>2026-04-05T11:17:02.999Z</time></trkpt><trkpt lat="44.78961384105665" lon="9.424998075972127"><ele>414.0</ele><time>2026-04-05T11:17:03.999Z</time></trkpt><trkpt lat="44.78965720359839" lon="9.424925760468813"><ele>414.0</ele><time>2026-04-05T11:17:04.999Z</time></trkpt><trkpt lat="44.78969881726652" lon="9.424841474412604"><ele>414.0</ele><time>2026-04-05T11:17:05.999Z</time></trkpt><trkpt lat="44.78976687937346" lon="9.424737773113694"><ele>414.0</ele><time>2026-04-05T11:17:07.999Z</time></trkpt><trkpt lat="44.78973713864666" lon="9.424585313056046"><ele>414.0</ele><time>2026-04-05T11:17:09.999Z</time></trkpt><trkpt lat="44.789706727859084" lon="9.424497122494722"><ele>414.0</ele><time>2026-04-05T11:17:10.999Z</time></trkpt><trkpt lat="44.78971710978455" lon="9.42433601333543"><ele>414.6666666666667</ele><time>2026-04-05T11:17:12.999Z</time></trkpt><trkpt lat="44.78973157668496" lon="9.424244133801661"><ele>415.33333333333337</ele><time>2026-04-05T11:17:13.999Z</time></trkpt><trkpt lat="44.78973322408217" lon="9.424150366969588"><ele>416.0</ele><time>2026-04-05T11:17:14.999Z</time></trkpt><trkpt lat="44.78972531142368" lon="9.424051630167028"><ele>416.6666666666667</ele><time>2026-04-05T11:17:15.999Z</time></trkpt><trkpt lat="44.789773164003954" lon="9.423889860315954"><ele>417.33333333333337</ele><time>2026-04-05T11:17:17.999Z</time></trkpt><trkpt lat="44.78979823446571" lon="9.42377589326601"><ele>418.0</ele><time>2026-04-05T11:17:18.999Z</time></trkpt><trkpt lat="44.789807470761794" lon="9.423638434829051"><ele>418.00000000000006</ele><time>2026-04-05T11:17:19.999Z</time></trkpt><trkpt lat="44.78981542785011" lon="9.423520252170153"><ele>418.0</ele><time>2026-04-05T11:17:20.999Z</time></trkpt><trkpt lat="44.78982162718322" lon="9.423426839920962"><ele>418.0</ele><time>2026-04-05T11:17:22.999Z</time></trkpt><trkpt lat="44.78979395983995" lon="9.423346744038733"><ele>418.0</ele><time>2026-04-05T11:17:26.999Z</time></trkpt><trkpt lat="44.78971622669114" lon="9.423372037981109"><ele>418.00000000000006</ele><time>2026-04-05T11:17:29.999Z</time></trkpt><trkpt lat="44.789651625313816" lon="9.4233678625431"><ele>418.0</ele><time>2026-04-05T11:17:31.999Z</time></trkpt><trkpt lat="44.789541923143574" lon="9.423310403902804"><ele>418.00000000000006</ele><time>2026-04-05T11:17:33.999Z</time></trkpt><trkpt lat="44.78944301060329" lon="9.423306581016803"><ele>418.0</ele><time>2026-04-05T11:17:34.999Z</time></trkpt><trkpt lat="44.789378682165726" lon="9.423318769322593"><ele>418.0</ele><time>2026-04-05T11:17:35.999Z</time></trkpt><trkpt lat="44.7893299783723" lon="9.42342835031717"><ele>418.0</ele><time>2026-04-05T11:17:37.999Z</time></trkpt><trkpt lat="44.789281211988936" lon="9.423486594910207"><ele>418.00000000000006</ele><time>2026-04-05T11:17:38.999Z</time></trkpt><trkpt lat="44.789219172394894" lon="9.42354248240612"><ele>418.0</ele><time>2026-04-05T11:17:40.999Z</time></trkpt><trkpt lat="44.78915396803159" lon="9.42347568616686"><ele>419.1428571428571</ele><time>2026-04-05T11:19:21.999Z</time></trkpt><trkpt lat="44.78908894650854" lon="9.423472146873628"><ele>420.2857142857143</ele><time>2026-04-05T11:19:44.999Z</time></trkpt><trkpt lat="44.789023654976475" lon="9.423517969033002"><ele>421.42857142857144</ele><time>2026-04-05T11:19:58.999Z</time></trkpt><trkpt lat="44.78897851784289" lon="9.4236082171715"><ele>422.57142857142856</ele><time>2026-04-05T11:20:02Z</time></trkpt><trkpt lat="44.788952469017666" lon="9.423700465376333"><ele>423.7142857142857</ele><time>2026-04-05T11:20:06Z</time></trkpt><trkpt lat="44.78888574663337" lon="9.423731977746888"><ele>424.85714285714283</ele><time>2026-04-05T11:20:08Z</time></trkpt><trkpt lat="44.788824351266136" lon="9.423793146840792"><ele>426.0</ele><time>2026-04-05T11:20:10Z</time></trkpt><trkpt lat="44.78876732853582" lon="9.423852957138184"><ele>427.8333333333333</ele><time>2026-04-05T11:20:14Z</time></trkpt><trkpt lat="44.7886930731309" lon="9.423843386241801"><ele>429.66666666666663</ele><time>2026-04-05T11:20:19.001Z</time></trkpt><trkpt lat="44.78861986830462" lon="9.423878280992264"><ele>431.5</ele><time>2026-04-05T11:20:21.001Z</time></trkpt><trkpt lat="44.78862751094681" lon="9.424011400558255"><ele>433.3333333333333</ele><time>2026-04-05T11:20:24.001Z</time></trkpt><trkpt lat="44.788670029183415" lon="9.42411042092464"><ele>435.16666666666663</ele><time>2026-04-05T11:20:28.001Z</time></trkpt><trkpt lat="44.78866108199713" lon="9.424198283964238"><ele>437.0</ele><time>2026-04-05T11:20:30.001Z</time></trkpt><trkpt lat="44.788651810908966" lon="9.424286603697375"><ele>437.0</ele><time>2026-04-05T11:20:33.001Z</time></trkpt><trkpt lat="44.78866837609792" lon="9.424389097766184"><ele>437.0</ele><time>2026-04-05T11:20:37.001Z</time></trkpt><trkpt lat="44.78870132194293" lon="9.424492063568591"><ele>437.0</ele><time>2026-04-05T11:20:41Z</time></trkpt><trkpt lat="44.78867913987238" lon="9.424603395012063"><ele>437.0</ele><time>2026-04-05T11:20:45Z</time></trkpt><trkpt lat="44.78865031488552" lon="9.424683796297485"><ele>437.0</ele><time>2026-04-05T11:20:48Z</time></trkpt><trkpt lat="44.78866797313827" lon="9.424771818928662"><ele>437.0</ele><time>2026-04-05T11:20:51Z</time></trkpt><trkpt lat="44.78872718566814" lon="9.424818826838964"><ele>437.0</ele><time>2026-04-05T11:20:54Z</time></trkpt><trkpt lat="44.78880096184798" lon="9.424852134096012"><ele>436.99999999999994</ele><time>2026-04-05T11:20:58Z</time></trkpt><trkpt lat="44.78875252399216" lon="9.424977623439894"><ele>437.0</ele><time>2026-04-05T11:22:14Z</time></trkpt><trkpt lat="44.78874424172786" lon="9.425113651687745"><ele>437.0</ele><time>2026-04-05T11:22:16Z</time></trkpt><trkpt lat="44.78866446376613" lon="9.425182554141134"><ele>437.0</ele><time>2026-04-05T11:22:18Z</time></trkpt><trkpt lat="44.788592354691886" lon="9.425222222454387"><ele>436.99999999999994</ele><time>2026-04-05T11:22:19Z</time></trkpt><trkpt lat="44.78853175596021" lon="9.42525848512472"><ele>437.0</ele><time>2026-04-05T11:22:20Z</time></trkpt><trkpt lat="44.788464987602204" lon="9.42532354926338"><ele>439.16666666666663</ele><time>2026-04-05T11:22:22Z</time></trkpt><trkpt lat="44.78842491622418" lon="9.425412499856407"><ele>441.3333333333333</ele><time>2026-04-05T11:22:25Z</time></trkpt><trkpt lat="44.788363015149194" lon="9.425517479183714"><ele>443.5</ele><time>2026-04-05T11:37:17.998Z</time></trkpt><trkpt lat="44.788286733176726" lon="9.425603949708774"><ele>445.66666666666663</ele><time>2026-04-05T11:37:19.999Z</time></trkpt><trkpt lat="44.78819833920925" lon="9.425571887183715"><ele>447.8333333333333</ele><time>2026-04-05T11:37:21.999Z</time></trkpt><trkpt lat="44.78817011803824" lon="9.425491908051315"><ele>450.0</ele><time>2026-04-05T11:37:25.999Z</time></trkpt><trkpt lat="44.78818933920802" lon="9.425405170888316"><ele>450.0</ele><time>2026-04-05T11:37:28.999Z</time></trkpt><trkpt lat="44.788230928372876" lon="9.425336414001068"><ele>450.0</ele><time>2026-04-05T11:37:35.999Z</time></trkpt><trkpt lat="44.788232229745226" lon="9.425442691372087"><ele>450.0</ele><time>2026-04-05T11:37:50.999Z</time></trkpt><trkpt lat="44.788140118623325" lon="9.425459713034673"><ele>450.0</ele><time>2026-04-05T11:38:01Z</time></trkpt><trkpt lat="44.788076833488525" lon="9.425425938084496"><ele>450.0</ele><time>2026-04-05T11:38:02Z</time></trkpt><trkpt lat="44.78800286796531" lon="9.425368459325407"><ele>450.0</ele><time>2026-04-05T11:38:03Z</time></trkpt><trkpt lat="44.78791922951935" lon="9.4253591800165"><ele>450.0</ele><time>2026-04-05T11:38:09Z</time></trkpt><trkpt lat="44.7878489296137" lon="9.425404452938944"><ele>450.0</ele><time>2026-04-05T11:38:19Z</time></trkpt><trkpt lat="44.78778479218091" lon="9.425445202664262"><ele>450.0</ele><time>2026-04-05T11:38:23Z</time></trkpt><trkpt lat="44.78774550385315" lon="9.425526395399073"><ele>450.0</ele><time>2026-04-05T11:38:27Z</time></trkpt><trkpt lat="44.78769376982659" lon="9.425595609409134"><ele>450.0</ele><time>2026-04-05T11:38:37Z</time></trkpt><trkpt lat="44.78766587437904" lon="9.425731538649663"><ele>450.0</ele><time>2026-04-05T11:38:45Z</time></trkpt><trkpt lat="44.78766734404006" lon="9.425832842184413"><ele>452.2</ele><time>2026-04-05T11:38:46Z</time></trkpt><trkpt lat="44.78768782840883" lon="9.42596086842354"><ele>454.4</ele><time>2026-04-05T11:38:48Z</time></trkpt><trkpt lat="44.78772494911287" lon="9.426109081542394"><ele>456.6</ele><time>2026-04-05T11:38:50Z</time></trkpt><trkpt lat="44.78775493044827" lon="9.42620658871142"><ele>458.8</ele><time>2026-04-05T11:38:52Z</time></trkpt><trkpt lat="44.78772877160986" lon="9.426435511333336"><ele>461.0</ele><time>2026-04-05T11:39:20Z</time></trkpt><trkpt lat="44.787775972454966" lon="9.426496668079475"><ele>463.14285714285717</ele><time>2026-04-05T11:39:22Z</time></trkpt><trkpt lat="44.78784543367633" lon="9.42654303006177"><ele>465.28571428571433</ele><time>2026-04-05T11:39:28Z</time></trkpt><trkpt lat="44.78791742589958" lon="9.426572032991018"><ele>467.42857142857144</ele><time>2026-04-05T11:39:32Z</time></trkpt><trkpt lat="44.78799682190819" lon="9.426585062837331"><ele>469.57142857142856</ele><time>2026-04-05T11:39:37Z</time></trkpt><trkpt lat="44.788062969006816" lon="9.426637741461432"><ele>471.7142857142857</ele><time>2026-04-05T11:39:40Z</time></trkpt><trkpt lat="44.78811828441738" lon="9.426584765426142"><ele>473.8571428571429</ele><time>2026-04-05T11:39:42Z</time></trkpt><trkpt lat="44.788159737289" lon="9.426512344796008"><ele>476.0</ele><time>2026-04-05T11:39:46Z</time></trkpt><trkpt lat="44.78822390175336" lon="9.426444757780004"><ele>476.0</ele><time>2026-04-05T11:39:50Z</time></trkpt><trkpt lat="44.788262477948976" lon="9.42635025822622"><ele>476.0</ele><time>2026-04-05T11:39:54Z</time></trkpt><trkpt lat="44.78825396881431" lon="9.4262513291023"><ele>476.0</ele><time>2026-04-05T11:39:59Z</time></trkpt><trkpt lat="44.78829363098338" lon="9.426169152611175"><ele>476.0</ele><time>2026-04-05T11:40:02Z</time></trkpt><trkpt lat="44.78832798941421" lon="9.426082928097477"><ele>476.0</ele><time>2026-04-05T11:40:05Z</time></trkpt><trkpt lat="44.788373280534856" lon="9.425999361613316"><ele>476.0</ele><time>2026-04-05T11:40:08Z</time></trkpt><trkpt lat="44.7883472296183" lon="9.425903397738239"><ele>476.0</ele><time>2026-04-05T11:40:19Z</time></trkpt><trkpt lat="44.788276412238325" lon="9.425910944613541"><ele>473.49999999999994</ele><time>2026-04-05T11:40:22.001Z</time></trkpt><trkpt lat="44.78823414493898" lon="9.425826553941448"><ele>471.0</ele><time>2026-04-05T11:40:25.001Z</time></trkpt><trkpt lat="44.78823183714288" lon="9.425731457855843"><ele>468.5</ele><time>2026-04-05T11:40:28.001Z</time></trkpt><trkpt lat="44.78821708470166" lon="9.42563413139706"><ele>466.0</ele><time>2026-04-05T11:41:09.001Z</time></trkpt><trkpt lat="44.78817397602676" lon="9.425520776592348"><ele>463.49999999999994</ele><time>2026-04-05T11:41:18.001Z</time></trkpt><trkpt lat="44.788137047519434" lon="9.425435049318473"><ele>461.0</ele><time>2026-04-05T11:41:20.001Z</time></trkpt><trkpt lat="44.78804319282054" lon="9.42540628155752"><ele>461.0</ele><time>2026-04-05T11:41:22.001Z</time></trkpt><trkpt lat="44.787980174905755" lon="9.425382585207426"><ele>461.00000000000006</ele><time>2026-04-05T11:41:30.001Z</time></trkpt><trkpt lat="44.78789731496511" lon="9.425368432832258"><ele>461.0</ele><time>2026-04-05T11:41:36.001Z</time></trkpt><trkpt lat="44.78783830583971" lon="9.425415403162154"><ele>461.0</ele><time>2026-04-05T11:41:46.001Z</time></trkpt><trkpt lat="44.787778137977575" lon="9.425453324653988"><ele>461.00000000000006</ele><time>2026-04-05T11:41:50.001Z</time></trkpt><trkpt lat="44.78774018187488" lon="9.425544351117418"><ele>461.0</ele><time>2026-04-05T11:41:56.001Z</time></trkpt><trkpt lat="44.787688801766336" lon="9.42560537033919"><ele>461.0</ele><time>2026-04-05T11:41:59.001Z</time></trkpt><trkpt lat="44.78765817621495" lon="9.42570087321528"><ele>460.99999999999994</ele><time>2026-04-05T11:42:01.001Z</time></trkpt><trkpt lat="44.78767232911806" lon="9.42581248870527"><ele>461.0</ele><time>2026-04-05T11:42:03.001Z</time></trkpt><trkpt lat="44.78767636143001" lon="9.425925366486881"><ele>461.0</ele><time>2026-04-05T11:42:05.001Z</time></trkpt><trkpt lat="44.78769728791206" lon="9.426015131952996"><ele>461.0</ele><time>2026-04-05T11:42:06.001Z</time></trkpt><trkpt lat="44.787731531369374" lon="9.426138924566997"><ele>460.99999999999994</ele><time>2026-04-05T11:42:08.001Z</time></trkpt><trkpt lat="44.787740382731215" lon="9.426231850833084"><ele>461.0</ele><time>2026-04-05T11:42:11.001Z</time></trkpt><trkpt lat="44.78772463441601" lon="9.426365744189487"><ele>463.49999999999994</ele><time>2026-04-05T11:42:13.001Z</time></trkpt><trkpt lat="44.78775918195484" lon="9.4264701307786"><ele>466.0</ele><time>2026-04-05T11:42:16.001Z</time></trkpt><trkpt lat="44.7878130566477" lon="9.426582872837004"><ele>468.5</ele><time>2026-04-05T11:42:40.001Z</time></trkpt><trkpt lat="44.7878288420765" lon="9.426701239110109"><ele>471.0</ele><time>2026-04-05T11:42:42.001Z</time></trkpt><trkpt lat="44.78776180797507" lon="9.426720799960119"><ele>473.49999999999994</ele><time>2026-04-05T11:42:56.001Z</time></trkpt><trkpt lat="44.787698902282244" lon="9.426701780647681"><ele>476.0</ele><time>2026-04-05T11:43:00.001Z</time></trkpt><trkpt lat="44.78763447482866" lon="9.426688921315588"><ele>481.4</ele><time>2026-04-05T11:43:03.001Z</time></trkpt><trkpt lat="44.78754710021276" lon="9.426677957470103"><ele>486.8</ele><time>2026-04-05T11:43:05.001Z</time></trkpt><trkpt lat="44.78748488356839" lon="9.42663778489173"><ele>492.19999999999993</ele><time>2026-04-05T11:43:08.001Z</time></trkpt><trkpt lat="44.78741041806836" lon="9.426655258217407"><ele>497.59999999999997</ele><time>2026-04-05T11:43:10.001Z</time></trkpt><trkpt lat="44.7872944776812" lon="9.42667084397633"><ele>503.0</ele><time>2026-04-05T11:43:12.001Z</time></trkpt><trkpt lat="44.78720191181487" lon="9.426738354404135"><ele>502.99999999999994</ele><time>2026-04-05T11:43:15.001Z</time></trkpt><trkpt lat="44.7871160732031" lon="9.4268193074426"><ele>503.0</ele><time>2026-04-05T11:43:17.001Z</time></trkpt><trkpt lat="44.78704026984175" lon="9.42685175617615"><ele>503.0</ele><time>2026-04-05T11:43:19.001Z</time></trkpt><trkpt lat="44.786973505024186" lon="9.426866268371311"><ele>503.0</ele><time>2026-04-05T11:43:21.001Z</time></trkpt><trkpt lat="44.78689481074918" lon="9.426883201887629"><ele>502.99999999999994</ele><time>2026-04-05T11:43:23.001Z</time></trkpt><trkpt lat="44.78682531585608" lon="9.426924175422977"><ele>503.0</ele><time>2026-04-05T11:43:25.001Z</time></trkpt><trkpt lat="44.78673591994417" lon="9.42693361402052"><ele>503.8571428571429</ele><time>2026-04-05T11:43:28.001Z</time></trkpt><trkpt lat="44.78666420572401" lon="9.42693234262739"><ele>504.7142857142858</ele><time>2026-04-05T11:43:30.001Z</time></trkpt><trkpt lat="44.78659729947743" lon="9.426934842611068"><ele>505.57142857142856</ele><time>2026-04-05T11:43:34.001Z</time></trkpt><trkpt lat="44.786542739870185" lon="9.427000512284115"><ele>506.42857142857144</ele><time>2026-04-05T11:43:37.001Z</time></trkpt><trkpt lat="44.78648269291222" lon="9.427082974312537"><ele>507.2857142857143</ele><time>2026-04-05T11:43:40.001Z</time></trkpt><trkpt lat="44.78646369223163" lon="9.427196897614039"><ele>508.1428571428571</ele><time>2026-04-05T11:43:43.001Z</time></trkpt><trkpt lat="44.786405963434554" lon="9.427253568064689"><ele>508.99999999999994</ele><time>2026-04-05T11:43:46.001Z</time></trkpt><trkpt lat="44.78641219018725" lon="9.427342443402278"><ele>508.99999999999994</ele><time>2026-04-05T11:43:50.001Z</time></trkpt><trkpt lat="44.78647293848896" lon="9.427249957297992"><ele>509.0</ele><time>2026-04-05T11:43:53.001Z</time></trkpt><trkpt lat="44.786444287452305" lon="9.427117907922218"><ele>509.0</ele><time>2026-04-05T11:43:55.001Z</time></trkpt><trkpt lat="44.78646843122191" lon="9.427008209205514"><ele>509.0</ele><time>2026-04-05T11:43:58.001Z</time></trkpt><trkpt lat="44.78653023997686" lon="9.426950649786525"><ele>508.99999999999994</ele><time>2026-04-05T11:44:00.001Z</time></trkpt><trkpt lat="44.78658667501825" lon="9.42689005957192"><ele>509.0</ele><time>2026-04-05T11:44:02.001Z</time></trkpt><trkpt lat="44.78665125206974" lon="9.426880017379041"><ele>508.99999999999994</ele><time>2026-04-05T11:44:04.001Z</time></trkpt><trkpt lat="44.78673510116581" lon="9.426866833397405"><ele>509.0</ele><time>2026-04-05T11:44:06.001Z</time></trkpt><trkpt lat="44.786822692258966" lon="9.426871566587613"><ele>509.0</ele><time>2026-04-05T11:44:08.001Z</time></trkpt><trkpt lat="44.78690354880041" lon="9.426818816418068"><ele>509.0</ele><time>2026-04-05T11:44:11.001Z</time></trkpt><trkpt lat="44.78698469753731" lon="9.426805646630823"><ele>508.99999999999994</ele><time>2026-04-05T11:44:13.001Z</time></trkpt><trkpt lat="44.78707070200908" lon="9.426793467845773"><ele>509.0</ele><time>2026-04-05T11:44:15.001Z</time></trkpt><trkpt lat="44.78714716038497" lon="9.426780708926982"><ele>507.79999999999995</ele><time>2026-04-05T11:44:17.001Z</time></trkpt><trkpt lat="44.78721451438785" lon="9.426701910637567"><ele>506.59999999999997</ele><time>2026-04-05T11:44:19.001Z</time></trkpt><trkpt lat="44.78729465529095" lon="9.426645380964917"><ele>505.4</ele><time>2026-04-05T11:44:21.001Z</time></trkpt><trkpt lat="44.787366533047106" lon="9.42663378341369"><ele>504.2</ele><time>2026-04-05T11:44:23.001Z</time></trkpt><trkpt lat="44.7874591989727" lon="9.426627624174895"><ele>503.0</ele><time>2026-04-05T11:44:26.001Z</time></trkpt><trkpt lat="44.78755945785855" lon="9.42668485452841"><ele>502.99999999999994</ele><time>2026-04-05T11:44:28.001Z</time></trkpt><trkpt lat="44.78765660751061" lon="9.4267111269808"><ele>503.0</ele><time>2026-04-05T11:44:30.001Z</time></trkpt><trkpt lat="44.78774112553591" lon="9.42672362532232"><ele>503.0</ele><time>2026-04-05T11:44:32.001Z</time></trkpt><trkpt lat="44.78781728448765" lon="9.426726262166483"><ele>503.0</ele><time>2026-04-05T11:44:35.001Z</time></trkpt><trkpt lat="44.78781405680391" lon="9.426634168414038"><ele>502.99999999999994</ele><time>2026-04-05T11:44:38.001Z</time></trkpt><trkpt lat="44.787782469488235" lon="9.426551467180495"><ele>503.0</ele><time>2026-04-05T11:44:40.001Z</time></trkpt><trkpt lat="44.78784462088218" lon="9.426523067970072"><ele>499.14285714285717</ele><time>2026-04-05T11:44:46.001Z</time></trkpt><trkpt lat="44.7878967330306" lon="9.426589304527468"><ele>495.28571428571433</ele><time>2026-04-05T11:44:49.001Z</time></trkpt><trkpt lat="44.787963627174165" lon="9.426590036794995"><ele>491.42857142857144</ele><time>2026-04-05T11:45:01.001Z</time></trkpt><trkpt lat="44.78803527735687" lon="9.426631597406608"><ele>487.57142857142856</ele><time>2026-04-05T11:45:04.001Z</time></trkpt><trkpt lat="44.78810390663288" lon="9.426594176676788"><ele>483.7142857142857</ele><time>2026-04-05T11:45:07.001Z</time></trkpt><trkpt lat="44.7881481390231" lon="9.426526922879363"><ele>479.8571428571429</ele><time>2026-04-05T11:45:10.001Z</time></trkpt><trkpt lat="44.788196747614656" lon="9.426468451502902"><ele>476.0</ele><time>2026-04-05T11:45:13.001Z</time></trkpt><trkpt lat="44.78825740223651" lon="9.426396689433252"><ele>473.8571428571429</ele><time>2026-04-05T11:45:17.001Z</time></trkpt><trkpt lat="44.78826012513739" lon="9.42630252750786"><ele>471.7142857142857</ele><time>2026-04-05T11:45:31.001Z</time></trkpt><trkpt lat="44.788286616756594" lon="9.426206400653907"><ele>469.57142857142856</ele><time>2026-04-05T11:45:38.001Z</time></trkpt><trkpt lat="44.78831340455006" lon="9.426120805948608"><ele>467.42857142857144</ele><time>2026-04-05T11:45:42.001Z</time></trkpt><trkpt lat="44.7883532730673" lon="9.426046818031068"><ele>465.28571428571433</ele><time>2026-04-05T11:45:46.001Z</time></trkpt><trkpt lat="44.78838932015156" lon="9.425968253299182"><ele>463.14285714285717</ele><time>2026-04-05T11:45:49.001Z</time></trkpt><trkpt lat="44.78834232514419" lon="9.425903560740931"><ele>461.0</ele><time>2026-04-05T11:46:03.001Z</time></trkpt><trkpt lat="44.78826394858252" lon="9.425904342882982"><ele>460.99999999999994</ele><time>2026-04-05T11:46:05.001Z</time></trkpt><trkpt lat="44.78822472056685" lon="9.425820165192059"><ele>461.0</ele><time>2026-04-05T11:46:08.001Z</time></trkpt><trkpt lat="44.78824349216701" lon="9.425691583736729"><ele>461.0</ele><time>2026-04-05T11:46:11.001Z</time></trkpt><trkpt lat="44.788327407245895" lon="9.425619502127297"><ele>461.0</ele><time>2026-04-05T11:46:13.001Z</time></trkpt><trkpt lat="44.788398755734285" lon="9.425529115354013"><ele>460.99999999999994</ele><time>2026-04-05T11:46:15.001Z</time></trkpt><trkpt lat="44.788429164623246" lon="9.425416225612128"><ele>461.0</ele><time>2026-04-05T11:46:17.001Z</time></trkpt><trkpt lat="44.788476645642014" lon="9.42534503945075"><ele>456.99999999999994</ele><time>2026-04-05T11:46:19.001Z</time></trkpt><trkpt lat="44.78853459897803" lon="9.425291688207329"><ele>453.0</ele><time>2026-04-05T11:46:21.001Z</time></trkpt><trkpt lat="44.78859658924053" lon="9.425220701424335"><ele>449.0</ele><time>2026-04-05T11:46:24.001Z</time></trkpt><trkpt lat="44.78867318403251" lon="9.425184462053723"><ele>445.0</ele><time>2026-04-05T11:46:27.001Z</time></trkpt><trkpt lat="44.788732157144324" lon="9.425134661883938"><ele>440.99999999999994</ele><time>2026-04-05T11:46:31.001Z</time></trkpt><trkpt lat="44.788771166995964" lon="9.42501704754521"><ele>437.0</ele><time>2026-04-05T11:46:34.001Z</time></trkpt><trkpt lat="44.78879017674294" lon="9.424932029658413"><ele>436.99999999999994</ele><time>2026-04-05T11:46:37.001Z</time></trkpt><trkpt lat="44.78880610482871" lon="9.424813339661265"><ele>437.0</ele><time>2026-04-05T11:58:48Z</time></trkpt><trkpt lat="44.788866219482294" lon="9.424737614494775"><ele>437.0</ele><time>2026-04-05T11:58:51Z</time></trkpt><trkpt lat="44.788901348533265" lon="9.42465936671576"><ele>437.0</ele><time>2026-04-05T11:58:54Z</time></trkpt><trkpt lat="44.78890892870422" lon="9.424535713738655"><ele>436.99999999999994</ele><time>2026-04-05T11:58:58Z</time></trkpt><trkpt lat="44.78895313495414" lon="9.42444457534922"><ele>437.0</ele><time>2026-04-05T11:59:02Z</time></trkpt><trkpt lat="44.78898951687805" lon="9.424366599261147"><ele>437.0</ele><time>2026-04-05T11:59:04Z</time></trkpt><trkpt lat="44.789027291490676" lon="9.42428024136929"><ele>437.0</ele><time>2026-04-05T11:59:06Z</time></trkpt><trkpt lat="44.78908291986971" lon="9.424221768364237"><ele>437.0</ele><time>2026-04-05T11:59:08Z</time></trkpt><trkpt lat="44.78914167666476" lon="9.424144470422616"><ele>437.0</ele><time>2026-04-05T11:59:11Z</time></trkpt><trkpt lat="44.78918945481556" lon="9.424072898570413"><ele>437.0</ele><time>2026-04-05T11:59:14Z</time></trkpt><trkpt lat="44.78921367133399" lon="9.423982653252661"><ele>437.0</ele><time>2026-04-05T11:59:17Z</time></trkpt><trkpt lat="44.78923627251959" lon="9.423888561912896"><ele>437.0</ele><time>2026-04-05T11:59:20Z</time></trkpt><trkpt lat="44.78930274520172" lon="9.423831162250137"><ele>432.25</ele><time>2026-04-05T11:59:27Z</time></trkpt><trkpt lat="44.789373077073336" lon="9.423748683898575"><ele>427.5</ele><time>2026-04-05T11:59:31Z</time></trkpt><trkpt lat="44.789434873983396" lon="9.423708840846958"><ele>422.75</ele><time>2026-04-05T11:59:33Z</time></trkpt><trkpt lat="44.78961240561343" lon="9.42358384495198"><ele>418.0</ele><time>2026-04-05T11:59:36Z</time></trkpt><trkpt lat="44.78970474518376" lon="9.423551014324392"><ele>418.00000000000006</ele><time>2026-04-05T11:59:38Z</time></trkpt><trkpt lat="44.78978161342366" lon="9.42347425072926"><ele>418.0</ele><time>2026-04-05T11:59:40Z</time></trkpt><trkpt lat="44.78984105802038" lon="9.423360303333169"><ele>418.0</ele><time>2026-04-05T11:59:42Z</time></trkpt><trkpt lat="44.78984165704815" lon="9.423240002426326"><ele>418.0</ele><time>2026-04-05T11:59:44Z</time></trkpt><trkpt lat="44.789794812546916" lon="9.423156554871033"><ele>418.00000000000006</ele><time>2026-04-05T11:59:46Z</time></trkpt><trkpt lat="44.789716301190325" lon="9.42308469713919"><ele>418.0</ele><time>2026-04-05T11:59:48Z</time></trkpt><trkpt lat="44.789613504097694" lon="9.423001021838267"><ele>418.83333333333337</ele><time>2026-04-05T11:59:50Z</time></trkpt><trkpt lat="44.789511182382434" lon="9.422930489779716"><ele>419.6666666666667</ele><time>2026-04-05T11:59:52Z</time></trkpt><trkpt lat="44.78945137910234" lon="9.422898317053624"><ele>420.5</ele><time>2026-04-05T11:59:53Z</time></trkpt><trkpt lat="44.789389532018134" lon="9.422862407443906"><ele>421.33333333333337</ele><time>2026-04-05T11:59:54Z</time></trkpt><trkpt lat="44.78932167904007" lon="9.422837874142083"><ele>422.1666666666667</ele><time>2026-04-05T11:59:55Z</time></trkpt><trkpt lat="44.789201088519306" lon="9.4227941512926"><ele>423.0</ele><time>2026-04-05T11:59:57Z</time></trkpt><trkpt lat="44.78913648918966" lon="9.422761570584646"><ele>420.1666666666667</ele><time>2026-04-05T11:59:58Z</time></trkpt><trkpt lat="44.789023799990915" lon="9.422691350190386"><ele>417.33333333333337</ele><time>2026-04-05T12:00:00Z</time></trkpt><trkpt lat="44.78890840011059" lon="9.4226341067421"><ele>414.5</ele><time>2026-04-05T12:00:02Z</time></trkpt><trkpt lat="44.788836013616354" lon="9.422628851676627"><ele>411.6666666666667</ele><time>2026-04-05T12:00:03Z</time></trkpt><trkpt lat="44.78877263506661" lon="9.422619901400767"><ele>408.83333333333337</ele><time>2026-04-05T12:00:04Z</time></trkpt><trkpt lat="44.78871235623583" lon="9.422586825282552"><ele>406.0</ele><time>2026-04-05T12:00:05Z</time></trkpt><trkpt lat="44.788655563000866" lon="9.422530751526622"><ele>406.0</ele><time>2026-04-05T12:00:06Z</time></trkpt><trkpt lat="44.78860062592838" lon="9.422471852085046"><ele>406.0</ele><time>2026-04-05T12:00:07Z</time></trkpt><trkpt lat="44.788546129116526" lon="9.42242362187426"><ele>406.0</ele><time>2026-04-05T12:00:08Z</time></trkpt><trkpt lat="44.78844637409727" lon="9.42233265807193"><ele>406.0</ele><time>2026-04-05T12:00:10Z</time></trkpt><trkpt lat="44.78832514583897" lon="9.422270047304211"><ele>406.0</ele><time>2026-04-05T12:00:12Z</time></trkpt><trkpt lat="44.7882503179264" lon="9.42226385506825"><ele>405.50000000000006</ele><time>2026-04-05T12:00:13Z</time></trkpt><trkpt lat="44.788172424142594" lon="9.422267661507828"><ele>405.0</ele><time>2026-04-05T12:00:14Z</time></trkpt><trkpt lat="44.788098733296245" lon="9.422261157452192"><ele>404.5</ele><time>2026-04-05T12:00:15Z</time></trkpt><trkpt lat="44.78802744788076" lon="9.422228840193721"><ele>404.0</ele><time>2026-04-05T12:00:16Z</time></trkpt><trkpt lat="44.78796502192775" lon="9.422188141798484"><ele>403.50000000000006</ele><time>2026-04-05T12:00:17Z</time></trkpt><trkpt lat="44.78783980671198" lon="9.422127901497023"><ele>403.0</ele><time>2026-04-05T12:00:19Z</time></trkpt><trkpt lat="44.787774372493715" lon="9.422095780194814"><ele>398.33333333333337</ele><time>2026-04-05T12:00:20Z</time></trkpt><trkpt lat="44.78765067468979" lon="9.422039997043878"><ele>393.6666666666667</ele><time>2026-04-05T12:00:22Z</time></trkpt><trkpt lat="44.78757651332445" lon="9.42202979237225"><ele>389.0</ele><time>2026-04-05T12:00:23Z</time></trkpt><trkpt lat="44.78750170655727" lon="9.422038153377997"><ele>384.33333333333337</ele><time>2026-04-05T12:00:24Z</time></trkpt><trkpt lat="44.78743615381433" lon="9.422031395226137"><ele>379.6666666666667</ele><time>2026-04-05T12:00:25Z</time></trkpt><trkpt lat="44.78737706482906" lon="9.421973835319525"><ele>375.0</ele><time>2026-04-05T12:00:26Z</time></trkpt><trkpt lat="44.787324238454424" lon="9.42190007575686"><ele>375.0</ele><time>2026-04-05T12:00:27Z</time></trkpt><trkpt lat="44.78727031661141" lon="9.421839068180857"><ele>375.0</ele><time>2026-04-05T12:00:28Z</time></trkpt><trkpt lat="44.78720373633412" lon="9.421801425264585"><ele>375.0</ele><time>2026-04-05T12:00:29Z</time></trkpt><trkpt lat="44.78713825900606" lon="9.421779507552314"><ele>375.0</ele><time>2026-04-05T12:00:30Z</time></trkpt><trkpt lat="44.78707583545249" lon="9.42174986408559"><ele>375.0</ele><time>2026-04-05T12:00:31Z</time></trkpt><trkpt lat="44.7869543821305" lon="9.42169847177803"><ele>375.0</ele><time>2026-04-05T12:00:33Z</time></trkpt><trkpt lat="44.7868902197538" lon="9.421670733331588"><ele>374.14285714285717</ele><time>2026-04-05T12:00:34Z</time></trkpt><trkpt lat="44.78682827261059" lon="9.421633477366816"><ele>373.2857142857143</ele><time>2026-04-05T12:00:35Z</time></trkpt><trkpt lat="44.78677388450443" lon="9.421574449493765"><ele>372.42857142857144</ele><time>2026-04-05T12:00:36Z</time></trkpt><trkpt lat="44.78671236342114" lon="9.421535053507272"><ele>371.57142857142856</ele><time>2026-04-05T12:00:37Z</time></trkpt><trkpt lat="44.786640379327466" lon="9.421561980650784"><ele>370.71428571428567</ele><time>2026-04-05T12:00:38Z</time></trkpt><trkpt lat="44.786565845483466" lon="9.421602922683533"><ele>369.85714285714283</ele><time>2026-04-05T12:00:39Z</time></trkpt><trkpt lat="44.78650015337891" lon="9.42158801317177"><ele>369.0</ele><time>2026-04-05T12:00:40Z</time></trkpt><trkpt lat="44.78644140673708" lon="9.421548862743892"><ele>369.0</ele><time>2026-04-05T12:00:41Z</time></trkpt><trkpt lat="44.78637337799973" lon="9.421516723662625"><ele>369.0</ele><time>2026-04-05T12:00:42Z</time></trkpt><trkpt lat="44.78630703931225" lon="9.421506531292126"><ele>369.0</ele><time>2026-04-05T12:00:43Z</time></trkpt><trkpt lat="44.78623791263578" lon="9.421559975513397"><ele>369.0</ele><time>2026-04-05T12:00:45Z</time></trkpt><trkpt lat="44.78619494771405" lon="9.421707866323132"><ele>369.0</ele><time>2026-04-05T12:00:47Z</time></trkpt><trkpt lat="44.78617195706342" lon="9.42179506923947"><ele>369.0</ele><time>2026-04-05T12:00:48Z</time></trkpt><trkpt lat="44.786135167589826" lon="9.421870285204937"><ele>369.0</ele><time>2026-04-05T12:00:49Z</time></trkpt><trkpt lat="44.786029884033184" lon="9.42196542410995"><ele>369.0</ele><time>2026-04-05T12:00:51Z</time></trkpt><trkpt lat="44.785955666195775" lon="9.421982580424064"><ele>369.0</ele><time>2026-04-05T12:00:52Z</time></trkpt><trkpt lat="44.78586862379279" lon="9.422002554411645"><ele>369.0</ele><time>2026-04-05T12:00:53Z</time></trkpt><trkpt lat="44.78577241553093" lon="9.42203091764612"><ele>369.0</ele><time>2026-04-05T12:00:54Z</time></trkpt><trkpt lat="44.78567560302064" lon="9.422059732783403"><ele>369.5</ele><time>2026-04-05T12:00:55Z</time></trkpt><trkpt lat="44.785579135550165" lon="9.422091488399106"><ele>370.0</ele><time>2026-04-05T12:00:56Z</time></trkpt><trkpt lat="44.785478806438114" lon="9.422138050913372"><ele>370.5</ele><time>2026-04-05T12:00:57Z</time></trkpt><trkpt lat="44.78536658169854" lon="9.422181991435826"><ele>371.0</ele><time>2026-04-05T12:00:58Z</time></trkpt><trkpt lat="44.78523545571122" lon="9.42221965268974"><ele>375.4</ele><time>2026-04-05T12:00:59Z</time></trkpt><trkpt lat="44.78510770583021" lon="9.422302603707598"><ele>379.8</ele><time>2026-04-05T12:01:00Z</time></trkpt><trkpt lat="44.78501120821366" lon="9.422359676473112"><ele>384.2</ele><time>2026-04-05T12:01:01Z</time></trkpt><trkpt lat="44.78495032130088" lon="9.422389645098576"><ele>388.59999999999997</ele><time>2026-04-05T12:01:02Z</time></trkpt><trkpt lat="44.78487034287227" lon="9.422382999237914"><ele>393.0</ele><time>2026-04-05T12:01:04Z</time></trkpt><trkpt lat="44.78478858773461" lon="9.422424582237909"><ele>393.0</ele><time>2026-04-05T12:01:06Z</time></trkpt><trkpt lat="44.78468614695017" lon="9.422536526289376"><ele>393.0</ele><time>2026-04-05T12:01:08Z</time></trkpt><trkpt lat="44.784616553978644" lon="9.422604516954394"><ele>393.0</ele><time>2026-04-05T12:01:09Z</time></trkpt><trkpt lat="44.784625656284724" lon="9.422791178735203"><ele>393.0</ele><time>2026-04-05T12:01:10Z</time></trkpt><trkpt lat="44.78456106200922" lon="9.42287485756494"><ele>393.0</ele><time>2026-04-05T12:01:11Z</time></trkpt><trkpt lat="44.784489039113296" lon="9.422948401249146"><ele>395.3333333333333</ele><time>2026-04-05T12:01:12Z</time></trkpt><trkpt lat="44.78445576104111" lon="9.42305810495457"><ele>397.66666666666663</ele><time>2026-04-05T12:01:13Z</time></trkpt><trkpt lat="44.78442688868769" lon="9.423157092337139"><ele>400.0</ele><time>2026-04-05T12:01:14Z</time></trkpt><trkpt lat="44.78442697772982" lon="9.423259014876288"><ele>402.3333333333333</ele><time>2026-04-05T12:01:15Z</time></trkpt><trkpt lat="44.784433746566826" lon="9.423401594907785"><ele>404.66666666666663</ele><time>2026-04-05T12:01:16Z</time></trkpt><trkpt lat="44.784454304004925" lon="9.423545983486317"><ele>407.0</ele><time>2026-04-05T12:01:17Z</time></trkpt><trkpt lat="44.78446519762846" lon="9.423689032880345"><ele>409.0</ele><time>2026-04-05T12:01:18Z</time></trkpt><trkpt lat="44.78446508439275" lon="9.42383186596171"><ele>411.0</ele><time>2026-04-05T12:01:19Z</time></trkpt><trkpt lat="44.784449051436155" lon="9.423969325706896"><ele>413.0</ele><time>2026-04-05T12:01:20Z</time></trkpt><trkpt lat="44.7844291071462" lon="9.424101678446027"><ele>415.0</ele><time>2026-04-05T12:01:21Z</time></trkpt><trkpt lat="44.78440187090495" lon="9.42422272203212"><ele>417.0</ele><time>2026-04-05T12:01:22Z</time></trkpt><trkpt lat="44.78435377505832" lon="9.424325395838395"><ele>414.6</ele><time>2026-04-05T12:01:23Z</time></trkpt><trkpt lat="44.78429765398956" lon="9.424423088337697"><ele>412.20000000000005</ele><time>2026-04-05T12:01:24Z</time></trkpt><trkpt lat="44.78423765105485" lon="9.424544058288603"><ele>409.8</ele><time>2026-04-05T12:01:25Z</time></trkpt><trkpt lat="44.78419150509776" lon="9.424660793840658"><ele>407.4</ele><time>2026-04-05T12:01:26Z</time></trkpt><trkpt lat="44.78413072905251" lon="9.424771372562617"><ele>405.0</ele><time>2026-04-05T12:01:27Z</time></trkpt><trkpt lat="44.78407869452033" lon="9.424886650915402"><ele>405.0</ele><time>2026-04-05T12:01:28Z</time></trkpt><trkpt lat="44.78404362351981" lon="9.425017918814609"><ele>405.0</ele><time>2026-04-05T12:01:29Z</time></trkpt><trkpt lat="44.78401582106539" lon="9.425152002253325"><ele>405.0</ele><time>2026-04-05T12:01:30Z</time></trkpt><trkpt lat="44.78397418478082" lon="9.425286725225472"><ele>405.0</ele><time>2026-04-05T12:01:31Z</time></trkpt><trkpt lat="44.78391772281771" lon="9.425421070007134"><ele>405.0</ele><time>2026-04-05T12:01:32Z</time></trkpt><trkpt lat="44.78385932670774" lon="9.425531945447194"><ele>407.3333333333333</ele><time>2026-04-05T12:01:33Z</time></trkpt><trkpt lat="44.78381595122376" lon="9.425650309771989"><ele>409.66666666666663</ele><time>2026-04-05T12:01:34Z</time></trkpt><trkpt lat="44.78378027543883" lon="9.425760232645258"><ele>412.0</ele><time>2026-04-05T12:01:35Z</time></trkpt><trkpt lat="44.78376568634776" lon="9.42587612340596"><ele>414.3333333333333</ele><time>2026-04-05T12:01:36Z</time></trkpt><trkpt lat="44.78376581041861" lon="9.42599762360318"><ele>416.66666666666663</ele><time>2026-04-05T12:01:37Z</time></trkpt><trkpt lat="44.78375973216915" lon="9.426118600448385"><ele>419.0</ele><time>2026-04-05T12:01:38Z</time></trkpt><trkpt lat="44.783747394352424" lon="9.426232912448498"><ele>417.99999999999994</ele><time>2026-04-05T12:01:39Z</time></trkpt><trkpt lat="44.783729755878696" lon="9.426348366374661"><ele>417.0</ele><time>2026-04-05T12:01:40Z</time></trkpt><trkpt lat="44.78370266065847" lon="9.426433192403751"><ele>416.0</ele><time>2026-04-05T12:01:41Z</time></trkpt><trkpt lat="44.78361855905438" lon="9.426568426008915"><ele>415.0</ele><time>2026-04-05T12:01:43Z</time></trkpt><trkpt lat="44.783576952662024" lon="9.426649869216863"><ele>413.99999999999994</ele><time>2026-04-05T12:01:44Z</time></trkpt><trkpt lat="44.78353991771061" lon="9.426751428446078"><ele>413.0</ele><time>2026-04-05T12:01:45Z</time></trkpt><trkpt lat="44.783498668214904" lon="9.426888386843201"><ele>413.0</ele><time>2026-04-05T12:01:46Z</time></trkpt><trkpt lat="44.783465201518325" lon="9.427039576159789"><ele>413.0</ele><time>2026-04-05T12:01:47Z</time></trkpt><trkpt lat="44.78344228381483" lon="9.427167515556011"><ele>413.0</ele><time>2026-04-05T12:01:48Z</time></trkpt><trkpt lat="44.783401072334854" lon="9.427255754825135"><ele>413.0</ele><time>2026-04-05T12:01:49Z</time></trkpt><trkpt lat="44.78331846602194" lon="9.427380881963929"><ele>413.0</ele><time>2026-04-05T12:01:51Z</time></trkpt><trkpt lat="44.78328916998095" lon="9.427477398723276"><ele>414.99999999999994</ele><time>2026-04-05T12:01:52Z</time></trkpt><trkpt lat="44.78325879981452" lon="9.427566833856362"><ele>417.0</ele><time>2026-04-05T12:01:53Z</time></trkpt><trkpt lat="44.783207490359786" lon="9.427637262618108"><ele>419.0</ele><time>2026-04-05T12:01:54Z</time></trkpt><trkpt lat="44.783128468138166" lon="9.42769855319161"><ele>421.0</ele><time>2026-04-05T12:01:55Z</time></trkpt><trkpt lat="44.78304476460314" lon="9.427764013145561"><ele>422.99999999999994</ele><time>2026-04-05T12:01:56Z</time></trkpt><trkpt lat="44.78296064620377" lon="9.427841848459439"><ele>425.0</ele><time>2026-04-05T12:01:57Z</time></trkpt><trkpt lat="44.782880421892116" lon="9.427925480341834"><ele>427.8333333333333</ele><time>2026-04-05T12:01:58Z</time></trkpt><trkpt lat="44.78281818672571" lon="9.428001581357623"><ele>430.66666666666663</ele><time>2026-04-05T12:01:59Z</time></trkpt><trkpt lat="44.7827890523363" lon="9.428140506452781"><ele>433.5</ele><time>2026-04-05T12:02:01Z</time></trkpt><trkpt lat="44.78279923312614" lon="9.42823797865848"><ele>436.33333333333337</ele><time>2026-04-05T12:02:02Z</time></trkpt><trkpt lat="44.78282278049302" lon="9.428339839257886"><ele>439.1666666666667</ele><time>2026-04-05T12:02:03Z</time></trkpt><trkpt lat="44.782844322074645" lon="9.428442836696702"><ele>442.0</ele><time>2026-04-05T12:02:04Z</time></trkpt><trkpt lat="44.782868113677644" lon="9.42853738546405"><ele>442.00000000000006</ele><time>2026-04-05T12:02:05Z</time></trkpt><trkpt lat="44.78289984768062" lon="9.428633951465345"><ele>442.0</ele><time>2026-04-05T12:02:06Z</time></trkpt><trkpt lat="44.78295082243663" lon="9.428691651373397"><ele>442.0</ele><time>2026-04-05T12:02:07Z</time></trkpt><trkpt lat="44.78302102576929" lon="9.42873511020079"><ele>442.0</ele><time>2026-04-05T12:02:08Z</time></trkpt><trkpt lat="44.78308791891848" lon="9.428751007948323"><ele>442.00000000000006</ele><time>2026-04-05T12:02:09Z</time></trkpt><trkpt lat="44.78315674965686" lon="9.428747353536556"><ele>442.0</ele><time>2026-04-05T12:02:10Z</time></trkpt><trkpt lat="44.78328410949975" lon="9.42875972820674"><ele>442.0</ele><time>2026-04-05T12:02:12Z</time></trkpt><trkpt lat="44.78334817316245" lon="9.428802517121584"><ele>442.00000000000006</ele><time>2026-04-05T12:02:13Z</time></trkpt><trkpt lat="44.78339961551545" lon="9.428864910846034"><ele>442.00000000000006</ele><time>2026-04-05T12:02:15Z</time></trkpt><trkpt lat="44.78335416353246" lon="9.429074376018072"><ele>442.0</ele><time>2026-04-05T12:02:19Z</time></trkpt><trkpt lat="44.78329416243843" lon="9.429218227387125"><ele>442.0</ele><time>2026-04-05T12:02:21Z</time></trkpt><trkpt lat="44.78323432554271" lon="9.429354950875437"><ele>444.8</ele><time>2026-04-05T12:02:23Z</time></trkpt><trkpt lat="44.783191094591466" lon="9.429504176616978"><ele>447.6</ele><time>2026-04-05T12:02:25Z</time></trkpt><trkpt lat="44.78314493854538" lon="9.42961826184319"><ele>450.40000000000003</ele><time>2026-04-05T12:02:27Z</time></trkpt><trkpt lat="44.783081126258075" lon="9.429727100949805"><ele>453.20000000000005</ele><time>2026-04-05T12:02:29Z</time></trkpt><trkpt lat="44.7830031543062" lon="9.42982240740492"><ele>456.0</ele><time>2026-04-05T12:02:31Z</time></trkpt><trkpt lat="44.78292961377128" lon="9.429935076372965"><ele>457.5</ele><time>2026-04-05T12:02:33Z</time></trkpt><trkpt lat="44.78288774971044" lon="9.430031473299918"><ele>459.0</ele><time>2026-04-05T12:02:35Z</time></trkpt><trkpt lat="44.78294119178919" lon="9.430176784296297"><ele>460.5</ele><time>2026-04-05T12:02:37Z</time></trkpt><trkpt lat="44.78300004320757" lon="9.430226992414424"><ele>462.0</ele><time>2026-04-05T12:02:38Z</time></trkpt><trkpt lat="44.78305823355491" lon="9.430286536223319"><ele>463.5</ele><time>2026-04-05T12:02:39Z</time></trkpt><trkpt lat="44.78310152319709" lon="9.430379334366538"><ele>465.0</ele><time>2026-04-05T12:02:40Z</time></trkpt><trkpt lat="44.78313765621745" lon="9.43049375895712"><ele>466.0</ele><time>2026-04-05T12:02:41Z</time></trkpt><trkpt lat="44.78317686736136" lon="9.430624361355818"><ele>467.0</ele><time>2026-04-05T12:02:42Z</time></trkpt><trkpt lat="44.78321467158274" lon="9.430747310193848"><ele>468.0</ele><time>2026-04-05T12:02:43Z</time></trkpt><trkpt lat="44.78325721873444" lon="9.43086462042709"><ele>469.0</ele><time>2026-04-05T12:02:44Z</time></trkpt><trkpt lat="44.78330314395842" lon="9.430987496327658"><ele>470.0</ele><time>2026-04-05T12:02:45Z</time></trkpt><trkpt lat="44.78335797048285" lon="9.431123563746272"><ele>470.0</ele><time>2026-04-05T12:02:46Z</time></trkpt><trkpt lat="44.7834182236254" lon="9.431258941591672"><ele>470.0</ele><time>2026-04-05T12:02:47Z</time></trkpt><trkpt lat="44.78346545489563" lon="9.43138351640829"><ele>470.0</ele><time>2026-04-05T12:02:48Z</time></trkpt><trkpt lat="44.78350180277976" lon="9.431497880638092"><ele>470.0</ele><time>2026-04-05T12:02:49Z</time></trkpt><trkpt lat="44.783536821259524" lon="9.431618594444917"><ele>470.0</ele><time>2026-04-05T12:02:50Z</time></trkpt><trkpt lat="44.78357182736582" lon="9.431719765115885"><ele>473.25</ele><time>2026-04-05T12:02:51Z</time></trkpt><trkpt lat="44.783625308994644" lon="9.431858873565295"><ele>476.5</ele><time>2026-04-05T12:02:53Z</time></trkpt><trkpt lat="44.78364380613064" lon="9.43202204117031"><ele>479.75</ele><time>2026-04-05T12:02:55Z</time></trkpt><trkpt lat="44.783661713705385" lon="9.432190133495961"><ele>483.0</ele><time>2026-04-05T12:02:57Z</time></trkpt><trkpt lat="44.78371515345774" lon="9.43234319596277"><ele>484.0</ele><time>2026-04-05T12:02:59Z</time></trkpt><trkpt lat="44.78379212616284" lon="9.432492981405932"><ele>485.0</ele><time>2026-04-05T12:03:01Z</time></trkpt><trkpt lat="44.783844451360814" lon="9.43258178892808"><ele>486.0</ele><time>2026-04-05T12:03:02Z</time></trkpt><trkpt lat="44.783891214057235" lon="9.43266888365123"><ele>487.0</ele><time>2026-04-05T12:03:03Z</time></trkpt><trkpt lat="44.78393698855591" lon="9.43274381076979"><ele>488.0</ele><time>2026-04-05T12:03:04Z</time></trkpt><trkpt lat="44.78399567518501" lon="9.432822190412367"><ele>489.0</ele><time>2026-04-05T12:03:05Z</time></trkpt><trkpt lat="44.78406492022724" lon="9.432893559965262"><ele>489.0</ele><time>2026-04-05T12:03:06Z</time></trkpt><trkpt lat="44.78412698682371" lon="9.43297144150072"><ele>489.0</ele><time>2026-04-05T12:03:07Z</time></trkpt><trkpt lat="44.78417528880487" lon="9.433057304315934"><ele>489.0</ele><time>2026-04-05T12:03:08Z</time></trkpt><trkpt lat="44.78421922242456" lon="9.433135838555842"><ele>489.0</ele><time>2026-04-05T12:03:09Z</time></trkpt><trkpt lat="44.784268134340266" lon="9.433220109126244"><ele>489.0</ele><time>2026-04-05T12:03:10Z</time></trkpt><trkpt lat="44.78432065021721" lon="9.433308088940342"><ele>489.0</ele><time>2026-04-05T12:03:11Z</time></trkpt><trkpt lat="44.7843674031546" lon="9.43340011889276"><ele>490.14285714285717</ele><time>2026-04-05T12:03:12Z</time></trkpt><trkpt lat="44.78440256749291" lon="9.43347994154335"><ele>491.28571428571433</ele><time>2026-04-05T12:03:13Z</time></trkpt><trkpt lat="44.784446134305405" lon="9.433546174203244"><ele>492.42857142857144</ele><time>2026-04-05T12:03:14Z</time></trkpt><trkpt lat="44.78450185220979" lon="9.433606818046052"><ele>493.57142857142856</ele><time>2026-04-05T12:03:15Z</time></trkpt><trkpt lat="44.784565143906576" lon="9.433639791716892"><ele>494.7142857142857</ele><time>2026-04-05T12:03:16Z</time></trkpt><trkpt lat="44.78463112662862" lon="9.433662110456394"><ele>495.8571428571429</ele><time>2026-04-05T12:03:17Z</time></trkpt><trkpt lat="44.78473878055232" lon="9.433665172505762"><ele>497.0</ele><time>2026-04-05T12:03:18Z</time></trkpt><trkpt lat="44.78482846305544" lon="9.433687717707906"><ele>497.0</ele><time>2026-04-05T12:03:19Z</time></trkpt><trkpt lat="44.78490382362176" lon="9.433733393789167"><ele>497.00000000000006</ele><time>2026-04-05T12:03:20Z</time></trkpt><trkpt lat="44.784982251006795" lon="9.433787370175652"><ele>497.00000000000006</ele><time>2026-04-05T12:03:21Z</time></trkpt><trkpt lat="44.785057969297895" lon="9.433854587274604"><ele>497.0</ele><time>2026-04-05T12:03:22Z</time></trkpt><trkpt lat="44.78513214348873" lon="9.433940681679767"><ele>497.0</ele><time>2026-04-05T12:03:23Z</time></trkpt><trkpt lat="44.78520757318527" lon="9.434030484888941"><ele>501.8</ele><time>2026-04-05T12:03:24Z</time></trkpt><trkpt lat="44.785279812648305" lon="9.434087221639809"><ele>506.6</ele><time>2026-04-05T12:03:25Z</time></trkpt><trkpt lat="44.78533693036213" lon="9.43412939542875"><ele>511.40000000000003</ele><time>2026-04-05T12:03:26Z</time></trkpt><trkpt lat="44.78539708248236" lon="9.434229442885908"><ele>516.2</ele><time>2026-04-05T12:03:28Z</time></trkpt><trkpt lat="44.78544110926384" lon="9.43435516019198"><ele>521.0</ele><time>2026-04-05T12:03:30Z</time></trkpt><trkpt lat="44.78544387000157" lon="9.434543128037184"><ele>521.5</ele><time>2026-04-05T12:03:32Z</time></trkpt><trkpt lat="44.78546423037808" lon="9.434647448557865"><ele>522.0</ele><time>2026-04-05T12:03:33Z</time></trkpt><trkpt lat="44.78547623779889" lon="9.434806369070362"><ele>522.5</ele><time>2026-04-05T12:03:35Z</time></trkpt><trkpt lat="44.78549005716837" lon="9.434896685174923"><ele>523.0</ele><time>2026-04-05T12:03:36Z</time></trkpt><trkpt lat="44.7855130701511" lon="9.435000706240572"><ele>523.5</ele><time>2026-04-05T12:03:37Z</time></trkpt><trkpt lat="44.785534633696194" lon="9.43509688946256"><ele>524.0</ele><time>2026-04-05T12:03:38Z</time></trkpt><trkpt lat="44.78561482362295" lon="9.435231267496764"><ele>524.0</ele><time>2026-04-05T12:03:40Z</time></trkpt><trkpt lat="44.78569004494031" lon="9.435297369917404"><ele>524.0</ele><time>2026-04-05T12:03:41Z</time></trkpt><trkpt lat="44.7857634350386" lon="9.435350905363435"><ele>524.0</ele><time>2026-04-05T12:03:42Z</time></trkpt><trkpt lat="44.78583953012647" lon="9.435427657094376"><ele>524.0</ele><time>2026-04-05T12:03:43Z</time></trkpt><trkpt lat="44.78591225288633" lon="9.435533798192322"><ele>524.0</ele><time>2026-04-05T12:03:44Z</time></trkpt><trkpt lat="44.78599004088718" lon="9.435639332738797"><ele>528.6</ele><time>2026-04-05T12:03:45Z</time></trkpt><trkpt lat="44.78606654364788" lon="9.435734262040594"><ele>533.2</ele><time>2026-04-05T12:03:46Z</time></trkpt><trkpt lat="44.78614326813794" lon="9.43583573273275"><ele>537.8000000000001</ele><time>2026-04-05T12:03:47Z</time></trkpt><trkpt lat="44.786219319934794" lon="9.435938001783542"><ele>542.4</ele><time>2026-04-05T12:03:48Z</time></trkpt><trkpt lat="44.78627657915193" lon="9.436051056706319"><ele>547.0</ele><time>2026-04-05T12:03:49Z</time></trkpt><trkpt lat="44.786313468896154" lon="9.436176928154469"><ele>547.0</ele><time>2026-04-05T12:03:50Z</time></trkpt><trkpt lat="44.786330942507725" lon="9.436298805929509"><ele>547.0</ele><time>2026-04-05T12:03:51Z</time></trkpt><trkpt lat="44.78634883220698" lon="9.436419541384096"><ele>547.0</ele><time>2026-04-05T12:03:52Z</time></trkpt><trkpt lat="44.786366472329135" lon="9.436528054454453"><ele>547.0</ele><time>2026-04-05T12:03:53Z</time></trkpt><trkpt lat="44.78636622105538" lon="9.43663635366061"><ele>547.0</ele><time>2026-04-05T12:03:54Z</time></trkpt><trkpt lat="44.78635102877464" lon="9.436761491265068"><ele>547.0</ele><time>2026-04-05T12:03:55Z</time></trkpt><trkpt lat="44.786324141273305" lon="9.436881555035233"><ele>548.0</ele><time>2026-04-05T12:03:56Z</time></trkpt><trkpt lat="44.78630573593629" lon="9.437020959378888"><ele>549.0</ele><time>2026-04-05T12:03:57Z</time></trkpt><trkpt lat="44.7863163695494" lon="9.437163469409555"><ele>550.0</ele><time>2026-04-05T12:03:58Z</time></trkpt><trkpt lat="44.7863221974227" lon="9.437315678363426"><ele>551.0</ele><time>2026-04-05T12:03:59Z</time></trkpt><trkpt lat="44.78629243236668" lon="9.437452247854408"><ele>552.0</ele><time>2026-04-05T12:04:00Z</time></trkpt><trkpt lat="44.7862651728119" lon="9.437570964952666"><ele>553.1666666666666</ele><time>2026-04-05T12:04:01Z</time></trkpt><trkpt lat="44.78623775869147" lon="9.437710895041263"><ele>554.3333333333334</ele><time>2026-04-05T12:04:02Z</time></trkpt><trkpt lat="44.78624016119909" lon="9.437851386377933"><ele>555.5</ele><time>2026-04-05T12:04:03Z</time></trkpt><trkpt lat="44.78626482590235" lon="9.437948596641842"><ele>556.6666666666667</ele><time>2026-04-05T12:04:04Z</time></trkpt><trkpt lat="44.78628693898933" lon="9.43804431050834"><ele>557.8333333333334</ele><time>2026-04-05T12:04:05Z</time></trkpt><trkpt lat="44.78630829695596" lon="9.438133553135097"><ele>559.0</ele><time>2026-04-05T12:04:06Z</time></trkpt><trkpt lat="44.78631795843761" lon="9.438255837684478"><ele>559.0</ele><time>2026-04-05T12:04:07Z</time></trkpt><trkpt lat="44.78637690977954" lon="9.438359669324784"><ele>559.0</ele><time>2026-04-05T12:04:08Z</time></trkpt><trkpt lat="44.786436119492215" lon="9.438468872163625"><ele>559.0</ele><time>2026-04-05T12:04:09Z</time></trkpt><trkpt lat="44.78648288420338" lon="9.438554384123897"><ele>559.0</ele><time>2026-04-05T12:04:10Z</time></trkpt><trkpt lat="44.78652374463273" lon="9.438663090312112"><ele>559.0</ele><time>2026-04-05T12:04:11Z</time></trkpt><trkpt lat="44.78654502912642" lon="9.43876769679768"><ele>559.0</ele><time>2026-04-05T12:04:12Z</time></trkpt><trkpt lat="44.786536895190736" lon="9.438905820034657"><ele>558.5</ele><time>2026-04-05T12:04:13Z</time></trkpt><trkpt lat="44.7865479875961" lon="9.439034534251977"><ele>558.0</ele><time>2026-04-05T12:04:14Z</time></trkpt><trkpt lat="44.786565733098705" lon="9.439148719261231"><ele>557.5</ele><time>2026-04-05T12:04:15Z</time></trkpt><trkpt lat="44.786574625323425" lon="9.439260499966977"><ele>557.0</ele><time>2026-04-05T12:04:16Z</time></trkpt><trkpt lat="44.78656964203308" lon="9.439365330785805"><ele>556.5</ele><time>2026-04-05T12:04:17Z</time></trkpt><trkpt lat="44.78657458298274" lon="9.43945828204293"><ele>556.0</ele><time>2026-04-05T12:04:18Z</time></trkpt><trkpt lat="44.786577353791515" lon="9.439548031121856"><ele>556.5</ele><time>2026-04-05T12:04:19Z</time></trkpt><trkpt lat="44.78656136607957" lon="9.439656894536718"><ele>557.0</ele><time>2026-04-05T12:04:20Z</time></trkpt><trkpt lat="44.78652620742982" lon="9.439773849481602"><ele>557.5</ele><time>2026-04-05T12:04:21Z</time></trkpt><trkpt lat="44.786472178233396" lon="9.439897678416468"><ele>558.0</ele><time>2026-04-05T12:04:22Z</time></trkpt><trkpt lat="44.78645108491269" lon="9.440007612837366"><ele>558.5</ele><time>2026-04-05T12:04:23Z</time></trkpt><trkpt lat="44.78647009581739" lon="9.440124228619643"><ele>559.0</ele><time>2026-04-05T12:04:24Z</time></trkpt><trkpt lat="44.78650694554191" lon="9.440233090371052"><ele>559.0</ele><time>2026-04-05T12:04:25Z</time></trkpt><trkpt lat="44.786561681791035" lon="9.44035369017685"><ele>559.0</ele><time>2026-04-05T12:04:26Z</time></trkpt><trkpt lat="44.786618850992404" lon="9.44047147850631"><ele>559.0</ele><time>2026-04-05T12:04:27Z</time></trkpt><trkpt lat="44.7866675224821" lon="9.440597184062323"><ele>559.0</ele><time>2026-04-05T12:04:28Z</time></trkpt><trkpt lat="44.78671685373129" lon="9.440738621569428"><ele>559.0</ele><time>2026-04-05T12:04:29Z</time></trkpt><trkpt lat="44.7867699004054" lon="9.440864040614406"><ele>560.6666666666667</ele><time>2026-04-05T12:04:30Z</time></trkpt><trkpt lat="44.78682788762022" lon="9.440975213384958"><ele>562.3333333333334</ele><time>2026-04-05T12:04:31Z</time></trkpt><trkpt lat="44.78688521266416" lon="9.44108801496048"><ele>564.0</ele><time>2026-04-05T12:04:32Z</time></trkpt><trkpt lat="44.78693784227522" lon="9.441182850238354"><ele>565.6666666666666</ele><time>2026-04-05T12:04:33Z</time></trkpt><trkpt lat="44.78697268016019" lon="9.441261673588878"><ele>567.3333333333333</ele><time>2026-04-05T12:04:35Z</time></trkpt><trkpt lat="44.78702802188848" lon="9.441373137724295"><ele>569.0</ele><time>2026-04-05T12:04:37Z</time></trkpt><trkpt lat="44.787083957860055" lon="9.441485756646866"><ele>571.75</ele><time>2026-04-05T12:04:39Z</time></trkpt><trkpt lat="44.78712970425511" lon="9.44157405809177"><ele>574.5</ele><time>2026-04-05T12:04:42Z</time></trkpt><trkpt lat="44.7871858415931" lon="9.441972010066685"><ele>577.25</ele><time>2026-04-05T12:04:45Z</time></trkpt><trkpt lat="44.78717296968106" lon="9.442079378569991"><ele>580.0</ele><time>2026-04-05T12:04:46Z</time></trkpt><trkpt lat="44.7871853252998" lon="9.44216772961002"><ele>583.0</ele><time>2026-04-05T12:04:47Z</time></trkpt><trkpt lat="44.78723913205156" lon="9.442223045821548"><ele>586.0</ele><time>2026-04-05T12:04:48Z</time></trkpt><trkpt lat="44.78730105114113" lon="9.442246108099882"><ele>589.0</ele><time>2026-04-05T12:04:49Z</time></trkpt><trkpt lat="44.78741973542859" lon="9.442316826910854"><ele>592.0</ele><time>2026-04-05T12:04:51Z</time></trkpt><trkpt lat="44.787482984019576" lon="9.442358522780532"><ele>595.0</ele><time>2026-04-05T12:04:52Z</time></trkpt><trkpt lat="44.78754505001657" lon="9.442414475839112"><ele>598.0</ele><time>2026-04-05T12:04:53Z</time></trkpt><trkpt lat="44.787608236589286" lon="9.442471170540799"><ele>598.0</ele><time>2026-04-05T12:04:54Z</time></trkpt><trkpt lat="44.78767200658424" lon="9.44252375214799"><ele>598.0</ele><time>2026-04-05T12:04:55Z</time></trkpt><trkpt lat="44.787747846553664" lon="9.442559780747558"><ele>598.0</ele><time>2026-04-05T12:04:56Z</time></trkpt><trkpt lat="44.78782827812304" lon="9.442580486741273"><ele>598.0</ele><time>2026-04-05T12:04:57Z</time></trkpt><trkpt lat="44.78789965127135" lon="9.44261327862521"><ele>598.0</ele><time>2026-04-05T12:04:58Z</time></trkpt><trkpt lat="44.78795159981119" lon="9.44266529110549"><ele>598.0</ele><time>2026-04-05T12:04:59Z</time></trkpt><trkpt lat="44.78801323083534" lon="9.44276919493386"><ele>599.1999999999999</ele><time>2026-04-05T12:05:01Z</time></trkpt><trkpt lat="44.78802970354507" lon="9.442910452309958"><ele>600.4</ele><time>2026-04-05T12:05:03Z</time></trkpt><trkpt lat="44.78798376068804" lon="9.443030651739845"><ele>601.5999999999999</ele><time>2026-04-05T12:05:05Z</time></trkpt><trkpt lat="44.78788852546573" lon="9.443163658240191"><ele>602.8</ele><time>2026-04-05T12:05:07Z</time></trkpt><trkpt lat="44.78785520121213" lon="9.44329645686073"><ele>604.0</ele><time>2026-04-05T12:05:09Z</time></trkpt><trkpt lat="44.78782851289302" lon="9.443387365053317"><ele>604.0</ele><time>2026-04-05T12:05:11Z</time></trkpt><trkpt lat="44.78773136091966" lon="9.443371494862218"><ele>604.0</ele><time>2026-04-05T12:05:14Z</time></trkpt><trkpt lat="44.78764058582212" lon="9.443320586154215"><ele>604.0</ele><time>2026-04-05T12:05:16Z</time></trkpt><trkpt lat="44.78757672962212" lon="9.443340429580754"><ele>604.0</ele><time>2026-04-05T12:05:17Z</time></trkpt><trkpt lat="44.78746726401118" lon="9.4433965629691"><ele>604.0</ele><time>2026-04-05T12:05:19Z</time></trkpt><trkpt lat="44.78740989569075" lon="9.443348626229644"><ele>604.0</ele><time>2026-04-05T12:05:20Z</time></trkpt><trkpt lat="44.78729993175756" lon="9.443268637763385"><ele>605.3333333333334</ele><time>2026-04-05T12:05:22Z</time></trkpt><trkpt lat="44.787234002822295" lon="9.44323745130481"><ele>606.6666666666667</ele><time>2026-04-05T12:05:23Z</time></trkpt><trkpt lat="44.78716374753643" lon="9.443232155048218"><ele>608.0</ele><time>2026-04-05T12:05:24Z</time></trkpt><trkpt lat="44.78709250449144" lon="9.443308603137792"><ele>609.3333333333334</ele><time>2026-04-05T12:05:25Z</time></trkpt><trkpt lat="44.78702293206271" lon="9.443301238757192"><ele>610.6666666666666</ele><time>2026-04-05T12:05:26Z</time></trkpt><trkpt lat="44.786946260485664" lon="9.443305084396885"><ele>612.0</ele><time>2026-04-05T12:05:27Z</time></trkpt><trkpt lat="44.78686121619295" lon="9.44330649666733"><ele>613.2</ele><time>2026-04-05T12:05:28Z</time></trkpt><trkpt lat="44.78678009927456" lon="9.443304817104428"><ele>614.4000000000001</ele><time>2026-04-05T12:05:29Z</time></trkpt><trkpt lat="44.786716541324935" lon="9.443301022412884"><ele>615.5999999999999</ele><time>2026-04-05T12:05:30Z</time></trkpt><trkpt lat="44.7866507468141" lon="9.443296046368687"><ele>616.8</ele><time>2026-04-05T12:05:31Z</time></trkpt><trkpt lat="44.78654771396671" lon="9.443288253998452"><ele>618.0</ele><time>2026-04-05T12:05:33Z</time></trkpt><trkpt lat="44.78656428708438" lon="9.443535034236957"><ele>618.0</ele><time>2026-04-05T12:05:36Z</time></trkpt><trkpt lat="44.786532589586464" lon="9.443672044391814"><ele>618.0</ele><time>2026-04-05T12:05:38Z</time></trkpt><trkpt lat="44.786539649314285" lon="9.443815488929044"><ele>618.0</ele><time>2026-04-05T12:05:40Z</time></trkpt><trkpt lat="44.786597436800776" lon="9.443926371882213"><ele>618.0</ele><time>2026-04-05T12:05:42Z</time></trkpt><trkpt lat="44.78660795154746" lon="9.444105527346712"><ele>618.0</ele><time>2026-04-05T12:05:44Z</time></trkpt><trkpt lat="44.78660725540857" lon="9.444253977167842"><ele>620.6666666666666</ele><time>2026-04-05T12:05:46Z</time></trkpt><trkpt lat="44.7866096400161" lon="9.44443933551029"><ele>623.3333333333334</ele><time>2026-04-05T12:05:48Z</time></trkpt><trkpt lat="44.7866089581344" lon="9.444537840441834"><ele>626.0</ele><time>2026-04-05T12:05:49Z</time></trkpt><trkpt lat="44.78660623309081" lon="9.444650563781247"><ele>628.6666666666667</ele><time>2026-04-05T12:05:50Z</time></trkpt><trkpt lat="44.7865945163456" lon="9.444764196718388"><ele>631.3333333333334</ele><time>2026-04-05T12:05:51Z</time></trkpt><trkpt lat="44.786572847314105" lon="9.444864151925584"><ele>634.0</ele><time>2026-04-05T12:05:52Z</time></trkpt><trkpt lat="44.786548398636576" lon="9.444952801347036"><ele>636.1666666666667</ele><time>2026-04-05T12:05:53Z</time></trkpt><trkpt lat="44.78650854174163" lon="9.445052910507084"><ele>638.3333333333334</ele><time>2026-04-05T12:05:54Z</time></trkpt><trkpt lat="44.786481045868285" lon="9.44514856389378"><ele>640.5</ele><time>2026-04-05T12:05:55Z</time></trkpt><trkpt lat="44.786503917329235" lon="9.445289538593116"><ele>642.6666666666666</ele><time>2026-04-05T12:05:57Z</time></trkpt><trkpt lat="44.7865325035861" lon="9.445383623418255"><ele>644.8333333333333</ele><time>2026-04-05T12:05:58Z</time></trkpt><trkpt lat="44.78655624534024" lon="9.445473886628681"><ele>647.0</ele><time>2026-04-05T12:05:59Z</time></trkpt><trkpt lat="44.78658452856559" lon="9.44555485558774"><ele>648.5</ele><time>2026-04-05T12:06:00Z</time></trkpt><trkpt lat="44.78661818412895" lon="9.44564299435951"><ele>650.0</ele><time>2026-04-05T12:06:01Z</time></trkpt><trkpt lat="44.786648947543526" lon="9.44574685017813"><ele>651.5</ele><time>2026-04-05T12:06:02Z</time></trkpt><trkpt lat="44.78668189858801" lon="9.445858924735422"><ele>653.0</ele><time>2026-04-05T12:06:03Z</time></trkpt><trkpt lat="44.786713345816516" lon="9.445982148919963"><ele>654.5</ele><time>2026-04-05T12:06:04Z</time></trkpt><trkpt lat="44.78675343298651" lon="9.446095950582496"><ele>656.0</ele><time>2026-04-05T12:06:05Z</time></trkpt><trkpt lat="44.78681077910739" lon="9.446177926982012"><ele>655.8333333333333</ele><time>2026-04-05T12:06:06Z</time></trkpt><trkpt lat="44.786857834976416" lon="9.446244465453802"><ele>655.6666666666666</ele><time>2026-04-05T12:06:07Z</time></trkpt><trkpt lat="44.78693120604322" lon="9.446386293163286"><ele>655.5</ele><time>2026-04-05T12:06:09Z</time></trkpt><trkpt lat="44.78696527124103" lon="9.446475518096813"><ele>655.3333333333334</ele><time>2026-04-05T12:06:10Z</time></trkpt><trkpt lat="44.78699361643263" lon="9.446575272985227"><ele>655.1666666666667</ele><time>2026-04-05T12:06:11Z</time></trkpt><trkpt lat="44.78701399939169" lon="9.446689033024114"><ele>655.0</ele><time>2026-04-05T12:06:12Z</time></trkpt><trkpt lat="44.78702618249628" lon="9.446813416644236"><ele>655.0</ele><time>2026-04-05T12:06:13Z</time></trkpt><trkpt lat="44.78702011095574" lon="9.446936327478195"><ele>655.0</ele><time>2026-04-05T12:06:14Z</time></trkpt><trkpt lat="44.787003683092465" lon="9.44706248187442"><ele>655.0</ele><time>2026-04-05T12:06:15Z</time></trkpt><trkpt lat="44.78698717985255" lon="9.447189879609354"><ele>655.0</ele><time>2026-04-05T12:06:16Z</time></trkpt><trkpt lat="44.78696574262343" lon="9.447314971918328"><ele>655.0</ele><time>2026-04-05T12:06:17Z</time></trkpt><trkpt lat="44.78693320598014" lon="9.447439498758639"><ele>656.1666666666667</ele><time>2026-04-05T12:06:18Z</time></trkpt><trkpt lat="44.786902730066885" lon="9.447561297227052"><ele>657.3333333333334</ele><time>2026-04-05T12:06:19Z</time></trkpt><trkpt lat="44.78688920698919" lon="9.447676990569724"><ele>658.5</ele><time>2026-04-05T12:06:20Z</time></trkpt><trkpt lat="44.7868936185581" lon="9.44778730874948"><ele>659.6666666666666</ele><time>2026-04-05T12:06:21Z</time></trkpt><trkpt lat="44.7869276549234" lon="9.447924137389368"><ele>660.8333333333333</ele><time>2026-04-05T12:06:23Z</time></trkpt><trkpt lat="44.786930359284625" lon="9.44803562717299"><ele>662.0</ele><time>2026-04-05T12:07:33Z</time></trkpt><trkpt lat="44.78692891451762" lon="9.448160485800386"><ele>662.5</ele><time>2026-04-05T12:07:35Z</time></trkpt><trkpt lat="44.78690938989913" lon="9.448269097958152"><ele>663.0</ele><time>2026-04-05T12:07:37Z</time></trkpt><trkpt lat="44.786811661806844" lon="9.448317992671335"><ele>663.5</ele><time>2026-04-05T12:07:39Z</time></trkpt><trkpt lat="44.78674135679179" lon="9.448354308077313"><ele>664.0</ele><time>2026-04-05T12:07:40Z</time></trkpt><trkpt lat="44.78665813952369" lon="9.448403296638656"><ele>664.5</ele><time>2026-04-05T12:07:41Z</time></trkpt><trkpt lat="44.786581907645385" lon="9.448431433507714"><ele>665.0</ele><time>2026-04-05T12:07:42Z</time></trkpt><trkpt lat="44.78647596079919" lon="9.448544852295491"><ele>668.0</ele><time>2026-04-05T12:07:44Z</time></trkpt><trkpt lat="44.786414930860765" lon="9.448622003305548"><ele>671.0</ele><time>2026-04-05T12:07:45Z</time></trkpt><trkpt lat="44.78635001769831" lon="9.448668433551036"><ele>674.0</ele><time>2026-04-05T12:07:46Z</time></trkpt><trkpt lat="44.78625587860023" lon="9.448743687255114"><ele>677.0</ele><time>2026-04-05T12:07:48Z</time></trkpt><trkpt lat="44.78618236240096" lon="9.448809597290047"><ele>680.0</ele><time>2026-04-05T12:07:50Z</time></trkpt><trkpt lat="44.78617985170909" lon="9.448898695090062"><ele>683.0</ele><time>2026-04-05T12:07:53Z</time></trkpt><trkpt lat="44.78614318063834" lon="9.448981817845777"><ele>686.0</ele><time>2026-04-05T12:08:06Z</time></trkpt><trkpt lat="44.78612568368359" lon="9.449072666262282"><ele>689.0</ele><time>2026-04-05T12:08:11Z</time></trkpt><trkpt lat="44.78608289251609" lon="9.449160120051397"><ele>692.0</ele><time>2026-04-05T12:08:16Z</time></trkpt><trkpt lat="44.78604911437001" lon="9.449269853396384"><ele>695.0</ele><time>2026-04-05T12:08:19Z</time></trkpt><trkpt lat="44.7859965682338" lon="9.449350072471344"><ele>698.0</ele><time>2026-04-05T12:08:26Z</time></trkpt><trkpt lat="44.785938171162" lon="9.449437042902193"><ele>701.0</ele><time>2026-04-05T12:08:28Z</time></trkpt><trkpt lat="44.78586805569872" lon="9.449546969972"><ele>703.1999999999999</ele><time>2026-04-05T12:08:32Z</time></trkpt><trkpt lat="44.78577955383883" lon="9.449608565971234"><ele>705.4</ele><time>2026-04-05T12:08:34Z</time></trkpt><trkpt lat="44.78570568802149" lon="9.449674279115687"><ele>707.6</ele><time>2026-04-05T12:08:37Z</time></trkpt><trkpt lat="44.78564092602692" lon="9.449781722191709"><ele>709.8</ele><time>2026-04-05T12:08:39Z</time></trkpt><trkpt lat="44.785559699385416" lon="9.449874905983915"><ele>712.0</ele><time>2026-04-05T12:08:41Z</time></trkpt><trkpt lat="44.78553497323131" lon="9.449780832459584"><ele>712.0</ele><time>2026-04-05T12:08:45Z</time></trkpt><trkpt lat="44.785427363116746" lon="9.449711573002606"><ele>712.0</ele><time>2026-04-05T12:08:46Z</time></trkpt><trkpt lat="44.78533054187146" lon="9.449635283271778"><ele>712.0</ele><time>2026-04-05T12:08:48Z</time></trkpt><trkpt lat="44.785269990590535" lon="9.449594762976792"><ele>712.0</ele><time>2026-04-05T12:08:49Z</time></trkpt><trkpt lat="44.785192477754" lon="9.449561429846637"><ele>712.0</ele><time>2026-04-05T12:08:50Z</time></trkpt><trkpt lat="44.785116811521775" lon="9.449538636184862"><ele>713.1428571428571</ele><time>2026-04-05T12:08:52Z</time></trkpt><trkpt lat="44.785057156768026" lon="9.449598865212938"><ele>714.2857142857142</ele><time>2026-04-05T12:08:54Z</time></trkpt><trkpt lat="44.785009681011175" lon="9.449659954761835"><ele>715.4285714285713</ele><time>2026-04-05T12:08:57Z</time></trkpt><trkpt lat="44.78495949130171" lon="9.449715648879163"><ele>716.5714285714286</ele><time>2026-04-05T12:09:09Z</time></trkpt><trkpt lat="44.784917153381734" lon="9.449795267902381"><ele>717.7142857142858</ele><time>2026-04-05T12:09:17Z</time></trkpt><trkpt lat="44.784853445533486" lon="9.449837380875366"><ele>718.8571428571428</ele><time>2026-04-05T12:09:30Z</time></trkpt><trkpt lat="44.784774092034446" lon="9.449841775958774"><ele>720.0</ele><time>2026-04-05T12:09:42Z</time></trkpt><trkpt lat="44.78470411019745" lon="9.449868672735139"><ele>726.6666666666666</ele><time>2026-04-05T12:09:47Z</time></trkpt><trkpt lat="44.784646861049275" lon="9.449923836129411"><ele>733.3333333333334</ele><time>2026-04-05T12:09:51Z</time></trkpt><trkpt lat="44.78458329615767" lon="9.44996327866799"><ele>740.0</ele><time>2026-04-05T12:10:10Z</time></trkpt><trkpt lat="44.78452035453181" lon="9.449993544188981"><ele>746.6666666666667</ele><time>2026-04-05T12:10:16Z</time></trkpt><trkpt lat="44.784447715103994" lon="9.450020314481733"><ele>753.3333333333334</ele><time>2026-04-05T12:10:18Z</time></trkpt><trkpt lat="44.78437966327739" lon="9.449983632004262"><ele>760.0</ele><time>2026-04-05T12:10:20Z</time></trkpt><trkpt lat="44.784296171559184" lon="9.44989126815577"><ele>763.2</ele><time>2026-04-05T12:10:22Z</time></trkpt><trkpt lat="44.78423346799305" lon="9.449789277377233"><ele>766.4</ele><time>2026-04-05T12:10:24Z</time></trkpt><trkpt lat="44.78415054984148" lon="9.44973422369285"><ele>769.5999999999999</ele><time>2026-04-05T12:10:26Z</time></trkpt><trkpt lat="44.78406669362994" lon="9.449720910150916"><ele>772.8</ele><time>2026-04-05T12:10:28Z</time></trkpt><trkpt lat="44.7839558202681" lon="9.449728582942857"><ele>776.0</ele><time>2026-04-05T12:10:30Z</time></trkpt><trkpt lat="44.78387055575711" lon="9.449778188356706"><ele>776.0</ele><time>2026-04-05T12:10:33Z</time></trkpt><trkpt lat="44.78379662490365" lon="9.44981683274706"><ele>776.0</ele><time>2026-04-05T12:10:35Z</time></trkpt><trkpt lat="44.78372508887657" lon="9.44990669717148"><ele>776.0</ele><time>2026-04-05T12:10:37Z</time></trkpt><trkpt lat="44.78367766286273" lon="9.450014120000342"><ele>776.0</ele><time>2026-04-05T12:10:39Z</time></trkpt><trkpt lat="44.7836434840077" lon="9.45014190376722"><ele>776.0</ele><time>2026-04-05T12:10:42Z</time></trkpt><trkpt lat="44.78357804587763" lon="9.450288243417557"><ele>773.5</ele><time>2026-04-05T12:10:44Z</time></trkpt><trkpt lat="44.78348696680983" lon="9.450404482381444"><ele>771.0</ele><time>2026-04-05T12:10:46Z</time></trkpt><trkpt lat="44.783404287269995" lon="9.450554336524373"><ele>768.5</ele><time>2026-04-05T12:10:48Z</time></trkpt><trkpt lat="44.78336189435158" lon="9.450626722408728"><ele>766.0</ele><time>2026-04-05T12:10:49Z</time></trkpt><trkpt lat="44.783226913978275" lon="9.450865757893173"><ele>770.5</ele><time>2026-04-05T12:10:51Z</time></trkpt><trkpt lat="44.78313500188202" lon="9.450980823126692"><ele>775.0</ele><time>2026-04-05T12:10:53Z</time></trkpt><trkpt lat="44.78306720814141" lon="9.451081843377079"><ele>779.5</ele><time>2026-04-05T12:10:55Z</time></trkpt><trkpt lat="44.78303987516846" lon="9.451182406479143"><ele>784.0</ele><time>2026-04-05T12:10:57Z</time></trkpt><trkpt lat="44.78300077262885" lon="9.451256743639322"><ele>788.4999999999999</ele><time>2026-04-05T12:11:02Z</time></trkpt><trkpt lat="44.782972037649955" lon="9.451369365264195"><ele>793.0</ele><time>2026-04-05T12:11:04Z</time></trkpt><trkpt lat="44.782940178041116" lon="9.451494389715483"><ele>797.2</ele><time>2026-04-05T12:11:06Z</time></trkpt><trkpt lat="44.7829213035874" lon="9.451638401123622"><ele>801.4</ele><time>2026-04-05T12:11:09Z</time></trkpt><trkpt lat="44.78293980739925" lon="9.451789817654937"><ele>805.6</ele><time>2026-04-05T12:11:11Z</time></trkpt><trkpt lat="44.78293927144432" lon="9.451884962288068"><ele>809.8000000000001</ele><time>2026-04-05T12:11:12Z</time></trkpt><trkpt lat="44.78283131210247" lon="9.452002834455019"><ele>814.0</ele><time>2026-04-05T12:11:14Z</time></trkpt><trkpt lat="44.78277697311347" lon="9.452074448240806"><ele>814.3333333333333</ele><time>2026-04-05T12:11:15Z</time></trkpt><trkpt lat="44.78271011591799" lon="9.452133005213124"><ele>814.6666666666666</ele><time>2026-04-05T12:11:16Z</time></trkpt><trkpt lat="44.78264456080147" lon="9.452187079441654"><ele>815.0</ele><time>2026-04-05T12:11:17Z</time></trkpt><trkpt lat="44.782549838374806" lon="9.452253456138756"><ele>815.3333333333333</ele><time>2026-04-05T12:11:19Z</time></trkpt><trkpt lat="44.78247876858434" lon="9.452325393868485"><ele>815.6666666666666</ele><time>2026-04-05T12:11:21Z</time></trkpt><trkpt lat="44.782411066806766" lon="9.452311814130077"><ele>816.0</ele><time>2026-04-05T12:11:24Z</time></trkpt><trkpt lat="44.78223432958567" lon="9.4524241862013"><ele>816.0</ele><time>2026-04-05T12:11:27Z</time></trkpt><trkpt lat="44.782216830225146" lon="9.452525835674416"><ele>816.0</ele><time>2026-04-05T12:11:29Z</time></trkpt><trkpt lat="44.782208864765174" lon="9.45263932753088"><ele>816.0</ele><time>2026-04-05T12:11:31Z</time></trkpt><trkpt lat="44.78219618664478" lon="9.452765077513495"><ele>816.0</ele><time>2026-04-05T12:11:33Z</time></trkpt><trkpt lat="44.782176739586184" lon="9.45289739797601"><ele>816.0</ele><time>2026-04-05T12:11:35Z</time></trkpt><trkpt lat="44.782152311420084" lon="9.452979852682075"><ele>816.0</ele><time>2026-04-05T12:11:36Z</time></trkpt><trkpt lat="44.78213492084073" lon="9.453085922234138"><ele>819.1666666666666</ele><time>2026-04-05T12:11:37Z</time></trkpt><trkpt lat="44.78211412538553" lon="9.453191887797487"><ele>822.3333333333333</ele><time>2026-04-05T12:11:38Z</time></trkpt><trkpt lat="44.782088817795" lon="9.453307771748374"><ele>825.5</ele><time>2026-04-05T12:11:39Z</time></trkpt><trkpt lat="44.78206380749573" lon="9.453427364180063"><ele>828.6666666666666</ele><time>2026-04-05T12:11:40Z</time></trkpt><trkpt lat="44.78203502955576" lon="9.453529555703092"><ele>831.8333333333333</ele><time>2026-04-05T12:11:41Z</time></trkpt><trkpt lat="44.78199896902781" lon="9.453626044429706"><ele>835.0</ele><time>2026-04-05T12:11:42Z</time></trkpt><trkpt lat="44.78195916824409" lon="9.453727918384509"><ele>833.4999999999999</ele><time>2026-04-05T12:11:43Z</time></trkpt><trkpt lat="44.78191212049435" lon="9.453825480239695"><ele>832.0</ele><time>2026-04-05T12:11:44Z</time></trkpt><trkpt lat="44.78186792728628" lon="9.453942445914866"><ele>830.5</ele><time>2026-04-05T12:11:45Z</time></trkpt><trkpt lat="44.781832435723345" lon="9.454034075206163"><ele>829.0</ele><time>2026-04-05T12:11:46Z</time></trkpt><trkpt lat="44.78178801491478" lon="9.454138882824882"><ele>827.4999999999999</ele><time>2026-04-05T12:11:47Z</time></trkpt><trkpt lat="44.78174874561889" lon="9.454231346929529"><ele>826.0</ele><time>2026-04-05T12:11:48Z</time></trkpt><trkpt lat="44.78171956413368" lon="9.454397883046443"><ele>825.9999999999999</ele><time>2026-04-05T12:11:50Z</time></trkpt><trkpt lat="44.78171413837291" lon="9.454520375082943"><ele>826.0</ele><time>2026-04-05T12:11:51Z</time></trkpt><trkpt lat="44.78169819246084" lon="9.454646486324343"><ele>826.0</ele><time>2026-04-05T12:11:52Z</time></trkpt><trkpt lat="44.781669370846906" lon="9.454741990696151"><ele>826.0</ele><time>2026-04-05T12:11:53Z</time></trkpt><trkpt lat="44.78165618763722" lon="9.454838192653467"><ele>825.9999999999999</ele><time>2026-04-05T12:11:54Z</time></trkpt><trkpt lat="44.78165173455706" lon="9.454949881544948"><ele>826.0</ele><time>2026-04-05T12:11:55Z</time></trkpt><trkpt lat="44.78164998121179" lon="9.455058006320613"><ele>828.5999999999999</ele><time>2026-04-05T12:11:56Z</time></trkpt><trkpt lat="44.78164855563549" lon="9.45519065976872"><ele>831.2</ele><time>2026-04-05T12:11:57Z</time></trkpt><trkpt lat="44.78165086349318" lon="9.455310344343014"><ele>833.8</ele><time>2026-04-05T12:11:58Z</time></trkpt><trkpt lat="44.78164907164743" lon="9.455418833175115"><ele>836.4000000000001</ele><time>2026-04-05T12:11:59Z</time></trkpt><trkpt lat="44.78167814780921" lon="9.45555811902549"><ele>839.0</ele><time>2026-04-05T12:12:01Z</time></trkpt><trkpt lat="44.78173077970036" lon="9.455685049989654"><ele>840.6</ele><time>2026-04-05T12:12:03Z</time></trkpt><trkpt lat="44.78172255373338" lon="9.45584844906104"><ele>842.2</ele><time>2026-04-05T12:12:05Z</time></trkpt><trkpt lat="44.78168229256029" lon="9.455942973295086"><ele>843.8000000000001</ele><time>2026-04-05T12:12:06Z</time></trkpt><trkpt lat="44.781648737722556" lon="9.456031448044117"><ele>845.4000000000001</ele><time>2026-04-05T12:12:07Z</time></trkpt><trkpt lat="44.78158458635162" lon="9.456125228581747"><ele>847.0</ele><time>2026-04-05T12:12:09Z</time></trkpt><trkpt lat="44.78166905963121" lon="9.456024728468355"><ele>847.0</ele><time>2026-04-05T12:12:58Z</time></trkpt><trkpt lat="44.781713541448724" lon="9.455906192135448"><ele>847.0</ele><time>2026-04-05T12:12:59Z</time></trkpt><trkpt lat="44.78172901232131" lon="9.455810426740191"><ele>847.0</ele><time>2026-04-05T12:13:00Z</time></trkpt><trkpt lat="44.78171934741442" lon="9.45568588184201"><ele>847.0</ele><time>2026-04-05T12:13:02Z</time></trkpt><trkpt lat="44.78168453903774" lon="9.455558828981951"><ele>847.0</ele><time>2026-04-05T12:13:04Z</time></trkpt><trkpt lat="44.78165668766266" lon="9.455416646168592"><ele>845.4000000000001</ele><time>2026-04-05T12:13:06Z</time></trkpt><trkpt lat="44.78165862299592" lon="9.455309004218343"><ele>843.8000000000001</ele><time>2026-04-05T12:13:07Z</time></trkpt><trkpt lat="44.78165874082658" lon="9.45521670125213"><ele>842.2</ele><time>2026-04-05T12:13:08Z</time></trkpt><trkpt lat="44.78166763716293" lon="9.45503787667593"><ele>840.6</ele><time>2026-04-05T12:13:10Z</time></trkpt><trkpt lat="44.78168178994265" lon="9.454917798165631"><ele>839.0</ele><time>2026-04-05T12:13:12Z</time></trkpt><trkpt lat="44.781684960410836" lon="9.454755556321153"><ele>836.8333333333334</ele><time>2026-04-05T12:13:14Z</time></trkpt><trkpt lat="44.781714466872515" lon="9.45461492086613"><ele>834.6666666666667</ele><time>2026-04-05T12:13:16Z</time></trkpt><trkpt lat="44.781730855865675" lon="9.454486203003553"><ele>832.5</ele><time>2026-04-05T12:13:18Z</time></trkpt><trkpt lat="44.78174430409467" lon="9.454361671446753"><ele>830.3333333333333</ele><time>2026-04-05T12:13:19Z</time></trkpt><trkpt lat="44.78175460015047" lon="9.454272995795435"><ele>828.1666666666666</ele><time>2026-04-05T12:13:20Z</time></trkpt><trkpt lat="44.78177854799534" lon="9.454188073260516"><ele>826.0</ele><time>2026-04-05T12:13:21Z</time></trkpt><trkpt lat="44.78181158054784" lon="9.454096713146553"><ele>826.0</ele><time>2026-04-05T12:13:22Z</time></trkpt><trkpt lat="44.781847871323684" lon="9.454010651106179"><ele>826.0</ele><time>2026-04-05T12:13:23Z</time></trkpt><trkpt lat="44.78188697365423" lon="9.453940328792061"><ele>826.0</ele><time>2026-04-05T12:13:24Z</time></trkpt><trkpt lat="44.78191966536192" lon="9.453853798601665"><ele>826.0</ele><time>2026-04-05T12:13:25Z</time></trkpt><trkpt lat="44.781950804867684" lon="9.453762833705806"><ele>826.0</ele><time>2026-04-05T12:13:26Z</time></trkpt><trkpt lat="44.781991288466095" lon="9.453680336150756"><ele>826.0</ele><time>2026-04-05T12:13:27Z</time></trkpt><trkpt lat="44.78203596864321" lon="9.453595734863447"><ele>826.0</ele><time>2026-04-05T12:13:28Z</time></trkpt><trkpt lat="44.782079321069546" lon="9.453510588395403"><ele>827.2857142857143</ele><time>2026-04-05T12:13:29Z</time></trkpt><trkpt lat="44.78211595673948" lon="9.453422775425125"><ele>828.5714285714286</ele><time>2026-04-05T12:13:30Z</time></trkpt><trkpt lat="44.78214254729442" lon="9.453326996847808"><ele>829.8571428571429</ele><time>2026-04-05T12:13:31Z</time></trkpt><trkpt lat="44.782156501249474" lon="9.453233530921944"><ele>831.1428571428571</ele><time>2026-04-05T12:13:32Z</time></trkpt><trkpt lat="44.78216283345074" lon="9.453140342309469"><ele>832.4285714285714</ele><time>2026-04-05T12:13:33Z</time></trkpt><trkpt lat="44.78217714192183" lon="9.453046517315384"><ele>833.7142857142858</ele><time>2026-04-05T12:13:34Z</time></trkpt><trkpt lat="44.78219969338088" lon="9.45295541320152"><ele>835.0</ele><time>2026-04-05T12:13:35Z</time></trkpt><trkpt lat="44.782226660871366" lon="9.452809099793146"><ele>831.2</ele><time>2026-04-05T12:13:37Z</time></trkpt><trkpt lat="44.782236786003764" lon="9.452678100005674"><ele>827.4</ele><time>2026-04-05T12:13:39Z</time></trkpt><trkpt lat="44.78225492423617" lon="9.452532551692846"><ele>823.5999999999999</ele><time>2026-04-05T12:13:41Z</time></trkpt><trkpt lat="44.78228763447675" lon="9.452372223340364"><ele>819.8</ele><time>2026-04-05T12:13:43Z</time></trkpt><trkpt lat="44.78238097027458" lon="9.452287408817043"><ele>816.0</ele><time>2026-04-05T12:13:45Z</time></trkpt><trkpt lat="44.782484204539436" lon="9.452317092529533"><ele>816.0</ele><time>2026-04-05T12:13:47Z</time></trkpt><trkpt lat="44.78257113065593" lon="9.452303515321612"><ele>816.0</ele><time>2026-04-05T12:13:49Z</time></trkpt><trkpt lat="44.7826238153322" lon="9.452244812830138"><ele>816.0</ele><time>2026-04-05T12:13:50Z</time></trkpt><trkpt lat="44.78267719788708" lon="9.452185092527957"><ele>816.0</ele><time>2026-04-05T12:13:51Z</time></trkpt><trkpt lat="44.78277618419416" lon="9.45207991100366"><ele>816.0</ele><time>2026-04-05T12:13:53Z</time></trkpt><trkpt lat="44.78283527571336" lon="9.452033696790483"><ele>816.0</ele><time>2026-04-05T12:13:54Z</time></trkpt><trkpt lat="44.782920481922986" lon="9.451923033545393"><ele>815.5999999999999</ele><time>2026-04-05T12:13:56Z</time></trkpt><trkpt lat="44.78295121796606" lon="9.451794179352628"><ele>815.2</ele><time>2026-04-05T12:13:58Z</time></trkpt><trkpt lat="44.78294220855143" lon="9.451653992612991"><ele>814.8</ele><time>2026-04-05T12:14:00Z</time></trkpt><trkpt lat="44.78294251046771" lon="9.4515128629942"><ele>814.4000000000001</ele><time>2026-04-05T12:14:02Z</time></trkpt><trkpt lat="44.78296705732311" lon="9.451376856113272"><ele>814.0</ele><time>2026-04-05T12:14:04Z</time></trkpt><trkpt lat="44.78301715118902" lon="9.451265630887436"><ele>809.8000000000001</ele><time>2026-04-05T12:14:06Z</time></trkpt><trkpt lat="44.78305097167948" lon="9.451176965046942"><ele>805.6</ele><time>2026-04-05T12:14:08Z</time></trkpt><trkpt lat="44.78310499923488" lon="9.451076205274534"><ele>801.4</ele><time>2026-04-05T12:14:10Z</time></trkpt><trkpt lat="44.78314531009972" lon="9.450960312626542"><ele>797.2</ele><time>2026-04-05T12:14:12Z</time></trkpt><trkpt lat="44.783228891469335" lon="9.450826163973263"><ele>793.0</ele><time>2026-04-05T12:14:15Z</time></trkpt><trkpt lat="44.78328869066825" lon="9.450737490668878"><ele>792.9999999999999</ele><time>2026-04-05T12:14:17Z</time></trkpt><trkpt lat="44.78334218221505" lon="9.450641580711336"><ele>793.0</ele><time>2026-04-05T12:14:19Z</time></trkpt><trkpt lat="44.78338778430406" lon="9.450578649055497"><ele>793.0</ele><time>2026-04-05T12:14:20Z</time></trkpt><trkpt lat="44.78342014294438" lon="9.450502255725585"><ele>793.0</ele><time>2026-04-05T12:14:21Z</time></trkpt><trkpt lat="44.783457265188446" lon="9.450429076959823"><ele>792.9999999999999</ele><time>2026-04-05T12:14:22Z</time></trkpt><trkpt lat="44.78354517224562" lon="9.450356808737082"><ele>793.0</ele><time>2026-04-05T12:14:24Z</time></trkpt><trkpt lat="44.783586627651395" lon="9.450266059825662"><ele>790.1666666666666</ele><time>2026-04-05T12:14:26Z</time></trkpt><trkpt lat="44.78362889895549" lon="9.450129390515533"><ele>787.3333333333333</ele><time>2026-04-05T12:14:29Z</time></trkpt><trkpt lat="44.783655583784466" lon="9.450018726224592"><ele>784.5</ele><time>2026-04-05T12:14:32Z</time></trkpt><trkpt lat="44.78369515569343" lon="9.449907855875038"><ele>781.6666666666667</ele><time>2026-04-05T12:14:34Z</time></trkpt><trkpt lat="44.78376192131043" lon="9.4498275435403"><ele>778.8333333333334</ele><time>2026-04-05T12:14:36Z</time></trkpt><trkpt lat="44.783833610284425" lon="9.449810134630283"><ele>776.0</ele><time>2026-04-05T12:14:38Z</time></trkpt><trkpt lat="44.78392582780221" lon="9.449756657352937"><ele>776.0</ele><time>2026-04-05T12:14:41Z</time></trkpt><trkpt lat="44.78402033778003" lon="9.449729260255435"><ele>776.0</ele><time>2026-04-05T12:14:43Z</time></trkpt><trkpt lat="44.78412666141427" lon="9.449749041963335"><ele>776.0</ele><time>2026-04-05T12:14:45Z</time></trkpt><trkpt lat="44.784224227387085" lon="9.449811557983018"><ele>776.0</ele><time>2026-04-05T12:14:47Z</time></trkpt><trkpt lat="44.78427893343321" lon="9.449919539191736"><ele>776.0</ele><time>2026-04-05T12:14:49Z</time></trkpt><trkpt lat="44.7843507162484" lon="9.449989361951513"><ele>773.7142857142857</ele><time>2026-04-05T12:14:51Z</time></trkpt><trkpt lat="44.784430303854315" lon="9.450019895698032"><ele>771.4285714285714</ele><time>2026-04-05T12:14:53Z</time></trkpt><trkpt lat="44.78449217699566" lon="9.449986831866827"><ele>769.1428571428571</ele><time>2026-04-05T12:14:56Z</time></trkpt><trkpt lat="44.7845633142538" lon="9.44994314601905"><ele>766.8571428571429</ele><time>2026-04-05T12:15:05Z</time></trkpt><trkpt lat="44.784617136803746" lon="9.449894393949844"><ele>764.5714285714287</ele><time>2026-04-05T12:15:13Z</time></trkpt><trkpt lat="44.78468617431716" lon="9.449860799448373"><ele>762.2857142857143</ele><time>2026-04-05T12:15:19Z</time></trkpt><trkpt lat="44.7847624653351" lon="9.449853192453952"><ele>760.0</ele><time>2026-04-05T12:15:28Z</time></trkpt><trkpt lat="44.78483475221242" lon="9.44984925578597"><ele>760.0</ele><time>2026-04-05T12:15:33Z</time></trkpt><trkpt lat="44.784900349713155" lon="9.449823751128255"><ele>760.0</ele><time>2026-04-05T12:16:22Z</time></trkpt><trkpt lat="44.78494816786222" lon="9.449758181086063"><ele>760.0</ele><time>2026-04-05T12:16:30Z</time></trkpt><trkpt lat="44.78503394961273" lon="9.44966685344532"><ele>760.0</ele><time>2026-04-05T12:16:33Z</time></trkpt><trkpt lat="44.78509914198695" lon="9.449641664031939"><ele>760.0</ele><time>2026-04-05T12:16:37Z</time></trkpt><trkpt lat="44.78516832241343" lon="9.449630166612982"><ele>760.0</ele><time>2026-04-05T12:16:41Z</time></trkpt><trkpt lat="44.78526151089924" lon="9.44965059916617"><ele>757.1666666666667</ele><time>2026-04-05T12:16:44Z</time></trkpt><trkpt lat="44.7853313168373" lon="9.44969832774044"><ele>754.3333333333334</ele><time>2026-04-05T12:16:47Z</time></trkpt><trkpt lat="44.7853847615983" lon="9.449763604922925"><ele>751.5</ele><time>2026-04-05T12:16:51Z</time></trkpt><trkpt lat="44.785446989922924" lon="9.449778530059742"><ele>748.6666666666666</ele><time>2026-04-05T12:17:19Z</time></trkpt><trkpt lat="44.7853990713278" lon="9.449713083515281"><ele>745.8333333333333</ele><time>2026-04-05T12:17:23Z</time></trkpt><trkpt lat="44.78531057630678" lon="9.44967172807119"><ele>743.0</ele><time>2026-04-05T12:17:24Z</time></trkpt><trkpt lat="44.78524377102648" lon="9.449614405673163"><ele>745.8333333333333</ele><time>2026-04-05T12:17:25Z</time></trkpt><trkpt lat="44.78514295563444" lon="9.449554335506946"><ele>748.6666666666666</ele><time>2026-04-05T12:17:27Z</time></trkpt><trkpt lat="44.78508185388003" lon="9.449624609235846"><ele>751.5</ele><time>2026-04-05T12:17:30Z</time></trkpt><trkpt lat="44.78500384309868" lon="9.44968666235174"><ele>754.3333333333334</ele><time>2026-04-05T12:17:32Z</time></trkpt><trkpt lat="44.784951944215145" lon="9.449749123546297"><ele>757.1666666666667</ele><time>2026-04-05T12:17:34Z</time></trkpt><trkpt lat="44.78489433383252" lon="9.449810916465392"><ele>760.0</ele><time>2026-04-05T12:17:47Z</time></trkpt><trkpt lat="44.78480807175019" lon="9.44983571510723"><ele>760.0</ele><time>2026-04-05T12:18:00Z</time></trkpt><trkpt lat="44.7847419530639" lon="9.449846365963072"><ele>760.0</ele><time>2026-04-05T12:18:04Z</time></trkpt><trkpt lat="44.78467224354165" lon="9.44990299156481"><ele>760.0</ele><time>2026-04-05T12:18:08Z</time></trkpt><trkpt lat="44.78460967964788" lon="9.449941292888706"><ele>760.0</ele><time>2026-04-05T12:18:12Z</time></trkpt><trkpt lat="44.78454704829102" lon="9.449973711105544"><ele>760.0</ele><time>2026-04-05T12:18:18Z</time></trkpt><trkpt lat="44.784484677808074" lon="9.45000869938092"><ele>760.0</ele><time>2026-04-05T12:18:23Z</time></trkpt><trkpt lat="44.784412072135574" lon="9.449986245895738"><ele>760.0</ele><time>2026-04-05T12:18:26Z</time></trkpt><trkpt lat="44.78429194262711" lon="9.449917717767022"><ele>762.6666666666667</ele><time>2026-04-05T12:18:28Z</time></trkpt><trkpt lat="44.78424685104941" lon="9.44984946173174"><ele>765.3333333333334</ele><time>2026-04-05T12:18:29Z</time></trkpt><trkpt lat="44.78418282122888" lon="9.449751472143683"><ele>768.0</ele><time>2026-04-05T12:18:31Z</time></trkpt><trkpt lat="44.78410928898319" lon="9.449704220888574"><ele>770.6666666666667</ele><time>2026-04-05T12:18:33Z</time></trkpt><trkpt lat="44.784032704984114" lon="9.44970025177693"><ele>773.3333333333334</ele><time>2026-04-05T12:18:35Z</time></trkpt><trkpt lat="44.78394435845749" lon="9.449705468368153"><ele>776.0</ele><time>2026-04-05T12:18:37Z</time></trkpt><trkpt lat="44.78386985408831" lon="9.44972456707397"><ele>776.0000000000001</ele><time>2026-04-05T12:18:39Z</time></trkpt><trkpt lat="44.783783879266366" lon="9.449769780651076"><ele>776.0</ele><time>2026-04-05T12:18:41Z</time></trkpt><trkpt lat="44.78372348690759" lon="9.449829011595615"><ele>776.0</ele><time>2026-04-05T12:18:43Z</time></trkpt><trkpt lat="44.783656139336" lon="9.449902569564061"><ele>776.0</ele><time>2026-04-05T12:18:45Z</time></trkpt><trkpt lat="44.78365953703551" lon="9.450002884022576"><ele>776.0000000000001</ele><time>2026-04-05T12:18:48Z</time></trkpt><trkpt lat="44.783646944186714" lon="9.450127820829358"><ele>776.0</ele><time>2026-04-05T12:18:51Z</time></trkpt><trkpt lat="44.78360360676005" lon="9.450246411565596"><ele>776.0</ele><time>2026-04-05T12:18:53Z</time></trkpt><trkpt lat="44.783541876616916" lon="9.450340952802824"><ele>776.0</ele><time>2026-04-05T12:18:55Z</time></trkpt><trkpt lat="44.78346049933656" lon="9.450444861296642"><ele>776.0</ele><time>2026-04-05T12:18:57Z</time></trkpt><trkpt lat="44.78340017520792" lon="9.450558837934144"><ele>776.0</ele><time>2026-04-05T12:18:59Z</time></trkpt><trkpt lat="44.78333707817985" lon="9.450669480148008"><ele>776.0</ele><time>2026-04-05T12:19:01Z</time></trkpt><trkpt lat="44.78329899173154" lon="9.450742037193658"><ele>778.8333333333334</ele><time>2026-04-05T12:19:02Z</time></trkpt><trkpt lat="44.78322711411006" lon="9.450866750387796"><ele>781.6666666666667</ele><time>2026-04-05T12:19:04Z</time></trkpt><trkpt lat="44.78318211426326" lon="9.450932679505254"><ele>784.5</ele><time>2026-04-05T12:19:05Z</time></trkpt><trkpt lat="44.783129551708846" lon="9.45098578886638"><ele>787.3333333333333</ele><time>2026-04-05T12:19:06Z</time></trkpt><trkpt lat="44.783085195350125" lon="9.451100175775316"><ele>790.1666666666666</ele><time>2026-04-05T12:19:08Z</time></trkpt><trkpt lat="44.78304464342863" lon="9.451209167006837"><ele>793.0</ele><time>2026-04-05T12:19:10Z</time></trkpt><trkpt lat="44.78300155930967" lon="9.451286737565955"><ele>797.2</ele><time>2026-04-05T12:19:12Z</time></trkpt><trkpt lat="44.78295318135462" lon="9.45142793398813"><ele>801.4</ele><time>2026-04-05T12:19:14Z</time></trkpt><trkpt lat="44.78295023449539" lon="9.451598944912485"><ele>805.6</ele><time>2026-04-05T12:19:17Z</time></trkpt><trkpt lat="44.78293310812378" lon="9.451725926869376"><ele>809.8000000000001</ele><time>2026-04-05T12:19:18Z</time></trkpt><trkpt lat="44.78293681850559" lon="9.45181699818016"><ele>814.0</ele><time>2026-04-05T12:19:19Z</time></trkpt><trkpt lat="44.782934890119584" lon="9.451918862338562"><ele>814.0</ele><time>2026-04-05T12:19:20Z</time></trkpt><trkpt lat="44.782875912119835" lon="9.45205356803418"><ele>814.0</ele><time>2026-04-05T12:19:22Z</time></trkpt><trkpt lat="44.782777836047295" lon="9.452146693549146"><ele>814.0</ele><time>2026-04-05T12:19:24Z</time></trkpt><trkpt lat="44.782705244270396" lon="9.452208619345074"><ele>814.0</ele><time>2026-04-05T12:19:25Z</time></trkpt><trkpt lat="44.78262458101511" lon="9.452263180640031"><ele>814.0</ele><time>2026-04-05T12:19:26Z</time></trkpt><trkpt lat="44.78255785333573" lon="9.452294798756094"><ele>814.4000000000001</ele><time>2026-04-05T12:19:27Z</time></trkpt><trkpt lat="44.78245537780423" lon="9.452353924763328"><ele>814.8</ele><time>2026-04-05T12:19:29Z</time></trkpt><trkpt lat="44.78237118815966" lon="9.452352562851864"><ele>815.2</ele><time>2026-04-05T12:19:31Z</time></trkpt><trkpt lat="44.78229698564508" lon="9.452351369988323"><ele>815.5999999999999</ele><time>2026-04-05T12:19:33Z</time></trkpt><trkpt lat="44.78225006598164" lon="9.452473031057185"><ele>816.0</ele><time>2026-04-05T12:19:35Z</time></trkpt><trkpt lat="44.78221967639622" lon="9.452584662550668"><ele>816.0</ele><time>2026-04-05T12:19:37Z</time></trkpt><trkpt lat="44.782252614463914" lon="9.452678441841757"><ele>816.0</ele><time>2026-04-05T12:19:39Z</time></trkpt><trkpt lat="44.78222051470052" lon="9.452806680789678"><ele>816.0</ele><time>2026-04-05T12:19:41Z</time></trkpt><trkpt lat="44.78219813074914" lon="9.452937495699"><ele>816.0</ele><time>2026-04-05T12:19:43Z</time></trkpt><trkpt lat="44.78216800252105" lon="9.45303783137747"><ele>816.0</ele><time>2026-04-05T12:19:44Z</time></trkpt><trkpt lat="44.78215085175282" lon="9.45315074208735"><ele>816.0</ele><time>2026-04-05T12:19:45Z</time></trkpt><trkpt lat="44.78213081377494" lon="9.453269064408207"><ele>819.1666666666666</ele><time>2026-04-05T12:19:46Z</time></trkpt><trkpt lat="44.782109971485774" lon="9.453370330539245"><ele>822.3333333333333</ele><time>2026-04-05T12:19:47Z</time></trkpt><trkpt lat="44.782088226715906" lon="9.453465740236314"><ele>825.5</ele><time>2026-04-05T12:19:48Z</time></trkpt><trkpt lat="44.782060779043476" lon="9.453560700529438"><ele>828.6666666666666</ele><time>2026-04-05T12:19:49Z</time></trkpt><trkpt lat="44.782023833013916" lon="9.453651510582995"><ele>831.8333333333333</ele><time>2026-04-05T12:19:50Z</time></trkpt><trkpt lat="44.781980100659766" lon="9.453739267624595"><ele>835.0</ele><time>2026-04-05T12:19:51Z</time></trkpt><trkpt lat="44.781933204158186" lon="9.45383402450571"><ele>833.2</ele><time>2026-04-05T12:19:52Z</time></trkpt><trkpt lat="44.781887214717436" lon="9.453937971416696"><ele>831.4</ele><time>2026-04-05T12:19:53Z</time></trkpt><trkpt lat="44.78184785262864" lon="9.454040615974534"><ele>829.5999999999999</ele><time>2026-04-05T12:19:54Z</time></trkpt><trkpt lat="44.78179242728387" lon="9.454169908898095"><ele>827.8</ele><time>2026-04-05T12:19:55Z</time></trkpt><trkpt lat="44.7817530272106" lon="9.454276025120528"><ele>826.0</ele><time>2026-04-05T12:19:56Z</time></trkpt><trkpt lat="44.78171366299437" lon="9.454395510402225"><ele>825.9999999999999</ele><time>2026-04-05T12:19:57Z</time></trkpt><trkpt lat="44.78170426349197" lon="9.45458114123488"><ele>826.0</ele><time>2026-04-05T12:19:59Z</time></trkpt><trkpt lat="44.781692452329565" lon="9.45467799545354"><ele>826.0</ele><time>2026-04-05T12:20:00Z</time></trkpt><trkpt lat="44.78165917763839" lon="9.454759834787517"><ele>826.0</ele><time>2026-04-05T12:20:01Z</time></trkpt><trkpt lat="44.78164216858353" lon="9.454851249350542"><ele>825.9999999999999</ele><time>2026-04-05T12:20:02Z</time></trkpt><trkpt lat="44.78163845424576" lon="9.454963894670081"><ele>826.0</ele><time>2026-04-05T12:20:03Z</time></trkpt><trkpt lat="44.78164297579866" lon="9.455172312866862"><ele>828.1666666666666</ele><time>2026-04-05T12:20:05Z</time></trkpt><trkpt lat="44.78164766496968" lon="9.455304563855504"><ele>830.3333333333333</ele><time>2026-04-05T12:20:06Z</time></trkpt><trkpt lat="44.781651259560235" lon="9.455398993699086"><ele>832.5</ele><time>2026-04-05T12:20:07Z</time></trkpt><trkpt lat="44.7816755724859" lon="9.455556760034431"><ele>834.6666666666667</ele><time>2026-04-05T12:20:09Z</time></trkpt><trkpt lat="44.781698965256616" lon="9.455639638236377"><ele>836.8333333333334</ele><time>2026-04-05T12:20:10Z</time></trkpt><trkpt lat="44.78172781013324" lon="9.455719201524255"><ele>839.0</ele><time>2026-04-05T12:20:11Z</time></trkpt><trkpt lat="44.781739358307036" lon="9.455850467129927"><ele>840.2</ele><time>2026-04-05T12:20:13Z</time></trkpt><trkpt lat="44.78169552884935" lon="9.455939782715493"><ele>841.4000000000001</ele><time>2026-04-05T12:20:15Z</time></trkpt><trkpt lat="44.78163612323501" lon="9.456027220661142"><ele>842.6</ele><time>2026-04-05T12:20:18Z</time></trkpt><trkpt lat="44.78159313258757" lon="9.456138336524464"><ele>843.8</ele><time>2026-04-05T12:20:44Z</time></trkpt><trkpt lat="44.781491938016046" lon="9.45625471771415"><ele>845.0</ele><time>2026-04-05T12:37:56Z</time></trkpt><trkpt lat="44.78140824670832" lon="9.456336982659211"><ele>845.0</ele><time>2026-04-05T12:37:56.998Z</time></trkpt><trkpt lat="44.781324564538984" lon="9.456373493187701"><ele>845.0</ele><time>2026-04-05T12:37:57.998Z</time></trkpt><trkpt lat="44.78123419520282" lon="9.45639694567267"><ele>845.0</ele><time>2026-04-05T12:37:58.998Z</time></trkpt><trkpt lat="44.781099301058525" lon="9.456444990792956"><ele>845.0</ele><time>2026-04-05T12:37:59.998Z</time></trkpt><trkpt lat="44.78097039855068" lon="9.45649308829887"><ele>846.4</ele><time>2026-04-05T12:38:00.998Z</time></trkpt><trkpt lat="44.780857306754534" lon="9.456534143853924"><ele>847.8</ele><time>2026-04-05T12:38:01.998Z</time></trkpt><trkpt lat="44.78075841310578" lon="9.456556738784485"><ele>849.2</ele><time>2026-04-05T12:38:02.998Z</time></trkpt><trkpt lat="44.78066740518913" lon="9.456583898139385"><ele>850.6</ele><time>2026-04-05T12:38:03.998Z</time></trkpt><trkpt lat="44.78056035993164" lon="9.456615594627882"><ele>852.0</ele><time>2026-04-05T12:38:04.998Z</time></trkpt><trkpt lat="44.78045825629612" lon="9.456652790297984"><ele>852.0</ele><time>2026-04-05T12:38:05.998Z</time></trkpt><trkpt lat="44.78040045159761" lon="9.456695849965271"><ele>852.0</ele><time>2026-04-05T12:38:06.998Z</time></trkpt><trkpt lat="44.780315169151834" lon="9.456786463408838"><ele>852.0</ele><time>2026-04-05T12:38:08.998Z</time></trkpt><trkpt lat="44.78025903713557" lon="9.456935919130608"><ele>852.0</ele><time>2026-04-05T12:38:10.998Z</time></trkpt><trkpt lat="44.780199909868415" lon="9.45700740272893"><ele>852.0</ele><time>2026-04-05T12:38:11.998Z</time></trkpt><trkpt lat="44.78012667641718" lon="9.457046331909622"><ele>852.0</ele><time>2026-04-05T12:38:12.999Z</time></trkpt><trkpt lat="44.78005185958382" lon="9.457075448481596"><ele>855.4000000000001</ele><time>2026-04-05T12:38:13.999Z</time></trkpt><trkpt lat="44.77996785851945" lon="9.45714617657268"><ele>858.8000000000001</ele><time>2026-04-05T12:38:14.999Z</time></trkpt><trkpt lat="44.77989695068203" lon="9.457257427459945"><ele>862.2</ele><time>2026-04-05T12:38:15.999Z</time></trkpt><trkpt lat="44.77982695709648" lon="9.457392332024785"><ele>865.6</ele><time>2026-04-05T12:38:16.999Z</time></trkpt><trkpt lat="44.77976732295292" lon="9.457540936863781"><ele>869.0</ele><time>2026-04-05T12:38:17.999Z</time></trkpt><trkpt lat="44.77972732026227" lon="9.4577140787329"><ele>869.0</ele><time>2026-04-05T12:38:18.999Z</time></trkpt><trkpt lat="44.77968845703236" lon="9.457887803526098"><ele>869.0000000000001</ele><time>2026-04-05T12:38:19.999Z</time></trkpt><trkpt lat="44.77965556957617" lon="9.45803786795196"><ele>869.0000000000001</ele><time>2026-04-05T12:38:20.999Z</time></trkpt><trkpt lat="44.77961931105512" lon="9.458149352274946"><ele>869.0</ele><time>2026-04-05T12:38:21.999Z</time></trkpt><trkpt lat="44.77954804147256" lon="9.458270418950478"><ele>869.0</ele><time>2026-04-05T12:38:22.999Z</time></trkpt><trkpt lat="44.77944474982839" lon="9.458417574792488"><ele>869.4000000000001</ele><time>2026-04-05T12:38:23.999Z</time></trkpt><trkpt lat="44.779390581842456" lon="9.458545004892674"><ele>869.8000000000001</ele><time>2026-04-05T12:38:24.999Z</time></trkpt><trkpt lat="44.779358956627966" lon="9.458637936207989"><ele>870.1999999999999</ele><time>2026-04-05T12:38:25.999Z</time></trkpt><trkpt lat="44.77931738103882" lon="9.458704548656474"><ele>870.5999999999999</ele><time>2026-04-05T12:38:26.999Z</time></trkpt><trkpt lat="44.7792357186793" lon="9.458734789556067"><ele>871.0</ele><time>2026-04-05T12:38:27.999Z</time></trkpt><trkpt lat="44.779101388007476" lon="9.458746140949934"><ele>873.0</ele><time>2026-04-05T12:38:28.999Z</time></trkpt><trkpt lat="44.778978970040846" lon="9.458767085080046"><ele>874.9999999999999</ele><time>2026-04-05T12:38:29.999Z</time></trkpt><trkpt lat="44.77887592849655" lon="9.458794054201086"><ele>876.9999999999999</ele><time>2026-04-05T12:38:30.999Z</time></trkpt><trkpt lat="44.77881140911805" lon="9.458905610733012"><ele>879.0</ele><time>2026-04-05T12:38:32.999Z</time></trkpt><trkpt lat="44.778818603879905" lon="9.459028532079877"><ele>881.0</ele><time>2026-04-05T12:38:33.999Z</time></trkpt><trkpt lat="44.778838144779535" lon="9.459142090066928"><ele>881.5</ele><time>2026-04-05T12:38:34.999Z</time></trkpt><trkpt lat="44.7788678217356" lon="9.45927866314431"><ele>882.0</ele><time>2026-04-05T12:38:35.999Z</time></trkpt><trkpt lat="44.77890157055183" lon="9.459437139492307"><ele>882.5</ele><time>2026-04-05T12:38:36.999Z</time></trkpt><trkpt lat="44.778940483180406" lon="9.459591146533239"><ele>883.0</ele><time>2026-04-05T12:38:37.999Z</time></trkpt><trkpt lat="44.77898806701513" lon="9.459740791218742"><ele>883.75</ele><time>2026-04-05T12:38:38.999Z</time></trkpt><trkpt lat="44.779072472327584" lon="9.45987484325838"><ele>884.5</ele><time>2026-04-05T12:38:39.999Z</time></trkpt><trkpt lat="44.779162417288504" lon="9.460009248108307"><ele>885.25</ele><time>2026-04-05T12:38:40.999Z</time></trkpt><trkpt lat="44.779249084757275" lon="9.460143887353206"><ele>886.0</ele><time>2026-04-05T12:38:41.999Z</time></trkpt><trkpt lat="44.77932009850047" lon="9.46027668136054"><ele>883.5</ele><time>2026-04-05T12:38:43Z</time></trkpt><trkpt lat="44.77937338356899" lon="9.460407657700173"><ele>881.0</ele><time>2026-04-05T12:38:44Z</time></trkpt><trkpt lat="44.77941732699217" lon="9.460552800608152"><ele>878.5</ele><time>2026-04-05T12:38:45Z</time></trkpt><trkpt lat="44.779500131551465" lon="9.460694240404072"><ele>876.0</ele><time>2026-04-05T12:38:46Z</time></trkpt><trkpt lat="44.77957308026923" lon="9.460826930440236"><ele>876.0</ele><time>2026-04-05T12:38:47Z</time></trkpt><trkpt lat="44.779647834949365" lon="9.460939496664542"><ele>876.0</ele><time>2026-04-05T12:38:48Z</time></trkpt><trkpt lat="44.77974238711498" lon="9.46107099949561"><ele>876.0</ele><time>2026-04-05T12:38:49Z</time></trkpt><trkpt lat="44.779836778953424" lon="9.461204205442126"><ele>876.0</ele><time>2026-04-05T12:38:50Z</time></trkpt><trkpt lat="44.77992886249216" lon="9.461333365572978"><ele>875.5</ele><time>2026-04-05T12:38:51Z</time></trkpt><trkpt lat="44.780016735414755" lon="9.461458797684816"><ele>875.0</ele><time>2026-04-05T12:38:52Z</time></trkpt><trkpt lat="44.78009718843665" lon="9.461591349778903"><ele>874.5</ele><time>2026-04-05T12:38:53Z</time></trkpt><trkpt lat="44.7801724919546" lon="9.461747711221793"><ele>874.0</ele><time>2026-04-05T12:38:54Z</time></trkpt><trkpt lat="44.780248125990894" lon="9.461900109339743"><ele>871.0</ele><time>2026-04-05T12:38:55Z</time></trkpt><trkpt lat="44.780343683785624" lon="9.462047103041726"><ele>868.0</ele><time>2026-04-05T12:38:56Z</time></trkpt><trkpt lat="44.78046635425297" lon="9.462171060983554"><ele>865.0</ele><time>2026-04-05T12:38:57Z</time></trkpt><trkpt lat="44.7805778509272" lon="9.462291965246264"><ele>862.0</ele><time>2026-04-05T12:38:58Z</time></trkpt><trkpt lat="44.78068502383585" lon="9.462387437465313"><ele>862.0</ele><time>2026-04-05T12:38:59Z</time></trkpt><trkpt lat="44.78079573273598" lon="9.462473712709286"><ele>862.0</ele><time>2026-04-05T12:39:00Z</time></trkpt><trkpt lat="44.78090594364356" lon="9.462562518964344"><ele>862.0</ele><time>2026-04-05T12:39:01Z</time></trkpt><trkpt lat="44.781017762574535" lon="9.46266228208115"><ele>862.0</ele><time>2026-04-05T12:39:02Z</time></trkpt><trkpt lat="44.78113560038696" lon="9.462753186789113"><ele>859.75</ele><time>2026-04-05T12:39:03Z</time></trkpt><trkpt lat="44.78125146572359" lon="9.462837086840361"><ele>857.5</ele><time>2026-04-05T12:39:04Z</time></trkpt><trkpt lat="44.78137417974368" lon="9.462927507747334"><ele>855.25</ele><time>2026-04-05T12:39:05Z</time></trkpt><trkpt lat="44.78148718389473" lon="9.4630138027972"><ele>853.0</ele><time>2026-04-05T12:39:06Z</time></trkpt><trkpt lat="44.7816017478183" lon="9.463085437853021"><ele>853.0</ele><time>2026-04-05T12:39:07Z</time></trkpt><trkpt lat="44.78171288172519" lon="9.463152224924615"><ele>853.0</ele><time>2026-04-05T12:39:08Z</time></trkpt><trkpt lat="44.781835098219595" lon="9.463228075094532"><ele>853.0</ele><time>2026-04-05T12:39:09Z</time></trkpt><trkpt lat="44.78197810067846" lon="9.463314130829078"><ele>853.0</ele><time>2026-04-05T12:39:10Z</time></trkpt><trkpt lat="44.78211757601022" lon="9.463397613786409"><ele>851.5999999999999</ele><time>2026-04-05T12:39:11Z</time></trkpt><trkpt lat="44.782241956169074" lon="9.463477512132163"><ele>850.1999999999999</ele><time>2026-04-05T12:39:12Z</time></trkpt><trkpt lat="44.78234336014665" lon="9.46355905228979"><ele>848.8</ele><time>2026-04-05T12:39:13Z</time></trkpt><trkpt lat="44.78241326848133" lon="9.463645794867283"><ele>847.4</ele><time>2026-04-05T12:39:14Z</time></trkpt><trkpt lat="44.78245822777925" lon="9.463752941360188"><ele>846.0</ele><time>2026-04-05T12:39:15Z</time></trkpt><trkpt lat="44.782480052959734" lon="9.46388963605231"><ele>846.0</ele><time>2026-04-05T12:39:16Z</time></trkpt><trkpt lat="44.78248677686061" lon="9.464093430607447"><ele>846.0</ele><time>2026-04-05T12:39:17Z</time></trkpt><trkpt lat="44.78250119455576" lon="9.46433577233538"><ele>846.0</ele><time>2026-04-05T12:39:18Z</time></trkpt><trkpt lat="44.782530217514555" lon="9.464567964857132"><ele>844.6666666666667</ele><time>2026-04-05T12:39:19Z</time></trkpt><trkpt lat="44.78256075096317" lon="9.464783899832101"><ele>843.3333333333334</ele><time>2026-04-05T12:39:20Z</time></trkpt><trkpt lat="44.78259222761884" lon="9.464989082519905"><ele>842.0</ele><time>2026-04-05T12:39:21Z</time></trkpt><trkpt lat="44.782630703132575" lon="9.465190956046662"><ele>842.0</ele><time>2026-04-05T12:39:22Z</time></trkpt><trkpt lat="44.7826774313338" lon="9.46538317496223"><ele>842.0</ele><time>2026-04-05T12:39:23Z</time></trkpt><trkpt lat="44.78271705957671" lon="9.46556394971296"><ele>842.0</ele><time>2026-04-05T12:39:24Z</time></trkpt><trkpt lat="44.782732262111054" lon="9.46574712435601"><ele>842.0</ele><time>2026-04-05T12:39:25Z</time></trkpt><trkpt lat="44.78272610934376" lon="9.465944923742116"><ele>842.0</ele><time>2026-04-05T12:39:26Z</time></trkpt><trkpt lat="44.782718658674796" lon="9.46613048696719"><ele>842.0</ele><time>2026-04-05T12:39:27Z</time></trkpt><trkpt lat="44.782718951210505" lon="9.466289919486123"><ele>842.0</ele><time>2026-04-05T12:39:28Z</time></trkpt><trkpt lat="44.78271862703731" lon="9.466441296317369"><ele>842.0</ele><time>2026-04-05T12:39:29.001Z</time></trkpt><trkpt lat="44.78270244855221" lon="9.466592069674245"><ele>839.25</ele><time>2026-04-05T12:39:30.001Z</time></trkpt><trkpt lat="44.78267440306314" lon="9.466746236547523"><ele>836.5</ele><time>2026-04-05T12:39:31.001Z</time></trkpt><trkpt lat="44.78264518633554" lon="9.466904470772315"><ele>833.75</ele><time>2026-04-05T12:39:32.001Z</time></trkpt><trkpt lat="44.782614429586296" lon="9.467062301548557"><ele>831.0</ele><time>2026-04-05T12:39:33.001Z</time></trkpt><trkpt lat="44.782576299660946" lon="9.467221203483174"><ele>828.25</ele><time>2026-04-05T12:39:34.001Z</time></trkpt><trkpt lat="44.78251913329619" lon="9.467370972379541"><ele>825.5</ele><time>2026-04-05T12:39:35.001Z</time></trkpt><trkpt lat="44.78249650173563" lon="9.467515985389298"><ele>822.75</ele><time>2026-04-05T12:39:36.001Z</time></trkpt><trkpt lat="44.78253457908208" lon="9.467666676002553"><ele>820.0</ele><time>2026-04-05T12:39:37.001Z</time></trkpt><trkpt lat="44.78258684474396" lon="9.46781599161249"><ele>819.75</ele><time>2026-04-05T12:39:38.001Z</time></trkpt><trkpt lat="44.782680189343154" lon="9.467966946431027"><ele>819.5</ele><time>2026-04-05T12:39:39.001Z</time></trkpt><trkpt lat="44.7827783258957" lon="9.46811771437051"><ele>819.25</ele><time>2026-04-05T12:39:40.001Z</time></trkpt><trkpt lat="44.78286177320919" lon="9.468255413597156"><ele>819.0</ele><time>2026-04-05T12:39:41.001Z</time></trkpt><trkpt lat="44.782941421157815" lon="9.46838908267399"><ele>816.75</ele><time>2026-04-05T12:39:42.001Z</time></trkpt><trkpt lat="44.783025383138565" lon="9.46851212324278"><ele>814.5</ele><time>2026-04-05T12:39:43.001Z</time></trkpt><trkpt lat="44.7830994246818" lon="9.4686429753184"><ele>812.25</ele><time>2026-04-05T12:39:44.001Z</time></trkpt><trkpt lat="44.78319863828989" lon="9.468729712836756"><ele>810.0</ele><time>2026-04-05T12:39:45.001Z</time></trkpt><trkpt lat="44.78327301889542" lon="9.468823428928632"><ele>809.1666666666666</ele><time>2026-04-05T12:39:46.001Z</time></trkpt><trkpt lat="44.783316611146425" lon="9.468923143709631"><ele>808.3333333333333</ele><time>2026-04-05T12:39:47.001Z</time></trkpt><trkpt lat="44.78335702966672" lon="9.468995400744898"><ele>807.5</ele><time>2026-04-05T12:39:48.001Z</time></trkpt><trkpt lat="44.78339125401983" lon="9.469072908078113"><ele>806.6666666666666</ele><time>2026-04-05T12:39:49.001Z</time></trkpt><trkpt lat="44.78343561506939" lon="9.469216697764393"><ele>805.8333333333333</ele><time>2026-04-05T12:39:51.001Z</time></trkpt><trkpt lat="44.78344380152458" lon="9.46934331501801"><ele>805.0</ele><time>2026-04-05T12:39:53.001Z</time></trkpt><trkpt lat="44.7834342965842" lon="9.469478029967275"><ele>804.9999999999999</ele><time>2026-04-05T12:39:55.001Z</time></trkpt><trkpt lat="44.78342390830749" lon="9.469575168458011"><ele>805.0</ele><time>2026-04-05T12:39:56.001Z</time></trkpt><trkpt lat="44.78340493093102" lon="9.469663086510604"><ele>805.0</ele><time>2026-04-05T12:39:57.001Z</time></trkpt><trkpt lat="44.783377595428895" lon="9.46976665654613"><ele>805.0</ele><time>2026-04-05T12:39:58.001Z</time></trkpt><trkpt lat="44.7833403976732" lon="9.469869400077155"><ele>804.9999999999999</ele><time>2026-04-05T12:39:59.001Z</time></trkpt><trkpt lat="44.78329890299094" lon="9.46996941864237"><ele>805.0</ele><time>2026-04-05T12:40:00.001Z</time></trkpt><trkpt lat="44.78325701354203" lon="9.470082701064477"><ele>804.0</ele><time>2026-04-05T12:40:01.001Z</time></trkpt><trkpt lat="44.78322235404645" lon="9.470202892454475"><ele>803.0</ele><time>2026-04-05T12:40:02.001Z</time></trkpt><trkpt lat="44.78319339220442" lon="9.470339141823494"><ele>802.0</ele><time>2026-04-05T12:40:03Z</time></trkpt><trkpt lat="44.783175073175684" lon="9.470491195175466"><ele>801.0</ele><time>2026-04-05T12:40:04Z</time></trkpt><trkpt lat="44.78318797480959" lon="9.470638878642097"><ele>800.0</ele><time>2026-04-05T12:40:05Z</time></trkpt><trkpt lat="44.78320961785362" lon="9.470755495483724"><ele>797.5</ele><time>2026-04-05T12:40:06Z</time></trkpt><trkpt lat="44.78321727192207" lon="9.470856674679482"><ele>795.0</ele><time>2026-04-05T12:40:07Z</time></trkpt><trkpt lat="44.78322663275244" lon="9.471028619660238"><ele>792.5</ele><time>2026-04-05T12:40:09Z</time></trkpt><trkpt lat="44.783234601303874" lon="9.47117499049879"><ele>790.0</ele><time>2026-04-05T12:40:11Z</time></trkpt><trkpt lat="44.78341372417071" lon="9.471335131826123"><ele>787.9999999999999</ele><time>2026-04-05T12:40:13Z</time></trkpt><trkpt lat="44.783450045168216" lon="9.471418372131414"><ele>786.0</ele><time>2026-04-05T12:40:15Z</time></trkpt><trkpt lat="44.78349134123049" lon="9.471497414536447"><ele>784.0</ele><time>2026-04-05T12:40:17Z</time></trkpt><trkpt lat="44.783496029715415" lon="9.471633449197833"><ele>782.0</ele><time>2026-04-05T12:40:20Z</time></trkpt><trkpt lat="44.7835173532403" lon="9.471734228961063"><ele>779.9999999999999</ele><time>2026-04-05T12:40:22Z</time></trkpt><trkpt lat="44.78357390641759" lon="9.47178537862079"><ele>778.0</ele><time>2026-04-05T12:40:23Z</time></trkpt><trkpt lat="44.78362156509393" lon="9.471890868657036"><ele>775.2</ele><time>2026-04-05T12:40:25Z</time></trkpt><trkpt lat="44.783643532762405" lon="9.472057337002799"><ele>772.4</ele><time>2026-04-05T12:40:27Z</time></trkpt><trkpt lat="44.78368096875703" lon="9.47215160359378"><ele>769.6</ele><time>2026-04-05T12:40:29Z</time></trkpt><trkpt lat="44.78374306008901" lon="9.472200330123378"><ele>766.8000000000001</ele><time>2026-04-05T12:40:30Z</time></trkpt><trkpt lat="44.78383778691463" lon="9.472305608595578"><ele>764.0</ele><time>2026-04-05T12:40:32Z</time></trkpt><trkpt lat="44.783891103632726" lon="9.472408943888814"><ele>762.5</ele><time>2026-04-05T12:40:34Z</time></trkpt><trkpt lat="44.78400074816413" lon="9.472468954854005"><ele>761.0</ele><time>2026-04-05T12:40:36Z</time></trkpt><trkpt lat="44.784066338131645" lon="9.472476572546716"><ele>759.5</ele><time>2026-04-05T12:40:37Z</time></trkpt><trkpt lat="44.784132382317175" lon="9.47251195832612"><ele>758.0</ele><time>2026-04-05T12:40:38Z</time></trkpt><trkpt lat="44.78418713703947" lon="9.472567972670308"><ele>756.5</ele><time>2026-04-05T12:40:39Z</time></trkpt><trkpt lat="44.784257964184604" lon="9.472622480860212"><ele>755.0</ele><time>2026-04-05T12:40:40Z</time></trkpt><trkpt lat="44.784318192664436" lon="9.472662796240428"><ele>755.0</ele><time>2026-04-05T12:40:41Z</time></trkpt><trkpt lat="44.78435264814429" lon="9.472746990682097"><ele>755.0</ele><time>2026-04-05T12:40:43Z</time></trkpt><trkpt lat="44.78431921109424" lon="9.472892719854908"><ele>755.0</ele><time>2026-04-05T12:40:45Z</time></trkpt><trkpt lat="44.784289507650456" lon="9.473031536541889"><ele>755.0</ele><time>2026-04-05T12:40:47Z</time></trkpt><trkpt lat="44.78429955129388" lon="9.473124433923422"><ele>755.0</ele><time>2026-04-05T12:40:48Z</time></trkpt><trkpt lat="44.78433781200714" lon="9.47321479340354"><ele>755.0</ele><time>2026-04-05T12:40:49Z</time></trkpt><trkpt lat="44.784371114503855" lon="9.47331032542575"><ele>752.1666666666666</ele><time>2026-04-05T12:40:50Z</time></trkpt><trkpt lat="44.78439967287232" lon="9.473406204265324"><ele>749.3333333333333</ele><time>2026-04-05T12:40:51Z</time></trkpt><trkpt lat="44.78443407324402" lon="9.47349233312883"><ele>746.5</ele><time>2026-04-05T12:40:52Z</time></trkpt><trkpt lat="44.784487212699005" lon="9.473567364383033"><ele>743.6666666666666</ele><time>2026-04-05T12:40:53Z</time></trkpt><trkpt lat="44.78455566126155" lon="9.473642694433565"><ele>740.8333333333334</ele><time>2026-04-05T12:40:54Z</time></trkpt><trkpt lat="44.7846215938174" lon="9.473739004877148"><ele>738.0</ele><time>2026-04-05T12:40:55.001Z</time></trkpt><trkpt lat="44.78469399905721" lon="9.473815481633203"><ele>737.8333333333334</ele><time>2026-04-05T12:40:56.001Z</time></trkpt><trkpt lat="44.78476306643268" lon="9.473896640177326"><ele>737.6666666666666</ele><time>2026-04-05T12:40:57.001Z</time></trkpt><trkpt lat="44.784815747956344" lon="9.473985853696993"><ele>737.5</ele><time>2026-04-05T12:40:58.001Z</time></trkpt><trkpt lat="44.78484052827506" lon="9.474093209618728"><ele>737.3333333333333</ele><time>2026-04-05T12:40:59.001Z</time></trkpt><trkpt lat="44.78487609907149" lon="9.474201997332726"><ele>737.1666666666666</ele><time>2026-04-05T12:41:00.001Z</time></trkpt><trkpt lat="44.784931222491714" lon="9.47429031005312"><ele>737.0</ele><time>2026-04-05T12:41:01.001Z</time></trkpt><trkpt lat="44.78502374675048" lon="9.474328303830653"><ele>737.0</ele><time>2026-04-05T12:41:02.001Z</time></trkpt><trkpt lat="44.7851151913314" lon="9.47436454170198"><ele>737.0</ele><time>2026-04-05T12:41:03.001Z</time></trkpt><trkpt lat="44.78520259447201" lon="9.474401341442503"><ele>737.0</ele><time>2026-04-05T12:41:04.001Z</time></trkpt><trkpt lat="44.78529758957737" lon="9.474450234530437"><ele>737.0</ele><time>2026-04-05T12:41:05.001Z</time></trkpt><trkpt lat="44.78538139232852" lon="9.474528227141965"><ele>737.0</ele><time>2026-04-05T12:41:06.001Z</time></trkpt><trkpt lat="44.78547549389045" lon="9.474561675082324"><ele>734.6666666666666</ele><time>2026-04-05T12:41:07.001Z</time></trkpt><trkpt lat="44.78555449865079" lon="9.474614044340267"><ele>732.3333333333333</ele><time>2026-04-05T12:41:08.001Z</time></trkpt><trkpt lat="44.785634521489875" lon="9.474669829295737"><ele>730.0</ele><time>2026-04-05T12:41:09.001Z</time></trkpt><trkpt lat="44.785689525149984" lon="9.474747416484474"><ele>727.6666666666666</ele><time>2026-04-05T12:41:10.001Z</time></trkpt><trkpt lat="44.78573501842952" lon="9.474810477129608"><ele>725.3333333333334</ele><time>2026-04-05T12:41:11.001Z</time></trkpt><trkpt lat="44.78577463046914" lon="9.474974412771244"><ele>723.0</ele><time>2026-04-05T12:41:13.001Z</time></trkpt><trkpt lat="44.78573459444814" lon="9.475111846129733"><ele>723.0</ele><time>2026-04-05T12:41:15.001Z</time></trkpt><trkpt lat="44.7857903992172" lon="9.475199300372678"><ele>723.0</ele><time>2026-04-05T12:41:19.001Z</time></trkpt><trkpt lat="44.7858722957185" lon="9.47510885485731"><ele>723.0</ele><time>2026-04-05T12:41:21.001Z</time></trkpt><trkpt lat="44.78594113684975" lon="9.475062748143868"><ele>723.0</ele><time>2026-04-05T12:41:23.001Z</time></trkpt><trkpt lat="44.78606139956329" lon="9.475184748311086"><ele>723.0</ele><time>2026-04-05T12:41:25.001Z</time></trkpt><trkpt lat="44.7861373091192" lon="9.475254712813602"><ele>721.5</ele><time>2026-04-05T12:41:26.001Z</time></trkpt><trkpt lat="44.786190648621854" lon="9.475352113254614"><ele>720.0</ele><time>2026-04-05T12:41:27.001Z</time></trkpt><trkpt lat="44.78624034873961" lon="9.475434793810324"><ele>718.5</ele><time>2026-04-05T12:41:28.001Z</time></trkpt><trkpt lat="44.786295661335046" lon="9.47551924812346"><ele>717.0</ele><time>2026-04-05T12:41:29.001Z</time></trkpt><trkpt lat="44.78631613842758" lon="9.475636872935459"><ele>715.5</ele><time>2026-04-05T12:41:30.001Z</time></trkpt><trkpt lat="44.78636407716916" lon="9.475738020908148"><ele>714.0</ele><time>2026-04-05T12:41:31.001Z</time></trkpt><trkpt lat="44.786444490438434" lon="9.475819988420541"><ele>713.0</ele><time>2026-04-05T12:41:32.001Z</time></trkpt><trkpt lat="44.786522232507856" lon="9.475914047916222"><ele>712.0</ele><time>2026-04-05T12:41:33.001Z</time></trkpt><trkpt lat="44.7865848370628" lon="9.476023412701348"><ele>711.0</ele><time>2026-04-05T12:41:34.001Z</time></trkpt><trkpt lat="44.786635121346436" lon="9.476126862775411"><ele>710.0</ele><time>2026-04-05T12:41:35.001Z</time></trkpt><trkpt lat="44.78667330958025" lon="9.476233584925412"><ele>709.0</ele><time>2026-04-05T12:41:36.001Z</time></trkpt><trkpt lat="44.78670172726339" lon="9.476344071026162"><ele>708.5</ele><time>2026-04-05T12:41:37.001Z</time></trkpt><trkpt lat="44.7867236164427" lon="9.476471801002736"><ele>708.0</ele><time>2026-04-05T12:41:38.001Z</time></trkpt><trkpt lat="44.786751716183865" lon="9.476592505591823"><ele>707.5</ele><time>2026-04-05T12:41:39.001Z</time></trkpt><trkpt lat="44.78679345658198" lon="9.476712092795536"><ele>707.0</ele><time>2026-04-05T12:41:40.001Z</time></trkpt><trkpt lat="44.78681394148109" lon="9.476832918747984"><ele>706.5</ele><time>2026-04-05T12:41:41.001Z</time></trkpt><trkpt lat="44.786841531620354" lon="9.476931481263412"><ele>706.0</ele><time>2026-04-05T12:41:42.001Z</time></trkpt><trkpt lat="44.7868823475769" lon="9.477028784107278"><ele>704.5999999999999</ele><time>2026-04-05T12:41:43.001Z</time></trkpt><trkpt lat="44.78697493490547" lon="9.477081760915636"><ele>703.2</ele><time>2026-04-05T12:41:44.001Z</time></trkpt><trkpt lat="44.787066650546556" lon="9.47714090442467"><ele>701.8</ele><time>2026-04-05T12:41:45.001Z</time></trkpt><trkpt lat="44.78716579014881" lon="9.477177867004068"><ele>700.4000000000001</ele><time>2026-04-05T12:41:46.002Z</time></trkpt><trkpt lat="44.787254065774185" lon="9.477209901123455"><ele>699.0</ele><time>2026-04-05T12:41:47.002Z</time></trkpt><trkpt lat="44.78731766820913" lon="9.477287082045047"><ele>698.3333333333334</ele><time>2026-04-05T12:41:48.002Z</time></trkpt><trkpt lat="44.78739343057007" lon="9.477363223518504"><ele>697.6666666666666</ele><time>2026-04-05T12:41:49.002Z</time></trkpt><trkpt lat="44.78746336767227" lon="9.477403477568561"><ele>697.0</ele><time>2026-04-05T12:41:50.002Z</time></trkpt><trkpt lat="44.78751809530118" lon="9.477452762613465"><ele>696.3333333333333</ele><time>2026-04-05T12:41:51.002Z</time></trkpt><trkpt lat="44.78755315147462" lon="9.477531375969743"><ele>695.6666666666666</ele><time>2026-04-05T12:41:52.002Z</time></trkpt><trkpt lat="44.78756450363663" lon="9.477670770169546"><ele>695.0</ele><time>2026-04-05T12:41:54.002Z</time></trkpt><trkpt lat="44.78753332440251" lon="9.47776258676831"><ele>695.0</ele><time>2026-04-05T12:41:55.002Z</time></trkpt><trkpt lat="44.78752762281121" lon="9.47786236419736"><ele>695.0</ele><time>2026-04-05T12:41:56.002Z</time></trkpt><trkpt lat="44.78758713166481" lon="9.477956171671783"><ele>695.0</ele><time>2026-04-05T12:41:57.002Z</time></trkpt><trkpt lat="44.78759542081524" lon="9.478062204370865"><ele>695.0</ele><time>2026-04-05T12:41:58.002Z</time></trkpt><trkpt lat="44.787613046768705" lon="9.478176575097303"><ele>695.0</ele><time>2026-04-05T12:41:59.002Z</time></trkpt><trkpt lat="44.78763071677852" lon="9.478282718683522"><ele>695.0</ele><time>2026-04-05T12:42:00.002Z</time></trkpt><trkpt lat="44.78764957403308" lon="9.478375288324164"><ele>693.7142857142858</ele><time>2026-04-05T12:42:01.002Z</time></trkpt><trkpt lat="44.787676683360644" lon="9.478471307457417"><ele>692.4285714285714</ele><time>2026-04-05T12:42:02.002Z</time></trkpt><trkpt lat="44.78770979169321" lon="9.47858834624341"><ele>691.1428571428571</ele><time>2026-04-05T12:42:03.002Z</time></trkpt><trkpt lat="44.78772497447711" lon="9.478688364156707"><ele>689.8571428571429</ele><time>2026-04-05T12:42:04.002Z</time></trkpt><trkpt lat="44.78774062933518" lon="9.478780876092"><ele>688.5714285714286</ele><time>2026-04-05T12:42:05.002Z</time></trkpt><trkpt lat="44.78776813743237" lon="9.478872824685487"><ele>687.2857142857143</ele><time>2026-04-05T12:42:06.003Z</time></trkpt><trkpt lat="44.78778977545395" lon="9.478966699616759"><ele>686.0</ele><time>2026-04-05T12:42:07.003Z</time></trkpt><trkpt lat="44.78782842377515" lon="9.479046408388003"><ele>682.6666666666666</ele><time>2026-04-05T12:42:08.003Z</time></trkpt><trkpt lat="44.787876631954816" lon="9.479118014601863"><ele>679.3333333333333</ele><time>2026-04-05T12:42:09.002Z</time></trkpt><trkpt lat="44.78793224920719" lon="9.479176498459267"><ele>676.0</ele><time>2026-04-05T12:42:10.002Z</time></trkpt><trkpt lat="44.78800361175643" lon="9.479226233908602"><ele>672.6666666666666</ele><time>2026-04-05T12:42:11.002Z</time></trkpt><trkpt lat="44.78807753117514" lon="9.479300159831103"><ele>669.3333333333334</ele><time>2026-04-05T12:42:12.002Z</time></trkpt><trkpt lat="44.788149929446455" lon="9.4793201659147"><ele>666.0</ele><time>2026-04-05T12:42:13.002Z</time></trkpt><trkpt lat="44.78821729824519" lon="9.479367656183712"><ele>666.0</ele><time>2026-04-05T12:42:14.002Z</time></trkpt><trkpt lat="44.78829338585872" lon="9.479449302589904"><ele>666.0</ele><time>2026-04-05T12:42:15.002Z</time></trkpt><trkpt lat="44.78837402036645" lon="9.47951824817867"><ele>666.0</ele><time>2026-04-05T12:42:16.002Z</time></trkpt><trkpt lat="44.78844093125992" lon="9.479589859385303"><ele>666.0</ele><time>2026-04-05T12:42:17.002Z</time></trkpt><trkpt lat="44.78849648977162" lon="9.479658613853475"><ele>666.0</ele><time>2026-04-05T12:42:18.002Z</time></trkpt><trkpt lat="44.788550232953035" lon="9.479733399252305"><ele>666.0</ele><time>2026-04-05T12:42:19.002Z</time></trkpt><trkpt lat="44.78860527535835" lon="9.479810233905937"><ele>664.5999999999999</ele><time>2026-04-05T12:42:20.002Z</time></trkpt><trkpt lat="44.788652835766186" lon="9.479880034099832"><ele>663.2</ele><time>2026-04-05T12:42:21.002Z</time></trkpt><trkpt lat="44.78872629690236" lon="9.480002557752723"><ele>661.8</ele><time>2026-04-05T12:42:23.002Z</time></trkpt><trkpt lat="44.78878276480817" lon="9.480122390780796"><ele>660.4000000000001</ele><time>2026-04-05T12:42:25.002Z</time></trkpt><trkpt lat="44.78886025029908" lon="9.480210259373658"><ele>659.0</ele><time>2026-04-05T12:42:27.002Z</time></trkpt><trkpt lat="44.788912940552805" lon="9.48027894149657"><ele>659.0</ele><time>2026-04-05T12:42:29.002Z</time></trkpt><trkpt lat="44.78899269901125" lon="9.480325568985492"><ele>659.0</ele><time>2026-04-05T12:42:31.002Z</time></trkpt><trkpt lat="44.789062384379854" lon="9.48032163022026"><ele>659.0</ele><time>2026-04-05T12:42:32.002Z</time></trkpt><trkpt lat="44.7891555591739" lon="9.48029195567453"><ele>659.0</ele><time>2026-04-05T12:42:33.002Z</time></trkpt><trkpt lat="44.78923111746771" lon="9.480353204565342"><ele>659.0</ele><time>2026-04-05T12:42:34.002Z</time></trkpt><trkpt lat="44.789301867588044" lon="9.480369927529653"><ele>659.0</ele><time>2026-04-05T12:42:35.002Z</time></trkpt><trkpt lat="44.7894276109164" lon="9.480405775252997"><ele>655.1666666666666</ele><time>2026-04-05T12:42:37.002Z</time></trkpt><trkpt lat="44.789546452560295" lon="9.480444446272587"><ele>651.3333333333333</ele><time>2026-04-05T12:42:39.002Z</time></trkpt><trkpt lat="44.78961571749792" lon="9.480434773827731"><ele>647.5</ele><time>2026-04-05T12:42:40.002Z</time></trkpt><trkpt lat="44.78968046154585" lon="9.480464042173612"><ele>643.6666666666666</ele><time>2026-04-05T12:42:41.002Z</time></trkpt><trkpt lat="44.78974959344966" lon="9.48053679174345"><ele>639.8333333333334</ele><time>2026-04-05T12:42:42.002Z</time></trkpt><trkpt lat="44.78983870710463" lon="9.480580576512828"><ele>636.0</ele><time>2026-04-05T12:42:44.002Z</time></trkpt><trkpt lat="44.78990578553798" lon="9.480679180663891"><ele>636.0</ele><time>2026-04-05T12:42:46.002Z</time></trkpt><trkpt lat="44.790123467193155" lon="9.480816608161598"><ele>636.0</ele><time>2026-04-05T12:42:50.002Z</time></trkpt><trkpt lat="44.79017757232309" lon="9.480939308954595"><ele>636.0</ele><time>2026-04-05T12:42:52.002Z</time></trkpt><trkpt lat="44.79023670807816" lon="9.48107360908458"><ele>633.0</ele><time>2026-04-05T12:42:54.002Z</time></trkpt><trkpt lat="44.790268041703904" lon="9.48115404763145"><ele>630.0</ele><time>2026-04-05T12:42:55.002Z</time></trkpt><trkpt lat="44.79030983463487" lon="9.481226549812286"><ele>627.0</ele><time>2026-04-05T12:42:56.002Z</time></trkpt><trkpt lat="44.79034951507211" lon="9.481395393619096"><ele>624.0</ele><time>2026-04-05T12:42:58.002Z</time></trkpt><trkpt lat="44.7903839742692" lon="9.481478845543101"><ele>621.0</ele><time>2026-04-05T12:42:59.002Z</time></trkpt><trkpt lat="44.7904234403052" lon="9.48156335933172"><ele>618.0</ele><time>2026-04-05T12:43:00.002Z</time></trkpt><trkpt lat="44.79046221921868" lon="9.481643065499998"><ele>618.0</ele><time>2026-04-05T12:43:01.002Z</time></trkpt><trkpt lat="44.7905011613679" lon="9.481717494350848"><ele>618.0</ele><time>2026-04-05T12:43:02.002Z</time></trkpt><trkpt lat="44.79060694671786" lon="9.481819231541447"><ele>618.0</ele><time>2026-04-05T12:43:04.002Z</time></trkpt><trkpt lat="44.79068122651579" lon="9.48186898914495"><ele>618.0</ele><time>2026-04-05T12:43:05.002Z</time></trkpt><trkpt lat="44.790758571117905" lon="9.481902851408769"><ele>618.0</ele><time>2026-04-05T12:43:06.002Z</time></trkpt><trkpt lat="44.790847050687745" lon="9.481918900123079"><ele>618.0</ele><time>2026-04-05T12:43:07.002Z</time></trkpt><trkpt lat="44.790901180571" lon="9.4819644148888"><ele>618.0000000000001</ele><time>2026-04-05T12:43:08.002Z</time></trkpt><trkpt lat="44.79096241354501" lon="9.48201280563016"><ele>618.0</ele><time>2026-04-05T12:43:09.002Z</time></trkpt><trkpt lat="44.79102891982885" lon="9.482066989772234"><ele>618.0</ele><time>2026-04-05T12:43:10.002Z</time></trkpt><trkpt lat="44.79110428496271" lon="9.482059041983703"><ele>618.0</ele><time>2026-04-05T12:43:12.002Z</time></trkpt><trkpt lat="44.79117599538549" lon="9.482025988549983"><ele>618.0</ele><time>2026-04-05T12:43:15.002Z</time></trkpt><trkpt lat="44.79124195301599" lon="9.482048912309045"><ele>618.0000000000001</ele><time>2026-04-05T12:43:18.002Z</time></trkpt><trkpt lat="44.791310723591614" lon="9.482055042931053"><ele>618.0</ele><time>2026-04-05T12:43:21.002Z</time></trkpt><trkpt lat="44.79137343246392" lon="9.482083895762234"><ele>615.3333333333334</ele><time>2026-04-05T12:43:24.002Z</time></trkpt><trkpt lat="44.7914433860611" lon="9.482091853554094"><ele>612.6666666666666</ele><time>2026-04-05T12:44:15.002Z</time></trkpt><trkpt lat="44.79150165958384" lon="9.482136573104077"><ele>610.0</ele><time>2026-04-05T12:44:23.002Z</time></trkpt><trkpt lat="44.79156287081256" lon="9.48220393888077"><ele>607.3333333333333</ele><time>2026-04-05T12:44:25.002Z</time></trkpt><trkpt lat="44.791619737884815" lon="9.482245447782766"><ele>604.6666666666666</ele><time>2026-04-05T12:44:27.002Z</time></trkpt><trkpt lat="44.79171792399963" lon="9.482305030619136"><ele>602.0</ele><time>2026-04-05T12:44:30.002Z</time></trkpt><trkpt lat="44.791807537644786" lon="9.482337687603987"><ele>599.3333333333333</ele><time>2026-04-05T12:44:32.002Z</time></trkpt><trkpt lat="44.791844995710015" lon="9.482447025232867"><ele>596.6666666666666</ele><time>2026-04-05T12:44:34.002Z</time></trkpt><trkpt lat="44.79190924871014" lon="9.482563225920604"><ele>594.0</ele><time>2026-04-05T12:44:37.002Z</time></trkpt><trkpt lat="44.791945649574124" lon="9.482654623140448"><ele>591.3333333333334</ele><time>2026-04-05T12:44:40.002Z</time></trkpt><trkpt lat="44.792005580268" lon="9.48274089856076"><ele>588.6666666666667</ele><time>2026-04-05T12:44:43.002Z</time></trkpt><trkpt lat="44.79206152133921" lon="9.482826479040249"><ele>586.0</ele><time>2026-04-05T12:44:45.002Z</time></trkpt><trkpt lat="44.79210336496389" lon="9.482908933820518"><ele>584.0</ele><time>2026-04-05T12:44:48.002Z</time></trkpt><trkpt lat="44.792130166484846" lon="9.483002153775606"><ele>582.0</ele><time>2026-04-05T12:44:52.002Z</time></trkpt><trkpt lat="44.79209738970307" lon="9.483163548959126"><ele>580.0</ele><time>2026-04-05T12:44:56.002Z</time></trkpt><trkpt lat="44.7921018392003" lon="9.483281555372614"><ele>578.0</ele><time>2026-04-05T12:44:58.002Z</time></trkpt><trkpt lat="44.792128550409274" lon="9.483374768171107"><ele>576.0</ele><time>2026-04-05T12:45:00.002Z</time></trkpt><trkpt lat="44.79220709874111" lon="9.483517916388278"><ele>576.0</ele><time>2026-04-05T12:45:02.002Z</time></trkpt><trkpt lat="44.79225925267296" lon="9.483572803668427"><ele>576.0</ele><time>2026-04-05T12:45:03.002Z</time></trkpt><trkpt lat="44.79230901877424" lon="9.483638687493535"><ele>576.0</ele><time>2026-04-05T12:45:04.002Z</time></trkpt><trkpt lat="44.79235723967197" lon="9.483714897132344"><ele>576.0</ele><time>2026-04-05T12:45:05.002Z</time></trkpt><trkpt lat="44.79239372053074" lon="9.483792704669225"><ele>576.0</ele><time>2026-04-05T12:45:06.002Z</time></trkpt><trkpt lat="44.79241909788868" lon="9.483937915130834"><ele>576.0</ele><time>2026-04-05T12:45:08.002Z</time></trkpt><trkpt lat="44.79244967196502" lon="9.484099587349325"><ele>575.6666666666666</ele><time>2026-04-05T12:45:10.002Z</time></trkpt><trkpt lat="44.79247523217666" lon="9.484185325444095"><ele>575.3333333333334</ele><time>2026-04-05T12:45:11.002Z</time></trkpt><trkpt lat="44.79249499169668" lon="9.484356576386087"><ele>575.0</ele><time>2026-04-05T12:45:13.002Z</time></trkpt><trkpt lat="44.79251283064894" lon="9.484465141391956"><ele>574.6666666666667</ele><time>2026-04-05T12:45:15.002Z</time></trkpt><trkpt lat="44.79258971903894" lon="9.484457126809403"><ele>574.3333333333334</ele><time>2026-04-05T12:45:18.002Z</time></trkpt><trkpt lat="44.792675179099874" lon="9.484531265587904"><ele>574.0</ele><time>2026-04-05T12:45:25.002Z</time></trkpt><trkpt lat="44.79278861784876" lon="9.484617440393777"><ele>571.6666666666667</ele><time>2026-04-05T12:45:26.002Z</time></trkpt><trkpt lat="44.79284804504276" lon="9.4846667734726"><ele>569.3333333333334</ele><time>2026-04-05T12:45:27.002Z</time></trkpt><trkpt lat="44.792909979362406" lon="9.484726934593725"><ele>567.0</ele><time>2026-04-05T12:45:28.002Z</time></trkpt><trkpt lat="44.792972080355874" lon="9.4848045530322"><ele>564.6666666666666</ele><time>2026-04-05T12:45:29.002Z</time></trkpt><trkpt lat="44.793018544454426" lon="9.484900320710635"><ele>562.3333333333333</ele><time>2026-04-05T12:45:30.002Z</time></trkpt><trkpt lat="44.79306756346256" lon="9.484994224604797"><ele>560.0</ele><time>2026-04-05T12:45:31.002Z</time></trkpt><trkpt lat="44.79313883356076" lon="9.485055312280714"><ele>560.0</ele><time>2026-04-05T12:45:32.002Z</time></trkpt><trkpt lat="44.79324071167541" lon="9.485096344766314"><ele>560.0</ele><time>2026-04-05T12:45:33.002Z</time></trkpt><trkpt lat="44.79333224728795" lon="9.485124064453137"><ele>560.0</ele><time>2026-04-05T12:45:34.002Z</time></trkpt><trkpt lat="44.79341611236104" lon="9.485180393366958"><ele>560.0</ele><time>2026-04-05T12:45:35.002Z</time></trkpt><trkpt lat="44.79347706372869" lon="9.485287037725048"><ele>560.0</ele><time>2026-04-05T12:45:36.002Z</time></trkpt><trkpt lat="44.79354952405838" lon="9.485363820730194"><ele>558.5</ele><time>2026-04-05T12:45:37.002Z</time></trkpt><trkpt lat="44.79361256041252" lon="9.485452230889804"><ele>557.0</ele><time>2026-04-05T12:45:38.002Z</time></trkpt><trkpt lat="44.79366383173539" lon="9.485552067217341"><ele>555.5</ele><time>2026-04-05T12:45:39.002Z</time></trkpt><trkpt lat="44.79371649613284" lon="9.485655127721545"><ele>554.0</ele><time>2026-04-05T12:45:40.002Z</time></trkpt><trkpt lat="44.79381224689259" lon="9.485688710528237"><ele>552.5</ele><time>2026-04-05T12:45:41.002Z</time></trkpt><trkpt lat="44.79387842300979" lon="9.48573273629068"><ele>551.0</ele><time>2026-04-05T12:45:42.002Z</time></trkpt><trkpt lat="44.79394933743614" lon="9.485790022024844"><ele>551.0</ele><time>2026-04-05T12:45:43.002Z</time></trkpt><trkpt lat="44.79401050712649" lon="9.485868945811124"><ele>551.0</ele><time>2026-04-05T12:45:44.002Z</time></trkpt><trkpt lat="44.79408051714532" lon="9.485941911176939"><ele>551.0</ele><time>2026-04-05T12:45:45.002Z</time></trkpt><trkpt lat="44.794100824768655" lon="9.48606276485891"><ele>551.0</ele><time>2026-04-05T12:45:46.002Z</time></trkpt><trkpt lat="44.79415063543297" lon="9.486177616891075"><ele>551.0</ele><time>2026-04-05T12:45:47.002Z</time></trkpt><trkpt lat="44.79420114971348" lon="9.486302960777143"><ele>549.8</ele><time>2026-04-05T12:45:48.003Z</time></trkpt><trkpt lat="44.7942482572521" lon="9.48642646944686"><ele>548.6</ele><time>2026-04-05T12:45:49.003Z</time></trkpt><trkpt lat="44.794280602436714" lon="9.48652745052485"><ele>547.4</ele><time>2026-04-05T12:45:50.003Z</time></trkpt><trkpt lat="44.79431596071593" lon="9.486613499276467"><ele>546.2</ele><time>2026-04-05T12:45:51.003Z</time></trkpt><trkpt lat="44.79436967249311" lon="9.486702408749826"><ele>545.0</ele><time>2026-04-05T12:45:53.003Z</time></trkpt><trkpt lat="44.7942100944727" lon="9.486843742959104"><ele>547.8</ele><time>2026-04-05T12:45:58.003Z</time></trkpt><trkpt lat="44.794116300390165" lon="9.486913021645503"><ele>550.6</ele><time>2026-04-05T12:46:00.003Z</time></trkpt><trkpt lat="44.79398949421744" lon="9.486966728859674"><ele>553.4</ele><time>2026-04-05T12:46:02.003Z</time></trkpt><trkpt lat="44.79391989143721" lon="9.487000344619506"><ele>556.2</ele><time>2026-04-05T12:46:03.003Z</time></trkpt><trkpt lat="44.79385789423282" lon="9.487031417358198"><ele>559.0</ele><time>2026-04-05T12:46:04.003Z</time></trkpt><trkpt lat="44.79377453300089" lon="9.48706275644844"><ele>559.2</ele><time>2026-04-05T12:46:05.003Z</time></trkpt><trkpt lat="44.793670205722435" lon="9.487103203470815"><ele>559.4</ele><time>2026-04-05T12:46:06.003Z</time></trkpt><trkpt lat="44.79357740574941" lon="9.48715326983344"><ele>559.6</ele><time>2026-04-05T12:46:07.003Z</time></trkpt><trkpt lat="44.79348982739445" lon="9.487200037583023"><ele>559.8</ele><time>2026-04-05T12:46:08.003Z</time></trkpt><trkpt lat="44.79340485498962" lon="9.487233695164656"><ele>560.0</ele><time>2026-04-05T12:46:09.003Z</time></trkpt><trkpt lat="44.793334374726804" lon="9.48727193888865"><ele>563.1666666666666</ele><time>2026-04-05T12:46:10.003Z</time></trkpt><trkpt lat="44.79326839621254" lon="9.487320711701994"><ele>566.3333333333333</ele><time>2026-04-05T12:46:11.003Z</time></trkpt><trkpt lat="44.79319114781228" lon="9.487365044428145"><ele>569.5</ele><time>2026-04-05T12:46:12.003Z</time></trkpt><trkpt lat="44.79310758911934" lon="9.487415825922602"><ele>572.6666666666666</ele><time>2026-04-05T12:46:13.003Z</time></trkpt><trkpt lat="44.793032424303824" lon="9.487471329004535"><ele>575.8333333333334</ele><time>2026-04-05T12:46:14.003Z</time></trkpt><trkpt lat="44.79295234494839" lon="9.487534706438053"><ele>579.0</ele><time>2026-04-05T12:46:15.003Z</time></trkpt><trkpt lat="44.79286581184702" lon="9.48758551212239"><ele>579.0</ele><time>2026-04-05T12:46:16.003Z</time></trkpt><trkpt lat="44.79278659646259" lon="9.487605638400156"><ele>579.0</ele><time>2026-04-05T12:46:17.003Z</time></trkpt><trkpt lat="44.792708367609904" lon="9.487606199723944"><ele>579.0</ele><time>2026-04-05T12:46:18.003Z</time></trkpt><trkpt lat="44.7926246184746" lon="9.487596058889709"><ele>579.0</ele><time>2026-04-05T12:46:19.003Z</time></trkpt><trkpt lat="44.79254738236294" lon="9.487605309164426"><ele>579.0</ele><time>2026-04-05T12:46:20.003Z</time></trkpt><trkpt lat="44.79247262817556" lon="9.487636345622377"><ele>579.0</ele><time>2026-04-05T12:46:21.002Z</time></trkpt><trkpt lat="44.79240964362223" lon="9.487678609879604"><ele>582.2</ele><time>2026-04-05T12:46:22.002Z</time></trkpt><trkpt lat="44.79230471162827" lon="9.487718038485921"><ele>585.4</ele><time>2026-04-05T12:46:24.002Z</time></trkpt><trkpt lat="44.792237004077634" lon="9.487735324926778"><ele>588.6</ele><time>2026-04-05T12:46:26.002Z</time></trkpt><trkpt lat="44.792161427428795" lon="9.487716229396177"><ele>591.8</ele><time>2026-04-05T12:46:30.002Z</time></trkpt><trkpt lat="44.79207979780579" lon="9.487665885867683"><ele>595.0</ele><time>2026-04-05T12:46:32.002Z</time></trkpt><trkpt lat="44.79197686384248" lon="9.487621224793063"><ele>595.0</ele><time>2026-04-05T12:46:34.002Z</time></trkpt><trkpt lat="44.79189278868823" lon="9.487603525660655"><ele>595.0</ele><time>2026-04-05T12:46:36.002Z</time></trkpt><trkpt lat="44.791828762849505" lon="9.487719339157726"><ele>595.0</ele><time>2026-04-05T12:46:38.002Z</time></trkpt><trkpt lat="44.79175556739334" lon="9.487789093171074"><ele>595.0</ele><time>2026-04-05T12:46:40.002Z</time></trkpt><trkpt lat="44.79164394561261" lon="9.487851353641362"><ele>595.0</ele><time>2026-04-05T12:46:42.002Z</time></trkpt><trkpt lat="44.7915812868606" lon="9.487881100711217"><ele>597.8333333333334</ele><time>2026-04-05T12:46:43.002Z</time></trkpt><trkpt lat="44.791513304312716" lon="9.487905173733571"><ele>600.6666666666667</ele><time>2026-04-05T12:46:44.002Z</time></trkpt><trkpt lat="44.79143016593218" lon="9.487914542275023"><ele>603.5</ele><time>2026-04-05T12:46:45.002Z</time></trkpt><trkpt lat="44.791343256892965" lon="9.487914183018852"><ele>606.3333333333334</ele><time>2026-04-05T12:46:46.002Z</time></trkpt><trkpt lat="44.791261207968304" lon="9.487929846106232"><ele>609.1666666666666</ele><time>2026-04-05T12:46:47.002Z</time></trkpt><trkpt lat="44.79120135754161" lon="9.487963161632733"><ele>612.0</ele><time>2026-04-05T12:46:48.002Z</time></trkpt><trkpt lat="44.79115953338926" lon="9.488086081611998"><ele>614.1666666666666</ele><time>2026-04-05T12:46:50.002Z</time></trkpt><trkpt lat="44.7911678138798" lon="9.488215430787859"><ele>616.3333333333334</ele><time>2026-04-05T12:46:52.002Z</time></trkpt><trkpt lat="44.791205501408704" lon="9.488313776599817"><ele>618.5</ele><time>2026-04-05T12:46:54.002Z</time></trkpt><trkpt lat="44.79117586430977" lon="9.488428341380908"><ele>620.6666666666667</ele><time>2026-04-05T12:46:56.002Z</time></trkpt><trkpt lat="44.79112703323897" lon="9.488499870120298"><ele>622.8333333333334</ele><time>2026-04-05T12:46:58.002Z</time></trkpt><trkpt lat="44.79113134494882" lon="9.488621107788198"><ele>625.0</ele><time>2026-04-05T12:46:59.002Z</time></trkpt><trkpt lat="44.79109167832908" lon="9.48869387043277"><ele>627.2</ele><time>2026-04-05T12:47:00.002Z</time></trkpt><trkpt lat="44.7910395198625" lon="9.48876560279708"><ele>629.4</ele><time>2026-04-05T12:47:01.002Z</time></trkpt><trkpt lat="44.790990613911156" lon="9.488826738177254"><ele>631.6</ele><time>2026-04-05T12:47:02.002Z</time></trkpt><trkpt lat="44.790883822223776" lon="9.488884055066222"><ele>633.8</ele><time>2026-04-05T12:47:04.002Z</time></trkpt><trkpt lat="44.7907843982411" lon="9.488907441362302"><ele>636.0</ele><time>2026-04-05T12:47:06.002Z</time></trkpt><trkpt lat="44.79067797970022" lon="9.488927319982531"><ele>639.5</ele><time>2026-04-05T12:47:08.002Z</time></trkpt><trkpt lat="44.79061544573206" lon="9.488940221653516"><ele>643.0</ele><time>2026-04-05T12:47:09.002Z</time></trkpt><trkpt lat="44.79055027265318" lon="9.488967142638655"><ele>646.5</ele><time>2026-04-05T12:47:10.002Z</time></trkpt><trkpt lat="44.79048047186482" lon="9.489003024431309"><ele>650.0</ele><time>2026-04-05T12:47:11.002Z</time></trkpt><trkpt lat="44.79044248959213" lon="9.489113165025731"><ele>653.5</ele><time>2026-04-05T12:47:13.002Z</time></trkpt><trkpt lat="44.790483860999665" lon="9.489256680526726"><ele>657.0</ele><time>2026-04-05T12:47:15.002Z</time></trkpt><trkpt lat="44.790510516236715" lon="9.489375735110018"><ele>657.0</ele><time>2026-04-05T12:47:16.002Z</time></trkpt><trkpt lat="44.790535943540284" lon="9.489525294538694"><ele>657.0</ele><time>2026-04-05T12:47:17.002Z</time></trkpt><trkpt lat="44.79052536039263" lon="9.489665434128023"><ele>657.0</ele><time>2026-04-05T12:47:18.002Z</time></trkpt><trkpt lat="44.79051217306178" lon="9.489777359962364"><ele>657.0</ele><time>2026-04-05T12:47:19.002Z</time></trkpt><trkpt lat="44.79047817347748" lon="9.489860610949524"><ele>657.0</ele><time>2026-04-05T12:47:20.002Z</time></trkpt><trkpt lat="44.79044626280005" lon="9.489946432972648"><ele>657.0</ele><time>2026-04-05T12:52:48.001Z</time></trkpt><trkpt lat="44.79047299518895" lon="9.490038847008641"><ele>657.3333333333334</ele><time>2026-04-05T12:52:50.001Z</time></trkpt><trkpt lat="44.79052917226582" lon="9.490110351705248"><ele>657.6666666666666</ele><time>2026-04-05T12:52:51.001Z</time></trkpt><trkpt lat="44.79060481623062" lon="9.490183502841704"><ele>658.0</ele><time>2026-04-05T12:52:52.001Z</time></trkpt><trkpt lat="44.790681766273266" lon="9.490245108072731"><ele>658.3333333333333</ele><time>2026-04-05T12:52:53.001Z</time></trkpt><trkpt lat="44.790742947142284" lon="9.490337224589819"><ele>658.6666666666666</ele><time>2026-04-05T12:52:54.001Z</time></trkpt><trkpt lat="44.7908341989514" lon="9.490394038336778"><ele>659.0</ele><time>2026-04-05T12:52:55.001Z</time></trkpt><trkpt lat="44.790930689117864" lon="9.490434848019138"><ele>656.6</ele><time>2026-04-05T12:52:56.001Z</time></trkpt><trkpt lat="44.791032472173725" lon="9.49044656726041"><ele>654.2</ele><time>2026-04-05T12:52:57.001Z</time></trkpt><trkpt lat="44.79112640635431" lon="9.490461442260806"><ele>651.8000000000001</ele><time>2026-04-05T12:52:58.001Z</time></trkpt><trkpt lat="44.79121800198042" lon="9.490476428561859"><ele>649.4000000000001</ele><time>2026-04-05T12:52:59.001Z</time></trkpt><trkpt lat="44.79131991213069" lon="9.490465575335762"><ele>647.0</ele><time>2026-04-05T12:53:00.001Z</time></trkpt><trkpt lat="44.7914257405528" lon="9.49049465455117"><ele>647.0</ele><time>2026-04-05T12:53:01.001Z</time></trkpt><trkpt lat="44.791525311207145" lon="9.490521123280379"><ele>647.0</ele><time>2026-04-05T12:53:02.001Z</time></trkpt><trkpt lat="44.7916130126162" lon="9.490588687164687"><ele>647.0</ele><time>2026-04-05T12:53:03.001Z</time></trkpt><trkpt lat="44.791710693832655" lon="9.490618309241347"><ele>647.0</ele><time>2026-04-05T12:53:04.001Z</time></trkpt><trkpt lat="44.79182072443516" lon="9.49065174533966"><ele>647.0</ele><time>2026-04-05T12:53:05.001Z</time></trkpt><trkpt lat="44.79193129166331" lon="9.49068534450601"><ele>643.8000000000001</ele><time>2026-04-05T12:53:06.001Z</time></trkpt><trkpt lat="44.792038216656486" lon="9.490684864009713"><ele>640.6</ele><time>2026-04-05T12:53:07.001Z</time></trkpt><trkpt lat="44.79211723688414" lon="9.490742611844917"><ele>637.4000000000001</ele><time>2026-04-05T12:53:08.001Z</time></trkpt><trkpt lat="44.79216616258349" lon="9.490833298299027"><ele>634.2</ele><time>2026-04-05T12:53:09.001Z</time></trkpt><trkpt lat="44.7921744509179" lon="9.490942369084479"><ele>631.0</ele><time>2026-04-05T12:53:10.001Z</time></trkpt><trkpt lat="44.79215002943369" lon="9.491108567901033"><ele>631.0</ele><time>2026-04-05T12:53:12.001Z</time></trkpt><trkpt lat="44.79211771380457" lon="9.491217600261542"><ele>631.0</ele><time>2026-04-05T12:53:13.001Z</time></trkpt><trkpt lat="44.792083404812765" lon="9.49133557407107"><ele>631.0</ele><time>2026-04-05T12:53:14.001Z</time></trkpt><trkpt lat="44.792043885566365" lon="9.49145617856727"><ele>631.0</ele><time>2026-04-05T12:53:15.001Z</time></trkpt><trkpt lat="44.79200864351577" lon="9.491573526197419"><ele>631.0</ele><time>2026-04-05T12:53:16.001Z</time></trkpt><trkpt lat="44.79197071330189" lon="9.491675600879637"><ele>631.0</ele><time>2026-04-05T12:53:17.001Z</time></trkpt><trkpt lat="44.79188903616465" lon="9.491818415048396"><ele>630.4</ele><time>2026-04-05T12:53:19.001Z</time></trkpt><trkpt lat="44.79184750583107" lon="9.491919657387465"><ele>629.8</ele><time>2026-04-05T12:53:20.001Z</time></trkpt><trkpt lat="44.79180751593393" lon="9.492035436894497"><ele>629.1999999999999</ele><time>2026-04-05T12:53:21.001Z</time></trkpt><trkpt lat="44.79176974191849" lon="9.492160068913853"><ele>628.6</ele><time>2026-04-05T12:53:22.001Z</time></trkpt><trkpt lat="44.79173644550644" lon="9.492295816725802"><ele>628.0</ele><time>2026-04-05T12:53:23.001Z</time></trkpt><trkpt lat="44.79171158657955" lon="9.49239867871132"><ele>627.1666666666667</ele><time>2026-04-05T12:53:24.001Z</time></trkpt><trkpt lat="44.7916903304454" lon="9.492523698881202"><ele>626.3333333333334</ele><time>2026-04-05T12:53:26.001Z</time></trkpt><trkpt lat="44.79172715223925" lon="9.492645165085786"><ele>625.5</ele><time>2026-04-05T12:53:29.001Z</time></trkpt><trkpt lat="44.79175176823594" lon="9.492746565659093"><ele>624.6666666666666</ele><time>2026-04-05T12:53:31.001Z</time></trkpt><trkpt lat="44.79178195004373" lon="9.492863265103345"><ele>623.8333333333333</ele><time>2026-04-05T12:53:33.001Z</time></trkpt><trkpt lat="44.79180774747491" lon="9.492947468211394"><ele>623.0</ele><time>2026-04-05T12:53:34.001Z</time></trkpt><trkpt lat="44.79184245001594" lon="9.493036169828308"><ele>621.1666666666666</ele><time>2026-04-05T12:53:35.001Z</time></trkpt><trkpt lat="44.79188551814186" lon="9.493115276996077"><ele>619.3333333333333</ele><time>2026-04-05T12:53:36.001Z</time></trkpt><trkpt lat="44.79194128638526" lon="9.493179513721847"><ele>617.5</ele><time>2026-04-05T12:53:37.001Z</time></trkpt><trkpt lat="44.7920105434641" lon="9.49324654419383"><ele>615.6666666666666</ele><time>2026-04-05T12:53:38.001Z</time></trkpt><trkpt lat="44.79207203406726" lon="9.493306117937632"><ele>613.8333333333334</ele><time>2026-04-05T12:53:39.001Z</time></trkpt><trkpt lat="44.792141916244205" lon="9.49338255290727"><ele>612.0</ele><time>2026-04-05T12:53:40.001Z</time></trkpt><trkpt lat="44.792198265251244" lon="9.493458482520351"><ele>612.0</ele><time>2026-04-05T12:53:41.001Z</time></trkpt><trkpt lat="44.792255057014415" lon="9.493523690722325"><ele>612.0</ele><time>2026-04-05T12:53:42.001Z</time></trkpt><trkpt lat="44.79231730222821" lon="9.493586037865683"><ele>612.0</ele><time>2026-04-05T12:53:43.001Z</time></trkpt><trkpt lat="44.79237298950404" lon="9.493636583643035"><ele>612.0</ele><time>2026-04-05T12:53:44.001Z</time></trkpt><trkpt lat="44.792457068940806" lon="9.493756869138204"><ele>612.0</ele><time>2026-04-05T12:53:46.001Z</time></trkpt><trkpt lat="44.792498179567566" lon="9.493839593207891"><ele>612.0</ele><time>2026-04-05T12:53:47.001Z</time></trkpt><trkpt lat="44.79254711024797" lon="9.49390631951389"><ele>610.8571428571429</ele><time>2026-04-05T12:53:48.001Z</time></trkpt><trkpt lat="44.79259885071721" lon="9.49397525579096"><ele>609.7142857142858</ele><time>2026-04-05T12:53:49.001Z</time></trkpt><trkpt lat="44.792652570030256" lon="9.494046372395072"><ele>608.5714285714287</ele><time>2026-04-05T12:53:50.001Z</time></trkpt><trkpt lat="44.79269758918232" lon="9.494122792362878"><ele>607.4285714285714</ele><time>2026-04-05T12:53:51.001Z</time></trkpt><trkpt lat="44.7927319197099" lon="9.494220796720878"><ele>606.2857142857143</ele><time>2026-04-05T12:53:52.001Z</time></trkpt><trkpt lat="44.79275835396977" lon="9.494331268909162"><ele>605.1428571428572</ele><time>2026-04-05T12:53:53.001Z</time></trkpt><trkpt lat="44.792792510945475" lon="9.494421123135284"><ele>604.0</ele><time>2026-04-05T12:53:54.001Z</time></trkpt><trkpt lat="44.79282820604091" lon="9.49451145208807"><ele>601.5</ele><time>2026-04-05T12:53:55.001Z</time></trkpt><trkpt lat="44.792860703321125" lon="9.4946056965259"><ele>599.0</ele><time>2026-04-05T12:53:56.001Z</time></trkpt><trkpt lat="44.79289426691466" lon="9.494695670610662"><ele>596.5</ele><time>2026-04-05T12:53:57.001Z</time></trkpt><trkpt lat="44.79293333333614" lon="9.49478445530292"><ele>594.0</ele><time>2026-04-05T12:53:58.001Z</time></trkpt><trkpt lat="44.792981870798975" lon="9.494861992529177"><ele>591.5</ele><time>2026-04-05T12:53:59.001Z</time></trkpt><trkpt lat="44.79308478481259" lon="9.494951051557981"><ele>589.0</ele><time>2026-04-05T12:54:01.001Z</time></trkpt><trkpt lat="44.79317325147019" lon="9.495053335841769"><ele>589.0</ele><time>2026-04-05T12:54:03.001Z</time></trkpt><trkpt lat="44.79319979424866" lon="9.495145694431383"><ele>589.0</ele><time>2026-04-05T12:54:04.001Z</time></trkpt><trkpt lat="44.79322971661054" lon="9.495264392295429"><ele>589.0</ele><time>2026-04-05T12:54:05.001Z</time></trkpt><trkpt lat="44.79326249229304" lon="9.495372995898284"><ele>589.0</ele><time>2026-04-05T12:54:06.001Z</time></trkpt><trkpt lat="44.793302368005925" lon="9.495471693495467"><ele>589.0</ele><time>2026-04-05T12:54:07.001Z</time></trkpt><trkpt lat="44.793210459550146" lon="9.495707688090656"><ele>587.5</ele><time>2026-04-05T12:54:08.001Z</time></trkpt><trkpt lat="44.793252167471856" lon="9.495800363432723"><ele>586.0</ele><time>2026-04-05T12:54:09.001Z</time></trkpt><trkpt lat="44.79328700684078" lon="9.495889887045672"><ele>584.5</ele><time>2026-04-05T12:54:10.001Z</time></trkpt><trkpt lat="44.793319033748155" lon="9.49598622877607"><ele>583.0</ele><time>2026-04-05T12:54:11.001Z</time></trkpt><trkpt lat="44.793360674159835" lon="9.496111489604585"><ele>581.5</ele><time>2026-04-05T12:54:13.001Z</time></trkpt><trkpt lat="44.79340036254096" lon="9.496232814938566"><ele>580.0</ele><time>2026-04-05T12:54:15.001Z</time></trkpt><trkpt lat="44.79344279245289" lon="9.496328027745395"><ele>578.6</ele><time>2026-04-05T12:54:16.001Z</time></trkpt><trkpt lat="44.79346430759454" lon="9.496446819283776"><ele>577.2</ele><time>2026-04-05T12:54:17.001Z</time></trkpt><trkpt lat="44.79349854939283" lon="9.496557034367505"><ele>575.8</ele><time>2026-04-05T12:54:18.001Z</time></trkpt><trkpt lat="44.79354470346114" lon="9.496670486348089"><ele>574.4</ele><time>2026-04-05T12:54:19.001Z</time></trkpt><trkpt lat="44.7936255397512" lon="9.49677556228773"><ele>573.0</ele><time>2026-04-05T12:54:20.001Z</time></trkpt><trkpt lat="44.79372002926031" lon="9.496858016155764"><ele>572.1999999999999</ele><time>2026-04-05T12:54:21.001Z</time></trkpt><trkpt lat="44.79383252354648" lon="9.496898205133396"><ele>571.4</ele><time>2026-04-05T12:54:22.001Z</time></trkpt><trkpt lat="44.79392939803134" lon="9.496974532549133"><ele>570.5999999999999</ele><time>2026-04-05T12:54:23.001Z</time></trkpt><trkpt lat="44.794021814071414" lon="9.497044008578152"><ele>569.8</ele><time>2026-04-05T12:54:24.001Z</time></trkpt><trkpt lat="44.7941193677269" lon="9.497109951606689"><ele>569.0</ele><time>2026-04-05T12:54:25.001Z</time></trkpt><trkpt lat="44.79422534505363" lon="9.497168562071641"><ele>569.0</ele><time>2026-04-05T12:54:26.001Z</time></trkpt><trkpt lat="44.79433676101369" lon="9.497216662373445"><ele>569.0</ele><time>2026-04-05T12:54:27.001Z</time></trkpt><trkpt lat="44.79444290630893" lon="9.497263671140075"><ele>569.0</ele><time>2026-04-05T12:54:28.001Z</time></trkpt><trkpt lat="44.79454608931537" lon="9.497318302427427"><ele>569.0</ele><time>2026-04-05T12:54:29.001Z</time></trkpt><trkpt lat="44.79464581493862" lon="9.497383704904584"><ele>569.0</ele><time>2026-04-05T12:54:30.001Z</time></trkpt><trkpt lat="44.79474953896848" lon="9.497464466532666"><ele>569.0</ele><time>2026-04-05T12:54:31.001Z</time></trkpt><trkpt lat="44.79485220735051" lon="9.4975667752286"><ele>569.0</ele><time>2026-04-05T12:54:32.001Z</time></trkpt><trkpt lat="44.79494058408062" lon="9.497698760604228"><ele>569.0</ele><time>2026-04-05T12:54:33.001Z</time></trkpt><trkpt lat="44.795002969136235" lon="9.497852233913262"><ele>569.0</ele><time>2026-04-05T12:54:34.001Z</time></trkpt><trkpt lat="44.79503749422095" lon="9.498046068860399"><ele>570.25</ele><time>2026-04-05T12:54:35.001Z</time></trkpt><trkpt lat="44.79505522195569" lon="9.498258870527607"><ele>571.5</ele><time>2026-04-05T12:54:36.002Z</time></trkpt><trkpt lat="44.79507815733644" lon="9.498455048121546"><ele>572.75</ele><time>2026-04-05T12:54:37.002Z</time></trkpt><trkpt lat="44.795101851654564" lon="9.498626130194271"><ele>574.0</ele><time>2026-04-05T12:54:38.002Z</time></trkpt><trkpt lat="44.79511901878115" lon="9.498780274079408"><ele>574.0</ele><time>2026-04-05T12:54:39.002Z</time></trkpt><trkpt lat="44.795119335413496" lon="9.498938867066434"><ele>574.0</ele><time>2026-04-05T12:54:40.002Z</time></trkpt><trkpt lat="44.795188714526184" lon="9.499072352619097"><ele>574.0</ele><time>2026-04-05T12:54:41.002Z</time></trkpt><trkpt lat="44.795241725357165" lon="9.499210109220579"><ele>574.0</ele><time>2026-04-05T12:54:42.002Z</time></trkpt><trkpt lat="44.795340125564884" lon="9.499272596193654"><ele>574.0</ele><time>2026-04-05T12:54:43.002Z</time></trkpt><trkpt lat="44.79543298410833" lon="9.499338027693113"><ele>573.75</ele><time>2026-04-05T12:54:44.002Z</time></trkpt><trkpt lat="44.79544448868656" lon="9.499605379770564"><ele>573.5</ele><time>2026-04-05T12:54:45.001Z</time></trkpt><trkpt lat="44.79550027537052" lon="9.499693845143206"><ele>573.25</ele><time>2026-04-05T12:54:46.001Z</time></trkpt><trkpt lat="44.79556933729463" lon="9.499731484813603"><ele>573.0</ele><time>2026-04-05T12:54:47.001Z</time></trkpt><trkpt lat="44.79568655508361" lon="9.499417309951856"><ele>573.0</ele><time>2026-04-05T12:54:48.001Z</time></trkpt><trkpt lat="44.795790449827145" lon="9.500117700749243"><ele>573.0</ele><time>2026-04-05T12:54:53.001Z</time></trkpt><trkpt lat="44.795795097807584" lon="9.500208210104764"><ele>573.0</ele><time>2026-04-05T12:54:54.001Z</time></trkpt><trkpt lat="44.79580228815398" lon="9.500297938339276"><ele>573.0</ele><time>2026-04-05T12:54:55.001Z</time></trkpt><trkpt lat="44.79580889888759" lon="9.500391748203073"><ele>573.0</ele><time>2026-04-05T12:54:56.001Z</time></trkpt><trkpt lat="44.79580455648808" lon="9.500485495455145"><ele>573.0</ele><time>2026-04-05T12:54:57.001Z</time></trkpt><trkpt lat="44.79581253015814" lon="9.500666337517952"><ele>573.0</ele><time>2026-04-05T12:54:59.001Z</time></trkpt><trkpt lat="44.795816313700314" lon="9.500767688632328"><ele>569.8</ele><time>2026-04-05T12:55:00.001Z</time></trkpt><trkpt lat="44.79579751668627" lon="9.500880663089045"><ele>566.5999999999999</ele><time>2026-04-05T12:55:01.001Z</time></trkpt><trkpt lat="44.79576973231336" lon="9.500983186703666"><ele>563.4000000000001</ele><time>2026-04-05T12:55:02.001Z</time></trkpt><trkpt lat="44.79573214673718" lon="9.501137173555973"><ele>560.2</ele><time>2026-04-05T12:55:04.001Z</time></trkpt><trkpt lat="44.795705410173426" lon="9.501270027122029"><ele>557.0</ele><time>2026-04-05T12:55:06.001Z</time></trkpt><trkpt lat="44.79568025256165" lon="9.501421619102631"><ele>553.6</ele><time>2026-04-05T12:55:08.001Z</time></trkpt><trkpt lat="44.79567829125679" lon="9.50159251887059"><ele>550.2</ele><time>2026-04-05T12:55:10.001Z</time></trkpt><trkpt lat="44.79568736405239" lon="9.501694628510702"><ele>546.8</ele><time>2026-04-05T12:55:11.001Z</time></trkpt><trkpt lat="44.79571779317995" lon="9.501833155832863"><ele>543.4</ele><time>2026-04-05T12:55:13.001Z</time></trkpt><trkpt lat="44.795765132290235" lon="9.501944767786497"><ele>540.0</ele><time>2026-04-05T12:55:15.001Z</time></trkpt><trkpt lat="44.79581402960454" lon="9.50210327265749"><ele>536.8333333333334</ele><time>2026-04-05T12:55:17.001Z</time></trkpt><trkpt lat="44.795827672404634" lon="9.50219588547362"><ele>533.6666666666666</ele><time>2026-04-05T12:55:18.001Z</time></trkpt><trkpt lat="44.795828109753195" lon="9.50228562803023"><ele>530.5</ele><time>2026-04-05T12:55:19.001Z</time></trkpt><trkpt lat="44.79583128439673" lon="9.502387516123827"><ele>527.3333333333333</ele><time>2026-04-05T12:55:20.001Z</time></trkpt><trkpt lat="44.795831034613556" lon="9.502509547205111"><ele>524.1666666666666</ele><time>2026-04-05T12:55:21.001Z</time></trkpt><trkpt lat="44.7958381906227" lon="9.502634661558654"><ele>521.0</ele><time>2026-04-05T12:55:22.001Z</time></trkpt><trkpt lat="44.795853299018965" lon="9.50274610417719"><ele>521.0</ele><time>2026-04-05T12:55:23.001Z</time></trkpt><trkpt lat="44.79585728282044" lon="9.502849184178292"><ele>521.0</ele><time>2026-04-05T12:55:24.001Z</time></trkpt><trkpt lat="44.79585178738477" lon="9.502985629983224"><ele>521.0</ele><time>2026-04-05T12:55:26.001Z</time></trkpt><trkpt lat="44.795916215950164" lon="9.50307164527027"><ele>521.0</ele><time>2026-04-05T12:55:28.001Z</time></trkpt><trkpt lat="44.79601444992348" lon="9.503108453772889"><ele>521.0</ele><time>2026-04-05T12:55:30.001Z</time></trkpt><trkpt lat="44.79617527754606" lon="9.503131650040626"><ele>515.4</ele><time>2026-04-05T12:55:33.001Z</time></trkpt><trkpt lat="44.796296846358985" lon="9.503118976461952"><ele>509.8</ele><time>2026-04-05T12:55:35.001Z</time></trkpt><trkpt lat="44.796419697920435" lon="9.503122425554915"><ele>504.19999999999993</ele><time>2026-04-05T12:55:37.001Z</time></trkpt><trkpt lat="44.79654453598261" lon="9.503115834511638"><ele>498.59999999999997</ele><time>2026-04-05T12:55:39.001Z</time></trkpt><trkpt lat="44.79661516558523" lon="9.503125474385621"><ele>493.0</ele><time>2026-04-05T12:55:40.001Z</time></trkpt><trkpt lat="44.79668879794643" lon="9.503146208381988"><ele>493.00000000000006</ele><time>2026-04-05T12:55:41.001Z</time></trkpt><trkpt lat="44.79675206117963" lon="9.503168262520083"><ele>493.0</ele><time>2026-04-05T12:55:42.001Z</time></trkpt><trkpt lat="44.79681485574" lon="9.503183672379357"><ele>493.0</ele><time>2026-04-05T12:55:43.001Z</time></trkpt><trkpt lat="44.79690837055826" lon="9.503169789109421"><ele>493.0</ele><time>2026-04-05T12:55:45.001Z</time></trkpt><trkpt lat="44.79700126947695" lon="9.503125995088972"><ele>493.00000000000006</ele><time>2026-04-05T12:55:47.001Z</time></trkpt><trkpt lat="44.79707422738531" lon="9.503140662616314"><ele>493.0</ele><time>2026-04-05T12:55:49.001Z</time></trkpt><trkpt lat="44.79705762293845" lon="9.503226736898188"><ele>488.2</ele><time>2026-04-05T12:55:51.001Z</time></trkpt><trkpt lat="44.797063990439796" lon="9.50345056110861"><ele>483.4</ele><time>2026-04-05T12:55:53.001Z</time></trkpt><trkpt lat="44.79712272582141" lon="9.503562827014424"><ele>478.59999999999997</ele><time>2026-04-05T12:55:55.001Z</time></trkpt><trkpt lat="44.797195981087434" lon="9.503594994806207"><ele>473.79999999999995</ele><time>2026-04-05T12:55:56.001Z</time></trkpt><trkpt lat="44.7972150991" lon="9.50368609030059"><ele>469.0</ele><time>2026-04-05T12:55:57.001Z</time></trkpt><trkpt lat="44.797180016319835" lon="9.503804088219493"><ele>466.25</ele><time>2026-04-05T12:56:00.001Z</time></trkpt><trkpt lat="44.79711367744866" lon="9.50394586529201"><ele>463.5</ele><time>2026-04-05T12:56:02.001Z</time></trkpt><trkpt lat="44.79700800052254" lon="9.504254409215447"><ele>460.75</ele><time>2026-04-05T12:56:04.001Z</time></trkpt><trkpt lat="44.79699510349477" lon="9.504365962153194"><ele>458.0</ele><time>2026-04-05T12:56:05.001Z</time></trkpt><trkpt lat="44.79699225776109" lon="9.504496214013002"><ele>454.59999999999997</ele><time>2026-04-05T12:56:06.001Z</time></trkpt><trkpt lat="44.7969902623195" lon="9.50463073628874"><ele>451.19999999999993</ele><time>2026-04-05T12:56:07.001Z</time></trkpt><trkpt lat="44.79697984221088" lon="9.504750317955278"><ele>447.8</ele><time>2026-04-05T12:56:08.001Z</time></trkpt><trkpt lat="44.79695550892215" lon="9.504877617060641"><ele>444.4</ele><time>2026-04-05T12:56:09.001Z</time></trkpt><trkpt lat="44.79692818538729" lon="9.505007235205083"><ele>441.0</ele><time>2026-04-05T12:56:10.001Z</time></trkpt><trkpt lat="44.79690250205704" lon="9.505119158658863"><ele>441.0</ele><time>2026-04-05T12:56:11.001Z</time></trkpt><trkpt lat="44.79692061244722" lon="9.505250051129044"><ele>441.0</ele><time>2026-04-05T12:56:12.001Z</time></trkpt><trkpt lat="44.79689207847236" lon="9.505367156359362"><ele>441.0</ele><time>2026-04-05T12:56:13.001Z</time></trkpt><trkpt lat="44.79686363916511" lon="9.505494799467522"><ele>441.0</ele><time>2026-04-05T12:56:14.001Z</time></trkpt><trkpt lat="44.796821661629096" lon="9.505627250430795"><ele>441.0</ele><time>2026-04-05T12:56:15.001Z</time></trkpt><trkpt lat="44.79676923176124" lon="9.50574033975691"><ele>442.3333333333333</ele><time>2026-04-05T12:56:16.001Z</time></trkpt><trkpt lat="44.79672584186521" lon="9.505847921614349"><ele>443.66666666666663</ele><time>2026-04-05T12:56:17.001Z</time></trkpt><trkpt lat="44.79668839740969" lon="9.505943868684998"><ele>445.0</ele><time>2026-04-05T12:56:18.001Z</time></trkpt><trkpt lat="44.79665183219461" lon="9.506055204677986"><ele>446.3333333333333</ele><time>2026-04-05T12:56:19.001Z</time></trkpt><trkpt lat="44.79662854240463" lon="9.506168444768123"><ele>447.66666666666663</ele><time>2026-04-05T12:56:20.001Z</time></trkpt><trkpt lat="44.79664278674177" lon="9.506296208996135"><ele>449.0</ele><time>2026-04-05T12:56:22.001Z</time></trkpt><trkpt lat="44.796633944229356" lon="9.506424247523077"><ele>445.6</ele><time>2026-04-05T12:56:24.001Z</time></trkpt><trkpt lat="44.796755080008744" lon="9.506390782219144"><ele>442.2</ele><time>2026-04-05T12:56:31.001Z</time></trkpt><trkpt lat="44.79683088184162" lon="9.50625389576352"><ele>438.80000000000007</ele><time>2026-04-05T12:56:33.001Z</time></trkpt><trkpt lat="44.79688901595855" lon="9.506179567418057"><ele>435.40000000000003</ele><time>2026-04-05T12:56:34.001Z</time></trkpt><trkpt lat="44.79695825181223" lon="9.506106883598198"><ele>432.0</ele><time>2026-04-05T12:56:35.001Z</time></trkpt><trkpt lat="44.797030006077186" lon="9.506033670666119"><ele>431.20000000000005</ele><time>2026-04-05T12:56:36.001Z</time></trkpt><trkpt lat="44.7971185691613" lon="9.50597819629468"><ele>430.40000000000003</ele><time>2026-04-05T12:56:37.001Z</time></trkpt><trkpt lat="44.797206115850734" lon="9.50592619123088"><ele>429.59999999999997</ele><time>2026-04-05T12:56:38.001Z</time></trkpt><trkpt lat="44.79728672987281" lon="9.505869164128269"><ele>428.79999999999995</ele><time>2026-04-05T12:56:39.001Z</time></trkpt><trkpt lat="44.79736498912706" lon="9.505800455244067"><ele>428.0</ele><time>2026-04-05T12:56:40.001Z</time></trkpt><trkpt lat="44.797440390106615" lon="9.505735125943689"><ele>427.99999999999994</ele><time>2026-04-05T12:56:41.001Z</time></trkpt><trkpt lat="44.79751804161469" lon="9.505670921466711"><ele>428.0</ele><time>2026-04-05T12:56:42.001Z</time></trkpt><trkpt lat="44.797596279988014" lon="9.50559244135745"><ele>428.0</ele><time>2026-04-05T12:56:43.001Z</time></trkpt><trkpt lat="44.797678404589355" lon="9.505516109630701"><ele>428.0</ele><time>2026-04-05T12:56:44.001Z</time></trkpt><trkpt lat="44.797750975975376" lon="9.50544216220839"><ele>427.99999999999994</ele><time>2026-04-05T12:56:45.001Z</time></trkpt><trkpt lat="44.79778869083656" lon="9.505357825409583"><ele>428.0</ele><time>2026-04-05T12:56:46.001Z</time></trkpt><trkpt lat="44.797816004905364" lon="9.505241183647556"><ele>425.66666666666663</ele><time>2026-04-05T12:56:47.001Z</time></trkpt><trkpt lat="44.797860293394635" lon="9.505114331074703"><ele>423.3333333333333</ele><time>2026-04-05T12:56:48.001Z</time></trkpt><trkpt lat="44.79792288023428" lon="9.505003607912736"><ele>421.0</ele><time>2026-04-05T12:56:49.001Z</time></trkpt><trkpt lat="44.797981482849" lon="9.50490261189871"><ele>418.66666666666663</ele><time>2026-04-05T12:56:50.001Z</time></trkpt><trkpt lat="44.79802729431542" lon="9.50481012453595"><ele>416.3333333333333</ele><time>2026-04-05T12:56:51.001Z</time></trkpt><trkpt lat="44.79805631514543" lon="9.504712488375175"><ele>414.0</ele><time>2026-04-05T12:56:52.001Z</time></trkpt><trkpt lat="44.79809872694886" lon="9.504625385646513"><ele>414.0</ele><time>2026-04-05T12:56:53.001Z</time></trkpt><trkpt lat="44.798181914748135" lon="9.504583201774672"><ele>414.0</ele><time>2026-04-05T12:56:54.001Z</time></trkpt><trkpt lat="44.798267176774026" lon="9.504579204723987"><ele>414.0</ele><time>2026-04-05T12:56:55.001Z</time></trkpt><trkpt lat="44.798331182600386" lon="9.50457499774989"><ele>414.0</ele><time>2026-04-05T12:56:56.001Z</time></trkpt><trkpt lat="44.79841176926959" lon="9.504519032420776"><ele>414.0</ele><time>2026-04-05T12:56:57.001Z</time></trkpt><trkpt lat="44.798492074492444" lon="9.504453008065974"><ele>414.0</ele><time>2026-04-05T12:56:58.001Z</time></trkpt><trkpt lat="44.79855523066482" lon="9.504380315934402"><ele>415.3333333333333</ele><time>2026-04-05T12:56:59.001Z</time></trkpt><trkpt lat="44.79861003423118" lon="9.50430646916255"><ele>416.66666666666663</ele><time>2026-04-05T12:57:00.001Z</time></trkpt><trkpt lat="44.79867281851687" lon="9.504234601547926"><ele>418.0</ele><time>2026-04-05T12:57:01.001Z</time></trkpt><trkpt lat="44.798751053581015" lon="9.50415884805451"><ele>419.3333333333333</ele><time>2026-04-05T12:57:02.001Z</time></trkpt><trkpt lat="44.79882806560349" lon="9.504081291862649"><ele>420.66666666666663</ele><time>2026-04-05T12:57:03.001Z</time></trkpt><trkpt lat="44.79890476064262" lon="9.50401748947304"><ele>422.0</ele><time>2026-04-05T12:57:04.001Z</time></trkpt><trkpt lat="44.798981915622456" lon="9.503962941640273"><ele>421.99999999999994</ele><time>2026-04-05T12:57:05.001Z</time></trkpt><trkpt lat="44.79905867203791" lon="9.503918948489153"><ele>422.0</ele><time>2026-04-05T12:57:06.001Z</time></trkpt><trkpt lat="44.799137881807496" lon="9.503890756085703"><ele>422.0</ele><time>2026-04-05T12:57:07.001Z</time></trkpt><trkpt lat="44.79921944590388" lon="9.503868444289566"><ele>422.0</ele><time>2026-04-05T12:57:08.001Z</time></trkpt><trkpt lat="44.79929805063547" lon="9.503861345837786"><ele>421.99999999999994</ele><time>2026-04-05T12:57:09.001Z</time></trkpt><trkpt lat="44.79937213377329" lon="9.503843412230715"><ele>422.0</ele><time>2026-04-05T12:57:10.001Z</time></trkpt><trkpt lat="44.799439236375" lon="9.503805188153743"><ele>423.16666666666663</ele><time>2026-04-05T12:57:11.001Z</time></trkpt><trkpt lat="44.79950889108863" lon="9.503744084054556"><ele>424.3333333333333</ele><time>2026-04-05T12:57:12.001Z</time></trkpt><trkpt lat="44.7995818597265" lon="9.503669912777152"><ele>425.5</ele><time>2026-04-05T12:57:13.001Z</time></trkpt><trkpt lat="44.79965907469479" lon="9.503622537488717"><ele>426.66666666666663</ele><time>2026-04-05T12:57:14.001Z</time></trkpt><trkpt lat="44.79974900248863" lon="9.503600818785708"><ele>427.8333333333333</ele><time>2026-04-05T12:57:15.001Z</time></trkpt><trkpt lat="44.79984471960709" lon="9.503580080305985"><ele>429.0</ele><time>2026-04-05T12:57:16.001Z</time></trkpt><trkpt lat="44.79994027049247" lon="9.503562077868821"><ele>429.0</ele><time>2026-04-05T12:57:17.001Z</time></trkpt><trkpt lat="44.80003883375268" lon="9.50355145519915"><ele>429.0</ele><time>2026-04-05T12:57:18.001Z</time></trkpt><trkpt lat="44.80012694112722" lon="9.503539790625078"><ele>429.0</ele><time>2026-04-05T12:57:19.001Z</time></trkpt><trkpt lat="44.800199568730314" lon="9.503518084392676"><ele>429.0</ele><time>2026-04-05T12:57:20.001Z</time></trkpt><trkpt lat="44.80027857443122" lon="9.503398422450095"><ele>429.0</ele><time>2026-04-05T12:57:22.001Z</time></trkpt><trkpt lat="44.80029666782596" lon="9.503307078748813"><ele>429.0</ele><time>2026-04-05T12:57:23.001Z</time></trkpt><trkpt lat="44.80032067863419" lon="9.503168475341875"><ele>425.75</ele><time>2026-04-05T12:57:24.001Z</time></trkpt><trkpt lat="44.800345477556355" lon="9.502979415860471"><ele>422.5</ele><time>2026-04-05T12:57:25.001Z</time></trkpt><trkpt lat="44.80037960984492" lon="9.502761614775997"><ele>419.25</ele><time>2026-04-05T12:57:26.001Z</time></trkpt><trkpt lat="44.800418535700636" lon="9.50258297997745"><ele>416.0</ele><time>2026-04-05T12:57:27.001Z</time></trkpt><trkpt lat="44.80048275899682" lon="9.502423181690386"><ele>416.0</ele><time>2026-04-05T12:57:28.001Z</time></trkpt><trkpt lat="44.80051706238976" lon="9.50228405093651"><ele>416.0</ele><time>2026-04-05T12:57:29.001Z</time></trkpt><trkpt lat="44.80056113643191" lon="9.502174633223163"><ele>416.0</ele><time>2026-04-05T12:57:30.001Z</time></trkpt><trkpt lat="44.80063826011817" lon="9.502072967675574"><ele>416.0</ele><time>2026-04-05T12:57:31.001Z</time></trkpt><trkpt lat="44.80072644979716" lon="9.502015548483055"><ele>416.0</ele><time>2026-04-05T12:57:32.001Z</time></trkpt><trkpt lat="44.80082177861905" lon="9.50199141059367"><ele>417.0</ele><time>2026-04-05T12:57:33.001Z</time></trkpt><trkpt lat="44.800914908136654" lon="9.50200356476436"><ele>418.0</ele><time>2026-04-05T12:57:34.001Z</time></trkpt><trkpt lat="44.80101884389322" lon="9.502046293357479"><ele>419.0</ele><time>2026-04-05T12:57:35.001Z</time></trkpt><trkpt lat="44.80114394979207" lon="9.502084467631235"><ele>420.0</ele><time>2026-04-05T12:57:36.001Z</time></trkpt><trkpt lat="44.80128773784194" lon="9.502103490585423"><ele>420.0</ele><time>2026-04-05T12:57:37.001Z</time></trkpt><trkpt lat="44.80146113036127" lon="9.502106126731302"><ele>420.0</ele><time>2026-04-05T12:57:38.001Z</time></trkpt><trkpt lat="44.801631099514914" lon="9.502113121403506"><ele>420.0</ele><time>2026-04-05T12:57:39.001Z</time></trkpt><trkpt lat="44.8017604307327" lon="9.50213225040175"><ele>418.75</ele><time>2026-04-05T12:57:40.001Z</time></trkpt><trkpt lat="44.80186893111809" lon="9.502150075856557"><ele>417.5</ele><time>2026-04-05T12:57:41.001Z</time></trkpt><trkpt lat="44.80196943829858" lon="9.502160157762887"><ele>416.25</ele><time>2026-04-05T12:57:42.001Z</time></trkpt><trkpt lat="44.80209787581158" lon="9.502185609838735"><ele>415.0</ele><time>2026-04-05T12:57:43.001Z</time></trkpt><trkpt lat="44.80220931550433" lon="9.502216974862815"><ele>415.0</ele><time>2026-04-05T12:57:44.001Z</time></trkpt><trkpt lat="44.802307636176224" lon="9.502239465544276"><ele>415.0</ele><time>2026-04-05T12:57:45.001Z</time></trkpt><trkpt lat="44.802389385973946" lon="9.502241104105392"><ele>415.0</ele><time>2026-04-05T12:57:46.001Z</time></trkpt><trkpt lat="44.80246031369287" lon="9.5022058342549"><ele>415.0</ele><time>2026-04-05T12:57:47.001Z</time></trkpt><trkpt lat="44.8025613987431" lon="9.502139461262017"><ele>415.0</ele><time>2026-04-05T12:57:48.001Z</time></trkpt><trkpt lat="44.802701532341715" lon="9.502069141757866"><ele>418.5</ele><time>2026-04-05T12:57:49.001Z</time></trkpt><trkpt lat="44.80283896093621" lon="9.502011527362201"><ele>422.0</ele><time>2026-04-05T12:57:50.001Z</time></trkpt><trkpt lat="44.80295571753489" lon="9.501982383432484"><ele>425.5</ele><time>2026-04-05T12:57:51.001Z</time></trkpt><trkpt lat="44.80307809624498" lon="9.501961363801902"><ele>429.0</ele><time>2026-04-05T12:57:52.001Z</time></trkpt><trkpt lat="44.8032128191915" lon="9.501905159461051"><ele>429.0</ele><time>2026-04-05T12:57:53.001Z</time></trkpt><trkpt lat="44.80334999668876" lon="9.501913460171684"><ele>429.0</ele><time>2026-04-05T12:57:54.001Z</time></trkpt><trkpt lat="44.80344648246939" lon="9.501887169337252"><ele>429.0</ele><time>2026-04-05T12:57:55.001Z</time></trkpt><trkpt lat="44.80354946967234" lon="9.501821448766764"><ele>429.0</ele><time>2026-04-05T12:57:57.001Z</time></trkpt><trkpt lat="44.80360133599954" lon="9.501692265419663"><ele>428.5</ele><time>2026-04-05T12:57:58.001Z</time></trkpt><trkpt lat="44.80369094339032" lon="9.50160939465304"><ele>428.0</ele><time>2026-04-05T12:57:59.001Z</time></trkpt><trkpt lat="44.80379138372387" lon="9.501559733708664"><ele>427.5</ele><time>2026-04-05T12:58:00.001Z</time></trkpt><trkpt lat="44.80391784252077" lon="9.501565228316263"><ele>427.0</ele><time>2026-04-05T12:58:01.001Z</time></trkpt><trkpt lat="44.804065859217914" lon="9.501593887592145"><ele>427.0</ele><time>2026-04-05T12:58:02.001Z</time></trkpt><trkpt lat="44.804220258127785" lon="9.501591760946766"><ele>427.0</ele><time>2026-04-05T12:58:03.001Z</time></trkpt><trkpt lat="44.804366926960654" lon="9.50164418712257"><ele>427.0</ele><time>2026-04-05T12:58:04.001Z</time></trkpt><trkpt lat="44.80448699604065" lon="9.501685675966879"><ele>427.0</ele><time>2026-04-05T12:58:05.001Z</time></trkpt><trkpt lat="44.80456071623653" lon="9.501671462874606"><ele>426.5</ele><time>2026-04-05T12:58:06.001Z</time></trkpt><trkpt lat="44.804643026299" lon="9.501608875452119"><ele>426.0</ele><time>2026-04-05T12:58:07.001Z</time></trkpt><trkpt lat="44.804748695848836" lon="9.501552647298961"><ele>425.5</ele><time>2026-04-05T12:58:08.001Z</time></trkpt><trkpt lat="44.804867480913884" lon="9.501446799840242"><ele>425.0</ele><time>2026-04-05T12:58:09.001Z</time></trkpt><trkpt lat="44.8049658139695" lon="9.501363603040543"><ele>424.99999999999994</ele><time>2026-04-05T12:58:10.001Z</time></trkpt><trkpt lat="44.80502597949095" lon="9.501305251359614"><ele>425.0</ele><time>2026-04-05T12:58:11.001Z</time></trkpt><trkpt lat="44.80501362744974" lon="9.50119522763251"><ele>425.0</ele><time>2026-04-05T12:58:56.001Z</time></trkpt><trkpt lat="44.80504253049665" lon="9.501074696252465"><ele>425.0</ele><time>2026-04-05T13:00:28.001Z</time></trkpt><trkpt lat="44.80499246612784" lon="9.5011337698469"><ele>424.99999999999994</ele><time>2026-04-05T13:00:33.001Z</time></trkpt><trkpt lat="44.80502384603787" lon="9.501227481391378"><ele>425.0</ele><time>2026-04-05T13:00:36.001Z</time></trkpt><trkpt lat="44.805016285379736" lon="9.501349892619707"><ele>424.99999999999994</ele><time>2026-04-05T13:00:39.001Z</time></trkpt><trkpt lat="44.80494930669524" lon="9.501396921229258"><ele>425.0</ele><time>2026-04-05T13:00:41.001Z</time></trkpt><trkpt lat="44.80487565373532" lon="9.501425654556193"><ele>425.0</ele><time>2026-04-05T13:00:44.001Z</time></trkpt><trkpt lat="44.804948575251295" lon="9.501412701915031"><ele>425.0</ele><time>2026-04-05T13:00:55.001Z</time></trkpt><trkpt lat="44.80501944853306" lon="9.501352265765378"><ele>424.99999999999994</ele><time>2026-04-05T13:01:29.001Z</time></trkpt><trkpt lat="44.805031740360384" lon="9.501220959790144"><ele>425.0</ele><time>2026-04-05T13:01:31.001Z</time></trkpt><trkpt lat="44.80504180703412" lon="9.501113236504278"><ele>426.66666666666663</ele><time>2026-04-05T13:01:33.001Z</time></trkpt><trkpt lat="44.80503031064348" lon="9.501024330499574"><ele>428.3333333333333</ele><time>2026-04-05T13:01:43.001Z</time></trkpt><trkpt lat="44.80511595986727" lon="9.500898560787666"><ele>430.0</ele><time>2026-04-05T13:01:45.001Z</time></trkpt><trkpt lat="44.805200474411514" lon="9.500875743958876"><ele>431.66666666666663</ele><time>2026-04-05T13:01:46.001Z</time></trkpt><trkpt lat="44.80526947515103" lon="9.500856548870097"><ele>433.3333333333333</ele><time>2026-04-05T13:01:47.001Z</time></trkpt><trkpt lat="44.80533870079675" lon="9.50081654503213"><ele>435.0</ele><time>2026-04-05T13:01:48.001Z</time></trkpt><trkpt lat="44.80541917207566" lon="9.500773049965199"><ele>435.0</ele><time>2026-04-05T13:01:49.001Z</time></trkpt><trkpt lat="44.80547503327471" lon="9.500686736845514"><ele>435.0</ele><time>2026-04-05T13:01:50.001Z</time></trkpt><trkpt lat="44.80551439427359" lon="9.500564505216966"><ele>435.0</ele><time>2026-04-05T13:01:51.001Z</time></trkpt><trkpt lat="44.805574956229286" lon="9.500467878703322"><ele>435.0</ele><time>2026-04-05T13:01:52.001Z</time></trkpt><trkpt lat="44.805658483303" lon="9.500432472678979"><ele>435.0</ele><time>2026-04-05T13:01:53.001Z</time></trkpt><trkpt lat="44.80574225137731" lon="9.500450994839893"><ele>435.0</ele><time>2026-04-05T13:01:54.001Z</time></trkpt><trkpt lat="44.8058336076509" lon="9.500446045102322"><ele>435.0</ele><time>2026-04-05T13:01:56.001Z</time></trkpt><trkpt lat="44.805864329244315" lon="9.500579150147761"><ele>435.0</ele><time>2026-04-05T13:01:58.001Z</time></trkpt><trkpt lat="44.80592053144632" lon="9.500723052549212"><ele>435.0</ele><time>2026-04-05T13:02:00.001Z</time></trkpt><trkpt lat="44.80595551770974" lon="9.50081263276484"><ele>435.0</ele><time>2026-04-05T13:02:01.001Z</time></trkpt><trkpt lat="44.805989842011755" lon="9.500892261384873"><ele>435.0</ele><time>2026-04-05T13:02:02.001Z</time></trkpt><trkpt lat="44.80603274325353" lon="9.50098217534213"><ele>435.0</ele><time>2026-04-05T13:02:03.001Z</time></trkpt><trkpt lat="44.80609261924929" lon="9.50106726312799"><ele>434.25</ele><time>2026-04-05T13:02:04.001Z</time></trkpt><trkpt lat="44.80617051902829" lon="9.50113019070526"><ele>433.5</ele><time>2026-04-05T13:02:05.001Z</time></trkpt><trkpt lat="44.806269777889064" lon="9.501149809876319"><ele>432.75</ele><time>2026-04-05T13:02:06.001Z</time></trkpt><trkpt lat="44.80639112768723" lon="9.501037172272554"><ele>432.0</ele><time>2026-04-05T13:02:07.001Z</time></trkpt><trkpt lat="44.80650777043838" lon="9.500965925635821"><ele>432.0</ele><time>2026-04-05T13:02:08.001Z</time></trkpt><trkpt lat="44.806623857490365" lon="9.50090452447716"><ele>432.0</ele><time>2026-04-05T13:02:09.001Z</time></trkpt><trkpt lat="44.80674324475236" lon="9.500851242207386"><ele>432.0</ele><time>2026-04-05T13:02:10.001Z</time></trkpt><trkpt lat="44.80685641722294" lon="9.500814809516175"><ele>432.0</ele><time>2026-04-05T13:02:11.001Z</time></trkpt><trkpt lat="44.80697123784422" lon="9.50077577398311"><ele>431.6</ele><time>2026-04-05T13:02:12.001Z</time></trkpt><trkpt lat="44.80708009327224" lon="9.500736349393257"><ele>431.20000000000005</ele><time>2026-04-05T13:02:13.001Z</time></trkpt><trkpt lat="44.80717896121822" lon="9.500677781438322"><ele>430.8</ele><time>2026-04-05T13:02:14.001Z</time></trkpt><trkpt lat="44.80727747102287" lon="9.500638738402605"><ele>430.4</ele><time>2026-04-05T13:02:15.001Z</time></trkpt><trkpt lat="44.80737524590266" lon="9.50061606537557"><ele>430.0</ele><time>2026-04-05T13:02:16.001Z</time></trkpt><trkpt lat="44.807472050353304" lon="9.500611596509176"><ele>430.0</ele><time>2026-04-05T13:02:17.001Z</time></trkpt><trkpt lat="44.807578323088926" lon="9.500611492374398"><ele>430.0</ele><time>2026-04-05T13:02:18.001Z</time></trkpt><trkpt lat="44.80769251127836" lon="9.500606237924616"><ele>430.0</ele><time>2026-04-05T13:02:19.001Z</time></trkpt><trkpt lat="44.807798258518005" lon="9.500587307323114"><ele>430.0</ele><time>2026-04-05T13:02:20.001Z</time></trkpt><trkpt lat="44.807901242706514" lon="9.500547882146122"><ele>430.0</ele><time>2026-04-05T13:02:21.001Z</time></trkpt><trkpt lat="44.80800229851781" lon="9.500483018056814"><ele>427.0</ele><time>2026-04-05T13:02:22.001Z</time></trkpt><trkpt lat="44.808094489616245" lon="9.500399783671988"><ele>424.0</ele><time>2026-04-05T13:02:23.001Z</time></trkpt><trkpt lat="44.80818020978056" lon="9.500318865378167"><ele>421.0</ele><time>2026-04-05T13:02:24.001Z</time></trkpt><trkpt lat="44.80827192785874" lon="9.500275785518447"><ele>418.0</ele><time>2026-04-05T13:02:25.001Z</time></trkpt><trkpt lat="44.808371573693606" lon="9.500285177368484"><ele>415.0</ele><time>2026-04-05T13:02:26.001Z</time></trkpt><trkpt lat="44.80848129706716" lon="9.500352477045672"><ele>414.75</ele><time>2026-04-05T13:02:27.001Z</time></trkpt><trkpt lat="44.808589731962705" lon="9.50045195072347"><ele>414.5</ele><time>2026-04-05T13:02:28.001Z</time></trkpt><trkpt lat="44.80868031311063" lon="9.500558829754194"><ele>414.25</ele><time>2026-04-05T13:02:29.001Z</time></trkpt><trkpt lat="44.80874099781258" lon="9.500677964861508"><ele>414.0</ele><time>2026-04-05T13:02:30.001Z</time></trkpt><trkpt lat="44.808777113070974" lon="9.500812713454089"><ele>414.0</ele><time>2026-04-05T13:02:31.001Z</time></trkpt><trkpt lat="44.80880589518079" lon="9.500958276544559"><ele>414.0</ele><time>2026-04-05T13:02:32.001Z</time></trkpt><trkpt lat="44.80883757834196" lon="9.501105042501651"><ele>414.0</ele><time>2026-04-05T13:02:33.001Z</time></trkpt><trkpt lat="44.808875392335175" lon="9.501241026607605"><ele>414.0</ele><time>2026-04-05T13:02:34.001Z</time></trkpt><trkpt lat="44.8089201294549" lon="9.501357537474947"><ele>414.0</ele><time>2026-04-05T13:02:35.001Z</time></trkpt><trkpt lat="44.80898184823186" lon="9.501454693774033"><ele>412.79999999999995</ele><time>2026-04-05T13:02:36.001Z</time></trkpt><trkpt lat="44.809063531777916" lon="9.501535820876867"><ele>411.59999999999997</ele><time>2026-04-05T13:02:37.001Z</time></trkpt><trkpt lat="44.809169898362335" lon="9.501599513610477"><ele>410.4</ele><time>2026-04-05T13:02:38.001Z</time></trkpt><trkpt lat="44.80928064485217" lon="9.501635418815543"><ele>409.2</ele><time>2026-04-05T13:02:39.001Z</time></trkpt><trkpt lat="44.80939233561399" lon="9.501639174845913"><ele>408.0</ele><time>2026-04-05T13:02:40.001Z</time></trkpt><trkpt lat="44.80950718662605" lon="9.501584835636981"><ele>406.0</ele><time>2026-04-05T13:02:41.001Z</time></trkpt><trkpt lat="44.80963055734405" lon="9.5014838949255"><ele>404.0</ele><time>2026-04-05T13:02:42.001Z</time></trkpt><trkpt lat="44.809756400951535" lon="9.501370806192162"><ele>402.0</ele><time>2026-04-05T13:02:43.001Z</time></trkpt><trkpt lat="44.80987461646945" lon="9.501267169053186"><ele>400.0</ele><time>2026-04-05T13:02:44.001Z</time></trkpt><trkpt lat="44.80997811555125" lon="9.501147982300484"><ele>400.0</ele><time>2026-04-05T13:02:45.001Z</time></trkpt><trkpt lat="44.810074759232236" lon="9.501010629176532"><ele>400.0</ele><time>2026-04-05T13:02:46.001Z</time></trkpt><trkpt lat="44.81016779352736" lon="9.500873576527304"><ele>400.0</ele><time>2026-04-05T13:02:47.001Z</time></trkpt><trkpt lat="44.810260581309805" lon="9.50074325508993"><ele>400.0</ele><time>2026-04-05T13:02:48.001Z</time></trkpt><trkpt lat="44.810350668862355" lon="9.500627643588537"><ele>395.4</ele><time>2026-04-05T13:02:49.001Z</time></trkpt><trkpt lat="44.81042805677199" lon="9.500518600271459"><ele>390.8</ele><time>2026-04-05T13:02:50.001Z</time></trkpt><trkpt lat="44.81048038979346" lon="9.500392695132385"><ele>386.20000000000005</ele><time>2026-04-05T13:02:51.001Z</time></trkpt><trkpt lat="44.81049891793648" lon="9.500250187051336"><ele>381.6</ele><time>2026-04-05T13:02:52.001Z</time></trkpt><trkpt lat="44.81048586134651" lon="9.500116940946965"><ele>377.0</ele><time>2026-04-05T13:02:53.001Z</time></trkpt><trkpt lat="44.81048562307941" lon="9.500007275425702"><ele>377.0</ele><time>2026-04-05T13:02:54.001Z</time></trkpt><trkpt lat="44.81052936063855" lon="9.499932905628578"><ele>377.0</ele><time>2026-04-05T13:02:55.001Z</time></trkpt><trkpt lat="44.81062446829113" lon="9.499902091342024"><ele>377.0</ele><time>2026-04-05T13:02:56.001Z</time></trkpt><trkpt lat="44.81074148226553" lon="9.499940387417805"><ele>377.0</ele><time>2026-04-05T13:02:57.001Z</time></trkpt><trkpt lat="44.81085687787095" lon="9.500016775198299"><ele>377.0</ele><time>2026-04-05T13:02:58.001Z</time></trkpt><trkpt lat="44.810977821935225" lon="9.500075240583215"><ele>373.5</ele><time>2026-04-05T13:02:59.001Z</time></trkpt><trkpt lat="44.811099173443615" lon="9.500081411614708"><ele>370.0</ele><time>2026-04-05T13:03:00.001Z</time></trkpt><trkpt lat="44.811227050947" lon="9.500043186595917"><ele>366.5</ele><time>2026-04-05T13:03:01.001Z</time></trkpt><trkpt lat="44.81134611680998" lon="9.500015802680554"><ele>363.0</ele><time>2026-04-05T13:03:02.001Z</time></trkpt><trkpt lat="44.811489728630605" lon="9.499987055717352"><ele>363.0</ele><time>2026-04-05T13:03:03.001Z</time></trkpt><trkpt lat="44.811633557905495" lon="9.499965087187556"><ele>363.0</ele><time>2026-04-05T13:03:04.001Z</time></trkpt><trkpt lat="44.81177110120083" lon="9.49993582280127"><ele>363.0</ele><time>2026-04-05T13:03:05.001Z</time></trkpt><trkpt lat="44.811900979755464" lon="9.499878268792024"><ele>363.0</ele><time>2026-04-05T13:03:06.001Z</time></trkpt><trkpt lat="44.81202013603129" lon="9.499797570914396"><ele>360.25</ele><time>2026-04-05T13:03:07.001Z</time></trkpt><trkpt lat="44.812129302739734" lon="9.499714839860859"><ele>357.5</ele><time>2026-04-05T13:03:08.001Z</time></trkpt><trkpt lat="44.81223578396171" lon="9.49961802474279"><ele>354.75</ele><time>2026-04-05T13:03:09.001Z</time></trkpt><trkpt lat="44.81233548084961" lon="9.499507291947669"><ele>352.0</ele><time>2026-04-05T13:03:10.001Z</time></trkpt><trkpt lat="44.812435162159424" lon="9.49937673011617"><ele>352.0</ele><time>2026-04-05T13:03:11.001Z</time></trkpt><trkpt lat="44.81252939392215" lon="9.49923824967151"><ele>352.0</ele><time>2026-04-05T13:03:12.001Z</time></trkpt><trkpt lat="44.81262655063304" lon="9.499105244014968"><ele>352.0</ele><time>2026-04-05T13:03:13.001Z</time></trkpt><trkpt lat="44.812734492101065" lon="9.498994208497948"><ele>352.0</ele><time>2026-04-05T13:03:14.001Z</time></trkpt><trkpt lat="44.81285250182069" lon="9.498900383977535"><ele>349.25</ele><time>2026-04-05T13:03:15.001Z</time></trkpt><trkpt lat="44.81297525996027" lon="9.498826939941145"><ele>346.5</ele><time>2026-04-05T13:03:16.001Z</time></trkpt><trkpt lat="44.813098134639546" lon="9.498779014064592"><ele>343.75</ele><time>2026-04-05T13:03:17.001Z</time></trkpt><trkpt lat="44.81321880589527" lon="9.498746163842384"><ele>341.0</ele><time>2026-04-05T13:03:18.001Z</time></trkpt><trkpt lat="44.81334084340239" lon="9.498729441968278"><ele>341.0</ele><time>2026-04-05T13:03:19Z</time></trkpt><trkpt lat="44.81347687211791" lon="9.49872083864441"><ele>341.0</ele><time>2026-04-05T13:03:20Z</time></trkpt><trkpt lat="44.81363482995825" lon="9.498714563268033"><ele>341.0</ele><time>2026-04-05T13:03:21Z</time></trkpt><trkpt lat="44.81379315712966" lon="9.498699257554795"><ele>337.0</ele><time>2026-04-05T13:03:22Z</time></trkpt><trkpt lat="44.81394580228963" lon="9.498689381027196"><ele>333.0</ele><time>2026-04-05T13:03:23Z</time></trkpt><trkpt lat="44.81409543554539" lon="9.498690046539645"><ele>329.0</ele><time>2026-04-05T13:03:24Z</time></trkpt><trkpt lat="44.81424461785219" lon="9.498694602562482"><ele>326.75</ele><time>2026-04-05T13:03:25Z</time></trkpt><trkpt lat="44.8143890874512" lon="9.498704896718776"><ele>324.5</ele><time>2026-04-05T13:03:26Z</time></trkpt><trkpt lat="44.814530355899066" lon="9.498722046402936"><ele>322.25</ele><time>2026-04-05T13:03:27Z</time></trkpt><trkpt lat="44.81467252379445" lon="9.498747567658677"><ele>320.0</ele><time>2026-04-05T13:03:28Z</time></trkpt><trkpt lat="44.81481412097581" lon="9.498779344943122"><ele>320.0</ele><time>2026-04-05T13:03:29Z</time></trkpt><trkpt lat="44.81495853263886" lon="9.498811914151071"><ele>320.0</ele><time>2026-04-05T13:03:30Z</time></trkpt><trkpt lat="44.81509861513222" lon="9.498842195852781"><ele>320.0</ele><time>2026-04-05T13:03:31Z</time></trkpt><trkpt lat="44.815222008586055" lon="9.498869743420492"><ele>320.0</ele><time>2026-04-05T13:03:32Z</time></trkpt><trkpt lat="44.81532987469925" lon="9.498911511613187"><ele>316.75</ele><time>2026-04-05T13:03:33Z</time></trkpt><trkpt lat="44.815416455922396" lon="9.499003071807792"><ele>313.5</ele><time>2026-04-05T13:03:34Z</time></trkpt><trkpt lat="44.815478654386425" lon="9.499123554619715"><ele>310.25</ele><time>2026-04-05T13:03:35Z</time></trkpt><trkpt lat="44.81554967930316" lon="9.499274639889078"><ele>307.0</ele><time>2026-04-05T13:03:36Z</time></trkpt><trkpt lat="44.81562552279817" lon="9.499400710429082"><ele>307.0</ele><time>2026-04-05T13:03:37Z</time></trkpt><trkpt lat="44.815705260652564" lon="9.499488616045442"><ele>307.0</ele><time>2026-04-05T13:03:38Z</time></trkpt><trkpt lat="44.815800602523524" lon="9.499527458643183"><ele>307.0</ele><time>2026-04-05T13:03:39Z</time></trkpt><trkpt lat="44.815833015432965" lon="9.499660896889184"><ele>307.0</ele><time>2026-04-05T13:03:40Z</time></trkpt><trkpt lat="44.81589183034704" lon="9.499764016828678"><ele>307.0</ele><time>2026-04-05T13:03:41Z</time></trkpt><trkpt lat="44.815954851137086" lon="9.499838624423326"><ele>304.0</ele><time>2026-04-05T13:03:42Z</time></trkpt><trkpt lat="44.81607015089576" lon="9.499836870934443"><ele>301.0</ele><time>2026-04-05T13:03:43Z</time></trkpt><trkpt lat="44.816187057140965" lon="9.499893203030542"><ele>298.0</ele><time>2026-04-05T13:03:44Z</time></trkpt><trkpt lat="44.816286787098555" lon="9.499957062961402"><ele>295.0</ele><time>2026-04-05T13:03:45Z</time></trkpt><trkpt lat="44.81637548220865" lon="9.500056906823513"><ele>295.0</ele><time>2026-04-05T13:03:46Z</time></trkpt><trkpt lat="44.81646303481152" lon="9.500130556506614"><ele>295.0</ele><time>2026-04-05T13:03:47Z</time></trkpt><trkpt lat="44.816540903394944" lon="9.500182131205005"><ele>295.0</ele><time>2026-04-05T13:03:48.001Z</time></trkpt><trkpt lat="44.8166303419613" lon="9.500154672974988"><ele>295.0</ele><time>2026-04-05T13:03:49.001Z</time></trkpt><trkpt lat="44.81671663460694" lon="9.500050964921332"><ele>295.0</ele><time>2026-04-05T13:03:50.001Z</time></trkpt><trkpt lat="44.81682532083291" lon="9.49993416751884"><ele>291.0</ele><time>2026-04-05T13:03:51.001Z</time></trkpt><trkpt lat="44.81695281042584" lon="9.499875953893973"><ele>287.0</ele><time>2026-04-05T13:03:52.001Z</time></trkpt><trkpt lat="44.817042111381156" lon="9.499775235773992"><ele>283.0</ele><time>2026-04-05T13:03:53.001Z</time></trkpt><trkpt lat="44.81712612564095" lon="9.499715215751547"><ele>279.0</ele><time>2026-04-05T13:03:54.001Z</time></trkpt><trkpt lat="44.817212710733834" lon="9.499690888343688"><ele>275.0</ele><time>2026-04-05T13:03:55.001Z</time></trkpt><trkpt lat="44.81728912072597" lon="9.499692259643192"><ele>275.0</ele><time>2026-04-05T13:03:56.001Z</time></trkpt><trkpt lat="44.81740776773627" lon="9.499729016796394"><ele>275.0</ele><time>2026-04-05T13:03:57.001Z</time></trkpt><trkpt lat="44.81754461162736" lon="9.49976309121906"><ele>275.0</ele><time>2026-04-05T13:03:58.001Z</time></trkpt><trkpt lat="44.81767928094275" lon="9.499764548878485"><ele>275.0</ele><time>2026-04-05T13:03:59.001Z</time></trkpt><trkpt lat="44.81780747271917" lon="9.499802297196437"><ele>272.0</ele><time>2026-04-05T13:04:00.001Z</time></trkpt><trkpt lat="44.817928213615495" lon="9.499848035929338"><ele>269.0</ele><time>2026-04-05T13:04:01.001Z</time></trkpt><trkpt lat="44.81805484750723" lon="9.499895646706245"><ele>266.0</ele><time>2026-04-05T13:04:02.001Z</time></trkpt><trkpt lat="44.818175427642096" lon="9.499907626792796"><ele>263.0</ele><time>2026-04-05T13:04:03.001Z</time></trkpt><trkpt lat="44.81829164761113" lon="9.499902410502688"><ele>263.0</ele><time>2026-04-05T13:04:04.001Z</time></trkpt><trkpt lat="44.818395408600715" lon="9.49988723349096"><ele>263.0</ele><time>2026-04-05T13:04:05.001Z</time></trkpt><trkpt lat="44.81851282619805" lon="9.499872878114754"><ele>263.0</ele><time>2026-04-05T13:04:06.001Z</time></trkpt><trkpt lat="44.818639154500914" lon="9.499875051287528"><ele>263.0</ele><time>2026-04-05T13:04:07.001Z</time></trkpt><trkpt lat="44.81877233860762" lon="9.499896313221798"><ele>259.8</ele><time>2026-04-05T13:04:08.001Z</time></trkpt><trkpt lat="44.818879608465494" lon="9.49991797996713"><ele>256.6</ele><time>2026-04-05T13:04:09.001Z</time></trkpt><trkpt lat="44.81898961502663" lon="9.499998831715383"><ele>253.39999999999998</ele><time>2026-04-05T13:04:10.001Z</time></trkpt><trkpt lat="44.81908478322717" lon="9.500059586300711"><ele>250.2</ele><time>2026-04-05T13:04:11.001Z</time></trkpt><trkpt lat="44.81918102406737" lon="9.500076560538988"><ele>247.0</ele><time>2026-04-05T13:04:12.001Z</time></trkpt><trkpt lat="44.81925919007795" lon="9.500075545379076"><ele>243.8</ele><time>2026-04-05T13:04:13.001Z</time></trkpt><trkpt lat="44.819336644188326" lon="9.50003745656206"><ele>240.6</ele><time>2026-04-05T13:04:14.001Z</time></trkpt><trkpt lat="44.81942229214989" lon="9.500038550857694"><ele>237.40000000000003</ele><time>2026-04-05T13:04:16.001Z</time></trkpt><trkpt lat="44.81940015318985" lon="9.500210419469289"><ele>234.20000000000002</ele><time>2026-04-05T13:04:18.001Z</time></trkpt><trkpt lat="44.81931993087671" lon="9.50036466064784"><ele>231.0</ele><time>2026-04-05T13:04:19.001Z</time></trkpt><trkpt lat="44.81925892637049" lon="9.500500618066189"><ele>231.0</ele><time>2026-04-05T13:04:20.001Z</time></trkpt><trkpt lat="44.81921279175698" lon="9.500599306311512"><ele>231.00000000000003</ele><time>2026-04-05T13:04:21.001Z</time></trkpt><trkpt lat="44.81918984560288" lon="9.50076562175738"><ele>231.00000000000003</ele><time>2026-04-05T13:04:23.001Z</time></trkpt><trkpt lat="44.81922832511509" lon="9.500840670676777"><ele>231.0</ele><time>2026-04-05T13:04:24.001Z</time></trkpt><trkpt lat="44.81930809500772" lon="9.500910299606504"><ele>231.0</ele><time>2026-04-05T13:04:25.001Z</time></trkpt><trkpt lat="44.81938686920445" lon="9.501028901169107"><ele>226.5</ele><time>2026-04-05T13:04:26.001Z</time></trkpt><trkpt lat="44.81944524425408" lon="9.501158580856451"><ele>222.0</ele><time>2026-04-05T13:04:27.001Z</time></trkpt><trkpt lat="44.8195219677065" lon="9.501300969095151"><ele>217.5</ele><time>2026-04-05T13:04:28.001Z</time></trkpt><trkpt lat="44.81957769015747" lon="9.501400072878827"><ele>213.0</ele><time>2026-04-05T13:04:29.001Z</time></trkpt><trkpt lat="44.819659218815914" lon="9.501545074258072"><ele>211.60000000000002</ele><time>2026-04-05T13:04:31.001Z</time></trkpt><trkpt lat="44.819719316879464" lon="9.501652683514768"><ele>210.20000000000002</ele><time>2026-04-05T13:04:33.001Z</time></trkpt><trkpt lat="44.81967299228857" lon="9.501801279764706"><ele>208.8</ele><time>2026-04-05T13:04:36.001Z</time></trkpt><trkpt lat="44.81962040639034" lon="9.501917593014364"><ele>207.4</ele><time>2026-04-05T13:04:37.001Z</time></trkpt><trkpt lat="44.81959104534615" lon="9.502083322173776"><ele>206.0</ele><time>2026-04-05T13:04:38.001Z</time></trkpt><trkpt lat="44.819613798276414" lon="9.502250456266816"><ele>205.8</ele><time>2026-04-05T13:04:39.001Z</time></trkpt><trkpt lat="44.81965618895742" lon="9.502387235436519"><ele>205.60000000000002</ele><time>2026-04-05T13:04:40.001Z</time></trkpt><trkpt lat="44.81970619124079" lon="9.502511193138835"><ele>205.4</ele><time>2026-04-05T13:04:41.001Z</time></trkpt><trkpt lat="44.819761026644464" lon="9.50265321725594"><ele>205.2</ele><time>2026-04-05T13:04:42.001Z</time></trkpt><trkpt lat="44.8197902789757" lon="9.50282700766854"><ele>205.0</ele><time>2026-04-05T13:04:43.001Z</time></trkpt><trkpt lat="44.819844964105016" lon="9.50297640118011"><ele>204.8</ele><time>2026-04-05T13:04:44.001Z</time></trkpt><trkpt lat="44.81989459234402" lon="9.503113129823271"><ele>204.6</ele><time>2026-04-05T13:04:45.001Z</time></trkpt><trkpt lat="44.81994364604326" lon="9.503249783662087"><ele>204.39999999999998</ele><time>2026-04-05T13:04:46.001Z</time></trkpt><trkpt lat="44.8199916176697" lon="9.50338506266599"><ele>204.2</ele><time>2026-04-05T13:04:47.001Z</time></trkpt><trkpt lat="44.82003590501336" lon="9.503509952898076"><ele>204.0</ele><time>2026-04-05T13:04:48.001Z</time></trkpt><trkpt lat="44.820080295877155" lon="9.503638464240323"><ele>203.25</ele><time>2026-04-05T13:04:49.001Z</time></trkpt><trkpt lat="44.82013941042078" lon="9.503771049391426"><ele>202.5</ele><time>2026-04-05T13:04:50.001Z</time></trkpt><trkpt lat="44.820188615622484" lon="9.503919268230648"><ele>201.75</ele><time>2026-04-05T13:04:51.001Z</time></trkpt><trkpt lat="44.82024316264053" lon="9.504073431664255"><ele>201.0</ele><time>2026-04-05T13:04:52.001Z</time></trkpt><trkpt lat="44.820300638510375" lon="9.504229819434876"><ele>199.75</ele><time>2026-04-05T13:04:53.001Z</time></trkpt><trkpt lat="44.82035657189408" lon="9.50439869007861"><ele>198.5</ele><time>2026-04-05T13:04:54.001Z</time></trkpt><trkpt lat="44.82041502128303" lon="9.504579038051489"><ele>197.25</ele><time>2026-04-05T13:04:55.001Z</time></trkpt><trkpt lat="44.82048017639797" lon="9.50475724542646"><ele>196.0</ele><time>2026-04-05T13:04:56.001Z</time></trkpt><trkpt lat="44.8205424282291" lon="9.504921286685107"><ele>198.5</ele><time>2026-04-05T13:04:57.001Z</time></trkpt><trkpt lat="44.820606998452995" lon="9.505065325184436"><ele>201.0</ele><time>2026-04-05T13:04:58.001Z</time></trkpt><trkpt lat="44.82068269154089" lon="9.505181455839153"><ele>203.5</ele><time>2026-04-05T13:04:59.001Z</time></trkpt><trkpt lat="44.82077946162432" lon="9.5052698410548"><ele>206.0</ele><time>2026-04-05T13:05:00.001Z</time></trkpt><trkpt lat="44.820898959371156" lon="9.505334453097635"><ele>205.75</ele><time>2026-04-05T13:05:01.001Z</time></trkpt><trkpt lat="44.8210304560676" lon="9.505364980008746"><ele>205.5</ele><time>2026-04-05T13:05:02.001Z</time></trkpt><trkpt lat="44.82116654840466" lon="9.505367509946254"><ele>205.25</ele><time>2026-04-05T13:05:03.001Z</time></trkpt><trkpt lat="44.82130970746091" lon="9.505353333408115"><ele>205.0</ele><time>2026-04-05T13:05:04.001Z</time></trkpt><trkpt lat="44.82147682058648" lon="9.505329371485532"><ele>205.0</ele><time>2026-04-05T13:05:05.001Z</time></trkpt><trkpt lat="44.821652773944614" lon="9.505299622212004"><ele>205.0</ele><time>2026-04-05T13:05:06.001Z</time></trkpt><trkpt lat="44.821804158084085" lon="9.505302939707292"><ele>205.0</ele><time>2026-04-05T13:05:07.001Z</time></trkpt><trkpt lat="44.82194231228401" lon="9.505293094777569"><ele>205.75</ele><time>2026-04-05T13:05:08.001Z</time></trkpt><trkpt lat="44.82207699460613" lon="9.505296767839443"><ele>206.5</ele><time>2026-04-05T13:05:09.001Z</time></trkpt><trkpt lat="44.822195802076195" lon="9.505342257782388"><ele>207.25</ele><time>2026-04-05T13:05:10.001Z</time></trkpt><trkpt lat="44.82230602729954" lon="9.505439861443902"><ele>208.0</ele><time>2026-04-05T13:05:11.001Z</time></trkpt><trkpt lat="44.822416519506355" lon="9.505574188805575"><ele>208.0</ele><time>2026-04-05T13:05:12.001Z</time></trkpt><trkpt lat="44.82252856888782" lon="9.505752702918054"><ele>208.0</ele><time>2026-04-05T13:05:13.001Z</time></trkpt><trkpt lat="44.82263448810819" lon="9.505940078710006"><ele>208.0</ele><time>2026-04-05T13:05:14.001Z</time></trkpt><trkpt lat="44.82273950663906" lon="9.506110944873805"><ele>205.33333333333331</ele><time>2026-04-05T13:05:15Z</time></trkpt><trkpt lat="44.82283138788856" lon="9.50629802641487"><ele>202.66666666666669</ele><time>2026-04-05T13:05:16Z</time></trkpt><trkpt lat="44.8229307267486" lon="9.506483942670068"><ele>200.0</ele><time>2026-04-05T13:05:17Z</time></trkpt><trkpt lat="44.82303666532998" lon="9.506684150616811"><ele>200.0</ele><time>2026-04-05T13:05:18Z</time></trkpt><trkpt lat="44.82314936786994" lon="9.506893293157022"><ele>200.0</ele><time>2026-04-05T13:05:19Z</time></trkpt><trkpt lat="44.82325317695852" lon="9.507084543821964"><ele>200.0</ele><time>2026-04-05T13:05:20Z</time></trkpt><trkpt lat="44.82334260596633" lon="9.507254245424711"><ele>200.25</ele><time>2026-04-05T13:05:21Z</time></trkpt><trkpt lat="44.82342726264131" lon="9.507415741133299"><ele>200.5</ele><time>2026-04-05T13:05:22Z</time></trkpt><trkpt lat="44.82349860612344" lon="9.507573536554009"><ele>200.75</ele><time>2026-04-05T13:05:23Z</time></trkpt><trkpt lat="44.82359832771296" lon="9.507695648725099"><ele>201.0</ele><time>2026-04-05T13:05:24Z</time></trkpt><trkpt lat="44.82373630616303" lon="9.507759895461962"><ele>201.0</ele><time>2026-04-05T13:05:25Z</time></trkpt><trkpt lat="44.823890632392704" lon="9.50781074294527"><ele>201.0</ele><time>2026-04-05T13:05:26Z</time></trkpt><trkpt lat="44.82403961132643" lon="9.507852006548324"><ele>201.0</ele><time>2026-04-05T13:05:27Z</time></trkpt><trkpt lat="44.82417155177475" lon="9.507899934430235"><ele>201.0</ele><time>2026-04-05T13:05:28Z</time></trkpt><trkpt lat="44.82430116331399" lon="9.507962509676155"><ele>202.0</ele><time>2026-04-05T13:05:29Z</time></trkpt><trkpt lat="44.82442019563681" lon="9.508043445158785"><ele>203.0</ele><time>2026-04-05T13:05:30Z</time></trkpt><trkpt lat="44.82451193135029" lon="9.508178165713415"><ele>204.0</ele><time>2026-04-05T13:05:31Z</time></trkpt><trkpt lat="44.824616776265565" lon="9.508319496201288"><ele>205.0</ele><time>2026-04-05T13:05:32Z</time></trkpt><trkpt lat="44.82471154812865" lon="9.508493164907646"><ele>205.0</ele><time>2026-04-05T13:05:33Z</time></trkpt><trkpt lat="44.824814179242026" lon="9.508662368834944"><ele>205.0</ele><time>2026-04-05T13:05:34Z</time></trkpt><trkpt lat="44.82492287397777" lon="9.508825548428522"><ele>205.0</ele><time>2026-04-05T13:05:35Z</time></trkpt><trkpt lat="44.82503690838977" lon="9.509000677387924"><ele>206.0</ele><time>2026-04-05T13:05:36Z</time></trkpt><trkpt lat="44.82514266054396" lon="9.509170773903705"><ele>207.0</ele><time>2026-04-05T13:05:37Z</time></trkpt><trkpt lat="44.825233914194996" lon="9.509329993211693"><ele>208.0</ele><time>2026-04-05T13:05:38Z</time></trkpt><trkpt lat="44.8253033915736" lon="9.50948441733218"><ele>209.0</ele><time>2026-04-05T13:05:39Z</time></trkpt><trkpt lat="44.825348412208164" lon="9.509628778618941"><ele>206.75</ele><time>2026-04-05T13:05:40Z</time></trkpt><trkpt lat="44.82535906993402" lon="9.509775678687545"><ele>204.5</ele><time>2026-04-05T13:05:41Z</time></trkpt><trkpt lat="44.825312462453304" lon="9.509946095852378"><ele>202.25</ele><time>2026-04-05T13:05:42Z</time></trkpt><trkpt lat="44.82526284798825" lon="9.51014115740021"><ele>200.0</ele><time>2026-04-05T13:05:43Z</time></trkpt><trkpt lat="44.825225338230595" lon="9.51031557820805"><ele>202.0</ele><time>2026-04-05T13:05:44Z</time></trkpt><trkpt lat="44.82521967536573" lon="9.510442163553645"><ele>204.0</ele><time>2026-04-05T13:05:45Z</time></trkpt><trkpt lat="44.82526907614631" lon="9.510558294202697"><ele>206.0</ele><time>2026-04-05T13:05:46Z</time></trkpt><trkpt lat="44.825363197782714" lon="9.51068042130311"><ele>208.0</ele><time>2026-04-05T13:05:47Z</time></trkpt><trkpt lat="44.82548465312349" lon="9.510817359616356"><ele>208.0</ele><time>2026-04-05T13:05:48Z</time></trkpt><trkpt lat="44.82562034153781" lon="9.51096828836314"><ele>208.0</ele><time>2026-04-05T13:05:49Z</time></trkpt><trkpt lat="44.82578650076457" lon="9.511106709580456"><ele>208.0</ele><time>2026-04-05T13:05:50Z</time></trkpt><trkpt lat="44.825983447710264" lon="9.51124228676998"><ele>210.0</ele><time>2026-04-05T13:05:51Z</time></trkpt><trkpt lat="44.8261790443638" lon="9.511404311086388"><ele>212.0</ele><time>2026-04-05T13:05:52Z</time></trkpt><trkpt lat="44.82636268099368" lon="9.51151329063672"><ele>214.0</ele><time>2026-04-05T13:05:53Z</time></trkpt><trkpt lat="44.82652492909572" lon="9.511628585736116"><ele>214.0</ele><time>2026-04-05T13:05:54Z</time></trkpt><trkpt lat="44.82667753492189" lon="9.511734462585375"><ele>214.0</ele><time>2026-04-05T13:05:55Z</time></trkpt><trkpt lat="44.82682420823044" lon="9.511841385022121"><ele>214.0</ele><time>2026-04-05T13:05:56Z</time></trkpt><trkpt lat="44.82696160781735" lon="9.511937100661303"><ele>214.25</ele><time>2026-04-05T13:05:57Z</time></trkpt><trkpt lat="44.82709161844799" lon="9.512030159756414"><ele>214.5</ele><time>2026-04-05T13:05:58Z</time></trkpt><trkpt lat="44.82721540102905" lon="9.512133128768706"><ele>214.75</ele><time>2026-04-05T13:05:59Z</time></trkpt><trkpt lat="44.82731916220248" lon="9.512256166955725"><ele>215.0</ele><time>2026-04-05T13:06:00Z</time></trkpt><trkpt lat="44.82741093242868" lon="9.51240956168856"><ele>215.0</ele><time>2026-04-05T13:06:01Z</time></trkpt><trkpt lat="44.82747375390793" lon="9.512600315974925"><ele>215.0</ele><time>2026-04-05T13:06:02Z</time></trkpt><trkpt lat="44.827535953928624" lon="9.512795408966769"><ele>215.0</ele><time>2026-04-05T13:06:03Z</time></trkpt><trkpt lat="44.82759570240779" lon="9.512993454778558"><ele>210.66666666666669</ele><time>2026-04-05T13:06:04Z</time></trkpt><trkpt lat="44.8276697557146" lon="9.5131781974412"><ele>206.33333333333331</ele><time>2026-04-05T13:06:05Z</time></trkpt><trkpt lat="44.8277389815357" lon="9.513373851260784"><ele>202.0</ele><time>2026-04-05T13:06:06.001Z</time></trkpt><trkpt lat="44.8278297033755" lon="9.513558755097494"><ele>202.0</ele><time>2026-04-05T13:06:07.001Z</time></trkpt><trkpt lat="44.82795356514486" lon="9.513732983852242"><ele>202.0</ele><time>2026-04-05T13:06:08.001Z</time></trkpt><trkpt lat="44.8281194891655" lon="9.513912746350805"><ele>202.0</ele><time>2026-04-05T13:06:09.001Z</time></trkpt><trkpt lat="44.828303806897296" lon="9.514111049327989"><ele>199.66666666666666</ele><time>2026-04-05T13:06:10.001Z</time></trkpt><trkpt lat="44.82847523172047" lon="9.51431303950157"><ele>197.33333333333331</ele><time>2026-04-05T13:06:11.001Z</time></trkpt><trkpt lat="44.828625540736546" lon="9.514489355473922"><ele>195.0</ele><time>2026-04-05T13:06:12.001Z</time></trkpt><trkpt lat="44.82876510180959" lon="9.514654807209777"><ele>200.0</ele><time>2026-04-05T13:06:13.001Z</time></trkpt><trkpt lat="44.82890868822141" lon="9.514821309801327"><ele>205.0</ele><time>2026-04-05T13:06:14.001Z</time></trkpt><trkpt lat="44.829053325769735" lon="9.514986286176315"><ele>210.0</ele><time>2026-04-05T13:06:15.001Z</time></trkpt><trkpt lat="44.829203075714155" lon="9.515140496482227"><ele>209.0</ele><time>2026-04-05T13:06:16.001Z</time></trkpt><trkpt lat="44.82937405978567" lon="9.515295833256586"><ele>208.0</ele><time>2026-04-05T13:06:17.001Z</time></trkpt><trkpt lat="44.82956079598813" lon="9.515446212543058"><ele>207.0</ele><time>2026-04-05T13:06:18.001Z</time></trkpt><trkpt lat="44.82970467383796" lon="9.515569953695792"><ele>207.0</ele><time>2026-04-05T13:06:19.001Z</time></trkpt><trkpt lat="44.82982770490983" lon="9.51568113000012"><ele>207.0</ele><time>2026-04-05T13:06:20.001Z</time></trkpt><trkpt lat="44.829937766800654" lon="9.515783694898124"><ele>207.0</ele><time>2026-04-05T13:06:21.001Z</time></trkpt><trkpt lat="44.830041864144285" lon="9.515888650239935"><ele>207.0</ele><time>2026-04-05T13:06:22.001Z</time></trkpt><trkpt lat="44.83012450360636" lon="9.516022643969238"><ele>206.6</ele><time>2026-04-05T13:06:23.001Z</time></trkpt><trkpt lat="44.83023055503729" lon="9.516107518488928"><ele>206.2</ele><time>2026-04-05T13:06:24.001Z</time></trkpt><trkpt lat="44.83032999514123" lon="9.51618534075442"><ele>205.8</ele><time>2026-04-05T13:06:25.001Z</time></trkpt><trkpt lat="44.83042949383152" lon="9.516246610828368"><ele>205.4</ele><time>2026-04-05T13:06:26.001Z</time></trkpt><trkpt lat="44.830510927654494" lon="9.516273135261105"><ele>205.0</ele><time>2026-04-05T13:06:27.001Z</time></trkpt><trkpt lat="44.830602044558574" lon="9.516262982631837"><ele>205.0</ele><time>2026-04-05T13:06:28.001Z</time></trkpt><trkpt lat="44.83068293326159" lon="9.516287624711701"><ele>205.0</ele><time>2026-04-05T13:06:29.001Z</time></trkpt><trkpt lat="44.83073959560084" lon="9.516387434173918"><ele>205.0</ele><time>2026-04-05T13:06:30.001Z</time></trkpt><trkpt lat="44.83077930780401" lon="9.516528732693633"><ele>205.0</ele><time>2026-04-05T13:06:31.001Z</time></trkpt><trkpt lat="44.83080965752297" lon="9.516701885158753"><ele>205.0</ele><time>2026-04-05T13:06:32.001Z</time></trkpt><trkpt lat="44.83083504937483" lon="9.51690537086021"><ele>205.25</ele><time>2026-04-05T13:06:33.001Z</time></trkpt><trkpt lat="44.830855199655986" lon="9.51709087793511"><ele>205.5</ele><time>2026-04-05T13:06:34.001Z</time></trkpt><trkpt lat="44.83084749361316" lon="9.517259073587876"><ele>205.75</ele><time>2026-04-05T13:06:35.001Z</time></trkpt><trkpt lat="44.83080516189446" lon="9.517419964568795"><ele>206.0</ele><time>2026-04-05T13:06:36.001Z</time></trkpt><trkpt lat="44.83073393089246" lon="9.517593804661631"><ele>206.0</ele><time>2026-04-05T13:06:37.001Z</time></trkpt><trkpt lat="44.83065480518582" lon="9.517772794340146"><ele>206.0</ele><time>2026-04-05T13:06:38.001Z</time></trkpt><trkpt lat="44.83058875015598" lon="9.517950080253406"><ele>206.0</ele><time>2026-04-05T13:06:39.001Z</time></trkpt><trkpt lat="44.83053253459252" lon="9.518124512245059"><ele>206.0</ele><time>2026-04-05T13:06:40.001Z</time></trkpt><trkpt lat="44.83049410320501" lon="9.51829899474238"><ele>205.0</ele><time>2026-04-05T13:06:41.001Z</time></trkpt><trkpt lat="44.830489418339894" lon="9.518460029182854"><ele>204.0</ele><time>2026-04-05T13:06:42.001Z</time></trkpt><trkpt lat="44.8305218755766" lon="9.518605100618078"><ele>203.0</ele><time>2026-04-05T13:06:43.001Z</time></trkpt><trkpt lat="44.830585897200876" lon="9.51874351154791"><ele>202.0</ele><time>2026-04-05T13:06:44.001Z</time></trkpt><trkpt lat="44.8306840576926" lon="9.518885545936019"><ele>202.0</ele><time>2026-04-05T13:06:45.001Z</time></trkpt><trkpt lat="44.83079385224728" lon="9.519034662768028"><ele>202.0</ele><time>2026-04-05T13:06:46.001Z</time></trkpt><trkpt lat="44.83088907532532" lon="9.519172264387176"><ele>202.0</ele><time>2026-04-05T13:06:47.001Z</time></trkpt><trkpt lat="44.83098727549204" lon="9.5193156812876"><ele>202.0</ele><time>2026-04-05T13:06:48.001Z</time></trkpt><trkpt lat="44.83108284031202" lon="9.519465137454155"><ele>202.75</ele><time>2026-04-05T13:06:49.001Z</time></trkpt><trkpt lat="44.83117461466791" lon="9.519614267488786"><ele>203.5</ele><time>2026-04-05T13:06:50.001Z</time></trkpt><trkpt lat="44.83126127071408" lon="9.51973973009818"><ele>204.25</ele><time>2026-04-05T13:06:51.001Z</time></trkpt><trkpt lat="44.83134358751671" lon="9.519857204369641"><ele>205.0</ele><time>2026-04-05T13:06:52.001Z</time></trkpt><trkpt lat="44.831429616070366" lon="9.51996554848135"><ele>205.0</ele><time>2026-04-05T13:06:53.001Z</time></trkpt><trkpt lat="44.83152842713708" lon="9.520061111420144"><ele>205.0</ele><time>2026-04-05T13:06:54.001Z</time></trkpt><trkpt lat="44.83164357275554" lon="9.520133207572675"><ele>205.0</ele><time>2026-04-05T13:06:55.001Z</time></trkpt><trkpt lat="44.83176915643808" lon="9.520171416643736"><ele>205.0</ele><time>2026-04-05T13:06:56.001Z</time></trkpt><trkpt lat="44.83190015248359" lon="9.520166908564693"><ele>206.0</ele><time>2026-04-05T13:06:57.001Z</time></trkpt><trkpt lat="44.8320410982629" lon="9.520120412953439"><ele>207.0</ele><time>2026-04-05T13:06:58.001Z</time></trkpt><trkpt lat="44.83217840101211" lon="9.520057331402056"><ele>208.0</ele><time>2026-04-05T13:06:59.001Z</time></trkpt><trkpt lat="44.83230020953719" lon="9.51999954752151"><ele>209.0</ele><time>2026-04-05T13:07:00.001Z</time></trkpt><trkpt lat="44.832426647948644" lon="9.51994203748559"><ele>209.0</ele><time>2026-04-05T13:07:01.001Z</time></trkpt><trkpt lat="44.83256063601208" lon="9.51987148341652"><ele>209.0</ele><time>2026-04-05T13:07:02.001Z</time></trkpt><trkpt lat="44.832691161244085" lon="9.5197996267353"><ele>209.0</ele><time>2026-04-05T13:07:03.001Z</time></trkpt><trkpt lat="44.83280417047119" lon="9.519744653752126"><ele>209.0</ele><time>2026-04-05T13:07:04.001Z</time></trkpt><trkpt lat="44.832914919821036" lon="9.519699148386216"><ele>209.75</ele><time>2026-04-05T13:07:05.001Z</time></trkpt><trkpt lat="44.833039834506245" lon="9.519655618800861"><ele>210.5</ele><time>2026-04-05T13:07:06.001Z</time></trkpt><trkpt lat="44.83317142907393" lon="9.51962640569097"><ele>211.25</ele><time>2026-04-05T13:07:07.001Z</time></trkpt><trkpt lat="44.83329774486499" lon="9.519615150241046"><ele>212.0</ele><time>2026-04-05T13:07:08.001Z</time></trkpt><trkpt lat="44.83342768975807" lon="9.519634447136108"><ele>210.75</ele><time>2026-04-05T13:07:09.001Z</time></trkpt><trkpt lat="44.83355056763831" lon="9.519689531750464"><ele>209.5</ele><time>2026-04-05T13:07:10.001Z</time></trkpt><trkpt lat="44.833667205966314" lon="9.519763608964086"><ele>208.25</ele><time>2026-04-05T13:07:11.001Z</time></trkpt><trkpt lat="44.833789207642226" lon="9.519842664990458"><ele>207.0</ele><time>2026-04-05T13:07:12.001Z</time></trkpt><trkpt lat="44.833930092960834" lon="9.519955226153558"><ele>207.0</ele><time>2026-04-05T13:07:13.001Z</time></trkpt><trkpt lat="44.83407323624885" lon="9.52009178334301"><ele>207.0</ele><time>2026-04-05T13:07:14.001Z</time></trkpt><trkpt lat="44.83419140526378" lon="9.520218682724689"><ele>207.0</ele><time>2026-04-05T13:07:15.001Z</time></trkpt><trkpt lat="44.8343047583988" lon="9.520323023596246"><ele>208.25</ele><time>2026-04-05T13:07:16.001Z</time></trkpt><trkpt lat="44.834425130877136" lon="9.52037858711815"><ele>209.5</ele><time>2026-04-05T13:07:17.001Z</time></trkpt><trkpt lat="44.83454186232123" lon="9.52038438790119"><ele>210.75</ele><time>2026-04-05T13:07:18.001Z</time></trkpt><trkpt lat="44.8346538468226" lon="9.520312369813029"><ele>212.0</ele><time>2026-04-05T13:07:19.001Z</time></trkpt><trkpt lat="44.83476975329034" lon="9.52017717375977"><ele>212.0</ele><time>2026-04-05T13:07:20.001Z</time></trkpt><trkpt lat="44.83487384641094" lon="9.520037804915566"><ele>212.0</ele><time>2026-04-05T13:07:21Z</time></trkpt><trkpt lat="44.834982177390195" lon="9.519949994588018"><ele>212.0</ele><time>2026-04-05T13:07:22Z</time></trkpt><trkpt lat="44.83511909782782" lon="9.51993419988944"><ele>212.0</ele><time>2026-04-05T13:07:23Z</time></trkpt><trkpt lat="44.835249234857706" lon="9.519914694564926"><ele>209.33333333333334</ele><time>2026-04-05T13:07:24Z</time></trkpt><trkpt lat="44.83537851144158" lon="9.51995777032227"><ele>206.66666666666669</ele><time>2026-04-05T13:07:25Z</time></trkpt><trkpt lat="44.83552585237364" lon="9.520047367102913"><ele>204.0</ele><time>2026-04-05T13:07:26Z</time></trkpt><trkpt lat="44.83567343871307" lon="9.520130693244448"><ele>204.0</ele><time>2026-04-05T13:07:27Z</time></trkpt><trkpt lat="44.8358081503151" lon="9.520192579484222"><ele>204.0</ele><time>2026-04-05T13:07:28Z</time></trkpt><trkpt lat="44.83594424258663" lon="9.52025354226155"><ele>204.0</ele><time>2026-04-05T13:07:29Z</time></trkpt><trkpt lat="44.83608212712521" lon="9.520364795060916"><ele>204.0</ele><time>2026-04-05T13:07:30Z</time></trkpt><trkpt lat="44.8362025830038" lon="9.520533065643049"><ele>205.33333333333331</ele><time>2026-04-05T13:07:31Z</time></trkpt><trkpt lat="44.83633933761319" lon="9.520714156921098"><ele>206.66666666666666</ele><time>2026-04-05T13:07:32Z</time></trkpt><trkpt lat="44.83645756480503" lon="9.520892902475453"><ele>208.0</ele><time>2026-04-05T13:07:33Z</time></trkpt><trkpt lat="44.83657636920459" lon="9.521042911031836"><ele>208.0</ele><time>2026-04-05T13:07:34Z</time></trkpt><trkpt lat="44.836681456279855" lon="9.52118849048513"><ele>208.0</ele><time>2026-04-05T13:07:35Z</time></trkpt><trkpt lat="44.836777708099326" lon="9.521327806674176"><ele>208.0</ele><time>2026-04-05T13:07:36Z</time></trkpt><trkpt lat="44.83685580260844" lon="9.521474284880018"><ele>208.0</ele><time>2026-04-05T13:07:37Z</time></trkpt><trkpt lat="44.83695106441271" lon="9.521580247468831"><ele>206.75</ele><time>2026-04-05T13:07:38Z</time></trkpt><trkpt lat="44.83700986437222" lon="9.521688307831825"><ele>205.5</ele><time>2026-04-05T13:07:39Z</time></trkpt><trkpt lat="44.83712200894456" lon="9.521792877107904"><ele>204.25</ele><time>2026-04-05T13:07:40Z</time></trkpt><trkpt lat="44.83722708219209" lon="9.521896005705218"><ele>203.0</ele><time>2026-04-05T13:07:41Z</time></trkpt><trkpt lat="44.83733779204221" lon="9.52200102106448"><ele>203.0</ele><time>2026-04-05T13:07:42Z</time></trkpt><trkpt lat="44.837436127556174" lon="9.522129600759138"><ele>203.0</ele><time>2026-04-05T13:07:43Z</time></trkpt><trkpt lat="44.83754033750229" lon="9.522237816674266"><ele>203.0</ele><time>2026-04-05T13:07:44Z</time></trkpt><trkpt lat="44.8376504194058" lon="9.522352130218689"><ele>203.0</ele><time>2026-04-05T13:07:45Z</time></trkpt><trkpt lat="44.8377628488342" lon="9.522468881552086"><ele>203.0</ele><time>2026-04-05T13:07:46Z</time></trkpt><trkpt lat="44.837890768836886" lon="9.522577752395383"><ele>203.0</ele><time>2026-04-05T13:07:47Z</time></trkpt><trkpt lat="44.83801777531338" lon="9.522721411692613"><ele>203.0</ele><time>2026-04-05T13:07:48Z</time></trkpt><trkpt lat="44.83815038733591" lon="9.52286056689657"><ele>201.25</ele><time>2026-04-05T13:07:49Z</time></trkpt><trkpt lat="44.83827304440532" lon="9.522986667329132"><ele>199.5</ele><time>2026-04-05T13:07:50Z</time></trkpt><trkpt lat="44.83838389330258" lon="9.523104787519864"><ele>197.75</ele><time>2026-04-05T13:07:51Z</time></trkpt><trkpt lat="44.8384926855288" lon="9.523243910802906"><ele>196.0</ele><time>2026-04-05T13:07:52Z</time></trkpt><trkpt lat="44.83859245806125" lon="9.523392972153044"><ele>196.0</ele><time>2026-04-05T13:07:53Z</time></trkpt><trkpt lat="44.838683725946765" lon="9.523563753921916"><ele>196.0</ele><time>2026-04-05T13:07:54Z</time></trkpt><trkpt lat="44.83876966085504" lon="9.523744826672761"><ele>196.0</ele><time>2026-04-05T13:07:55Z</time></trkpt><trkpt lat="44.83883502446011" lon="9.523918680296635"><ele>196.0</ele><time>2026-04-05T13:07:56Z</time></trkpt><trkpt lat="44.83889167465487" lon="9.524108217478483"><ele>199.0</ele><time>2026-04-05T13:07:57Z</time></trkpt><trkpt lat="44.83893004058938" lon="9.524304471502557"><ele>202.0</ele><time>2026-04-05T13:07:58Z</time></trkpt><trkpt lat="44.838959812599825" lon="9.524502401701664"><ele>205.0</ele><time>2026-04-05T13:07:59Z</time></trkpt><trkpt lat="44.83899322712153" lon="9.524701702717659"><ele>208.0</ele><time>2026-04-05T13:08:00Z</time></trkpt><trkpt lat="44.83903125684758" lon="9.524897123534464"><ele>210.0</ele><time>2026-04-05T13:08:01Z</time></trkpt><trkpt lat="44.83907562204276" lon="9.52510097784709"><ele>212.0</ele><time>2026-04-05T13:08:02Z</time></trkpt><trkpt lat="44.83916887452233" lon="9.525303526472909"><ele>214.0</ele><time>2026-04-05T13:08:03Z</time></trkpt><trkpt lat="44.83925447322188" lon="9.525473509283655"><ele>208.66666666666666</ele><time>2026-04-05T13:08:04Z</time></trkpt><trkpt lat="44.8393522570569" lon="9.525634253140268"><ele>203.33333333333331</ele><time>2026-04-05T13:08:05Z</time></trkpt><trkpt lat="44.83943245809517" lon="9.525833661722737"><ele>198.0</ele><time>2026-04-05T13:08:06Z</time></trkpt><trkpt lat="44.83951530849053" lon="9.526049288794393"><ele>200.66666666666669</ele><time>2026-04-05T13:08:07Z</time></trkpt><trkpt lat="44.83960182013509" lon="9.526282190130594"><ele>203.33333333333334</ele><time>2026-04-05T13:08:08Z</time></trkpt><trkpt lat="44.83969569060181" lon="9.52653524985219"><ele>206.0</ele><time>2026-04-05T13:08:09Z</time></trkpt><trkpt lat="44.8397885294794" lon="9.526781179736684"><ele>206.0</ele><time>2026-04-05T13:08:10Z</time></trkpt><trkpt lat="44.839871245774475" lon="9.527005833571444"><ele>206.0</ele><time>2026-04-05T13:08:11Z</time></trkpt><trkpt lat="44.83994946028148" lon="9.527218401922134"><ele>206.0</ele><time>2026-04-05T13:08:12Z</time></trkpt><trkpt lat="44.840027838826025" lon="9.527429023241927"><ele>205.0</ele><time>2026-04-05T13:08:13Z</time></trkpt><trkpt lat="44.84010435129801" lon="9.52763075676586"><ele>204.0</ele><time>2026-04-05T13:08:14Z</time></trkpt><trkpt lat="44.84017889105062" lon="9.527825477653712"><ele>203.0</ele><time>2026-04-05T13:08:15Z</time></trkpt><trkpt lat="44.84025680520858" lon="9.528019115822694"><ele>203.0</ele><time>2026-04-05T13:08:16Z</time></trkpt><trkpt lat="44.84033914063714" lon="9.528207224928593"><ele>203.0</ele><time>2026-04-05T13:08:17Z</time></trkpt><trkpt lat="44.8404093110226" lon="9.528404667942302"><ele>203.0</ele><time>2026-04-05T13:08:18Z</time></trkpt><trkpt lat="44.840509267943894" lon="9.528570998374219"><ele>204.66666666666669</ele><time>2026-04-05T13:08:19Z</time></trkpt><trkpt lat="44.8406033810545" lon="9.52874077183901"><ele>206.33333333333331</ele><time>2026-04-05T13:08:20Z</time></trkpt><trkpt lat="44.840702992384394" lon="9.528897898508768"><ele>208.0</ele><time>2026-04-05T13:08:21Z</time></trkpt><trkpt lat="44.84080837447525" lon="9.52905120816025"><ele>208.0</ele><time>2026-04-05T13:08:22Z</time></trkpt><trkpt lat="44.84090952222282" lon="9.529209556457156"><ele>208.0</ele><time>2026-04-05T13:08:23Z</time></trkpt><trkpt lat="44.841009224246484" lon="9.529374319074734"><ele>208.0</ele><time>2026-04-05T13:08:24.001Z</time></trkpt><trkpt lat="44.84111473452572" lon="9.529554331255005"><ele>206.0</ele><time>2026-04-05T13:08:25.001Z</time></trkpt><trkpt lat="44.84121447416897" lon="9.529727968766231"><ele>204.0</ele><time>2026-04-05T13:08:26.001Z</time></trkpt><trkpt lat="44.84129702652889" lon="9.52989666508211"><ele>202.0</ele><time>2026-04-05T13:08:27.001Z</time></trkpt><trkpt lat="44.84137346929162" lon="9.530074768839677"><ele>202.0</ele><time>2026-04-05T13:08:28.001Z</time></trkpt><trkpt lat="44.841446445600724" lon="9.53026485271388"><ele>202.0</ele><time>2026-04-05T13:08:29.001Z</time></trkpt><trkpt lat="44.84151785412339" lon="9.530460955708932"><ele>202.0</ele><time>2026-04-05T13:08:30.001Z</time></trkpt><trkpt lat="44.84159071737308" lon="9.530659037839706"><ele>205.0</ele><time>2026-04-05T13:08:31.001Z</time></trkpt><trkpt lat="44.84166914954717" lon="9.530856331235315"><ele>208.0</ele><time>2026-04-05T13:08:32.001Z</time></trkpt><trkpt lat="44.84175422117979" lon="9.531032142633375"><ele>211.0</ele><time>2026-04-05T13:08:33.001Z</time></trkpt><trkpt lat="44.8418562607612" lon="9.531188047637901"><ele>210.0</ele><time>2026-04-05T13:08:34.001Z</time></trkpt><trkpt lat="44.841976486733856" lon="9.531328733697034"><ele>209.0</ele><time>2026-04-05T13:08:35.001Z</time></trkpt><trkpt lat="44.84210953281157" lon="9.531442326095473"><ele>208.0</ele><time>2026-04-05T13:08:36.001Z</time></trkpt><trkpt lat="44.84225360207284" lon="9.531533724038178"><ele>208.0</ele><time>2026-04-05T13:08:37.001Z</time></trkpt><trkpt lat="44.84240023622114" lon="9.531616465549233"><ele>208.0</ele><time>2026-04-05T13:08:38.001Z</time></trkpt><trkpt lat="44.842526115680975" lon="9.531704970516092"><ele>208.0</ele><time>2026-04-05T13:08:39.001Z</time></trkpt><trkpt lat="44.842642821796396" lon="9.531799087675026"><ele>208.0</ele><time>2026-04-05T13:08:40.001Z</time></trkpt><trkpt lat="44.84274169621764" lon="9.531909421450028"><ele>203.0</ele><time>2026-04-05T13:08:41.001Z</time></trkpt><trkpt lat="44.84281380713353" lon="9.532053087928446"><ele>198.0</ele><time>2026-04-05T13:08:42.001Z</time></trkpt><trkpt lat="44.842866616026654" lon="9.532238017187435"><ele>193.0</ele><time>2026-04-05T13:08:43.001Z</time></trkpt><trkpt lat="44.842909590636275" lon="9.532468389146095"><ele>188.0</ele><time>2026-04-05T13:08:44.001Z</time></trkpt><trkpt lat="44.84294830296085" lon="9.532685682360139"><ele>191.0</ele><time>2026-04-05T13:08:45.001Z</time></trkpt><trkpt lat="44.842997558431904" lon="9.53289010271517"><ele>194.0</ele><time>2026-04-05T13:08:46.001Z</time></trkpt><trkpt lat="44.84304484837635" lon="9.533103839176336"><ele>197.0</ele><time>2026-04-05T13:08:47.001Z</time></trkpt><trkpt lat="44.843090191692966" lon="9.533307845533495"><ele>197.0</ele><time>2026-04-05T13:08:48.001Z</time></trkpt><trkpt lat="44.843132825445856" lon="9.533522588102745"><ele>197.0</ele><time>2026-04-05T13:08:49.001Z</time></trkpt><trkpt lat="44.84316897153844" lon="9.533746177215194"><ele>197.0</ele><time>2026-04-05T13:08:50.001Z</time></trkpt><trkpt lat="44.84320055442699" lon="9.533971049928839"><ele>198.33333333333334</ele><time>2026-04-05T13:08:51.001Z</time></trkpt><trkpt lat="44.843218768904215" lon="9.534203828561884"><ele>199.66666666666669</ele><time>2026-04-05T13:08:52.001Z</time></trkpt><trkpt lat="44.84324146774059" lon="9.53441812988577"><ele>201.0</ele><time>2026-04-05T13:08:53.001Z</time></trkpt><trkpt lat="44.84326547517311" lon="9.534635728252082"><ele>202.66666666666669</ele><time>2026-04-05T13:08:54.001Z</time></trkpt><trkpt lat="44.843288278555946" lon="9.534881974420754"><ele>204.33333333333334</ele><time>2026-04-05T13:08:55.001Z</time></trkpt><trkpt lat="44.84331022978752" lon="9.535100230449753"><ele>206.0</ele><time>2026-04-05T13:08:56.001Z</time></trkpt><trkpt lat="44.84333198204127" lon="9.535311419132848"><ele>207.0</ele><time>2026-04-05T13:08:57.001Z</time></trkpt><trkpt lat="44.84335568861009" lon="9.535505791025653"><ele>208.0</ele><time>2026-04-05T13:08:58.001Z</time></trkpt><trkpt lat="44.84339457299386" lon="9.535662756519384"><ele>209.0</ele><time>2026-04-05T13:08:59.001Z</time></trkpt><trkpt lat="44.84346463952364" lon="9.535781975893967"><ele>210.0</ele><time>2026-04-05T13:09:00.001Z</time></trkpt><trkpt lat="44.843564211042334" lon="9.5358774831791"><ele>207.0</ele><time>2026-04-05T13:09:01.001Z</time></trkpt><trkpt lat="44.843686130522855" lon="9.535955220050516"><ele>204.0</ele><time>2026-04-05T13:09:02.001Z</time></trkpt><trkpt lat="44.843816447376255" lon="9.536000029117199"><ele>201.0</ele><time>2026-04-05T13:09:03.001Z</time></trkpt><trkpt lat="44.84394463207043" lon="9.535997783171993"><ele>198.0</ele><time>2026-04-05T13:09:04.001Z</time></trkpt><trkpt lat="44.844071030632726" lon="9.535957866087278"><ele>198.0</ele><time>2026-04-05T13:09:05.001Z</time></trkpt><trkpt lat="44.844197508606506" lon="9.535928329456064"><ele>198.0</ele><time>2026-04-05T13:09:06.001Z</time></trkpt><trkpt lat="44.844320778862794" lon="9.53596781472295"><ele>198.0</ele><time>2026-04-05T13:09:07.001Z</time></trkpt><trkpt lat="44.84443105459758" lon="9.536038603601506"><ele>198.0</ele><time>2026-04-05T13:09:08.001Z</time></trkpt><trkpt lat="44.84452722319463" lon="9.536153334133767"><ele>197.75</ele><time>2026-04-05T13:09:09.001Z</time></trkpt><trkpt lat="44.844607189017445" lon="9.536316610263048"><ele>197.5</ele><time>2026-04-05T13:09:10.001Z</time></trkpt><trkpt lat="44.84469240105882" lon="9.536489156642721"><ele>197.25</ele><time>2026-04-05T13:09:11.001Z</time></trkpt><trkpt lat="44.844796095051414" lon="9.53660530040349"><ele>197.0</ele><time>2026-04-05T13:09:12.001Z</time></trkpt><trkpt lat="44.844921735784666" lon="9.536697504781987"><ele>197.0</ele><time>2026-04-05T13:09:13.001Z</time></trkpt><trkpt lat="44.84507081840215" lon="9.536768551255332"><ele>197.0</ele><time>2026-04-05T13:09:14.001Z</time></trkpt><trkpt lat="44.8452201514728" lon="9.536832885791272"><ele>197.0</ele><time>2026-04-05T13:09:15.001Z</time></trkpt><trkpt lat="44.845355308884436" lon="9.53693037974396"><ele>195.75</ele><time>2026-04-05T13:09:16.001Z</time></trkpt><trkpt lat="44.84547157326518" lon="9.537050006971034"><ele>194.5</ele><time>2026-04-05T13:09:17.001Z</time></trkpt><trkpt lat="44.84556916606325" lon="9.537197800784313"><ele>193.25</ele><time>2026-04-05T13:09:18.001Z</time></trkpt><trkpt lat="44.84564715120978" lon="9.537376007965042"><ele>192.0</ele><time>2026-04-05T13:09:19.001Z</time></trkpt><trkpt lat="44.845714396053474" lon="9.537564410436788"><ele>192.0</ele><time>2026-04-05T13:09:20.001Z</time></trkpt><trkpt lat="44.84578820065895" lon="9.537738985006031"><ele>192.0</ele><time>2026-04-05T13:09:21.001Z</time></trkpt><trkpt lat="44.84586703989348" lon="9.537890760868573"><ele>192.0</ele><time>2026-04-05T13:09:22.001Z</time></trkpt><trkpt lat="44.8459610851656" lon="9.538018714846505"><ele>192.0</ele><time>2026-04-05T13:09:23.001Z</time></trkpt><trkpt lat="44.84608707948575" lon="9.538126983665707"><ele>190.66666666666666</ele><time>2026-04-05T13:09:24.001Z</time></trkpt><trkpt lat="44.8462507064287" lon="9.53820969241812"><ele>189.33333333333331</ele><time>2026-04-05T13:09:25.001Z</time></trkpt><trkpt lat="44.84641430469552" lon="9.538314161066234"><ele>188.0</ele><time>2026-04-05T13:09:26.001Z</time></trkpt><trkpt lat="44.84656032078247" lon="9.53839994123042"><ele>188.0</ele><time>2026-04-05T13:09:27Z</time></trkpt><trkpt lat="44.846695402084485" lon="9.538466256551347"><ele>188.0</ele><time>2026-04-05T13:09:28Z</time></trkpt><trkpt lat="44.846816528974145" lon="9.538561314758399"><ele>188.0</ele><time>2026-04-05T13:09:29Z</time></trkpt><trkpt lat="44.846936937831416" lon="9.538666625406405"><ele>188.0</ele><time>2026-04-05T13:09:30Z</time></trkpt><trkpt lat="44.84705190783867" lon="9.538792142145548"><ele>188.33333333333331</ele><time>2026-04-05T13:09:31Z</time></trkpt><trkpt lat="44.847164097703285" lon="9.538937049209242"><ele>188.66666666666666</ele><time>2026-04-05T13:09:32Z</time></trkpt><trkpt lat="44.84727113025485" lon="9.539097833773875"><ele>189.0</ele><time>2026-04-05T13:09:33Z</time></trkpt><trkpt lat="44.847369834975275" lon="9.539253419559191"><ele>189.0</ele><time>2026-04-05T13:09:34Z</time></trkpt><trkpt lat="44.847466324658555" lon="9.539401006789376"><ele>189.0</ele><time>2026-04-05T13:09:35Z</time></trkpt><trkpt lat="44.847564487858264" lon="9.539548959422032"><ele>189.0</ele><time>2026-04-05T13:09:36Z</time></trkpt><trkpt lat="44.84766269423113" lon="9.539697180206655"><ele>189.0</ele><time>2026-04-05T13:09:37Z</time></trkpt><trkpt lat="44.847762695109466" lon="9.539843091811898"><ele>189.25</ele><time>2026-04-05T13:09:38Z</time></trkpt><trkpt lat="44.847863313748974" lon="9.53998989001592"><ele>189.5</ele><time>2026-04-05T13:09:39Z</time></trkpt><trkpt lat="44.847960602062244" lon="9.540136121558914"><ele>189.75</ele><time>2026-04-05T13:09:40Z</time></trkpt><trkpt lat="44.848054581839044" lon="9.540280894252883"><ele>190.0</ele><time>2026-04-05T13:09:41Z</time></trkpt><trkpt lat="44.84815439678317" lon="9.54041399487861"><ele>190.0</ele><time>2026-04-05T13:09:42Z</time></trkpt><trkpt lat="44.84826767272907" lon="9.540516144308956"><ele>190.0</ele><time>2026-04-05T13:09:43Z</time></trkpt><trkpt lat="44.8483955296649" lon="9.540591166748232"><ele>190.0</ele><time>2026-04-05T13:09:44Z</time></trkpt><trkpt lat="44.848551386672625" lon="9.540602292694835"><ele>190.0</ele><time>2026-04-05T13:09:45Z</time></trkpt><trkpt lat="44.84870370381985" lon="9.5406214855518"><ele>190.75</ele><time>2026-04-05T13:09:46Z</time></trkpt><trkpt lat="44.84884962857226" lon="9.540640473513678"><ele>191.5</ele><time>2026-04-05T13:09:47Z</time></trkpt><trkpt lat="44.84898558584262" lon="9.540659707132475"><ele>192.25</ele><time>2026-04-05T13:09:48Z</time></trkpt><trkpt lat="44.8491070160232" lon="9.54067347520194"><ele>193.0</ele><time>2026-04-05T13:09:49Z</time></trkpt><trkpt lat="44.849224231337644" lon="9.540687171055586"><ele>192.25</ele><time>2026-04-05T13:09:50Z</time></trkpt><trkpt lat="44.84933882409873" lon="9.540702359491373"><ele>191.5</ele><time>2026-04-05T13:09:51Z</time></trkpt><trkpt lat="44.84945372178827" lon="9.540720625466975"><ele>190.75</ele><time>2026-04-05T13:09:52Z</time></trkpt><trkpt lat="44.849569326896386" lon="9.54073737881153"><ele>190.0</ele><time>2026-04-05T13:09:53Z</time></trkpt><trkpt lat="44.84968632347216" lon="9.540750432610293"><ele>190.0</ele><time>2026-04-05T13:09:54Z</time></trkpt><trkpt lat="44.849803681955" lon="9.540758470952664"><ele>190.0</ele><time>2026-04-05T13:09:55Z</time></trkpt><trkpt lat="44.84992401254472" lon="9.540768266311808"><ele>190.0</ele><time>2026-04-05T13:09:56Z</time></trkpt><trkpt lat="44.850049645980455" lon="9.540804739618588"><ele>190.0</ele><time>2026-04-05T13:09:57Z</time></trkpt><trkpt lat="44.85018024750481" lon="9.540796776291865"><ele>190.5</ele><time>2026-04-05T13:09:58Z</time></trkpt><trkpt lat="44.85030995247874" lon="9.540811722377796"><ele>191.0</ele><time>2026-04-05T13:09:59Z</time></trkpt><trkpt lat="44.85043112301946" lon="9.54084924751939"><ele>191.5</ele><time>2026-04-05T13:10:00Z</time></trkpt><trkpt lat="44.85055549803674" lon="9.540840966167407"><ele>192.0</ele><time>2026-04-05T13:10:01Z</time></trkpt><trkpt lat="44.8506899494123" lon="9.540858747300472"><ele>192.0</ele><time>2026-04-05T13:10:02Z</time></trkpt><trkpt lat="44.85084004044061" lon="9.540878864041556"><ele>192.0</ele><time>2026-04-05T13:10:03Z</time></trkpt><trkpt lat="44.85098378556419" lon="9.54089998611346"><ele>192.0</ele><time>2026-04-05T13:10:04Z</time></trkpt><trkpt lat="44.851115983121005" lon="9.540929867424381"><ele>192.0</ele><time>2026-04-05T13:10:05Z</time></trkpt><trkpt lat="44.851238868195566" lon="9.540973757140822"><ele>191.5</ele><time>2026-04-05T13:10:06Z</time></trkpt><trkpt lat="44.85135243631048" lon="9.541030885218618"><ele>191.0</ele><time>2026-04-05T13:10:07Z</time></trkpt><trkpt lat="44.85146605886874" lon="9.54109837085966"><ele>190.5</ele><time>2026-04-05T13:10:08Z</time></trkpt><trkpt lat="44.8515859202319" lon="9.541166699927588"><ele>190.0</ele><time>2026-04-05T13:10:09Z</time></trkpt><trkpt lat="44.85171341324185" lon="9.541242187602554"><ele>191.0</ele><time>2026-04-05T13:10:10Z</time></trkpt><trkpt lat="44.85185146683676" lon="9.541327505630703"><ele>192.0</ele><time>2026-04-05T13:10:11Z</time></trkpt><trkpt lat="44.85200320458027" lon="9.54142242058913"><ele>193.0</ele><time>2026-04-05T13:10:12Z</time></trkpt><trkpt lat="44.85217258379987" lon="9.54153118755016"><ele>193.0</ele><time>2026-04-05T13:10:13Z</time></trkpt><trkpt lat="44.852326027498925" lon="9.54163094656735"><ele>193.0</ele><time>2026-04-05T13:10:14Z</time></trkpt><trkpt lat="44.852476112224835" lon="9.54172771493614"><ele>193.0</ele><time>2026-04-05T13:10:15Z</time></trkpt><trkpt lat="44.85263033000714" lon="9.541832835159813"><ele>192.33333333333331</ele><time>2026-04-05T13:10:16Z</time></trkpt><trkpt lat="44.8527848202666" lon="9.541943471402034"><ele>191.66666666666666</ele><time>2026-04-05T13:10:17Z</time></trkpt><trkpt lat="44.852933981721975" lon="9.542050724287696"><ele>191.0</ele><time>2026-04-05T13:10:18Z</time></trkpt><trkpt lat="44.853073738024" lon="9.542149534797025"><ele>191.0</ele><time>2026-04-05T13:10:19Z</time></trkpt><trkpt lat="44.85320249296856" lon="9.542248960238757"><ele>191.0</ele><time>2026-04-05T13:10:20Z</time></trkpt><trkpt lat="44.853321520932205" lon="9.542362249870642"><ele>191.0</ele><time>2026-04-05T13:10:21Z</time></trkpt><trkpt lat="44.853431853437634" lon="9.542499095988827"><ele>191.0</ele><time>2026-04-05T13:10:22Z</time></trkpt><trkpt lat="44.853531213684846" lon="9.54265620210191"><ele>187.33333333333331</ele><time>2026-04-05T13:10:23Z</time></trkpt><trkpt lat="44.853616619474714" lon="9.542830861985157"><ele>183.66666666666666</ele><time>2026-04-05T13:10:24Z</time></trkpt><trkpt lat="44.85368470661169" lon="9.543016399503182"><ele>180.0</ele><time>2026-04-05T13:10:25Z</time></trkpt><trkpt lat="44.85373485233504" lon="9.543219522855876"><ele>180.0</ele><time>2026-04-05T13:10:26Z</time></trkpt><trkpt lat="44.853771967041745" lon="9.543452590474955"><ele>180.0</ele><time>2026-04-05T13:10:27Z</time></trkpt><trkpt lat="44.85380525471906" lon="9.543672543922337"><ele>180.0</ele><time>2026-04-05T13:10:28Z</time></trkpt><trkpt lat="44.85383841833698" lon="9.543875906546642"><ele>180.5</ele><time>2026-04-05T13:10:29Z</time></trkpt><trkpt lat="44.853871772638236" lon="9.544071768004894"><ele>181.0</ele><time>2026-04-05T13:10:30Z</time></trkpt><trkpt lat="44.853907739121425" lon="9.544256846999142"><ele>181.5</ele><time>2026-04-05T13:10:31Z</time></trkpt><trkpt lat="44.85394590658186" lon="9.544431315716825"><ele>182.0</ele><time>2026-04-05T13:10:32Z</time></trkpt><trkpt lat="44.85399385156678" lon="9.54459355232566"><ele>183.75</ele><time>2026-04-05T13:10:33Z</time></trkpt><trkpt lat="44.85405924846271" lon="9.544738491337155"><ele>185.5</ele><time>2026-04-05T13:10:34Z</time></trkpt><trkpt lat="44.854136801321324" lon="9.544878165094103"><ele>187.25</ele><time>2026-04-05T13:10:35Z</time></trkpt><trkpt lat="44.85421571398923" lon="9.545024128891434"><ele>189.0</ele><time>2026-04-05T13:10:36Z</time></trkpt><trkpt lat="44.85429587027502" lon="9.545183032616228"><ele>187.0</ele><time>2026-04-05T13:10:37Z</time></trkpt><trkpt lat="44.854385769048484" lon="9.54535256233474"><ele>185.0</ele><time>2026-04-05T13:10:38Z</time></trkpt><trkpt lat="44.854481926618" lon="9.545526181929647"><ele>183.0</ele><time>2026-04-05T13:10:39Z</time></trkpt><trkpt lat="44.85457993839633" lon="9.545690072931903"><ele>183.0</ele><time>2026-04-05T13:10:40Z</time></trkpt><trkpt lat="44.85468067886219" lon="9.545840411717835"><ele>183.0</ele><time>2026-04-05T13:10:41Z</time></trkpt><trkpt lat="44.85478436392508" lon="9.545970847591832"><ele>183.0</ele><time>2026-04-05T13:10:42Z</time></trkpt><trkpt lat="44.854882756594975" lon="9.546121013753814"><ele>183.0</ele><time>2026-04-05T13:10:43Z</time></trkpt><trkpt lat="44.85499296321896" lon="9.54626010739915"><ele>183.0</ele><time>2026-04-05T13:10:44Z</time></trkpt><trkpt lat="44.855107419384375" lon="9.546373467144189"><ele>183.0</ele><time>2026-04-05T13:10:45Z</time></trkpt><trkpt lat="44.85519944276948" lon="9.546498394734655"><ele>183.0</ele><time>2026-04-05T13:10:46Z</time></trkpt><trkpt lat="44.85529764729203" lon="9.54662274076002"><ele>183.0</ele><time>2026-04-05T13:10:47Z</time></trkpt><trkpt lat="44.85540006525367" lon="9.54674950423014"><ele>183.0</ele><time>2026-04-05T13:10:48Z</time></trkpt><trkpt lat="44.85550695946703" lon="9.546877279816762"><ele>183.0</ele><time>2026-04-05T13:10:49Z</time></trkpt><trkpt lat="44.85561172129447" lon="9.547009281564522"><ele>183.0</ele><time>2026-04-05T13:10:50Z</time></trkpt><trkpt lat="44.855713176916275" lon="9.547135707128934"><ele>183.0</ele><time>2026-04-05T13:10:51Z</time></trkpt><trkpt lat="44.85581069755165" lon="9.547258834527934"><ele>182.0</ele><time>2026-04-05T13:10:52Z</time></trkpt><trkpt lat="44.855912942012644" lon="9.54738610291192"><ele>181.0</ele><time>2026-04-05T13:10:53Z</time></trkpt><trkpt lat="44.85602039170446" lon="9.547517958917526"><ele>180.0</ele><time>2026-04-05T13:10:54Z</time></trkpt><trkpt lat="44.8561219552413" lon="9.547637053630506"><ele>179.0</ele><time>2026-04-05T13:10:55Z</time></trkpt><trkpt lat="44.85622479851132" lon="9.54773140034617"><ele>179.0</ele><time>2026-04-05T13:10:56Z</time></trkpt><trkpt lat="44.856336806951695" lon="9.5477967364719"><ele>179.0</ele><time>2026-04-05T13:10:57Z</time></trkpt><trkpt lat="44.85645693077959" lon="9.547852400082776"><ele>179.0</ele><time>2026-04-05T13:10:58Z</time></trkpt><trkpt lat="44.856578789883955" lon="9.547908466442127"><ele>179.0</ele><time>2026-04-05T13:10:59Z</time></trkpt><trkpt lat="44.8567039592685" lon="9.547968630855378"><ele>180.5</ele><time>2026-04-05T13:11:00.001Z</time></trkpt><trkpt lat="44.856833371384205" lon="9.548032053956408"><ele>182.0</ele><time>2026-04-05T13:11:01.001Z</time></trkpt><trkpt lat="44.856970919407715" lon="9.54809956320385"><ele>183.5</ele><time>2026-04-05T13:11:02.001Z</time></trkpt><trkpt lat="44.85711017204082" lon="9.548167797619444"><ele>185.0</ele><time>2026-04-05T13:11:03.001Z</time></trkpt><trkpt lat="44.857233210905505" lon="9.548227408549282"><ele>185.0</ele><time>2026-04-05T13:11:04.001Z</time></trkpt><trkpt lat="44.8573481447877" lon="9.54830264341133"><ele>185.0</ele><time>2026-04-05T13:11:05.001Z</time></trkpt><trkpt lat="44.85747553396575" lon="9.548341650421074"><ele>185.0</ele><time>2026-04-05T13:11:06.001Z</time></trkpt><trkpt lat="44.85759407107465" lon="9.548402957439407"><ele>185.0</ele><time>2026-04-05T13:11:07.001Z</time></trkpt><trkpt lat="44.85771165030581" lon="9.548461231600264"><ele>182.75</ele><time>2026-04-05T13:11:08.001Z</time></trkpt><trkpt lat="44.85782917987352" lon="9.54852036937061"><ele>180.5</ele><time>2026-04-05T13:11:09.001Z</time></trkpt><trkpt lat="44.85795156481582" lon="9.548587688842256"><ele>178.25</ele><time>2026-04-05T13:11:10.001Z</time></trkpt><trkpt lat="44.858068787404285" lon="9.548671317640148"><ele>176.0</ele><time>2026-04-05T13:11:11.001Z</time></trkpt><trkpt lat="44.858182505769875" lon="9.548777888217742"><ele>175.0</ele><time>2026-04-05T13:11:12.001Z</time></trkpt><trkpt lat="44.85828067015132" lon="9.5489171504223"><ele>174.0</ele><time>2026-04-05T13:11:13.001Z</time></trkpt><trkpt lat="44.85838608579554" lon="9.54904358945697"><ele>173.0</ele><time>2026-04-05T13:11:14.001Z</time></trkpt><trkpt lat="44.858492891243756" lon="9.549154223389602"><ele>172.0</ele><time>2026-04-05T13:11:15.001Z</time></trkpt><trkpt lat="44.85860183515163" lon="9.549261127785819"><ele>172.0</ele><time>2026-04-05T13:11:16.001Z</time></trkpt><trkpt lat="44.8587085651139" lon="9.549363913401486"><ele>172.0</ele><time>2026-04-05T13:11:17.001Z</time></trkpt><trkpt lat="44.85881751158489" lon="9.549468833334101"><ele>172.0</ele><time>2026-04-05T13:11:18.001Z</time></trkpt><trkpt lat="44.8589412648095" lon="9.549590646099018"><ele>172.0</ele><time>2026-04-05T13:11:19.001Z</time></trkpt><trkpt lat="44.8590662525192" lon="9.549715584942394"><ele>172.5</ele><time>2026-04-05T13:11:20.001Z</time></trkpt><trkpt lat="44.85919299565367" lon="9.549822652368642"><ele>173.0</ele><time>2026-04-05T13:11:21.001Z</time></trkpt><trkpt lat="44.85931677238428" lon="9.549946040680389"><ele>173.5</ele><time>2026-04-05T13:11:22.001Z</time></trkpt><trkpt lat="44.85943906547325" lon="9.550066164435517"><ele>174.0</ele><time>2026-04-05T13:11:23.001Z</time></trkpt><trkpt lat="44.859558238784466" lon="9.550187808904942"><ele>174.0</ele><time>2026-04-05T13:11:24.001Z</time></trkpt><trkpt lat="44.85967251279639" lon="9.550301619198308"><ele>174.0</ele><time>2026-04-05T13:11:25.001Z</time></trkpt><trkpt lat="44.85979117986129" lon="9.550420892975213"><ele>174.0</ele><time>2026-04-05T13:11:26.001Z</time></trkpt><trkpt lat="44.859906881540795" lon="9.550551304740605"><ele>174.0</ele><time>2026-04-05T13:11:27.001Z</time></trkpt><trkpt lat="44.860014547057126" lon="9.550699340923163"><ele>172.75</ele><time>2026-04-05T13:11:28.001Z</time></trkpt><trkpt lat="44.86011991560776" lon="9.550853390712179"><ele>171.5</ele><time>2026-04-05T13:11:29.001Z</time></trkpt><trkpt lat="44.860221136117374" lon="9.550998912973093"><ele>170.25</ele><time>2026-04-05T13:11:30.001Z</time></trkpt><trkpt lat="44.86031669788695" lon="9.551125745399938"><ele>169.0</ele><time>2026-04-05T13:11:31.001Z</time></trkpt><trkpt lat="44.86040675098866" lon="9.551239932098397"><ele>172.6</ele><time>2026-04-05T13:11:32.001Z</time></trkpt><trkpt lat="44.86049603914871" lon="9.551339086635107"><ele>176.2</ele><time>2026-04-05T13:11:33Z</time></trkpt><trkpt lat="44.86058839670488" lon="9.55143003265368"><ele>179.79999999999998</ele><time>2026-04-05T13:11:34Z</time></trkpt><trkpt lat="44.86066938943305" lon="9.55151053463778"><ele>183.39999999999998</ele><time>2026-04-05T13:11:35Z</time></trkpt><trkpt lat="44.86073503944815" lon="9.55158067840732"><ele>187.0</ele><time>2026-04-05T13:11:36Z</time></trkpt><trkpt lat="44.86079019818751" lon="9.551644147463705"><ele>187.0</ele><time>2026-04-05T13:11:38Z</time></trkpt><trkpt lat="44.86079490548117" lon="9.551746585902714"><ele>187.0</ele><time>2026-04-05T13:11:41Z</time></trkpt><trkpt lat="44.860696542031114" lon="9.551716726186314"><ele>187.0</ele><time>2026-04-05T13:11:43Z</time></trkpt><trkpt lat="44.86062348446189" lon="9.551659881146195"><ele>187.0</ele><time>2026-04-05T13:11:44Z</time></trkpt><trkpt lat="44.860549433668226" lon="9.551567988130374"><ele>187.0</ele><time>2026-04-05T13:11:45Z</time></trkpt><trkpt lat="44.86045446282207" lon="9.551472183048062"><ele>187.0</ele><time>2026-04-05T13:11:46Z</time></trkpt><trkpt lat="44.86035698296941" lon="9.551375530732102"><ele>187.0</ele><time>2026-04-05T13:11:47Z</time></trkpt><trkpt lat="44.860262432691194" lon="9.55124995780471"><ele>187.0</ele><time>2026-04-05T13:11:48Z</time></trkpt><trkpt lat="44.860149384284576" lon="9.551163753422193"><ele>187.0</ele><time>2026-04-05T13:11:49Z</time></trkpt><trkpt lat="44.86004347960244" lon="9.551064778632838"><ele>188.75</ele><time>2026-04-05T13:11:50Z</time></trkpt><trkpt lat="44.85993190948836" lon="9.550973282632631"><ele>190.5</ele><time>2026-04-05T13:11:51Z</time></trkpt><trkpt lat="44.85981817910826" lon="9.550873218798673"><ele>192.25</ele><time>2026-04-05T13:11:52Z</time></trkpt><trkpt lat="44.85971463539559" lon="9.55077885148314"><ele>194.0</ele><time>2026-04-05T13:11:53Z</time></trkpt><trkpt lat="44.85961749475805" lon="9.550672800440685"><ele>194.00000000000003</ele><time>2026-04-05T13:11:54Z</time></trkpt><trkpt lat="44.85954110273334" lon="9.550582136506113"><ele>194.0</ele><time>2026-04-05T13:11:55Z</time></trkpt><trkpt lat="44.859476351817925" lon="9.550525076115237"><ele>194.0</ele><time>2026-04-05T13:11:56Z</time></trkpt><trkpt lat="44.859412595589006" lon="9.550486709487808"><ele>194.0</ele><time>2026-04-05T13:11:57Z</time></trkpt><trkpt lat="44.85935049302535" lon="9.550548670726442"><ele>194.00000000000003</ele><time>2026-04-05T13:11:58Z</time></trkpt><trkpt lat="44.8593705453319" lon="9.550715556420812"><ele>194.0</ele><time>2026-04-05T13:12:00Z</time></trkpt><trkpt lat="44.859420024156194" lon="9.550829467377119"><ele>194.0</ele><time>2026-04-05T13:12:01Z</time></trkpt><trkpt lat="44.85949357517451" lon="9.550929900821659"><ele>194.0</ele><time>2026-04-05T13:12:02Z</time></trkpt><trkpt lat="44.859570746312656" lon="9.551058565752143"><ele>194.0</ele><time>2026-04-05T13:12:03Z</time></trkpt><trkpt lat="44.85965345274219" lon="9.551215676682936"><ele>194.0</ele><time>2026-04-05T13:12:04Z</time></trkpt><trkpt lat="44.859757447179014" lon="9.551381084620292"><ele>199.75</ele><time>2026-04-05T13:12:05Z</time></trkpt><trkpt lat="44.85985348206774" lon="9.55153019247369"><ele>205.5</ele><time>2026-04-05T13:12:06Z</time></trkpt><trkpt lat="44.85993337306347" lon="9.551681334131569"><ele>211.25</ele><time>2026-04-05T13:12:07Z</time></trkpt><trkpt lat="44.85999345010189" lon="9.551859358755971"><ele>217.0</ele><time>2026-04-05T13:12:08Z</time></trkpt><trkpt lat="44.8600590237838" lon="9.552056865915317"><ele>214.2</ele><time>2026-04-05T13:12:09Z</time></trkpt><trkpt lat="44.86011405553516" lon="9.552224691223183"><ele>211.39999999999998</ele><time>2026-04-05T13:12:10Z</time></trkpt><trkpt lat="44.860139527003696" lon="9.552364437070242"><ele>208.60000000000002</ele><time>2026-04-05T13:12:11Z</time></trkpt><trkpt lat="44.86013453996854" lon="9.552488459493343"><ele>205.8</ele><time>2026-04-05T13:12:12Z</time></trkpt><trkpt lat="44.86010334922768" lon="9.552628021064656"><ele>203.0</ele><time>2026-04-05T13:12:13Z</time></trkpt><trkpt lat="44.86010419854226" lon="9.552748678172417"><ele>203.0</ele><time>2026-04-05T13:12:14Z</time></trkpt><trkpt lat="44.86015550640455" lon="9.552844542897619"><ele>203.0</ele><time>2026-04-05T13:12:15Z</time></trkpt><trkpt lat="44.86024422530268" lon="9.552909393228942"><ele>203.0</ele><time>2026-04-05T13:12:16Z</time></trkpt><trkpt lat="44.86037847862762" lon="9.552954627345455"><ele>203.0</ele><time>2026-04-05T13:12:17Z</time></trkpt><trkpt lat="44.86050893669063" lon="9.5530304472709"><ele>209.25</ele><time>2026-04-05T13:12:18Z</time></trkpt><trkpt lat="44.86061429191702" lon="9.553156155090871"><ele>215.5</ele><time>2026-04-05T13:12:19Z</time></trkpt><trkpt lat="44.86070154014697" lon="9.553292765983645"><ele>221.75</ele><time>2026-04-05T13:12:20Z</time></trkpt><trkpt lat="44.86080005589417" lon="9.553385582745486"><ele>228.0</ele><time>2026-04-05T13:12:21Z</time></trkpt><trkpt lat="44.8609104496209" lon="9.553425520695775"><ele>225.8</ele><time>2026-04-05T13:12:22Z</time></trkpt><trkpt lat="44.86100194112379" lon="9.553461849276768"><ele>223.60000000000002</ele><time>2026-04-05T13:12:23Z</time></trkpt><trkpt lat="44.86104970612336" lon="9.553558649097292"><ele>221.39999999999998</ele><time>2026-04-05T13:12:24Z</time></trkpt><trkpt lat="44.86106065007257" lon="9.553716365698783"><ele>219.2</ele><time>2026-04-05T13:12:25Z</time></trkpt><trkpt lat="44.86105231421582" lon="9.553889658937937"><ele>217.0</ele><time>2026-04-05T13:12:26Z</time></trkpt><trkpt lat="44.86102836412615" lon="9.55403113560003"><ele>217.0</ele><time>2026-04-05T13:12:27Z</time></trkpt><trkpt lat="44.86098095499659" lon="9.55415434253549"><ele>217.0</ele><time>2026-04-05T13:12:28Z</time></trkpt><trkpt lat="44.86091132489603" lon="9.554278126328569"><ele>217.0</ele><time>2026-04-05T13:12:29Z</time></trkpt><trkpt lat="44.86086188273209" lon="9.554419627641565"><ele>217.0</ele><time>2026-04-05T13:12:30Z</time></trkpt><trkpt lat="44.860869199871786" lon="9.554590225483823"><ele>217.0</ele><time>2026-04-05T13:12:31Z</time></trkpt><trkpt lat="44.860913973715284" lon="9.55478326062972"><ele>220.0</ele><time>2026-04-05T13:12:32Z</time></trkpt><trkpt lat="44.86097299410148" lon="9.55495669030671"><ele>223.0</ele><time>2026-04-05T13:12:33Z</time></trkpt><trkpt lat="44.86102632187382" lon="9.555089328679932"><ele>226.0</ele><time>2026-04-05T13:12:34Z</time></trkpt><trkpt lat="44.86106139558853" lon="9.555175977482515"><ele>229.0</ele><time>2026-04-05T13:12:35Z</time></trkpt><trkpt lat="44.86104978226092" lon="9.55528267077515"><ele>232.0</ele><time>2026-04-05T13:12:38Z</time></trkpt><trkpt lat="44.86096578832927" lon="9.555264349112392"><ele>237.0</ele><time>2026-04-05T13:12:40Z</time></trkpt><trkpt lat="44.86091186797129" lon="9.555196007370437"><ele>242.0</ele><time>2026-04-05T13:12:41Z</time></trkpt><trkpt lat="44.860865888496605" lon="9.555088977316052"><ele>247.0</ele><time>2026-04-05T13:12:42Z</time></trkpt><trkpt lat="44.86082405471485" lon="9.554949681941247"><ele>252.0</ele><time>2026-04-05T13:12:43Z</time></trkpt><trkpt lat="44.860776259641355" lon="9.554780017556721"><ele>257.0</ele><time>2026-04-05T13:12:44Z</time></trkpt><trkpt lat="44.860708520702715" lon="9.554594776089004"><ele>253.75</ele><time>2026-04-05T13:12:45Z</time></trkpt><trkpt lat="44.86065278423235" lon="9.554406810174486"><ele>250.5</ele><time>2026-04-05T13:12:46Z</time></trkpt><trkpt lat="44.86059694477894" lon="9.55424359755233"><ele>247.25</ele><time>2026-04-05T13:12:47Z</time></trkpt><trkpt lat="44.86053689395641" lon="9.5540892602101"><ele>244.0</ele><time>2026-04-05T13:12:48Z</time></trkpt><trkpt lat="44.86046425082155" lon="9.553939791174573"><ele>244.0</ele><time>2026-04-05T13:12:49Z</time></trkpt><trkpt lat="44.86038307415446" lon="9.553831195684888"><ele>243.99999999999997</ele><time>2026-04-05T13:12:50Z</time></trkpt><trkpt lat="44.86031737635064" lon="9.553730846885648"><ele>243.99999999999997</ele><time>2026-04-05T13:12:51Z</time></trkpt><trkpt lat="44.86023015481526" lon="9.553711453955158"><ele>244.0</ele><time>2026-04-05T13:12:52Z</time></trkpt><trkpt lat="44.86013683649809" lon="9.553711760091673"><ele>244.0</ele><time>2026-04-05T13:12:53Z</time></trkpt><trkpt lat="44.860022613644944" lon="9.55371969036708"><ele>246.0</ele><time>2026-04-05T13:12:54Z</time></trkpt><trkpt lat="44.859896533733036" lon="9.553711582620057"><ele>247.99999999999997</ele><time>2026-04-05T13:12:55Z</time></trkpt><trkpt lat="44.85980069599596" lon="9.553711654851908"><ele>249.99999999999997</ele><time>2026-04-05T13:12:56Z</time></trkpt><trkpt lat="44.859757564299485" lon="9.553602975489385"><ele>252.0</ele><time>2026-04-05T13:12:57Z</time></trkpt><trkpt lat="44.859695896483316" lon="9.553480843524643"><ele>254.0</ele><time>2026-04-05T13:12:58Z</time></trkpt><trkpt lat="44.85963394832966" lon="9.553341711057111"><ele>254.0</ele><time>2026-04-05T13:12:59Z</time></trkpt><trkpt lat="44.859569198967854" lon="9.55315829942853"><ele>254.0</ele><time>2026-04-05T13:13:00Z</time></trkpt><trkpt lat="44.859500120715175" lon="9.55298252777151"><ele>254.0</ele><time>2026-04-05T13:13:01Z</time></trkpt><trkpt lat="44.85941335767419" lon="9.552829785656936"><ele>254.0</ele><time>2026-04-05T13:13:02Z</time></trkpt><trkpt lat="44.859338077064635" lon="9.552672355030326"><ele>260.0</ele><time>2026-04-05T13:13:03Z</time></trkpt><trkpt lat="44.859273390690646" lon="9.552515059716328"><ele>266.0</ele><time>2026-04-05T13:13:04Z</time></trkpt><trkpt lat="44.85918953952776" lon="9.552401072933558"><ele>272.0</ele><time>2026-04-05T13:13:05Z</time></trkpt><trkpt lat="44.85906127800228" lon="9.552301146697841"><ele>278.0</ele><time>2026-04-05T13:13:06Z</time></trkpt><trkpt lat="44.858962243260265" lon="9.552212418077586"><ele>278.0</ele><time>2026-04-05T13:13:07Z</time></trkpt><trkpt lat="44.858844933479865" lon="9.552138510101033"><ele>278.0</ele><time>2026-04-05T13:13:08Z</time></trkpt><trkpt lat="44.8587153960652" lon="9.552080931352055"><ele>278.0</ele><time>2026-04-05T13:13:09Z</time></trkpt><trkpt lat="44.8585734811323" lon="9.552031972286049"><ele>278.0</ele><time>2026-04-05T13:13:10Z</time></trkpt><trkpt lat="44.858436922296804" lon="9.551966547213832"><ele>278.6</ele><time>2026-04-05T13:13:11Z</time></trkpt><trkpt lat="44.85831894544005" lon="9.551887116678655"><ele>279.20000000000005</ele><time>2026-04-05T13:13:12Z</time></trkpt><trkpt lat="44.85822464062645" lon="9.55182868883889"><ele>279.8</ele><time>2026-04-05T13:13:13Z</time></trkpt><trkpt lat="44.8581439438476" lon="9.551819342739995"><ele>280.40000000000003</ele><time>2026-04-05T13:13:14Z</time></trkpt><trkpt lat="44.85807636836377" lon="9.551861193985296"><ele>281.0</ele><time>2026-04-05T13:13:15Z</time></trkpt><trkpt lat="44.85802403675598" lon="9.55193458069425"><ele>281.0</ele><time>2026-04-05T13:13:16Z</time></trkpt><trkpt lat="44.8579707647952" lon="9.552038068841053"><ele>281.0</ele><time>2026-04-05T13:13:17Z</time></trkpt><trkpt lat="44.857914827327455" lon="9.55214157368178"><ele>281.0</ele><time>2026-04-05T13:13:18.001Z</time></trkpt><trkpt lat="44.85785163135038" lon="9.552251341212017"><ele>281.0</ele><time>2026-04-05T13:13:19.001Z</time></trkpt><trkpt lat="44.85778553086295" lon="9.552343221694088"><ele>281.0</ele><time>2026-04-05T13:13:20.001Z</time></trkpt><trkpt lat="44.85773780094269" lon="9.552459907657843"><ele>285.6</ele><time>2026-04-05T13:13:21.001Z</time></trkpt><trkpt lat="44.85771451297865" lon="9.552595089655146"><ele>290.20000000000005</ele><time>2026-04-05T13:13:22.001Z</time></trkpt><trkpt lat="44.85771627220804" lon="9.552742246337466"><ele>294.79999999999995</ele><time>2026-04-05T13:13:23.001Z</time></trkpt><trkpt lat="44.857714367510376" lon="9.552893927935273"><ele>299.4</ele><time>2026-04-05T13:13:24.001Z</time></trkpt><trkpt lat="44.85770544093401" lon="9.553027687041887"><ele>304.0</ele><time>2026-04-05T13:13:25.001Z</time></trkpt><trkpt lat="44.857681040862566" lon="9.553146058199161"><ele>304.8</ele><time>2026-04-05T13:13:26.001Z</time></trkpt><trkpt lat="44.85763275362579" lon="9.553297135127877"><ele>305.59999999999997</ele><time>2026-04-05T13:13:27.001Z</time></trkpt><trkpt lat="44.85759226360103" lon="9.553447090539851"><ele>306.4</ele><time>2026-04-05T13:13:28.001Z</time></trkpt><trkpt lat="44.857567860198074" lon="9.553586723029564"><ele>307.2</ele><time>2026-04-05T13:13:29.001Z</time></trkpt><trkpt lat="44.85756136842181" lon="9.553744774098485"><ele>308.0</ele><time>2026-04-05T13:13:30.001Z</time></trkpt><trkpt lat="44.857567925330656" lon="9.553912959133076"><ele>311.25</ele><time>2026-04-05T13:13:31.001Z</time></trkpt><trkpt lat="44.857574644411784" lon="9.554084971061046"><ele>314.5</ele><time>2026-04-05T13:13:32.001Z</time></trkpt><trkpt lat="44.85758020071977" lon="9.554260282688714"><ele>317.75</ele><time>2026-04-05T13:13:33.001Z</time></trkpt><trkpt lat="44.85757948741137" lon="9.554445479395207"><ele>321.0</ele><time>2026-04-05T13:13:34.001Z</time></trkpt><trkpt lat="44.85758409514682" lon="9.554624706918668"><ele>324.25</ele><time>2026-04-05T13:13:35.001Z</time></trkpt><trkpt lat="44.85759324122054" lon="9.55478938379761"><ele>327.5</ele><time>2026-04-05T13:13:36.001Z</time></trkpt><trkpt lat="44.85756037540905" lon="9.554938295119953"><ele>330.75</ele><time>2026-04-05T13:13:37.001Z</time></trkpt><trkpt lat="44.857524839594305" lon="9.555090747156282"><ele>334.0</ele><time>2026-04-05T13:13:38.001Z</time></trkpt><trkpt lat="44.85747499139414" lon="9.55524270636832"><ele>337.25</ele><time>2026-04-05T13:13:39Z</time></trkpt><trkpt lat="44.857414112554295" lon="9.555387862641702"><ele>340.5</ele><time>2026-04-05T13:13:40Z</time></trkpt><trkpt lat="44.857350760665426" lon="9.555523066227494"><ele>343.75</ele><time>2026-04-05T13:13:41Z</time></trkpt><trkpt lat="44.85730692942766" lon="9.555672587961777"><ele>347.0</ele><time>2026-04-05T13:13:42Z</time></trkpt><trkpt lat="44.85728713051322" lon="9.555850204022812"><ele>347.0</ele><time>2026-04-05T13:13:43Z</time></trkpt><trkpt lat="44.8572496453578" lon="9.556022823068322"><ele>347.0</ele><time>2026-04-05T13:13:44Z</time></trkpt><trkpt lat="44.85720808973101" lon="9.55617964313785"><ele>347.0</ele><time>2026-04-05T13:13:45Z</time></trkpt><trkpt lat="44.857178311315025" lon="9.55634842838046"><ele>347.0</ele><time>2026-04-05T13:13:46Z</time></trkpt><trkpt lat="44.85712545425928" lon="9.55651894738308"><ele>349.75</ele><time>2026-04-05T13:13:47Z</time></trkpt><trkpt lat="44.85708569895165" lon="9.556708275628237"><ele>352.5</ele><time>2026-04-05T13:13:48Z</time></trkpt><trkpt lat="44.85703954340087" lon="9.556906115403452"><ele>355.25</ele><time>2026-04-05T13:13:49Z</time></trkpt><trkpt lat="44.85698783119065" lon="9.557096079177967"><ele>358.0</ele><time>2026-04-05T13:13:50Z</time></trkpt><trkpt lat="44.856932483401756" lon="9.557258129420234"><ele>360.0</ele><time>2026-04-05T13:13:51Z</time></trkpt><trkpt lat="44.85684142231736" lon="9.557375598072653"><ele>362.0</ele><time>2026-04-05T13:13:52Z</time></trkpt><trkpt lat="44.856804209059874" lon="9.55749611533675"><ele>364.0</ele><time>2026-04-05T13:13:53Z</time></trkpt><trkpt lat="44.856828990767575" lon="9.55762367986185"><ele>366.0</ele><time>2026-04-05T13:13:55Z</time></trkpt><trkpt lat="44.85697902745182" lon="9.55763721806232"><ele>366.0</ele><time>2026-04-05T13:13:57Z</time></trkpt><trkpt lat="44.85704018311674" lon="9.557517215490776"><ele>366.0</ele><time>2026-04-05T13:13:58Z</time></trkpt><trkpt lat="44.85711066535012" lon="9.557405588635953"><ele>366.0</ele><time>2026-04-05T13:13:59Z</time></trkpt><trkpt lat="44.85719865749724" lon="9.557314836023828"><ele>366.0</ele><time>2026-04-05T13:14:00Z</time></trkpt><trkpt lat="44.85730481807667" lon="9.557218705518537"><ele>366.0</ele><time>2026-04-05T13:14:01Z</time></trkpt><trkpt lat="44.857423411106986" lon="9.55711569345157"><ele>364.4</ele><time>2026-04-05T13:14:02Z</time></trkpt><trkpt lat="44.85754079208897" lon="9.557020915362612"><ele>362.8</ele><time>2026-04-05T13:14:03Z</time></trkpt><trkpt lat="44.85763370946258" lon="9.556970490636523"><ele>361.2</ele><time>2026-04-05T13:14:04Z</time></trkpt><trkpt lat="44.85771657286042" lon="9.556962716081317"><ele>359.59999999999997</ele><time>2026-04-05T13:14:06Z</time></trkpt><trkpt lat="44.857700174195664" lon="9.557071393881627"><ele>358.0</ele><time>2026-04-05T13:14:08Z</time></trkpt><trkpt lat="44.85762606111659" lon="9.557255842899522"><ele>360.0</ele><time>2026-04-05T13:14:10Z</time></trkpt><trkpt lat="44.85757503264588" lon="9.557399241703225"><ele>362.0</ele><time>2026-04-05T13:14:11Z</time></trkpt><trkpt lat="44.85754163824432" lon="9.557574241223683"><ele>364.0</ele><time>2026-04-05T13:14:12Z</time></trkpt><trkpt lat="44.85753114657381" lon="9.55777980115246"><ele>366.0</ele><time>2026-04-05T13:14:13Z</time></trkpt><trkpt lat="44.85747983758282" lon="9.55798876961609"><ele>368.3333333333333</ele><time>2026-04-05T13:14:14Z</time></trkpt><trkpt lat="44.85742971073521" lon="9.55821098054783"><ele>370.66666666666663</ele><time>2026-04-05T13:14:15Z</time></trkpt><trkpt lat="44.85736618924624" lon="9.558433905512612"><ele>373.0</ele><time>2026-04-05T13:14:16Z</time></trkpt><trkpt lat="44.8572994161129" lon="9.558646850783884"><ele>375.59999999999997</ele><time>2026-04-05T13:14:17Z</time></trkpt><trkpt lat="44.85724679482101" lon="9.558820045690576"><ele>378.2</ele><time>2026-04-05T13:14:18Z</time></trkpt><trkpt lat="44.85720280210618" lon="9.558958337394122"><ele>380.8</ele><time>2026-04-05T13:14:19Z</time></trkpt><trkpt lat="44.857153636931464" lon="9.559081134908501"><ele>383.4</ele><time>2026-04-05T13:14:20Z</time></trkpt><trkpt lat="44.85712758817116" lon="9.55919761946999"><ele>386.0</ele><time>2026-04-05T13:14:21Z</time></trkpt><trkpt lat="44.85712568327922" lon="9.559301522828747"><ele>386.0</ele><time>2026-04-05T13:14:22Z</time></trkpt><trkpt lat="44.85715371107627" lon="9.55940296752939"><ele>386.0</ele><time>2026-04-05T13:14:23Z</time></trkpt><trkpt lat="44.857221700480665" lon="9.559489880566218"><ele>386.0</ele><time>2026-04-05T13:14:24Z</time></trkpt><trkpt lat="44.85733514886782" lon="9.55950239593748"><ele>386.0</ele><time>2026-04-05T13:14:25Z</time></trkpt><trkpt lat="44.85744342788947" lon="9.559519671557492"><ele>386.0</ele><time>2026-04-05T13:14:26Z</time></trkpt><trkpt lat="44.85756049556055" lon="9.559556281354483"><ele>388.8</ele><time>2026-04-05T13:14:27Z</time></trkpt><trkpt lat="44.85766985628038" lon="9.559632484549065"><ele>391.6</ele><time>2026-04-05T13:14:28Z</time></trkpt><trkpt lat="44.857757800637124" lon="9.559699568923325"><ele>394.4</ele><time>2026-04-05T13:14:29Z</time></trkpt><trkpt lat="44.85778581028354" lon="9.55978525932153"><ele>397.2</ele><time>2026-04-05T13:14:30Z</time></trkpt><trkpt lat="44.85773769625279" lon="9.559873974901668"><ele>400.0</ele><time>2026-04-05T13:14:32Z</time></trkpt><trkpt lat="44.85760347099648" lon="9.559965485304557"><ele>400.0</ele><time>2026-04-05T13:14:34Z</time></trkpt><trkpt lat="44.857488689399496" lon="9.559985953462254"><ele>400.0</ele><time>2026-04-05T13:14:35Z</time></trkpt><trkpt lat="44.85741605623717" lon="9.560070481558396"><ele>400.0</ele><time>2026-04-05T13:14:36Z</time></trkpt><trkpt lat="44.85737217464369" lon="9.560178967880857"><ele>400.0</ele><time>2026-04-05T13:14:37Z</time></trkpt><trkpt lat="44.85732703233993" lon="9.560294177351482"><ele>400.0</ele><time>2026-04-05T13:14:38Z</time></trkpt><trkpt lat="44.85732764608374" lon="9.560464263703572"><ele>402.0</ele><time>2026-04-05T13:14:39Z</time></trkpt><trkpt lat="44.85729586090505" lon="9.560653174619116"><ele>404.0</ele><time>2026-04-05T13:14:40Z</time></trkpt><trkpt lat="44.85727972117208" lon="9.56081644089053"><ele>406.0</ele><time>2026-04-05T13:14:41Z</time></trkpt><trkpt lat="44.857262556926685" lon="9.56095159764868"><ele>408.0</ele><time>2026-04-05T13:14:42Z</time></trkpt><trkpt lat="44.85725116906181" lon="9.561053743829167"><ele>410.0</ele><time>2026-04-05T13:14:43Z</time></trkpt><trkpt lat="44.85716923938722" lon="9.561120608734162"><ele>410.0</ele><time>2026-04-05T13:14:44Z</time></trkpt><trkpt lat="44.857062525173575" lon="9.561185271932139"><ele>410.0</ele><time>2026-04-05T13:14:45Z</time></trkpt><trkpt lat="44.85695607888507" lon="9.561284975971407"><ele>410.0</ele><time>2026-04-05T13:14:46Z</time></trkpt><trkpt lat="44.856869690430926" lon="9.56139380814782"><ele>410.0</ele><time>2026-04-05T13:14:47Z</time></trkpt><trkpt lat="44.856805104941614" lon="9.561463266454354"><ele>410.0</ele><time>2026-04-05T13:14:48Z</time></trkpt><trkpt lat="44.85672736364148" lon="9.561443239250282"><ele>412.5</ele><time>2026-04-05T13:14:49Z</time></trkpt><trkpt lat="44.85664255514763" lon="9.561374560570256"><ele>415.0</ele><time>2026-04-05T13:14:50Z</time></trkpt><trkpt lat="44.85654075434399" lon="9.56127301540152"><ele>417.5</ele><time>2026-04-05T13:14:51Z</time></trkpt><trkpt lat="44.856413531917966" lon="9.56116700525953"><ele>420.0</ele><time>2026-04-05T13:14:52Z</time></trkpt><trkpt lat="44.8562949477713" lon="9.56109236432406"><ele>416.2</ele><time>2026-04-05T13:14:53Z</time></trkpt><trkpt lat="44.85618095481533" lon="9.561042147222823"><ele>412.4</ele><time>2026-04-05T13:14:54Z</time></trkpt><trkpt lat="44.856070189276714" lon="9.561043251123555"><ele>408.6</ele><time>2026-04-05T13:14:55Z</time></trkpt><trkpt lat="44.855988617814425" lon="9.561037607334537"><ele>404.8</ele><time>2026-04-05T13:14:56Z</time></trkpt><trkpt lat="44.855914434962884" lon="9.561074032823024"><ele>401.0</ele><time>2026-04-05T13:14:57Z</time></trkpt><trkpt lat="44.85581880426904" lon="9.561156980397866"><ele>409.0</ele><time>2026-04-05T13:14:58Z</time></trkpt><trkpt lat="44.85567241646728" lon="9.561253639693293"><ele>417.0</ele><time>2026-04-05T13:14:59Z</time></trkpt><trkpt lat="44.85552958399708" lon="9.561348576557798"><ele>425.0</ele><time>2026-04-05T13:15:00Z</time></trkpt><trkpt lat="44.85538627940778" lon="9.561468848281118"><ele>425.0</ele><time>2026-04-05T13:15:01Z</time></trkpt><trkpt lat="44.8552674655106" lon="9.561569608974168"><ele>425.0</ele><time>2026-04-05T13:15:02Z</time></trkpt><trkpt lat="44.855173260081415" lon="9.561615332518098"><ele>425.0</ele><time>2026-04-05T13:15:03Z</time></trkpt><trkpt lat="44.85508432150062" lon="9.561608084107265"><ele>425.0</ele><time>2026-04-05T13:15:04Z</time></trkpt><trkpt lat="44.85500881172875" lon="9.561620391279542"><ele>425.0</ele><time>2026-04-05T13:15:05Z</time></trkpt><trkpt lat="44.85494436703062" lon="9.561628302123735"><ele>422.75</ele><time>2026-04-05T13:15:06Z</time></trkpt><trkpt lat="44.85486924098018" lon="9.5616598950009"><ele>420.5</ele><time>2026-04-05T13:15:08Z</time></trkpt><trkpt lat="44.8548912249456" lon="9.561897534669141"><ele>418.25</ele><time>2026-04-05T13:15:09Z</time></trkpt><trkpt lat="44.85500759078635" lon="9.56197004858192"><ele>416.0</ele><time>2026-04-05T13:15:11Z</time></trkpt><trkpt lat="44.85509653045227" lon="9.561997183541518"><ele>417.8</ele><time>2026-04-05T13:15:12Z</time></trkpt><trkpt lat="44.85520603653727" lon="9.561992140849236"><ele>419.6</ele><time>2026-04-05T13:15:13Z</time></trkpt><trkpt lat="44.85529852637421" lon="9.562006991397427"><ele>421.4</ele><time>2026-04-05T13:15:14Z</time></trkpt><trkpt lat="44.8554103984103" lon="9.56195197710615"><ele>423.2</ele><time>2026-04-05T13:15:16Z</time></trkpt><trkpt lat="44.85550750581896" lon="9.561865524508985"><ele>425.0</ele><time>2026-04-05T13:15:17Z</time></trkpt><trkpt lat="44.85564478314924" lon="9.561816509071033"><ele>425.0</ele><time>2026-04-05T13:15:18Z</time></trkpt><trkpt lat="44.85577887493023" lon="9.561792274335899"><ele>425.0</ele><time>2026-04-05T13:15:19Z</time></trkpt><trkpt lat="44.85587647684192" lon="9.561753609816023"><ele>425.0</ele><time>2026-04-05T13:15:20Z</time></trkpt><trkpt lat="44.85596862142945" lon="9.561738538762532"><ele>425.0</ele><time>2026-04-05T13:15:21Z</time></trkpt><trkpt lat="44.856062049909895" lon="9.561744207591722"><ele>425.0</ele><time>2026-04-05T13:15:22.001Z</time></trkpt><trkpt lat="44.8561497048823" lon="9.561756459787974"><ele>424.0</ele><time>2026-04-05T13:15:23.001Z</time></trkpt><trkpt lat="44.85621649700948" lon="9.561765944574733"><ele>423.0</ele><time>2026-04-05T13:15:25.001Z</time></trkpt><trkpt lat="44.85628273313197" lon="9.561852023277025"><ele>422.0</ele><time>2026-04-05T13:15:29.001Z</time></trkpt><trkpt lat="44.85635634572006" lon="9.56195284467639"><ele>421.0</ele><time>2026-04-05T13:15:31.001Z</time></trkpt><trkpt lat="44.856409514990425" lon="9.562078931859345"><ele>420.0</ele><time>2026-04-05T13:15:32.001Z</time></trkpt><trkpt lat="44.85647711429965" lon="9.562166087330146"><ele>424.8333333333333</ele><time>2026-04-05T13:15:33.001Z</time></trkpt><trkpt lat="44.85652537364985" lon="9.562272289936578"><ele>429.66666666666663</ele><time>2026-04-05T13:15:35.001Z</time></trkpt><trkpt lat="44.856548001379295" lon="9.562372905180853"><ele>434.5</ele><time>2026-04-05T13:15:36.001Z</time></trkpt><trkpt lat="44.85659402766561" lon="9.562459048043745"><ele>439.3333333333333</ele><time>2026-04-05T13:15:37.001Z</time></trkpt><trkpt lat="44.85664505125824" lon="9.562579896716704"><ele>444.16666666666663</ele><time>2026-04-05T13:15:39.001Z</time></trkpt><trkpt lat="44.85670512171471" lon="9.56267297999135"><ele>449.0</ele><time>2026-04-05T13:15:41.001Z</time></trkpt><trkpt lat="44.85675160777178" lon="9.562733018680248"><ele>451.25</ele><time>2026-04-05T13:15:43.001Z</time></trkpt><trkpt lat="44.856793227051696" lon="9.562811088841142"><ele>453.5</ele><time>2026-04-05T13:15:45Z</time></trkpt><trkpt lat="44.85689998860537" lon="9.562956304279517"><ele>455.75</ele><time>2026-04-05T13:15:46Z</time></trkpt><trkpt lat="44.856981611968" lon="9.563071208516199"><ele>458.0</ele><time>2026-04-05T13:15:48Z</time></trkpt><trkpt lat="44.85705624596155" lon="9.563208027092701"><ele>458.0</ele><time>2026-04-05T13:15:50Z</time></trkpt><trkpt lat="44.85711154497729" lon="9.563259416406645"><ele>458.0</ele><time>2026-04-05T13:15:51Z</time></trkpt><trkpt lat="44.85718170543146" lon="9.563323244043021"><ele>458.0</ele><time>2026-04-05T13:15:52Z</time></trkpt><trkpt lat="44.857238869764835" lon="9.563383955976185"><ele>458.0</ele><time>2026-04-05T13:15:53Z</time></trkpt><trkpt lat="44.85727844447551" lon="9.563455404464909"><ele>458.0</ele><time>2026-04-05T13:15:54Z</time></trkpt><trkpt lat="44.85734176571659" lon="9.563551094709103"><ele>458.0</ele><time>2026-04-05T13:15:56Z</time></trkpt><trkpt lat="44.85740685191352" lon="9.563574410938227"><ele>458.0</ele><time>2026-04-05T13:16:00Z</time></trkpt><trkpt lat="44.857446911392415" lon="9.563643241964938"><ele>461.0</ele><time>2026-04-05T13:16:02Z</time></trkpt><trkpt lat="44.857507545287326" lon="9.563707460993264"><ele>463.99999999999994</ele><time>2026-04-05T13:16:04Z</time></trkpt><trkpt lat="44.85758905016907" lon="9.563814543126577"><ele>466.99999999999994</ele><time>2026-04-05T13:16:06Z</time></trkpt><trkpt lat="44.857646553941805" lon="9.563932498433536"><ele>470.0</ele><time>2026-04-05T13:16:08Z</time></trkpt><trkpt lat="44.85771056193799" lon="9.563968339036357"><ele>473.0</ele><time>2026-04-05T13:16:12Z</time></trkpt><trkpt lat="44.85778660048578" lon="9.564080384855021"><ele>473.0</ele><time>2026-04-05T13:16:14Z</time></trkpt><trkpt lat="44.85793775463597" lon="9.56422390319121"><ele>473.0</ele><time>2026-04-05T13:16:16Z</time></trkpt><trkpt lat="44.857992592469984" lon="9.564274128129387"><ele>473.0</ele><time>2026-04-05T13:16:17Z</time></trkpt><trkpt lat="44.858097072944446" lon="9.564373336601946"><ele>473.0</ele><time>2026-04-05T13:16:19Z</time></trkpt><trkpt lat="44.858161615260904" lon="9.564441567086481"><ele>472.99999999999994</ele><time>2026-04-05T13:16:20Z</time></trkpt><trkpt lat="44.85821510469633" lon="9.564502326231104"><ele>473.0</ele><time>2026-04-05T13:16:21Z</time></trkpt><trkpt lat="44.858277797061234" lon="9.564633902622425"><ele>473.0</ele><time>2026-04-05T13:16:23Z</time></trkpt><trkpt lat="44.85830704635259" lon="9.564714691509277"><ele>473.0</ele><time>2026-04-05T13:16:24Z</time></trkpt><trkpt lat="44.85834068677723" lon="9.56481489979502"><ele>472.99999999999994</ele><time>2026-04-05T13:16:25Z</time></trkpt><trkpt lat="44.8583733566376" lon="9.564902533434605"><ele>473.0</ele><time>2026-04-05T13:16:26Z</time></trkpt><trkpt lat="44.85841511964278" lon="9.564978835620625"><ele>474.4</ele><time>2026-04-05T13:16:27Z</time></trkpt><trkpt lat="44.858486881499275" lon="9.564998455375727"><ele>475.79999999999995</ele><time>2026-04-05T13:16:29Z</time></trkpt><trkpt lat="44.85857421349508" lon="9.565122180276639"><ele>477.2</ele><time>2026-04-05T13:16:31Z</time></trkpt><trkpt lat="44.85864207213093" lon="9.565255806220119"><ele>478.6</ele><time>2026-04-05T13:16:33Z</time></trkpt><trkpt lat="44.858715232956946" lon="9.565354599434459"><ele>480.0</ele><time>2026-04-05T13:16:35Z</time></trkpt><trkpt lat="44.85875470051003" lon="9.565436831753372"><ele>482.3333333333333</ele><time>2026-04-05T13:16:36Z</time></trkpt><trkpt lat="44.858749738595336" lon="9.565531552969285"><ele>484.66666666666663</ele><time>2026-04-05T13:16:38Z</time></trkpt><trkpt lat="44.85879431902729" lon="9.565681892230037"><ele>487.0</ele><time>2026-04-05T13:16:40Z</time></trkpt><trkpt lat="44.85883633664003" lon="9.565762052113614"><ele>489.3333333333333</ele><time>2026-04-05T13:16:42Z</time></trkpt><trkpt lat="44.858867614536344" lon="9.565873440809535"><ele>491.66666666666663</ele><time>2026-04-05T13:16:44Z</time></trkpt><trkpt lat="44.858902431475755" lon="9.565949894227566"><ele>494.0</ele><time>2026-04-05T13:16:46Z</time></trkpt><trkpt lat="44.858995321528596" lon="9.566151226808838"><ele>495.3333333333333</ele><time>2026-04-05T13:16:48Z</time></trkpt><trkpt lat="44.859031680566396" lon="9.566297521104245"><ele>496.66666666666663</ele><time>2026-04-05T13:16:50Z</time></trkpt><trkpt lat="44.85907567230202" lon="9.566366104662118"><ele>498.0</ele><time>2026-04-05T13:16:52Z</time></trkpt><trkpt lat="44.859084423340995" lon="9.566501969097883"><ele>499.33333333333337</ele><time>2026-04-05T13:16:54Z</time></trkpt><trkpt lat="44.85911268312407" lon="9.566582102501327"><ele>500.6666666666667</ele><time>2026-04-05T13:16:55Z</time></trkpt><trkpt lat="44.85913285286727" lon="9.566668786454613"><ele>502.0</ele><time>2026-04-05T13:16:56Z</time></trkpt><trkpt lat="44.8591707596432" lon="9.566791302237295"><ele>502.0</ele><time>2026-04-05T13:16:58Z</time></trkpt><trkpt lat="44.859195876223716" lon="9.566874071619202"><ele>502.00000000000006</ele><time>2026-04-05T13:16:59Z</time></trkpt><trkpt lat="44.85924341710531" lon="9.567016041744743"><ele>502.00000000000006</ele><time>2026-04-05T13:17:01Z</time></trkpt><trkpt lat="44.85929832497226" lon="9.56713390066152"><ele>502.0</ele><time>2026-04-05T13:17:03Z</time></trkpt><trkpt lat="44.85938739788799" lon="9.567216325496174"><ele>502.0</ele><time>2026-04-05T13:17:05Z</time></trkpt><trkpt lat="44.859477715582756" lon="9.5672944713041"><ele>498.40000000000003</ele><time>2026-04-05T13:17:07Z</time></trkpt><trkpt lat="44.85957161839959" lon="9.567379545738188"><ele>494.80000000000007</ele><time>2026-04-05T13:17:09Z</time></trkpt><trkpt lat="44.85963351461785" lon="9.567441723225572"><ele>491.2</ele><time>2026-04-05T13:17:10Z</time></trkpt><trkpt lat="44.85971608650235" lon="9.567531866211068"><ele>487.6</ele><time>2026-04-05T13:17:12Z</time></trkpt><trkpt lat="44.85980968620086" lon="9.56761123493885"><ele>484.0</ele><time>2026-04-05T13:17:14Z</time></trkpt><trkpt lat="44.859868266312816" lon="9.56765744579783"><ele>484.00000000000006</ele><time>2026-04-05T13:17:15Z</time></trkpt><trkpt lat="44.859912114999084" lon="9.567741681537997"><ele>484.0</ele><time>2026-04-05T13:17:16Z</time></trkpt><trkpt lat="44.85994767304175" lon="9.567829469223186"><ele>484.0</ele><time>2026-04-05T13:17:17Z</time></trkpt><trkpt lat="44.860015263368446" lon="9.567929533372448"><ele>484.0</ele><time>2026-04-05T13:17:19Z</time></trkpt><trkpt lat="44.86008055709555" lon="9.56805396088029"><ele>484.00000000000006</ele><time>2026-04-05T13:17:21.001Z</time></trkpt><trkpt lat="44.86010880903692" lon="9.568158674879532"><ele>484.0</ele><time>2026-04-05T13:17:23.001Z</time></trkpt><trkpt lat="44.86015748075552" lon="9.568216531722449"><ele>481.0</ele><time>2026-04-05T13:17:25.001Z</time></trkpt><trkpt lat="44.86018978797666" lon="9.568343598825619"><ele>478.0</ele><time>2026-04-05T13:17:27.001Z</time></trkpt><trkpt lat="44.860224283481195" lon="9.56846882144976"><ele>475.0</ele><time>2026-04-05T13:17:29.001Z</time></trkpt><trkpt lat="44.860237770558086" lon="9.56857472193355"><ele>472.0</ele><time>2026-04-05T13:17:31.001Z</time></trkpt><trkpt lat="44.86028002561583" lon="9.56868128295095"><ele>469.0</ele><time>2026-04-05T13:17:33.001Z</time></trkpt><trkpt lat="44.86032200935138" lon="9.568821822368097"><ele>469.0</ele><time>2026-04-05T13:17:35.001Z</time></trkpt><trkpt lat="44.860383607594294" lon="9.568981733850082"><ele>469.0</ele><time>2026-04-05T13:17:37.001Z</time></trkpt><trkpt lat="44.860419462595516" lon="9.569060317445292"><ele>469.0</ele><time>2026-04-05T13:17:38.001Z</time></trkpt><trkpt lat="44.86050088462546" lon="9.569183235115357"><ele>469.0</ele><time>2026-04-05T13:17:40.001Z</time></trkpt><trkpt lat="44.8605537054856" lon="9.569252184287357"><ele>469.0</ele><time>2026-04-05T13:17:41.001Z</time></trkpt><trkpt lat="44.860624904058156" lon="9.56932670122605"><ele>484.0</ele><time>2026-04-05T13:17:42.001Z</time></trkpt><trkpt lat="44.85971608650235" lon="9.567531866211068"><ele>484.00000000000006</ele><time>2026-04-05T13:17:12Z</time></trkpt><trkpt lat="44.85980968620086" lon="9.56761123493885"><ele>484.0</ele><time>2026-04-05T13:17:14Z</time></trkpt><trkpt lat="44.859868266312816" lon="9.56765744579783"><ele>484.0</ele><time>2026-04-05T13:17:15Z</time></trkpt><trkpt lat="44.859912114999084" lon="9.567741681537997"><ele>484.0</ele><time>2026-04-05T13:17:16Z</time></trkpt><trkpt lat="44.85994767304175" lon="9.567829469223186"><ele>484.00000000000006</ele><time>2026-04-05T13:17:17Z</time></trkpt><trkpt lat="44.860015263368446" lon="9.567929533372448"><ele>484.0</ele><time>2026-04-05T13:17:19Z</time></trkpt><trkpt lat="44.86008055709555" lon="9.56805396088029"><ele>486.6666666666667</ele><time>2026-04-05T13:17:21.001Z</time></trkpt><trkpt lat="44.86010880903692" lon="9.568158674879532"><ele>489.33333333333337</ele><time>2026-04-05T13:17:23.001Z</time></trkpt><trkpt lat="44.86015748075552" lon="9.568216531722449"><ele>492.0</ele><time>2026-04-05T13:17:25.001Z</time></trkpt><trkpt lat="44.86018978797666" lon="9.568343598825619"><ele>494.66666666666663</ele><time>2026-04-05T13:17:27.001Z</time></trkpt><trkpt lat="44.860224283481195" lon="9.56846882144976"><ele>497.3333333333333</ele><time>2026-04-05T13:17:29.001Z</time></trkpt><trkpt lat="44.860237770558086" lon="9.56857472193355"><ele>500.0</ele><time>2026-04-05T13:17:31.001Z</time></trkpt><trkpt lat="44.86028002561583" lon="9.56868128295095"><ele>493.8</ele><time>2026-04-05T13:17:33.001Z</time></trkpt><trkpt lat="44.86032200935138" lon="9.568821822368097"><ele>487.6</ele><time>2026-04-05T13:17:35.001Z</time></trkpt><trkpt lat="44.860383607594294" lon="9.568981733850082"><ele>481.4</ele><time>2026-04-05T13:17:37.001Z</time></trkpt><trkpt lat="44.860419462595516" lon="9.569060317445292"><ele>475.2</ele><time>2026-04-05T13:17:38.001Z</time></trkpt><trkpt lat="44.86050088462546" lon="9.569183235115357"><ele>469.0</ele><time>2026-04-05T13:17:40.001Z</time></trkpt><trkpt lat="44.8605537054856" lon="9.569252184287357"><ele>469.00000000000006</ele><time>2026-04-05T13:17:41.001Z</time></trkpt><trkpt lat="44.860624904058156" lon="9.56932670122605"><ele>469.0</ele><time>2026-04-05T13:17:42.001Z</time></trkpt><trkpt lat="44.86069070429921" lon="9.569412266693012"><ele>469.0</ele><time>2026-04-05T13:17:43.001Z</time></trkpt><trkpt lat="44.860752945070956" lon="9.569481170453088"><ele>469.0</ele><time>2026-04-05T13:17:44.001Z</time></trkpt><trkpt lat="44.86079636648633" lon="9.569564730888445"><ele>469.00000000000006</ele><time>2026-04-05T13:17:45.001Z</time></trkpt><trkpt lat="44.86084448855598" lon="9.56962792644877"><ele>469.0</ele><time>2026-04-05T13:17:46.001Z</time></trkpt><trkpt lat="44.860905853385894" lon="9.569648937556087"><ele>466.79999999999995</ele><time>2026-04-05T13:17:47.001Z</time></trkpt><trkpt lat="44.86103354651707" lon="9.56971666772357"><ele>464.59999999999997</ele><time>2026-04-05T13:17:49.001Z</time></trkpt><trkpt lat="44.861108520606365" lon="9.56986035121878"><ele>462.4</ele><time>2026-04-05T13:17:51Z</time></trkpt><trkpt lat="44.861130327430104" lon="9.569997859509762"><ele>460.2</ele><time>2026-04-05T13:17:53Z</time></trkpt><trkpt lat="44.86113551878215" lon="9.570117738634446"><ele>458.0</ele><time>2026-04-05T13:17:56Z</time></trkpt><trkpt lat="44.86114104476683" lon="9.570209586483253"><ele>462.2</ele><time>2026-04-05T13:17:58Z</time></trkpt><trkpt lat="44.8611647082635" lon="9.57036606903106"><ele>466.4</ele><time>2026-04-05T13:18:00Z</time></trkpt><trkpt lat="44.86118797241066" lon="9.570491493000883"><ele>470.59999999999997</ele><time>2026-04-05T13:18:01Z</time></trkpt><trkpt lat="44.861212836527685" lon="9.570610635690944"><ele>474.79999999999995</ele><time>2026-04-05T13:18:02Z</time></trkpt><trkpt lat="44.861293999277116" lon="9.570710542704704"><ele>479.0</ele><time>2026-04-05T13:18:04Z</time></trkpt><trkpt lat="44.86134163477209" lon="9.570818142532135"><ele>478.99999999999994</ele><time>2026-04-05T13:18:06Z</time></trkpt><trkpt lat="44.861401617245434" lon="9.57095226909052"><ele>479.0</ele><time>2026-04-05T13:18:08Z</time></trkpt><trkpt lat="44.86142108884003" lon="9.571038183199477"><ele>479.0</ele><time>2026-04-05T13:18:09Z</time></trkpt><trkpt lat="44.86143654498934" lon="9.571151105024999"><ele>479.0</ele><time>2026-04-05T13:18:10Z</time></trkpt><trkpt lat="44.86145627324086" lon="9.57123869576774"><ele>478.99999999999994</ele><time>2026-04-05T13:18:11Z</time></trkpt><trkpt lat="44.86146624875611" lon="9.571328199818597"><ele>479.0</ele><time>2026-04-05T13:18:12Z</time></trkpt><trkpt lat="44.86145842702141" lon="9.571457806457481"><ele>482.99999999999994</ele><time>2026-04-05T13:18:13Z</time></trkpt><trkpt lat="44.8614541056924" lon="9.57157787106213"><ele>487.0</ele><time>2026-04-05T13:18:14Z</time></trkpt><trkpt lat="44.86144924026438" lon="9.571675753989721"><ele>491.0</ele><time>2026-04-05T13:18:15Z</time></trkpt><trkpt lat="44.86146025719285" lon="9.57178705028681"><ele>495.0</ele><time>2026-04-05T13:18:16Z</time></trkpt><trkpt lat="44.86146517747423" lon="9.57192882166206"><ele>498.99999999999994</ele><time>2026-04-05T13:18:17Z</time></trkpt><trkpt lat="44.86149249735818" lon="9.572028453464025"><ele>503.0</ele><time>2026-04-05T13:18:18Z</time></trkpt><trkpt lat="44.861561700286266" lon="9.572080972136815"><ele>505.49999999999994</ele><time>2026-04-05T13:18:19Z</time></trkpt><trkpt lat="44.86163396751689" lon="9.572119394743103"><ele>508.0</ele><time>2026-04-05T13:18:20Z</time></trkpt><trkpt lat="44.86171423198775" lon="9.572248171481327"><ele>510.5</ele><time>2026-04-05T13:18:22Z</time></trkpt><trkpt lat="44.86175828700105" lon="9.572319036801648"><ele>513.0</ele><time>2026-04-05T13:18:23Z</time></trkpt><trkpt lat="44.861738954905746" lon="9.572411108217254"><ele>515.5</ele><time>2026-04-05T13:18:25Z</time></trkpt><trkpt lat="44.861686332941375" lon="9.57249853166663"><ele>518.0</ele><time>2026-04-05T13:18:26Z</time></trkpt><trkpt lat="44.86162804625055" lon="9.572617304535576"><ele>518.0</ele><time>2026-04-05T13:18:27Z</time></trkpt><trkpt lat="44.86157408834393" lon="9.572754516974763"><ele>518.0</ele><time>2026-04-05T13:18:28Z</time></trkpt><trkpt lat="44.86153345743577" lon="9.572886704789843"><ele>518.0</ele><time>2026-04-05T13:18:29Z</time></trkpt><trkpt lat="44.8615007662504" lon="9.572991285133833"><ele>518.0</ele><time>2026-04-05T13:18:30Z</time></trkpt><trkpt lat="44.86147823347305" lon="9.573080713888709"><ele>518.0</ele><time>2026-04-05T13:18:31Z</time></trkpt><trkpt lat="44.86144847163798" lon="9.573191115976908"><ele>518.0</ele><time>2026-04-05T13:18:32Z</time></trkpt><trkpt lat="44.86141927753835" lon="9.573297850407883"><ele>516.8333333333333</ele><time>2026-04-05T13:18:33Z</time></trkpt><trkpt lat="44.861385482234084" lon="9.57338103508665"><ele>515.6666666666666</ele><time>2026-04-05T13:18:34Z</time></trkpt><trkpt lat="44.86134612396483" lon="9.573494449627505"><ele>514.5</ele><time>2026-04-05T13:18:36Z</time></trkpt><trkpt lat="44.861297755426484" lon="9.57359442948188"><ele>513.3333333333334</ele><time>2026-04-05T13:18:38Z</time></trkpt><trkpt lat="44.86121243078581" lon="9.573661727408712"><ele>512.1666666666667</ele><time>2026-04-05T13:18:40Z</time></trkpt><trkpt lat="44.861143302628044" lon="9.573756099166145"><ele>511.0</ele><time>2026-04-05T13:18:42Z</time></trkpt><trkpt lat="44.86108421603077" lon="9.573853611613101"><ele>512.4</ele><time>2026-04-05T13:18:44Z</time></trkpt><trkpt lat="44.86099563746362" lon="9.573978759050611"><ele>513.8</ele><time>2026-04-05T13:18:46Z</time></trkpt><trkpt lat="44.86089771994108" lon="9.574070915808885"><ele>515.1999999999999</ele><time>2026-04-05T13:18:48Z</time></trkpt><trkpt lat="44.860859382094425" lon="9.574200678370966"><ele>516.6</ele><time>2026-04-05T13:18:50Z</time></trkpt><trkpt lat="44.860835884433946" lon="9.574294898047404"><ele>518.0</ele><time>2026-04-05T13:18:51Z</time></trkpt><trkpt lat="44.86078943817764" lon="9.574364588613081"><ele>518.0</ele><time>2026-04-05T13:18:52Z</time></trkpt><trkpt lat="44.86075072587818" lon="9.574514602158123"><ele>518.0</ele><time>2026-04-05T13:18:54Z</time></trkpt><trkpt lat="44.8608158102232" lon="9.574597201638879"><ele>518.0</ele><time>2026-04-05T13:18:56Z</time></trkpt><trkpt lat="44.86088716807683" lon="9.574603761957324"><ele>518.0</ele><time>2026-04-05T13:18:58Z</time></trkpt><trkpt lat="44.86101209805053" lon="9.574545543396308"><ele>518.0</ele><time>2026-04-05T13:19:00Z</time></trkpt><trkpt lat="44.86109553577279" lon="9.57443997810546"><ele>514.1999999999999</ele><time>2026-04-05T13:19:02Z</time></trkpt><trkpt lat="44.8611766226683" lon="9.574369718551843"><ele>510.4</ele><time>2026-04-05T13:19:04Z</time></trkpt><trkpt lat="44.86130639909428" lon="9.574360270145275"><ele>506.59999999999997</ele><time>2026-04-05T13:19:06Z</time></trkpt><trkpt lat="44.86139213519181" lon="9.574369251075087"><ele>502.79999999999995</ele><time>2026-04-05T13:19:07Z</time></trkpt><trkpt lat="44.86147905891186" lon="9.574349304702165"><ele>499.0</ele><time>2026-04-05T13:19:08Z</time></trkpt><trkpt lat="44.861549808301184" lon="9.574301772010736"><ele>499.0</ele><time>2026-04-05T13:19:09Z</time></trkpt><trkpt lat="44.86161655522264" lon="9.574260662128609"><ele>499.0</ele><time>2026-04-05T13:19:10Z</time></trkpt><trkpt lat="44.8617044528509" lon="9.57422870923798"><ele>499.0</ele><time>2026-04-05T13:19:11Z</time></trkpt><trkpt lat="44.861786030009384" lon="9.57420993896014"><ele>499.0</ele><time>2026-04-05T13:19:12Z</time></trkpt><trkpt lat="44.86187212432761" lon="9.574264736470074"><ele>499.0</ele><time>2026-04-05T13:19:14Z</time></trkpt><trkpt lat="44.86196087381404" lon="9.574381366670016"><ele>497.33333333333337</ele><time>2026-04-05T13:19:16Z</time></trkpt><trkpt lat="44.862074838178856" lon="9.574445210278936"><ele>495.6666666666667</ele><time>2026-04-05T13:20:49Z</time></trkpt><trkpt lat="44.862135246654574" lon="9.574498753820233"><ele>494.0</ele><time>2026-04-05T13:20:50Z</time></trkpt><trkpt lat="44.86220419968491" lon="9.574559602291046"><ele>492.33333333333337</ele><time>2026-04-05T13:20:51Z</time></trkpt><trkpt lat="44.862260009413866" lon="9.574615720492957"><ele>490.6666666666667</ele><time>2026-04-05T13:20:52Z</time></trkpt><trkpt lat="44.86232030164142" lon="9.574662719489988"><ele>489.0</ele><time>2026-04-05T13:20:53Z</time></trkpt><trkpt lat="44.86240817246071" lon="9.574796174231931"><ele>489.0</ele><time>2026-04-05T13:20:55Z</time></trkpt><trkpt lat="44.8624595305216" lon="9.574860971350486"><ele>489.0</ele><time>2026-04-05T13:20:56Z</time></trkpt><trkpt lat="44.86253212852793" lon="9.574896411334045"><ele>489.0</ele><time>2026-04-05T13:20:57Z</time></trkpt><trkpt lat="44.86262529942345" lon="9.57503936567168"><ele>489.0</ele><time>2026-04-05T13:20:59Z</time></trkpt><trkpt lat="44.86269785138761" lon="9.575121210784232"><ele>489.0</ele><time>2026-04-05T13:21:00Z</time></trkpt><trkpt lat="44.86277311557853" lon="9.57520203256226"><ele>490.3333333333333</ele><time>2026-04-05T13:21:01Z</time></trkpt><trkpt lat="44.862832860334386" lon="9.575304423900773"><ele>491.66666666666663</ele><time>2026-04-05T13:21:03Z</time></trkpt><trkpt lat="44.86288625453357" lon="9.575377325603815"><ele>493.0</ele><time>2026-04-05T13:21:05Z</time></trkpt><trkpt lat="44.8629463647742" lon="9.575462690006638"><ele>494.3333333333333</ele><time>2026-04-05T13:21:06Z</time></trkpt><trkpt lat="44.863005091435575" lon="9.575532860799703"><ele>495.66666666666663</ele><time>2026-04-05T13:21:07Z</time></trkpt><trkpt lat="44.863066876851825" lon="9.575570797403461"><ele>497.0</ele><time>2026-04-05T13:21:08Z</time></trkpt><trkpt lat="44.86315562949179" lon="9.575650030424761"><ele>496.99999999999994</ele><time>2026-04-05T13:21:10Z</time></trkpt><trkpt lat="44.863260884297624" lon="9.575607231484748"><ele>497.0</ele><time>2026-04-05T13:21:12Z</time></trkpt><trkpt lat="44.86331191629455" lon="9.57568509569988"><ele>497.0</ele><time>2026-04-05T13:21:14Z</time></trkpt><trkpt lat="44.8632826393348" lon="9.575772035910012"><ele>497.0</ele><time>2026-04-05T13:21:16Z</time></trkpt><trkpt lat="44.8633196532026" lon="9.575913569457551"><ele>496.99999999999994</ele><time>2026-04-05T13:21:19Z</time></trkpt><trkpt lat="44.86337481338383" lon="9.576006967274932"><ele>497.0</ele><time>2026-04-05T13:21:21Z</time></trkpt><trkpt lat="44.863514777274325" lon="9.576021635271507"><ele>497.0</ele><time>2026-04-05T13:21:23Z</time></trkpt><trkpt lat="44.863568250768786" lon="9.576079835289836"><ele>497.00000000000006</ele><time>2026-04-05T13:21:24Z</time></trkpt><trkpt lat="44.86361143725138" lon="9.576150105402744"><ele>497.00000000000006</ele><time>2026-04-05T13:21:25Z</time></trkpt><trkpt lat="44.86362276829104" lon="9.576347028751272"><ele>497.0</ele><time>2026-04-05T13:21:27Z</time></trkpt><trkpt lat="44.863630069913555" lon="9.576469678069016"><ele>497.0</ele><time>2026-04-05T13:21:28Z</time></trkpt><trkpt lat="44.86363222885558" lon="9.576605789089868"><ele>497.0</ele><time>2026-04-05T13:21:30Z</time></trkpt><trkpt lat="44.86365642313425" lon="9.576763902480629"><ele>497.00000000000006</ele><time>2026-04-05T13:21:32Z</time></trkpt><trkpt lat="44.863658358636904" lon="9.576894903103668"><ele>497.00000000000006</ele><time>2026-04-05T13:21:33Z</time></trkpt><trkpt lat="44.86364508021547" lon="9.577025503765624"><ele>497.0</ele><time>2026-04-05T13:21:34.001Z</time></trkpt><trkpt lat="44.86361629203028" lon="9.577120985870858"><ele>497.0</ele><time>2026-04-05T13:21:35.001Z</time></trkpt><trkpt lat="44.86355343316054" lon="9.577240922676985"><ele>499.40000000000003</ele><time>2026-04-05T13:21:36.001Z</time></trkpt><trkpt lat="44.863517160124005" lon="9.577382676784493"><ele>501.80000000000007</ele><time>2026-04-05T13:21:37.001Z</time></trkpt><trkpt lat="44.863513932915396" lon="9.577479297978288"><ele>504.2</ele><time>2026-04-05T13:21:38.001Z</time></trkpt><trkpt lat="44.86351154462328" lon="9.57763065732734"><ele>506.6</ele><time>2026-04-05T13:21:51.001Z</time></trkpt><trkpt lat="44.86350268581821" lon="9.577758578122225"><ele>509.0</ele><time>2026-04-05T13:21:53.001Z</time></trkpt><trkpt lat="44.863403093930934" lon="9.577891473171356"><ele>512.1666666666666</ele><time>2026-04-05T13:21:55.001Z</time></trkpt><trkpt lat="44.86334871886395" lon="9.577957669876737"><ele>515.3333333333333</ele><time>2026-04-05T13:21:56.001Z</time></trkpt><trkpt lat="44.86328945597567" lon="9.578021276717138"><ele>518.5</ele><time>2026-04-05T13:21:58.001Z</time></trkpt><trkpt lat="44.863320910318365" lon="9.578131985936885"><ele>521.6666666666666</ele><time>2026-04-05T13:22:00.001Z</time></trkpt><trkpt lat="44.863423960802656" lon="9.578203327874741"><ele>524.8333333333334</ele><time>2026-04-05T13:22:02Z</time></trkpt><trkpt lat="44.863490003840234" lon="9.578241577180123"><ele>528.0</ele><time>2026-04-05T13:22:04Z</time></trkpt><trkpt lat="44.863538625714156" lon="9.578353078087165"><ele>528.0</ele><time>2026-04-05T13:22:06Z</time></trkpt><trkpt lat="44.86360963067722" lon="9.578416177990084"><ele>528.0</ele><time>2026-04-05T13:22:08Z</time></trkpt><trkpt lat="44.86367339027826" lon="9.578449349719929"><ele>528.0</ele><time>2026-04-05T13:22:09Z</time></trkpt><trkpt lat="44.86373833814221" lon="9.57851171249826"><ele>528.0</ele><time>2026-04-05T13:22:10Z</time></trkpt><trkpt lat="44.86379539249507" lon="9.578556673630347"><ele>528.0</ele><time>2026-04-05T13:22:11Z</time></trkpt><trkpt lat="44.86386376660308" lon="9.578573043440711"><ele>528.0</ele><time>2026-04-05T13:22:12Z</time></trkpt><trkpt lat="44.8639684150173" lon="9.578680321953126"><ele>531.1666666666666</ele><time>2026-04-05T13:22:14Z</time></trkpt><trkpt lat="44.86403086417055" lon="9.578749938417786"><ele>534.3333333333334</ele><time>2026-04-05T13:22:15Z</time></trkpt><trkpt lat="44.864100638799506" lon="9.578813446144057"><ele>537.5</ele><time>2026-04-05T13:22:16Z</time></trkpt><trkpt lat="44.864159280513654" lon="9.578895054898801"><ele>540.6666666666667</ele><time>2026-04-05T13:22:17Z</time></trkpt><trkpt lat="44.86421075355044" lon="9.578971521488814"><ele>543.8333333333334</ele><time>2026-04-05T13:22:18Z</time></trkpt><trkpt lat="44.864266056841736" lon="9.579063867989419"><ele>547.0</ele><time>2026-04-05T13:22:19Z</time></trkpt><trkpt lat="44.86431348369947" lon="9.579174783873873"><ele>541.0</ele><time>2026-04-05T13:22:20Z</time></trkpt><trkpt lat="44.864347224821906" lon="9.579279935833657"><ele>535.0</ele><time>2026-04-05T13:22:21Z</time></trkpt><trkpt lat="44.864368873865985" lon="9.579382321999997"><ele>529.0</ele><time>2026-04-05T13:22:22Z</time></trkpt><trkpt lat="44.864391168933885" lon="9.579493968314473"><ele>523.0</ele><time>2026-04-05T13:22:23Z</time></trkpt><trkpt lat="44.86438214623443" lon="9.57958885466671"><ele>517.0</ele><time>2026-04-05T13:22:24Z</time></trkpt><trkpt lat="44.86430180331477" lon="9.57974034318571"><ele>511.0</ele><time>2026-04-05T13:22:26Z</time></trkpt><trkpt lat="44.864296880749556" lon="9.579896060397905"><ele>511.0</ele><time>2026-04-05T13:22:28Z</time></trkpt><trkpt lat="44.86431454025645" lon="9.579985537657874"><ele>511.0</ele><time>2026-04-05T13:22:29Z</time></trkpt><trkpt lat="44.864309256952914" lon="9.580142978016637"><ele>511.0</ele><time>2026-04-05T13:22:31Z</time></trkpt><trkpt lat="44.86431283375842" lon="9.58026531893374"><ele>511.0</ele><time>2026-04-05T13:22:33Z</time></trkpt><trkpt lat="44.86432604448678" lon="9.580412913970882"><ele>511.0</ele><time>2026-04-05T13:22:35Z</time></trkpt><trkpt lat="44.86437547696" lon="9.580506928447848"><ele>511.83333333333337</ele><time>2026-04-05T13:22:37Z</time></trkpt><trkpt lat="44.86448599096055" lon="9.580582328095803"><ele>512.6666666666667</ele><time>2026-04-05T13:22:39Z</time></trkpt><trkpt lat="44.86455066251039" lon="9.580695940511825"><ele>513.5</ele><time>2026-04-05T13:22:41Z</time></trkpt><trkpt lat="44.86458465122551" lon="9.580777204834243"><ele>514.3333333333334</ele><time>2026-04-05T13:22:42Z</time></trkpt><trkpt lat="44.86459834958743" lon="9.580867996345138"><ele>515.1666666666666</ele><time>2026-04-05T13:22:43Z</time></trkpt><trkpt lat="44.86461802252553" lon="9.580966618742348"><ele>516.0</ele><time>2026-04-05T13:22:44Z</time></trkpt><trkpt lat="44.86462428091819" lon="9.581071764721054"><ele>516.6</ele><time>2026-04-05T13:22:45Z</time></trkpt><trkpt lat="44.864592439182985" lon="9.581217824460598"><ele>517.2</ele><time>2026-04-05T13:22:47Z</time></trkpt><trkpt lat="44.864584579681306" lon="9.581390166856215"><ele>517.8</ele><time>2026-04-05T13:22:49Z</time></trkpt><trkpt lat="44.864596900099365" lon="9.581483266394258"><ele>518.4</ele><time>2026-04-05T13:22:50Z</time></trkpt><trkpt lat="44.86461330178518" lon="9.58157880642908"><ele>519.0</ele><time>2026-04-05T13:22:51Z</time></trkpt><trkpt lat="44.8645984484283" lon="9.581743840158786"><ele>519.0</ele><time>2026-04-05T13:22:53Z</time></trkpt><trkpt lat="44.86456994521206" lon="9.581846252123547"><ele>519.0</ele><time>2026-04-05T13:22:54Z</time></trkpt><trkpt lat="44.86456080058336" lon="9.581939692247479"><ele>519.0</ele><time>2026-04-05T13:22:55Z</time></trkpt><trkpt lat="44.86458574214811" lon="9.582101786933672"><ele>519.0</ele><time>2026-04-05T13:22:57Z</time></trkpt><trkpt lat="44.8646010618797" lon="9.582262005644594"><ele>519.0</ele><time>2026-04-05T13:22:59Z</time></trkpt><trkpt lat="44.86463310337063" lon="9.582418956030745"><ele>519.6</ele><time>2026-04-05T13:23:01Z</time></trkpt><trkpt lat="44.86465709648385" lon="9.5825834072943"><ele>520.2</ele><time>2026-04-05T13:23:03Z</time></trkpt><trkpt lat="44.86465238959086" lon="9.582672346801955"><ele>520.8000000000001</ele><time>2026-04-05T13:23:04Z</time></trkpt><trkpt lat="44.864691379351726" lon="9.582784270634573"><ele>521.4</ele><time>2026-04-05T13:23:06Z</time></trkpt><trkpt lat="44.86475355726956" lon="9.582876281337375"><ele>522.0</ele><time>2026-04-05T13:23:09Z</time></trkpt><trkpt lat="44.86484266589727" lon="9.582976746188802"><ele>523.1666666666666</ele><time>2026-04-05T13:23:11Z</time></trkpt><trkpt lat="44.864917380068285" lon="9.583055290010492"><ele>524.3333333333334</ele><time>2026-04-05T13:23:12Z</time></trkpt><trkpt lat="44.864980134464275" lon="9.583136892538437"><ele>525.5</ele><time>2026-04-05T13:23:13Z</time></trkpt><trkpt lat="44.86504342842284" lon="9.583190565906127"><ele>526.6666666666667</ele><time>2026-04-05T13:23:14Z</time></trkpt><trkpt lat="44.86509254806033" lon="9.583260840508887"><ele>527.8333333333334</ele><time>2026-04-05T13:23:16Z</time></trkpt><trkpt lat="44.86506713531055" lon="9.583355798819435"><ele>529.0</ele><time>2026-04-05T13:23:31Z</time></trkpt><trkpt lat="44.86503117602751" lon="9.583476105108174"><ele>529.0</ele><time>2026-04-05T13:23:33Z</time></trkpt><trkpt lat="44.864992176851764" lon="9.583557036320546"><ele>529.0</ele><time>2026-04-05T13:23:35Z</time></trkpt><trkpt lat="44.86506235941641" lon="9.583636476511836"><ele>529.0</ele><time>2026-04-05T13:23:38Z</time></trkpt><trkpt lat="44.865041707872415" lon="9.58383815346234"><ele>529.0</ele><time>2026-04-05T13:23:41Z</time></trkpt><trkpt lat="44.865020004806574" lon="9.583930787470088"><ele>529.0</ele><time>2026-04-05T13:23:42Z</time></trkpt><trkpt lat="44.86504717357574" lon="9.584081240889406"><ele>525.4</ele><time>2026-04-05T13:23:44Z</time></trkpt><trkpt lat="44.8651521849866" lon="9.584191082596965"><ele>521.8</ele><time>2026-04-05T13:23:46Z</time></trkpt><trkpt lat="44.865190938473475" lon="9.584263546717004"><ele>518.2</ele><time>2026-04-05T13:23:47.001Z</time></trkpt><trkpt lat="44.865189489261475" lon="9.584359163511508"><ele>514.6</ele><time>2026-04-05T13:23:48.001Z</time></trkpt><trkpt lat="44.86516555846617" lon="9.584480353916481"><ele>511.0</ele><time>2026-04-05T13:23:49.001Z</time></trkpt><trkpt lat="44.86525500348475" lon="9.584664050330613"><ele>511.0</ele><time>2026-04-05T13:23:51.001Z</time></trkpt><trkpt lat="44.86533195746423" lon="9.584761937654132"><ele>511.0</ele><time>2026-04-05T13:23:52.001Z</time></trkpt><trkpt lat="44.86540160804717" lon="9.584846040415094"><ele>511.0</ele><time>2026-04-05T13:23:53.001Z</time></trkpt><trkpt lat="44.86545319640633" lon="9.584910528637396"><ele>511.0</ele><time>2026-04-05T13:23:54.001Z</time></trkpt><trkpt lat="44.86550676651154" lon="9.585016907657245"><ele>511.0</ele><time>2026-04-05T13:23:57.001Z</time></trkpt><trkpt lat="44.865585136515726" lon="9.585122817582674"><ele>511.0</ele><time>2026-04-05T13:23:59.001Z</time></trkpt><trkpt lat="44.86562925607333" lon="9.585272010053323"><ele>511.0</ele><time>2026-04-05T13:24:01.001Z</time></trkpt><trkpt lat="44.865667527801264" lon="9.58539904835238"><ele>511.0</ele><time>2026-04-05T13:24:02.001Z</time></trkpt><trkpt lat="44.86570110784007" lon="9.585542246406588"><ele>511.0</ele><time>2026-04-05T13:24:03.001Z</time></trkpt><trkpt lat="44.86573408854024" lon="9.58566848135153"><ele>511.0</ele><time>2026-04-05T13:24:04.001Z</time></trkpt><trkpt lat="44.86576963325299" lon="9.585788211321146"><ele>511.75</ele><time>2026-04-05T13:24:05.001Z</time></trkpt><trkpt lat="44.8657821418095" lon="9.585942600771956"><ele>512.5</ele><time>2026-04-05T13:24:06.001Z</time></trkpt><trkpt lat="44.86581608150825" lon="9.586139792421942"><ele>513.25</ele><time>2026-04-05T13:24:07.001Z</time></trkpt><trkpt lat="44.86581820683029" lon="9.586277012149136"><ele>514.0</ele><time>2026-04-05T13:24:08Z</time></trkpt><trkpt lat="44.865867118689906" lon="9.586447226969016"><ele>514.1666666666667</ele><time>2026-04-05T13:24:10Z</time></trkpt><trkpt lat="44.86590499785852" lon="9.586533594254309"><ele>514.3333333333334</ele><time>2026-04-05T13:24:11Z</time></trkpt><trkpt lat="44.865962471228634" lon="9.586587214580351"><ele>514.5</ele><time>2026-04-05T13:24:12Z</time></trkpt><trkpt lat="44.86599953933738" lon="9.586659147748616"><ele>514.6666666666666</ele><time>2026-04-05T13:24:21Z</time></trkpt><trkpt lat="44.86597314708336" lon="9.586792579495016"><ele>514.8333333333333</ele><time>2026-04-05T13:24:24Z</time></trkpt><trkpt lat="44.86595023950346" lon="9.586913466082068"><ele>515.0</ele><time>2026-04-05T13:24:26Z</time></trkpt><trkpt lat="44.8659277716601" lon="9.5870545736208"><ele>515.0</ele><time>2026-04-05T13:24:28Z</time></trkpt><trkpt lat="44.86588860511342" lon="9.58719902159629"><ele>515.0</ele><time>2026-04-05T13:24:30Z</time></trkpt><trkpt lat="44.86581139877823" lon="9.587333887544503"><ele>515.0</ele><time>2026-04-05T13:24:31Z</time></trkpt><trkpt lat="44.865759854991445" lon="9.587433386923143"><ele>515.0</ele><time>2026-04-05T13:24:32Z</time></trkpt><trkpt lat="44.86569720506464" lon="9.587493001509745"><ele>515.0</ele><time>2026-04-05T13:24:33Z</time></trkpt><trkpt lat="44.86560983544906" lon="9.587513992583336"><ele>515.0</ele><time>2026-04-05T13:24:34Z</time></trkpt><trkpt lat="44.86552779470649" lon="9.58752749312473"><ele>515.0</ele><time>2026-04-05T13:24:35Z</time></trkpt><trkpt lat="44.86543768124901" lon="9.587505217051078"><ele>515.0</ele><time>2026-04-05T13:24:36Z</time></trkpt><trkpt lat="44.86535650502799" lon="9.587495250486118"><ele>515.0</ele><time>2026-04-05T13:24:37Z</time></trkpt><trkpt lat="44.86527179632394" lon="9.58743264450791"><ele>515.0</ele><time>2026-04-05T13:24:39Z</time></trkpt><trkpt lat="44.865206125587065" lon="9.58741233333602"><ele>515.0</ele><time>2026-04-05T13:24:41Z</time></trkpt><trkpt lat="44.86511104588122" lon="9.58733923065377"><ele>519.0</ele><time>2026-04-05T13:24:43Z</time></trkpt><trkpt lat="44.86503117037516" lon="9.587302972314161"><ele>523.0</ele><time>2026-04-05T13:24:44Z</time></trkpt><trkpt lat="44.86495104039718" lon="9.58727670584369"><ele>527.0</ele><time>2026-04-05T13:24:45Z</time></trkpt><trkpt lat="44.86487471134552" lon="9.587247905849548"><ele>531.0</ele><time>2026-04-05T13:24:46Z</time></trkpt><trkpt lat="44.86476550930005" lon="9.58729456132761"><ele>535.0</ele><time>2026-04-05T13:24:48Z</time></trkpt><trkpt lat="44.8647017724958" lon="9.587360142641138"><ele>539.0</ele><time>2026-04-05T13:24:49Z</time></trkpt><trkpt lat="44.864610317109424" lon="9.587366036141404"><ele>539.0</ele><time>2026-04-05T13:24:51Z</time></trkpt><trkpt lat="44.86449351995886" lon="9.587348294133525"><ele>539.0</ele><time>2026-04-05T13:24:53Z</time></trkpt><trkpt lat="44.86442584139417" lon="9.587417967286768"><ele>539.0</ele><time>2026-04-05T13:24:54Z</time></trkpt><trkpt lat="44.86434975717754" lon="9.587471143992929"><ele>539.0</ele><time>2026-04-05T13:24:55Z</time></trkpt><trkpt lat="44.86425154676266" lon="9.587506063806286"><ele>539.0</ele><time>2026-04-05T13:24:56Z</time></trkpt><trkpt lat="44.86418784298932" lon="9.587557151977071"><ele>543.8</ele><time>2026-04-05T13:24:57Z</time></trkpt><trkpt lat="44.86406059694298" lon="9.587505238062638"><ele>548.5999999999999</ele><time>2026-04-05T13:24:59Z</time></trkpt><trkpt lat="44.863995604521364" lon="9.587503984499563"><ele>553.4</ele><time>2026-04-05T13:25:00Z</time></trkpt><trkpt lat="44.86390474429375" lon="9.587613653642343"><ele>558.1999999999999</ele><time>2026-04-05T13:25:02Z</time></trkpt><trkpt lat="44.86385631554885" lon="9.587684112564787"><ele>563.0</ele><time>2026-04-05T13:25:03Z</time></trkpt><trkpt lat="44.86378931370427" lon="9.587748889515938"><ele>562.8333333333333</ele><time>2026-04-05T13:25:05Z</time></trkpt><trkpt lat="44.86373859133942" lon="9.587889783273765"><ele>562.6666666666666</ele><time>2026-04-05T13:25:07Z</time></trkpt><trkpt lat="44.863686654278396" lon="9.587960425033009"><ele>562.5</ele><time>2026-04-05T13:25:14Z</time></trkpt><trkpt lat="44.863662818861535" lon="9.588060218751425"><ele>562.3333333333334</ele><time>2026-04-05T13:25:17Z</time></trkpt><trkpt lat="44.86367016792429" lon="9.588162496493496"><ele>562.1666666666667</ele><time>2026-04-05T13:25:18Z</time></trkpt><trkpt lat="44.863607413371376" lon="9.588255637855216"><ele>562.0</ele><time>2026-04-05T13:25:19Z</time></trkpt><trkpt lat="44.86363755669371" lon="9.588342389106119"><ele>562.0</ele><time>2026-04-05T13:25:33Z</time></trkpt><trkpt lat="44.86366356681814" lon="9.588446901300037"><ele>562.0</ele><time>2026-04-05T13:25:36Z</time></trkpt><trkpt lat="44.86371273630146" lon="9.58863314450286"><ele>562.0</ele><time>2026-04-05T13:25:38Z</time></trkpt><trkpt lat="44.863905375367644" lon="9.588899286386093"><ele>562.25</ele><time>2026-04-05T13:25:39Z</time></trkpt><trkpt lat="44.86395723752079" lon="9.589028215592993"><ele>562.5</ele><time>2026-04-05T13:25:40Z</time></trkpt><trkpt lat="44.864049876835956" lon="9.589168249155172"><ele>562.75</ele><time>2026-04-05T13:25:41Z</time></trkpt><trkpt lat="44.8641397322325" lon="9.589278015260511"><ele>563.0</ele><time>2026-04-05T13:25:42Z</time></trkpt><trkpt lat="44.864233940805995" lon="9.589376726062634"><ele>559.75</ele><time>2026-04-05T13:25:43Z</time></trkpt><trkpt lat="44.864332630023846" lon="9.589500668309103"><ele>556.5</ele><time>2026-04-05T13:25:44Z</time></trkpt><trkpt lat="44.86442358497253" lon="9.589631765168184"><ele>553.25</ele><time>2026-04-05T13:25:45Z</time></trkpt><trkpt lat="44.86449793658373" lon="9.589762274970154"><ele>550.0</ele><time>2026-04-05T13:25:46Z</time></trkpt><trkpt lat="44.8645647592233" lon="9.589888044729587"><ele>550.0</ele><time>2026-04-05T13:25:47Z</time></trkpt><trkpt lat="44.86462250960503" lon="9.590001659370559"><ele>550.0</ele><time>2026-04-05T13:25:48Z</time></trkpt><trkpt lat="44.86464047515278" lon="9.590122466113995"><ele>550.0</ele><time>2026-04-05T13:25:49Z</time></trkpt><trkpt lat="44.86467701028009" lon="9.590195408598381"><ele>550.0</ele><time>2026-04-05T13:25:50Z</time></trkpt><trkpt lat="44.86473831358879" lon="9.590217297446605"><ele>550.0</ele><time>2026-04-05T13:25:51Z</time></trkpt><trkpt lat="44.8648129602386" lon="9.590231503166235"><ele>550.0</ele><time>2026-04-05T13:25:54Z</time></trkpt><trkpt lat="44.86491493767922" lon="9.590157002546798"><ele>550.0</ele><time>2026-04-05T13:25:56Z</time></trkpt><trkpt lat="44.864909825392076" lon="9.590026353256016"><ele>550.0</ele><time>2026-04-05T13:25:59Z</time></trkpt><trkpt lat="44.86496589440952" lon="9.58997805229877"><ele>550.0</ele><time>2026-04-05T13:26:01Z</time></trkpt><trkpt lat="44.865065097500015" lon="9.590049494503138"><ele>550.0</ele><time>2026-04-05T13:26:03Z</time></trkpt><trkpt lat="44.8651135506238" lon="9.590130154700669"><ele>550.0</ele><time>2026-04-05T13:26:05Z</time></trkpt><trkpt lat="44.86516045702017" lon="9.590200978824573"><ele>550.0</ele><time>2026-04-05T13:26:06Z</time></trkpt><trkpt lat="44.86521276268239" lon="9.59026130270009"><ele>546.0</ele><time>2026-04-05T13:26:07Z</time></trkpt><trkpt lat="44.865261336578016" lon="9.590331282920832"><ele>542.0</ele><time>2026-04-05T13:26:08Z</time></trkpt><trkpt lat="44.86530508073282" lon="9.590416363271467"><ele>538.0</ele><time>2026-04-05T13:26:09Z</time></trkpt><trkpt lat="44.86532770455984" lon="9.590505632131421"><ele>534.0</ele><time>2026-04-05T13:26:10Z</time></trkpt><trkpt lat="44.865314852958676" lon="9.59060107870296"><ele>530.0</ele><time>2026-04-05T13:26:12Z</time></trkpt><trkpt lat="44.86538510728204" lon="9.590636089326624"><ele>526.0</ele><time>2026-04-05T13:26:18Z</time></trkpt><trkpt lat="44.86548774752663" lon="9.590679645227231"><ele>526.0</ele><time>2026-04-05T13:26:21Z</time></trkpt><trkpt lat="44.865571839518864" lon="9.590735565012098"><ele>526.0</ele><time>2026-04-05T13:26:23Z</time></trkpt><trkpt lat="44.86570315745795" lon="9.59076363864105"><ele>526.0</ele><time>2026-04-05T13:26:25Z</time></trkpt><trkpt lat="44.86579893375388" lon="9.590745092693695"><ele>526.0</ele><time>2026-04-05T13:26:26Z</time></trkpt><trkpt lat="44.865880017174" lon="9.590699005510542"><ele>526.0</ele><time>2026-04-05T13:26:27Z</time></trkpt><trkpt lat="44.86595048872769" lon="9.590697949054546"><ele>523.1666666666667</ele><time>2026-04-05T13:26:28Z</time></trkpt><trkpt lat="44.86602163275939" lon="9.590700205959093"><ele>520.3333333333334</ele><time>2026-04-05T13:26:29Z</time></trkpt><trkpt lat="44.86608848712985" lon="9.590734933940261"><ele>517.5</ele><time>2026-04-05T13:26:30Z</time></trkpt><trkpt lat="44.86614633403397" lon="9.590792997674297"><ele>514.6666666666666</ele><time>2026-04-05T13:26:31Z</time></trkpt><trkpt lat="44.8662048528691" lon="9.590859205470515"><ele>511.8333333333333</ele><time>2026-04-05T13:26:32Z</time></trkpt><trkpt lat="44.86625602227742" lon="9.590931695491753"><ele>509.0</ele><time>2026-04-05T13:26:33Z</time></trkpt><trkpt lat="44.86632393385253" lon="9.59103445513668"><ele>509.0</ele><time>2026-04-05T13:26:35Z</time></trkpt><trkpt lat="44.86638225503365" lon="9.59112874396761"><ele>509.0</ele><time>2026-04-05T13:26:37Z</time></trkpt><trkpt lat="44.8664617777098" lon="9.591246912293261"><ele>509.0</ele><time>2026-04-05T13:26:39Z</time></trkpt><trkpt lat="44.86650097851837" lon="9.591319989213483"><ele>509.0</ele><time>2026-04-05T13:26:40Z</time></trkpt><trkpt lat="44.86656684038783" lon="9.591443160078535"><ele>509.0</ele><time>2026-04-05T13:26:42Z</time></trkpt><trkpt lat="44.86660615564813" lon="9.591572768783434"><ele>509.2</ele><time>2026-04-05T13:26:44Z</time></trkpt><trkpt lat="44.86665769584795" lon="9.591649904017379"><ele>509.4</ele><time>2026-04-05T13:26:47Z</time></trkpt><trkpt lat="44.866700108654136" lon="9.591774421306187"><ele>509.6</ele><time>2026-04-05T13:27:00Z</time></trkpt><trkpt lat="44.86674407507785" lon="9.591851550229373"><ele>509.8</ele><time>2026-04-05T13:27:01Z</time></trkpt><trkpt lat="44.8668165236926" lon="9.591962110228575"><ele>510.0</ele><time>2026-04-05T13:27:02Z</time></trkpt><trkpt lat="44.866868053768805" lon="9.592110219350346"><ele>510.0</ele><time>2026-04-05T13:27:03Z</time></trkpt><trkpt lat="44.86693132107858" lon="9.592204277823406"><ele>510.0</ele><time>2026-04-05T13:27:04Z</time></trkpt><trkpt lat="44.866924723539725" lon="9.592328574097893"><ele>510.0</ele><time>2026-04-05T13:27:05Z</time></trkpt><trkpt lat="44.866944354004" lon="9.592464403837942"><ele>510.0</ele><time>2026-04-05T13:27:06Z</time></trkpt><trkpt lat="44.86697628636512" lon="9.592603293423378"><ele>510.0</ele><time>2026-04-05T13:27:07Z</time></trkpt><trkpt lat="44.867015098440326" lon="9.592762321035314"><ele>510.6</ele><time>2026-04-05T13:27:08Z</time></trkpt><trkpt lat="44.86706239842534" lon="9.592909783855127"><ele>511.2</ele><time>2026-04-05T13:27:09Z</time></trkpt><trkpt lat="44.867095438601446" lon="9.593050541086937"><ele>511.79999999999995</ele><time>2026-04-05T13:27:10Z</time></trkpt><trkpt lat="44.86715414516499" lon="9.59317055106572"><ele>512.4</ele><time>2026-04-05T13:27:11Z</time></trkpt><trkpt lat="44.86723725938066" lon="9.593279635179545"><ele>513.0</ele><time>2026-04-05T13:27:12Z</time></trkpt><trkpt lat="44.86733339676603" lon="9.593369415028276"><ele>513.0</ele><time>2026-04-05T13:27:13Z</time></trkpt><trkpt lat="44.86743563410645" lon="9.5934457087962"><ele>513.0</ele><time>2026-04-05T13:27:14Z</time></trkpt><trkpt lat="44.86754590114327" lon="9.593492469985986"><ele>513.0</ele><time>2026-04-05T13:27:15Z</time></trkpt><trkpt lat="44.867667204242174" lon="9.593506045887386"><ele>513.0</ele><time>2026-04-05T13:27:16Z</time></trkpt><trkpt lat="44.86780136457672" lon="9.593493844040893"><ele>511.5</ele><time>2026-04-05T13:27:17Z</time></trkpt><trkpt lat="44.86792885684342" lon="9.593502278258883"><ele>510.0</ele><time>2026-04-05T13:27:18Z</time></trkpt><trkpt lat="44.86804523164979" lon="9.593502787407303"><ele>508.5</ele><time>2026-04-05T13:27:19Z</time></trkpt><trkpt lat="44.868159188421906" lon="9.593511858250706"><ele>507.0</ele><time>2026-04-05T13:27:20Z</time></trkpt><trkpt lat="44.868272493231295" lon="9.593532085085249"><ele>507.0</ele><time>2026-04-05T13:27:21Z</time></trkpt><trkpt lat="44.868374653324246" lon="9.593566656087043"><ele>507.00000000000006</ele><time>2026-04-05T13:27:22Z</time></trkpt><trkpt lat="44.8684727609282" lon="9.593622568097452"><ele>507.00000000000006</ele><time>2026-04-05T13:27:23Z</time></trkpt><trkpt lat="44.86856267091113" lon="9.593700016233166"><ele>507.0</ele><time>2026-04-05T13:27:24Z</time></trkpt><trkpt lat="44.868637429439914" lon="9.593797270831312"><ele>507.0</ele><time>2026-04-05T13:27:25Z</time></trkpt><trkpt lat="44.86870074927401" lon="9.593911302409841"><ele>506.8</ele><time>2026-04-05T13:27:26Z</time></trkpt><trkpt lat="44.86876261690408" lon="9.594017083871906"><ele>506.6</ele><time>2026-04-05T13:27:27Z</time></trkpt><trkpt lat="44.86882666010519" lon="9.594134302070632"><ele>506.40000000000003</ele><time>2026-04-05T13:27:28Z</time></trkpt><trkpt lat="44.86889560769214" lon="9.594276676260993"><ele>506.20000000000005</ele><time>2026-04-05T13:27:29Z</time></trkpt><trkpt lat="44.86895848706558" lon="9.594413993975676"><ele>506.0</ele><time>2026-04-05T13:27:30Z</time></trkpt><trkpt lat="44.8689865447334" lon="9.59456673173599"><ele>506.0</ele><time>2026-04-05T13:27:31Z</time></trkpt><trkpt lat="44.86906133597694" lon="9.594687531342792"><ele>506.0</ele><time>2026-04-05T13:27:32Z</time></trkpt><trkpt lat="44.8691534347738" lon="9.594796288305703"><ele>506.0</ele><time>2026-04-05T13:27:33Z</time></trkpt><trkpt lat="44.86925647817484" lon="9.594892913063065"><ele>506.0</ele><time>2026-04-05T13:27:34Z</time></trkpt><trkpt lat="44.86934747554379" lon="9.595007394651603"><ele>506.0</ele><time>2026-04-05T13:27:35Z</time></trkpt><trkpt lat="44.869445263931425" lon="9.595116147745658"><ele>506.0</ele><time>2026-04-05T13:27:36Z</time></trkpt><trkpt lat="44.86954531519845" lon="9.595219440687448"><ele>506.0</ele><time>2026-04-05T13:27:37Z</time></trkpt><trkpt lat="44.86964113337106" lon="9.595333739141491"><ele>506.0</ele><time>2026-04-05T13:27:38Z</time></trkpt><trkpt lat="44.8697430366121" lon="9.595425618022311"><ele>507.0</ele><time>2026-04-05T13:27:39Z</time></trkpt><trkpt lat="44.86985147174745" lon="9.595518480381838"><ele>508.0</ele><time>2026-04-05T13:27:40Z</time></trkpt><trkpt lat="44.86997350216583" lon="9.595607799647015"><ele>509.0</ele><time>2026-04-05T13:27:41Z</time></trkpt><trkpt lat="44.87009619482974" lon="9.595672831865997"><ele>510.0</ele><time>2026-04-05T13:27:42Z</time></trkpt><trkpt lat="44.87022638636633" lon="9.595697840821718"><ele>510.0</ele><time>2026-04-05T13:27:43Z</time></trkpt><trkpt lat="44.87034458534131" lon="9.595765615250732"><ele>510.0</ele><time>2026-04-05T13:27:44Z</time></trkpt><trkpt lat="44.870466128268625" lon="9.595811723229113"><ele>510.0</ele><time>2026-04-05T13:27:45Z</time></trkpt><trkpt lat="44.87059184543614" lon="9.5958419554692"><ele>510.0</ele><time>2026-04-05T13:27:46Z</time></trkpt><trkpt lat="44.87071301488472" lon="9.595886681245254"><ele>510.0</ele><time>2026-04-05T13:27:47Z</time></trkpt><trkpt lat="44.87082796606092" lon="9.595956934358014"><ele>510.0</ele><time>2026-04-05T13:27:48Z</time></trkpt><trkpt lat="44.87094459462153" lon="9.59598585688471"><ele>510.0</ele><time>2026-04-05T13:27:49Z</time></trkpt><trkpt lat="44.871050358245334" lon="9.596038919675008"><ele>510.0</ele><time>2026-04-05T13:27:50Z</time></trkpt><trkpt lat="44.871158368369606" lon="9.596114060631548"><ele>510.25</ele><time>2026-04-05T13:27:51Z</time></trkpt><trkpt lat="44.871274110312115" lon="9.59617739639953"><ele>510.5</ele><time>2026-04-05T13:27:52Z</time></trkpt><trkpt lat="44.87140020173317" lon="9.596235295664057"><ele>510.75</ele><time>2026-04-05T13:27:53Z</time></trkpt><trkpt lat="44.87150669220664" lon="9.596358057266391"><ele>511.0</ele><time>2026-04-05T13:27:54Z</time></trkpt><trkpt lat="44.87162709453666" lon="9.596479492124006"><ele>511.0</ele><time>2026-04-05T13:27:55Z</time></trkpt><trkpt lat="44.87175321706696" lon="9.596614299487852"><ele>511.0</ele><time>2026-04-05T13:27:56Z</time></trkpt><trkpt lat="44.87187582847361" lon="9.596750131572524"><ele>511.0</ele><time>2026-04-05T13:27:57Z</time></trkpt><trkpt lat="44.87197751993466" lon="9.59686363750858"><ele>511.0</ele><time>2026-04-05T13:27:58Z</time></trkpt><trkpt lat="44.87206517319463" lon="9.596966174848637"><ele>508.5</ele><time>2026-04-05T13:27:59Z</time></trkpt><trkpt lat="44.872155762920265" lon="9.597072941307887"><ele>506.0</ele><time>2026-04-05T13:28:00Z</time></trkpt><trkpt lat="44.87225045519305" lon="9.597186560433425"><ele>503.5</ele><time>2026-04-05T13:28:01Z</time></trkpt><trkpt lat="44.87235120710401" lon="9.597308695937485"><ele>501.0</ele><time>2026-04-05T13:28:02Z</time></trkpt><trkpt lat="44.87245312440826" lon="9.59743341228379"><ele>501.0</ele><time>2026-04-05T13:28:03Z</time></trkpt><trkpt lat="44.87257505508454" lon="9.597575732249524"><ele>501.0</ele><time>2026-04-05T13:28:04Z</time></trkpt><trkpt lat="44.87269468976333" lon="9.597716355810608"><ele>501.0</ele><time>2026-04-05T13:28:05Z</time></trkpt><trkpt lat="44.87280607732648" lon="9.597848486747397"><ele>501.25</ele><time>2026-04-05T13:28:06Z</time></trkpt><trkpt lat="44.872911533412974" lon="9.597975046129726"><ele>501.5</ele><time>2026-04-05T13:28:07Z</time></trkpt><trkpt lat="44.873020746355735" lon="9.598106114103443"><ele>501.75</ele><time>2026-04-05T13:28:08Z</time></trkpt><trkpt lat="44.87312669481776" lon="9.598233264441978"><ele>502.0</ele><time>2026-04-05T13:28:09Z</time></trkpt><trkpt lat="44.87321684924613" lon="9.59834503041263"><ele>502.0</ele><time>2026-04-05T13:28:10Z</time></trkpt><trkpt lat="44.87329880848994" lon="9.598452386369052"><ele>502.0</ele><time>2026-04-05T13:28:11Z</time></trkpt><trkpt lat="44.87338502353582" lon="9.598563025126655"><ele>502.0</ele><time>2026-04-05T13:28:12Z</time></trkpt><trkpt lat="44.873477323101135" lon="9.59867851769619"><ele>502.0</ele><time>2026-04-05T13:28:13Z</time></trkpt><trkpt lat="44.87356502258843" lon="9.598784836157032"><ele>501.8</ele><time>2026-04-05T13:28:14Z</time></trkpt><trkpt lat="44.873644181677285" lon="9.598874286174832"><ele>501.6</ele><time>2026-04-05T13:28:15Z</time></trkpt><trkpt lat="44.87372440201131" lon="9.598961090281348"><ele>501.40000000000003</ele><time>2026-04-05T13:28:16Z</time></trkpt><trkpt lat="44.87380391766954" lon="9.599046675524237"><ele>501.20000000000005</ele><time>2026-04-05T13:28:17Z</time></trkpt><trkpt lat="44.87387882105855" lon="9.59912633049846"><ele>501.0</ele><time>2026-04-05T13:28:18Z</time></trkpt><trkpt lat="44.873947605864636" lon="9.599196108486515"><ele>501.0</ele><time>2026-04-05T13:28:19Z</time></trkpt><trkpt lat="44.87401153217015" lon="9.59925960450458"><ele>501.0</ele><time>2026-04-05T13:28:20Z</time></trkpt><trkpt lat="44.874063652306134" lon="9.599320392310336"><ele>501.0</ele><time>2026-04-05T13:28:21Z</time></trkpt><trkpt lat="44.87412888993002" lon="9.599404888669396"><ele>501.0</ele><time>2026-04-05T13:28:23Z</time></trkpt><trkpt lat="44.87420581153319" lon="9.599492821185615"><ele>501.0</ele><time>2026-04-05T13:28:26Z</time></trkpt><trkpt lat="44.8744958319505" lon="9.599321531887275"><ele>500.4</ele><time>2026-04-05T13:28:28Z</time></trkpt><trkpt lat="44.87458465167591" lon="9.599369946587798"><ele>499.8</ele><time>2026-04-05T13:28:29Z</time></trkpt><trkpt lat="44.87467964411677" lon="9.599398292003988"><ele>499.19999999999993</ele><time>2026-04-05T13:28:30Z</time></trkpt><trkpt lat="44.87479890891015" lon="9.599387626548307"><ele>498.59999999999997</ele><time>2026-04-05T13:28:31Z</time></trkpt><trkpt lat="44.87490447032787" lon="9.599345642569178"><ele>498.0</ele><time>2026-04-05T13:28:32Z</time></trkpt><trkpt lat="44.87499720756882" lon="9.599370918100147"><ele>498.0</ele><time>2026-04-05T13:28:33Z</time></trkpt><trkpt lat="44.87507429852489" lon="9.599401863818494"><ele>497.99999999999994</ele><time>2026-04-05T13:28:34Z</time></trkpt><trkpt lat="44.87515227731437" lon="9.599384915220176"><ele>497.99999999999994</ele><time>2026-04-05T13:28:35Z</time></trkpt><trkpt lat="44.87526119590037" lon="9.599334443464379"><ele>498.0</ele><time>2026-04-05T13:28:36Z</time></trkpt><trkpt lat="44.87539637452966" lon="9.599308470226209"><ele>498.0</ele><time>2026-04-05T13:28:37Z</time></trkpt><trkpt lat="44.87554581981027" lon="9.599283297932216"><ele>498.0</ele><time>2026-04-05T13:28:38Z</time></trkpt><trkpt lat="44.875685075022545" lon="9.59927519290731"><ele>497.99999999999994</ele><time>2026-04-05T13:28:39Z</time></trkpt><trkpt lat="44.87580373489309" lon="9.599270483432006"><ele>497.99999999999994</ele><time>2026-04-05T13:28:40Z</time></trkpt><trkpt lat="44.87590081224235" lon="9.599273994663315"><ele>498.0</ele><time>2026-04-05T13:28:41Z</time></trkpt><trkpt lat="44.87598596858464" lon="9.599286084558411"><ele>498.0</ele><time>2026-04-05T13:28:42Z</time></trkpt><trkpt lat="44.876071738502375" lon="9.599261010013251"><ele>497.0</ele><time>2026-04-05T13:28:43Z</time></trkpt><trkpt lat="44.87618046484607" lon="9.599237298738087"><ele>495.99999999999994</ele><time>2026-04-05T13:28:44Z</time></trkpt><trkpt lat="44.876290983636984" lon="9.599224171292002"><ele>494.99999999999994</ele><time>2026-04-05T13:28:45Z</time></trkpt><trkpt lat="44.876377643371654" lon="9.599207193492731"><ele>494.0</ele><time>2026-04-05T13:28:46Z</time></trkpt><trkpt lat="44.87644695020975" lon="9.599142808268601"><ele>493.0</ele><time>2026-04-05T13:28:47Z</time></trkpt><trkpt lat="44.87651220031355" lon="9.599119333015794"><ele>493.00000000000006</ele><time>2026-04-05T13:28:48Z</time></trkpt><trkpt lat="44.87658596465446" lon="9.599121049986973"><ele>493.0</ele><time>2026-04-05T13:28:49Z</time></trkpt><trkpt lat="44.87663930501612" lon="9.599054686982685"><ele>493.0</ele><time>2026-04-05T13:28:50Z</time></trkpt><trkpt lat="44.87669602532987" lon="9.598949485877453"><ele>493.0</ele><time>2026-04-05T13:28:51Z</time></trkpt><trkpt lat="44.8767391260641" lon="9.598858882641865"><ele>493.00000000000006</ele><time>2026-04-05T13:28:52Z</time></trkpt><trkpt lat="44.87679335182704" lon="9.59877653676583"><ele>493.0</ele><time>2026-04-05T13:28:53Z</time></trkpt><trkpt lat="44.87685809541799" lon="9.598755404116087"><ele>490.00000000000006</ele><time>2026-04-05T13:28:54Z</time></trkpt><trkpt lat="44.876927590159035" lon="9.598760792609655"><ele>487.0</ele><time>2026-04-05T13:28:55Z</time></trkpt><trkpt lat="44.876996787511374" lon="9.598711313608751"><ele>484.0</ele><time>2026-04-05T13:28:56Z</time></trkpt><trkpt lat="44.877054294795464" lon="9.59867293961533"><ele>481.0</ele><time>2026-04-05T13:28:57Z</time></trkpt><trkpt lat="44.8771677021106" lon="9.598721702779107"><ele>478.00000000000006</ele><time>2026-04-05T13:28:59Z</time></trkpt><trkpt lat="44.87723661308359" lon="9.598717496342445"><ele>475.0</ele><time>2026-04-05T13:29:00Z</time></trkpt><trkpt lat="44.87729300121943" lon="9.59867292423751"><ele>475.0</ele><time>2026-04-05T13:29:01Z</time></trkpt><trkpt lat="44.87737863393379" lon="9.59867932443583"><ele>475.0</ele><time>2026-04-05T13:29:03Z</time></trkpt><trkpt lat="44.877482701284364" lon="9.598615243745098"><ele>475.0</ele><time>2026-04-05T13:29:05Z</time></trkpt><trkpt lat="44.87753883010393" lon="9.598503647960014"><ele>475.0</ele><time>2026-04-05T13:29:07Z</time></trkpt><trkpt lat="44.877619249459855" lon="9.598562463218622"><ele>475.0</ele><time>2026-04-05T13:29:10Z</time></trkpt><trkpt lat="44.87771228104255" lon="9.59852073300185"><ele>468.5</ele><time>2026-04-05T13:29:12Z</time></trkpt><trkpt lat="44.877937819662144" lon="9.598523624775835"><ele>462.0</ele><time>2026-04-05T13:29:14Z</time></trkpt><trkpt lat="44.878040855994655" lon="9.598493459833094"><ele>455.5</ele><time>2026-04-05T13:29:16Z</time></trkpt><trkpt lat="44.87811585567109" lon="9.59841344285814"><ele>449.0</ele><time>2026-04-05T13:29:18Z</time></trkpt><trkpt lat="44.87820334480745" lon="9.598376584636036"><ele>448.99999999999994</ele><time>2026-04-05T13:29:20Z</time></trkpt><trkpt lat="44.87827718816373" lon="9.598449730175432"><ele>449.0</ele><time>2026-04-05T13:29:23Z</time></trkpt><trkpt lat="44.878342526352746" lon="9.598437478533606"><ele>449.0</ele><time>2026-04-05T13:29:25Z</time></trkpt><trkpt lat="44.87843733959849" lon="9.5984257297176"><ele>449.0</ele><time>2026-04-05T13:29:27Z</time></trkpt><trkpt lat="44.87854155226792" lon="9.598419657849186"><ele>448.99999999999994</ele><time>2026-04-05T13:29:29Z</time></trkpt><trkpt lat="44.878618512435544" lon="9.598418950850121"><ele>449.0</ele><time>2026-04-05T13:29:30Z</time></trkpt><trkpt lat="44.87878595231196" lon="9.598401924502767"><ele>446.2</ele><time>2026-04-05T13:29:31Z</time></trkpt><trkpt lat="44.878864993702564" lon="9.598402356325128"><ele>443.4</ele><time>2026-04-05T13:29:32Z</time></trkpt><trkpt lat="44.87896323970484" lon="9.598341254406797"><ele>440.6</ele><time>2026-04-05T13:29:59Z</time></trkpt><trkpt lat="44.87905329384701" lon="9.598319687244661"><ele>437.8</ele><time>2026-04-05T13:30:00Z</time></trkpt><trkpt lat="44.879164934953764" lon="9.598305396102296"><ele>435.0</ele><time>2026-04-05T13:30:01Z</time></trkpt><trkpt lat="44.87926933972263" lon="9.598289920294036"><ele>434.0</ele><time>2026-04-05T13:30:02Z</time></trkpt><trkpt lat="44.879372406943034" lon="9.598274882633145"><ele>433.0</ele><time>2026-04-05T13:30:03Z</time></trkpt><trkpt lat="44.87946857695178" lon="9.598250010664332"><ele>432.0</ele><time>2026-04-05T13:30:04Z</time></trkpt><trkpt lat="44.87956833415309" lon="9.598207929170515"><ele>431.0</ele><time>2026-04-05T13:30:05Z</time></trkpt><trkpt lat="44.87965724623522" lon="9.59815206877735"><ele>430.0</ele><time>2026-04-05T13:30:06Z</time></trkpt><trkpt lat="44.879733085528976" lon="9.598082141331087"><ele>430.00000000000006</ele><time>2026-04-05T13:30:07Z</time></trkpt><trkpt lat="44.87980325488781" lon="9.598026195302904"><ele>430.0</ele><time>2026-04-05T13:30:08Z</time></trkpt><trkpt lat="44.87988241935371" lon="9.597986525683462"><ele>430.0</ele><time>2026-04-05T13:30:09Z</time></trkpt><trkpt lat="44.87996879478758" lon="9.59796086677521"><ele>430.0</ele><time>2026-04-05T13:30:10Z</time></trkpt><trkpt lat="44.880058523905475" lon="9.597939383118414"><ele>430.00000000000006</ele><time>2026-04-05T13:30:11Z</time></trkpt><trkpt lat="44.880149515450846" lon="9.59790956224545"><ele>430.0</ele><time>2026-04-05T13:30:12Z</time></trkpt><trkpt lat="44.88023822288933" lon="9.597888204252195"><ele>426.8</ele><time>2026-04-05T13:30:13Z</time></trkpt><trkpt lat="44.88033221632811" lon="9.597865323281237"><ele>423.6</ele><time>2026-04-05T13:30:14Z</time></trkpt><trkpt lat="44.88043022830502" lon="9.597825517038544"><ele>420.4</ele><time>2026-04-05T13:30:15Z</time></trkpt><trkpt lat="44.880522906051176" lon="9.59778795900216"><ele>417.2</ele><time>2026-04-05T13:30:16Z</time></trkpt><trkpt lat="44.88061684885287" lon="9.597753323806428"><ele>414.0</ele><time>2026-04-05T13:30:17Z</time></trkpt><trkpt lat="44.8807074257807" lon="9.597711680477843"><ele>412.79999999999995</ele><time>2026-04-05T13:30:18Z</time></trkpt><trkpt lat="44.88079372348927" lon="9.59767631670544"><ele>411.59999999999997</ele><time>2026-04-05T13:30:19Z</time></trkpt><trkpt lat="44.880873624228784" lon="9.597647083650996"><ele>410.4</ele><time>2026-04-05T13:30:20Z</time></trkpt><trkpt lat="44.88096364499965" lon="9.597604592062915"><ele>409.2</ele><time>2026-04-05T13:30:21Z</time></trkpt><trkpt lat="44.881054955262265" lon="9.597561404549163"><ele>408.0</ele><time>2026-04-05T13:30:22Z</time></trkpt><trkpt lat="44.88115041426778" lon="9.597534874264488"><ele>405.8333333333333</ele><time>2026-04-05T13:30:23Z</time></trkpt><trkpt lat="44.88123099609581" lon="9.597484718913377"><ele>403.66666666666663</ele><time>2026-04-05T13:30:24Z</time></trkpt><trkpt lat="44.88129453121858" lon="9.59739317626613"><ele>401.5</ele><time>2026-04-05T13:30:25Z</time></trkpt><trkpt lat="44.881337658173436" lon="9.59727518323603"><ele>399.3333333333333</ele><time>2026-04-05T13:30:26Z</time></trkpt><trkpt lat="44.88141331613031" lon="9.597214323880019"><ele>397.16666666666663</ele><time>2026-04-05T13:30:27Z</time></trkpt><trkpt lat="44.8814783759617" lon="9.597186841898441"><ele>395.0</ele><time>2026-04-05T13:30:28Z</time></trkpt><trkpt lat="44.881548810315806" lon="9.597161893996955"><ele>395.0</ele><time>2026-04-05T13:30:29Z</time></trkpt><trkpt lat="44.88161989974609" lon="9.597173156682762"><ele>395.0</ele><time>2026-04-05T13:30:30Z</time></trkpt><trkpt lat="44.88170980411406" lon="9.597183200394058"><ele>395.0</ele><time>2026-04-05T13:30:31Z</time></trkpt><trkpt lat="44.881806411377426" lon="9.59718180534734"><ele>395.0</ele><time>2026-04-05T13:30:32Z</time></trkpt><trkpt lat="44.8819049446786" lon="9.597175021448633"><ele>395.0</ele><time>2026-04-05T13:30:33Z</time></trkpt><trkpt lat="44.882003770876395" lon="9.59716674082589"><ele>393.6</ele><time>2026-04-05T13:30:34Z</time></trkpt><trkpt lat="44.88209659696776" lon="9.59715563477887"><ele>392.2</ele><time>2026-04-05T13:30:35Z</time></trkpt><trkpt lat="44.8821842849488" lon="9.59714514347597"><ele>390.79999999999995</ele><time>2026-04-05T13:30:36Z</time></trkpt><trkpt lat="44.88227191135425" lon="9.597136801758198"><ele>389.4</ele><time>2026-04-05T13:30:37Z</time></trkpt><trkpt lat="44.882349269668154" lon="9.597132135699287"><ele>388.0</ele><time>2026-04-05T13:30:38Z</time></trkpt><trkpt lat="44.882453390335165" lon="9.597140528255387"><ele>388.00000000000006</ele><time>2026-04-05T13:30:40Z</time></trkpt><trkpt lat="44.88251804676744" lon="9.597159554474922"><ele>388.0</ele><time>2026-04-05T13:30:42Z</time></trkpt><trkpt lat="44.88252399127597" lon="9.597248409795746"><ele>388.0</ele><time>2026-04-05T13:30:43Z</time></trkpt><trkpt lat="44.88255199070687" lon="9.597343043434089"><ele>388.0</ele><time>2026-04-05T13:30:44Z</time></trkpt><trkpt lat="44.88259719046131" lon="9.597427657181553"><ele>388.00000000000006</ele><time>2026-04-05T13:30:45Z</time></trkpt><trkpt lat="44.88263898915835" lon="9.597530147055798"><ele>388.0</ele><time>2026-04-05T13:30:46Z</time></trkpt><trkpt lat="44.88269589597454" lon="9.597651760000542"><ele>386.2</ele><time>2026-04-05T13:30:47Z</time></trkpt><trkpt lat="44.88275238525197" lon="9.597784722468903"><ele>384.4</ele><time>2026-04-05T13:30:48Z</time></trkpt><trkpt lat="44.882839805307604" lon="9.597892067944642"><ele>382.59999999999997</ele><time>2026-04-05T13:30:49Z</time></trkpt><trkpt lat="44.88291504175542" lon="9.598007545768837"><ele>380.79999999999995</ele><time>2026-04-05T13:30:50Z</time></trkpt><trkpt lat="44.88298514270921" lon="9.598116400689158"><ele>379.0</ele><time>2026-04-05T13:30:51Z</time></trkpt><trkpt lat="44.88302955829926" lon="9.598248270614514"><ele>378.0</ele><time>2026-04-05T13:30:52Z</time></trkpt><trkpt lat="44.8830922275942" lon="9.598352624595144"><ele>377.0</ele><time>2026-04-05T13:30:53Z</time></trkpt><trkpt lat="44.88315686288592" lon="9.598460252216688"><ele>376.0</ele><time>2026-04-05T13:30:54Z</time></trkpt><trkpt lat="44.88322977955487" lon="9.59856627868175"><ele>375.0</ele><time>2026-04-05T13:30:55Z</time></trkpt><trkpt lat="44.88332026199157" lon="9.598641554657695"><ele>374.0</ele><time>2026-04-05T13:30:56Z</time></trkpt><trkpt lat="44.883407573885016" lon="9.598718546673066"><ele>371.2</ele><time>2026-04-05T13:30:57Z</time></trkpt><trkpt lat="44.88348528730761" lon="9.59881605678721"><ele>368.4</ele><time>2026-04-05T13:30:58Z</time></trkpt><trkpt lat="44.88357080881824" lon="9.598893495882015"><ele>365.6</ele><time>2026-04-05T13:30:59Z</time></trkpt><trkpt lat="44.8836557717996" lon="9.598970429227535"><ele>362.8</ele><time>2026-04-05T13:31:00Z</time></trkpt><trkpt lat="44.88374004424459" lon="9.599046456551953"><ele>360.0</ele><time>2026-04-05T13:31:01Z</time></trkpt><trkpt lat="44.883819603454604" lon="9.599117685177337"><ele>360.0</ele><time>2026-04-05T13:31:02Z</time></trkpt><trkpt lat="44.88389860758792" lon="9.599188416841361"><ele>360.0</ele><time>2026-04-05T13:31:03Z</time></trkpt><trkpt lat="44.88397825209997" lon="9.599259721837726"><ele>360.0</ele><time>2026-04-05T13:31:04Z</time></trkpt><trkpt lat="44.88405853428342" lon="9.59933159773265"><ele>360.0</ele><time>2026-04-05T13:31:05Z</time></trkpt><trkpt lat="44.88415094230318" lon="9.59938837432436"><ele>360.0</ele><time>2026-04-05T13:31:06Z</time></trkpt><trkpt lat="44.884236972186" lon="9.59947276054424"><ele>358.4</ele><time>2026-04-05T13:31:07Z</time></trkpt><trkpt lat="44.884325084910536" lon="9.59954933705388"><ele>356.8</ele><time>2026-04-05T13:31:08Z</time></trkpt><trkpt lat="44.88440942296073" lon="9.59962737148554"><ele>355.20000000000005</ele><time>2026-04-05T13:31:09Z</time></trkpt><trkpt lat="44.8844876532698" lon="9.599717547033256"><ele>353.6</ele><time>2026-04-05T13:31:10Z</time></trkpt><trkpt lat="44.884573629560506" lon="9.599794005268881"><ele>352.0</ele><time>2026-04-05T13:31:11Z</time></trkpt><trkpt lat="44.884656378296285" lon="9.599869283058773"><ele>352.0</ele><time>2026-04-05T13:31:12Z</time></trkpt><trkpt lat="44.88474482341586" lon="9.599929140903333"><ele>352.0</ele><time>2026-04-05T13:31:13Z</time></trkpt><trkpt lat="44.88481922045276" lon="9.600023639011928"><ele>352.0</ele><time>2026-04-05T13:31:14Z</time></trkpt><trkpt lat="44.884892373867075" lon="9.60012790629749"><ele>352.0</ele><time>2026-04-05T13:31:15Z</time></trkpt><trkpt lat="44.88497541920375" lon="9.600249023753358"><ele>352.0</ele><time>2026-04-05T13:31:16Z</time></trkpt><trkpt lat="44.88506038434905" lon="9.600371967759362"><ele>349.20000000000005</ele><time>2026-04-05T13:31:17Z</time></trkpt><trkpt lat="44.885147823027935" lon="9.600484521486413"><ele>346.4</ele><time>2026-04-05T13:31:18Z</time></trkpt><trkpt lat="44.88522314480536" lon="9.600591082397074"><ele>343.6</ele><time>2026-04-05T13:31:19Z</time></trkpt><trkpt lat="44.885288634405484" lon="9.600683219418102"><ele>340.79999999999995</ele><time>2026-04-05T13:31:20Z</time></trkpt><trkpt lat="44.88534631821485" lon="9.600767346044831"><ele>338.0</ele><time>2026-04-05T13:31:21Z</time></trkpt><trkpt lat="44.88540142287772" lon="9.600842430372943"><ele>338.0</ele><time>2026-04-05T13:31:22Z</time></trkpt><trkpt lat="44.88543095485277" lon="9.600955854824237"><ele>338.0</ele><time>2026-04-05T13:31:24Z</time></trkpt><trkpt lat="44.88535716679975" lon="9.601056864507102"><ele>338.0</ele><time>2026-04-05T13:31:25Z</time></trkpt><trkpt lat="44.885279039441706" lon="9.60113764378817"><ele>338.0</ele><time>2026-04-05T13:31:26Z</time></trkpt><trkpt lat="44.885182579027735" lon="9.601246382326401"><ele>338.0</ele><time>2026-04-05T13:31:27Z</time></trkpt><trkpt lat="44.88506685267006" lon="9.601385014549189"><ele>338.25</ele><time>2026-04-05T13:31:28Z</time></trkpt><trkpt lat="44.88495515780248" lon="9.601523338448944"><ele>338.5</ele><time>2026-04-05T13:31:29Z</time></trkpt><trkpt lat="44.88487062578386" lon="9.601665782719698"><ele>338.75</ele><time>2026-04-05T13:31:30Z</time></trkpt><trkpt lat="44.884816727489024" lon="9.601822729460414"><ele>339.0</ele><time>2026-04-05T13:31:31Z</time></trkpt><trkpt lat="44.8848002578873" lon="9.602002508908578"><ele>339.25</ele><time>2026-04-05T13:31:32Z</time></trkpt><trkpt lat="44.884824299258284" lon="9.602198735787365"><ele>339.5</ele><time>2026-04-05T13:31:33Z</time></trkpt><trkpt lat="44.884877427091666" lon="9.602394910949606"><ele>339.75</ele><time>2026-04-05T13:31:34Z</time></trkpt><trkpt lat="44.88494097814176" lon="9.602568660429846"><ele>340.0</ele><time>2026-04-05T13:31:35Z</time></trkpt><trkpt lat="44.885012507574636" lon="9.60271571840621"><ele>341.0</ele><time>2026-04-05T13:31:36Z</time></trkpt><trkpt lat="44.88509516262394" lon="9.602838614200191"><ele>342.0</ele><time>2026-04-05T13:31:37Z</time></trkpt><trkpt lat="44.885183076230035" lon="9.602947098037124"><ele>343.0</ele><time>2026-04-05T13:31:38Z</time></trkpt><trkpt lat="44.88526537028804" lon="9.603040573928757"><ele>344.0</ele><time>2026-04-05T13:31:39Z</time></trkpt><trkpt lat="44.88533033088042" lon="9.603126397979256"><ele>345.0</ele><time>2026-04-05T13:31:40Z</time></trkpt><trkpt lat="44.88537616174311" lon="9.603202565725953"><ele>343.1666666666667</ele><time>2026-04-05T13:31:41Z</time></trkpt><trkpt lat="44.88544137067703" lon="9.603342683236926"><ele>341.3333333333333</ele><time>2026-04-05T13:31:43Z</time></trkpt><trkpt lat="44.88546158152599" lon="9.603429336715006"><ele>339.5</ele><time>2026-04-05T13:31:44Z</time></trkpt><trkpt lat="44.885472499709806" lon="9.60353493367302"><ele>337.66666666666663</ele><time>2026-04-05T13:31:45Z</time></trkpt><trkpt lat="44.88547760710055" lon="9.603642745564159"><ele>335.8333333333333</ele><time>2026-04-05T13:31:46Z</time></trkpt><trkpt lat="44.88546979449893" lon="9.603798551231554"><ele>334.0</ele><time>2026-04-05T13:31:48Z</time></trkpt><trkpt lat="44.88549957053104" lon="9.603877826984057"><ele>334.0</ele><time>2026-04-05T13:31:50Z</time></trkpt><trkpt lat="44.885644433267615" lon="9.603937387535645"><ele>334.0</ele><time>2026-04-05T13:31:52Z</time></trkpt><trkpt lat="44.88573494323443" lon="9.60397078077596"><ele>334.0</ele><time>2026-04-05T13:31:53Z</time></trkpt><trkpt lat="44.885824952328605" lon="9.604006923037037"><ele>334.0</ele><time>2026-04-05T13:31:54Z</time></trkpt><trkpt lat="44.885913513096966" lon="9.604043733708572"><ele>334.0</ele><time>2026-04-05T13:31:55Z</time></trkpt><trkpt lat="44.886003786580716" lon="9.604073191556077"><ele>332.8333333333333</ele><time>2026-04-05T13:31:56Z</time></trkpt><trkpt lat="44.8860919003867" lon="9.604103393633443"><ele>331.66666666666663</ele><time>2026-04-05T13:31:57Z</time></trkpt><trkpt lat="44.88617708951837" lon="9.604138555244036"><ele>330.5</ele><time>2026-04-05T13:31:58Z</time></trkpt><trkpt lat="44.88625345074647" lon="9.604173607061888"><ele>329.3333333333333</ele><time>2026-04-05T13:31:59Z</time></trkpt><trkpt lat="44.886321321204555" lon="9.604203009097365"><ele>328.1666666666667</ele><time>2026-04-05T13:32:00Z</time></trkpt><trkpt lat="44.886388379704734" lon="9.604229180530501"><ele>327.0</ele><time>2026-04-05T13:32:01Z</time></trkpt><trkpt lat="44.886457685591935" lon="9.604257810016097"><ele>327.0</ele><time>2026-04-05T13:32:02Z</time></trkpt><trkpt lat="44.88652880256363" lon="9.60429023687329"><ele>327.0</ele><time>2026-04-05T13:32:03Z</time></trkpt><trkpt lat="44.88660017156361" lon="9.604323157325663"><ele>327.0</ele><time>2026-04-05T13:32:04Z</time></trkpt><trkpt lat="44.886673989838" lon="9.604352025472448"><ele>327.0</ele><time>2026-04-05T13:32:05Z</time></trkpt><trkpt lat="44.88674304574683" lon="9.604377301039468"><ele>327.0</ele><time>2026-04-05T13:32:06Z</time></trkpt><trkpt lat="44.88680722124663" lon="9.60439860454352"><ele>327.0</ele><time>2026-04-05T13:32:07Z</time></trkpt><trkpt lat="44.8868687699163" lon="9.604421589489409"><ele>327.0</ele><time>2026-04-05T13:32:08Z</time></trkpt><trkpt lat="44.88696803111061" lon="9.604465525301507"><ele>326.40000000000003</ele><time>2026-04-05T13:32:10Z</time></trkpt><trkpt lat="44.88706313467863" lon="9.60450873775943"><ele>325.8</ele><time>2026-04-05T13:32:12Z</time></trkpt><trkpt lat="44.887171141337234" lon="9.604555292215496"><ele>325.2</ele><time>2026-04-05T13:32:14Z</time></trkpt><trkpt lat="44.88723727293164" lon="9.604575649594432"><ele>324.6</ele><time>2026-04-05T13:32:15Z</time></trkpt><trkpt lat="44.88731744869306" lon="9.60460124366348"><ele>324.0</ele><time>2026-04-05T13:32:16Z</time></trkpt><trkpt lat="44.88740645697165" lon="9.604630043080455"><ele>324.0</ele><time>2026-04-05T13:32:17Z</time></trkpt><trkpt lat="44.88749892878868" lon="9.604660711509652"><ele>324.0</ele><time>2026-04-05T13:32:18Z</time></trkpt><trkpt lat="44.887593766344224" lon="9.604698180599643"><ele>324.0</ele><time>2026-04-05T13:32:19Z</time></trkpt><trkpt lat="44.887684668272044" lon="9.60473223579667"><ele>324.0</ele><time>2026-04-05T13:32:20Z</time></trkpt><trkpt lat="44.88777334776994" lon="9.604760014977122"><ele>324.0</ele><time>2026-04-05T13:32:21Z</time></trkpt><trkpt lat="44.88785997352161" lon="9.60479064091252"><ele>323.4</ele><time>2026-04-05T13:32:22Z</time></trkpt><trkpt lat="44.887948220699904" lon="9.604826899434965"><ele>322.79999999999995</ele><time>2026-04-05T13:32:23Z</time></trkpt><trkpt lat="44.888037240594905" lon="9.604863036585977"><ele>322.20000000000005</ele><time>2026-04-05T13:32:24Z</time></trkpt><trkpt lat="44.88813593241781" lon="9.604902979369825"><ele>321.6</ele><time>2026-04-05T13:32:25Z</time></trkpt><trkpt lat="44.888238085247615" lon="9.604941976474711"><ele>321.0</ele><time>2026-04-05T13:32:26Z</time></trkpt><trkpt lat="44.888343635653094" lon="9.604985943331519"><ele>320.40000000000003</ele><time>2026-04-05T13:32:27Z</time></trkpt><trkpt lat="44.88845721166502" lon="9.60503365739594"><ele>319.8</ele><time>2026-04-05T13:32:28Z</time></trkpt><trkpt lat="44.88856611480904" lon="9.60507433288387"><ele>319.20000000000005</ele><time>2026-04-05T13:32:29Z</time></trkpt><trkpt lat="44.888662816748045" lon="9.6051145736396"><ele>318.6</ele><time>2026-04-05T13:32:30Z</time></trkpt><trkpt lat="44.88875415389522" lon="9.605152530190566"><ele>318.0</ele><time>2026-04-05T13:32:31Z</time></trkpt><trkpt lat="44.8888458970545" lon="9.6051871779133"><ele>318.0</ele><time>2026-04-05T13:32:32Z</time></trkpt><trkpt lat="44.88893444684739" lon="9.605222465294277"><ele>318.0</ele><time>2026-04-05T13:32:33Z</time></trkpt><trkpt lat="44.88901421998393" lon="9.605255643150084"><ele>318.0</ele><time>2026-04-05T13:32:34Z</time></trkpt><trkpt lat="44.88908169314194" lon="9.605295570125175"><ele>318.0</ele><time>2026-04-05T13:32:35Z</time></trkpt><trkpt lat="44.88913130059521" lon="9.605355900658113"><ele>318.0</ele><time>2026-04-05T13:32:36Z</time></trkpt><trkpt lat="44.889152764980636" lon="9.605440907465281"><ele>318.0</ele><time>2026-04-05T13:32:37Z</time></trkpt><trkpt lat="44.88914705853429" lon="9.605543969620687"><ele>318.1666666666667</ele><time>2026-04-05T13:32:38Z</time></trkpt><trkpt lat="44.889128224179466" lon="9.605670463911999"><ele>318.3333333333333</ele><time>2026-04-05T13:32:39Z</time></trkpt><trkpt lat="44.88912009792927" lon="9.605786652636143"><ele>318.5</ele><time>2026-04-05T13:32:40Z</time></trkpt><trkpt lat="44.88912233523507" lon="9.605897530564091"><ele>318.66666666666663</ele><time>2026-04-05T13:32:41Z</time></trkpt><trkpt lat="44.889119590865974" lon="9.606008024785153"><ele>318.8333333333333</ele><time>2026-04-05T13:32:42Z</time></trkpt><trkpt lat="44.88912817818388" lon="9.606127043996173"><ele>319.0</ele><time>2026-04-05T13:32:43Z</time></trkpt><trkpt lat="44.88914728514798" lon="9.606272664635119"><ele>318.0</ele><time>2026-04-05T13:32:44Z</time></trkpt><trkpt lat="44.88918040234483" lon="9.606419687034816"><ele>317.0</ele><time>2026-04-05T13:32:45Z</time></trkpt><trkpt lat="44.88918706226776" lon="9.606590932047501"><ele>316.0</ele><time>2026-04-05T13:32:46Z</time></trkpt><trkpt lat="44.88921234582072" lon="9.606724611479915"><ele>315.0</ele><time>2026-04-05T13:32:47Z</time></trkpt><trkpt lat="44.88923604743501" lon="9.606835450371879"><ele>314.0</ele><time>2026-04-05T13:32:48Z</time></trkpt><trkpt lat="44.889249900462275" lon="9.606927283671746"><ele>311.33333333333337</ele><time>2026-04-05T13:32:49Z</time></trkpt><trkpt lat="44.88926328256757" lon="9.607088752999188"><ele>308.6666666666667</ele><time>2026-04-05T13:32:51Z</time></trkpt><trkpt lat="44.88931744283128" lon="9.607224440338861"><ele>306.0</ele><time>2026-04-05T13:32:53Z</time></trkpt><trkpt lat="44.88937216601553" lon="9.607278133131157"><ele>303.3333333333333</ele><time>2026-04-05T13:32:54Z</time></trkpt><trkpt lat="44.889436451456824" lon="9.607307393213981"><ele>300.66666666666663</ele><time>2026-04-05T13:32:55Z</time></trkpt><trkpt lat="44.88951199467723" lon="9.60732298182703"><ele>298.0</ele><time>2026-04-05T13:32:56Z</time></trkpt><trkpt lat="44.88959208842908" lon="9.607327380727337"><ele>298.0</ele><time>2026-04-05T13:32:57Z</time></trkpt><trkpt lat="44.889677947873764" lon="9.60734113944971"><ele>298.0</ele><time>2026-04-05T13:32:58Z</time></trkpt><trkpt lat="44.88976660669554" lon="9.607380268230777"><ele>298.0</ele><time>2026-04-05T13:32:59Z</time></trkpt><trkpt lat="44.8898365954115" lon="9.607435333738687"><ele>298.0</ele><time>2026-04-05T13:33:00Z</time></trkpt><trkpt lat="44.88991271390589" lon="9.607548215203497"><ele>298.0</ele><time>2026-04-05T13:33:02Z</time></trkpt><trkpt lat="44.889939411384695" lon="9.607664510507313"><ele>298.0</ele><time>2026-04-05T13:33:03Z</time></trkpt><trkpt lat="44.88995797631259" lon="9.60781828531182"><ele>298.0</ele><time>2026-04-05T13:33:04Z</time></trkpt><trkpt lat="44.889982719444106" lon="9.607992551134615"><ele>298.0</ele><time>2026-04-05T13:33:05Z</time></trkpt><trkpt lat="44.89001124500009" lon="9.608162035934791"><ele>298.0</ele><time>2026-04-05T13:33:06Z</time></trkpt><trkpt lat="44.89003931130856" lon="9.60834385012739"><ele>297.0</ele><time>2026-04-05T13:33:07Z</time></trkpt><trkpt lat="44.890065697434046" lon="9.608509534797198"><ele>296.0</ele><time>2026-04-05T13:33:08Z</time></trkpt><trkpt lat="44.89009104670259" lon="9.608668885260926"><ele>295.0</ele><time>2026-04-05T13:33:09Z</time></trkpt><trkpt lat="44.89011980205125" lon="9.608816493453462"><ele>294.0</ele><time>2026-04-05T13:33:10Z</time></trkpt><trkpt lat="44.89015951765636" lon="9.608962433088736"><ele>291.5</ele><time>2026-04-05T13:33:11Z</time></trkpt><trkpt lat="44.89021527388932" lon="9.609091985784572"><ele>289.0</ele><time>2026-04-05T13:33:12Z</time></trkpt><trkpt lat="44.89028926019509" lon="9.609223127444606"><ele>286.5</ele><time>2026-04-05T13:33:13Z</time></trkpt><trkpt lat="44.89037646491435" lon="9.609359518893928"><ele>284.0</ele><time>2026-04-05T13:33:14Z</time></trkpt><trkpt lat="44.89046658706224" lon="9.609490670123538"><ele>283.59999999999997</ele><time>2026-04-05T13:33:15Z</time></trkpt><trkpt lat="44.89054917798151" lon="9.609614267288123"><ele>283.2</ele><time>2026-04-05T13:33:16Z</time></trkpt><trkpt lat="44.89062849977513" lon="9.609726953495043"><ele>282.79999999999995</ele><time>2026-04-05T13:33:17Z</time></trkpt><trkpt lat="44.890712030055695" lon="9.6098300396166"><ele>282.4</ele><time>2026-04-05T13:33:18Z</time></trkpt><trkpt lat="44.89078550591555" lon="9.609936246535037"><ele>282.0</ele><time>2026-04-05T13:33:19Z</time></trkpt><trkpt lat="44.89084831385245" lon="9.610065858624312"><ele>282.0</ele><time>2026-04-05T13:33:20Z</time></trkpt><trkpt lat="44.89089887659232" lon="9.610202259772038"><ele>282.0</ele><time>2026-04-05T13:33:21Z</time></trkpt><trkpt lat="44.89093226649184" lon="9.61034736406636"><ele>282.0</ele><time>2026-04-05T13:33:22Z</time></trkpt><trkpt lat="44.8909540392553" lon="9.610481932855842"><ele>282.0</ele><time>2026-04-05T13:33:23Z</time></trkpt><trkpt lat="44.89098635863166" lon="9.610592774948284"><ele>282.0</ele><time>2026-04-05T13:33:24Z</time></trkpt><trkpt lat="44.891027016890305" lon="9.610713510050148"><ele>281.8</ele><time>2026-04-05T13:33:25Z</time></trkpt><trkpt lat="44.89109358658586" lon="9.610842299770603"><ele>281.6</ele><time>2026-04-05T13:33:26Z</time></trkpt><trkpt lat="44.89113829606858" lon="9.610930402682236"><ele>281.40000000000003</ele><time>2026-04-05T13:33:27Z</time></trkpt><trkpt lat="44.89119303606081" lon="9.611044666090294"><ele>281.2</ele><time>2026-04-05T13:33:29Z</time></trkpt><trkpt lat="44.891238029700595" lon="9.611169707195893"><ele>281.0</ele><time>2026-04-05T13:33:31Z</time></trkpt><trkpt lat="44.89132448909423" lon="9.611246880043044"><ele>281.0</ele><time>2026-04-05T13:33:33Z</time></trkpt><trkpt lat="44.89138894542691" lon="9.611317346008384"><ele>281.0</ele><time>2026-04-05T13:33:39Z</time></trkpt><trkpt lat="44.89149177421627" lon="9.6113766374675"><ele>281.0</ele><time>2026-04-05T13:33:41Z</time></trkpt><trkpt lat="44.891603728684814" lon="9.611500766203028"><ele>281.0</ele><time>2026-04-05T13:33:43Z</time></trkpt><trkpt lat="44.89172588428607" lon="9.611657841229045"><ele>277.5</ele><time>2026-04-05T13:33:44Z</time></trkpt><trkpt lat="44.89184565159702" lon="9.611782728669638"><ele>274.0</ele><time>2026-04-05T13:33:45Z</time></trkpt><trkpt lat="44.89194851119065" lon="9.611882864048765"><ele>270.5</ele><time>2026-04-05T13:33:46Z</time></trkpt><trkpt lat="44.89205226967268" lon="9.611977075185157"><ele>267.0</ele><time>2026-04-05T13:33:47Z</time></trkpt><trkpt lat="44.89216615818905" lon="9.612067448357246"><ele>266.6</ele><time>2026-04-05T13:33:48Z</time></trkpt><trkpt lat="44.89225558309328" lon="9.612111171318771"><ele>266.2</ele><time>2026-04-05T13:33:49Z</time></trkpt><trkpt lat="44.892354654367516" lon="9.612139519132032"><ele>265.8</ele><time>2026-04-05T13:33:50Z</time></trkpt><trkpt lat="44.892437744506815" lon="9.612184994960389"><ele>265.4</ele><time>2026-04-05T13:33:51Z</time></trkpt><trkpt lat="44.89250765870455" lon="9.612251930915992"><ele>265.0</ele><time>2026-04-05T13:33:52Z</time></trkpt><trkpt lat="44.892573015022585" lon="9.612318061567482"><ele>262.66666666666663</ele><time>2026-04-05T13:33:53Z</time></trkpt><trkpt lat="44.89265264128074" lon="9.612350589898465"><ele>260.3333333333333</ele><time>2026-04-05T13:33:54Z</time></trkpt><trkpt lat="44.8927652142872" lon="9.61238091968072"><ele>258.0</ele><time>2026-04-05T13:33:56Z</time></trkpt><trkpt lat="44.892829949349995" lon="9.61240993457152"><ele>255.66666666666669</ele><time>2026-04-05T13:33:57Z</time></trkpt><trkpt lat="44.89289470767545" lon="9.612435368420927"><ele>253.33333333333334</ele><time>2026-04-05T13:33:58Z</time></trkpt><trkpt lat="44.892957624076466" lon="9.612406903799796"><ele>251.0</ele><time>2026-04-05T13:34:00Z</time></trkpt><trkpt lat="44.89304147011715" lon="9.612431827226493"><ele>251.0</ele><time>2026-04-05T13:34:03Z</time></trkpt><trkpt lat="44.893095056232106" lon="9.61256662460053"><ele>251.00000000000003</ele><time>2026-04-05T13:34:04Z</time></trkpt><trkpt lat="44.89313596240388" lon="9.612705208746414"><ele>251.00000000000003</ele><time>2026-04-05T13:34:05Z</time></trkpt><trkpt lat="44.893160569359985" lon="9.612811423483848"><ele>251.0</ele><time>2026-04-05T13:34:06Z</time></trkpt><trkpt lat="44.8931678100059" lon="9.61291266863873"><ele>251.0</ele><time>2026-04-05T13:34:07Z</time></trkpt><trkpt lat="44.89323315530148" lon="9.612987600739723"><ele>251.60000000000002</ele><time>2026-04-05T13:34:09Z</time></trkpt><trkpt lat="44.89329777890339" lon="9.613039144623981"><ele>252.20000000000002</ele><time>2026-04-05T13:34:10Z</time></trkpt><trkpt lat="44.89337021210146" lon="9.613079333239062"><ele>252.79999999999998</ele><time>2026-04-05T13:34:11Z</time></trkpt><trkpt lat="44.893482456602946" lon="9.613071073154767"><ele>253.39999999999998</ele><time>2026-04-05T13:34:12Z</time></trkpt><trkpt lat="44.893595395876126" lon="9.613079887950551"><ele>254.0</ele><time>2026-04-05T13:34:13Z</time></trkpt><trkpt lat="44.8936563950134" lon="9.61315374646962"><ele>252.2</ele><time>2026-04-05T13:34:15Z</time></trkpt><trkpt lat="44.89372895287292" lon="9.613245673743393"><ele>250.39999999999998</ele><time>2026-04-05T13:34:17Z</time></trkpt><trkpt lat="44.89383080363874" lon="9.613323888235366"><ele>248.6</ele><time>2026-04-05T13:34:19Z</time></trkpt><trkpt lat="44.89385868479321" lon="9.613470881000074"><ele>246.8</ele><time>2026-04-05T13:34:21Z</time></trkpt><trkpt lat="44.89380730186595" lon="9.613586623079012"><ele>245.0</ele><time>2026-04-05T13:34:23Z</time></trkpt><trkpt lat="44.89367538485404" lon="9.613626779304212"><ele>245.6</ele><time>2026-04-05T13:34:25Z</time></trkpt><trkpt lat="44.89361417738451" lon="9.613678013026119"><ele>246.2</ele><time>2026-04-05T13:34:27Z</time></trkpt><trkpt lat="44.89367582855122" lon="9.613762792933056"><ele>246.8</ele><time>2026-04-05T13:34:29Z</time></trkpt><trkpt lat="44.89375849180145" lon="9.613955682747214"><ele>247.4</ele><time>2026-04-05T13:34:31Z</time></trkpt><trkpt lat="44.89384830393637" lon="9.614086543550162"><ele>248.0</ele><time>2026-04-05T13:34:32Z</time></trkpt><trkpt lat="44.893949648852946" lon="9.614244481610731"><ele>248.0</ele><time>2026-04-05T13:34:33Z</time></trkpt><trkpt lat="44.894055642960694" lon="9.614419426620676"><ele>248.0</ele><time>2026-04-05T13:34:34Z</time></trkpt><trkpt lat="44.89413655860891" lon="9.6145906927886"><ele>248.0</ele><time>2026-04-05T13:34:35Z</time></trkpt><trkpt lat="44.89423159047584" lon="9.61479430176015"><ele>245.75</ele><time>2026-04-05T13:34:36Z</time></trkpt><trkpt lat="44.89429517814062" lon="9.614916737144258"><ele>243.5</ele><time>2026-04-05T13:34:37Z</time></trkpt><trkpt lat="44.89438152063517" lon="9.615068274737967"><ele>241.25</ele><time>2026-04-05T13:34:38Z</time></trkpt><trkpt lat="44.89446484702107" lon="9.61520985879474"><ele>239.0</ele><time>2026-04-05T13:34:39Z</time></trkpt><trkpt lat="44.89454922373065" lon="9.615362833218203"><ele>239.0</ele><time>2026-04-05T13:34:40Z</time></trkpt><trkpt lat="44.89462890220394" lon="9.615526695397735"><ele>239.0</ele><time>2026-04-05T13:34:41Z</time></trkpt><trkpt lat="44.894701861108146" lon="9.615686393153288"><ele>239.0</ele><time>2026-04-05T13:34:42Z</time></trkpt><trkpt lat="44.89478145962296" lon="9.615823689023856"><ele>239.0</ele><time>2026-04-05T13:34:43Z</time></trkpt><trkpt lat="44.89487707637759" lon="9.615943726468094"><ele>239.0</ele><time>2026-04-05T13:34:44Z</time></trkpt><trkpt lat="44.89497991325239" lon="9.616067564301726"><ele>239.0</ele><time>2026-04-05T13:34:45Z</time></trkpt><trkpt lat="44.89507831774452" lon="9.616199370975009"><ele>239.0</ele><time>2026-04-05T13:34:46Z</time></trkpt><trkpt lat="44.89515422481523" lon="9.616325891545793"><ele>239.0</ele><time>2026-04-05T13:34:47Z</time></trkpt><trkpt lat="44.895138576599415" lon="9.61656861762679"><ele>238.79999999999998</ele><time>2026-04-05T13:34:49Z</time></trkpt><trkpt lat="44.89516902416116" lon="9.616684148931085"><ele>238.59999999999997</ele><time>2026-04-05T13:34:50Z</time></trkpt><trkpt lat="44.89529981618656" lon="9.616818356406869"><ele>238.4</ele><time>2026-04-05T13:34:52Z</time></trkpt><trkpt lat="44.895368965535106" lon="9.616900209871353"><ele>238.2</ele><time>2026-04-05T13:34:53Z</time></trkpt><trkpt lat="44.89543024558699" lon="9.617009819977458"><ele>238.0</ele><time>2026-04-05T13:34:54Z</time></trkpt><trkpt lat="44.89550528173915" lon="9.617110380393758"><ele>238.0</ele><time>2026-04-05T13:34:55Z</time></trkpt><trkpt lat="44.89557557958761" lon="9.617159508719876"><ele>238.0</ele><time>2026-04-05T13:34:56Z</time></trkpt><trkpt lat="44.89563212944877" lon="9.61726599284008"><ele>238.0</ele><time>2026-04-05T13:34:58Z</time></trkpt><trkpt lat="44.89566624735598" lon="9.617379900056687"><ele>238.0</ele><time>2026-04-05T13:34:59Z</time></trkpt><trkpt lat="44.895738902531676" lon="9.617463718832571"><ele>238.0</ele><time>2026-04-05T13:35:00Z</time></trkpt><trkpt lat="44.89584498202743" lon="9.617575502084899"><ele>238.0</ele><time>2026-04-05T13:35:01Z</time></trkpt><trkpt lat="44.89591068569339" lon="9.61772835267266"><ele>238.0</ele><time>2026-04-05T13:35:02Z</time></trkpt><trkpt lat="44.895978545882315" lon="9.6178521615606"><ele>238.0</ele><time>2026-04-05T13:35:03Z</time></trkpt><trkpt lat="44.89606146132731" lon="9.617941897493662"><ele>238.0</ele><time>2026-04-05T13:35:04Z</time></trkpt><trkpt lat="44.896165042544325" lon="9.618027982287257"><ele>235.4</ele><time>2026-04-05T13:35:05Z</time></trkpt><trkpt lat="44.896257494257924" lon="9.61815585136784"><ele>232.8</ele><time>2026-04-05T13:35:06Z</time></trkpt><trkpt lat="44.896316696137426" lon="9.618276624580528"><ele>230.2</ele><time>2026-04-05T13:35:07Z</time></trkpt><trkpt lat="44.89639377296954" lon="9.618317430960403"><ele>227.6</ele><time>2026-04-05T13:35:32Z</time></trkpt><trkpt lat="44.896500780183935" lon="9.618384972286101"><ele>225.0</ele><time>2026-04-05T13:35:34Z</time></trkpt><trkpt lat="44.896578160337704" lon="9.618426299532938"><ele>225.0</ele><time>2026-04-05T13:35:35Z</time></trkpt><trkpt lat="44.89666316081061" lon="9.618495344716127"><ele>225.0</ele><time>2026-04-05T13:35:36Z</time></trkpt><trkpt lat="44.89675541258196" lon="9.618549287793693"><ele>225.0</ele><time>2026-04-05T13:35:37Z</time></trkpt><trkpt lat="44.89682541752896" lon="9.618594806694398"><ele>225.0</ele><time>2026-04-05T13:35:38Z</time></trkpt><trkpt lat="44.896900253766844" lon="9.618664070276365"><ele>225.0</ele><time>2026-04-05T13:35:39Z</time></trkpt><trkpt lat="44.8969758161317" lon="9.618733627292443"><ele>225.0</ele><time>2026-04-05T13:35:40Z</time></trkpt><trkpt lat="44.89703971818389" lon="9.618737122664184"><ele>225.0</ele><time>2026-04-05T13:35:41Z</time></trkpt><trkpt lat="44.89703871659937" lon="9.618846620902703"><ele>225.0</ele><time>2026-04-05T13:35:45Z</time></trkpt><trkpt lat="44.89710383749516" lon="9.618946844534415"><ele>225.0</ele><time>2026-04-05T13:35:48Z</time></trkpt><trkpt lat="44.897196535183575" lon="9.618994110914615"><ele>225.0</ele><time>2026-04-05T13:35:49Z</time></trkpt><trkpt lat="44.89730725865684" lon="9.619041246337778"><ele>225.0</ele><time>2026-04-05T13:35:50Z</time></trkpt><trkpt lat="44.897382606486126" lon="9.619191565487023"><ele>225.0</ele><time>2026-04-05T13:35:51Z</time></trkpt><trkpt lat="44.89748314088857" lon="9.619252403901699"><ele>225.0</ele><time>2026-04-05T13:35:52Z</time></trkpt><trkpt lat="44.89761476527627" lon="9.619309677031456"><ele>225.0</ele><time>2026-04-05T13:35:53Z</time></trkpt><trkpt lat="44.897751431836994" lon="9.619383801588068"><ele>226.33333333333331</ele><time>2026-04-05T13:35:54Z</time></trkpt><trkpt lat="44.89787821393202" lon="9.61947623751288"><ele>227.66666666666666</ele><time>2026-04-05T13:35:55Z</time></trkpt><trkpt lat="44.898013905350574" lon="9.619583092003223"><ele>229.0</ele><time>2026-04-05T13:35:56Z</time></trkpt><trkpt lat="44.898157965762934" lon="9.619685593430454"><ele>229.0</ele><time>2026-04-05T13:35:57Z</time></trkpt><trkpt lat="44.89829484665497" lon="9.619774390627231"><ele>229.0</ele><time>2026-04-05T13:35:58Z</time></trkpt><trkpt lat="44.89842206193113" lon="9.619864464290485"><ele>229.0</ele><time>2026-04-05T13:35:59Z</time></trkpt><trkpt lat="44.89851929543212" lon="9.619956826723634"><ele>229.0</ele><time>2026-04-05T13:36:00Z</time></trkpt><trkpt lat="44.89858910653095" lon="9.62006130536073"><ele>228.6</ele><time>2026-04-05T13:36:01Z</time></trkpt><trkpt lat="44.89862766990472" lon="9.620170544753957"><ele>228.2</ele><time>2026-04-05T13:36:02Z</time></trkpt><trkpt lat="44.89865972384905" lon="9.620304244382826"><ele>227.79999999999998</ele><time>2026-04-05T13:36:03Z</time></trkpt><trkpt lat="44.89869144595216" lon="9.620492909132677"><ele>227.39999999999998</ele><time>2026-04-05T13:36:04Z</time></trkpt><trkpt lat="44.89873845426606" lon="9.620654395304785"><ele>227.0</ele><time>2026-04-05T13:36:05Z</time></trkpt><trkpt lat="44.89882376834552" lon="9.620756511907278"><ele>227.0</ele><time>2026-04-05T13:36:06Z</time></trkpt><trkpt lat="44.8989223909954" lon="9.62083165019024"><ele>227.0</ele><time>2026-04-05T13:36:07Z</time></trkpt><trkpt lat="44.89903195346497" lon="9.620927091562095"><ele>227.0</ele><time>2026-04-05T13:36:08Z</time></trkpt><trkpt lat="44.89916329043476" lon="9.62096676978964"><ele>227.0</ele><time>2026-04-05T13:36:09Z</time></trkpt><trkpt lat="44.899254147877045" lon="9.621120718070005"><ele>229.25</ele><time>2026-04-05T13:36:10Z</time></trkpt><trkpt lat="44.89938705307702" lon="9.621216927096766"><ele>231.5</ele><time>2026-04-05T13:36:11Z</time></trkpt><trkpt lat="44.899512330940304" lon="9.62127720772132"><ele>233.75</ele><time>2026-04-05T13:36:12Z</time></trkpt><trkpt lat="44.89964289226916" lon="9.621350042712534"><ele>236.0</ele><time>2026-04-05T13:36:13Z</time></trkpt><trkpt lat="44.89977490859471" lon="9.621443215747684"><ele>236.0</ele><time>2026-04-05T13:36:14Z</time></trkpt><trkpt lat="44.899915655024905" lon="9.621507792227519"><ele>236.0</ele><time>2026-04-05T13:36:15Z</time></trkpt><trkpt lat="44.9000523352331" lon="9.621542076050845"><ele>236.0</ele><time>2026-04-05T13:36:16Z</time></trkpt><trkpt lat="44.900170537781385" lon="9.621611773289809"><ele>236.0</ele><time>2026-04-05T13:36:17Z</time></trkpt><trkpt lat="44.90028735795979" lon="9.621675399349462"><ele>233.5</ele><time>2026-04-05T13:36:18Z</time></trkpt><trkpt lat="44.900416635059365" lon="9.6217189505294"><ele>231.0</ele><time>2026-04-05T13:36:19Z</time></trkpt><trkpt lat="44.90054020645831" lon="9.621721560981376"><ele>228.5</ele><time>2026-04-05T13:36:20Z</time></trkpt><trkpt lat="44.900649213747" lon="9.62176136890218"><ele>226.0</ele><time>2026-04-05T13:36:21Z</time></trkpt><trkpt lat="44.90074783379977" lon="9.621793495206767"><ele>226.0</ele><time>2026-04-05T13:36:22Z</time></trkpt><trkpt lat="44.900843703947686" lon="9.621855141052741"><ele>226.00000000000003</ele><time>2026-04-05T13:36:23Z</time></trkpt><trkpt lat="44.90093071392509" lon="9.621913630641725"><ele>226.00000000000003</ele><time>2026-04-05T13:36:24Z</time></trkpt><trkpt lat="44.90101083116509" lon="9.621957857630965"><ele>226.0</ele><time>2026-04-05T13:36:25Z</time></trkpt><trkpt lat="44.901093687990766" lon="9.622003596950695"><ele>226.0</ele><time>2026-04-05T13:36:26Z</time></trkpt><trkpt lat="44.901220916375706" lon="9.621950828203333"><ele>224.4</ele><time>2026-04-05T13:36:27Z</time></trkpt><trkpt lat="44.90132302269437" lon="9.621978585188549"><ele>222.8</ele><time>2026-04-05T13:36:28Z</time></trkpt><trkpt lat="44.90142828429721" lon="9.622005378772485"><ele>221.20000000000002</ele><time>2026-04-05T13:36:29Z</time></trkpt><trkpt lat="44.90152915189779" lon="9.622033816757618"><ele>219.60000000000002</ele><time>2026-04-05T13:36:30Z</time></trkpt><trkpt lat="44.90163577826832" lon="9.622046968723348"><ele>218.0</ele><time>2026-04-05T13:36:31Z</time></trkpt><trkpt lat="44.90175109500696" lon="9.622053760334285"><ele>222.25</ele><time>2026-04-05T13:36:32Z</time></trkpt><trkpt lat="44.90185404614813" lon="9.622056238973896"><ele>226.5</ele><time>2026-04-05T13:36:33Z</time></trkpt><trkpt lat="44.90196360422666" lon="9.622068458579678"><ele>230.75</ele><time>2026-04-05T13:36:34Z</time></trkpt><trkpt lat="44.90207708487879" lon="9.622095134260068"><ele>235.0</ele><time>2026-04-05T13:36:35Z</time></trkpt><trkpt lat="44.90219707614432" lon="9.62212992905506"><ele>235.0</ele><time>2026-04-05T13:36:36Z</time></trkpt><trkpt lat="44.90230175942785" lon="9.622164919194871"><ele>235.0</ele><time>2026-04-05T13:36:37Z</time></trkpt><trkpt lat="44.90241302611453" lon="9.622204085283052"><ele>235.0</ele><time>2026-04-05T13:36:38Z</time></trkpt><trkpt lat="44.902515975220865" lon="9.622253652173068"><ele>235.0</ele><time>2026-04-05T13:36:39Z</time></trkpt><trkpt lat="44.90262397885773" lon="9.622282199287389"><ele>235.0</ele><time>2026-04-05T13:36:40Z</time></trkpt><trkpt lat="44.90271602996067" lon="9.6222956416001"><ele>233.8</ele><time>2026-04-05T13:36:41Z</time></trkpt><trkpt lat="44.902810578431605" lon="9.622286051645066"><ele>232.6</ele><time>2026-04-05T13:36:42Z</time></trkpt><trkpt lat="44.902911487490975" lon="9.622294334741397"><ele>231.39999999999998</ele><time>2026-04-05T13:36:43Z</time></trkpt><trkpt lat="44.90302471496146" lon="9.622324632847446"><ele>230.2</ele><time>2026-04-05T13:36:44Z</time></trkpt><trkpt lat="44.90313868735602" lon="9.622344563634945"><ele>229.0</ele><time>2026-04-05T13:36:45Z</time></trkpt><trkpt lat="44.903243520128456" lon="9.622358145747787"><ele>229.0</ele><time>2026-04-05T13:36:46Z</time></trkpt><trkpt lat="44.903351125731426" lon="9.62234268603545"><ele>229.0</ele><time>2026-04-05T13:36:47Z</time></trkpt><trkpt lat="44.903462322902776" lon="9.622298344741143"><ele>229.0</ele><time>2026-04-05T13:36:48Z</time></trkpt><trkpt lat="44.90356940457851" lon="9.622250358568989"><ele>229.0</ele><time>2026-04-05T13:36:49Z</time></trkpt><trkpt lat="44.90368310322691" lon="9.62222412201214"><ele>229.0</ele><time>2026-04-05T13:36:50Z</time></trkpt><trkpt lat="44.90378883070711" lon="9.622228543957936"><ele>228.99999999999997</ele><time>2026-04-05T13:36:51Z</time></trkpt><trkpt lat="44.90389188492805" lon="9.62220704429369"><ele>228.99999999999997</ele><time>2026-04-05T13:36:52Z</time></trkpt><trkpt lat="44.903996200695694" lon="9.622164663235255"><ele>229.0</ele><time>2026-04-05T13:36:53Z</time></trkpt><trkpt lat="44.90410551193538" lon="9.622145712047402"><ele>229.0</ele><time>2026-04-05T13:36:54Z</time></trkpt><trkpt lat="44.90421344897826" lon="9.62213638108357"><ele>228.39999999999998</ele><time>2026-04-05T13:36:55Z</time></trkpt><trkpt lat="44.90432310851224" lon="9.622132202006867"><ele>227.79999999999998</ele><time>2026-04-05T13:36:56Z</time></trkpt><trkpt lat="44.904430287814" lon="9.622127835935181"><ele>227.20000000000002</ele><time>2026-04-05T13:36:57Z</time></trkpt><trkpt lat="44.90454195715487" lon="9.622098548129625"><ele>226.60000000000002</ele><time>2026-04-05T13:36:58Z</time></trkpt><trkpt lat="44.904643147485245" lon="9.622050401282433"><ele>226.0</ele><time>2026-04-05T13:36:59Z</time></trkpt><trkpt lat="44.90473621054498" lon="9.622007923434204"><ele>221.60000000000002</ele><time>2026-04-05T13:37:00Z</time></trkpt><trkpt lat="44.904842607836606" lon="9.621977347617655"><ele>217.20000000000002</ele><time>2026-04-05T13:37:01Z</time></trkpt><trkpt lat="44.90494922568913" lon="9.621949803934132"><ele>212.8</ele><time>2026-04-05T13:37:02Z</time></trkpt><trkpt lat="44.90505581287584" lon="9.6219029555281"><ele>208.39999999999998</ele><time>2026-04-05T13:37:03Z</time></trkpt><trkpt lat="44.90517396201469" lon="9.621869397198092"><ele>204.0</ele><time>2026-04-05T13:37:04Z</time></trkpt><trkpt lat="44.905290500416896" lon="9.621825940759546"><ele>204.0</ele><time>2026-04-05T13:37:05Z</time></trkpt><trkpt lat="44.905397747337496" lon="9.621797706828929"><ele>204.0</ele><time>2026-04-05T13:37:06Z</time></trkpt><trkpt lat="44.905503111235944" lon="9.621764783557067"><ele>204.0</ele><time>2026-04-05T13:37:07Z</time></trkpt><trkpt lat="44.905607857025196" lon="9.621728996953506"><ele>204.0</ele><time>2026-04-05T13:37:08Z</time></trkpt><trkpt lat="44.90571490355289" lon="9.621675549894706"><ele>204.0</ele><time>2026-04-05T13:37:09Z</time></trkpt><trkpt lat="44.905828896148456" lon="9.621651808801419"><ele>203.79999999999998</ele><time>2026-04-05T13:37:10Z</time></trkpt><trkpt lat="44.90593692355314" lon="9.621637168714114"><ele>203.6</ele><time>2026-04-05T13:37:11Z</time></trkpt><trkpt lat="44.906049901450096" lon="9.621632007901788"><ele>203.4</ele><time>2026-04-05T13:37:12Z</time></trkpt><trkpt lat="44.906159847526425" lon="9.62162620707594"><ele>203.2</ele><time>2026-04-05T13:37:13Z</time></trkpt><trkpt lat="44.9062689033295" lon="9.621618079862243"><ele>203.0</ele><time>2026-04-05T13:37:14Z</time></trkpt><trkpt lat="44.90638523831625" lon="9.621620774855058"><ele>203.0</ele><time>2026-04-05T13:37:15Z</time></trkpt><trkpt lat="44.90650073351655" lon="9.621633787909621"><ele>203.0</ele><time>2026-04-05T13:37:16Z</time></trkpt><trkpt lat="44.90660877840807" lon="9.621646935266735"><ele>203.0</ele><time>2026-04-05T13:37:17Z</time></trkpt><trkpt lat="44.90671322905472" lon="9.621643259272025"><ele>203.0</ele><time>2026-04-05T13:37:18Z</time></trkpt><trkpt lat="44.90681740870179" lon="9.621634520210119"><ele>203.0</ele><time>2026-04-05T13:37:19Z</time></trkpt><trkpt lat="44.90693414678863" lon="9.621630844586562"><ele>203.4</ele><time>2026-04-05T13:37:20Z</time></trkpt><trkpt lat="44.907041464531346" lon="9.621620059376834"><ele>203.8</ele><time>2026-04-05T13:37:21Z</time></trkpt><trkpt lat="44.907149264388934" lon="9.621604504967666"><ele>204.2</ele><time>2026-04-05T13:37:22Z</time></trkpt><trkpt lat="44.907252237165594" lon="9.621571419645642"><ele>204.6</ele><time>2026-04-05T13:37:23Z</time></trkpt><trkpt lat="44.90735532758452" lon="9.621524401678808"><ele>205.0</ele><time>2026-04-05T13:37:24Z</time></trkpt><trkpt lat="44.90745193183036" lon="9.621455452353986"><ele>204.99999999999997</ele><time>2026-04-05T13:37:25Z</time></trkpt><trkpt lat="44.90753336221299" lon="9.621395522181672"><ele>205.0</ele><time>2026-04-05T13:37:26Z</time></trkpt><trkpt lat="44.90760409980705" lon="9.621380789826285"><ele>205.0</ele><time>2026-04-05T13:37:27Z</time></trkpt><trkpt lat="44.90768670020288" lon="9.621388964148686"><ele>205.0</ele><time>2026-04-05T13:37:28Z</time></trkpt><trkpt lat="44.9077767122924" lon="9.621357004901444"><ele>204.99999999999997</ele><time>2026-04-05T13:37:29Z</time></trkpt><trkpt lat="44.907882201832585" lon="9.621352533699636"><ele>205.0</ele><time>2026-04-05T13:37:30Z</time></trkpt><trkpt lat="44.907991016026116" lon="9.621368518746337"><ele>204.4</ele><time>2026-04-05T13:37:31Z</time></trkpt><trkpt lat="44.90809574522913" lon="9.621380429047262"><ele>203.8</ele><time>2026-04-05T13:37:32Z</time></trkpt><trkpt lat="44.908191866672745" lon="9.621387145437907"><ele>203.2</ele><time>2026-04-05T13:37:33Z</time></trkpt><trkpt lat="44.90828757160603" lon="9.621392803938015"><ele>202.6</ele><time>2026-04-05T13:37:34Z</time></trkpt><trkpt lat="44.908386773248374" lon="9.62140183894832"><ele>202.0</ele><time>2026-04-05T13:37:35Z</time></trkpt><trkpt lat="44.908476915584025" lon="9.621400857522808"><ele>201.99999999999997</ele><time>2026-04-05T13:37:36Z</time></trkpt><trkpt lat="44.90856422563874" lon="9.62138877267727"><ele>202.0</ele><time>2026-04-05T13:37:37Z</time></trkpt><trkpt lat="44.90863189303938" lon="9.621388651893522"><ele>202.0</ele><time>2026-04-05T13:37:38Z</time></trkpt><trkpt lat="44.90871433164054" lon="9.62142685692971"><ele>202.0</ele><time>2026-04-05T13:37:40Z</time></trkpt><trkpt lat="44.90879484318534" lon="9.621561700718214"><ele>201.99999999999997</ele><time>2026-04-05T13:37:42Z</time></trkpt><trkpt lat="44.908835986789896" lon="9.621654498621064"><ele>202.0</ele><time>2026-04-05T13:37:43Z</time></trkpt><trkpt lat="44.908877346981285" lon="9.621747815532899"><ele>201.99999999999997</ele><time>2026-04-05T13:37:44Z</time></trkpt><trkpt lat="44.908888800622535" lon="9.621852158429363"><ele>202.0</ele><time>2026-04-05T13:37:45Z</time></trkpt><trkpt lat="44.908861043836886" lon="9.621967643449754"><ele>202.0</ele><time>2026-04-05T13:37:46Z</time></trkpt><trkpt lat="44.90884336251042" lon="9.62206420174313"><ele>202.0</ele><time>2026-04-05T13:37:47Z</time></trkpt><trkpt lat="44.908818447529974" lon="9.622193202006835"><ele>201.99999999999997</ele><time>2026-04-05T13:37:48Z</time></trkpt><trkpt lat="44.90879931078469" lon="9.622350674360058"><ele>202.0</ele><time>2026-04-05T13:37:49Z</time></trkpt><trkpt lat="44.908786270887376" lon="9.622498631300166"><ele>204.33333333333331</ele><time>2026-04-05T13:37:50Z</time></trkpt><trkpt lat="44.90879561482156" lon="9.622646837919838"><ele>206.66666666666666</ele><time>2026-04-05T13:37:51Z</time></trkpt><trkpt lat="44.90879605790959" lon="9.622772318146922"><ele>209.0</ele><time>2026-04-05T13:37:52Z</time></trkpt><trkpt lat="44.90882935962646" lon="9.62291170907036"><ele>211.33333333333331</ele><time>2026-04-05T13:37:54Z</time></trkpt><trkpt lat="44.9088391623804" lon="9.623007841599325"><ele>213.66666666666666</ele><time>2026-04-05T13:37:56Z</time></trkpt><trkpt lat="44.90886837338406" lon="9.623090812086785"><ele>216.0</ele><time>2026-04-05T13:37:57Z</time></trkpt><trkpt lat="44.90886628221918" lon="9.623186561645086"><ele>219.5</ele><time>2026-04-05T13:37:58Z</time></trkpt><trkpt lat="44.90877157664611" lon="9.623722247743004"><ele>223.0</ele><time>2026-04-05T13:38:01Z</time></trkpt><trkpt lat="44.90870260877074" lon="9.623850085776908"><ele>223.0</ele><time>2026-04-05T13:38:02Z</time></trkpt><trkpt lat="44.90862806267366" lon="9.623985698844603"><ele>223.0</ele><time>2026-04-05T13:38:03Z</time></trkpt><trkpt lat="44.90855644520231" lon="9.62413688137662"><ele>223.0</ele><time>2026-04-05T13:38:04Z</time></trkpt><trkpt lat="44.908516806186846" lon="9.624257374469098"><ele>223.0</ele><time>2026-04-05T13:38:05Z</time></trkpt><trkpt lat="44.90847573213182" lon="9.624370656676474"><ele>223.0</ele><time>2026-04-05T13:38:06Z</time></trkpt><trkpt lat="44.90845295124971" lon="9.624461676766659"><ele>222.99999999999997</ele><time>2026-04-05T13:38:08Z</time></trkpt><trkpt lat="44.908549817065484" lon="9.6244547826107"><ele>223.0</ele><time>2026-04-05T13:38:12Z</time></trkpt><trkpt lat="44.90864620704857" lon="9.624415278356711"><ele>223.0</ele><time>2026-04-05T13:38:14Z</time></trkpt><trkpt lat="44.908703627798666" lon="9.624377319040969"><ele>223.0</ele><time>2026-04-05T13:38:17Z</time></trkpt><trkpt lat="44.908755939689044" lon="9.624310991156653"><ele>222.99999999999997</ele><time>2026-04-05T13:38:20Z</time></trkpt><trkpt lat="44.908823001690216" lon="9.624318726280663"><ele>223.0</ele><time>2026-04-05T13:38:23Z</time></trkpt><trkpt lat="44.908886814727445" lon="9.624297789662116"><ele>222.99999999999997</ele><time>2026-04-05T13:46:00Z</time></trkpt><trkpt lat="44.90880184377694" lon="9.624271331293004"><ele>223.0</ele><time>2026-04-05T13:46:07Z</time></trkpt><trkpt lat="44.90871344496105" lon="9.624311177927787"><ele>223.0</ele><time>2026-04-05T13:46:10Z</time></trkpt><trkpt lat="44.908625975241804" lon="9.624357360248482"><ele>223.0</ele><time>2026-04-05T13:46:12Z</time></trkpt><trkpt lat="44.908548853938335" lon="9.62439935288939"><ele>222.99999999999997</ele><time>2026-04-05T13:46:14Z</time></trkpt><trkpt lat="44.90847250038745" lon="9.624416198947134"><ele>223.0</ele><time>2026-04-05T13:46:17Z</time></trkpt><trkpt lat="44.90842837550897" lon="9.62434072042535"><ele>222.99999999999997</ele><time>2026-04-05T13:46:20Z</time></trkpt><trkpt lat="44.9084685059416" lon="9.624249137622575"><ele>223.0</ele><time>2026-04-05T13:46:23Z</time></trkpt><trkpt lat="44.908521306635556" lon="9.624184502266537"><ele>223.0</ele><time>2026-04-05T13:46:26Z</time></trkpt><trkpt lat="44.90858612685861" lon="9.624135715033978"><ele>223.0</ele><time>2026-04-05T13:50:24.999Z</time></trkpt><trkpt lat="44.908614787421115" lon="9.624011347960812"><ele>222.99999999999997</ele><time>2026-04-05T13:50:26.999Z</time></trkpt><trkpt lat="44.90863784653936" lon="9.623901987703324"><ele>223.0</ele><time>2026-04-05T13:50:28.999Z</time></trkpt><trkpt lat="44.908688410863746" lon="9.623787034920188"><ele>222.99999999999997</ele><time>2026-04-05T13:50:30.999Z</time></trkpt><trkpt lat="44.90872543917723" lon="9.623712029971273"><ele>223.0</ele><time>2026-04-05T13:50:31.999Z</time></trkpt><trkpt lat="44.908778692801725" lon="9.62359789609743"><ele>223.0</ele><time>2026-04-05T13:50:33.999Z</time></trkpt><trkpt lat="44.90880539391718" lon="9.623504810242693"><ele>223.0</ele><time>2026-04-05T13:50:35.999Z</time></trkpt><trkpt lat="44.90882195540431" lon="9.623408171508467"><ele>222.99999999999997</ele><time>2026-04-05T13:50:38Z</time></trkpt><trkpt lat="44.908836516434384" lon="9.623314676448675"><ele>223.0</ele><time>2026-04-05T13:50:41Z</time></trkpt><trkpt lat="44.90886126672675" lon="9.623167242892505"><ele>222.99999999999997</ele><time>2026-04-05T13:50:44Z</time></trkpt><trkpt lat="44.908861377475844" lon="9.623070406124901"><ele>223.0</ele><time>2026-04-05T13:50:57Z</time></trkpt><trkpt lat="44.90884345246598" lon="9.622978941545432"><ele>223.0</ele><time>2026-04-05T13:50:59Z</time></trkpt><trkpt lat="44.90881622577424" lon="9.622885632014187"><ele>223.0</ele><time>2026-04-05T13:51:01Z</time></trkpt><trkpt lat="44.908791399204794" lon="9.622747969228614"><ele>222.99999999999997</ele><time>2026-04-05T13:51:03Z</time></trkpt><trkpt lat="44.908797519480245" lon="9.622630864123026"><ele>223.0</ele><time>2026-04-05T13:51:05Z</time></trkpt><trkpt lat="44.90879958773083" lon="9.622488691841642"><ele>221.83333333333331</ele><time>2026-04-05T13:51:07Z</time></trkpt><trkpt lat="44.908799373210755" lon="9.622355233152513"><ele>220.66666666666666</ele><time>2026-04-05T13:51:09Z</time></trkpt><trkpt lat="44.90881509588023" lon="9.622258780161589"><ele>219.5</ele><time>2026-04-05T13:51:11Z</time></trkpt><trkpt lat="44.90882436968019" lon="9.62214204244193"><ele>218.33333333333331</ele><time>2026-04-05T13:51:16Z</time></trkpt><trkpt lat="44.908822298774446" lon="9.622016051234379"><ele>217.16666666666666</ele><time>2026-04-05T13:51:19Z</time></trkpt><trkpt lat="44.90881444119285" lon="9.621920024751967"><ele>216.0</ele><time>2026-04-05T13:51:21Z</time></trkpt><trkpt lat="44.90880616609114" lon="9.621820830892766"><ele>213.66666666666666</ele><time>2026-04-05T13:51:24Z</time></trkpt><trkpt lat="44.90881705864237" lon="9.621674254698307"><ele>211.33333333333331</ele><time>2026-04-05T13:51:59.999Z</time></trkpt><trkpt lat="44.908768818171936" lon="9.62158977961864"><ele>209.0</ele><time>2026-04-05T13:52:05Z</time></trkpt><trkpt lat="44.908724889085875" lon="9.62152551896957"><ele>206.66666666666666</ele><time>2026-04-05T13:52:07Z</time></trkpt><trkpt lat="44.90865509093655" lon="9.621433682649544"><ele>204.33333333333331</ele><time>2026-04-05T13:52:10Z</time></trkpt><trkpt lat="44.90860914994745" lon="9.621363594280968"><ele>202.0</ele><time>2026-04-05T13:52:12Z</time></trkpt><trkpt lat="44.90855609111953" lon="9.621311191564422"><ele>202.0</ele><time>2026-04-05T13:52:15Z</time></trkpt><trkpt lat="44.90848990759535" lon="9.621325764915161"><ele>202.0</ele><time>2026-04-05T13:52:18Z</time></trkpt><trkpt lat="44.908496666146924" lon="9.621422529385153"><ele>202.0</ele><time>2026-04-05T13:52:22Z</time></trkpt><trkpt lat="44.908578322520775" lon="9.621429575434204"><ele>202.0</ele><time>2026-04-05T13:52:25Z</time></trkpt><trkpt lat="44.90864154396043" lon="9.621424862843277"><ele>202.0</ele><time>2026-04-05T13:52:28Z</time></trkpt><trkpt lat="44.90870343292617" lon="9.621441466995234"><ele>202.0</ele><time>2026-04-05T13:52:48Z</time></trkpt><trkpt lat="44.908753800952866" lon="9.621512743586624"><ele>202.0</ele><time>2026-04-05T13:52:50Z</time></trkpt><trkpt lat="44.908808008588174" lon="9.621593049852605"><ele>202.0</ele><time>2026-04-05T13:52:52Z</time></trkpt><trkpt lat="44.908849694480836" lon="9.621688239183666"><ele>202.0</ele><time>2026-04-05T13:52:54Z</time></trkpt><trkpt lat="44.9088894467495" lon="9.621758480723424"><ele>202.0</ele><time>2026-04-05T13:55:07Z</time></trkpt><trkpt lat="44.9089605888077" lon="9.621762163659588"><ele>202.0</ele><time>2026-04-05T13:55:10Z</time></trkpt><trkpt lat="44.90915039925469" lon="9.621761640251691"><ele>202.0</ele><time>2026-04-05T13:55:17Z</time></trkpt><trkpt lat="44.90923657299943" lon="9.621781719861193"><ele>202.28571428571428</ele><time>2026-04-05T13:55:22Z</time></trkpt><trkpt lat="44.90929702573357" lon="9.621836032912828"><ele>202.57142857142856</ele><time>2026-04-05T13:55:44Z</time></trkpt><trkpt lat="44.909365730946625" lon="9.62186476402227"><ele>202.85714285714286</ele><time>2026-04-05T13:55:49Z</time></trkpt><trkpt lat="44.90943326899214" lon="9.62190864782681"><ele>203.14285714285714</ele><time>2026-04-05T13:55:59Z</time></trkpt><trkpt lat="44.90949769165264" lon="9.621944269719611"><ele>203.42857142857144</ele><time>2026-04-05T13:56:03Z</time></trkpt><trkpt lat="44.90955316809937" lon="9.621999276042079"><ele>203.71428571428572</ele><time>2026-04-05T13:56:18Z</time></trkpt><trkpt lat="44.909606530105556" lon="9.62204995078506"><ele>204.0</ele><time>2026-04-05T13:56:50Z</time></trkpt><trkpt lat="44.90966561935024" lon="9.622147224534906"><ele>206.33333333333334</ele><time>2026-04-05T13:57:09Z</time></trkpt><trkpt lat="44.909657048123535" lon="9.622246099221442"><ele>208.66666666666669</ele><time>2026-04-05T13:57:11Z</time></trkpt><trkpt lat="44.909573276479684" lon="9.62230614268935"><ele>211.0</ele><time>2026-04-05T13:57:13Z</time></trkpt><trkpt lat="44.90949081419168" lon="9.622255650583481"><ele>213.33333333333334</ele><time>2026-04-05T13:57:15Z</time></trkpt><trkpt lat="44.90941729023172" lon="9.622209652404662"><ele>215.66666666666669</ele><time>2026-04-05T13:57:17Z</time></trkpt><trkpt lat="44.90934731737947" lon="9.622201230395618"><ele>218.0</ele><time>2026-04-05T13:57:19Z</time></trkpt><trkpt lat="44.90927222795515" lon="9.622226709540298"><ele>217.66666666666669</ele><time>2026-04-05T13:57:21Z</time></trkpt><trkpt lat="44.90921385153447" lon="9.622288110563119"><ele>217.33333333333334</ele><time>2026-04-05T13:57:23Z</time></trkpt><trkpt lat="44.909175751028805" lon="9.622370986216948"><ele>217.0</ele><time>2026-04-05T13:57:25Z</time></trkpt><trkpt lat="44.909129868043834" lon="9.622495760143506"><ele>216.66666666666669</ele><time>2026-04-05T13:57:27Z</time></trkpt><trkpt lat="44.909084223409735" lon="9.622624382845476"><ele>216.33333333333334</ele><time>2026-04-05T13:57:29Z</time></trkpt><trkpt lat="44.90903996142725" lon="9.622755420246628"><ele>216.0</ele><time>2026-04-05T13:57:31Z</time></trkpt><trkpt lat="44.90898258433314" lon="9.622871618317246"><ele>217.16666666666666</ele><time>2026-04-05T13:57:33Z</time></trkpt><trkpt lat="44.9089192050732" lon="9.622984202030393"><ele>218.33333333333331</ele><time>2026-04-05T13:57:35.001Z</time></trkpt><trkpt lat="44.90887314374433" lon="9.623112135932821"><ele>219.5</ele><time>2026-04-05T13:57:37.001Z</time></trkpt><trkpt lat="44.908843039049096" lon="9.623204903265203"><ele>220.66666666666666</ele><time>2026-04-05T13:57:39.001Z</time></trkpt><trkpt lat="44.908836184770806" lon="9.623302611852917"><ele>221.83333333333331</ele><time>2026-04-05T13:58:13Z</time></trkpt><trkpt lat="44.90883428140561" lon="9.623436919603371"><ele>223.0</ele><time>2026-04-05T13:58:16Z</time></trkpt><trkpt lat="44.90878617406834" lon="9.623564837223439"><ele>223.0</ele><time>2026-04-05T13:58:18Z</time></trkpt><trkpt lat="44.90872179059871" lon="9.62370270003957"><ele>223.0</ele><time>2026-04-05T13:58:20Z</time></trkpt><trkpt lat="44.90865165524346" lon="9.623837145374665"><ele>223.0</ele><time>2026-04-05T13:58:22Z</time></trkpt><trkpt lat="44.908598247889906" lon="9.623962422523071"><ele>223.0</ele><time>2026-04-05T13:58:24Z</time></trkpt><trkpt lat="44.908548816433566" lon="9.6240931476262"><ele>223.0</ele><time>2026-04-05T13:58:26Z</time></trkpt><trkpt lat="44.90850625076222" lon="9.624223485270768"><ele>222.99999999999997</ele><time>2026-04-05T13:58:28Z</time></trkpt><trkpt lat="44.90846832025125" lon="9.6243304235752"><ele>223.0</ele><time>2026-04-05T13:58:30Z</time></trkpt><trkpt lat="44.90849615581715" lon="9.624423290117274"><ele>223.0</ele><time>2026-04-05T13:58:34Z</time></trkpt><trkpt lat="44.90859146137891" lon="9.624388244058576"><ele>223.0</ele><time>2026-04-05T13:58:36Z</time></trkpt><trkpt lat="44.908677670274486" lon="9.624357442784737"><ele>222.99999999999997</ele><time>2026-04-05T13:58:38Z</time></trkpt><trkpt lat="44.90875500814205" lon="9.624322409873287"><ele>223.0</ele><time>2026-04-05T13:58:40Z</time></trkpt><trkpt lat="44.90882533669163" lon="9.624288522132451"><ele>222.99999999999997</ele><time>2026-04-05T13:58:42Z</time></trkpt><trkpt lat="44.90889350105837" lon="9.624271358070178"><ele>223.0</ele><time>2026-04-05T13:58:44Z</time></trkpt><trkpt lat="44.908981258049295" lon="9.62425553020959"><ele>223.0</ele><time>2026-04-05T13:58:47Z</time></trkpt><trkpt lat="44.90904936106518" lon="9.62422589792691"><ele>223.0</ele><time>2026-04-05T13:58:50Z</time></trkpt><trkpt lat="44.909075303099435" lon="9.624132383992212"><ele>222.99999999999997</ele><time>2026-04-05T14:01:17Z</time></trkpt><trkpt lat="44.90904384785495" lon="9.624228627154046"><ele>223.0</ele><time>2026-04-05T14:01:47.001Z</time></trkpt><trkpt lat="44.90912519502056" lon="9.62432098255341"><ele>223.0</ele><time>2026-04-05T14:01:53.001Z</time></trkpt><trkpt lat="44.909151637505516" lon="9.624423916205659"><ele>223.0</ele><time>2026-04-05T14:01:54.001Z</time></trkpt><trkpt lat="44.90911535060185" lon="9.624544347020805"><ele>223.0</ele><time>2026-04-05T14:01:54.999Z</time></trkpt><trkpt lat="44.90909221606952" lon="9.624716573930517"><ele>223.0</ele><time>2026-04-05T14:01:55.999Z</time></trkpt><trkpt lat="44.9090758826983" lon="9.624864259525935"><ele>223.0</ele><time>2026-04-05T14:01:56.999Z</time></trkpt><trkpt lat="44.90906568412258" lon="9.625026459262104"><ele>222.8</ele><time>2026-04-05T14:01:57.999Z</time></trkpt><trkpt lat="44.90906168875051" lon="9.625181910344216"><ele>222.60000000000002</ele><time>2026-04-05T14:01:58.999Z</time></trkpt><trkpt lat="44.909049327263126" lon="9.625315316536037"><ele>222.39999999999998</ele><time>2026-04-05T14:01:59.999Z</time></trkpt><trkpt lat="44.90903156826212" lon="9.625471973595909"><ele>222.2</ele><time>2026-04-05T14:02:00.999Z</time></trkpt><trkpt lat="44.90901722462743" lon="9.625637657494364"><ele>222.0</ele><time>2026-04-05T14:02:01.999Z</time></trkpt><trkpt lat="44.909007775563666" lon="9.62579835907988"><ele>221.6</ele><time>2026-04-05T14:02:02.999Z</time></trkpt><trkpt lat="44.90899986139592" lon="9.625960440929916"><ele>221.2</ele><time>2026-04-05T14:02:03.999Z</time></trkpt><trkpt lat="44.90899071059783" lon="9.626117251084539"><ele>220.8</ele><time>2026-04-05T14:02:04.999Z</time></trkpt><trkpt lat="44.9089898803619" lon="9.62625296467188"><ele>220.4</ele><time>2026-04-05T14:02:05.999Z</time></trkpt><trkpt lat="44.90896438526498" lon="9.626393344635131"><ele>220.0</ele><time>2026-04-05T14:02:06.999Z</time></trkpt><trkpt lat="44.908955758947805" lon="9.626543329852515"><ele>219.8</ele><time>2026-04-05T14:02:07.999Z</time></trkpt><trkpt lat="44.90896232950254" lon="9.626718626310097"><ele>219.6</ele><time>2026-04-05T14:02:08.999Z</time></trkpt><trkpt lat="44.90895394692689" lon="9.626866457300382"><ele>219.39999999999998</ele><time>2026-04-05T14:02:09.999Z</time></trkpt><trkpt lat="44.90894735362906" lon="9.627010935428595"><ele>219.2</ele><time>2026-04-05T14:02:10.999Z</time></trkpt><trkpt lat="44.90892533275173" lon="9.627154566418215"><ele>219.0</ele><time>2026-04-05T14:02:11.999Z</time></trkpt><trkpt lat="44.908918752594374" lon="9.62729371783373"><ele>219.6</ele><time>2026-04-05T14:02:12.999Z</time></trkpt><trkpt lat="44.90892804789068" lon="9.627425096288036"><ele>220.2</ele><time>2026-04-05T14:02:13.999Z</time></trkpt><trkpt lat="44.908918248393235" lon="9.627566551432553"><ele>220.79999999999998</ele><time>2026-04-05T14:02:14.999Z</time></trkpt><trkpt lat="44.90890607516797" lon="9.62770189777319"><ele>221.39999999999998</ele><time>2026-04-05T14:02:15.999Z</time></trkpt><trkpt lat="44.908884771050715" lon="9.627803348864388"><ele>222.0</ele><time>2026-04-05T14:02:16.999Z</time></trkpt><trkpt lat="44.908894923530184" lon="9.627974040491441"><ele>222.0</ele><time>2026-04-05T14:02:18.999Z</time></trkpt><trkpt lat="44.90890286804496" lon="9.628107064099616"><ele>222.0</ele><time>2026-04-05T14:02:20.999Z</time></trkpt><trkpt lat="44.908960741405224" lon="9.62818036766372"><ele>222.0</ele><time>2026-04-05T14:02:21.999Z</time></trkpt><trkpt lat="44.90904024372605" lon="9.628215349159552"><ele>222.0</ele><time>2026-04-05T14:02:22.999Z</time></trkpt><trkpt lat="44.909113857210464" lon="9.628231076912149"><ele>222.0</ele><time>2026-04-05T14:02:23.999Z</time></trkpt><trkpt lat="44.9091796277272" lon="9.628271349748477"><ele>222.0</ele><time>2026-04-05T14:02:24.999Z</time></trkpt><trkpt lat="44.90925640742436" lon="9.628292922325866"><ele>220.8</ele><time>2026-04-05T14:02:25.999Z</time></trkpt><trkpt lat="44.90931872064888" lon="9.628320157653345"><ele>219.6</ele><time>2026-04-05T14:02:26.999Z</time></trkpt><trkpt lat="44.90940280982813" lon="9.628349542404413"><ele>218.40000000000003</ele><time>2026-04-05T14:02:27.999Z</time></trkpt><trkpt lat="44.9094696982304" lon="9.628375169604043"><ele>217.20000000000002</ele><time>2026-04-05T14:02:28.999Z</time></trkpt><trkpt lat="44.90955851754505" lon="9.628409668276346"><ele>216.0</ele><time>2026-04-05T14:02:29.999Z</time></trkpt><trkpt lat="44.90970500646675" lon="9.628502398686656"><ele>216.0</ele><time>2026-04-05T14:02:32Z</time></trkpt><trkpt lat="44.90981994448949" lon="9.628559640528595"><ele>216.00000000000003</ele><time>2026-04-05T14:02:33Z</time></trkpt><trkpt lat="44.90992758062295" lon="9.628599454980511"><ele>216.00000000000003</ele><time>2026-04-05T14:02:34Z</time></trkpt><trkpt lat="44.9100294783565" lon="9.628637430477951"><ele>216.0</ele><time>2026-04-05T14:02:35Z</time></trkpt><trkpt lat="44.91013560794688" lon="9.62866989854104"><ele>216.0</ele><time>2026-04-05T14:02:36Z</time></trkpt><trkpt lat="44.91023372821415" lon="9.628702505113507"><ele>215.60000000000002</ele><time>2026-04-05T14:02:37Z</time></trkpt><trkpt lat="44.91033042124761" lon="9.62873573347314"><ele>215.20000000000002</ele><time>2026-04-05T14:02:38Z</time></trkpt><trkpt lat="44.91043228347051" lon="9.628771568943854"><ele>214.79999999999998</ele><time>2026-04-05T14:02:39Z</time></trkpt><trkpt lat="44.910530068398025" lon="9.628799870838842"><ele>214.39999999999998</ele><time>2026-04-05T14:02:40Z</time></trkpt><trkpt lat="44.91062678668025" lon="9.628835606489787"><ele>214.0</ele><time>2026-04-05T14:02:41Z</time></trkpt><trkpt lat="44.9107193441154" lon="9.628873082295986"><ele>213.99999999999997</ele><time>2026-04-05T14:02:42Z</time></trkpt><trkpt lat="44.910804006629256" lon="9.628907016602124"><ele>214.0</ele><time>2026-04-05T14:02:43Z</time></trkpt><trkpt lat="44.91088562868666" lon="9.628930128948083"><ele>214.0</ele><time>2026-04-05T14:02:44Z</time></trkpt><trkpt lat="44.91095438194092" lon="9.628934204621096"><ele>214.0</ele><time>2026-04-05T14:02:45Z</time></trkpt><trkpt lat="44.91101822764721" lon="9.628938071118283"><ele>213.99999999999997</ele><time>2026-04-05T14:02:46Z</time></trkpt><trkpt lat="44.91107341290244" lon="9.628862411797119"><ele>214.0</ele><time>2026-04-05T14:02:47Z</time></trkpt><trkpt lat="44.911182676756134" lon="9.628767034093508"><ele>213.33333333333331</ele><time>2026-04-05T14:02:49Z</time></trkpt><trkpt lat="44.91122576009254" lon="9.628674979589967"><ele>212.66666666666666</ele><time>2026-04-05T14:02:50Z</time></trkpt><trkpt lat="44.91129020458851" lon="9.628603187985567"><ele>212.0</ele><time>2026-04-05T14:02:51Z</time></trkpt><trkpt lat="44.91135702475544" lon="9.628538534657023"><ele>211.33333333333331</ele><time>2026-04-05T14:02:52Z</time></trkpt><trkpt lat="44.91143461971537" lon="9.628477740515338"><ele>210.66666666666666</ele><time>2026-04-05T14:02:53Z</time></trkpt><trkpt lat="44.91152632881221" lon="9.628420351449154"><ele>210.0</ele><time>2026-04-05T14:02:54Z</time></trkpt><trkpt lat="44.91160539542493" lon="9.628359143590608"><ele>210.0</ele><time>2026-04-05T14:02:55Z</time></trkpt><trkpt lat="44.91170050746588" lon="9.628296395835985"><ele>210.0</ele><time>2026-04-05T14:02:56Z</time></trkpt><trkpt lat="44.91179788855404" lon="9.628255385695411"><ele>210.0</ele><time>2026-04-05T14:02:57Z</time></trkpt><trkpt lat="44.91189739592118" lon="9.628224426593256"><ele>210.0</ele><time>2026-04-05T14:02:58Z</time></trkpt><trkpt lat="44.91199443206652" lon="9.628209114578716"><ele>210.0</ele><time>2026-04-05T14:02:59Z</time></trkpt><trkpt lat="44.91209070304682" lon="9.628200314195322"><ele>209.66666666666666</ele><time>2026-04-05T14:03:00Z</time></trkpt><trkpt lat="44.912180336694604" lon="9.628196800015845"><ele>209.33333333333331</ele><time>2026-04-05T14:03:01Z</time></trkpt><trkpt lat="44.912269747648345" lon="9.628215550251527"><ele>209.0</ele><time>2026-04-05T14:03:02Z</time></trkpt><trkpt lat="44.91235457938048" lon="9.62825300842978"><ele>208.66666666666666</ele><time>2026-04-05T14:03:03Z</time></trkpt><trkpt lat="44.91242743514187" lon="9.628312805299926"><ele>208.33333333333331</ele><time>2026-04-05T14:03:04Z</time></trkpt><trkpt lat="44.91249466716766" lon="9.628382823811677"><ele>208.0</ele><time>2026-04-05T14:03:05Z</time></trkpt><trkpt lat="44.91253769520894" lon="9.628469960859798"><ele>207.99999999999997</ele><time>2026-04-05T14:03:06Z</time></trkpt><trkpt lat="44.91255439890793" lon="9.628568149361955"><ele>208.0</ele><time>2026-04-05T14:03:07Z</time></trkpt><trkpt lat="44.91250680338035" lon="9.628670485626817"><ele>208.0</ele><time>2026-04-05T14:03:08Z</time></trkpt><trkpt lat="44.91250717627425" lon="9.62876303346369"><ele>208.0</ele><time>2026-04-05T14:03:09Z</time></trkpt><trkpt lat="44.912506754521594" lon="9.628895549107352"><ele>207.99999999999997</ele><time>2026-04-05T14:03:10Z</time></trkpt><trkpt lat="44.912500642130965" lon="9.629026324997385"><ele>208.0</ele><time>2026-04-05T14:03:11Z</time></trkpt><trkpt lat="44.91248136198767" lon="9.629154280604123"><ele>207.66666666666666</ele><time>2026-04-05T14:03:12Z</time></trkpt><trkpt lat="44.912480940485175" lon="9.629274400583098"><ele>207.33333333333331</ele><time>2026-04-05T14:03:13Z</time></trkpt><trkpt lat="44.912514683929324" lon="9.62939681194054"><ele>207.0</ele><time>2026-04-05T14:03:14Z</time></trkpt><trkpt lat="44.91255827659631" lon="9.629482706849714"><ele>206.66666666666669</ele><time>2026-04-05T14:03:15Z</time></trkpt><trkpt lat="44.91260995698768" lon="9.629545670067337"><ele>206.33333333333334</ele><time>2026-04-05T14:03:16Z</time></trkpt><trkpt lat="44.91265217063702" lon="9.629627083332352"><ele>206.0</ele><time>2026-04-05T14:03:17Z</time></trkpt><trkpt lat="44.912698489950415" lon="9.629708177902057"><ele>205.50000000000003</ele><time>2026-04-05T14:03:18Z</time></trkpt><trkpt lat="44.9127496939556" lon="9.629788614538576"><ele>205.0</ele><time>2026-04-05T14:03:19Z</time></trkpt><trkpt lat="44.912795097559055" lon="9.62987607295299"><ele>204.5</ele><time>2026-04-05T14:03:20Z</time></trkpt><trkpt lat="44.912836280217824" lon="9.629966989998659"><ele>204.0</ele><time>2026-04-05T14:03:21Z</time></trkpt><trkpt lat="44.91288352611217" lon="9.630051588727154"><ele>203.50000000000003</ele><time>2026-04-05T14:03:22Z</time></trkpt><trkpt lat="44.91292572247589" lon="9.630164322104728"><ele>203.0</ele><time>2026-04-05T14:03:23Z</time></trkpt><trkpt lat="44.91297523612175" lon="9.630260167332693"><ele>202.0</ele><time>2026-04-05T14:03:24Z</time></trkpt><trkpt lat="44.91302474968654" lon="9.630357870404398"><ele>201.0</ele><time>2026-04-05T14:03:25Z</time></trkpt><trkpt lat="44.913080728551726" lon="9.63046833095529"><ele>200.0</ele><time>2026-04-05T14:03:26Z</time></trkpt><trkpt lat="44.913136912025514" lon="9.630579195319571"><ele>199.0</ele><time>2026-04-05T14:03:27Z</time></trkpt><trkpt lat="44.91319823837247" lon="9.630659657737686"><ele>198.0</ele><time>2026-04-05T14:03:28Z</time></trkpt><trkpt lat="44.91324192260259" lon="9.630776168853258"><ele>198.0</ele><time>2026-04-05T14:03:29Z</time></trkpt><trkpt lat="44.91330252198051" lon="9.630872501272481"><ele>198.0</ele><time>2026-04-05T14:03:30Z</time></trkpt><trkpt lat="44.913325435415594" lon="9.630985610774854"><ele>198.0</ele><time>2026-04-05T14:03:31Z</time></trkpt><trkpt lat="44.91337972433245" lon="9.631091844367013"><ele>198.0</ele><time>2026-04-05T14:03:32Z</time></trkpt><trkpt lat="44.91342942774585" lon="9.631185519455329"><ele>198.0</ele><time>2026-04-05T14:03:33Z</time></trkpt><trkpt lat="44.91346677581687" lon="9.631280607289245"><ele>198.0</ele><time>2026-04-05T14:03:34Z</time></trkpt><trkpt lat="44.91353368752931" lon="9.631360718709614"><ele>194.2</ele><time>2026-04-05T14:03:35Z</time></trkpt><trkpt lat="44.91358183602453" lon="9.631482901945903"><ele>190.4</ele><time>2026-04-05T14:03:36Z</time></trkpt><trkpt lat="44.91361865789822" lon="9.631577581753882"><ele>186.6</ele><time>2026-04-05T14:03:37Z</time></trkpt><trkpt lat="44.913654413550155" lon="9.631678589906254"><ele>182.79999999999998</ele><time>2026-04-05T14:03:38Z</time></trkpt><trkpt lat="44.913649053311794" lon="9.631877193371144"><ele>179.0</ele><time>2026-04-05T14:03:40Z</time></trkpt><trkpt lat="44.913645990519754" lon="9.631974920662142"><ele>177.85714285714286</ele><time>2026-04-05T14:03:41Z</time></trkpt><trkpt lat="44.913640788318794" lon="9.632099773579391"><ele>176.71428571428572</ele><time>2026-04-05T14:03:42Z</time></trkpt><trkpt lat="44.91363471397657" lon="9.632208852480435"><ele>175.57142857142856</ele><time>2026-04-05T14:03:43Z</time></trkpt><trkpt lat="44.91362639836533" lon="9.632315989002974"><ele>174.42857142857144</ele><time>2026-04-05T14:03:44Z</time></trkpt><trkpt lat="44.91361916335577" lon="9.632413039196775"><ele>173.28571428571428</ele><time>2026-04-05T14:03:45Z</time></trkpt><trkpt lat="44.91361172888277" lon="9.632512765435669"><ele>172.14285714285714</ele><time>2026-04-05T14:03:46Z</time></trkpt><trkpt lat="44.91360488497205" lon="9.63260456997717"><ele>171.0</ele><time>2026-04-05T14:03:47Z</time></trkpt><trkpt lat="44.91360761193444" lon="9.63275199184785"><ele>170.5</ele><time>2026-04-05T14:03:49Z</time></trkpt><trkpt lat="44.913593738623824" lon="9.632861620048049"><ele>170.0</ele><time>2026-04-05T14:03:52Z</time></trkpt><trkpt lat="44.91362024597495" lon="9.6329431634901"><ele>169.5</ele><time>2026-04-05T14:04:21.999Z</time></trkpt><trkpt lat="44.91369040501314" lon="9.632952779322725"><ele>169.0</ele><time>2026-04-05T14:04:23.999Z</time></trkpt><trkpt lat="44.913802585640276" lon="9.632942652131046"><ele>168.5</ele><time>2026-04-05T14:04:26Z</time></trkpt><trkpt lat="44.91388050162042" lon="9.632925163451159"><ele>168.0</ele><time>2026-04-05T14:04:27Z</time></trkpt><trkpt lat="44.913955318553505" lon="9.63292150608553"><ele>168.0</ele><time>2026-04-05T14:04:28Z</time></trkpt><trkpt lat="44.914059473565445" lon="9.632909445972397"><ele>168.0</ele><time>2026-04-05T14:04:29Z</time></trkpt><trkpt lat="44.91418788549849" lon="9.632885977919587"><ele>168.0</ele><time>2026-04-05T14:04:30Z</time></trkpt><trkpt lat="44.914308743842945" lon="9.632860158968473"><ele>168.0</ele><time>2026-04-05T14:04:31Z</time></trkpt><trkpt lat="44.914423299696956" lon="9.632825895824869"><ele>168.5</ele><time>2026-04-05T14:04:32Z</time></trkpt><trkpt lat="44.91453349711286" lon="9.63279976845017"><ele>169.0</ele><time>2026-04-05T14:04:33Z</time></trkpt><trkpt lat="44.9146470823921" lon="9.632777552351214"><ele>169.5</ele><time>2026-04-05T14:04:34Z</time></trkpt><trkpt lat="44.914761037193884" lon="9.63275155915667"><ele>170.0</ele><time>2026-04-05T14:04:35Z</time></trkpt><trkpt lat="44.91487928963964" lon="9.632724019358788"><ele>170.0</ele><time>2026-04-05T14:04:36Z</time></trkpt><trkpt lat="44.91500082011147" lon="9.632694187914694"><ele>170.0</ele><time>2026-04-05T14:04:37Z</time></trkpt><trkpt lat="44.915127304756375" lon="9.632666663026809"><ele>170.0</ele><time>2026-04-05T14:04:38Z</time></trkpt><trkpt lat="44.915259113402136" lon="9.632636732487667"><ele>170.0</ele><time>2026-04-05T14:04:39Z</time></trkpt><trkpt lat="44.9153942529148" lon="9.632607579654719"><ele>169.5</ele><time>2026-04-05T14:04:40Z</time></trkpt><trkpt lat="44.91552493023813" lon="9.632578973223165"><ele>169.0</ele><time>2026-04-05T14:04:41Z</time></trkpt><trkpt lat="44.91565000245718" lon="9.632546345799591"><ele>168.5</ele><time>2026-04-05T14:04:42Z</time></trkpt><trkpt lat="44.915776026250676" lon="9.632514474788191"><ele>168.0</ele><time>2026-04-05T14:04:43Z</time></trkpt><trkpt lat="44.915896289097866" lon="9.632478121232666"><ele>167.75</ele><time>2026-04-05T14:04:44Z</time></trkpt><trkpt lat="44.91600752195787" lon="9.632433103863328"><ele>167.5</ele><time>2026-04-05T14:04:45Z</time></trkpt><trkpt lat="44.916114455804994" lon="9.632373453559888"><ele>167.25</ele><time>2026-04-05T14:04:46Z</time></trkpt><trkpt lat="44.91621733960578" lon="9.63230197940496"><ele>167.0</ele><time>2026-04-05T14:04:47Z</time></trkpt><trkpt lat="44.916312676121684" lon="9.632209788242406"><ele>167.0</ele><time>2026-04-05T14:04:48Z</time></trkpt><trkpt lat="44.9164011928995" lon="9.632105511519237"><ele>167.0</ele><time>2026-04-05T14:04:49Z</time></trkpt><trkpt lat="44.916492800143125" lon="9.632001434783946"><ele>167.0</ele><time>2026-04-05T14:04:50Z</time></trkpt><trkpt lat="44.91657995342469" lon="9.631892744937186"><ele>167.0</ele><time>2026-04-05T14:04:51Z</time></trkpt><trkpt lat="44.91666593735725" lon="9.631781862240505"><ele>168.0</ele><time>2026-04-05T14:04:52Z</time></trkpt><trkpt lat="44.91675193594749" lon="9.631672229375962"><ele>169.0</ele><time>2026-04-05T14:04:53Z</time></trkpt><trkpt lat="44.91683993243284" lon="9.631565116837018"><ele>170.0</ele><time>2026-04-05T14:04:54Z</time></trkpt><trkpt lat="44.91692330655509" lon="9.631456450103004"><ele>171.0</ele><time>2026-04-05T14:04:55Z</time></trkpt><trkpt lat="44.917006576109756" lon="9.63134816965955"><ele>171.0</ele><time>2026-04-05T14:04:56Z</time></trkpt><trkpt lat="44.917089920720095" lon="9.631239942287381"><ele>171.0</ele><time>2026-04-05T14:04:57Z</time></trkpt><trkpt lat="44.91717747204115" lon="9.63113688720162"><ele>171.0</ele><time>2026-04-05T14:04:58Z</time></trkpt><trkpt lat="44.917268902464635" lon="9.631041896881749"><ele>171.0</ele><time>2026-04-05T14:04:59Z</time></trkpt><trkpt lat="44.917367324228444" lon="9.63095653052994"><ele>170.75</ele><time>2026-04-05T14:05:00Z</time></trkpt><trkpt lat="44.91747010032483" lon="9.6308797656347"><ele>170.5</ele><time>2026-04-05T14:05:01Z</time></trkpt><trkpt lat="44.91757230383003" lon="9.630818455133948"><ele>170.25</ele><time>2026-04-05T14:05:02Z</time></trkpt><trkpt lat="44.91768305283487" lon="9.630781527617799"><ele>170.0</ele><time>2026-04-05T14:05:03Z</time></trkpt><trkpt lat="44.91779941135033" lon="9.630763395665518"><ele>170.0</ele><time>2026-04-05T14:05:04Z</time></trkpt><trkpt lat="44.917917103560065" lon="9.630740262423164"><ele>170.0</ele><time>2026-04-05T14:05:05Z</time></trkpt><trkpt lat="44.918037317007816" lon="9.630717892741684"><ele>170.0</ele><time>2026-04-05T14:05:06Z</time></trkpt><trkpt lat="44.91816335438449" lon="9.630700157802437"><ele>170.0</ele><time>2026-04-05T14:05:07Z</time></trkpt><trkpt lat="44.91828887683952" lon="9.630678236438843"><ele>169.5</ele><time>2026-04-05T14:05:08Z</time></trkpt><trkpt lat="44.918414250430104" lon="9.630654139677953"><ele>169.0</ele><time>2026-04-05T14:05:09Z</time></trkpt><trkpt lat="44.91854139231099" lon="9.63062752369351"><ele>168.5</ele><time>2026-04-05T14:05:10Z</time></trkpt><trkpt lat="44.91866593616859" lon="9.6305967653147"><ele>168.0</ele><time>2026-04-05T14:05:11Z</time></trkpt><trkpt lat="44.91878354469506" lon="9.630554743299216"><ele>168.0</ele><time>2026-04-05T14:05:12Z</time></trkpt><trkpt lat="44.91889170251499" lon="9.63049812976833"><ele>168.0</ele><time>2026-04-05T14:05:13Z</time></trkpt><trkpt lat="44.919003514563435" lon="9.630423309096836"><ele>168.0</ele><time>2026-04-05T14:05:14Z</time></trkpt><trkpt lat="44.91912296306202" lon="9.63034788939969"><ele>168.0</ele><time>2026-04-05T14:05:15Z</time></trkpt><trkpt lat="44.919243505768385" lon="9.63027514314673"><ele>167.75</ele><time>2026-04-05T14:05:16Z</time></trkpt><trkpt lat="44.91936435162145" lon="9.630203472415953"><ele>167.5</ele><time>2026-04-05T14:05:17Z</time></trkpt><trkpt lat="44.9194821134741" lon="9.630134487446284"><ele>167.25</ele><time>2026-04-05T14:05:18Z</time></trkpt><trkpt lat="44.91959964883594" lon="9.630063798309267"><ele>167.0</ele><time>2026-04-05T14:05:19Z</time></trkpt><trkpt lat="44.91971426761493" lon="9.630000910145926"><ele>167.0</ele><time>2026-04-05T14:05:20Z</time></trkpt><trkpt lat="44.91982806370867" lon="9.62994421139956"><ele>167.0</ele><time>2026-04-05T14:05:21Z</time></trkpt><trkpt lat="44.9199363479321" lon="9.629889069964163"><ele>167.0</ele><time>2026-04-05T14:05:22Z</time></trkpt><trkpt lat="44.920040429162505" lon="9.629834854143686"><ele>167.0</ele><time>2026-04-05T14:05:23Z</time></trkpt><trkpt lat="44.92014939271368" lon="9.629798549350573"><ele>167.25</ele><time>2026-04-05T14:05:24Z</time></trkpt><trkpt lat="44.92026356310866" lon="9.629768406366605"><ele>167.5</ele><time>2026-04-05T14:05:25Z</time></trkpt><trkpt lat="44.920380735500096" lon="9.629737963419277"><ele>167.75</ele><time>2026-04-05T14:05:26Z</time></trkpt><trkpt lat="44.920499327940774" lon="9.629715840486021"><ele>168.0</ele><time>2026-04-05T14:05:27Z</time></trkpt><trkpt lat="44.92062123118172" lon="9.629706186027464"><ele>168.0</ele><time>2026-04-05T14:05:28Z</time></trkpt><trkpt lat="44.92074557389736" lon="9.629705685736676"><ele>168.0</ele><time>2026-04-05T14:05:29Z</time></trkpt><trkpt lat="44.920868229544624" lon="9.629705772041277"><ele>168.0</ele><time>2026-04-05T14:05:30Z</time></trkpt><trkpt lat="44.92098381589312" lon="9.629704092778683"><ele>168.0</ele><time>2026-04-05T14:05:31Z</time></trkpt><trkpt lat="44.92109567218714" lon="9.629705410888645"><ele>167.8</ele><time>2026-04-05T14:05:32Z</time></trkpt><trkpt lat="44.921211891524415" lon="9.629716216915696"><ele>167.60000000000002</ele><time>2026-04-05T14:05:33Z</time></trkpt><trkpt lat="44.92132108187096" lon="9.62972574127458"><ele>167.39999999999998</ele><time>2026-04-05T14:05:34Z</time></trkpt><trkpt lat="44.92142639845631" lon="9.6297278309845"><ele>167.2</ele><time>2026-04-05T14:05:35Z</time></trkpt><trkpt lat="44.921524111470774" lon="9.629730597767217"><ele>167.0</ele><time>2026-04-05T14:05:36Z</time></trkpt><trkpt lat="44.92161813492435" lon="9.629737184906869"><ele>167.0</ele><time>2026-04-05T14:05:37Z</time></trkpt><trkpt lat="44.92170785535368" lon="9.629745241091264"><ele>167.0</ele><time>2026-04-05T14:05:38Z</time></trkpt><trkpt lat="44.921794164435774" lon="9.629755009577918"><ele>167.0</ele><time>2026-04-05T14:05:39Z</time></trkpt><trkpt lat="44.92186981829175" lon="9.629763685890055"><ele>167.0</ele><time>2026-04-05T14:05:40Z</time></trkpt><trkpt lat="44.92193529604662" lon="9.629774869658458"><ele>167.0</ele><time>2026-04-05T14:05:41Z</time></trkpt><trkpt lat="44.92203331129908" lon="9.629805373375541"><ele>167.0</ele><time>2026-04-05T14:05:43Z</time></trkpt><trkpt lat="44.9220407726052" lon="9.629918147347208"><ele>166.0</ele><time>2026-04-05T14:05:47Z</time></trkpt><trkpt lat="44.92200846436004" lon="9.630015138753864"><ele>165.0</ele><time>2026-04-05T14:05:57Z</time></trkpt><trkpt lat="44.921983889798256" lon="9.630131599962091"><ele>164.0</ele><time>2026-04-05T14:05:59Z</time></trkpt><trkpt lat="44.9219759169654" lon="9.630250230923403"><ele>163.0</ele><time>2026-04-05T14:06:01Z</time></trkpt><trkpt lat="44.921953875955126" lon="9.630404735292746"><ele>162.0</ele><time>2026-04-05T14:06:03Z</time></trkpt><trkpt lat="44.92191559119073" lon="9.630580909341333"><ele>161.42857142857144</ele><time>2026-04-05T14:06:05.001Z</time></trkpt><trkpt lat="44.92188391195586" lon="9.630674146237471"><ele>160.85714285714286</ele><time>2026-04-05T14:06:06.001Z</time></trkpt><trkpt lat="44.921861015024305" lon="9.630762483231731"><ele>160.28571428571428</ele><time>2026-04-05T14:06:07Z</time></trkpt><trkpt lat="44.921849034752846" lon="9.630852868184215"><ele>159.71428571428572</ele><time>2026-04-05T14:06:08Z</time></trkpt><trkpt lat="44.9218476669346" lon="9.630946655670785"><ele>159.14285714285714</ele><time>2026-04-05T14:06:09Z</time></trkpt><trkpt lat="44.92183233188251" lon="9.631052179898836"><ele>158.57142857142858</ele><time>2026-04-05T14:06:10Z</time></trkpt><trkpt lat="44.92180145877652" lon="9.631155138077045"><ele>158.0</ele><time>2026-04-05T14:06:11Z</time></trkpt><trkpt lat="44.92179514173045" lon="9.631279691677882"><ele>157.25</ele><time>2026-04-05T14:06:12Z</time></trkpt><trkpt lat="44.921760680619414" lon="9.63144716358149"><ele>156.5</ele><time>2026-04-05T14:06:13Z</time></trkpt><trkpt lat="44.92169981405983" lon="9.631649002808418"><ele>155.75</ele><time>2026-04-05T14:06:14Z</time></trkpt><trkpt lat="44.92166840751217" lon="9.631854051323977"><ele>155.0</ele><time>2026-04-05T14:06:15Z</time></trkpt><trkpt lat="44.92160594291615" lon="9.632030613436434"><ele>154.0</ele><time>2026-04-05T14:06:16Z</time></trkpt><trkpt lat="44.921562942960385" lon="9.632244280588708"><ele>153.0</ele><time>2026-04-05T14:06:17Z</time></trkpt><trkpt lat="44.921540484502536" lon="9.632492968992555"><ele>152.0</ele><time>2026-04-05T14:06:18Z</time></trkpt><trkpt lat="44.92153885327109" lon="9.632765051060076"><ele>151.33333333333331</ele><time>2026-04-05T14:06:19Z</time></trkpt><trkpt lat="44.92154134133429" lon="9.63300193099906"><ele>150.66666666666666</ele><time>2026-04-05T14:06:20Z</time></trkpt><trkpt lat="44.92153498875303" lon="9.633218597435441"><ele>150.0</ele><time>2026-04-05T14:06:21Z</time></trkpt><trkpt lat="44.92152450554729" lon="9.633434698759764"><ele>150.33333333333334</ele><time>2026-04-05T14:06:22Z</time></trkpt><trkpt lat="44.92151371659483" lon="9.633657102612144"><ele>150.66666666666669</ele><time>2026-04-05T14:06:23Z</time></trkpt><trkpt lat="44.92149942946657" lon="9.633886207811917"><ele>151.0</ele><time>2026-04-05T14:06:24Z</time></trkpt><trkpt lat="44.9214809856958" lon="9.634133589318065"><ele>151.0</ele><time>2026-04-05T14:06:25Z</time></trkpt><trkpt lat="44.92147908171079" lon="9.634379114539689"><ele>151.0</ele><time>2026-04-05T14:06:26Z</time></trkpt><trkpt lat="44.92145919937288" lon="9.634602874167573"><ele>151.0</ele><time>2026-04-05T14:06:27Z</time></trkpt><trkpt lat="44.92144244486874" lon="9.634802166262133"><ele>152.25</ele><time>2026-04-05T14:06:28Z</time></trkpt><trkpt lat="44.92142994557092" lon="9.634988299693406"><ele>153.5</ele><time>2026-04-05T14:06:29Z</time></trkpt><trkpt lat="44.9214186881749" lon="9.63516701518074"><ele>154.75</ele><time>2026-04-05T14:06:30Z</time></trkpt><trkpt lat="44.92140762267869" lon="9.635344074720095"><ele>156.0</ele><time>2026-04-05T14:06:31Z</time></trkpt><trkpt lat="44.92139531946154" lon="9.63550967473101"><ele>156.8</ele><time>2026-04-05T14:06:32Z</time></trkpt><trkpt lat="44.92138337809901" lon="9.63568744067759"><ele>157.6</ele><time>2026-04-05T14:06:33Z</time></trkpt><trkpt lat="44.92136983305363" lon="9.635861629688732"><ele>158.4</ele><time>2026-04-05T14:06:34Z</time></trkpt><trkpt lat="44.92136311129933" lon="9.636010440884428"><ele>159.2</ele><time>2026-04-05T14:06:35Z</time></trkpt><trkpt lat="44.921340549462734" lon="9.63611956920492"><ele>160.0</ele><time>2026-04-05T14:06:36Z</time></trkpt><trkpt lat="44.921437942535455" lon="9.636258688983814"><ele>160.16666666666669</ele><time>2026-04-05T14:06:38Z</time></trkpt><trkpt lat="44.9215264168998" lon="9.636292166002923"><ele>160.33333333333334</ele><time>2026-04-05T14:06:40Z</time></trkpt><trkpt lat="44.92159872530084" lon="9.636347134479356"><ele>160.5</ele><time>2026-04-05T14:06:43Z</time></trkpt><trkpt lat="44.921688552205524" lon="9.63637216413885"><ele>160.66666666666666</ele><time>2026-04-05T14:06:45Z</time></trkpt><trkpt lat="44.92176726149847" lon="9.636402129305843"><ele>160.83333333333331</ele><time>2026-04-05T14:06:46Z</time></trkpt><trkpt lat="44.92185825234392" lon="9.636452444163014"><ele>161.0</ele><time>2026-04-05T14:06:47Z</time></trkpt><trkpt lat="44.92196490627467" lon="9.636512746883216"><ele>161.0</ele><time>2026-04-05T14:06:48Z</time></trkpt><trkpt lat="44.922083433776194" lon="9.636580146065713"><ele>161.0</ele><time>2026-04-05T14:06:49Z</time></trkpt><trkpt lat="44.92221105501986" lon="9.636650074149596"><ele>161.0</ele><time>2026-04-05T14:06:50Z</time></trkpt><trkpt lat="44.92234205188104" lon="9.636719232524776"><ele>161.0</ele><time>2026-04-05T14:06:51Z</time></trkpt><trkpt lat="44.92247686388191" lon="9.636796229901721"><ele>160.5</ele><time>2026-04-05T14:06:52Z</time></trkpt><trkpt lat="44.92261014718249" lon="9.636868202300178"><ele>160.0</ele><time>2026-04-05T14:06:53Z</time></trkpt><trkpt lat="44.92274159813992" lon="9.636936153928065"><ele>159.5</ele><time>2026-04-05T14:06:54Z</time></trkpt><trkpt lat="44.922872158385246" lon="9.637005458569254"><ele>159.0</ele><time>2026-04-05T14:06:55Z</time></trkpt><trkpt lat="44.92299546914568" lon="9.637069688985646"><ele>159.0</ele><time>2026-04-05T14:06:56Z</time></trkpt><trkpt lat="44.923119882001906" lon="9.637135994560305"><ele>159.0</ele><time>2026-04-05T14:06:57Z</time></trkpt><trkpt lat="44.92325147092504" lon="9.63720958378015"><ele>159.0</ele><time>2026-04-05T14:06:58Z</time></trkpt><trkpt lat="44.92338116430071" lon="9.637279785479526"><ele>159.0</ele><time>2026-04-05T14:06:59Z</time></trkpt><trkpt lat="44.923517398836196" lon="9.637351672993947"><ele>158.0</ele><time>2026-04-05T14:07:00Z</time></trkpt><trkpt lat="44.923641619498326" lon="9.63744129578502"><ele>157.0</ele><time>2026-04-05T14:07:01Z</time></trkpt><trkpt lat="44.92376454130195" lon="9.637509782468863"><ele>156.0</ele><time>2026-04-05T14:07:02Z</time></trkpt><trkpt lat="44.923898951535485" lon="9.637565913807897"><ele>155.0</ele><time>2026-04-05T14:07:03Z</time></trkpt><trkpt lat="44.92403226060873" lon="9.637645367185053"><ele>155.0</ele><time>2026-04-05T14:07:04Z</time></trkpt><trkpt lat="44.924169785102215" lon="9.63772031810093"><ele>155.0</ele><time>2026-04-05T14:07:05Z</time></trkpt><trkpt lat="44.924312253623725" lon="9.637793532505166"><ele>155.0</ele><time>2026-04-05T14:07:06Z</time></trkpt><trkpt lat="44.92444564066054" lon="9.637860958914317"><ele>155.0</ele><time>2026-04-05T14:07:07Z</time></trkpt><trkpt lat="44.92456856377024" lon="9.63792694019389"><ele>154.75</ele><time>2026-04-05T14:07:08Z</time></trkpt><trkpt lat="44.924690934109236" lon="9.637993273039886"><ele>154.5</ele><time>2026-04-05T14:07:09Z</time></trkpt><trkpt lat="44.92481856642014" lon="9.638058411545238"><ele>154.25</ele><time>2026-04-05T14:07:10Z</time></trkpt><trkpt lat="44.92494451814314" lon="9.638120843818607"><ele>154.0</ele><time>2026-04-05T14:07:11Z</time></trkpt><trkpt lat="44.92507716480105" lon="9.63818705357629"><ele>153.5</ele><time>2026-04-05T14:07:12Z</time></trkpt><trkpt lat="44.92522137292963" lon="9.63825537957209"><ele>153.0</ele><time>2026-04-05T14:07:13Z</time></trkpt><trkpt lat="44.92536889437426" lon="9.638310671231988"><ele>152.5</ele><time>2026-04-05T14:07:14Z</time></trkpt><trkpt lat="44.92549483688529" lon="9.638360777881536"><ele>152.0</ele><time>2026-04-05T14:07:15Z</time></trkpt><trkpt lat="44.9256206771242" lon="9.63841028201797"><ele>152.0</ele><time>2026-04-05T14:07:16Z</time></trkpt><trkpt lat="44.92578530425309" lon="9.638472727531173"><ele>152.0</ele><time>2026-04-05T14:07:17Z</time></trkpt><trkpt lat="44.92596172272062" lon="9.638536699625968"><ele>152.0</ele><time>2026-04-05T14:07:18Z</time></trkpt><trkpt lat="44.92612247657392" lon="9.638587692441897"><ele>151.75</ele><time>2026-04-05T14:07:19Z</time></trkpt><trkpt lat="44.92626995807429" lon="9.638628610529356"><ele>151.5</ele><time>2026-04-05T14:07:20Z</time></trkpt><trkpt lat="44.926398406350266" lon="9.638659001614196"><ele>151.25</ele><time>2026-04-05T14:07:21Z</time></trkpt><trkpt lat="44.926524884502605" lon="9.638682791658361"><ele>151.0</ele><time>2026-04-05T14:07:22Z</time></trkpt><trkpt lat="44.9266475211246" lon="9.63870692622536"><ele>151.0</ele><time>2026-04-05T14:07:23Z</time></trkpt><trkpt lat="44.92677381497009" lon="9.63873934142059"><ele>151.0</ele><time>2026-04-05T14:07:24Z</time></trkpt><trkpt lat="44.92690418921364" lon="9.638778320934707"><ele>151.0</ele><time>2026-04-05T14:07:25Z</time></trkpt><trkpt lat="44.92701866314975" lon="9.638807893371748"><ele>151.0</ele><time>2026-04-05T14:07:26Z</time></trkpt><trkpt lat="44.9271213834784" lon="9.638876619228066"><ele>151.0</ele><time>2026-04-05T14:07:27Z</time></trkpt><trkpt lat="44.92724983338603" lon="9.638951475203578"><ele>151.0</ele><time>2026-04-05T14:07:28Z</time></trkpt><trkpt lat="44.92740591779266" lon="9.63906675242355"><ele>151.0</ele><time>2026-04-05T14:07:29Z</time></trkpt><trkpt lat="44.92756787694675" lon="9.639184919487294"><ele>149.33333333333334</ele><time>2026-04-05T14:07:30Z</time></trkpt><trkpt lat="44.92771280847674" lon="9.639287809644479"><ele>147.66666666666666</ele><time>2026-04-05T14:07:31Z</time></trkpt><trkpt lat="44.927856712351215" lon="9.639367427156191"><ele>146.0</ele><time>2026-04-05T14:07:32Z</time></trkpt><trkpt lat="44.92799409479942" lon="9.639467198330781"><ele>146.0</ele><time>2026-04-05T14:07:33Z</time></trkpt><trkpt lat="44.928123763054515" lon="9.639587716777308"><ele>146.0</ele><time>2026-04-05T14:07:34Z</time></trkpt><trkpt lat="44.92826622813195" lon="9.63967109905427"><ele>146.0</ele><time>2026-04-05T14:07:35Z</time></trkpt><trkpt lat="44.92840809489096" lon="9.639780277978122"><ele>145.66666666666666</ele><time>2026-04-05T14:07:36Z</time></trkpt><trkpt lat="44.92853875601546" lon="9.639914688456159"><ele>145.33333333333334</ele><time>2026-04-05T14:07:37Z</time></trkpt><trkpt lat="44.928671167990245" lon="9.64003202167897"><ele>145.0</ele><time>2026-04-05T14:07:38Z</time></trkpt><trkpt lat="44.928801129191854" lon="9.640149948619277"><ele>145.0</ele><time>2026-04-05T14:07:39Z</time></trkpt><trkpt lat="44.92893135639787" lon="9.640271071017562"><ele>145.0</ele><time>2026-04-05T14:07:40Z</time></trkpt><trkpt lat="44.92906335736614" lon="9.640393843074968"><ele>145.0</ele><time>2026-04-05T14:07:41Z</time></trkpt><trkpt lat="44.9291968065317" lon="9.640516855279177"><ele>144.0</ele><time>2026-04-05T14:07:42Z</time></trkpt><trkpt lat="44.9293451821297" lon="9.640653256053033"><ele>143.0</ele><time>2026-04-05T14:07:43Z</time></trkpt><trkpt lat="44.929485915177594" lon="9.640782631414902"><ele>142.0</ele><time>2026-04-05T14:07:44Z</time></trkpt><trkpt lat="44.9296107436784" lon="9.64089342793378"><ele>142.0</ele><time>2026-04-05T14:07:45Z</time></trkpt><trkpt lat="44.92973625473819" lon="9.641005598124035"><ele>142.0</ele><time>2026-04-05T14:07:46Z</time></trkpt><trkpt lat="44.92985687409958" lon="9.6411088821041"><ele>142.0</ele><time>2026-04-05T14:07:47Z</time></trkpt><trkpt lat="44.92996628955185" lon="9.641208715638173"><ele>142.0</ele><time>2026-04-05T14:07:48.001Z</time></trkpt><trkpt lat="44.930070415846615" lon="9.641302464300809"><ele>141.79999999999998</ele><time>2026-04-05T14:07:49.001Z</time></trkpt><trkpt lat="44.93017075511718" lon="9.641388613683011"><ele>141.6</ele><time>2026-04-05T14:07:50.001Z</time></trkpt><trkpt lat="44.93026637191979" lon="9.641462685390092"><ele>141.39999999999998</ele><time>2026-04-05T14:07:51.001Z</time></trkpt><trkpt lat="44.930370655165106" lon="9.641504508334581"><ele>141.2</ele><time>2026-04-05T14:07:52.001Z</time></trkpt><trkpt lat="44.930469493330214" lon="9.641551281080499"><ele>141.0</ele><time>2026-04-05T14:07:53.001Z</time></trkpt><trkpt lat="44.93056790996949" lon="9.64161598537726"><ele>141.0</ele><time>2026-04-05T14:07:54.001Z</time></trkpt><trkpt lat="44.93066978811309" lon="9.641664515569662"><ele>141.0</ele><time>2026-04-05T14:07:55.001Z</time></trkpt><trkpt lat="44.93077213570691" lon="9.641713108027965"><ele>141.0</ele><time>2026-04-05T14:07:56.001Z</time></trkpt><trkpt lat="44.930867847193674" lon="9.641758071344821"><ele>141.0</ele><time>2026-04-05T14:07:57.001Z</time></trkpt><trkpt lat="44.9309617266412" lon="9.641801763135444"><ele>141.0</ele><time>2026-04-05T14:07:58.001Z</time></trkpt><trkpt lat="44.93105057134452" lon="9.641843111694055"><ele>140.8</ele><time>2026-04-05T14:07:59.001Z</time></trkpt><trkpt lat="44.93114832747736" lon="9.641888607473613"><ele>140.6</ele><time>2026-04-05T14:08:00.001Z</time></trkpt><trkpt lat="44.931251570542884" lon="9.641936657181928"><ele>140.4</ele><time>2026-04-05T14:08:01.001Z</time></trkpt><trkpt lat="44.93135626132577" lon="9.6419856938158"><ele>140.2</ele><time>2026-04-05T14:08:02.001Z</time></trkpt><trkpt lat="44.93146188084404" lon="9.642035606053554"><ele>140.0</ele><time>2026-04-05T14:08:03.001Z</time></trkpt><trkpt lat="44.93157148408765" lon="9.642067848933477"><ele>140.0</ele><time>2026-04-05T14:08:04.001Z</time></trkpt><trkpt lat="44.93168256077187" lon="9.642125625892087"><ele>140.0</ele><time>2026-04-05T14:08:05.001Z</time></trkpt><trkpt lat="44.93180255654572" lon="9.642185439351547"><ele>140.0</ele><time>2026-04-05T14:08:06.001Z</time></trkpt><trkpt lat="44.931939895357495" lon="9.642249198335936"><ele>140.0</ele><time>2026-04-05T14:08:07.001Z</time></trkpt><trkpt lat="44.932105685708606" lon="9.642323065768203"><ele>139.66666666666666</ele><time>2026-04-05T14:08:08.001Z</time></trkpt><trkpt lat="44.93226966109287" lon="9.642397696478714"><ele>139.33333333333334</ele><time>2026-04-05T14:08:09.001Z</time></trkpt><trkpt lat="44.93240686093015" lon="9.642484393058176"><ele>139.0</ele><time>2026-04-05T14:08:10.001Z</time></trkpt><trkpt lat="44.93254615814122" lon="9.642527967840522"><ele>138.25</ele><time>2026-04-05T14:08:11.001Z</time></trkpt><trkpt lat="44.93268493518684" lon="9.642590199611169"><ele>137.5</ele><time>2026-04-05T14:08:12.001Z</time></trkpt><trkpt lat="44.93282618635661" lon="9.642643309804944"><ele>136.75</ele><time>2026-04-05T14:08:13Z</time></trkpt><trkpt lat="44.93295785535291" lon="9.642712535424542"><ele>136.0</ele><time>2026-04-05T14:08:14Z</time></trkpt><trkpt lat="44.93312157280207" lon="9.642762583155262"><ele>136.33333333333334</ele><time>2026-04-05T14:08:15Z</time></trkpt><trkpt lat="44.933303121118" lon="9.642817414666622"><ele>136.66666666666666</ele><time>2026-04-05T14:08:16Z</time></trkpt><trkpt lat="44.93346636703882" lon="9.642872628700028"><ele>137.0</ele><time>2026-04-05T14:08:17Z</time></trkpt><trkpt lat="44.93362555781698" lon="9.642909057244285"><ele>135.66666666666666</ele><time>2026-04-05T14:08:18Z</time></trkpt><trkpt lat="44.9337802349938" lon="9.64296932646895"><ele>134.33333333333334</ele><time>2026-04-05T14:08:19Z</time></trkpt><trkpt lat="44.93392976510414" lon="9.643028847558766"><ele>133.0</ele><time>2026-04-05T14:08:20Z</time></trkpt><trkpt lat="44.934072176294734" lon="9.643089550968632"><ele>133.0</ele><time>2026-04-05T14:08:21Z</time></trkpt><trkpt lat="44.934221201711146" lon="9.643150016544032"><ele>133.0</ele><time>2026-04-05T14:08:22Z</time></trkpt><trkpt lat="44.93436877935271" lon="9.643203538496037"><ele>133.0</ele><time>2026-04-05T14:08:23Z</time></trkpt><trkpt lat="44.93451145559941" lon="9.643280742215836"><ele>132.33333333333334</ele><time>2026-04-05T14:08:24Z</time></trkpt><trkpt lat="44.93467347618442" lon="9.643318132977289"><ele>131.66666666666666</ele><time>2026-04-05T14:08:25Z</time></trkpt><trkpt lat="44.93483771589065" lon="9.643380174205165"><ele>131.0</ele><time>2026-04-05T14:08:26Z</time></trkpt><trkpt lat="44.93499047484957" lon="9.643438219016035"><ele>130.5</ele><time>2026-04-05T14:08:27Z</time></trkpt><trkpt lat="44.9351324684207" lon="9.643490428491845"><ele>130.0</ele><time>2026-04-05T14:08:28Z</time></trkpt><trkpt lat="44.935275638988855" lon="9.643541943779818"><ele>129.5</ele><time>2026-04-05T14:08:29Z</time></trkpt><trkpt lat="44.935421700539614" lon="9.643593976793523"><ele>129.0</ele><time>2026-04-05T14:08:30Z</time></trkpt><trkpt lat="44.93557416587224" lon="9.643647284902833"><ele>128.66666666666666</ele><time>2026-04-05T14:08:31Z</time></trkpt><trkpt lat="44.93573122943428" lon="9.643704497260863"><ele>128.33333333333331</ele><time>2026-04-05T14:08:32Z</time></trkpt><trkpt lat="44.935891349447125" lon="9.643766419769838"><ele>128.0</ele><time>2026-04-05T14:08:33Z</time></trkpt><trkpt lat="44.936055453107734" lon="9.643828774435175"><ele>128.0</ele><time>2026-04-05T14:08:34Z</time></trkpt><trkpt lat="44.936219158194135" lon="9.64389164691296"><ele>128.0</ele><time>2026-04-05T14:08:35Z</time></trkpt><trkpt lat="44.93637701121028" lon="9.643951596806106"><ele>128.0</ele><time>2026-04-05T14:08:36Z</time></trkpt><trkpt lat="44.93652348638501" lon="9.644006460100945"><ele>128.0</ele><time>2026-04-05T14:08:37Z</time></trkpt><trkpt lat="44.936667215288864" lon="9.644062163806256"><ele>128.0</ele><time>2026-04-05T14:08:38Z</time></trkpt><trkpt lat="44.93681249686554" lon="9.64412088329583"><ele>128.0</ele><time>2026-04-05T14:08:39Z</time></trkpt><trkpt lat="44.93695973492022" lon="9.644174661995716"><ele>127.75</ele><time>2026-04-05T14:08:40Z</time></trkpt><trkpt lat="44.93710825822092" lon="9.644225071368856"><ele>127.5</ele><time>2026-04-05T14:08:41Z</time></trkpt><trkpt lat="44.9372404576968" lon="9.644299632361085"><ele>127.25</ele><time>2026-04-05T14:08:42Z</time></trkpt><trkpt lat="44.93736663964419" lon="9.644348109987705"><ele>127.0</ele><time>2026-04-05T14:08:43Z</time></trkpt><trkpt lat="44.93748636816968" lon="9.64439410833411"><ele>127.0</ele><time>2026-04-05T14:08:44Z</time></trkpt><trkpt lat="44.937595220134284" lon="9.644435927901375"><ele>126.99999999999999</ele><time>2026-04-05T14:08:45Z</time></trkpt><trkpt lat="44.93769985330022" lon="9.644454910390053"><ele>126.99999999999999</ele><time>2026-04-05T14:08:46Z</time></trkpt><trkpt lat="44.9377916490954" lon="9.644494002721268"><ele>127.0</ele><time>2026-04-05T14:08:47Z</time></trkpt><trkpt lat="44.937877549636454" lon="9.64452096728751"><ele>127.0</ele><time>2026-04-05T14:08:48Z</time></trkpt><trkpt lat="44.937952704121315" lon="9.644547125123383"><ele>127.00000000000001</ele><time>2026-04-05T14:08:49Z</time></trkpt><trkpt lat="44.93801488870551" lon="9.64460392698776"><ele>127.0</ele><time>2026-04-05T14:08:51Z</time></trkpt><trkpt lat="44.937986663216904" lon="9.644692157624153"><ele>127.0</ele><time>2026-04-05T14:08:53Z</time></trkpt><trkpt lat="44.93795448137557" lon="9.64477285136801"><ele>127.0</ele><time>2026-04-05T14:08:55Z</time></trkpt><trkpt lat="44.937903077380085" lon="9.644900404862588"><ele>127.00000000000001</ele><time>2026-04-05T14:09:05Z</time></trkpt><trkpt lat="44.937859200678766" lon="9.6450375125404"><ele>127.0</ele><time>2026-04-05T14:09:07Z</time></trkpt><trkpt lat="44.93780308904716" lon="9.645180282611756"><ele>127.00000000000001</ele><time>2026-04-05T14:09:09Z</time></trkpt><trkpt lat="44.937772834925916" lon="9.6452608210675"><ele>127.0</ele><time>2026-04-05T14:09:10Z</time></trkpt><trkpt lat="44.93774164104232" lon="9.645350672595635"><ele>127.0</ele><time>2026-04-05T14:09:11Z</time></trkpt><trkpt lat="44.937709630022994" lon="9.645442758755065"><ele>127.0</ele><time>2026-04-05T14:09:12Z</time></trkpt><trkpt lat="44.93767412268667" lon="9.645542218500928"><ele>127.00000000000001</ele><time>2026-04-05T14:09:13Z</time></trkpt><trkpt lat="44.93763686397069" lon="9.645646003754624"><ele>127.0</ele><time>2026-04-05T14:09:14Z</time></trkpt><trkpt lat="44.93759754874773" lon="9.645754635696044"><ele>127.00000000000001</ele><time>2026-04-05T14:09:15Z</time></trkpt><trkpt lat="44.93755926203534" lon="9.645862145904916"><ele>127.0</ele><time>2026-04-05T14:09:16Z</time></trkpt><trkpt lat="44.937521577338835" lon="9.645971229928518"><ele>127.0</ele><time>2026-04-05T14:09:17Z</time></trkpt><trkpt lat="44.93748275969738" lon="9.646081699526091"><ele>127.0</ele><time>2026-04-05T14:09:18Z</time></trkpt><trkpt lat="44.93744244108435" lon="9.646194597755226"><ele>127.00000000000001</ele><time>2026-04-05T14:09:19Z</time></trkpt><trkpt lat="44.937396447630704" lon="9.646317043116737"><ele>127.0</ele><time>2026-04-05T14:09:20Z</time></trkpt><trkpt lat="44.93734639799873" lon="9.646447249097939"><ele>127.5</ele><time>2026-04-05T14:09:21Z</time></trkpt><trkpt lat="44.93729921515626" lon="9.646581481186798"><ele>128.0</ele><time>2026-04-05T14:09:22Z</time></trkpt><trkpt lat="44.937251694906486" lon="9.64672157406919"><ele>128.5</ele><time>2026-04-05T14:09:23Z</time></trkpt><trkpt lat="44.93719596145776" lon="9.646864234566912"><ele>129.0</ele><time>2026-04-05T14:09:24Z</time></trkpt><trkpt lat="44.937131893407596" lon="9.647013265299195"><ele>129.4</ele><time>2026-04-05T14:09:25Z</time></trkpt><trkpt lat="44.93707123028755" lon="9.647167802553248"><ele>129.8</ele><time>2026-04-05T14:09:26Z</time></trkpt><trkpt lat="44.937018618029505" lon="9.647305555806234"><ele>130.2</ele><time>2026-04-05T14:09:27Z</time></trkpt><trkpt lat="44.93696926477041" lon="9.64743119491465"><ele>130.6</ele><time>2026-04-05T14:09:28Z</time></trkpt><trkpt lat="44.93691833324759" lon="9.647552219541673"><ele>131.0</ele><time>2026-04-05T14:09:29Z</time></trkpt><trkpt lat="44.93686652054751" lon="9.647676439249484"><ele>131.2</ele><time>2026-04-05T14:09:30Z</time></trkpt><trkpt lat="44.93681776378173" lon="9.647799028167515"><ele>131.39999999999998</ele><time>2026-04-05T14:09:31Z</time></trkpt><trkpt lat="44.93676686239592" lon="9.647918957904906"><ele>131.6</ele><time>2026-04-05T14:09:32Z</time></trkpt><trkpt lat="44.936715220826194" lon="9.648046630143243"><ele>131.79999999999998</ele><time>2026-04-05T14:09:33Z</time></trkpt><trkpt lat="44.93666205827397" lon="9.648174642963603"><ele>132.0</ele><time>2026-04-05T14:09:34Z</time></trkpt><trkpt lat="44.93660851975572" lon="9.648301036540659"><ele>132.0</ele><time>2026-04-05T14:09:35Z</time></trkpt><trkpt lat="44.93655326535182" lon="9.648437698745479"><ele>132.0</ele><time>2026-04-05T14:09:36Z</time></trkpt><trkpt lat="44.9364964333428" lon="9.64857866166811"><ele>132.0</ele><time>2026-04-05T14:09:37.001Z</time></trkpt><trkpt lat="44.93643777391807" lon="9.648721368243697"><ele>132.0</ele><time>2026-04-05T14:09:38.001Z</time></trkpt><trkpt lat="44.93637788239756" lon="9.648868984198254"><ele>132.0</ele><time>2026-04-05T14:09:39.001Z</time></trkpt><trkpt lat="44.93631750478238" lon="9.649026009770868"><ele>132.0</ele><time>2026-04-05T14:09:40.001Z</time></trkpt><trkpt lat="44.936257327201616" lon="9.649181076120259"><ele>132.0</ele><time>2026-04-05T14:09:41.001Z</time></trkpt><trkpt lat="44.93619432428913" lon="9.6493307655072"><ele>132.0</ele><time>2026-04-05T14:09:42.001Z</time></trkpt><trkpt lat="44.93613063625274" lon="9.649485587080926"><ele>132.0</ele><time>2026-04-05T14:09:43.001Z</time></trkpt><trkpt lat="44.93606203141951" lon="9.64965371373849"><ele>132.0</ele><time>2026-04-05T14:09:44.001Z</time></trkpt><trkpt lat="44.93599361781202" lon="9.649827095140463"><ele>132.0</ele><time>2026-04-05T14:09:45.001Z</time></trkpt><trkpt lat="44.93592267962073" lon="9.650001205573512"><ele>132.0</ele><time>2026-04-05T14:09:46.001Z</time></trkpt><trkpt lat="44.935849345757035" lon="9.650178088192945"><ele>132.33333333333334</ele><time>2026-04-05T14:09:47.001Z</time></trkpt><trkpt lat="44.93577528481642" lon="9.650360331880874"><ele>132.66666666666669</ele><time>2026-04-05T14:09:48.001Z</time></trkpt><trkpt lat="44.935702950450896" lon="9.650548135423765"><ele>133.0</ele><time>2026-04-05T14:09:49.001Z</time></trkpt><trkpt lat="44.93562637800946" lon="9.650735870547955"><ele>133.0</ele><time>2026-04-05T14:09:50.001Z</time></trkpt><trkpt lat="44.93554984622766" lon="9.650923148909357"><ele>133.0</ele><time>2026-04-05T14:09:51.001Z</time></trkpt><trkpt lat="44.935475683886274" lon="9.651106554489287"><ele>133.0</ele><time>2026-04-05T14:09:52.001Z</time></trkpt><trkpt lat="44.93540124124392" lon="9.65128849243549"><ele>133.5</ele><time>2026-04-05T14:09:53.001Z</time></trkpt><trkpt lat="44.93532681297104" lon="9.651467768732601"><ele>134.0</ele><time>2026-04-05T14:09:54.001Z</time></trkpt><trkpt lat="44.93525532301514" lon="9.651646234032444"><ele>134.5</ele><time>2026-04-05T14:09:55.001Z</time></trkpt><trkpt lat="44.93518692458689" lon="9.651824555096885"><ele>135.0</ele><time>2026-04-05T14:09:56.001Z</time></trkpt><trkpt lat="44.935119766293305" lon="9.65200061285475"><ele>135.25</ele><time>2026-04-05T14:09:57.001Z</time></trkpt><trkpt lat="44.935059677719615" lon="9.652179474912636"><ele>135.5</ele><time>2026-04-05T14:09:58.001Z</time></trkpt><trkpt lat="44.935006412454335" lon="9.652364447870076"><ele>135.75</ele><time>2026-04-05T14:09:59.001Z</time></trkpt><trkpt lat="44.93496175654319" lon="9.652547912327194"><ele>136.0</ele><time>2026-04-05T14:10:00.001Z</time></trkpt><trkpt lat="44.93492401194843" lon="9.652734556293902"><ele>137.0</ele><time>2026-04-05T14:10:01.001Z</time></trkpt><trkpt lat="44.934892479793675" lon="9.65292536916166"><ele>138.0</ele><time>2026-04-05T14:10:02.001Z</time></trkpt><trkpt lat="44.93486552822205" lon="9.653122389229832"><ele>139.0</ele><time>2026-04-05T14:10:03.001Z</time></trkpt><trkpt lat="44.93483579543939" lon="9.653327028438078"><ele>140.0</ele><time>2026-04-05T14:10:04.001Z</time></trkpt><trkpt lat="44.93480386137946" lon="9.653537624192102"><ele>139.5</ele><time>2026-04-05T14:10:05.001Z</time></trkpt><trkpt lat="44.934775406804434" lon="9.653755655422279"><ele>139.0</ele><time>2026-04-05T14:10:06.001Z</time></trkpt><trkpt lat="44.934749619890795" lon="9.653954622708556"><ele>138.5</ele><time>2026-04-05T14:10:07.001Z</time></trkpt><trkpt lat="44.93472279500353" lon="9.65415997288588"><ele>138.0</ele><time>2026-04-05T14:10:08.001Z</time></trkpt><trkpt lat="44.93469546801605" lon="9.654368569762191"><ele>137.66666666666666</ele><time>2026-04-05T14:10:09.001Z</time></trkpt><trkpt lat="44.9346664611061" lon="9.654578117895431"><ele>137.33333333333331</ele><time>2026-04-05T14:10:10.001Z</time></trkpt><trkpt lat="44.93463619334094" lon="9.65478916111868"><ele>137.0</ele><time>2026-04-05T14:10:11.001Z</time></trkpt><trkpt lat="44.93460550632733" lon="9.655001986036869"><ele>137.0</ele><time>2026-04-05T14:10:12.001Z</time></trkpt><trkpt lat="44.93457567326564" lon="9.65521758391319"><ele>137.0</ele><time>2026-04-05T14:10:13.001Z</time></trkpt><trkpt lat="44.93454444337499" lon="9.65543539586162"><ele>137.0</ele><time>2026-04-05T14:10:14.001Z</time></trkpt><trkpt lat="44.93451091131657" lon="9.655653063213759"><ele>137.0</ele><time>2026-04-05T14:10:15.001Z</time></trkpt><trkpt lat="44.934473159200344" lon="9.655871635488396"><ele>137.0</ele><time>2026-04-05T14:10:16.001Z</time></trkpt><trkpt lat="44.9344324423501" lon="9.656090927796225"><ele>137.0</ele><time>2026-04-05T14:10:17.001Z</time></trkpt><trkpt lat="44.93438956803797" lon="9.656311014446578"><ele>137.33333333333331</ele><time>2026-04-05T14:10:18.001Z</time></trkpt><trkpt lat="44.93434453329173" lon="9.656527518869463"><ele>137.66666666666666</ele><time>2026-04-05T14:10:19.001Z</time></trkpt><trkpt lat="44.93429923962418" lon="9.65673070893494"><ele>138.0</ele><time>2026-04-05T14:10:20.001Z</time></trkpt><trkpt lat="44.93425238580752" lon="9.656932055984745"><ele>138.0</ele><time>2026-04-05T14:10:21.001Z</time></trkpt><trkpt lat="44.93420180399424" lon="9.65713435788298"><ele>138.0</ele><time>2026-04-05T14:10:22.001Z</time></trkpt><trkpt lat="44.93414911221435" lon="9.657338664087018"><ele>138.0</ele><time>2026-04-05T14:10:23.001Z</time></trkpt><trkpt lat="44.93409629038917" lon="9.657542138353291"><ele>138.0</ele><time>2026-04-05T14:10:24.001Z</time></trkpt><trkpt lat="44.93404361257471" lon="9.657747253132126"><ele>138.0</ele><time>2026-04-05T14:10:25Z</time></trkpt><trkpt lat="44.933990609946264" lon="9.65795493603565"><ele>138.0</ele><time>2026-04-05T14:10:26Z</time></trkpt><trkpt lat="44.933936608474085" lon="9.65816199344337"><ele>138.0</ele><time>2026-04-05T14:10:27Z</time></trkpt><trkpt lat="44.93388192088151" lon="9.658369259696583"><ele>138.0</ele><time>2026-04-05T14:10:28Z</time></trkpt><trkpt lat="44.93383025014879" lon="9.658577738788544"><ele>138.0</ele><time>2026-04-05T14:10:29Z</time></trkpt><trkpt lat="44.933776510978916" lon="9.658784311679765"><ele>138.0</ele><time>2026-04-05T14:10:30Z</time></trkpt><trkpt lat="44.93372186033379" lon="9.658988865873178"><ele>138.0</ele><time>2026-04-05T14:10:31Z</time></trkpt><trkpt lat="44.93366715391703" lon="9.659195391165216"><ele>138.0</ele><time>2026-04-05T14:10:32Z</time></trkpt><trkpt lat="44.93361284270873" lon="9.659401794104673"><ele>137.66666666666666</ele><time>2026-04-05T14:10:33Z</time></trkpt><trkpt lat="44.93355959453482" lon="9.65960968021859"><ele>137.33333333333331</ele><time>2026-04-05T14:10:34Z</time></trkpt><trkpt lat="44.933507201148984" lon="9.659817291891711"><ele>137.0</ele><time>2026-04-05T14:10:35Z</time></trkpt><trkpt lat="44.93345604525025" lon="9.66002556857775"><ele>137.0</ele><time>2026-04-05T14:10:36Z</time></trkpt><trkpt lat="44.933407144876035" lon="9.66023238044388"><ele>137.0</ele><time>2026-04-05T14:10:37Z</time></trkpt><trkpt lat="44.93335481336182" lon="9.660438085317969"><ele>137.0</ele><time>2026-04-05T14:10:38Z</time></trkpt><trkpt lat="44.9332974051293" lon="9.66064128635595"><ele>137.66666666666666</ele><time>2026-04-05T14:10:39Z</time></trkpt><trkpt lat="44.93324261362103" lon="9.6608435427651"><ele>138.33333333333334</ele><time>2026-04-05T14:10:40Z</time></trkpt><trkpt lat="44.93319065122863" lon="9.661049230160458"><ele>139.0</ele><time>2026-04-05T14:10:41Z</time></trkpt><trkpt lat="44.933140545888655" lon="9.661252536644252"><ele>139.0</ele><time>2026-04-05T14:10:42Z</time></trkpt><trkpt lat="44.93308821392669" lon="9.661454381398038"><ele>139.0</ele><time>2026-04-05T14:10:43Z</time></trkpt><trkpt lat="44.93303522192079" lon="9.661657169407555"><ele>139.0</ele><time>2026-04-05T14:10:44Z</time></trkpt><trkpt lat="44.932984472126634" lon="9.661861507041282"><ele>139.66666666666669</ele><time>2026-04-05T14:10:45Z</time></trkpt><trkpt lat="44.93293486968897" lon="9.662068863039885"><ele>140.33333333333334</ele><time>2026-04-05T14:10:46Z</time></trkpt><trkpt lat="44.93288645019356" lon="9.662276985034708"><ele>141.0</ele><time>2026-04-05T14:10:47Z</time></trkpt><trkpt lat="44.93284035300082" lon="9.66248839600912"><ele>141.0</ele><time>2026-04-05T14:10:48Z</time></trkpt><trkpt lat="44.93279820813029" lon="9.662700373976818"><ele>141.0</ele><time>2026-04-05T14:10:49Z</time></trkpt><trkpt lat="44.9327586649653" lon="9.66291436746579"><ele>141.0</ele><time>2026-04-05T14:10:50Z</time></trkpt><trkpt lat="44.93272489938604" lon="9.66312831322391"><ele>141.0</ele><time>2026-04-05T14:10:51Z</time></trkpt><trkpt lat="44.93269010085122" lon="9.66333969343209"><ele>141.0</ele><time>2026-04-05T14:10:52Z</time></trkpt><trkpt lat="44.932657176512066" lon="9.66355213538978"><ele>141.0</ele><time>2026-04-05T14:10:53Z</time></trkpt><trkpt lat="44.93262625145547" lon="9.663765444102374"><ele>140.66666666666666</ele><time>2026-04-05T14:10:54Z</time></trkpt><trkpt lat="44.93259838826332" lon="9.663983738621477"><ele>140.33333333333331</ele><time>2026-04-05T14:10:55Z</time></trkpt><trkpt lat="44.93257204800667" lon="9.66420326476798"><ele>140.0</ele><time>2026-04-05T14:10:56Z</time></trkpt><trkpt lat="44.932544093636714" lon="9.664425294455635"><ele>140.66666666666666</ele><time>2026-04-05T14:10:57Z</time></trkpt><trkpt lat="44.93251613068342" lon="9.664645915384249"><ele>141.33333333333334</ele><time>2026-04-05T14:10:58Z</time></trkpt><trkpt lat="44.932490281751484" lon="9.664866115055505"><ele>142.0</ele><time>2026-04-05T14:10:59Z</time></trkpt><trkpt lat="44.93246639700046" lon="9.665082974904527"><ele>141.66666666666669</ele><time>2026-04-05T14:11:00Z</time></trkpt><trkpt lat="44.93243956245792" lon="9.66529625345656"><ele>141.33333333333334</ele><time>2026-04-05T14:11:01Z</time></trkpt><trkpt lat="44.932413113954226" lon="9.665510089732077"><ele>141.0</ele><time>2026-04-05T14:11:02Z</time></trkpt><trkpt lat="44.93238932168691" lon="9.66572401236835"><ele>141.0</ele><time>2026-04-05T14:11:03Z</time></trkpt><trkpt lat="44.93236372751946" lon="9.665940062039882"><ele>141.0</ele><time>2026-04-05T14:11:04Z</time></trkpt><trkpt lat="44.93233817451178" lon="9.66615553916181"><ele>141.0</ele><time>2026-04-05T14:11:05Z</time></trkpt><trkpt lat="44.93231469064903" lon="9.666371354203864"><ele>140.75</ele><time>2026-04-05T14:11:06Z</time></trkpt><trkpt lat="44.932290544579374" lon="9.666584282215434"><ele>140.5</ele><time>2026-04-05T14:11:07Z</time></trkpt><trkpt lat="44.932265014628975" lon="9.666792918809891"><ele>140.25</ele><time>2026-04-05T14:11:08Z</time></trkpt><trkpt lat="44.93224117822026" lon="9.666991501198114"><ele>140.0</ele><time>2026-04-05T14:11:09Z</time></trkpt><trkpt lat="44.932217835080785" lon="9.667179727050256"><ele>140.0</ele><time>2026-04-05T14:11:10Z</time></trkpt><trkpt lat="44.932192571380035" lon="9.667371476523481"><ele>140.0</ele><time>2026-04-05T14:11:11Z</time></trkpt><trkpt lat="44.93217323014921" lon="9.667563872241619"><ele>140.0</ele><time>2026-04-05T14:11:12Z</time></trkpt><trkpt lat="44.93215453042427" lon="9.667755407772015"><ele>140.0</ele><time>2026-04-05T14:11:13Z</time></trkpt><trkpt lat="44.932129276888446" lon="9.667949024226084"><ele>140.25</ele><time>2026-04-05T14:11:14Z</time></trkpt><trkpt lat="44.9321068750948" lon="9.668132423464817"><ele>140.5</ele><time>2026-04-05T14:11:15Z</time></trkpt><trkpt lat="44.93208819211321" lon="9.668307715124516"><ele>140.75</ele><time>2026-04-05T14:11:16Z</time></trkpt><trkpt lat="44.93206947677699" lon="9.668470126241909"><ele>141.0</ele><time>2026-04-05T14:11:17Z</time></trkpt><trkpt lat="44.93204684815862" lon="9.668631843068864"><ele>140.5</ele><time>2026-04-05T14:11:18Z</time></trkpt><trkpt lat="44.93202664993129" lon="9.668787165190928"><ele>140.0</ele><time>2026-04-05T14:11:19Z</time></trkpt><trkpt lat="44.93200837357166" lon="9.668948592211821"><ele>139.5</ele><time>2026-04-05T14:11:20Z</time></trkpt><trkpt lat="44.93198891151318" lon="9.669113164480047"><ele>139.0</ele><time>2026-04-05T14:11:21Z</time></trkpt><trkpt lat="44.93196863976811" lon="9.669263466598101"><ele>139.0</ele><time>2026-04-05T14:11:22Z</time></trkpt><trkpt lat="44.93195078403374" lon="9.6694049719972"><ele>139.0</ele><time>2026-04-05T14:11:23Z</time></trkpt><trkpt lat="44.931936431415195" lon="9.669538538309485"><ele>139.0</ele><time>2026-04-05T14:11:24Z</time></trkpt><trkpt lat="44.93192229408102" lon="9.669655753360663"><ele>139.0</ele><time>2026-04-05T14:11:25Z</time></trkpt><trkpt lat="44.93190542089328" lon="9.66975811558092"><ele>139.0</ele><time>2026-04-05T14:11:26Z</time></trkpt><trkpt lat="44.93190331387102" lon="9.669891359102632"><ele>139.6</ele><time>2026-04-05T14:11:28Z</time></trkpt><trkpt lat="44.931904335049126" lon="9.669989725556126"><ele>140.2</ele><time>2026-04-05T14:11:32Z</time></trkpt><trkpt lat="44.931953132855135" lon="9.670079460997915"><ele>140.79999999999998</ele><time>2026-04-05T14:11:41Z</time></trkpt><trkpt lat="44.93206557947137" lon="9.670048737649994"><ele>141.4</ele><time>2026-04-05T14:11:42.001Z</time></trkpt><trkpt lat="44.93217493137301" lon="9.670002938571413"><ele>142.0</ele><time>2026-04-05T14:11:43.001Z</time></trkpt><trkpt lat="44.932274752568766" lon="9.669965698344415"><ele>142.0</ele><time>2026-04-05T14:11:44.001Z</time></trkpt><trkpt lat="44.932383576471395" lon="9.669935065101738"><ele>142.0</ele><time>2026-04-05T14:11:45.001Z</time></trkpt><trkpt lat="44.93250503731667" lon="9.669899152081047"><ele>142.0</ele><time>2026-04-05T14:11:46.001Z</time></trkpt><trkpt lat="44.932648257706695" lon="9.669858856118216"><ele>142.0</ele><time>2026-04-05T14:11:47.001Z</time></trkpt><trkpt lat="44.9328002189173" lon="9.669814547258115"><ele>142.25</ele><time>2026-04-05T14:11:48.001Z</time></trkpt><trkpt lat="44.932946766656606" lon="9.669773563342074"><ele>142.5</ele><time>2026-04-05T14:11:49.001Z</time></trkpt><trkpt lat="44.93309543957314" lon="9.669735425906257"><ele>142.75</ele><time>2026-04-05T14:11:50.001Z</time></trkpt><trkpt lat="44.93323757114933" lon="9.669704247971252"><ele>143.0</ele><time>2026-04-05T14:11:51.001Z</time></trkpt><trkpt lat="44.93337552033118" lon="9.669683222619659"><ele>143.0</ele><time>2026-04-05T14:11:52.001Z</time></trkpt><trkpt lat="44.93351672627726" lon="9.669676482374262"><ele>143.0</ele><time>2026-04-05T14:11:53.001Z</time></trkpt><trkpt lat="44.93366139416871" lon="9.669690821916937"><ele>143.0</ele><time>2026-04-05T14:11:54.001Z</time></trkpt><trkpt lat="44.93379924554586" lon="9.66971690016867"><ele>143.0</ele><time>2026-04-05T14:11:55.001Z</time></trkpt><trkpt lat="44.93393349218036" lon="9.669758610569463"><ele>143.0</ele><time>2026-04-05T14:11:56.001Z</time></trkpt><trkpt lat="44.93406044816397" lon="9.669813239716861"><ele>143.0</ele><time>2026-04-05T14:11:57.001Z</time></trkpt><trkpt lat="44.93417444569761" lon="9.669878335827546"><ele>143.0</ele><time>2026-04-05T14:11:58.001Z</time></trkpt><trkpt lat="44.93428191323261" lon="9.669948874939823"><ele>143.0</ele><time>2026-04-05T14:11:59.001Z</time></trkpt><trkpt lat="44.93438068728488" lon="9.670025611101416"><ele>142.75</ele><time>2026-04-05T14:12:00.001Z</time></trkpt><trkpt lat="44.93448006263653" lon="9.670111036632383"><ele>142.5</ele><time>2026-04-05T14:12:01.001Z</time></trkpt><trkpt lat="44.93457639193386" lon="9.67021172119604"><ele>142.25</ele><time>2026-04-05T14:12:02.001Z</time></trkpt><trkpt lat="44.93467099882678" lon="9.67031957512874"><ele>142.0</ele><time>2026-04-05T14:12:03.001Z</time></trkpt><trkpt lat="44.934748715440264" lon="9.670440929585613"><ele>142.0</ele><time>2026-04-05T14:12:04.001Z</time></trkpt><trkpt lat="44.934818586363804" lon="9.670564551399705"><ele>142.0</ele><time>2026-04-05T14:12:05.001Z</time></trkpt><trkpt lat="44.934887433681176" lon="9.670687731430522"><ele>142.0</ele><time>2026-04-05T14:12:06.001Z</time></trkpt><trkpt lat="44.934945344860274" lon="9.670799037415303"><ele>142.0</ele><time>2026-04-05T14:12:07.001Z</time></trkpt><trkpt lat="44.93500860844241" lon="9.6708918814365"><ele>142.0</ele><time>2026-04-05T14:12:08.001Z</time></trkpt><trkpt lat="44.93504928629773" lon="9.670986911383782"><ele>142.0</ele><time>2026-04-05T14:12:09.001Z</time></trkpt><trkpt lat="44.935084111934536" lon="9.671075353643396"><ele>142.0</ele><time>2026-04-05T14:12:10.001Z</time></trkpt><trkpt lat="44.935127404449084" lon="9.671166031522555"><ele>142.0</ele><time>2026-04-05T14:12:11.001Z</time></trkpt><trkpt lat="44.93516127845517" lon="9.67126818642479"><ele>142.0</ele><time>2026-04-05T14:12:12.001Z</time></trkpt><trkpt lat="44.93519940456941" lon="9.671352686644049"><ele>142.0</ele><time>2026-04-05T14:12:13.001Z</time></trkpt><trkpt lat="44.935297718431464" lon="9.671370511947968"><ele>142.0</ele><time>2026-04-05T14:12:14.001Z</time></trkpt><trkpt lat="44.93539449138758" lon="9.671470082788302"><ele>143.0</ele><time>2026-04-05T14:12:16.001Z</time></trkpt><trkpt lat="44.935465272346605" lon="9.671573419911262"><ele>143.0</ele><time>2026-04-05T14:12:18.001Z</time></trkpt><trkpt lat="44.93535811903395" lon="9.671711686548788"><ele>143.0</ele><time>2026-04-05T14:12:20.001Z</time></trkpt><trkpt lat="44.935492851498495" lon="9.671608889128757"><ele>143.0</ele><time>2026-04-05T14:12:31Z</time></trkpt></trkseg></trk></gpx>